<?xml version="1.0" encoding="UTF-8" standalone="no" ?>
<gpx xmlns="http://www.topografix.com/GPX/1/1" xmlns:xsi="http://www.w3.org/2001/XMLSchema-instance" xsi:schemaLocation="http://www.topografix.com/GPX/1/1 http://www.topografix.com/GPX/1/1/gpx.xsd" version="1.1" creator="VisuGPX - https://www.visugpx.com">
  <metadata>
    <name>Les Cabannes VTT électrique</name>
  </metadata>
  <trk>
    <name><![CDATA[Les Cabannes VTT électrique_1]]></name>
    <trkseg>
      <trkpt lat="44.06954" lon="1.93611">
        <ele>166.2</ele>
        <time>2024-04-07T06:40:21Z</time>
      </trkpt>
      <trkpt lat="44.06954" lon="1.93611">
        <ele>173.4</ele>
        <time>2024-04-07T06:40:22Z</time>
      </trkpt>
      <trkpt lat="44.06945" lon="1.93628">
        <ele>173.4</ele>
        <time>2024-04-07T06:40:46Z</time>
      </trkpt>
      <trkpt lat="44.0694" lon="1.93634">
        <ele>173.4</ele>
        <time>2024-04-07T06:40:48Z</time>
      </trkpt>
      <trkpt lat="44.06936" lon="1.9364">
        <ele>173.6</ele>
        <time>2024-04-07T06:40:50Z</time>
      </trkpt>
      <trkpt lat="44.06931" lon="1.93647">
        <ele>173.6</ele>
        <time>2024-04-07T06:40:52Z</time>
      </trkpt>
      <trkpt lat="44.06928" lon="1.93652">
        <ele>173.6</ele>
        <time>2024-04-07T06:40:53Z</time>
      </trkpt>
      <trkpt lat="44.06926" lon="1.93656">
        <ele>173.6</ele>
        <time>2024-04-07T06:40:54Z</time>
      </trkpt>
      <trkpt lat="44.06923" lon="1.9366">
        <ele>173.8</ele>
        <time>2024-04-07T06:40:55Z</time>
      </trkpt>
      <trkpt lat="44.06921" lon="1.93665">
        <ele>173.8</ele>
        <time>2024-04-07T06:40:56Z</time>
      </trkpt>
      <trkpt lat="44.06919" lon="1.9367">
        <ele>173.8</ele>
        <time>2024-04-07T06:40:57Z</time>
      </trkpt>
      <trkpt lat="44.06917" lon="1.93675">
        <ele>174</ele>
        <time>2024-04-07T06:40:58Z</time>
      </trkpt>
      <trkpt lat="44.06915" lon="1.9368">
        <ele>174</ele>
        <time>2024-04-07T06:40:59Z</time>
      </trkpt>
      <trkpt lat="44.06913" lon="1.93685">
        <ele>174</ele>
        <time>2024-04-07T06:41:00Z</time>
      </trkpt>
      <trkpt lat="44.06911" lon="1.93691">
        <ele>174</ele>
        <time>2024-04-07T06:41:01Z</time>
      </trkpt>
      <trkpt lat="44.06908" lon="1.93695">
        <ele>174</ele>
        <time>2024-04-07T06:41:02Z</time>
      </trkpt>
      <trkpt lat="44.06905" lon="1.93701">
        <ele>174</ele>
        <time>2024-04-07T06:41:03Z</time>
      </trkpt>
      <trkpt lat="44.06903" lon="1.93705">
        <ele>174</ele>
        <time>2024-04-07T06:41:04Z</time>
      </trkpt>
      <trkpt lat="44.069" lon="1.9371">
        <ele>174</ele>
        <time>2024-04-07T06:41:05Z</time>
      </trkpt>
      <trkpt lat="44.06897" lon="1.93715">
        <ele>174</ele>
        <time>2024-04-07T06:41:06Z</time>
      </trkpt>
      <trkpt lat="44.06894" lon="1.93719">
        <ele>174.2</ele>
        <time>2024-04-07T06:41:07Z</time>
      </trkpt>
      <trkpt lat="44.06892" lon="1.93724">
        <ele>174.2</ele>
        <time>2024-04-07T06:41:08Z</time>
      </trkpt>
      <trkpt lat="44.0689" lon="1.93728">
        <ele>174.2</ele>
        <time>2024-04-07T06:41:09Z</time>
      </trkpt>
      <trkpt lat="44.06887" lon="1.93732">
        <ele>174.2</ele>
        <time>2024-04-07T06:41:10Z</time>
      </trkpt>
      <trkpt lat="44.06885" lon="1.93736">
        <ele>174.2</ele>
        <time>2024-04-07T06:41:11Z</time>
      </trkpt>
      <trkpt lat="44.06882" lon="1.93742">
        <ele>174.2</ele>
        <time>2024-04-07T06:41:12Z</time>
      </trkpt>
      <trkpt lat="44.06878" lon="1.93747">
        <ele>174.4</ele>
        <time>2024-04-07T06:41:13Z</time>
      </trkpt>
      <trkpt lat="44.06875" lon="1.93751">
        <ele>174.4</ele>
        <time>2024-04-07T06:41:14Z</time>
      </trkpt>
      <trkpt lat="44.06873" lon="1.93754">
        <ele>174.4</ele>
        <time>2024-04-07T06:41:15Z</time>
      </trkpt>
      <trkpt lat="44.0687" lon="1.93757">
        <ele>174.6</ele>
        <time>2024-04-07T06:41:16Z</time>
      </trkpt>
      <trkpt lat="44.06869" lon="1.93759">
        <ele>174.6</ele>
        <time>2024-04-07T06:41:17Z</time>
      </trkpt>
      <trkpt lat="44.06867" lon="1.93762">
        <ele>174.8</ele>
        <time>2024-04-07T06:41:18Z</time>
      </trkpt>
      <trkpt lat="44.06865" lon="1.93764">
        <ele>175</ele>
        <time>2024-04-07T06:41:19Z</time>
      </trkpt>
      <trkpt lat="44.06862" lon="1.93768">
        <ele>175</ele>
        <time>2024-04-07T06:41:20Z</time>
      </trkpt>
      <trkpt lat="44.06859" lon="1.93771">
        <ele>175</ele>
        <time>2024-04-07T06:41:21Z</time>
      </trkpt>
      <trkpt lat="44.06857" lon="1.93775">
        <ele>175.2</ele>
        <time>2024-04-07T06:41:22Z</time>
      </trkpt>
      <trkpt lat="44.06854" lon="1.93778">
        <ele>175.2</ele>
        <time>2024-04-07T06:41:23Z</time>
      </trkpt>
      <trkpt lat="44.06851" lon="1.93781">
        <ele>175.2</ele>
        <time>2024-04-07T06:41:24Z</time>
      </trkpt>
      <trkpt lat="44.06848" lon="1.93785">
        <ele>175.4</ele>
        <time>2024-04-07T06:41:25Z</time>
      </trkpt>
      <trkpt lat="44.06845" lon="1.93789">
        <ele>175.6</ele>
        <time>2024-04-07T06:41:26Z</time>
      </trkpt>
      <trkpt lat="44.06842" lon="1.93792">
        <ele>175.6</ele>
        <time>2024-04-07T06:41:27Z</time>
      </trkpt>
      <trkpt lat="44.06839" lon="1.93796">
        <ele>175.8</ele>
        <time>2024-04-07T06:41:28Z</time>
      </trkpt>
      <trkpt lat="44.06836" lon="1.93799">
        <ele>175.8</ele>
        <time>2024-04-07T06:41:29Z</time>
      </trkpt>
      <trkpt lat="44.06833" lon="1.93802">
        <ele>176</ele>
        <time>2024-04-07T06:41:30Z</time>
      </trkpt>
      <trkpt lat="44.06831" lon="1.93805">
        <ele>176</ele>
        <time>2024-04-07T06:41:31Z</time>
      </trkpt>
      <trkpt lat="44.06829" lon="1.93808">
        <ele>176</ele>
        <time>2024-04-07T06:41:32Z</time>
      </trkpt>
      <trkpt lat="44.06826" lon="1.93811">
        <ele>176.2</ele>
        <time>2024-04-07T06:41:33Z</time>
      </trkpt>
      <trkpt lat="44.06823" lon="1.93813">
        <ele>176.2</ele>
        <time>2024-04-07T06:41:34Z</time>
      </trkpt>
      <trkpt lat="44.0682" lon="1.93817">
        <ele>176.2</ele>
        <time>2024-04-07T06:41:35Z</time>
      </trkpt>
      <trkpt lat="44.06816" lon="1.93821">
        <ele>176.2</ele>
        <time>2024-04-07T06:41:36Z</time>
      </trkpt>
      <trkpt lat="44.06813" lon="1.93824">
        <ele>176.4</ele>
        <time>2024-04-07T06:41:37Z</time>
      </trkpt>
      <trkpt lat="44.0681" lon="1.93828">
        <ele>176.6</ele>
        <time>2024-04-07T06:41:38Z</time>
      </trkpt>
      <trkpt lat="44.06808" lon="1.93831">
        <ele>176.8</ele>
        <time>2024-04-07T06:41:39Z</time>
      </trkpt>
      <trkpt lat="44.06805" lon="1.93833">
        <ele>177</ele>
        <time>2024-04-07T06:41:40Z</time>
      </trkpt>
      <trkpt lat="44.06802" lon="1.93837">
        <ele>177</ele>
        <time>2024-04-07T06:41:41Z</time>
      </trkpt>
      <trkpt lat="44.06799" lon="1.9384">
        <ele>177.2</ele>
        <time>2024-04-07T06:41:42Z</time>
      </trkpt>
      <trkpt lat="44.06796" lon="1.93843">
        <ele>177.2</ele>
        <time>2024-04-07T06:41:43Z</time>
      </trkpt>
      <trkpt lat="44.06793" lon="1.93846">
        <ele>177.4</ele>
        <time>2024-04-07T06:41:44Z</time>
      </trkpt>
      <trkpt lat="44.0679" lon="1.9385">
        <ele>177.4</ele>
        <time>2024-04-07T06:41:45Z</time>
      </trkpt>
      <trkpt lat="44.06786" lon="1.93853">
        <ele>177.6</ele>
        <time>2024-04-07T06:41:46Z</time>
      </trkpt>
      <trkpt lat="44.06783" lon="1.93857">
        <ele>177.6</ele>
        <time>2024-04-07T06:41:47Z</time>
      </trkpt>
      <trkpt lat="44.0678" lon="1.9386">
        <ele>177.6</ele>
        <time>2024-04-07T06:41:48Z</time>
      </trkpt>
      <trkpt lat="44.06776" lon="1.93864">
        <ele>177.8</ele>
        <time>2024-04-07T06:41:49Z</time>
      </trkpt>
      <trkpt lat="44.06772" lon="1.93867">
        <ele>177.8</ele>
        <time>2024-04-07T06:41:50Z</time>
      </trkpt>
      <trkpt lat="44.06768" lon="1.93869">
        <ele>178.2</ele>
        <time>2024-04-07T06:41:51Z</time>
      </trkpt>
      <trkpt lat="44.06764" lon="1.93871">
        <ele>178.2</ele>
        <time>2024-04-07T06:41:52Z</time>
      </trkpt>
      <trkpt lat="44.06761" lon="1.93873">
        <ele>178.4</ele>
        <time>2024-04-07T06:41:53Z</time>
      </trkpt>
      <trkpt lat="44.06758" lon="1.93875">
        <ele>178.4</ele>
        <time>2024-04-07T06:41:54Z</time>
      </trkpt>
      <trkpt lat="44.06756" lon="1.93877">
        <ele>178.6</ele>
        <time>2024-04-07T06:41:55Z</time>
      </trkpt>
      <trkpt lat="44.06755" lon="1.93877">
        <ele>178.6</ele>
        <time>2024-04-07T06:41:56Z</time>
      </trkpt>
      <trkpt lat="44.06755" lon="1.93878">
        <ele>178.8</ele>
        <time>2024-04-07T06:41:57Z</time>
      </trkpt>
      <trkpt lat="44.06754" lon="1.93879">
        <ele>179</ele>
        <time>2024-04-07T06:41:58Z</time>
      </trkpt>
      <trkpt lat="44.06751" lon="1.93886">
        <ele>179.6</ele>
        <time>2024-04-07T06:42:10Z</time>
      </trkpt>
      <trkpt lat="44.06749" lon="1.93887">
        <ele>179.6</ele>
        <time>2024-04-07T06:42:11Z</time>
      </trkpt>
      <trkpt lat="44.06747" lon="1.93888">
        <ele>179.6</ele>
        <time>2024-04-07T06:42:12Z</time>
      </trkpt>
      <trkpt lat="44.06745" lon="1.93889">
        <ele>179.6</ele>
        <time>2024-04-07T06:42:13Z</time>
      </trkpt>
      <trkpt lat="44.06743" lon="1.93891">
        <ele>179.6</ele>
        <time>2024-04-07T06:42:14Z</time>
      </trkpt>
      <trkpt lat="44.0674" lon="1.93892">
        <ele>179.6</ele>
        <time>2024-04-07T06:42:15Z</time>
      </trkpt>
      <trkpt lat="44.06737" lon="1.93893">
        <ele>179.6</ele>
        <time>2024-04-07T06:42:16Z</time>
      </trkpt>
      <trkpt lat="44.06734" lon="1.93894">
        <ele>179.6</ele>
        <time>2024-04-07T06:42:17Z</time>
      </trkpt>
      <trkpt lat="44.06731" lon="1.93895">
        <ele>179.8</ele>
        <time>2024-04-07T06:42:18Z</time>
      </trkpt>
      <trkpt lat="44.06728" lon="1.93896">
        <ele>179.8</ele>
        <time>2024-04-07T06:42:19Z</time>
      </trkpt>
      <trkpt lat="44.06725" lon="1.93897">
        <ele>179.8</ele>
        <time>2024-04-07T06:42:20Z</time>
      </trkpt>
      <trkpt lat="44.06722" lon="1.93898">
        <ele>179.8</ele>
        <time>2024-04-07T06:42:21Z</time>
      </trkpt>
      <trkpt lat="44.06719" lon="1.939">
        <ele>180</ele>
        <time>2024-04-07T06:42:22Z</time>
      </trkpt>
      <trkpt lat="44.06716" lon="1.93901">
        <ele>180</ele>
        <time>2024-04-07T06:42:23Z</time>
      </trkpt>
      <trkpt lat="44.06713" lon="1.93902">
        <ele>180.2</ele>
        <time>2024-04-07T06:42:24Z</time>
      </trkpt>
      <trkpt lat="44.0671" lon="1.93903">
        <ele>180.4</ele>
        <time>2024-04-07T06:42:25Z</time>
      </trkpt>
      <trkpt lat="44.06706" lon="1.93904">
        <ele>180.6</ele>
        <time>2024-04-07T06:42:26Z</time>
      </trkpt>
      <trkpt lat="44.06703" lon="1.93905">
        <ele>180.8</ele>
        <time>2024-04-07T06:42:27Z</time>
      </trkpt>
      <trkpt lat="44.067" lon="1.93906">
        <ele>180.8</ele>
        <time>2024-04-07T06:42:28Z</time>
      </trkpt>
      <trkpt lat="44.06697" lon="1.93908">
        <ele>180.8</ele>
        <time>2024-04-07T06:42:29Z</time>
      </trkpt>
      <trkpt lat="44.06693" lon="1.93909">
        <ele>180.8</ele>
        <time>2024-04-07T06:42:30Z</time>
      </trkpt>
      <trkpt lat="44.0669" lon="1.93911">
        <ele>181</ele>
        <time>2024-04-07T06:42:31Z</time>
      </trkpt>
      <trkpt lat="44.06687" lon="1.93912">
        <ele>181</ele>
        <time>2024-04-07T06:42:32Z</time>
      </trkpt>
      <trkpt lat="44.06685" lon="1.93913">
        <ele>181.2</ele>
        <time>2024-04-07T06:42:33Z</time>
      </trkpt>
      <trkpt lat="44.06682" lon="1.93913">
        <ele>181.4</ele>
        <time>2024-04-07T06:42:34Z</time>
      </trkpt>
      <trkpt lat="44.0668" lon="1.93913">
        <ele>181.6</ele>
        <time>2024-04-07T06:42:35Z</time>
      </trkpt>
      <trkpt lat="44.06679" lon="1.93911">
        <ele>181.8</ele>
        <time>2024-04-07T06:42:36Z</time>
      </trkpt>
      <trkpt lat="44.06678" lon="1.9391">
        <ele>181.8</ele>
        <time>2024-04-07T06:42:37Z</time>
      </trkpt>
      <trkpt lat="44.06677" lon="1.93909">
        <ele>182</ele>
        <time>2024-04-07T06:42:38Z</time>
      </trkpt>
      <trkpt lat="44.06676" lon="1.93908">
        <ele>182</ele>
        <time>2024-04-07T06:42:39Z</time>
      </trkpt>
      <trkpt lat="44.06674" lon="1.93909">
        <ele>182.2</ele>
        <time>2024-04-07T06:42:40Z</time>
      </trkpt>
      <trkpt lat="44.06672" lon="1.9391">
        <ele>182.2</ele>
        <time>2024-04-07T06:42:41Z</time>
      </trkpt>
      <trkpt lat="44.0667" lon="1.93913">
        <ele>182.4</ele>
        <time>2024-04-07T06:42:42Z</time>
      </trkpt>
      <trkpt lat="44.06669" lon="1.93918">
        <ele>182.4</ele>
        <time>2024-04-07T06:42:43Z</time>
      </trkpt>
      <trkpt lat="44.06667" lon="1.93923">
        <ele>182.4</ele>
        <time>2024-04-07T06:42:44Z</time>
      </trkpt>
      <trkpt lat="44.06665" lon="1.93928">
        <ele>182.4</ele>
        <time>2024-04-07T06:42:45Z</time>
      </trkpt>
      <trkpt lat="44.06663" lon="1.93933">
        <ele>182.4</ele>
        <time>2024-04-07T06:42:46Z</time>
      </trkpt>
      <trkpt lat="44.06661" lon="1.9394">
        <ele>182.4</ele>
        <time>2024-04-07T06:42:47Z</time>
      </trkpt>
      <trkpt lat="44.06661" lon="1.93947">
        <ele>182.4</ele>
        <time>2024-04-07T06:42:48Z</time>
      </trkpt>
      <trkpt lat="44.06661" lon="1.93954">
        <ele>182</ele>
        <time>2024-04-07T06:42:49Z</time>
      </trkpt>
      <trkpt lat="44.06661" lon="1.93961">
        <ele>182</ele>
        <time>2024-04-07T06:42:50Z</time>
      </trkpt>
      <trkpt lat="44.06661" lon="1.93969">
        <ele>181.8</ele>
        <time>2024-04-07T06:42:51Z</time>
      </trkpt>
      <trkpt lat="44.06661" lon="1.93976">
        <ele>181.8</ele>
        <time>2024-04-07T06:42:52Z</time>
      </trkpt>
      <trkpt lat="44.06661" lon="1.93982">
        <ele>181.6</ele>
        <time>2024-04-07T06:42:53Z</time>
      </trkpt>
      <trkpt lat="44.06661" lon="1.93988">
        <ele>181.4</ele>
        <time>2024-04-07T06:42:54Z</time>
      </trkpt>
      <trkpt lat="44.06661" lon="1.93993">
        <ele>181.2</ele>
        <time>2024-04-07T06:42:55Z</time>
      </trkpt>
      <trkpt lat="44.06661" lon="1.93998">
        <ele>180.8</ele>
        <time>2024-04-07T06:42:56Z</time>
      </trkpt>
      <trkpt lat="44.06661" lon="1.94003">
        <ele>180.8</ele>
        <time>2024-04-07T06:42:57Z</time>
      </trkpt>
      <trkpt lat="44.06662" lon="1.94006">
        <ele>180.6</ele>
        <time>2024-04-07T06:42:58Z</time>
      </trkpt>
      <trkpt lat="44.06664" lon="1.94008">
        <ele>180.6</ele>
        <time>2024-04-07T06:42:59Z</time>
      </trkpt>
      <trkpt lat="44.06666" lon="1.94009">
        <ele>180.4</ele>
        <time>2024-04-07T06:43:00Z</time>
      </trkpt>
      <trkpt lat="44.06667" lon="1.9401">
        <ele>180.2</ele>
        <time>2024-04-07T06:43:01Z</time>
      </trkpt>
      <trkpt lat="44.06669" lon="1.94012">
        <ele>180.2</ele>
        <time>2024-04-07T06:43:02Z</time>
      </trkpt>
      <trkpt lat="44.0667" lon="1.94013">
        <ele>180</ele>
        <time>2024-04-07T06:43:03Z</time>
      </trkpt>
      <trkpt lat="44.0667" lon="1.94014">
        <ele>180</ele>
        <time>2024-04-07T06:43:04Z</time>
      </trkpt>
      <trkpt lat="44.0667" lon="1.94015">
        <ele>180</ele>
        <time>2024-04-07T06:43:05Z</time>
      </trkpt>
      <trkpt lat="44.0667" lon="1.94015">
        <ele>180</ele>
        <time>2024-04-07T06:43:06Z</time>
      </trkpt>
      <trkpt lat="44.0667" lon="1.94015">
        <ele>179.8</ele>
        <time>2024-04-07T06:43:07Z</time>
      </trkpt>
      <trkpt lat="44.06661" lon="1.94021">
        <ele>179.6</ele>
        <time>2024-04-07T06:43:22Z</time>
      </trkpt>
      <trkpt lat="44.0666" lon="1.94023">
        <ele>179.4</ele>
        <time>2024-04-07T06:43:23Z</time>
      </trkpt>
      <trkpt lat="44.06659" lon="1.94024">
        <ele>179.4</ele>
        <time>2024-04-07T06:43:24Z</time>
      </trkpt>
      <trkpt lat="44.06658" lon="1.94026">
        <ele>179.4</ele>
        <time>2024-04-07T06:43:25Z</time>
      </trkpt>
      <trkpt lat="44.06657" lon="1.94029">
        <ele>179.4</ele>
        <time>2024-04-07T06:43:26Z</time>
      </trkpt>
      <trkpt lat="44.06657" lon="1.9403">
        <ele>179.4</ele>
        <time>2024-04-07T06:43:27Z</time>
      </trkpt>
      <trkpt lat="44.06656" lon="1.9403">
        <ele>179.4</ele>
        <time>2024-04-07T06:43:28Z</time>
      </trkpt>
      <trkpt lat="44.06656" lon="1.94031">
        <ele>179.4</ele>
        <time>2024-04-07T06:43:29Z</time>
      </trkpt>
      <trkpt lat="44.06656" lon="1.94031">
        <ele>179.4</ele>
        <time>2024-04-07T06:43:30Z</time>
      </trkpt>
      <trkpt lat="44.06656" lon="1.94031">
        <ele>179.4</ele>
        <time>2024-04-07T06:43:31Z</time>
      </trkpt>
      <trkpt lat="44.06643" lon="1.94016">
        <ele>179.2</ele>
        <time>2024-04-07T06:44:43Z</time>
      </trkpt>
      <trkpt lat="44.06641" lon="1.94015">
        <ele>179.2</ele>
        <time>2024-04-07T06:44:44Z</time>
      </trkpt>
      <trkpt lat="44.06639" lon="1.94015">
        <ele>179.2</ele>
        <time>2024-04-07T06:44:45Z</time>
      </trkpt>
      <trkpt lat="44.06638" lon="1.94015">
        <ele>179.4</ele>
        <time>2024-04-07T06:44:46Z</time>
      </trkpt>
      <trkpt lat="44.06638" lon="1.94015">
        <ele>179.4</ele>
        <time>2024-04-07T06:44:47Z</time>
      </trkpt>
      <trkpt lat="44.06638" lon="1.94015">
        <ele>179.4</ele>
        <time>2024-04-07T06:44:48Z</time>
      </trkpt>
      <trkpt lat="44.06646" lon="1.94017">
        <ele>179.6</ele>
        <time>2024-04-07T06:50:52Z</time>
      </trkpt>
      <trkpt lat="44.06646" lon="1.94019">
        <ele>179.6</ele>
        <time>2024-04-07T06:50:53Z</time>
      </trkpt>
      <trkpt lat="44.06646" lon="1.94021">
        <ele>179.6</ele>
        <time>2024-04-07T06:50:54Z</time>
      </trkpt>
      <trkpt lat="44.06646" lon="1.94022">
        <ele>179.6</ele>
        <time>2024-04-07T06:50:55Z</time>
      </trkpt>
      <trkpt lat="44.06646" lon="1.94024">
        <ele>179.4</ele>
        <time>2024-04-07T06:50:56Z</time>
      </trkpt>
      <trkpt lat="44.06647" lon="1.94026">
        <ele>179.4</ele>
        <time>2024-04-07T06:50:57Z</time>
      </trkpt>
      <trkpt lat="44.06648" lon="1.94027">
        <ele>179.4</ele>
        <time>2024-04-07T06:50:58Z</time>
      </trkpt>
      <trkpt lat="44.06648" lon="1.94029">
        <ele>179.4</ele>
        <time>2024-04-07T06:50:59Z</time>
      </trkpt>
      <trkpt lat="44.06648" lon="1.94031">
        <ele>179.4</ele>
        <time>2024-04-07T06:51:00Z</time>
      </trkpt>
      <trkpt lat="44.06648" lon="1.94033">
        <ele>179.4</ele>
        <time>2024-04-07T06:51:01Z</time>
      </trkpt>
      <trkpt lat="44.06648" lon="1.94036">
        <ele>179.4</ele>
        <time>2024-04-07T06:51:02Z</time>
      </trkpt>
      <trkpt lat="44.06649" lon="1.94039">
        <ele>179.4</ele>
        <time>2024-04-07T06:51:03Z</time>
      </trkpt>
      <trkpt lat="44.06649" lon="1.94042">
        <ele>179.4</ele>
        <time>2024-04-07T06:51:04Z</time>
      </trkpt>
      <trkpt lat="44.06649" lon="1.94045">
        <ele>179.4</ele>
        <time>2024-04-07T06:51:05Z</time>
      </trkpt>
      <trkpt lat="44.0665" lon="1.94048">
        <ele>179.2</ele>
        <time>2024-04-07T06:51:06Z</time>
      </trkpt>
      <trkpt lat="44.0665" lon="1.94052">
        <ele>179.2</ele>
        <time>2024-04-07T06:51:07Z</time>
      </trkpt>
      <trkpt lat="44.0665" lon="1.94055">
        <ele>179.2</ele>
        <time>2024-04-07T06:51:08Z</time>
      </trkpt>
      <trkpt lat="44.06651" lon="1.94059">
        <ele>179.2</ele>
        <time>2024-04-07T06:51:09Z</time>
      </trkpt>
      <trkpt lat="44.0665" lon="1.94062">
        <ele>179.2</ele>
        <time>2024-04-07T06:51:10Z</time>
      </trkpt>
      <trkpt lat="44.0665" lon="1.94065">
        <ele>179</ele>
        <time>2024-04-07T06:51:11Z</time>
      </trkpt>
      <trkpt lat="44.0665" lon="1.94068">
        <ele>179</ele>
        <time>2024-04-07T06:51:12Z</time>
      </trkpt>
      <trkpt lat="44.0665" lon="1.9407">
        <ele>179</ele>
        <time>2024-04-07T06:51:13Z</time>
      </trkpt>
      <trkpt lat="44.06651" lon="1.94072">
        <ele>179</ele>
        <time>2024-04-07T06:51:14Z</time>
      </trkpt>
      <trkpt lat="44.06652" lon="1.94073">
        <ele>179</ele>
        <time>2024-04-07T06:51:15Z</time>
      </trkpt>
      <trkpt lat="44.06654" lon="1.94075">
        <ele>179</ele>
        <time>2024-04-07T06:51:16Z</time>
      </trkpt>
      <trkpt lat="44.06656" lon="1.94076">
        <ele>179</ele>
        <time>2024-04-07T06:51:17Z</time>
      </trkpt>
      <trkpt lat="44.06658" lon="1.94076">
        <ele>178.8</ele>
        <time>2024-04-07T06:51:18Z</time>
      </trkpt>
      <trkpt lat="44.06661" lon="1.94076">
        <ele>178.8</ele>
        <time>2024-04-07T06:51:19Z</time>
      </trkpt>
      <trkpt lat="44.06663" lon="1.94076">
        <ele>178.8</ele>
        <time>2024-04-07T06:51:20Z</time>
      </trkpt>
      <trkpt lat="44.06666" lon="1.94076">
        <ele>178.8</ele>
        <time>2024-04-07T06:51:21Z</time>
      </trkpt>
      <trkpt lat="44.06668" lon="1.94076">
        <ele>178.6</ele>
        <time>2024-04-07T06:51:22Z</time>
      </trkpt>
      <trkpt lat="44.0667" lon="1.94077">
        <ele>178.6</ele>
        <time>2024-04-07T06:51:23Z</time>
      </trkpt>
      <trkpt lat="44.06671" lon="1.94077">
        <ele>178.4</ele>
        <time>2024-04-07T06:51:24Z</time>
      </trkpt>
      <trkpt lat="44.06673" lon="1.94076">
        <ele>178.4</ele>
        <time>2024-04-07T06:51:25Z</time>
      </trkpt>
      <trkpt lat="44.06675" lon="1.94075">
        <ele>178</ele>
        <time>2024-04-07T06:51:26Z</time>
      </trkpt>
      <trkpt lat="44.06676" lon="1.94074">
        <ele>178</ele>
        <time>2024-04-07T06:51:27Z</time>
      </trkpt>
      <trkpt lat="44.06676" lon="1.94072">
        <ele>177.8</ele>
        <time>2024-04-07T06:51:28Z</time>
      </trkpt>
      <trkpt lat="44.06677" lon="1.9407">
        <ele>177.8</ele>
        <time>2024-04-07T06:51:29Z</time>
      </trkpt>
      <trkpt lat="44.06678" lon="1.94067">
        <ele>177.6</ele>
        <time>2024-04-07T06:51:30Z</time>
      </trkpt>
      <trkpt lat="44.06681" lon="1.94065">
        <ele>177.6</ele>
        <time>2024-04-07T06:51:31Z</time>
      </trkpt>
      <trkpt lat="44.06685" lon="1.94063">
        <ele>177.2</ele>
        <time>2024-04-07T06:51:32Z</time>
      </trkpt>
      <trkpt lat="44.06689" lon="1.94063">
        <ele>176.6</ele>
        <time>2024-04-07T06:51:33Z</time>
      </trkpt>
      <trkpt lat="44.06692" lon="1.94063">
        <ele>176.4</ele>
        <time>2024-04-07T06:51:34Z</time>
      </trkpt>
      <trkpt lat="44.06695" lon="1.94062">
        <ele>176.2</ele>
        <time>2024-04-07T06:51:35Z</time>
      </trkpt>
      <trkpt lat="44.06698" lon="1.94061">
        <ele>176</ele>
        <time>2024-04-07T06:51:36Z</time>
      </trkpt>
      <trkpt lat="44.067" lon="1.94059">
        <ele>175.2</ele>
        <time>2024-04-07T06:51:37Z</time>
      </trkpt>
      <trkpt lat="44.06702" lon="1.94059">
        <ele>175</ele>
        <time>2024-04-07T06:51:38Z</time>
      </trkpt>
      <trkpt lat="44.06704" lon="1.94058">
        <ele>174.6</ele>
        <time>2024-04-07T06:51:39Z</time>
      </trkpt>
      <trkpt lat="44.06705" lon="1.94058">
        <ele>174.4</ele>
        <time>2024-04-07T06:51:40Z</time>
      </trkpt>
      <trkpt lat="44.06706" lon="1.94058">
        <ele>174.2</ele>
        <time>2024-04-07T06:51:41Z</time>
      </trkpt>
      <trkpt lat="44.06707" lon="1.94059">
        <ele>174</ele>
        <time>2024-04-07T06:51:42Z</time>
      </trkpt>
      <trkpt lat="44.06707" lon="1.94059">
        <ele>174</ele>
        <time>2024-04-07T06:51:43Z</time>
      </trkpt>
      <trkpt lat="44.06707" lon="1.94059">
        <ele>173.8</ele>
        <time>2024-04-07T06:51:44Z</time>
      </trkpt>
      <trkpt lat="44.06711" lon="1.94059">
        <ele>173</ele>
        <time>2024-04-07T06:54:35Z</time>
      </trkpt>
      <trkpt lat="44.06713" lon="1.94057">
        <ele>173</ele>
        <time>2024-04-07T06:54:36Z</time>
      </trkpt>
      <trkpt lat="44.06716" lon="1.94056">
        <ele>173</ele>
        <time>2024-04-07T06:54:37Z</time>
      </trkpt>
      <trkpt lat="44.0672" lon="1.94055">
        <ele>173</ele>
        <time>2024-04-07T06:54:38Z</time>
      </trkpt>
      <trkpt lat="44.06724" lon="1.94053">
        <ele>173</ele>
        <time>2024-04-07T06:54:39Z</time>
      </trkpt>
      <trkpt lat="44.06728" lon="1.94051">
        <ele>172.8</ele>
        <time>2024-04-07T06:54:40Z</time>
      </trkpt>
      <trkpt lat="44.06733" lon="1.94048">
        <ele>172.8</ele>
        <time>2024-04-07T06:54:41Z</time>
      </trkpt>
      <trkpt lat="44.06737" lon="1.94046">
        <ele>172.6</ele>
        <time>2024-04-07T06:54:42Z</time>
      </trkpt>
      <trkpt lat="44.06742" lon="1.94044">
        <ele>172.4</ele>
        <time>2024-04-07T06:54:43Z</time>
      </trkpt>
      <trkpt lat="44.06747" lon="1.94042">
        <ele>172.4</ele>
        <time>2024-04-07T06:54:44Z</time>
      </trkpt>
      <trkpt lat="44.06752" lon="1.9404">
        <ele>172.2</ele>
        <time>2024-04-07T06:54:45Z</time>
      </trkpt>
      <trkpt lat="44.06757" lon="1.94038">
        <ele>172.2</ele>
        <time>2024-04-07T06:54:46Z</time>
      </trkpt>
      <trkpt lat="44.06762" lon="1.94037">
        <ele>172</ele>
        <time>2024-04-07T06:54:47Z</time>
      </trkpt>
      <trkpt lat="44.06767" lon="1.94037">
        <ele>171.6</ele>
        <time>2024-04-07T06:54:48Z</time>
      </trkpt>
      <trkpt lat="44.06772" lon="1.94036">
        <ele>171.4</ele>
        <time>2024-04-07T06:54:49Z</time>
      </trkpt>
      <trkpt lat="44.06775" lon="1.94035">
        <ele>171.4</ele>
        <time>2024-04-07T06:54:50Z</time>
      </trkpt>
      <trkpt lat="44.06778" lon="1.94033">
        <ele>171.2</ele>
        <time>2024-04-07T06:54:51Z</time>
      </trkpt>
      <trkpt lat="44.06781" lon="1.94033">
        <ele>171</ele>
        <time>2024-04-07T06:54:52Z</time>
      </trkpt>
      <trkpt lat="44.06784" lon="1.94033">
        <ele>171</ele>
        <time>2024-04-07T06:54:53Z</time>
      </trkpt>
      <trkpt lat="44.06788" lon="1.94033">
        <ele>171</ele>
        <time>2024-04-07T06:54:54Z</time>
      </trkpt>
      <trkpt lat="44.06791" lon="1.94033">
        <ele>170.8</ele>
        <time>2024-04-07T06:54:55Z</time>
      </trkpt>
      <trkpt lat="44.06796" lon="1.94034">
        <ele>170.8</ele>
        <time>2024-04-07T06:54:56Z</time>
      </trkpt>
      <trkpt lat="44.068" lon="1.94034">
        <ele>170.8</ele>
        <time>2024-04-07T06:54:57Z</time>
      </trkpt>
      <trkpt lat="44.06805" lon="1.94035">
        <ele>170.8</ele>
        <time>2024-04-07T06:54:58Z</time>
      </trkpt>
      <trkpt lat="44.06809" lon="1.94036">
        <ele>171</ele>
        <time>2024-04-07T06:54:59Z</time>
      </trkpt>
      <trkpt lat="44.06813" lon="1.94037">
        <ele>171</ele>
        <time>2024-04-07T06:55:00Z</time>
      </trkpt>
      <trkpt lat="44.06817" lon="1.94038">
        <ele>171</ele>
        <time>2024-04-07T06:55:01Z</time>
      </trkpt>
      <trkpt lat="44.06821" lon="1.94039">
        <ele>171.2</ele>
        <time>2024-04-07T06:55:02Z</time>
      </trkpt>
      <trkpt lat="44.06825" lon="1.9404">
        <ele>171.2</ele>
        <time>2024-04-07T06:55:03Z</time>
      </trkpt>
      <trkpt lat="44.0683" lon="1.94041">
        <ele>171.6</ele>
        <time>2024-04-07T06:55:04Z</time>
      </trkpt>
      <trkpt lat="44.06835" lon="1.94042">
        <ele>171.8</ele>
        <time>2024-04-07T06:55:05Z</time>
      </trkpt>
      <trkpt lat="44.06839" lon="1.94042">
        <ele>172</ele>
        <time>2024-04-07T06:55:06Z</time>
      </trkpt>
      <trkpt lat="44.06844" lon="1.94043">
        <ele>172</ele>
        <time>2024-04-07T06:55:07Z</time>
      </trkpt>
      <trkpt lat="44.06849" lon="1.94044">
        <ele>172.4</ele>
        <time>2024-04-07T06:55:08Z</time>
      </trkpt>
      <trkpt lat="44.06854" lon="1.94045">
        <ele>172.4</ele>
        <time>2024-04-07T06:55:09Z</time>
      </trkpt>
      <trkpt lat="44.06859" lon="1.94046">
        <ele>172.4</ele>
        <time>2024-04-07T06:55:10Z</time>
      </trkpt>
      <trkpt lat="44.06865" lon="1.94047">
        <ele>172.6</ele>
        <time>2024-04-07T06:55:11Z</time>
      </trkpt>
      <trkpt lat="44.06871" lon="1.94048">
        <ele>172.8</ele>
        <time>2024-04-07T06:55:12Z</time>
      </trkpt>
      <trkpt lat="44.06877" lon="1.94049">
        <ele>172.8</ele>
        <time>2024-04-07T06:55:13Z</time>
      </trkpt>
      <trkpt lat="44.06883" lon="1.94049">
        <ele>172.8</ele>
        <time>2024-04-07T06:55:14Z</time>
      </trkpt>
      <trkpt lat="44.06889" lon="1.9405">
        <ele>172.8</ele>
        <time>2024-04-07T06:55:15Z</time>
      </trkpt>
      <trkpt lat="44.06895" lon="1.94051">
        <ele>172.4</ele>
        <time>2024-04-07T06:55:16Z</time>
      </trkpt>
      <trkpt lat="44.06901" lon="1.94052">
        <ele>172.4</ele>
        <time>2024-04-07T06:55:17Z</time>
      </trkpt>
      <trkpt lat="44.06907" lon="1.94053">
        <ele>172.2</ele>
        <time>2024-04-07T06:55:18Z</time>
      </trkpt>
      <trkpt lat="44.06913" lon="1.94054">
        <ele>172.4</ele>
        <time>2024-04-07T06:55:19Z</time>
      </trkpt>
      <trkpt lat="44.06919" lon="1.94056">
        <ele>172</ele>
        <time>2024-04-07T06:55:20Z</time>
      </trkpt>
      <trkpt lat="44.06925" lon="1.94057">
        <ele>171.6</ele>
        <time>2024-04-07T06:55:21Z</time>
      </trkpt>
      <trkpt lat="44.06931" lon="1.94058">
        <ele>171.4</ele>
        <time>2024-04-07T06:55:22Z</time>
      </trkpt>
      <trkpt lat="44.06937" lon="1.9406">
        <ele>171.2</ele>
        <time>2024-04-07T06:55:23Z</time>
      </trkpt>
      <trkpt lat="44.06941" lon="1.94062">
        <ele>171.2</ele>
        <time>2024-04-07T06:55:24Z</time>
      </trkpt>
      <trkpt lat="44.06948" lon="1.94065">
        <ele>171.2</ele>
        <time>2024-04-07T06:55:25Z</time>
      </trkpt>
      <trkpt lat="44.06954" lon="1.94067">
        <ele>171.2</ele>
        <time>2024-04-07T06:55:26Z</time>
      </trkpt>
      <trkpt lat="44.06959" lon="1.94068">
        <ele>171.2</ele>
        <time>2024-04-07T06:55:27Z</time>
      </trkpt>
      <trkpt lat="44.06965" lon="1.94071">
        <ele>171.2</ele>
        <time>2024-04-07T06:55:28Z</time>
      </trkpt>
      <trkpt lat="44.06969" lon="1.94073">
        <ele>171.2</ele>
        <time>2024-04-07T06:55:29Z</time>
      </trkpt>
      <trkpt lat="44.06973" lon="1.94075">
        <ele>171.2</ele>
        <time>2024-04-07T06:55:30Z</time>
      </trkpt>
      <trkpt lat="44.06976" lon="1.94076">
        <ele>171.2</ele>
        <time>2024-04-07T06:55:31Z</time>
      </trkpt>
      <trkpt lat="44.06978" lon="1.94076">
        <ele>171.2</ele>
        <time>2024-04-07T06:55:32Z</time>
      </trkpt>
      <trkpt lat="44.06978" lon="1.94074">
        <ele>171.2</ele>
        <time>2024-04-07T06:55:33Z</time>
      </trkpt>
      <trkpt lat="44.06978" lon="1.94072">
        <ele>171.2</ele>
        <time>2024-04-07T06:55:34Z</time>
      </trkpt>
      <trkpt lat="44.06979" lon="1.94068">
        <ele>171.2</ele>
        <time>2024-04-07T06:55:35Z</time>
      </trkpt>
      <trkpt lat="44.06981" lon="1.94066">
        <ele>171.2</ele>
        <time>2024-04-07T06:55:36Z</time>
      </trkpt>
      <trkpt lat="44.06983" lon="1.94063">
        <ele>171.2</ele>
        <time>2024-04-07T06:55:37Z</time>
      </trkpt>
      <trkpt lat="44.06986" lon="1.9406">
        <ele>171.4</ele>
        <time>2024-04-07T06:55:38Z</time>
      </trkpt>
      <trkpt lat="44.06988" lon="1.94057">
        <ele>171.4</ele>
        <time>2024-04-07T06:55:39Z</time>
      </trkpt>
      <trkpt lat="44.06991" lon="1.94054">
        <ele>171.4</ele>
        <time>2024-04-07T06:55:40Z</time>
      </trkpt>
      <trkpt lat="44.06994" lon="1.9405">
        <ele>171.4</ele>
        <time>2024-04-07T06:55:41Z</time>
      </trkpt>
      <trkpt lat="44.06998" lon="1.94046">
        <ele>171.4</ele>
        <time>2024-04-07T06:55:42Z</time>
      </trkpt>
      <trkpt lat="44.07001" lon="1.94041">
        <ele>171.6</ele>
        <time>2024-04-07T06:55:43Z</time>
      </trkpt>
      <trkpt lat="44.07005" lon="1.94036">
        <ele>171.8</ele>
        <time>2024-04-07T06:55:44Z</time>
      </trkpt>
      <trkpt lat="44.07009" lon="1.94031">
        <ele>171.8</ele>
        <time>2024-04-07T06:55:45Z</time>
      </trkpt>
      <trkpt lat="44.07012" lon="1.94026">
        <ele>171.8</ele>
        <time>2024-04-07T06:55:46Z</time>
      </trkpt>
      <trkpt lat="44.07014" lon="1.94022">
        <ele>172</ele>
        <time>2024-04-07T06:55:47Z</time>
      </trkpt>
      <trkpt lat="44.07017" lon="1.94018">
        <ele>172.2</ele>
        <time>2024-04-07T06:55:48Z</time>
      </trkpt>
      <trkpt lat="44.07019" lon="1.94014">
        <ele>172.2</ele>
        <time>2024-04-07T06:55:49Z</time>
      </trkpt>
      <trkpt lat="44.07022" lon="1.94009">
        <ele>172.6</ele>
        <time>2024-04-07T06:55:50Z</time>
      </trkpt>
      <trkpt lat="44.07024" lon="1.94004">
        <ele>172.8</ele>
        <time>2024-04-07T06:55:51Z</time>
      </trkpt>
      <trkpt lat="44.07028" lon="1.93997">
        <ele>173.2</ele>
        <time>2024-04-07T06:55:52Z</time>
      </trkpt>
      <trkpt lat="44.07031" lon="1.93991">
        <ele>173.6</ele>
        <time>2024-04-07T06:55:53Z</time>
      </trkpt>
      <trkpt lat="44.07034" lon="1.93986">
        <ele>173.6</ele>
        <time>2024-04-07T06:55:54Z</time>
      </trkpt>
      <trkpt lat="44.07037" lon="1.9398">
        <ele>173.8</ele>
        <time>2024-04-07T06:55:55Z</time>
      </trkpt>
      <trkpt lat="44.07041" lon="1.93974">
        <ele>173.8</ele>
        <time>2024-04-07T06:55:56Z</time>
      </trkpt>
      <trkpt lat="44.07045" lon="1.93966">
        <ele>174</ele>
        <time>2024-04-07T06:55:57Z</time>
      </trkpt>
      <trkpt lat="44.07049" lon="1.9396">
        <ele>174</ele>
        <time>2024-04-07T06:55:58Z</time>
      </trkpt>
      <trkpt lat="44.07052" lon="1.93953">
        <ele>174</ele>
        <time>2024-04-07T06:55:59Z</time>
      </trkpt>
      <trkpt lat="44.07055" lon="1.93948">
        <ele>174</ele>
        <time>2024-04-07T06:56:00Z</time>
      </trkpt>
      <trkpt lat="44.07058" lon="1.93942">
        <ele>174</ele>
        <time>2024-04-07T06:56:01Z</time>
      </trkpt>
      <trkpt lat="44.07063" lon="1.93934">
        <ele>174</ele>
        <time>2024-04-07T06:56:02Z</time>
      </trkpt>
      <trkpt lat="44.07066" lon="1.93928">
        <ele>174</ele>
        <time>2024-04-07T06:56:03Z</time>
      </trkpt>
      <trkpt lat="44.0707" lon="1.93922">
        <ele>174</ele>
        <time>2024-04-07T06:56:04Z</time>
      </trkpt>
      <trkpt lat="44.07073" lon="1.93917">
        <ele>174</ele>
        <time>2024-04-07T06:56:05Z</time>
      </trkpt>
      <trkpt lat="44.07076" lon="1.9391">
        <ele>174</ele>
        <time>2024-04-07T06:56:06Z</time>
      </trkpt>
      <trkpt lat="44.07081" lon="1.93903">
        <ele>174</ele>
        <time>2024-04-07T06:56:07Z</time>
      </trkpt>
      <trkpt lat="44.07085" lon="1.93896">
        <ele>174</ele>
        <time>2024-04-07T06:56:08Z</time>
      </trkpt>
      <trkpt lat="44.07089" lon="1.93888">
        <ele>173.8</ele>
        <time>2024-04-07T06:56:09Z</time>
      </trkpt>
      <trkpt lat="44.07092" lon="1.93883">
        <ele>173.8</ele>
        <time>2024-04-07T06:56:10Z</time>
      </trkpt>
      <trkpt lat="44.07096" lon="1.93876">
        <ele>173.8</ele>
        <time>2024-04-07T06:56:11Z</time>
      </trkpt>
      <trkpt lat="44.07101" lon="1.93868">
        <ele>173.8</ele>
        <time>2024-04-07T06:56:12Z</time>
      </trkpt>
      <trkpt lat="44.07105" lon="1.93863">
        <ele>173.6</ele>
        <time>2024-04-07T06:56:13Z</time>
      </trkpt>
      <trkpt lat="44.07109" lon="1.93856">
        <ele>173.6</ele>
        <time>2024-04-07T06:56:14Z</time>
      </trkpt>
      <trkpt lat="44.07112" lon="1.93851">
        <ele>173.8</ele>
        <time>2024-04-07T06:56:15Z</time>
      </trkpt>
      <trkpt lat="44.07115" lon="1.93845">
        <ele>173.6</ele>
        <time>2024-04-07T06:56:16Z</time>
      </trkpt>
      <trkpt lat="44.07119" lon="1.93838">
        <ele>173.6</ele>
        <time>2024-04-07T06:56:17Z</time>
      </trkpt>
      <trkpt lat="44.07123" lon="1.93831">
        <ele>173.6</ele>
        <time>2024-04-07T06:56:18Z</time>
      </trkpt>
      <trkpt lat="44.07126" lon="1.93825">
        <ele>173.6</ele>
        <time>2024-04-07T06:56:19Z</time>
      </trkpt>
      <trkpt lat="44.07129" lon="1.93819">
        <ele>173.6</ele>
        <time>2024-04-07T06:56:20Z</time>
      </trkpt>
      <trkpt lat="44.07133" lon="1.93812">
        <ele>173.6</ele>
        <time>2024-04-07T06:56:21Z</time>
      </trkpt>
      <trkpt lat="44.07138" lon="1.93804">
        <ele>173.6</ele>
        <time>2024-04-07T06:56:22Z</time>
      </trkpt>
      <trkpt lat="44.07141" lon="1.93798">
        <ele>173.6</ele>
        <time>2024-04-07T06:56:23Z</time>
      </trkpt>
      <trkpt lat="44.07145" lon="1.93791">
        <ele>173.6</ele>
        <time>2024-04-07T06:56:24Z</time>
      </trkpt>
      <trkpt lat="44.07148" lon="1.93786">
        <ele>173.6</ele>
        <time>2024-04-07T06:56:25Z</time>
      </trkpt>
      <trkpt lat="44.07153" lon="1.93779">
        <ele>173.6</ele>
        <time>2024-04-07T06:56:26Z</time>
      </trkpt>
      <trkpt lat="44.07157" lon="1.93771">
        <ele>173.8</ele>
        <time>2024-04-07T06:56:27Z</time>
      </trkpt>
      <trkpt lat="44.07165" lon="1.93757">
        <ele>174</ele>
        <time>2024-04-07T06:56:29Z</time>
      </trkpt>
      <trkpt lat="44.07168" lon="1.93751">
        <ele>174</ele>
        <time>2024-04-07T06:56:30Z</time>
      </trkpt>
      <trkpt lat="44.07172" lon="1.93745">
        <ele>174</ele>
        <time>2024-04-07T06:56:31Z</time>
      </trkpt>
      <trkpt lat="44.07176" lon="1.93738">
        <ele>174</ele>
        <time>2024-04-07T06:56:32Z</time>
      </trkpt>
      <trkpt lat="44.0718" lon="1.93732">
        <ele>174</ele>
        <time>2024-04-07T06:56:33Z</time>
      </trkpt>
      <trkpt lat="44.07184" lon="1.93728">
        <ele>174.2</ele>
        <time>2024-04-07T06:56:34Z</time>
      </trkpt>
      <trkpt lat="44.07185" lon="1.93724">
        <ele>174.2</ele>
        <time>2024-04-07T06:56:35Z</time>
      </trkpt>
      <trkpt lat="44.07188" lon="1.93718">
        <ele>174.2</ele>
        <time>2024-04-07T06:56:36Z</time>
      </trkpt>
      <trkpt lat="44.07191" lon="1.9371">
        <ele>174.2</ele>
        <time>2024-04-07T06:56:37Z</time>
      </trkpt>
      <trkpt lat="44.07196" lon="1.93703">
        <ele>174.2</ele>
        <time>2024-04-07T06:56:38Z</time>
      </trkpt>
      <trkpt lat="44.07199" lon="1.93696">
        <ele>174.2</ele>
        <time>2024-04-07T06:56:39Z</time>
      </trkpt>
      <trkpt lat="44.07202" lon="1.93691">
        <ele>174.2</ele>
        <time>2024-04-07T06:56:40Z</time>
      </trkpt>
      <trkpt lat="44.07205" lon="1.93685">
        <ele>174.2</ele>
        <time>2024-04-07T06:56:41Z</time>
      </trkpt>
      <trkpt lat="44.07208" lon="1.93679">
        <ele>174.2</ele>
        <time>2024-04-07T06:56:42Z</time>
      </trkpt>
      <trkpt lat="44.07211" lon="1.93672">
        <ele>174.2</ele>
        <time>2024-04-07T06:56:43Z</time>
      </trkpt>
      <trkpt lat="44.07215" lon="1.93666">
        <ele>174</ele>
        <time>2024-04-07T06:56:44Z</time>
      </trkpt>
      <trkpt lat="44.07218" lon="1.93662">
        <ele>174</ele>
        <time>2024-04-07T06:56:45Z</time>
      </trkpt>
      <trkpt lat="44.07221" lon="1.93656">
        <ele>174</ele>
        <time>2024-04-07T06:56:46Z</time>
      </trkpt>
      <trkpt lat="44.07226" lon="1.93648">
        <ele>173.8</ele>
        <time>2024-04-07T06:56:47Z</time>
      </trkpt>
      <trkpt lat="44.0723" lon="1.93642">
        <ele>173.8</ele>
        <time>2024-04-07T06:56:48Z</time>
      </trkpt>
      <trkpt lat="44.07233" lon="1.93635">
        <ele>173.6</ele>
        <time>2024-04-07T06:56:49Z</time>
      </trkpt>
      <trkpt lat="44.07236" lon="1.93629">
        <ele>173.6</ele>
        <time>2024-04-07T06:56:50Z</time>
      </trkpt>
      <trkpt lat="44.0724" lon="1.93623">
        <ele>173.6</ele>
        <time>2024-04-07T06:56:51Z</time>
      </trkpt>
      <trkpt lat="44.07244" lon="1.93615">
        <ele>173.4</ele>
        <time>2024-04-07T06:56:52Z</time>
      </trkpt>
      <trkpt lat="44.07248" lon="1.93609">
        <ele>173.4</ele>
        <time>2024-04-07T06:56:53Z</time>
      </trkpt>
      <trkpt lat="44.07252" lon="1.93602">
        <ele>173.4</ele>
        <time>2024-04-07T06:56:54Z</time>
      </trkpt>
      <trkpt lat="44.07256" lon="1.93595">
        <ele>173.4</ele>
        <time>2024-04-07T06:56:55Z</time>
      </trkpt>
      <trkpt lat="44.07259" lon="1.93587">
        <ele>173.4</ele>
        <time>2024-04-07T06:56:56Z</time>
      </trkpt>
      <trkpt lat="44.07262" lon="1.93581">
        <ele>173.4</ele>
        <time>2024-04-07T06:56:57Z</time>
      </trkpt>
      <trkpt lat="44.07266" lon="1.93573">
        <ele>173.4</ele>
        <time>2024-04-07T06:56:58Z</time>
      </trkpt>
      <trkpt lat="44.07269" lon="1.93566">
        <ele>173.4</ele>
        <time>2024-04-07T06:56:59Z</time>
      </trkpt>
      <trkpt lat="44.07272" lon="1.93561">
        <ele>173.4</ele>
        <time>2024-04-07T06:57:00Z</time>
      </trkpt>
      <trkpt lat="44.07275" lon="1.93554">
        <ele>173.6</ele>
        <time>2024-04-07T06:57:01Z</time>
      </trkpt>
      <trkpt lat="44.07277" lon="1.93548">
        <ele>173.6</ele>
        <time>2024-04-07T06:57:02Z</time>
      </trkpt>
      <trkpt lat="44.07281" lon="1.93542">
        <ele>173.6</ele>
        <time>2024-04-07T06:57:03Z</time>
      </trkpt>
      <trkpt lat="44.07284" lon="1.93537">
        <ele>173.6</ele>
        <time>2024-04-07T06:57:04Z</time>
      </trkpt>
      <trkpt lat="44.07286" lon="1.93532">
        <ele>173.6</ele>
        <time>2024-04-07T06:57:05Z</time>
      </trkpt>
      <trkpt lat="44.07288" lon="1.93527">
        <ele>173.6</ele>
        <time>2024-04-07T06:57:06Z</time>
      </trkpt>
      <trkpt lat="44.07291" lon="1.93522">
        <ele>173.6</ele>
        <time>2024-04-07T06:57:07Z</time>
      </trkpt>
      <trkpt lat="44.07295" lon="1.93517">
        <ele>173.6</ele>
        <time>2024-04-07T06:57:08Z</time>
      </trkpt>
      <trkpt lat="44.07298" lon="1.93513">
        <ele>173.6</ele>
        <time>2024-04-07T06:57:09Z</time>
      </trkpt>
      <trkpt lat="44.07302" lon="1.93508">
        <ele>173.4</ele>
        <time>2024-04-07T06:57:10Z</time>
      </trkpt>
      <trkpt lat="44.07304" lon="1.93503">
        <ele>173.4</ele>
        <time>2024-04-07T06:57:11Z</time>
      </trkpt>
      <trkpt lat="44.07307" lon="1.93496">
        <ele>173.4</ele>
        <time>2024-04-07T06:57:12Z</time>
      </trkpt>
      <trkpt lat="44.07312" lon="1.93488">
        <ele>173.4</ele>
        <time>2024-04-07T06:57:13Z</time>
      </trkpt>
      <trkpt lat="44.07317" lon="1.93484">
        <ele>173.2</ele>
        <time>2024-04-07T06:57:14Z</time>
      </trkpt>
      <trkpt lat="44.07323" lon="1.93481">
        <ele>173</ele>
        <time>2024-04-07T06:57:15Z</time>
      </trkpt>
      <trkpt lat="44.07327" lon="1.9348">
        <ele>172.8</ele>
        <time>2024-04-07T06:57:16Z</time>
      </trkpt>
      <trkpt lat="44.07333" lon="1.93479">
        <ele>172.6</ele>
        <time>2024-04-07T06:57:17Z</time>
      </trkpt>
      <trkpt lat="44.0734" lon="1.9348">
        <ele>172.6</ele>
        <time>2024-04-07T06:57:18Z</time>
      </trkpt>
      <trkpt lat="44.07346" lon="1.93481">
        <ele>172.4</ele>
        <time>2024-04-07T06:57:19Z</time>
      </trkpt>
      <trkpt lat="44.07351" lon="1.93481">
        <ele>172.4</ele>
        <time>2024-04-07T06:57:20Z</time>
      </trkpt>
      <trkpt lat="44.07356" lon="1.9348">
        <ele>172.4</ele>
        <time>2024-04-07T06:57:21Z</time>
      </trkpt>
      <trkpt lat="44.07359" lon="1.93478">
        <ele>172.4</ele>
        <time>2024-04-07T06:57:22Z</time>
      </trkpt>
      <trkpt lat="44.07362" lon="1.93472">
        <ele>172.4</ele>
        <time>2024-04-07T06:57:23Z</time>
      </trkpt>
      <trkpt lat="44.07365" lon="1.93467">
        <ele>172.6</ele>
        <time>2024-04-07T06:57:24Z</time>
      </trkpt>
      <trkpt lat="44.07367" lon="1.93462">
        <ele>172.8</ele>
        <time>2024-04-07T06:57:25Z</time>
      </trkpt>
      <trkpt lat="44.07369" lon="1.93456">
        <ele>172.8</ele>
        <time>2024-04-07T06:57:26Z</time>
      </trkpt>
      <trkpt lat="44.07371" lon="1.9345">
        <ele>172.8</ele>
        <time>2024-04-07T06:57:27Z</time>
      </trkpt>
      <trkpt lat="44.07376" lon="1.93436">
        <ele>173</ele>
        <time>2024-04-07T06:57:29Z</time>
      </trkpt>
      <trkpt lat="44.07378" lon="1.93431">
        <ele>173.2</ele>
        <time>2024-04-07T06:57:30Z</time>
      </trkpt>
      <trkpt lat="44.0738" lon="1.93425">
        <ele>173.2</ele>
        <time>2024-04-07T06:57:31Z</time>
      </trkpt>
      <trkpt lat="44.07382" lon="1.93418">
        <ele>173.2</ele>
        <time>2024-04-07T06:57:32Z</time>
      </trkpt>
      <trkpt lat="44.07385" lon="1.93411">
        <ele>173.2</ele>
        <time>2024-04-07T06:57:33Z</time>
      </trkpt>
      <trkpt lat="44.07388" lon="1.93405">
        <ele>173.2</ele>
        <time>2024-04-07T06:57:34Z</time>
      </trkpt>
      <trkpt lat="44.0739" lon="1.93399">
        <ele>173.2</ele>
        <time>2024-04-07T06:57:35Z</time>
      </trkpt>
      <trkpt lat="44.07393" lon="1.93393">
        <ele>173.2</ele>
        <time>2024-04-07T06:57:36Z</time>
      </trkpt>
      <trkpt lat="44.07395" lon="1.93386">
        <ele>173.2</ele>
        <time>2024-04-07T06:57:37Z</time>
      </trkpt>
      <trkpt lat="44.07398" lon="1.9338">
        <ele>173.2</ele>
        <time>2024-04-07T06:57:38Z</time>
      </trkpt>
      <trkpt lat="44.074" lon="1.93374">
        <ele>173.2</ele>
        <time>2024-04-07T06:57:39Z</time>
      </trkpt>
      <trkpt lat="44.07403" lon="1.93367">
        <ele>173.4</ele>
        <time>2024-04-07T06:57:40Z</time>
      </trkpt>
      <trkpt lat="44.07405" lon="1.93361">
        <ele>173.4</ele>
        <time>2024-04-07T06:57:41Z</time>
      </trkpt>
      <trkpt lat="44.07408" lon="1.93355">
        <ele>173.4</ele>
        <time>2024-04-07T06:57:42Z</time>
      </trkpt>
      <trkpt lat="44.0741" lon="1.93348">
        <ele>173.2</ele>
        <time>2024-04-07T06:57:43Z</time>
      </trkpt>
      <trkpt lat="44.07413" lon="1.93342">
        <ele>173.4</ele>
        <time>2024-04-07T06:57:44Z</time>
      </trkpt>
      <trkpt lat="44.07415" lon="1.93335">
        <ele>173.4</ele>
        <time>2024-04-07T06:57:45Z</time>
      </trkpt>
      <trkpt lat="44.07418" lon="1.93329">
        <ele>173.8</ele>
        <time>2024-04-07T06:57:46Z</time>
      </trkpt>
      <trkpt lat="44.0742" lon="1.93322">
        <ele>174</ele>
        <time>2024-04-07T06:57:47Z</time>
      </trkpt>
      <trkpt lat="44.07423" lon="1.93316">
        <ele>174</ele>
        <time>2024-04-07T06:57:48Z</time>
      </trkpt>
      <trkpt lat="44.07426" lon="1.9331">
        <ele>174.2</ele>
        <time>2024-04-07T06:57:49Z</time>
      </trkpt>
      <trkpt lat="44.07428" lon="1.93303">
        <ele>174.2</ele>
        <time>2024-04-07T06:57:50Z</time>
      </trkpt>
      <trkpt lat="44.0743" lon="1.93297">
        <ele>174.4</ele>
        <time>2024-04-07T06:57:51Z</time>
      </trkpt>
      <trkpt lat="44.07433" lon="1.9329">
        <ele>174.4</ele>
        <time>2024-04-07T06:57:52Z</time>
      </trkpt>
      <trkpt lat="44.07436" lon="1.93283">
        <ele>174.6</ele>
        <time>2024-04-07T06:57:53Z</time>
      </trkpt>
      <trkpt lat="44.07438" lon="1.93276">
        <ele>174.6</ele>
        <time>2024-04-07T06:57:54Z</time>
      </trkpt>
      <trkpt lat="44.07441" lon="1.93269">
        <ele>174.6</ele>
        <time>2024-04-07T06:57:55Z</time>
      </trkpt>
      <trkpt lat="44.07444" lon="1.93263">
        <ele>174.6</ele>
        <time>2024-04-07T06:57:56Z</time>
      </trkpt>
      <trkpt lat="44.07447" lon="1.93256">
        <ele>174.8</ele>
        <time>2024-04-07T06:57:57Z</time>
      </trkpt>
      <trkpt lat="44.0745" lon="1.93249">
        <ele>174.8</ele>
        <time>2024-04-07T06:57:58Z</time>
      </trkpt>
      <trkpt lat="44.07453" lon="1.93243">
        <ele>174.8</ele>
        <time>2024-04-07T06:57:59Z</time>
      </trkpt>
      <trkpt lat="44.07456" lon="1.93236">
        <ele>174.8</ele>
        <time>2024-04-07T06:58:00Z</time>
      </trkpt>
      <trkpt lat="44.07459" lon="1.93229">
        <ele>174.8</ele>
        <time>2024-04-07T06:58:01Z</time>
      </trkpt>
      <trkpt lat="44.07462" lon="1.93222">
        <ele>174.8</ele>
        <time>2024-04-07T06:58:02Z</time>
      </trkpt>
      <trkpt lat="44.07466" lon="1.93216">
        <ele>174.8</ele>
        <time>2024-04-07T06:58:03Z</time>
      </trkpt>
      <trkpt lat="44.0747" lon="1.93209">
        <ele>174.8</ele>
        <time>2024-04-07T06:58:04Z</time>
      </trkpt>
      <trkpt lat="44.07473" lon="1.93204">
        <ele>174.8</ele>
        <time>2024-04-07T06:58:05Z</time>
      </trkpt>
      <trkpt lat="44.07477" lon="1.93198">
        <ele>174.8</ele>
        <time>2024-04-07T06:58:06Z</time>
      </trkpt>
      <trkpt lat="44.07481" lon="1.93192">
        <ele>175</ele>
        <time>2024-04-07T06:58:07Z</time>
      </trkpt>
      <trkpt lat="44.07485" lon="1.93187">
        <ele>175</ele>
        <time>2024-04-07T06:58:08Z</time>
      </trkpt>
      <trkpt lat="44.07489" lon="1.93181">
        <ele>175</ele>
        <time>2024-04-07T06:58:09Z</time>
      </trkpt>
      <trkpt lat="44.07493" lon="1.93175">
        <ele>175</ele>
        <time>2024-04-07T06:58:10Z</time>
      </trkpt>
      <trkpt lat="44.07497" lon="1.93169">
        <ele>174.8</ele>
        <time>2024-04-07T06:58:11Z</time>
      </trkpt>
      <trkpt lat="44.07501" lon="1.93163">
        <ele>174.8</ele>
        <time>2024-04-07T06:58:12Z</time>
      </trkpt>
      <trkpt lat="44.07505" lon="1.93157">
        <ele>174.8</ele>
        <time>2024-04-07T06:58:13Z</time>
      </trkpt>
      <trkpt lat="44.07508" lon="1.93151">
        <ele>174.6</ele>
        <time>2024-04-07T06:58:14Z</time>
      </trkpt>
      <trkpt lat="44.07513" lon="1.93143">
        <ele>174.6</ele>
        <time>2024-04-07T06:58:15Z</time>
      </trkpt>
      <trkpt lat="44.07516" lon="1.93136">
        <ele>174.6</ele>
        <time>2024-04-07T06:58:16Z</time>
      </trkpt>
      <trkpt lat="44.0752" lon="1.9313">
        <ele>174.6</ele>
        <time>2024-04-07T06:58:17Z</time>
      </trkpt>
      <trkpt lat="44.07523" lon="1.93124">
        <ele>174.8</ele>
        <time>2024-04-07T06:58:18Z</time>
      </trkpt>
      <trkpt lat="44.07527" lon="1.93117">
        <ele>174.8</ele>
        <time>2024-04-07T06:58:19Z</time>
      </trkpt>
      <trkpt lat="44.0753" lon="1.93111">
        <ele>174.8</ele>
        <time>2024-04-07T06:58:20Z</time>
      </trkpt>
      <trkpt lat="44.07533" lon="1.93105">
        <ele>174.8</ele>
        <time>2024-04-07T06:58:21Z</time>
      </trkpt>
      <trkpt lat="44.07536" lon="1.93099">
        <ele>175</ele>
        <time>2024-04-07T06:58:22Z</time>
      </trkpt>
      <trkpt lat="44.07539" lon="1.93092">
        <ele>175</ele>
        <time>2024-04-07T06:58:23Z</time>
      </trkpt>
      <trkpt lat="44.07541" lon="1.93085">
        <ele>175</ele>
        <time>2024-04-07T06:58:24Z</time>
      </trkpt>
      <trkpt lat="44.07543" lon="1.93078">
        <ele>175.4</ele>
        <time>2024-04-07T06:58:25Z</time>
      </trkpt>
      <trkpt lat="44.07544" lon="1.93071">
        <ele>175.6</ele>
        <time>2024-04-07T06:58:26Z</time>
      </trkpt>
      <trkpt lat="44.07545" lon="1.93064">
        <ele>175.8</ele>
        <time>2024-04-07T06:58:27Z</time>
      </trkpt>
      <trkpt lat="44.07546" lon="1.93057">
        <ele>175.8</ele>
        <time>2024-04-07T06:58:28Z</time>
      </trkpt>
      <trkpt lat="44.07547" lon="1.93049">
        <ele>175.8</ele>
        <time>2024-04-07T06:58:29Z</time>
      </trkpt>
      <trkpt lat="44.07547" lon="1.93041">
        <ele>175.8</ele>
        <time>2024-04-07T06:58:30Z</time>
      </trkpt>
      <trkpt lat="44.07547" lon="1.93033">
        <ele>176</ele>
        <time>2024-04-07T06:58:31Z</time>
      </trkpt>
      <trkpt lat="44.07547" lon="1.93025">
        <ele>176</ele>
        <time>2024-04-07T06:58:32Z</time>
      </trkpt>
      <trkpt lat="44.07547" lon="1.93017">
        <ele>176</ele>
        <time>2024-04-07T06:58:33Z</time>
      </trkpt>
      <trkpt lat="44.07546" lon="1.93009">
        <ele>176</ele>
        <time>2024-04-07T06:58:34Z</time>
      </trkpt>
      <trkpt lat="44.07545" lon="1.93001">
        <ele>176</ele>
        <time>2024-04-07T06:58:35Z</time>
      </trkpt>
      <trkpt lat="44.07544" lon="1.92992">
        <ele>176</ele>
        <time>2024-04-07T06:58:36Z</time>
      </trkpt>
      <trkpt lat="44.07543" lon="1.92984">
        <ele>176</ele>
        <time>2024-04-07T06:58:37Z</time>
      </trkpt>
      <trkpt lat="44.07541" lon="1.92976">
        <ele>176</ele>
        <time>2024-04-07T06:58:38Z</time>
      </trkpt>
      <trkpt lat="44.0754" lon="1.92969">
        <ele>176</ele>
        <time>2024-04-07T06:58:39Z</time>
      </trkpt>
      <trkpt lat="44.07538" lon="1.9296">
        <ele>176</ele>
        <time>2024-04-07T06:58:40Z</time>
      </trkpt>
      <trkpt lat="44.07535" lon="1.92952">
        <ele>176.2</ele>
        <time>2024-04-07T06:58:41Z</time>
      </trkpt>
      <trkpt lat="44.07533" lon="1.92944">
        <ele>176.2</ele>
        <time>2024-04-07T06:58:42Z</time>
      </trkpt>
      <trkpt lat="44.0753" lon="1.92936">
        <ele>176</ele>
        <time>2024-04-07T06:58:43Z</time>
      </trkpt>
      <trkpt lat="44.07527" lon="1.92928">
        <ele>176.2</ele>
        <time>2024-04-07T06:58:44Z</time>
      </trkpt>
      <trkpt lat="44.07524" lon="1.92921">
        <ele>176.2</ele>
        <time>2024-04-07T06:58:45Z</time>
      </trkpt>
      <trkpt lat="44.0752" lon="1.92913">
        <ele>176.2</ele>
        <time>2024-04-07T06:58:46Z</time>
      </trkpt>
      <trkpt lat="44.07516" lon="1.92906">
        <ele>176.2</ele>
        <time>2024-04-07T06:58:47Z</time>
      </trkpt>
      <trkpt lat="44.07512" lon="1.92899">
        <ele>176</ele>
        <time>2024-04-07T06:58:48Z</time>
      </trkpt>
      <trkpt lat="44.07508" lon="1.92892">
        <ele>175.8</ele>
        <time>2024-04-07T06:58:49Z</time>
      </trkpt>
      <trkpt lat="44.07504" lon="1.92885">
        <ele>175.8</ele>
        <time>2024-04-07T06:58:50Z</time>
      </trkpt>
      <trkpt lat="44.075" lon="1.92878">
        <ele>175.6</ele>
        <time>2024-04-07T06:58:51Z</time>
      </trkpt>
      <trkpt lat="44.07496" lon="1.92871">
        <ele>175.4</ele>
        <time>2024-04-07T06:58:52Z</time>
      </trkpt>
      <trkpt lat="44.07492" lon="1.92865">
        <ele>175.2</ele>
        <time>2024-04-07T06:58:53Z</time>
      </trkpt>
      <trkpt lat="44.07488" lon="1.92858">
        <ele>175</ele>
        <time>2024-04-07T06:58:54Z</time>
      </trkpt>
      <trkpt lat="44.07484" lon="1.92851">
        <ele>174.4</ele>
        <time>2024-04-07T06:58:55Z</time>
      </trkpt>
      <trkpt lat="44.07481" lon="1.92845">
        <ele>174.2</ele>
        <time>2024-04-07T06:58:56Z</time>
      </trkpt>
      <trkpt lat="44.07478" lon="1.92839">
        <ele>174</ele>
        <time>2024-04-07T06:58:57Z</time>
      </trkpt>
      <trkpt lat="44.07475" lon="1.92833">
        <ele>173.8</ele>
        <time>2024-04-07T06:58:58Z</time>
      </trkpt>
      <trkpt lat="44.07472" lon="1.92827">
        <ele>173.6</ele>
        <time>2024-04-07T06:58:59Z</time>
      </trkpt>
      <trkpt lat="44.07469" lon="1.92821">
        <ele>173.6</ele>
        <time>2024-04-07T06:59:00Z</time>
      </trkpt>
      <trkpt lat="44.07466" lon="1.92815">
        <ele>173.6</ele>
        <time>2024-04-07T06:59:01Z</time>
      </trkpt>
      <trkpt lat="44.07463" lon="1.92809">
        <ele>173.6</ele>
        <time>2024-04-07T06:59:02Z</time>
      </trkpt>
      <trkpt lat="44.07461" lon="1.92802">
        <ele>173.4</ele>
        <time>2024-04-07T06:59:03Z</time>
      </trkpt>
      <trkpt lat="44.07458" lon="1.92796">
        <ele>173.6</ele>
        <time>2024-04-07T06:59:04Z</time>
      </trkpt>
      <trkpt lat="44.07456" lon="1.92789">
        <ele>173.6</ele>
        <time>2024-04-07T06:59:05Z</time>
      </trkpt>
      <trkpt lat="44.07454" lon="1.92782">
        <ele>173.8</ele>
        <time>2024-04-07T06:59:06Z</time>
      </trkpt>
      <trkpt lat="44.07452" lon="1.92775">
        <ele>173.8</ele>
        <time>2024-04-07T06:59:07Z</time>
      </trkpt>
      <trkpt lat="44.0745" lon="1.92768">
        <ele>173.8</ele>
        <time>2024-04-07T06:59:08Z</time>
      </trkpt>
      <trkpt lat="44.07448" lon="1.9276">
        <ele>173.8</ele>
        <time>2024-04-07T06:59:09Z</time>
      </trkpt>
      <trkpt lat="44.07447" lon="1.92752">
        <ele>173.8</ele>
        <time>2024-04-07T06:59:10Z</time>
      </trkpt>
      <trkpt lat="44.07446" lon="1.92744">
        <ele>174</ele>
        <time>2024-04-07T06:59:11Z</time>
      </trkpt>
      <trkpt lat="44.07444" lon="1.92737">
        <ele>174</ele>
        <time>2024-04-07T06:59:12Z</time>
      </trkpt>
      <trkpt lat="44.07441" lon="1.92731">
        <ele>174</ele>
        <time>2024-04-07T06:59:13Z</time>
      </trkpt>
      <trkpt lat="44.07439" lon="1.92725">
        <ele>174.2</ele>
        <time>2024-04-07T06:59:14Z</time>
      </trkpt>
      <trkpt lat="44.07436" lon="1.9272">
        <ele>174.4</ele>
        <time>2024-04-07T06:59:15Z</time>
      </trkpt>
      <trkpt lat="44.07434" lon="1.92715">
        <ele>174.4</ele>
        <time>2024-04-07T06:59:16Z</time>
      </trkpt>
      <trkpt lat="44.07431" lon="1.9271">
        <ele>174.4</ele>
        <time>2024-04-07T06:59:17Z</time>
      </trkpt>
      <trkpt lat="44.07428" lon="1.92707">
        <ele>174.4</ele>
        <time>2024-04-07T06:59:18Z</time>
      </trkpt>
      <trkpt lat="44.07424" lon="1.92703">
        <ele>174.6</ele>
        <time>2024-04-07T06:59:19Z</time>
      </trkpt>
      <trkpt lat="44.0742" lon="1.92699">
        <ele>175</ele>
        <time>2024-04-07T06:59:20Z</time>
      </trkpt>
      <trkpt lat="44.07417" lon="1.92695">
        <ele>175.2</ele>
        <time>2024-04-07T06:59:21Z</time>
      </trkpt>
      <trkpt lat="44.07412" lon="1.92691">
        <ele>175.4</ele>
        <time>2024-04-07T06:59:22Z</time>
      </trkpt>
      <trkpt lat="44.07408" lon="1.92687">
        <ele>175.8</ele>
        <time>2024-04-07T06:59:23Z</time>
      </trkpt>
      <trkpt lat="44.07404" lon="1.92683">
        <ele>176.2</ele>
        <time>2024-04-07T06:59:24Z</time>
      </trkpt>
      <trkpt lat="44.074" lon="1.9268">
        <ele>176.2</ele>
        <time>2024-04-07T06:59:25Z</time>
      </trkpt>
      <trkpt lat="44.07396" lon="1.92676">
        <ele>176.4</ele>
        <time>2024-04-07T06:59:26Z</time>
      </trkpt>
      <trkpt lat="44.07391" lon="1.92671">
        <ele>176.4</ele>
        <time>2024-04-07T06:59:27Z</time>
      </trkpt>
      <trkpt lat="44.07386" lon="1.92666">
        <ele>176.6</ele>
        <time>2024-04-07T06:59:28Z</time>
      </trkpt>
      <trkpt lat="44.07381" lon="1.92661">
        <ele>176.8</ele>
        <time>2024-04-07T06:59:29Z</time>
      </trkpt>
      <trkpt lat="44.07375" lon="1.92657">
        <ele>176.8</ele>
        <time>2024-04-07T06:59:30Z</time>
      </trkpt>
      <trkpt lat="44.07369" lon="1.92655">
        <ele>176.6</ele>
        <time>2024-04-07T06:59:31Z</time>
      </trkpt>
      <trkpt lat="44.07363" lon="1.92653">
        <ele>176.4</ele>
        <time>2024-04-07T06:59:32Z</time>
      </trkpt>
      <trkpt lat="44.07357" lon="1.92652">
        <ele>176.2</ele>
        <time>2024-04-07T06:59:33Z</time>
      </trkpt>
      <trkpt lat="44.0735" lon="1.92649">
        <ele>176</ele>
        <time>2024-04-07T06:59:34Z</time>
      </trkpt>
      <trkpt lat="44.07343" lon="1.92645">
        <ele>175.8</ele>
        <time>2024-04-07T06:59:35Z</time>
      </trkpt>
      <trkpt lat="44.07336" lon="1.92643">
        <ele>175.6</ele>
        <time>2024-04-07T06:59:36Z</time>
      </trkpt>
      <trkpt lat="44.07329" lon="1.92644">
        <ele>175.4</ele>
        <time>2024-04-07T06:59:37Z</time>
      </trkpt>
      <trkpt lat="44.07321" lon="1.92648">
        <ele>175</ele>
        <time>2024-04-07T06:59:38Z</time>
      </trkpt>
      <trkpt lat="44.07313" lon="1.92652">
        <ele>174.6</ele>
        <time>2024-04-07T06:59:39Z</time>
      </trkpt>
      <trkpt lat="44.07305" lon="1.92657">
        <ele>174</ele>
        <time>2024-04-07T06:59:40Z</time>
      </trkpt>
      <trkpt lat="44.07298" lon="1.92659">
        <ele>173.4</ele>
        <time>2024-04-07T06:59:41Z</time>
      </trkpt>
      <trkpt lat="44.07289" lon="1.92662">
        <ele>172.8</ele>
        <time>2024-04-07T06:59:42Z</time>
      </trkpt>
      <trkpt lat="44.0728" lon="1.92663">
        <ele>172.2</ele>
        <time>2024-04-07T06:59:43Z</time>
      </trkpt>
      <trkpt lat="44.07274" lon="1.92664">
        <ele>171.4</ele>
        <time>2024-04-07T06:59:44Z</time>
      </trkpt>
      <trkpt lat="44.0727" lon="1.92663">
        <ele>170.8</ele>
        <time>2024-04-07T06:59:45Z</time>
      </trkpt>
      <trkpt lat="44.07267" lon="1.92661">
        <ele>170.4</ele>
        <time>2024-04-07T06:59:46Z</time>
      </trkpt>
      <trkpt lat="44.07266" lon="1.92657">
        <ele>170.2</ele>
        <time>2024-04-07T06:59:47Z</time>
      </trkpt>
      <trkpt lat="44.07267" lon="1.9265">
        <ele>170</ele>
        <time>2024-04-07T06:59:48Z</time>
      </trkpt>
      <trkpt lat="44.07269" lon="1.92644">
        <ele>169.4</ele>
        <time>2024-04-07T06:59:49Z</time>
      </trkpt>
      <trkpt lat="44.07271" lon="1.92637">
        <ele>169.2</ele>
        <time>2024-04-07T06:59:50Z</time>
      </trkpt>
      <trkpt lat="44.07272" lon="1.92629">
        <ele>169</ele>
        <time>2024-04-07T06:59:51Z</time>
      </trkpt>
      <trkpt lat="44.07274" lon="1.92621">
        <ele>168.8</ele>
        <time>2024-04-07T06:59:52Z</time>
      </trkpt>
      <trkpt lat="44.07276" lon="1.92613">
        <ele>168.8</ele>
        <time>2024-04-07T06:59:53Z</time>
      </trkpt>
      <trkpt lat="44.07277" lon="1.92605">
        <ele>168.6</ele>
        <time>2024-04-07T06:59:54Z</time>
      </trkpt>
      <trkpt lat="44.07278" lon="1.92596">
        <ele>168.6</ele>
        <time>2024-04-07T06:59:55Z</time>
      </trkpt>
      <trkpt lat="44.07279" lon="1.92588">
        <ele>168.4</ele>
        <time>2024-04-07T06:59:56Z</time>
      </trkpt>
      <trkpt lat="44.0728" lon="1.92579">
        <ele>168.4</ele>
        <time>2024-04-07T06:59:57Z</time>
      </trkpt>
      <trkpt lat="44.0728" lon="1.92571">
        <ele>168.4</ele>
        <time>2024-04-07T06:59:58Z</time>
      </trkpt>
      <trkpt lat="44.0728" lon="1.92562">
        <ele>168.4</ele>
        <time>2024-04-07T06:59:59Z</time>
      </trkpt>
      <trkpt lat="44.0728" lon="1.92552">
        <ele>168.4</ele>
        <time>2024-04-07T07:00:00Z</time>
      </trkpt>
      <trkpt lat="44.0728" lon="1.92543">
        <ele>168.6</ele>
        <time>2024-04-07T07:00:01Z</time>
      </trkpt>
      <trkpt lat="44.0728" lon="1.92534">
        <ele>168.4</ele>
        <time>2024-04-07T07:00:02Z</time>
      </trkpt>
      <trkpt lat="44.07279" lon="1.92525">
        <ele>168.6</ele>
        <time>2024-04-07T07:00:03Z</time>
      </trkpt>
      <trkpt lat="44.07279" lon="1.92516">
        <ele>168.6</ele>
        <time>2024-04-07T07:00:04Z</time>
      </trkpt>
      <trkpt lat="44.07279" lon="1.92507">
        <ele>168.6</ele>
        <time>2024-04-07T07:00:05Z</time>
      </trkpt>
      <trkpt lat="44.07278" lon="1.92498">
        <ele>168.6</ele>
        <time>2024-04-07T07:00:06Z</time>
      </trkpt>
      <trkpt lat="44.07277" lon="1.9249">
        <ele>168.6</ele>
        <time>2024-04-07T07:00:07Z</time>
      </trkpt>
      <trkpt lat="44.07276" lon="1.92482">
        <ele>168.6</ele>
        <time>2024-04-07T07:00:08Z</time>
      </trkpt>
      <trkpt lat="44.07275" lon="1.92474">
        <ele>168.8</ele>
        <time>2024-04-07T07:00:09Z</time>
      </trkpt>
      <trkpt lat="44.07273" lon="1.92466">
        <ele>168.8</ele>
        <time>2024-04-07T07:00:10Z</time>
      </trkpt>
      <trkpt lat="44.0727" lon="1.92459">
        <ele>168.8</ele>
        <time>2024-04-07T07:00:11Z</time>
      </trkpt>
      <trkpt lat="44.07266" lon="1.92452">
        <ele>168.8</ele>
        <time>2024-04-07T07:00:12Z</time>
      </trkpt>
      <trkpt lat="44.07263" lon="1.92444">
        <ele>169</ele>
        <time>2024-04-07T07:00:13Z</time>
      </trkpt>
      <trkpt lat="44.0726" lon="1.92437">
        <ele>169</ele>
        <time>2024-04-07T07:00:14Z</time>
      </trkpt>
      <trkpt lat="44.07256" lon="1.92429">
        <ele>169</ele>
        <time>2024-04-07T07:00:15Z</time>
      </trkpt>
      <trkpt lat="44.07254" lon="1.92421">
        <ele>169</ele>
        <time>2024-04-07T07:00:16Z</time>
      </trkpt>
      <trkpt lat="44.07251" lon="1.92413">
        <ele>169.2</ele>
        <time>2024-04-07T07:00:17Z</time>
      </trkpt>
      <trkpt lat="44.07249" lon="1.92407">
        <ele>169.2</ele>
        <time>2024-04-07T07:00:18Z</time>
      </trkpt>
      <trkpt lat="44.07247" lon="1.92399">
        <ele>169.4</ele>
        <time>2024-04-07T07:00:19Z</time>
      </trkpt>
      <trkpt lat="44.07242" lon="1.92389">
        <ele>169.4</ele>
        <time>2024-04-07T07:00:20Z</time>
      </trkpt>
      <trkpt lat="44.07238" lon="1.92383">
        <ele>169.4</ele>
        <time>2024-04-07T07:00:21Z</time>
      </trkpt>
      <trkpt lat="44.07234" lon="1.92375">
        <ele>169.4</ele>
        <time>2024-04-07T07:00:22Z</time>
      </trkpt>
      <trkpt lat="44.07231" lon="1.92367">
        <ele>169.4</ele>
        <time>2024-04-07T07:00:23Z</time>
      </trkpt>
      <trkpt lat="44.07229" lon="1.92359">
        <ele>169.4</ele>
        <time>2024-04-07T07:00:24Z</time>
      </trkpt>
      <trkpt lat="44.07226" lon="1.92352">
        <ele>169.4</ele>
        <time>2024-04-07T07:00:25Z</time>
      </trkpt>
      <trkpt lat="44.07223" lon="1.92344">
        <ele>169.4</ele>
        <time>2024-04-07T07:00:26Z</time>
      </trkpt>
      <trkpt lat="44.0722" lon="1.92335">
        <ele>169.2</ele>
        <time>2024-04-07T07:00:27Z</time>
      </trkpt>
      <trkpt lat="44.07216" lon="1.92318">
        <ele>169.2</ele>
        <time>2024-04-07T07:00:29Z</time>
      </trkpt>
      <trkpt lat="44.07214" lon="1.92309">
        <ele>169.2</ele>
        <time>2024-04-07T07:00:30Z</time>
      </trkpt>
      <trkpt lat="44.07212" lon="1.92302">
        <ele>169.2</ele>
        <time>2024-04-07T07:00:31Z</time>
      </trkpt>
      <trkpt lat="44.07211" lon="1.92295">
        <ele>169.2</ele>
        <time>2024-04-07T07:00:32Z</time>
      </trkpt>
      <trkpt lat="44.0721" lon="1.92286">
        <ele>169</ele>
        <time>2024-04-07T07:00:33Z</time>
      </trkpt>
      <trkpt lat="44.07209" lon="1.92278">
        <ele>169</ele>
        <time>2024-04-07T07:00:34Z</time>
      </trkpt>
      <trkpt lat="44.07206" lon="1.92268">
        <ele>169</ele>
        <time>2024-04-07T07:00:35Z</time>
      </trkpt>
      <trkpt lat="44.07206" lon="1.92258">
        <ele>168.8</ele>
        <time>2024-04-07T07:00:36Z</time>
      </trkpt>
      <trkpt lat="44.07205" lon="1.92252">
        <ele>168.8</ele>
        <time>2024-04-07T07:00:37Z</time>
      </trkpt>
      <trkpt lat="44.07203" lon="1.92242">
        <ele>168.8</ele>
        <time>2024-04-07T07:00:38Z</time>
      </trkpt>
      <trkpt lat="44.07202" lon="1.92235">
        <ele>168.8</ele>
        <time>2024-04-07T07:00:39Z</time>
      </trkpt>
      <trkpt lat="44.07202" lon="1.92227">
        <ele>168.8</ele>
        <time>2024-04-07T07:00:40Z</time>
      </trkpt>
      <trkpt lat="44.07202" lon="1.92218">
        <ele>169</ele>
        <time>2024-04-07T07:00:41Z</time>
      </trkpt>
      <trkpt lat="44.07202" lon="1.9221">
        <ele>169</ele>
        <time>2024-04-07T07:00:42Z</time>
      </trkpt>
      <trkpt lat="44.07201" lon="1.92202">
        <ele>169</ele>
        <time>2024-04-07T07:00:43Z</time>
      </trkpt>
      <trkpt lat="44.07201" lon="1.92194">
        <ele>169</ele>
        <time>2024-04-07T07:00:44Z</time>
      </trkpt>
      <trkpt lat="44.07201" lon="1.92186">
        <ele>169</ele>
        <time>2024-04-07T07:00:45Z</time>
      </trkpt>
      <trkpt lat="44.07201" lon="1.92178">
        <ele>169.2</ele>
        <time>2024-04-07T07:00:46Z</time>
      </trkpt>
      <trkpt lat="44.072" lon="1.9217">
        <ele>169.2</ele>
        <time>2024-04-07T07:00:47Z</time>
      </trkpt>
      <trkpt lat="44.07199" lon="1.92161">
        <ele>169.4</ele>
        <time>2024-04-07T07:00:48Z</time>
      </trkpt>
      <trkpt lat="44.07199" lon="1.92152">
        <ele>169.4</ele>
        <time>2024-04-07T07:00:49Z</time>
      </trkpt>
      <trkpt lat="44.072" lon="1.92145">
        <ele>169.6</ele>
        <time>2024-04-07T07:00:50Z</time>
      </trkpt>
      <trkpt lat="44.072" lon="1.92138">
        <ele>169.6</ele>
        <time>2024-04-07T07:00:51Z</time>
      </trkpt>
      <trkpt lat="44.07201" lon="1.9213">
        <ele>169.6</ele>
        <time>2024-04-07T07:00:52Z</time>
      </trkpt>
      <trkpt lat="44.07202" lon="1.92122">
        <ele>169.8</ele>
        <time>2024-04-07T07:00:53Z</time>
      </trkpt>
      <trkpt lat="44.07203" lon="1.92114">
        <ele>170</ele>
        <time>2024-04-07T07:00:54Z</time>
      </trkpt>
      <trkpt lat="44.07204" lon="1.92105">
        <ele>170.2</ele>
        <time>2024-04-07T07:00:55Z</time>
      </trkpt>
      <trkpt lat="44.07205" lon="1.92096">
        <ele>170.4</ele>
        <time>2024-04-07T07:00:56Z</time>
      </trkpt>
      <trkpt lat="44.07206" lon="1.92088">
        <ele>170.6</ele>
        <time>2024-04-07T07:00:57Z</time>
      </trkpt>
      <trkpt lat="44.07207" lon="1.92081">
        <ele>170.6</ele>
        <time>2024-04-07T07:00:58Z</time>
      </trkpt>
      <trkpt lat="44.07208" lon="1.92073">
        <ele>171.2</ele>
        <time>2024-04-07T07:00:59Z</time>
      </trkpt>
      <trkpt lat="44.07209" lon="1.92066">
        <ele>171.2</ele>
        <time>2024-04-07T07:01:00Z</time>
      </trkpt>
      <trkpt lat="44.0721" lon="1.92058">
        <ele>171.4</ele>
        <time>2024-04-07T07:01:01Z</time>
      </trkpt>
      <trkpt lat="44.07211" lon="1.92051">
        <ele>171.6</ele>
        <time>2024-04-07T07:01:02Z</time>
      </trkpt>
      <trkpt lat="44.07212" lon="1.92043">
        <ele>171.8</ele>
        <time>2024-04-07T07:01:03Z</time>
      </trkpt>
      <trkpt lat="44.07213" lon="1.92036">
        <ele>171.8</ele>
        <time>2024-04-07T07:01:04Z</time>
      </trkpt>
      <trkpt lat="44.07214" lon="1.92028">
        <ele>172.4</ele>
        <time>2024-04-07T07:01:05Z</time>
      </trkpt>
      <trkpt lat="44.07215" lon="1.9202">
        <ele>172.8</ele>
        <time>2024-04-07T07:01:06Z</time>
      </trkpt>
      <trkpt lat="44.07216" lon="1.92012">
        <ele>173</ele>
        <time>2024-04-07T07:01:07Z</time>
      </trkpt>
      <trkpt lat="44.07217" lon="1.92004">
        <ele>173.2</ele>
        <time>2024-04-07T07:01:08Z</time>
      </trkpt>
      <trkpt lat="44.07217" lon="1.91995">
        <ele>173.4</ele>
        <time>2024-04-07T07:01:09Z</time>
      </trkpt>
      <trkpt lat="44.07218" lon="1.91987">
        <ele>173.6</ele>
        <time>2024-04-07T07:01:10Z</time>
      </trkpt>
      <trkpt lat="44.07217" lon="1.91978">
        <ele>173.8</ele>
        <time>2024-04-07T07:01:11Z</time>
      </trkpt>
      <trkpt lat="44.07216" lon="1.9197">
        <ele>174</ele>
        <time>2024-04-07T07:01:12Z</time>
      </trkpt>
      <trkpt lat="44.07215" lon="1.91962">
        <ele>174.2</ele>
        <time>2024-04-07T07:01:13Z</time>
      </trkpt>
      <trkpt lat="44.07213" lon="1.91954">
        <ele>174.4</ele>
        <time>2024-04-07T07:01:14Z</time>
      </trkpt>
      <trkpt lat="44.07211" lon="1.91946">
        <ele>174.8</ele>
        <time>2024-04-07T07:01:15Z</time>
      </trkpt>
      <trkpt lat="44.0721" lon="1.91938">
        <ele>175</ele>
        <time>2024-04-07T07:01:16Z</time>
      </trkpt>
      <trkpt lat="44.07208" lon="1.9193">
        <ele>175</ele>
        <time>2024-04-07T07:01:17Z</time>
      </trkpt>
      <trkpt lat="44.07206" lon="1.91922">
        <ele>175.2</ele>
        <time>2024-04-07T07:01:18Z</time>
      </trkpt>
      <trkpt lat="44.07204" lon="1.91914">
        <ele>175.4</ele>
        <time>2024-04-07T07:01:19Z</time>
      </trkpt>
      <trkpt lat="44.07202" lon="1.91906">
        <ele>175.4</ele>
        <time>2024-04-07T07:01:20Z</time>
      </trkpt>
      <trkpt lat="44.072" lon="1.91898">
        <ele>175.6</ele>
        <time>2024-04-07T07:01:21Z</time>
      </trkpt>
      <trkpt lat="44.07198" lon="1.9189">
        <ele>175.6</ele>
        <time>2024-04-07T07:01:22Z</time>
      </trkpt>
      <trkpt lat="44.07197" lon="1.91882">
        <ele>175.6</ele>
        <time>2024-04-07T07:01:23Z</time>
      </trkpt>
      <trkpt lat="44.07195" lon="1.91874">
        <ele>175.8</ele>
        <time>2024-04-07T07:01:24Z</time>
      </trkpt>
      <trkpt lat="44.07194" lon="1.91866">
        <ele>175.8</ele>
        <time>2024-04-07T07:01:25Z</time>
      </trkpt>
      <trkpt lat="44.07193" lon="1.91859">
        <ele>176.2</ele>
        <time>2024-04-07T07:01:26Z</time>
      </trkpt>
      <trkpt lat="44.07191" lon="1.91852">
        <ele>176.4</ele>
        <time>2024-04-07T07:01:27Z</time>
      </trkpt>
      <trkpt lat="44.0719" lon="1.91844">
        <ele>176.6</ele>
        <time>2024-04-07T07:01:28Z</time>
      </trkpt>
      <trkpt lat="44.07189" lon="1.91837">
        <ele>176.6</ele>
        <time>2024-04-07T07:01:29Z</time>
      </trkpt>
      <trkpt lat="44.07188" lon="1.9183">
        <ele>176.8</ele>
        <time>2024-04-07T07:01:30Z</time>
      </trkpt>
      <trkpt lat="44.07187" lon="1.91823">
        <ele>177</ele>
        <time>2024-04-07T07:01:31Z</time>
      </trkpt>
      <trkpt lat="44.07186" lon="1.91816">
        <ele>177</ele>
        <time>2024-04-07T07:01:32Z</time>
      </trkpt>
      <trkpt lat="44.07185" lon="1.9181">
        <ele>177.4</ele>
        <time>2024-04-07T07:01:33Z</time>
      </trkpt>
      <trkpt lat="44.07185" lon="1.91804">
        <ele>177.6</ele>
        <time>2024-04-07T07:01:34Z</time>
      </trkpt>
      <trkpt lat="44.07184" lon="1.91797">
        <ele>178</ele>
        <time>2024-04-07T07:01:35Z</time>
      </trkpt>
      <trkpt lat="44.07183" lon="1.9179">
        <ele>178</ele>
        <time>2024-04-07T07:01:36Z</time>
      </trkpt>
      <trkpt lat="44.07182" lon="1.91783">
        <ele>178.4</ele>
        <time>2024-04-07T07:01:37Z</time>
      </trkpt>
      <trkpt lat="44.07181" lon="1.91776">
        <ele>178.6</ele>
        <time>2024-04-07T07:01:38Z</time>
      </trkpt>
      <trkpt lat="44.0718" lon="1.91769">
        <ele>178.8</ele>
        <time>2024-04-07T07:01:39Z</time>
      </trkpt>
      <trkpt lat="44.07179" lon="1.91763">
        <ele>179</ele>
        <time>2024-04-07T07:01:40Z</time>
      </trkpt>
      <trkpt lat="44.07177" lon="1.91756">
        <ele>179.2</ele>
        <time>2024-04-07T07:01:41Z</time>
      </trkpt>
      <trkpt lat="44.07177" lon="1.91749">
        <ele>179.8</ele>
        <time>2024-04-07T07:01:42Z</time>
      </trkpt>
      <trkpt lat="44.07176" lon="1.91742">
        <ele>180.2</ele>
        <time>2024-04-07T07:01:43Z</time>
      </trkpt>
      <trkpt lat="44.07174" lon="1.91735">
        <ele>180.6</ele>
        <time>2024-04-07T07:01:44Z</time>
      </trkpt>
      <trkpt lat="44.07173" lon="1.91728">
        <ele>180.6</ele>
        <time>2024-04-07T07:01:45Z</time>
      </trkpt>
      <trkpt lat="44.07173" lon="1.91721">
        <ele>180.8</ele>
        <time>2024-04-07T07:01:46Z</time>
      </trkpt>
      <trkpt lat="44.07171" lon="1.91715">
        <ele>181.2</ele>
        <time>2024-04-07T07:01:47Z</time>
      </trkpt>
      <trkpt lat="44.0717" lon="1.91708">
        <ele>181.2</ele>
        <time>2024-04-07T07:01:48Z</time>
      </trkpt>
      <trkpt lat="44.07169" lon="1.91701">
        <ele>181.6</ele>
        <time>2024-04-07T07:01:49Z</time>
      </trkpt>
      <trkpt lat="44.07167" lon="1.91695">
        <ele>181.8</ele>
        <time>2024-04-07T07:01:50Z</time>
      </trkpt>
      <trkpt lat="44.07166" lon="1.91688">
        <ele>182</ele>
        <time>2024-04-07T07:01:51Z</time>
      </trkpt>
      <trkpt lat="44.07165" lon="1.91681">
        <ele>182.2</ele>
        <time>2024-04-07T07:01:52Z</time>
      </trkpt>
      <trkpt lat="44.07164" lon="1.91674">
        <ele>182.6</ele>
        <time>2024-04-07T07:01:53Z</time>
      </trkpt>
      <trkpt lat="44.07162" lon="1.91666">
        <ele>182.8</ele>
        <time>2024-04-07T07:01:54Z</time>
      </trkpt>
      <trkpt lat="44.0716" lon="1.91659">
        <ele>183</ele>
        <time>2024-04-07T07:01:55Z</time>
      </trkpt>
      <trkpt lat="44.07158" lon="1.91652">
        <ele>183.4</ele>
        <time>2024-04-07T07:01:56Z</time>
      </trkpt>
      <trkpt lat="44.07156" lon="1.91644">
        <ele>183.6</ele>
        <time>2024-04-07T07:01:57Z</time>
      </trkpt>
      <trkpt lat="44.07155" lon="1.91638">
        <ele>184</ele>
        <time>2024-04-07T07:01:58Z</time>
      </trkpt>
      <trkpt lat="44.07154" lon="1.91631">
        <ele>184.2</ele>
        <time>2024-04-07T07:01:59Z</time>
      </trkpt>
      <trkpt lat="44.07153" lon="1.91624">
        <ele>184.6</ele>
        <time>2024-04-07T07:02:00Z</time>
      </trkpt>
      <trkpt lat="44.07152" lon="1.91617">
        <ele>184.8</ele>
        <time>2024-04-07T07:02:01Z</time>
      </trkpt>
      <trkpt lat="44.07151" lon="1.9161">
        <ele>185.2</ele>
        <time>2024-04-07T07:02:02Z</time>
      </trkpt>
      <trkpt lat="44.07151" lon="1.91603">
        <ele>185.6</ele>
        <time>2024-04-07T07:02:03Z</time>
      </trkpt>
      <trkpt lat="44.0715" lon="1.91596">
        <ele>185.6</ele>
        <time>2024-04-07T07:02:04Z</time>
      </trkpt>
      <trkpt lat="44.0715" lon="1.91589">
        <ele>186.2</ele>
        <time>2024-04-07T07:02:05Z</time>
      </trkpt>
      <trkpt lat="44.07149" lon="1.91582">
        <ele>186.2</ele>
        <time>2024-04-07T07:02:06Z</time>
      </trkpt>
      <trkpt lat="44.07149" lon="1.91574">
        <ele>186.6</ele>
        <time>2024-04-07T07:02:07Z</time>
      </trkpt>
      <trkpt lat="44.07149" lon="1.91567">
        <ele>186.8</ele>
        <time>2024-04-07T07:02:08Z</time>
      </trkpt>
      <trkpt lat="44.07149" lon="1.9156">
        <ele>187.4</ele>
        <time>2024-04-07T07:02:09Z</time>
      </trkpt>
      <trkpt lat="44.07149" lon="1.91552">
        <ele>187.6</ele>
        <time>2024-04-07T07:02:10Z</time>
      </trkpt>
      <trkpt lat="44.07149" lon="1.91544">
        <ele>187.8</ele>
        <time>2024-04-07T07:02:11Z</time>
      </trkpt>
      <trkpt lat="44.07148" lon="1.91537">
        <ele>188.2</ele>
        <time>2024-04-07T07:02:12Z</time>
      </trkpt>
      <trkpt lat="44.07148" lon="1.9153">
        <ele>188.4</ele>
        <time>2024-04-07T07:02:13Z</time>
      </trkpt>
      <trkpt lat="44.07148" lon="1.91523">
        <ele>188.6</ele>
        <time>2024-04-07T07:02:14Z</time>
      </trkpt>
      <trkpt lat="44.07148" lon="1.91516">
        <ele>188.8</ele>
        <time>2024-04-07T07:02:15Z</time>
      </trkpt>
      <trkpt lat="44.07149" lon="1.9151">
        <ele>189.2</ele>
        <time>2024-04-07T07:02:16Z</time>
      </trkpt>
      <trkpt lat="44.07149" lon="1.91502">
        <ele>189.4</ele>
        <time>2024-04-07T07:02:17Z</time>
      </trkpt>
      <trkpt lat="44.07149" lon="1.91496">
        <ele>189.6</ele>
        <time>2024-04-07T07:02:18Z</time>
      </trkpt>
      <trkpt lat="44.0715" lon="1.91489">
        <ele>189.8</ele>
        <time>2024-04-07T07:02:19Z</time>
      </trkpt>
      <trkpt lat="44.07151" lon="1.91482">
        <ele>190.2</ele>
        <time>2024-04-07T07:02:20Z</time>
      </trkpt>
      <trkpt lat="44.07151" lon="1.91475">
        <ele>190.4</ele>
        <time>2024-04-07T07:02:21Z</time>
      </trkpt>
      <trkpt lat="44.07152" lon="1.91469">
        <ele>190.6</ele>
        <time>2024-04-07T07:02:22Z</time>
      </trkpt>
      <trkpt lat="44.07153" lon="1.91462">
        <ele>191</ele>
        <time>2024-04-07T07:02:23Z</time>
      </trkpt>
      <trkpt lat="44.07154" lon="1.91455">
        <ele>191.2</ele>
        <time>2024-04-07T07:02:24Z</time>
      </trkpt>
      <trkpt lat="44.07155" lon="1.91448">
        <ele>191.6</ele>
        <time>2024-04-07T07:02:25Z</time>
      </trkpt>
      <trkpt lat="44.07156" lon="1.91442">
        <ele>191.8</ele>
        <time>2024-04-07T07:02:26Z</time>
      </trkpt>
      <trkpt lat="44.07157" lon="1.91435">
        <ele>192.2</ele>
        <time>2024-04-07T07:02:27Z</time>
      </trkpt>
      <trkpt lat="44.07158" lon="1.91428">
        <ele>192.4</ele>
        <time>2024-04-07T07:02:28Z</time>
      </trkpt>
      <trkpt lat="44.07159" lon="1.91421">
        <ele>192.8</ele>
        <time>2024-04-07T07:02:29Z</time>
      </trkpt>
      <trkpt lat="44.0716" lon="1.91414">
        <ele>193</ele>
        <time>2024-04-07T07:02:30Z</time>
      </trkpt>
      <trkpt lat="44.07161" lon="1.91407">
        <ele>193.2</ele>
        <time>2024-04-07T07:02:31Z</time>
      </trkpt>
      <trkpt lat="44.07163" lon="1.91401">
        <ele>193.4</ele>
        <time>2024-04-07T07:02:32Z</time>
      </trkpt>
      <trkpt lat="44.07164" lon="1.91395">
        <ele>193.4</ele>
        <time>2024-04-07T07:02:33Z</time>
      </trkpt>
      <trkpt lat="44.07166" lon="1.91389">
        <ele>193.6</ele>
        <time>2024-04-07T07:02:34Z</time>
      </trkpt>
      <trkpt lat="44.07167" lon="1.91383">
        <ele>193.8</ele>
        <time>2024-04-07T07:02:35Z</time>
      </trkpt>
      <trkpt lat="44.07168" lon="1.91376">
        <ele>193.8</ele>
        <time>2024-04-07T07:02:36Z</time>
      </trkpt>
      <trkpt lat="44.0717" lon="1.9137">
        <ele>194</ele>
        <time>2024-04-07T07:02:37Z</time>
      </trkpt>
      <trkpt lat="44.07171" lon="1.91364">
        <ele>194.2</ele>
        <time>2024-04-07T07:02:38Z</time>
      </trkpt>
      <trkpt lat="44.07173" lon="1.91358">
        <ele>194.6</ele>
        <time>2024-04-07T07:02:39Z</time>
      </trkpt>
      <trkpt lat="44.07175" lon="1.91352">
        <ele>194.6</ele>
        <time>2024-04-07T07:02:40Z</time>
      </trkpt>
      <trkpt lat="44.07177" lon="1.91346">
        <ele>195.4</ele>
        <time>2024-04-07T07:02:41Z</time>
      </trkpt>
      <trkpt lat="44.07179" lon="1.9134">
        <ele>195.6</ele>
        <time>2024-04-07T07:02:42Z</time>
      </trkpt>
      <trkpt lat="44.07181" lon="1.91334">
        <ele>195.8</ele>
        <time>2024-04-07T07:02:43Z</time>
      </trkpt>
      <trkpt lat="44.07184" lon="1.91328">
        <ele>196</ele>
        <time>2024-04-07T07:02:44Z</time>
      </trkpt>
      <trkpt lat="44.07185" lon="1.91323">
        <ele>196.4</ele>
        <time>2024-04-07T07:02:45Z</time>
      </trkpt>
      <trkpt lat="44.07187" lon="1.91317">
        <ele>196.6</ele>
        <time>2024-04-07T07:02:46Z</time>
      </trkpt>
      <trkpt lat="44.07189" lon="1.91311">
        <ele>196.8</ele>
        <time>2024-04-07T07:02:47Z</time>
      </trkpt>
      <trkpt lat="44.0719" lon="1.91305">
        <ele>197.4</ele>
        <time>2024-04-07T07:02:48Z</time>
      </trkpt>
      <trkpt lat="44.07192" lon="1.91299">
        <ele>197.6</ele>
        <time>2024-04-07T07:02:49Z</time>
      </trkpt>
      <trkpt lat="44.07193" lon="1.91293">
        <ele>198</ele>
        <time>2024-04-07T07:02:50Z</time>
      </trkpt>
      <trkpt lat="44.07194" lon="1.91286">
        <ele>198</ele>
        <time>2024-04-07T07:02:51Z</time>
      </trkpt>
      <trkpt lat="44.07195" lon="1.9128">
        <ele>198.4</ele>
        <time>2024-04-07T07:02:52Z</time>
      </trkpt>
      <trkpt lat="44.07195" lon="1.91274">
        <ele>198.4</ele>
        <time>2024-04-07T07:02:53Z</time>
      </trkpt>
      <trkpt lat="44.07196" lon="1.91267">
        <ele>198.6</ele>
        <time>2024-04-07T07:02:54Z</time>
      </trkpt>
      <trkpt lat="44.07196" lon="1.91261">
        <ele>199</ele>
        <time>2024-04-07T07:02:55Z</time>
      </trkpt>
      <trkpt lat="44.07196" lon="1.91254">
        <ele>199.2</ele>
        <time>2024-04-07T07:02:56Z</time>
      </trkpt>
      <trkpt lat="44.07195" lon="1.91248">
        <ele>199.6</ele>
        <time>2024-04-07T07:02:57Z</time>
      </trkpt>
      <trkpt lat="44.07195" lon="1.91241">
        <ele>199.6</ele>
        <time>2024-04-07T07:02:58Z</time>
      </trkpt>
      <trkpt lat="44.07195" lon="1.91235">
        <ele>200.2</ele>
        <time>2024-04-07T07:02:59Z</time>
      </trkpt>
      <trkpt lat="44.07196" lon="1.91229">
        <ele>200.2</ele>
        <time>2024-04-07T07:03:00Z</time>
      </trkpt>
      <trkpt lat="44.07196" lon="1.91223">
        <ele>200.4</ele>
        <time>2024-04-07T07:03:01Z</time>
      </trkpt>
      <trkpt lat="44.07196" lon="1.91216">
        <ele>200.6</ele>
        <time>2024-04-07T07:03:02Z</time>
      </trkpt>
      <trkpt lat="44.07197" lon="1.9121">
        <ele>201</ele>
        <time>2024-04-07T07:03:03Z</time>
      </trkpt>
      <trkpt lat="44.07197" lon="1.91203">
        <ele>201.4</ele>
        <time>2024-04-07T07:03:04Z</time>
      </trkpt>
      <trkpt lat="44.07197" lon="1.91196">
        <ele>201.4</ele>
        <time>2024-04-07T07:03:05Z</time>
      </trkpt>
      <trkpt lat="44.07197" lon="1.91189">
        <ele>201.8</ele>
        <time>2024-04-07T07:03:06Z</time>
      </trkpt>
      <trkpt lat="44.07198" lon="1.91183">
        <ele>202</ele>
        <time>2024-04-07T07:03:07Z</time>
      </trkpt>
      <trkpt lat="44.07199" lon="1.91177">
        <ele>202.2</ele>
        <time>2024-04-07T07:03:08Z</time>
      </trkpt>
      <trkpt lat="44.07199" lon="1.9117">
        <ele>202.4</ele>
        <time>2024-04-07T07:03:09Z</time>
      </trkpt>
      <trkpt lat="44.072" lon="1.91165">
        <ele>202.8</ele>
        <time>2024-04-07T07:03:10Z</time>
      </trkpt>
      <trkpt lat="44.07202" lon="1.91159">
        <ele>203</ele>
        <time>2024-04-07T07:03:11Z</time>
      </trkpt>
      <trkpt lat="44.07204" lon="1.91154">
        <ele>203.6</ele>
        <time>2024-04-07T07:03:12Z</time>
      </trkpt>
      <trkpt lat="44.07207" lon="1.91148">
        <ele>203.8</ele>
        <time>2024-04-07T07:03:13Z</time>
      </trkpt>
      <trkpt lat="44.07209" lon="1.91142">
        <ele>204</ele>
        <time>2024-04-07T07:03:14Z</time>
      </trkpt>
      <trkpt lat="44.07211" lon="1.91137">
        <ele>204.4</ele>
        <time>2024-04-07T07:03:15Z</time>
      </trkpt>
      <trkpt lat="44.07214" lon="1.91131">
        <ele>204.6</ele>
        <time>2024-04-07T07:03:16Z</time>
      </trkpt>
      <trkpt lat="44.07217" lon="1.91125">
        <ele>204.8</ele>
        <time>2024-04-07T07:03:17Z</time>
      </trkpt>
      <trkpt lat="44.0722" lon="1.91119">
        <ele>204.8</ele>
        <time>2024-04-07T07:03:18Z</time>
      </trkpt>
      <trkpt lat="44.07224" lon="1.91113">
        <ele>205</ele>
        <time>2024-04-07T07:03:19Z</time>
      </trkpt>
      <trkpt lat="44.07227" lon="1.91107">
        <ele>205</ele>
        <time>2024-04-07T07:03:20Z</time>
      </trkpt>
      <trkpt lat="44.07231" lon="1.911">
        <ele>205</ele>
        <time>2024-04-07T07:03:21Z</time>
      </trkpt>
      <trkpt lat="44.07235" lon="1.91093">
        <ele>205</ele>
        <time>2024-04-07T07:03:22Z</time>
      </trkpt>
      <trkpt lat="44.07239" lon="1.91086">
        <ele>205</ele>
        <time>2024-04-07T07:03:23Z</time>
      </trkpt>
      <trkpt lat="44.07244" lon="1.91079">
        <ele>204.8</ele>
        <time>2024-04-07T07:03:24Z</time>
      </trkpt>
      <trkpt lat="44.07248" lon="1.91071">
        <ele>204.8</ele>
        <time>2024-04-07T07:03:25Z</time>
      </trkpt>
      <trkpt lat="44.07254" lon="1.91064">
        <ele>204.6</ele>
        <time>2024-04-07T07:03:26Z</time>
      </trkpt>
      <trkpt lat="44.07259" lon="1.9106">
        <ele>204.4</ele>
        <time>2024-04-07T07:03:27Z</time>
      </trkpt>
      <trkpt lat="44.07265" lon="1.91057">
        <ele>203.8</ele>
        <time>2024-04-07T07:03:28Z</time>
      </trkpt>
      <trkpt lat="44.07271" lon="1.91054">
        <ele>203.6</ele>
        <time>2024-04-07T07:03:29Z</time>
      </trkpt>
      <trkpt lat="44.07276" lon="1.91051">
        <ele>203</ele>
        <time>2024-04-07T07:03:30Z</time>
      </trkpt>
      <trkpt lat="44.0728" lon="1.91051">
        <ele>202.6</ele>
        <time>2024-04-07T07:03:31Z</time>
      </trkpt>
      <trkpt lat="44.07286" lon="1.91052">
        <ele>202.4</ele>
        <time>2024-04-07T07:03:32Z</time>
      </trkpt>
      <trkpt lat="44.07291" lon="1.91053">
        <ele>202.4</ele>
        <time>2024-04-07T07:03:33Z</time>
      </trkpt>
      <trkpt lat="44.07296" lon="1.91054">
        <ele>202.2</ele>
        <time>2024-04-07T07:03:34Z</time>
      </trkpt>
      <trkpt lat="44.07301" lon="1.91054">
        <ele>202.2</ele>
        <time>2024-04-07T07:03:35Z</time>
      </trkpt>
      <trkpt lat="44.07306" lon="1.91055">
        <ele>202.2</ele>
        <time>2024-04-07T07:03:36Z</time>
      </trkpt>
      <trkpt lat="44.07311" lon="1.91055">
        <ele>202.2</ele>
        <time>2024-04-07T07:03:37Z</time>
      </trkpt>
      <trkpt lat="44.07316" lon="1.91056">
        <ele>202.2</ele>
        <time>2024-04-07T07:03:38Z</time>
      </trkpt>
      <trkpt lat="44.07319" lon="1.91057">
        <ele>202.2</ele>
        <time>2024-04-07T07:03:39Z</time>
      </trkpt>
      <trkpt lat="44.07325" lon="1.91059">
        <ele>202.4</ele>
        <time>2024-04-07T07:03:40Z</time>
      </trkpt>
      <trkpt lat="44.07329" lon="1.91061">
        <ele>202.4</ele>
        <time>2024-04-07T07:03:41Z</time>
      </trkpt>
      <trkpt lat="44.07333" lon="1.91063">
        <ele>202.8</ele>
        <time>2024-04-07T07:03:42Z</time>
      </trkpt>
      <trkpt lat="44.07337" lon="1.91066">
        <ele>203.2</ele>
        <time>2024-04-07T07:03:43Z</time>
      </trkpt>
      <trkpt lat="44.07341" lon="1.91069">
        <ele>203.4</ele>
        <time>2024-04-07T07:03:44Z</time>
      </trkpt>
      <trkpt lat="44.07344" lon="1.91071">
        <ele>203.6</ele>
        <time>2024-04-07T07:03:45Z</time>
      </trkpt>
      <trkpt lat="44.07349" lon="1.91074">
        <ele>203.8</ele>
        <time>2024-04-07T07:03:46Z</time>
      </trkpt>
      <trkpt lat="44.07353" lon="1.91077">
        <ele>204</ele>
        <time>2024-04-07T07:03:47Z</time>
      </trkpt>
      <trkpt lat="44.07357" lon="1.91079">
        <ele>204.4</ele>
        <time>2024-04-07T07:03:48Z</time>
      </trkpt>
      <trkpt lat="44.07361" lon="1.91082">
        <ele>204.6</ele>
        <time>2024-04-07T07:03:49Z</time>
      </trkpt>
      <trkpt lat="44.07365" lon="1.91085">
        <ele>204.8</ele>
        <time>2024-04-07T07:03:50Z</time>
      </trkpt>
      <trkpt lat="44.07369" lon="1.91089">
        <ele>205.4</ele>
        <time>2024-04-07T07:03:51Z</time>
      </trkpt>
      <trkpt lat="44.07373" lon="1.91092">
        <ele>205.6</ele>
        <time>2024-04-07T07:03:52Z</time>
      </trkpt>
      <trkpt lat="44.07376" lon="1.91096">
        <ele>206.2</ele>
        <time>2024-04-07T07:03:53Z</time>
      </trkpt>
      <trkpt lat="44.0738" lon="1.911">
        <ele>206.4</ele>
        <time>2024-04-07T07:03:54Z</time>
      </trkpt>
      <trkpt lat="44.07384" lon="1.91105">
        <ele>206.8</ele>
        <time>2024-04-07T07:03:55Z</time>
      </trkpt>
      <trkpt lat="44.07388" lon="1.91109">
        <ele>207.2</ele>
        <time>2024-04-07T07:03:56Z</time>
      </trkpt>
      <trkpt lat="44.07391" lon="1.91112">
        <ele>207.2</ele>
        <time>2024-04-07T07:03:57Z</time>
      </trkpt>
      <trkpt lat="44.07395" lon="1.91117">
        <ele>207.8</ele>
        <time>2024-04-07T07:03:58Z</time>
      </trkpt>
      <trkpt lat="44.07399" lon="1.91121">
        <ele>208</ele>
        <time>2024-04-07T07:03:59Z</time>
      </trkpt>
      <trkpt lat="44.07402" lon="1.91125">
        <ele>208.8</ele>
        <time>2024-04-07T07:04:00Z</time>
      </trkpt>
      <trkpt lat="44.07406" lon="1.91129">
        <ele>209</ele>
        <time>2024-04-07T07:04:01Z</time>
      </trkpt>
      <trkpt lat="44.07409" lon="1.91133">
        <ele>209.4</ele>
        <time>2024-04-07T07:04:02Z</time>
      </trkpt>
      <trkpt lat="44.07413" lon="1.91137">
        <ele>209.6</ele>
        <time>2024-04-07T07:04:03Z</time>
      </trkpt>
      <trkpt lat="44.07416" lon="1.9114">
        <ele>210</ele>
        <time>2024-04-07T07:04:04Z</time>
      </trkpt>
      <trkpt lat="44.07419" lon="1.91143">
        <ele>210.2</ele>
        <time>2024-04-07T07:04:05Z</time>
      </trkpt>
      <trkpt lat="44.07423" lon="1.91147">
        <ele>210.4</ele>
        <time>2024-04-07T07:04:06Z</time>
      </trkpt>
      <trkpt lat="44.07426" lon="1.9115">
        <ele>211</ele>
        <time>2024-04-07T07:04:07Z</time>
      </trkpt>
      <trkpt lat="44.07431" lon="1.91154">
        <ele>211.4</ele>
        <time>2024-04-07T07:04:08Z</time>
      </trkpt>
      <trkpt lat="44.07435" lon="1.91157">
        <ele>211.8</ele>
        <time>2024-04-07T07:04:09Z</time>
      </trkpt>
      <trkpt lat="44.07438" lon="1.91159">
        <ele>212</ele>
        <time>2024-04-07T07:04:10Z</time>
      </trkpt>
      <trkpt lat="44.07442" lon="1.91162">
        <ele>212.4</ele>
        <time>2024-04-07T07:04:11Z</time>
      </trkpt>
      <trkpt lat="44.07446" lon="1.91164">
        <ele>212.6</ele>
        <time>2024-04-07T07:04:12Z</time>
      </trkpt>
      <trkpt lat="44.07452" lon="1.91167">
        <ele>212.8</ele>
        <time>2024-04-07T07:04:13Z</time>
      </trkpt>
      <trkpt lat="44.07456" lon="1.91169">
        <ele>213.4</ele>
        <time>2024-04-07T07:04:14Z</time>
      </trkpt>
      <trkpt lat="44.07459" lon="1.91171">
        <ele>213.6</ele>
        <time>2024-04-07T07:04:15Z</time>
      </trkpt>
      <trkpt lat="44.07462" lon="1.91173">
        <ele>214.2</ele>
        <time>2024-04-07T07:04:16Z</time>
      </trkpt>
      <trkpt lat="44.07466" lon="1.91176">
        <ele>214.4</ele>
        <time>2024-04-07T07:04:17Z</time>
      </trkpt>
      <trkpt lat="44.0747" lon="1.91178">
        <ele>214.8</ele>
        <time>2024-04-07T07:04:18Z</time>
      </trkpt>
      <trkpt lat="44.07474" lon="1.9118">
        <ele>215</ele>
        <time>2024-04-07T07:04:19Z</time>
      </trkpt>
      <trkpt lat="44.07477" lon="1.91181">
        <ele>215.4</ele>
        <time>2024-04-07T07:04:20Z</time>
      </trkpt>
      <trkpt lat="44.07481" lon="1.91183">
        <ele>215.4</ele>
        <time>2024-04-07T07:04:21Z</time>
      </trkpt>
      <trkpt lat="44.07485" lon="1.91184">
        <ele>215.8</ele>
        <time>2024-04-07T07:04:22Z</time>
      </trkpt>
      <trkpt lat="44.0749" lon="1.91185">
        <ele>216.2</ele>
        <time>2024-04-07T07:04:23Z</time>
      </trkpt>
      <trkpt lat="44.07494" lon="1.91186">
        <ele>216.4</ele>
        <time>2024-04-07T07:04:24Z</time>
      </trkpt>
      <trkpt lat="44.07498" lon="1.91188">
        <ele>217</ele>
        <time>2024-04-07T07:04:25Z</time>
      </trkpt>
      <trkpt lat="44.07502" lon="1.9119">
        <ele>217</ele>
        <time>2024-04-07T07:04:26Z</time>
      </trkpt>
      <trkpt lat="44.07506" lon="1.91192">
        <ele>217.8</ele>
        <time>2024-04-07T07:04:27Z</time>
      </trkpt>
      <trkpt lat="44.0751" lon="1.91194">
        <ele>217.8</ele>
        <time>2024-04-07T07:04:28Z</time>
      </trkpt>
      <trkpt lat="44.07514" lon="1.91196">
        <ele>218.4</ele>
        <time>2024-04-07T07:04:29Z</time>
      </trkpt>
      <trkpt lat="44.07518" lon="1.91198">
        <ele>218.8</ele>
        <time>2024-04-07T07:04:30Z</time>
      </trkpt>
      <trkpt lat="44.07522" lon="1.91199">
        <ele>219.4</ele>
        <time>2024-04-07T07:04:31Z</time>
      </trkpt>
      <trkpt lat="44.07526" lon="1.91201">
        <ele>219.6</ele>
        <time>2024-04-07T07:04:32Z</time>
      </trkpt>
      <trkpt lat="44.07531" lon="1.91204">
        <ele>219.8</ele>
        <time>2024-04-07T07:04:33Z</time>
      </trkpt>
      <trkpt lat="44.07535" lon="1.91206">
        <ele>220.4</ele>
        <time>2024-04-07T07:04:34Z</time>
      </trkpt>
      <trkpt lat="44.07538" lon="1.91207">
        <ele>220.8</ele>
        <time>2024-04-07T07:04:35Z</time>
      </trkpt>
      <trkpt lat="44.07542" lon="1.9121">
        <ele>221.4</ele>
        <time>2024-04-07T07:04:36Z</time>
      </trkpt>
      <trkpt lat="44.07548" lon="1.91212">
        <ele>221.6</ele>
        <time>2024-04-07T07:04:37Z</time>
      </trkpt>
      <trkpt lat="44.07551" lon="1.91214">
        <ele>221.8</ele>
        <time>2024-04-07T07:04:38Z</time>
      </trkpt>
      <trkpt lat="44.07557" lon="1.91216">
        <ele>222</ele>
        <time>2024-04-07T07:04:39Z</time>
      </trkpt>
      <trkpt lat="44.07561" lon="1.91218">
        <ele>222.6</ele>
        <time>2024-04-07T07:04:40Z</time>
      </trkpt>
      <trkpt lat="44.07564" lon="1.91219">
        <ele>223.2</ele>
        <time>2024-04-07T07:04:41Z</time>
      </trkpt>
      <trkpt lat="44.07568" lon="1.91221">
        <ele>223.4</ele>
        <time>2024-04-07T07:04:42Z</time>
      </trkpt>
      <trkpt lat="44.07572" lon="1.91223">
        <ele>223.6</ele>
        <time>2024-04-07T07:04:43Z</time>
      </trkpt>
      <trkpt lat="44.07576" lon="1.91226">
        <ele>223.8</ele>
        <time>2024-04-07T07:04:44Z</time>
      </trkpt>
      <trkpt lat="44.07579" lon="1.91227">
        <ele>224.2</ele>
        <time>2024-04-07T07:04:45Z</time>
      </trkpt>
      <trkpt lat="44.07582" lon="1.91229">
        <ele>224.6</ele>
        <time>2024-04-07T07:04:46Z</time>
      </trkpt>
      <trkpt lat="44.07585" lon="1.91231">
        <ele>225.2</ele>
        <time>2024-04-07T07:04:47Z</time>
      </trkpt>
      <trkpt lat="44.07589" lon="1.91234">
        <ele>225.6</ele>
        <time>2024-04-07T07:04:48Z</time>
      </trkpt>
      <trkpt lat="44.07592" lon="1.91236">
        <ele>226.2</ele>
        <time>2024-04-07T07:04:49Z</time>
      </trkpt>
      <trkpt lat="44.07596" lon="1.91237">
        <ele>226.6</ele>
        <time>2024-04-07T07:04:50Z</time>
      </trkpt>
      <trkpt lat="44.07599" lon="1.91239">
        <ele>226.8</ele>
        <time>2024-04-07T07:04:51Z</time>
      </trkpt>
      <trkpt lat="44.07603" lon="1.9124">
        <ele>227</ele>
        <time>2024-04-07T07:04:52Z</time>
      </trkpt>
      <trkpt lat="44.07605" lon="1.91241">
        <ele>227.4</ele>
        <time>2024-04-07T07:04:53Z</time>
      </trkpt>
      <trkpt lat="44.07608" lon="1.91242">
        <ele>228</ele>
        <time>2024-04-07T07:04:54Z</time>
      </trkpt>
      <trkpt lat="44.07612" lon="1.91244">
        <ele>228.2</ele>
        <time>2024-04-07T07:04:55Z</time>
      </trkpt>
      <trkpt lat="44.07615" lon="1.91245">
        <ele>229</ele>
        <time>2024-04-07T07:04:56Z</time>
      </trkpt>
      <trkpt lat="44.07619" lon="1.91246">
        <ele>229.6</ele>
        <time>2024-04-07T07:04:57Z</time>
      </trkpt>
      <trkpt lat="44.07622" lon="1.91246">
        <ele>229.8</ele>
        <time>2024-04-07T07:04:58Z</time>
      </trkpt>
      <trkpt lat="44.07626" lon="1.91246">
        <ele>230.4</ele>
        <time>2024-04-07T07:04:59Z</time>
      </trkpt>
      <trkpt lat="44.07629" lon="1.91246">
        <ele>230.6</ele>
        <time>2024-04-07T07:05:00Z</time>
      </trkpt>
      <trkpt lat="44.07632" lon="1.91246">
        <ele>230.8</ele>
        <time>2024-04-07T07:05:01Z</time>
      </trkpt>
      <trkpt lat="44.07636" lon="1.91245">
        <ele>231</ele>
        <time>2024-04-07T07:05:02Z</time>
      </trkpt>
      <trkpt lat="44.07639" lon="1.91245">
        <ele>231.6</ele>
        <time>2024-04-07T07:05:03Z</time>
      </trkpt>
      <trkpt lat="44.07643" lon="1.91244">
        <ele>231.8</ele>
        <time>2024-04-07T07:05:04Z</time>
      </trkpt>
      <trkpt lat="44.07646" lon="1.91243">
        <ele>232.4</ele>
        <time>2024-04-07T07:05:05Z</time>
      </trkpt>
      <trkpt lat="44.07648" lon="1.91242">
        <ele>233</ele>
        <time>2024-04-07T07:05:06Z</time>
      </trkpt>
      <trkpt lat="44.07651" lon="1.9124">
        <ele>233.4</ele>
        <time>2024-04-07T07:05:07Z</time>
      </trkpt>
      <trkpt lat="44.07653" lon="1.91238">
        <ele>234</ele>
        <time>2024-04-07T07:05:08Z</time>
      </trkpt>
      <trkpt lat="44.07658" lon="1.91233">
        <ele>234.2</ele>
        <time>2024-04-07T07:05:09Z</time>
      </trkpt>
      <trkpt lat="44.07658" lon="1.91233">
        <ele>234.6</ele>
        <time>2024-04-07T07:05:10Z</time>
      </trkpt>
      <trkpt lat="44.0766" lon="1.9123">
        <ele>234.8</ele>
        <time>2024-04-07T07:05:11Z</time>
      </trkpt>
      <trkpt lat="44.07666" lon="1.91226">
        <ele>235.4</ele>
        <time>2024-04-07T07:05:12Z</time>
      </trkpt>
      <trkpt lat="44.07666" lon="1.91226">
        <ele>235.6</ele>
        <time>2024-04-07T07:05:13Z</time>
      </trkpt>
      <trkpt lat="44.07669" lon="1.91223">
        <ele>236.2</ele>
        <time>2024-04-07T07:05:14Z</time>
      </trkpt>
      <trkpt lat="44.07676" lon="1.91218">
        <ele>237</ele>
        <time>2024-04-07T07:05:15Z</time>
      </trkpt>
      <trkpt lat="44.07679" lon="1.91215">
        <ele>237.2</ele>
        <time>2024-04-07T07:05:16Z</time>
      </trkpt>
      <trkpt lat="44.07681" lon="1.91211">
        <ele>237.6</ele>
        <time>2024-04-07T07:05:17Z</time>
      </trkpt>
      <trkpt lat="44.07681" lon="1.91211">
        <ele>237.6</ele>
        <time>2024-04-07T07:05:18Z</time>
      </trkpt>
      <trkpt lat="44.07684" lon="1.91203">
        <ele>238.2</ele>
        <time>2024-04-07T07:05:19Z</time>
      </trkpt>
      <trkpt lat="44.07686" lon="1.91199">
        <ele>238.4</ele>
        <time>2024-04-07T07:05:20Z</time>
      </trkpt>
      <trkpt lat="44.07688" lon="1.91195">
        <ele>238.6</ele>
        <time>2024-04-07T07:05:21Z</time>
      </trkpt>
      <trkpt lat="44.0769" lon="1.9119">
        <ele>239</ele>
        <time>2024-04-07T07:05:22Z</time>
      </trkpt>
      <trkpt lat="44.07694" lon="1.91185">
        <ele>239.6</ele>
        <time>2024-04-07T07:05:23Z</time>
      </trkpt>
      <trkpt lat="44.07697" lon="1.91181">
        <ele>240</ele>
        <time>2024-04-07T07:05:24Z</time>
      </trkpt>
      <trkpt lat="44.07697" lon="1.91181">
        <ele>240.4</ele>
        <time>2024-04-07T07:05:25Z</time>
      </trkpt>
      <trkpt lat="44.07701" lon="1.91176">
        <ele>241</ele>
        <time>2024-04-07T07:05:26Z</time>
      </trkpt>
      <trkpt lat="44.07709" lon="1.91169">
        <ele>241.2</ele>
        <time>2024-04-07T07:05:27Z</time>
      </trkpt>
      <trkpt lat="44.07712" lon="1.91166">
        <ele>241.6</ele>
        <time>2024-04-07T07:05:28Z</time>
      </trkpt>
      <trkpt lat="44.07712" lon="1.91166">
        <ele>241.8</ele>
        <time>2024-04-07T07:05:29Z</time>
      </trkpt>
      <trkpt lat="44.07716" lon="1.91162">
        <ele>242</ele>
        <time>2024-04-07T07:05:30Z</time>
      </trkpt>
      <trkpt lat="44.0772" lon="1.91156">
        <ele>242.4</ele>
        <time>2024-04-07T07:05:31Z</time>
      </trkpt>
      <trkpt lat="44.0772" lon="1.91156">
        <ele>243</ele>
        <time>2024-04-07T07:05:32Z</time>
      </trkpt>
      <trkpt lat="44.07725" lon="1.91149">
        <ele>243.2</ele>
        <time>2024-04-07T07:05:33Z</time>
      </trkpt>
      <trkpt lat="44.07726" lon="1.91145">
        <ele>243.6</ele>
        <time>2024-04-07T07:05:34Z</time>
      </trkpt>
      <trkpt lat="44.07729" lon="1.91142">
        <ele>244.2</ele>
        <time>2024-04-07T07:05:35Z</time>
      </trkpt>
      <trkpt lat="44.07731" lon="1.91137">
        <ele>244.4</ele>
        <time>2024-04-07T07:05:36Z</time>
      </trkpt>
      <trkpt lat="44.07731" lon="1.91137">
        <ele>244.8</ele>
        <time>2024-04-07T07:05:37Z</time>
      </trkpt>
      <trkpt lat="44.07736" lon="1.91131">
        <ele>245</ele>
        <time>2024-04-07T07:05:38Z</time>
      </trkpt>
      <trkpt lat="44.0774" lon="1.91129">
        <ele>245.2</ele>
        <time>2024-04-07T07:05:39Z</time>
      </trkpt>
      <trkpt lat="44.0774" lon="1.91129">
        <ele>245.6</ele>
        <time>2024-04-07T07:05:40Z</time>
      </trkpt>
      <trkpt lat="44.07743" lon="1.91126">
        <ele>246.2</ele>
        <time>2024-04-07T07:05:41Z</time>
      </trkpt>
      <trkpt lat="44.07747" lon="1.91124">
        <ele>246.6</ele>
        <time>2024-04-07T07:05:42Z</time>
      </trkpt>
      <trkpt lat="44.07749" lon="1.91121">
        <ele>247</ele>
        <time>2024-04-07T07:05:43Z</time>
      </trkpt>
      <trkpt lat="44.07753" lon="1.91118">
        <ele>247.6</ele>
        <time>2024-04-07T07:05:44Z</time>
      </trkpt>
      <trkpt lat="44.07759" lon="1.91112">
        <ele>247.8</ele>
        <time>2024-04-07T07:05:45Z</time>
      </trkpt>
      <trkpt lat="44.07759" lon="1.91112">
        <ele>248.4</ele>
        <time>2024-04-07T07:05:46Z</time>
      </trkpt>
      <trkpt lat="44.07764" lon="1.91108">
        <ele>249</ele>
        <time>2024-04-07T07:05:47Z</time>
      </trkpt>
      <trkpt lat="44.07764" lon="1.91108">
        <ele>249.8</ele>
        <time>2024-04-07T07:05:48Z</time>
      </trkpt>
      <trkpt lat="44.07769" lon="1.91103">
        <ele>250.2</ele>
        <time>2024-04-07T07:05:49Z</time>
      </trkpt>
      <trkpt lat="44.07771" lon="1.911">
        <ele>250.4</ele>
        <time>2024-04-07T07:05:50Z</time>
      </trkpt>
      <trkpt lat="44.07774" lon="1.91097">
        <ele>250.8</ele>
        <time>2024-04-07T07:05:51Z</time>
      </trkpt>
      <trkpt lat="44.07777" lon="1.91095">
        <ele>250.8</ele>
        <time>2024-04-07T07:05:52Z</time>
      </trkpt>
      <trkpt lat="44.07779" lon="1.91093">
        <ele>251.2</ele>
        <time>2024-04-07T07:05:53Z</time>
      </trkpt>
      <trkpt lat="44.07779" lon="1.91093">
        <ele>251.6</ele>
        <time>2024-04-07T07:05:54Z</time>
      </trkpt>
      <trkpt lat="44.07785" lon="1.91087">
        <ele>252.2</ele>
        <time>2024-04-07T07:05:55Z</time>
      </trkpt>
      <trkpt lat="44.07787" lon="1.91085">
        <ele>252.4</ele>
        <time>2024-04-07T07:05:56Z</time>
      </trkpt>
      <trkpt lat="44.0779" lon="1.91082">
        <ele>252.8</ele>
        <time>2024-04-07T07:05:57Z</time>
      </trkpt>
      <trkpt lat="44.07793" lon="1.91079">
        <ele>253.2</ele>
        <time>2024-04-07T07:05:58Z</time>
      </trkpt>
      <trkpt lat="44.07793" lon="1.91079">
        <ele>253.4</ele>
        <time>2024-04-07T07:05:59Z</time>
      </trkpt>
      <trkpt lat="44.07796" lon="1.91076">
        <ele>254</ele>
        <time>2024-04-07T07:06:00Z</time>
      </trkpt>
      <trkpt lat="44.07803" lon="1.91071">
        <ele>254</ele>
        <time>2024-04-07T07:06:01Z</time>
      </trkpt>
      <trkpt lat="44.07806" lon="1.91068">
        <ele>254.6</ele>
        <time>2024-04-07T07:06:02Z</time>
      </trkpt>
      <trkpt lat="44.07806" lon="1.91068">
        <ele>254.8</ele>
        <time>2024-04-07T07:06:03Z</time>
      </trkpt>
      <trkpt lat="44.0781" lon="1.91061">
        <ele>255.2</ele>
        <time>2024-04-07T07:06:04Z</time>
      </trkpt>
      <trkpt lat="44.07813" lon="1.91058">
        <ele>255.4</ele>
        <time>2024-04-07T07:06:05Z</time>
      </trkpt>
      <trkpt lat="44.07815" lon="1.91056">
        <ele>255.8</ele>
        <time>2024-04-07T07:06:06Z</time>
      </trkpt>
      <trkpt lat="44.07818" lon="1.91053">
        <ele>256.4</ele>
        <time>2024-04-07T07:06:07Z</time>
      </trkpt>
      <trkpt lat="44.0782" lon="1.91051">
        <ele>256.4</ele>
        <time>2024-04-07T07:06:08Z</time>
      </trkpt>
      <trkpt lat="44.0782" lon="1.91051">
        <ele>257.2</ele>
        <time>2024-04-07T07:06:09Z</time>
      </trkpt>
      <trkpt lat="44.07825" lon="1.91045">
        <ele>257.6</ele>
        <time>2024-04-07T07:06:10Z</time>
      </trkpt>
      <trkpt lat="44.07828" lon="1.91042">
        <ele>258.2</ele>
        <time>2024-04-07T07:06:11Z</time>
      </trkpt>
      <trkpt lat="44.0783" lon="1.9104">
        <ele>258.4</ele>
        <time>2024-04-07T07:06:12Z</time>
      </trkpt>
      <trkpt lat="44.07832" lon="1.91038">
        <ele>259</ele>
        <time>2024-04-07T07:06:13Z</time>
      </trkpt>
      <trkpt lat="44.07835" lon="1.91035">
        <ele>259.4</ele>
        <time>2024-04-07T07:06:14Z</time>
      </trkpt>
      <trkpt lat="44.07835" lon="1.91035">
        <ele>259.8</ele>
        <time>2024-04-07T07:06:15Z</time>
      </trkpt>
      <trkpt lat="44.07837" lon="1.91033">
        <ele>260.2</ele>
        <time>2024-04-07T07:06:16Z</time>
      </trkpt>
      <trkpt lat="44.07843" lon="1.91027">
        <ele>260.4</ele>
        <time>2024-04-07T07:06:17Z</time>
      </trkpt>
      <trkpt lat="44.07846" lon="1.91024">
        <ele>260.8</ele>
        <time>2024-04-07T07:06:18Z</time>
      </trkpt>
      <trkpt lat="44.07846" lon="1.91024">
        <ele>261</ele>
        <time>2024-04-07T07:06:19Z</time>
      </trkpt>
      <trkpt lat="44.0785" lon="1.91022">
        <ele>261.2</ele>
        <time>2024-04-07T07:06:20Z</time>
      </trkpt>
      <trkpt lat="44.07858" lon="1.91019">
        <ele>261.6</ele>
        <time>2024-04-07T07:06:21Z</time>
      </trkpt>
      <trkpt lat="44.07862" lon="1.91017">
        <ele>262</ele>
        <time>2024-04-07T07:06:22Z</time>
      </trkpt>
      <trkpt lat="44.07867" lon="1.91016">
        <ele>262</ele>
        <time>2024-04-07T07:06:23Z</time>
      </trkpt>
      <trkpt lat="44.0787" lon="1.91014">
        <ele>262.4</ele>
        <time>2024-04-07T07:06:24Z</time>
      </trkpt>
      <trkpt lat="44.0787" lon="1.91014">
        <ele>262.6</ele>
        <time>2024-04-07T07:06:25Z</time>
      </trkpt>
      <trkpt lat="44.07878" lon="1.91011">
        <ele>262.8</ele>
        <time>2024-04-07T07:06:26Z</time>
      </trkpt>
      <trkpt lat="44.07882" lon="1.9101">
        <ele>263.4</ele>
        <time>2024-04-07T07:06:27Z</time>
      </trkpt>
      <trkpt lat="44.07884" lon="1.91009">
        <ele>263.6</ele>
        <time>2024-04-07T07:06:28Z</time>
      </trkpt>
      <trkpt lat="44.07884" lon="1.91009">
        <ele>264</ele>
        <time>2024-04-07T07:06:29Z</time>
      </trkpt>
      <trkpt lat="44.07888" lon="1.91008">
        <ele>264.2</ele>
        <time>2024-04-07T07:06:30Z</time>
      </trkpt>
      <trkpt lat="44.07895" lon="1.91006">
        <ele>264.6</ele>
        <time>2024-04-07T07:06:31Z</time>
      </trkpt>
      <trkpt lat="44.079" lon="1.91003">
        <ele>264.6</ele>
        <time>2024-04-07T07:06:32Z</time>
      </trkpt>
      <trkpt lat="44.07904" lon="1.91">
        <ele>265</ele>
        <time>2024-04-07T07:06:33Z</time>
      </trkpt>
      <trkpt lat="44.07908" lon="1.90997">
        <ele>265.2</ele>
        <time>2024-04-07T07:06:34Z</time>
      </trkpt>
      <trkpt lat="44.07911" lon="1.90994">
        <ele>265.4</ele>
        <time>2024-04-07T07:06:35Z</time>
      </trkpt>
      <trkpt lat="44.07916" lon="1.9099">
        <ele>265.6</ele>
        <time>2024-04-07T07:06:36Z</time>
      </trkpt>
      <trkpt lat="44.07918" lon="1.90986">
        <ele>265.6</ele>
        <time>2024-04-07T07:06:37Z</time>
      </trkpt>
      <trkpt lat="44.07922" lon="1.90982">
        <ele>265.8</ele>
        <time>2024-04-07T07:06:38Z</time>
      </trkpt>
      <trkpt lat="44.07925" lon="1.90978">
        <ele>265.8</ele>
        <time>2024-04-07T07:06:39Z</time>
      </trkpt>
      <trkpt lat="44.07928" lon="1.90975">
        <ele>266</ele>
        <time>2024-04-07T07:06:40Z</time>
      </trkpt>
      <trkpt lat="44.07928" lon="1.90975">
        <ele>266</ele>
        <time>2024-04-07T07:06:41Z</time>
      </trkpt>
      <trkpt lat="44.07933" lon="1.90973">
        <ele>266.2</ele>
        <time>2024-04-07T07:06:42Z</time>
      </trkpt>
      <trkpt lat="44.07942" lon="1.90967">
        <ele>266.2</ele>
        <time>2024-04-07T07:06:43Z</time>
      </trkpt>
      <trkpt lat="44.07942" lon="1.90967">
        <ele>266.2</ele>
        <time>2024-04-07T07:06:44Z</time>
      </trkpt>
      <trkpt lat="44.07948" lon="1.90959">
        <ele>266.4</ele>
        <time>2024-04-07T07:06:45Z</time>
      </trkpt>
      <trkpt lat="44.07953" lon="1.90956">
        <ele>266.6</ele>
        <time>2024-04-07T07:06:46Z</time>
      </trkpt>
      <trkpt lat="44.07957" lon="1.90953">
        <ele>266.8</ele>
        <time>2024-04-07T07:06:47Z</time>
      </trkpt>
      <trkpt lat="44.07961" lon="1.9095">
        <ele>267</ele>
        <time>2024-04-07T07:06:48Z</time>
      </trkpt>
      <trkpt lat="44.07961" lon="1.9095">
        <ele>267.2</ele>
        <time>2024-04-07T07:06:49Z</time>
      </trkpt>
      <trkpt lat="44.07967" lon="1.90945">
        <ele>267.4</ele>
        <time>2024-04-07T07:06:50Z</time>
      </trkpt>
      <trkpt lat="44.07972" lon="1.90942">
        <ele>267.6</ele>
        <time>2024-04-07T07:06:51Z</time>
      </trkpt>
      <trkpt lat="44.07975" lon="1.9094">
        <ele>267.8</ele>
        <time>2024-04-07T07:06:52Z</time>
      </trkpt>
      <trkpt lat="44.07979" lon="1.90939">
        <ele>267.8</ele>
        <time>2024-04-07T07:06:53Z</time>
      </trkpt>
      <trkpt lat="44.07981" lon="1.9094">
        <ele>268</ele>
        <time>2024-04-07T07:06:54Z</time>
      </trkpt>
      <trkpt lat="44.07981" lon="1.9094">
        <ele>268</ele>
        <time>2024-04-07T07:06:55Z</time>
      </trkpt>
      <trkpt lat="44.07983" lon="1.90942">
        <ele>268.2</ele>
        <time>2024-04-07T07:06:56Z</time>
      </trkpt>
      <trkpt lat="44.07986" lon="1.90949">
        <ele>268.4</ele>
        <time>2024-04-07T07:06:57Z</time>
      </trkpt>
      <trkpt lat="44.07986" lon="1.90949">
        <ele>268.8</ele>
        <time>2024-04-07T07:06:58Z</time>
      </trkpt>
      <trkpt lat="44.07987" lon="1.90959">
        <ele>269</ele>
        <time>2024-04-07T07:06:59Z</time>
      </trkpt>
      <trkpt lat="44.07987" lon="1.90964">
        <ele>269.4</ele>
        <time>2024-04-07T07:07:00Z</time>
      </trkpt>
      <trkpt lat="44.07987" lon="1.90964">
        <ele>269.6</ele>
        <time>2024-04-07T07:07:01Z</time>
      </trkpt>
      <trkpt lat="44.07989" lon="1.90973">
        <ele>269.8</ele>
        <time>2024-04-07T07:07:02Z</time>
      </trkpt>
      <trkpt lat="44.0799" lon="1.90978">
        <ele>270</ele>
        <time>2024-04-07T07:07:03Z</time>
      </trkpt>
      <trkpt lat="44.07991" lon="1.90982">
        <ele>270.2</ele>
        <time>2024-04-07T07:07:04Z</time>
      </trkpt>
      <trkpt lat="44.07991" lon="1.90982">
        <ele>270.4</ele>
        <time>2024-04-07T07:07:05Z</time>
      </trkpt>
      <trkpt lat="44.07991" lon="1.90987">
        <ele>270.8</ele>
        <time>2024-04-07T07:07:06Z</time>
      </trkpt>
      <trkpt lat="44.07992" lon="1.90997">
        <ele>271.4</ele>
        <time>2024-04-07T07:07:07Z</time>
      </trkpt>
      <trkpt lat="44.07992" lon="1.90997">
        <ele>271.6</ele>
        <time>2024-04-07T07:07:08Z</time>
      </trkpt>
      <trkpt lat="44.07993" lon="1.91006">
        <ele>272</ele>
        <time>2024-04-07T07:07:09Z</time>
      </trkpt>
      <trkpt lat="44.07993" lon="1.9101">
        <ele>272.4</ele>
        <time>2024-04-07T07:07:10Z</time>
      </trkpt>
      <trkpt lat="44.07994" lon="1.91015">
        <ele>272.6</ele>
        <time>2024-04-07T07:07:11Z</time>
      </trkpt>
      <trkpt lat="44.07994" lon="1.91019">
        <ele>272.8</ele>
        <time>2024-04-07T07:07:12Z</time>
      </trkpt>
      <trkpt lat="44.07994" lon="1.91023">
        <ele>272.8</ele>
        <time>2024-04-07T07:07:13Z</time>
      </trkpt>
      <trkpt lat="44.07995" lon="1.91027">
        <ele>273.8</ele>
        <time>2024-04-07T07:07:14Z</time>
      </trkpt>
      <trkpt lat="44.07995" lon="1.91032">
        <ele>274.2</ele>
        <time>2024-04-07T07:07:15Z</time>
      </trkpt>
      <trkpt lat="44.07995" lon="1.91036">
        <ele>274.6</ele>
        <time>2024-04-07T07:07:16Z</time>
      </trkpt>
      <trkpt lat="44.07995" lon="1.91036">
        <ele>274.8</ele>
        <time>2024-04-07T07:07:17Z</time>
      </trkpt>
      <trkpt lat="44.07997" lon="1.91044">
        <ele>275</ele>
        <time>2024-04-07T07:07:18Z</time>
      </trkpt>
      <trkpt lat="44.07998" lon="1.91049">
        <ele>275.4</ele>
        <time>2024-04-07T07:07:19Z</time>
      </trkpt>
      <trkpt lat="44.07999" lon="1.91055">
        <ele>275.8</ele>
        <time>2024-04-07T07:07:20Z</time>
      </trkpt>
      <trkpt lat="44.07999" lon="1.91058">
        <ele>276</ele>
        <time>2024-04-07T07:07:21Z</time>
      </trkpt>
      <trkpt lat="44.07999" lon="1.91058">
        <ele>276.4</ele>
        <time>2024-04-07T07:07:22Z</time>
      </trkpt>
      <trkpt lat="44.08" lon="1.91067">
        <ele>276.6</ele>
        <time>2024-04-07T07:07:23Z</time>
      </trkpt>
      <trkpt lat="44.08002" lon="1.91072">
        <ele>277</ele>
        <time>2024-04-07T07:07:24Z</time>
      </trkpt>
      <trkpt lat="44.08004" lon="1.91077">
        <ele>277.6</ele>
        <time>2024-04-07T07:07:25Z</time>
      </trkpt>
      <trkpt lat="44.08006" lon="1.91082">
        <ele>278</ele>
        <time>2024-04-07T07:07:26Z</time>
      </trkpt>
      <trkpt lat="44.08006" lon="1.91082">
        <ele>278.2</ele>
        <time>2024-04-07T07:07:27Z</time>
      </trkpt>
      <trkpt lat="44.0801" lon="1.91092">
        <ele>278.6</ele>
        <time>2024-04-07T07:07:28Z</time>
      </trkpt>
      <trkpt lat="44.08012" lon="1.91096">
        <ele>278.8</ele>
        <time>2024-04-07T07:07:29Z</time>
      </trkpt>
      <trkpt lat="44.08014" lon="1.91099">
        <ele>279</ele>
        <time>2024-04-07T07:07:30Z</time>
      </trkpt>
      <trkpt lat="44.08014" lon="1.91099">
        <ele>279.2</ele>
        <time>2024-04-07T07:07:31Z</time>
      </trkpt>
      <trkpt lat="44.08016" lon="1.91104">
        <ele>279.4</ele>
        <time>2024-04-07T07:07:32Z</time>
      </trkpt>
      <trkpt lat="44.08023" lon="1.91111">
        <ele>279.6</ele>
        <time>2024-04-07T07:07:33Z</time>
      </trkpt>
      <trkpt lat="44.08023" lon="1.91111">
        <ele>279.8</ele>
        <time>2024-04-07T07:07:34Z</time>
      </trkpt>
      <trkpt lat="44.0803" lon="1.91115">
        <ele>280</ele>
        <time>2024-04-07T07:07:35Z</time>
      </trkpt>
      <trkpt lat="44.0803" lon="1.91115">
        <ele>280.2</ele>
        <time>2024-04-07T07:07:36Z</time>
      </trkpt>
      <trkpt lat="44.08038" lon="1.91118">
        <ele>280.4</ele>
        <time>2024-04-07T07:07:37Z</time>
      </trkpt>
      <trkpt lat="44.08041" lon="1.91118">
        <ele>280.4</ele>
        <time>2024-04-07T07:07:38Z</time>
      </trkpt>
      <trkpt lat="44.08041" lon="1.91118">
        <ele>280.6</ele>
        <time>2024-04-07T07:07:39Z</time>
      </trkpt>
      <trkpt lat="44.08045" lon="1.91118">
        <ele>280.6</ele>
        <time>2024-04-07T07:07:40Z</time>
      </trkpt>
      <trkpt lat="44.08046" lon="1.91118">
        <ele>280.6</ele>
        <time>2024-04-07T07:07:41Z</time>
      </trkpt>
      <trkpt lat="44.08048" lon="1.91117">
        <ele>280.8</ele>
        <time>2024-04-07T07:07:42Z</time>
      </trkpt>
      <trkpt lat="44.08051" lon="1.91116">
        <ele>281</ele>
        <time>2024-04-07T07:07:43Z</time>
      </trkpt>
      <trkpt lat="44.08055" lon="1.91115">
        <ele>281.2</ele>
        <time>2024-04-07T07:07:44Z</time>
      </trkpt>
      <trkpt lat="44.08059" lon="1.91113">
        <ele>281.4</ele>
        <time>2024-04-07T07:07:45Z</time>
      </trkpt>
      <trkpt lat="44.08063" lon="1.91113">
        <ele>281.8</ele>
        <time>2024-04-07T07:07:46Z</time>
      </trkpt>
      <trkpt lat="44.08068" lon="1.91113">
        <ele>282</ele>
        <time>2024-04-07T07:07:47Z</time>
      </trkpt>
      <trkpt lat="44.08071" lon="1.91111">
        <ele>282.4</ele>
        <time>2024-04-07T07:07:48Z</time>
      </trkpt>
      <trkpt lat="44.08075" lon="1.91109">
        <ele>282.6</ele>
        <time>2024-04-07T07:07:49Z</time>
      </trkpt>
      <trkpt lat="44.08081" lon="1.91108">
        <ele>282.8</ele>
        <time>2024-04-07T07:07:50Z</time>
      </trkpt>
      <trkpt lat="44.08085" lon="1.91105">
        <ele>282.8</ele>
        <time>2024-04-07T07:07:51Z</time>
      </trkpt>
      <trkpt lat="44.08089" lon="1.91103">
        <ele>283</ele>
        <time>2024-04-07T07:07:52Z</time>
      </trkpt>
      <trkpt lat="44.08094" lon="1.91101">
        <ele>283.2</ele>
        <time>2024-04-07T07:07:53Z</time>
      </trkpt>
      <trkpt lat="44.08098" lon="1.91098">
        <ele>283.2</ele>
        <time>2024-04-07T07:07:54Z</time>
      </trkpt>
      <trkpt lat="44.08102" lon="1.91095">
        <ele>283.4</ele>
        <time>2024-04-07T07:07:55Z</time>
      </trkpt>
      <trkpt lat="44.08108" lon="1.91093">
        <ele>283.4</ele>
        <time>2024-04-07T07:07:56Z</time>
      </trkpt>
      <trkpt lat="44.08112" lon="1.91091">
        <ele>283.6</ele>
        <time>2024-04-07T07:07:57Z</time>
      </trkpt>
      <trkpt lat="44.08118" lon="1.9109">
        <ele>283.6</ele>
        <time>2024-04-07T07:07:58Z</time>
      </trkpt>
      <trkpt lat="44.08123" lon="1.91088">
        <ele>283.6</ele>
        <time>2024-04-07T07:07:59Z</time>
      </trkpt>
      <trkpt lat="44.08127" lon="1.91086">
        <ele>283.8</ele>
        <time>2024-04-07T07:08:00Z</time>
      </trkpt>
      <trkpt lat="44.08131" lon="1.91082">
        <ele>283.8</ele>
        <time>2024-04-07T07:08:01Z</time>
      </trkpt>
      <trkpt lat="44.08137" lon="1.91079">
        <ele>284</ele>
        <time>2024-04-07T07:08:02Z</time>
      </trkpt>
      <trkpt lat="44.08142" lon="1.91076">
        <ele>284</ele>
        <time>2024-04-07T07:08:03Z</time>
      </trkpt>
      <trkpt lat="44.08147" lon="1.91073">
        <ele>283.8</ele>
        <time>2024-04-07T07:08:04Z</time>
      </trkpt>
      <trkpt lat="44.08152" lon="1.9107">
        <ele>283.8</ele>
        <time>2024-04-07T07:08:05Z</time>
      </trkpt>
      <trkpt lat="44.08156" lon="1.91066">
        <ele>283.6</ele>
        <time>2024-04-07T07:08:06Z</time>
      </trkpt>
      <trkpt lat="44.08161" lon="1.91063">
        <ele>283.6</ele>
        <time>2024-04-07T07:08:07Z</time>
      </trkpt>
      <trkpt lat="44.08166" lon="1.91059">
        <ele>283.4</ele>
        <time>2024-04-07T07:08:08Z</time>
      </trkpt>
      <trkpt lat="44.08171" lon="1.91056">
        <ele>283.2</ele>
        <time>2024-04-07T07:08:09Z</time>
      </trkpt>
      <trkpt lat="44.08177" lon="1.91052">
        <ele>283</ele>
        <time>2024-04-07T07:08:10Z</time>
      </trkpt>
      <trkpt lat="44.08182" lon="1.91049">
        <ele>282.4</ele>
        <time>2024-04-07T07:08:11Z</time>
      </trkpt>
      <trkpt lat="44.08188" lon="1.91047">
        <ele>282.2</ele>
        <time>2024-04-07T07:08:12Z</time>
      </trkpt>
      <trkpt lat="44.08193" lon="1.91047">
        <ele>282</ele>
        <time>2024-04-07T07:08:13Z</time>
      </trkpt>
      <trkpt lat="44.08197" lon="1.91049">
        <ele>281.8</ele>
        <time>2024-04-07T07:08:14Z</time>
      </trkpt>
      <trkpt lat="44.08199" lon="1.91053">
        <ele>281.6</ele>
        <time>2024-04-07T07:08:15Z</time>
      </trkpt>
      <trkpt lat="44.08201" lon="1.91058">
        <ele>281.6</ele>
        <time>2024-04-07T07:08:16Z</time>
      </trkpt>
      <trkpt lat="44.08202" lon="1.91063">
        <ele>281.6</ele>
        <time>2024-04-07T07:08:17Z</time>
      </trkpt>
      <trkpt lat="44.08203" lon="1.91068">
        <ele>281.6</ele>
        <time>2024-04-07T07:08:18Z</time>
      </trkpt>
      <trkpt lat="44.08202" lon="1.91072">
        <ele>281.4</ele>
        <time>2024-04-07T07:08:19Z</time>
      </trkpt>
      <trkpt lat="44.08201" lon="1.91076">
        <ele>281.4</ele>
        <time>2024-04-07T07:08:20Z</time>
      </trkpt>
      <trkpt lat="44.08202" lon="1.91081">
        <ele>281.4</ele>
        <time>2024-04-07T07:08:21Z</time>
      </trkpt>
      <trkpt lat="44.08203" lon="1.91088">
        <ele>281.4</ele>
        <time>2024-04-07T07:08:22Z</time>
      </trkpt>
      <trkpt lat="44.08203" lon="1.91094">
        <ele>281.4</ele>
        <time>2024-04-07T07:08:23Z</time>
      </trkpt>
      <trkpt lat="44.08204" lon="1.91102">
        <ele>281.6</ele>
        <time>2024-04-07T07:08:24Z</time>
      </trkpt>
      <trkpt lat="44.08204" lon="1.9111">
        <ele>281.6</ele>
        <time>2024-04-07T07:08:25Z</time>
      </trkpt>
      <trkpt lat="44.08204" lon="1.91118">
        <ele>281.8</ele>
        <time>2024-04-07T07:08:26Z</time>
      </trkpt>
      <trkpt lat="44.08204" lon="1.91125">
        <ele>281.8</ele>
        <time>2024-04-07T07:08:27Z</time>
      </trkpt>
      <trkpt lat="44.08204" lon="1.91132">
        <ele>282</ele>
        <time>2024-04-07T07:08:28Z</time>
      </trkpt>
      <trkpt lat="44.08204" lon="1.9114">
        <ele>282.4</ele>
        <time>2024-04-07T07:08:29Z</time>
      </trkpt>
      <trkpt lat="44.08204" lon="1.91147">
        <ele>282.6</ele>
        <time>2024-04-07T07:08:30Z</time>
      </trkpt>
      <trkpt lat="44.08203" lon="1.91154">
        <ele>283</ele>
        <time>2024-04-07T07:08:31Z</time>
      </trkpt>
      <trkpt lat="44.08203" lon="1.9116">
        <ele>283</ele>
        <time>2024-04-07T07:08:32Z</time>
      </trkpt>
      <trkpt lat="44.08203" lon="1.91165">
        <ele>283.4</ele>
        <time>2024-04-07T07:08:33Z</time>
      </trkpt>
      <trkpt lat="44.08204" lon="1.91171">
        <ele>283.6</ele>
        <time>2024-04-07T07:08:34Z</time>
      </trkpt>
      <trkpt lat="44.08204" lon="1.91178">
        <ele>284</ele>
        <time>2024-04-07T07:08:35Z</time>
      </trkpt>
      <trkpt lat="44.08204" lon="1.91184">
        <ele>284.2</ele>
        <time>2024-04-07T07:08:36Z</time>
      </trkpt>
      <trkpt lat="44.08205" lon="1.91192">
        <ele>284.4</ele>
        <time>2024-04-07T07:08:37Z</time>
      </trkpt>
      <trkpt lat="44.08206" lon="1.91197">
        <ele>284.6</ele>
        <time>2024-04-07T07:08:38Z</time>
      </trkpt>
      <trkpt lat="44.08206" lon="1.91204">
        <ele>284.8</ele>
        <time>2024-04-07T07:08:39Z</time>
      </trkpt>
      <trkpt lat="44.08208" lon="1.91211">
        <ele>285</ele>
        <time>2024-04-07T07:08:40Z</time>
      </trkpt>
      <trkpt lat="44.08208" lon="1.91217">
        <ele>285.4</ele>
        <time>2024-04-07T07:08:41Z</time>
      </trkpt>
      <trkpt lat="44.08209" lon="1.91223">
        <ele>286</ele>
        <time>2024-04-07T07:08:42Z</time>
      </trkpt>
      <trkpt lat="44.0821" lon="1.91229">
        <ele>286.2</ele>
        <time>2024-04-07T07:08:43Z</time>
      </trkpt>
      <trkpt lat="44.08211" lon="1.91235">
        <ele>286.4</ele>
        <time>2024-04-07T07:08:44Z</time>
      </trkpt>
      <trkpt lat="44.08212" lon="1.91241">
        <ele>286.8</ele>
        <time>2024-04-07T07:08:45Z</time>
      </trkpt>
      <trkpt lat="44.08214" lon="1.91246">
        <ele>287</ele>
        <time>2024-04-07T07:08:46Z</time>
      </trkpt>
      <trkpt lat="44.08215" lon="1.91252">
        <ele>287.4</ele>
        <time>2024-04-07T07:08:47Z</time>
      </trkpt>
      <trkpt lat="44.08216" lon="1.91258">
        <ele>287.4</ele>
        <time>2024-04-07T07:08:48Z</time>
      </trkpt>
      <trkpt lat="44.08217" lon="1.91264">
        <ele>287.6</ele>
        <time>2024-04-07T07:08:49Z</time>
      </trkpt>
      <trkpt lat="44.08218" lon="1.9127">
        <ele>287.8</ele>
        <time>2024-04-07T07:08:50Z</time>
      </trkpt>
      <trkpt lat="44.08219" lon="1.91276">
        <ele>288.2</ele>
        <time>2024-04-07T07:08:51Z</time>
      </trkpt>
      <trkpt lat="44.0822" lon="1.91282">
        <ele>288.4</ele>
        <time>2024-04-07T07:08:52Z</time>
      </trkpt>
      <trkpt lat="44.08221" lon="1.91287">
        <ele>289.2</ele>
        <time>2024-04-07T07:08:53Z</time>
      </trkpt>
      <trkpt lat="44.08221" lon="1.91293">
        <ele>290</ele>
        <time>2024-04-07T07:08:54Z</time>
      </trkpt>
      <trkpt lat="44.08221" lon="1.91298">
        <ele>290.2</ele>
        <time>2024-04-07T07:08:55Z</time>
      </trkpt>
      <trkpt lat="44.08223" lon="1.91303">
        <ele>290.6</ele>
        <time>2024-04-07T07:08:56Z</time>
      </trkpt>
      <trkpt lat="44.08223" lon="1.91308">
        <ele>290.8</ele>
        <time>2024-04-07T07:08:57Z</time>
      </trkpt>
      <trkpt lat="44.08223" lon="1.91313">
        <ele>291.2</ele>
        <time>2024-04-07T07:08:58Z</time>
      </trkpt>
      <trkpt lat="44.08224" lon="1.91318">
        <ele>291.4</ele>
        <time>2024-04-07T07:08:59Z</time>
      </trkpt>
      <trkpt lat="44.08224" lon="1.91324">
        <ele>291.6</ele>
        <time>2024-04-07T07:09:00Z</time>
      </trkpt>
      <trkpt lat="44.08224" lon="1.91329">
        <ele>291.8</ele>
        <time>2024-04-07T07:09:01Z</time>
      </trkpt>
      <trkpt lat="44.08225" lon="1.91333">
        <ele>292</ele>
        <time>2024-04-07T07:09:02Z</time>
      </trkpt>
      <trkpt lat="44.08225" lon="1.91338">
        <ele>292.8</ele>
        <time>2024-04-07T07:09:03Z</time>
      </trkpt>
      <trkpt lat="44.08226" lon="1.91343">
        <ele>293.2</ele>
        <time>2024-04-07T07:09:04Z</time>
      </trkpt>
      <trkpt lat="44.08225" lon="1.91348">
        <ele>294</ele>
        <time>2024-04-07T07:09:05Z</time>
      </trkpt>
      <trkpt lat="44.08224" lon="1.91353">
        <ele>294.4</ele>
        <time>2024-04-07T07:09:06Z</time>
      </trkpt>
      <trkpt lat="44.08222" lon="1.91358">
        <ele>294.8</ele>
        <time>2024-04-07T07:09:07Z</time>
      </trkpt>
      <trkpt lat="44.0822" lon="1.91365">
        <ele>295</ele>
        <time>2024-04-07T07:09:08Z</time>
      </trkpt>
      <trkpt lat="44.08219" lon="1.91371">
        <ele>295.6</ele>
        <time>2024-04-07T07:09:09Z</time>
      </trkpt>
      <trkpt lat="44.08218" lon="1.91375">
        <ele>296</ele>
        <time>2024-04-07T07:09:10Z</time>
      </trkpt>
      <trkpt lat="44.08216" lon="1.91379">
        <ele>296.4</ele>
        <time>2024-04-07T07:09:11Z</time>
      </trkpt>
      <trkpt lat="44.08216" lon="1.91379">
        <ele>296.6</ele>
        <time>2024-04-07T07:09:12Z</time>
      </trkpt>
      <trkpt lat="44.08213" lon="1.9139">
        <ele>296.8</ele>
        <time>2024-04-07T07:09:13Z</time>
      </trkpt>
      <trkpt lat="44.08212" lon="1.91395">
        <ele>297</ele>
        <time>2024-04-07T07:09:14Z</time>
      </trkpt>
      <trkpt lat="44.08211" lon="1.914">
        <ele>297.2</ele>
        <time>2024-04-07T07:09:15Z</time>
      </trkpt>
      <trkpt lat="44.08212" lon="1.91405">
        <ele>297.6</ele>
        <time>2024-04-07T07:09:16Z</time>
      </trkpt>
      <trkpt lat="44.08212" lon="1.91411">
        <ele>297.8</ele>
        <time>2024-04-07T07:09:17Z</time>
      </trkpt>
      <trkpt lat="44.08213" lon="1.91419">
        <ele>298</ele>
        <time>2024-04-07T07:09:18Z</time>
      </trkpt>
      <trkpt lat="44.08213" lon="1.91425">
        <ele>298</ele>
        <time>2024-04-07T07:09:19Z</time>
      </trkpt>
      <trkpt lat="44.08215" lon="1.9143">
        <ele>298.2</ele>
        <time>2024-04-07T07:09:20Z</time>
      </trkpt>
      <trkpt lat="44.08215" lon="1.91434">
        <ele>298.8</ele>
        <time>2024-04-07T07:09:21Z</time>
      </trkpt>
      <trkpt lat="44.08216" lon="1.91438">
        <ele>299</ele>
        <time>2024-04-07T07:09:22Z</time>
      </trkpt>
      <trkpt lat="44.08218" lon="1.91442">
        <ele>299.4</ele>
        <time>2024-04-07T07:09:23Z</time>
      </trkpt>
      <trkpt lat="44.0822" lon="1.91446">
        <ele>299.6</ele>
        <time>2024-04-07T07:09:24Z</time>
      </trkpt>
      <trkpt lat="44.08225" lon="1.9145">
        <ele>300.2</ele>
        <time>2024-04-07T07:09:25Z</time>
      </trkpt>
      <trkpt lat="44.08229" lon="1.91453">
        <ele>300.4</ele>
        <time>2024-04-07T07:09:26Z</time>
      </trkpt>
      <trkpt lat="44.08233" lon="1.91456">
        <ele>300.6</ele>
        <time>2024-04-07T07:09:27Z</time>
      </trkpt>
      <trkpt lat="44.08237" lon="1.9146">
        <ele>300.8</ele>
        <time>2024-04-07T07:09:28Z</time>
      </trkpt>
      <trkpt lat="44.0824" lon="1.91463">
        <ele>301</ele>
        <time>2024-04-07T07:09:29Z</time>
      </trkpt>
      <trkpt lat="44.08244" lon="1.91466">
        <ele>301</ele>
        <time>2024-04-07T07:09:30Z</time>
      </trkpt>
      <trkpt lat="44.08248" lon="1.91468">
        <ele>301.2</ele>
        <time>2024-04-07T07:09:31Z</time>
      </trkpt>
      <trkpt lat="44.08251" lon="1.91471">
        <ele>301.4</ele>
        <time>2024-04-07T07:09:32Z</time>
      </trkpt>
      <trkpt lat="44.08254" lon="1.91474">
        <ele>301.6</ele>
        <time>2024-04-07T07:09:33Z</time>
      </trkpt>
      <trkpt lat="44.08257" lon="1.91477">
        <ele>302</ele>
        <time>2024-04-07T07:09:34Z</time>
      </trkpt>
      <trkpt lat="44.08259" lon="1.91481">
        <ele>302</ele>
        <time>2024-04-07T07:09:35Z</time>
      </trkpt>
      <trkpt lat="44.08258" lon="1.91485">
        <ele>302.2</ele>
        <time>2024-04-07T07:09:36Z</time>
      </trkpt>
      <trkpt lat="44.08258" lon="1.9149">
        <ele>302.4</ele>
        <time>2024-04-07T07:09:37Z</time>
      </trkpt>
      <trkpt lat="44.08257" lon="1.91494">
        <ele>302.6</ele>
        <time>2024-04-07T07:09:38Z</time>
      </trkpt>
      <trkpt lat="44.08257" lon="1.91499">
        <ele>303</ele>
        <time>2024-04-07T07:09:39Z</time>
      </trkpt>
      <trkpt lat="44.08257" lon="1.91504">
        <ele>303.2</ele>
        <time>2024-04-07T07:09:40Z</time>
      </trkpt>
      <trkpt lat="44.08257" lon="1.9151">
        <ele>303.4</ele>
        <time>2024-04-07T07:09:41Z</time>
      </trkpt>
      <trkpt lat="44.08258" lon="1.91516">
        <ele>303.6</ele>
        <time>2024-04-07T07:09:42Z</time>
      </trkpt>
      <trkpt lat="44.08258" lon="1.91521">
        <ele>303.8</ele>
        <time>2024-04-07T07:09:43Z</time>
      </trkpt>
      <trkpt lat="44.08258" lon="1.91526">
        <ele>304</ele>
        <time>2024-04-07T07:09:44Z</time>
      </trkpt>
      <trkpt lat="44.08257" lon="1.9153">
        <ele>304.2</ele>
        <time>2024-04-07T07:09:45Z</time>
      </trkpt>
      <trkpt lat="44.08257" lon="1.91536">
        <ele>304.4</ele>
        <time>2024-04-07T07:09:46Z</time>
      </trkpt>
      <trkpt lat="44.08258" lon="1.91541">
        <ele>304.6</ele>
        <time>2024-04-07T07:09:47Z</time>
      </trkpt>
      <trkpt lat="44.08259" lon="1.91547">
        <ele>304.8</ele>
        <time>2024-04-07T07:09:48Z</time>
      </trkpt>
      <trkpt lat="44.0826" lon="1.91553">
        <ele>305</ele>
        <time>2024-04-07T07:09:49Z</time>
      </trkpt>
      <trkpt lat="44.08261" lon="1.91559">
        <ele>305.2</ele>
        <time>2024-04-07T07:09:50Z</time>
      </trkpt>
      <trkpt lat="44.08262" lon="1.91565">
        <ele>305.2</ele>
        <time>2024-04-07T07:09:51Z</time>
      </trkpt>
      <trkpt lat="44.08263" lon="1.91571">
        <ele>305.4</ele>
        <time>2024-04-07T07:09:52Z</time>
      </trkpt>
      <trkpt lat="44.08265" lon="1.91577">
        <ele>305.4</ele>
        <time>2024-04-07T07:09:53Z</time>
      </trkpt>
      <trkpt lat="44.08267" lon="1.91582">
        <ele>305.4</ele>
        <time>2024-04-07T07:09:54Z</time>
      </trkpt>
      <trkpt lat="44.0827" lon="1.91586">
        <ele>305.6</ele>
        <time>2024-04-07T07:09:55Z</time>
      </trkpt>
      <trkpt lat="44.08275" lon="1.91588">
        <ele>305.6</ele>
        <time>2024-04-07T07:09:56Z</time>
      </trkpt>
      <trkpt lat="44.0828" lon="1.91589">
        <ele>305.6</ele>
        <time>2024-04-07T07:09:57Z</time>
      </trkpt>
      <trkpt lat="44.08285" lon="1.91587">
        <ele>305.6</ele>
        <time>2024-04-07T07:09:58Z</time>
      </trkpt>
      <trkpt lat="44.0829" lon="1.91586">
        <ele>305.6</ele>
        <time>2024-04-07T07:09:59Z</time>
      </trkpt>
      <trkpt lat="44.08295" lon="1.91584">
        <ele>305.6</ele>
        <time>2024-04-07T07:10:00Z</time>
      </trkpt>
      <trkpt lat="44.08299" lon="1.91582">
        <ele>305.6</ele>
        <time>2024-04-07T07:10:01Z</time>
      </trkpt>
      <trkpt lat="44.08304" lon="1.91581">
        <ele>305.6</ele>
        <time>2024-04-07T07:10:02Z</time>
      </trkpt>
      <trkpt lat="44.08309" lon="1.91579">
        <ele>305.6</ele>
        <time>2024-04-07T07:10:03Z</time>
      </trkpt>
      <trkpt lat="44.08315" lon="1.91578">
        <ele>305.6</ele>
        <time>2024-04-07T07:10:04Z</time>
      </trkpt>
      <trkpt lat="44.08321" lon="1.91576">
        <ele>305.6</ele>
        <time>2024-04-07T07:10:05Z</time>
      </trkpt>
      <trkpt lat="44.08327" lon="1.91575">
        <ele>305.6</ele>
        <time>2024-04-07T07:10:06Z</time>
      </trkpt>
      <trkpt lat="44.08333" lon="1.91573">
        <ele>305.6</ele>
        <time>2024-04-07T07:10:07Z</time>
      </trkpt>
      <trkpt lat="44.08339" lon="1.91572">
        <ele>305.6</ele>
        <time>2024-04-07T07:10:08Z</time>
      </trkpt>
      <trkpt lat="44.08345" lon="1.9157">
        <ele>305.6</ele>
        <time>2024-04-07T07:10:09Z</time>
      </trkpt>
      <trkpt lat="44.08351" lon="1.91568">
        <ele>305.6</ele>
        <time>2024-04-07T07:10:10Z</time>
      </trkpt>
      <trkpt lat="44.08357" lon="1.91566">
        <ele>305.6</ele>
        <time>2024-04-07T07:10:11Z</time>
      </trkpt>
      <trkpt lat="44.08363" lon="1.91565">
        <ele>305.4</ele>
        <time>2024-04-07T07:10:12Z</time>
      </trkpt>
      <trkpt lat="44.0837" lon="1.91564">
        <ele>305.4</ele>
        <time>2024-04-07T07:10:13Z</time>
      </trkpt>
      <trkpt lat="44.08376" lon="1.91562">
        <ele>305.4</ele>
        <time>2024-04-07T07:10:14Z</time>
      </trkpt>
      <trkpt lat="44.08382" lon="1.91561">
        <ele>305.4</ele>
        <time>2024-04-07T07:10:15Z</time>
      </trkpt>
      <trkpt lat="44.08388" lon="1.9156">
        <ele>305.4</ele>
        <time>2024-04-07T07:10:16Z</time>
      </trkpt>
      <trkpt lat="44.08394" lon="1.91559">
        <ele>305.4</ele>
        <time>2024-04-07T07:10:17Z</time>
      </trkpt>
      <trkpt lat="44.08401" lon="1.91557">
        <ele>305.4</ele>
        <time>2024-04-07T07:10:18Z</time>
      </trkpt>
      <trkpt lat="44.08407" lon="1.91556">
        <ele>305.2</ele>
        <time>2024-04-07T07:10:19Z</time>
      </trkpt>
      <trkpt lat="44.08413" lon="1.91555">
        <ele>305.2</ele>
        <time>2024-04-07T07:10:20Z</time>
      </trkpt>
      <trkpt lat="44.0842" lon="1.91553">
        <ele>305.2</ele>
        <time>2024-04-07T07:10:21Z</time>
      </trkpt>
      <trkpt lat="44.08427" lon="1.91552">
        <ele>305.2</ele>
        <time>2024-04-07T07:10:22Z</time>
      </trkpt>
      <trkpt lat="44.08433" lon="1.91552">
        <ele>305.2</ele>
        <time>2024-04-07T07:10:23Z</time>
      </trkpt>
      <trkpt lat="44.0844" lon="1.91551">
        <ele>305.2</ele>
        <time>2024-04-07T07:10:24Z</time>
      </trkpt>
      <trkpt lat="44.08447" lon="1.91551">
        <ele>305.2</ele>
        <time>2024-04-07T07:10:25Z</time>
      </trkpt>
      <trkpt lat="44.08453" lon="1.91551">
        <ele>305.2</ele>
        <time>2024-04-07T07:10:26Z</time>
      </trkpt>
      <trkpt lat="44.08459" lon="1.91551">
        <ele>305.2</ele>
        <time>2024-04-07T07:10:27Z</time>
      </trkpt>
      <trkpt lat="44.08472" lon="1.9155">
        <ele>305</ele>
        <time>2024-04-07T07:10:29Z</time>
      </trkpt>
      <trkpt lat="44.08477" lon="1.91549">
        <ele>305</ele>
        <time>2024-04-07T07:10:30Z</time>
      </trkpt>
      <trkpt lat="44.08483" lon="1.91548">
        <ele>305</ele>
        <time>2024-04-07T07:10:31Z</time>
      </trkpt>
      <trkpt lat="44.08489" lon="1.91547">
        <ele>305</ele>
        <time>2024-04-07T07:10:32Z</time>
      </trkpt>
      <trkpt lat="44.08494" lon="1.91546">
        <ele>305</ele>
        <time>2024-04-07T07:10:33Z</time>
      </trkpt>
      <trkpt lat="44.085" lon="1.91544">
        <ele>305</ele>
        <time>2024-04-07T07:10:34Z</time>
      </trkpt>
      <trkpt lat="44.08506" lon="1.91543">
        <ele>305.2</ele>
        <time>2024-04-07T07:10:35Z</time>
      </trkpt>
      <trkpt lat="44.08511" lon="1.91541">
        <ele>305.2</ele>
        <time>2024-04-07T07:10:36Z</time>
      </trkpt>
      <trkpt lat="44.08517" lon="1.9154">
        <ele>305.4</ele>
        <time>2024-04-07T07:10:37Z</time>
      </trkpt>
      <trkpt lat="44.08522" lon="1.91538">
        <ele>305.4</ele>
        <time>2024-04-07T07:10:38Z</time>
      </trkpt>
      <trkpt lat="44.08528" lon="1.91536">
        <ele>305.6</ele>
        <time>2024-04-07T07:10:39Z</time>
      </trkpt>
      <trkpt lat="44.08533" lon="1.91534">
        <ele>305.6</ele>
        <time>2024-04-07T07:10:40Z</time>
      </trkpt>
      <trkpt lat="44.08538" lon="1.91533">
        <ele>305.8</ele>
        <time>2024-04-07T07:10:41Z</time>
      </trkpt>
      <trkpt lat="44.08543" lon="1.91531">
        <ele>305.8</ele>
        <time>2024-04-07T07:10:42Z</time>
      </trkpt>
      <trkpt lat="44.08548" lon="1.91529">
        <ele>306</ele>
        <time>2024-04-07T07:10:43Z</time>
      </trkpt>
      <trkpt lat="44.08553" lon="1.91528">
        <ele>306.2</ele>
        <time>2024-04-07T07:10:44Z</time>
      </trkpt>
      <trkpt lat="44.08558" lon="1.91527">
        <ele>306.2</ele>
        <time>2024-04-07T07:10:45Z</time>
      </trkpt>
      <trkpt lat="44.08563" lon="1.91526">
        <ele>306.6</ele>
        <time>2024-04-07T07:10:46Z</time>
      </trkpt>
      <trkpt lat="44.08568" lon="1.91525">
        <ele>306.6</ele>
        <time>2024-04-07T07:10:47Z</time>
      </trkpt>
      <trkpt lat="44.08574" lon="1.91523">
        <ele>306.8</ele>
        <time>2024-04-07T07:10:48Z</time>
      </trkpt>
      <trkpt lat="44.08578" lon="1.91522">
        <ele>307</ele>
        <time>2024-04-07T07:10:49Z</time>
      </trkpt>
      <trkpt lat="44.08584" lon="1.91521">
        <ele>307</ele>
        <time>2024-04-07T07:10:50Z</time>
      </trkpt>
      <trkpt lat="44.08589" lon="1.9152">
        <ele>307</ele>
        <time>2024-04-07T07:10:51Z</time>
      </trkpt>
      <trkpt lat="44.08595" lon="1.91519">
        <ele>307</ele>
        <time>2024-04-07T07:10:52Z</time>
      </trkpt>
      <trkpt lat="44.086" lon="1.91518">
        <ele>307.2</ele>
        <time>2024-04-07T07:10:53Z</time>
      </trkpt>
      <trkpt lat="44.08605" lon="1.91516">
        <ele>307.2</ele>
        <time>2024-04-07T07:10:54Z</time>
      </trkpt>
      <trkpt lat="44.0861" lon="1.91515">
        <ele>307.2</ele>
        <time>2024-04-07T07:10:55Z</time>
      </trkpt>
      <trkpt lat="44.08616" lon="1.91513">
        <ele>307.2</ele>
        <time>2024-04-07T07:10:56Z</time>
      </trkpt>
      <trkpt lat="44.08621" lon="1.91512">
        <ele>307.2</ele>
        <time>2024-04-07T07:10:57Z</time>
      </trkpt>
      <trkpt lat="44.08626" lon="1.9151">
        <ele>307.2</ele>
        <time>2024-04-07T07:10:58Z</time>
      </trkpt>
      <trkpt lat="44.08632" lon="1.91508">
        <ele>307.2</ele>
        <time>2024-04-07T07:10:59Z</time>
      </trkpt>
      <trkpt lat="44.08637" lon="1.91508">
        <ele>307.4</ele>
        <time>2024-04-07T07:11:00Z</time>
      </trkpt>
      <trkpt lat="44.08642" lon="1.9151">
        <ele>307.4</ele>
        <time>2024-04-07T07:11:01Z</time>
      </trkpt>
      <trkpt lat="44.08647" lon="1.91513">
        <ele>307.4</ele>
        <time>2024-04-07T07:11:02Z</time>
      </trkpt>
      <trkpt lat="44.08652" lon="1.91517">
        <ele>307.4</ele>
        <time>2024-04-07T07:11:03Z</time>
      </trkpt>
      <trkpt lat="44.08657" lon="1.91522">
        <ele>307.4</ele>
        <time>2024-04-07T07:11:04Z</time>
      </trkpt>
      <trkpt lat="44.08662" lon="1.91528">
        <ele>307.4</ele>
        <time>2024-04-07T07:11:05Z</time>
      </trkpt>
      <trkpt lat="44.08666" lon="1.91534">
        <ele>306.8</ele>
        <time>2024-04-07T07:11:06Z</time>
      </trkpt>
      <trkpt lat="44.08669" lon="1.91541">
        <ele>306.6</ele>
        <time>2024-04-07T07:11:07Z</time>
      </trkpt>
      <trkpt lat="44.08672" lon="1.91549">
        <ele>306.2</ele>
        <time>2024-04-07T07:11:08Z</time>
      </trkpt>
      <trkpt lat="44.08674" lon="1.91557">
        <ele>305</ele>
        <time>2024-04-07T07:11:09Z</time>
      </trkpt>
      <trkpt lat="44.08677" lon="1.91564">
        <ele>304.4</ele>
        <time>2024-04-07T07:11:10Z</time>
      </trkpt>
      <trkpt lat="44.08681" lon="1.91568">
        <ele>303</ele>
        <time>2024-04-07T07:11:11Z</time>
      </trkpt>
      <trkpt lat="44.08686" lon="1.9157">
        <ele>302.4</ele>
        <time>2024-04-07T07:11:12Z</time>
      </trkpt>
      <trkpt lat="44.08693" lon="1.91572">
        <ele>301.6</ele>
        <time>2024-04-07T07:11:13Z</time>
      </trkpt>
      <trkpt lat="44.087" lon="1.91573">
        <ele>301.4</ele>
        <time>2024-04-07T07:11:14Z</time>
      </trkpt>
      <trkpt lat="44.08707" lon="1.91574">
        <ele>301</ele>
        <time>2024-04-07T07:11:15Z</time>
      </trkpt>
      <trkpt lat="44.08714" lon="1.91576">
        <ele>300.8</ele>
        <time>2024-04-07T07:11:16Z</time>
      </trkpt>
      <trkpt lat="44.08721" lon="1.91578">
        <ele>300.4</ele>
        <time>2024-04-07T07:11:17Z</time>
      </trkpt>
      <trkpt lat="44.08728" lon="1.91581">
        <ele>300</ele>
        <time>2024-04-07T07:11:18Z</time>
      </trkpt>
      <trkpt lat="44.08735" lon="1.91583">
        <ele>300</ele>
        <time>2024-04-07T07:11:19Z</time>
      </trkpt>
      <trkpt lat="44.08742" lon="1.91586">
        <ele>299.8</ele>
        <time>2024-04-07T07:11:20Z</time>
      </trkpt>
      <trkpt lat="44.08748" lon="1.91587">
        <ele>299.8</ele>
        <time>2024-04-07T07:11:21Z</time>
      </trkpt>
      <trkpt lat="44.08755" lon="1.9159">
        <ele>299.6</ele>
        <time>2024-04-07T07:11:22Z</time>
      </trkpt>
      <trkpt lat="44.08761" lon="1.91592">
        <ele>299.4</ele>
        <time>2024-04-07T07:11:23Z</time>
      </trkpt>
      <trkpt lat="44.08766" lon="1.91594">
        <ele>299.2</ele>
        <time>2024-04-07T07:11:24Z</time>
      </trkpt>
      <trkpt lat="44.08772" lon="1.91596">
        <ele>299.2</ele>
        <time>2024-04-07T07:11:25Z</time>
      </trkpt>
      <trkpt lat="44.08777" lon="1.91597">
        <ele>299</ele>
        <time>2024-04-07T07:11:26Z</time>
      </trkpt>
      <trkpt lat="44.08781" lon="1.91598">
        <ele>299</ele>
        <time>2024-04-07T07:11:27Z</time>
      </trkpt>
      <trkpt lat="44.08783" lon="1.91599">
        <ele>299</ele>
        <time>2024-04-07T07:11:28Z</time>
      </trkpt>
      <trkpt lat="44.08786" lon="1.91599">
        <ele>298.8</ele>
        <time>2024-04-07T07:11:29Z</time>
      </trkpt>
      <trkpt lat="44.08788" lon="1.91598">
        <ele>298.8</ele>
        <time>2024-04-07T07:11:30Z</time>
      </trkpt>
      <trkpt lat="44.08788" lon="1.91598">
        <ele>298.8</ele>
        <time>2024-04-07T07:11:31Z</time>
      </trkpt>
      <trkpt lat="44.08794" lon="1.91597">
        <ele>298.8</ele>
        <time>2024-04-07T07:11:32Z</time>
      </trkpt>
      <trkpt lat="44.08799" lon="1.91597">
        <ele>298.8</ele>
        <time>2024-04-07T07:11:33Z</time>
      </trkpt>
      <trkpt lat="44.08808" lon="1.91597">
        <ele>298.8</ele>
        <time>2024-04-07T07:11:34Z</time>
      </trkpt>
      <trkpt lat="44.08808" lon="1.91597">
        <ele>298.8</ele>
        <time>2024-04-07T07:11:35Z</time>
      </trkpt>
      <trkpt lat="44.08813" lon="1.91598">
        <ele>299</ele>
        <time>2024-04-07T07:11:36Z</time>
      </trkpt>
      <trkpt lat="44.08818" lon="1.91598">
        <ele>299</ele>
        <time>2024-04-07T07:11:37Z</time>
      </trkpt>
      <trkpt lat="44.08823" lon="1.916">
        <ele>299</ele>
        <time>2024-04-07T07:11:38Z</time>
      </trkpt>
      <trkpt lat="44.08833" lon="1.91606">
        <ele>299.2</ele>
        <time>2024-04-07T07:11:39Z</time>
      </trkpt>
      <trkpt lat="44.08833" lon="1.91606">
        <ele>299.4</ele>
        <time>2024-04-07T07:11:40Z</time>
      </trkpt>
      <trkpt lat="44.08838" lon="1.91612">
        <ele>299.4</ele>
        <time>2024-04-07T07:11:41Z</time>
      </trkpt>
      <trkpt lat="44.08841" lon="1.91617">
        <ele>299.6</ele>
        <time>2024-04-07T07:11:42Z</time>
      </trkpt>
      <trkpt lat="44.08845" lon="1.91622">
        <ele>299.6</ele>
        <time>2024-04-07T07:11:43Z</time>
      </trkpt>
      <trkpt lat="44.08848" lon="1.91628">
        <ele>299.8</ele>
        <time>2024-04-07T07:11:44Z</time>
      </trkpt>
      <trkpt lat="44.08852" lon="1.91633">
        <ele>300.4</ele>
        <time>2024-04-07T07:11:45Z</time>
      </trkpt>
      <trkpt lat="44.08855" lon="1.91638">
        <ele>300.4</ele>
        <time>2024-04-07T07:11:46Z</time>
      </trkpt>
      <trkpt lat="44.08857" lon="1.91643">
        <ele>300.8</ele>
        <time>2024-04-07T07:11:47Z</time>
      </trkpt>
      <trkpt lat="44.0886" lon="1.91649">
        <ele>301</ele>
        <time>2024-04-07T07:11:48Z</time>
      </trkpt>
      <trkpt lat="44.08862" lon="1.91654">
        <ele>301.6</ele>
        <time>2024-04-07T07:11:49Z</time>
      </trkpt>
      <trkpt lat="44.08864" lon="1.91658">
        <ele>301.8</ele>
        <time>2024-04-07T07:11:50Z</time>
      </trkpt>
      <trkpt lat="44.08866" lon="1.91662">
        <ele>302.4</ele>
        <time>2024-04-07T07:11:51Z</time>
      </trkpt>
      <trkpt lat="44.08868" lon="1.91665">
        <ele>302.6</ele>
        <time>2024-04-07T07:11:52Z</time>
      </trkpt>
      <trkpt lat="44.08871" lon="1.91669">
        <ele>303.2</ele>
        <time>2024-04-07T07:11:53Z</time>
      </trkpt>
      <trkpt lat="44.08872" lon="1.91672">
        <ele>303.6</ele>
        <time>2024-04-07T07:11:54Z</time>
      </trkpt>
      <trkpt lat="44.08876" lon="1.9168">
        <ele>303.8</ele>
        <time>2024-04-07T07:11:55Z</time>
      </trkpt>
      <trkpt lat="44.08876" lon="1.9168">
        <ele>304.2</ele>
        <time>2024-04-07T07:11:56Z</time>
      </trkpt>
      <trkpt lat="44.08878" lon="1.91683">
        <ele>304.4</ele>
        <time>2024-04-07T07:11:57Z</time>
      </trkpt>
      <trkpt lat="44.08881" lon="1.91687">
        <ele>304.8</ele>
        <time>2024-04-07T07:11:58Z</time>
      </trkpt>
      <trkpt lat="44.08883" lon="1.91691">
        <ele>305</ele>
        <time>2024-04-07T07:11:59Z</time>
      </trkpt>
      <trkpt lat="44.08884" lon="1.91693">
        <ele>305.4</ele>
        <time>2024-04-07T07:12:00Z</time>
      </trkpt>
      <trkpt lat="44.08885" lon="1.91696">
        <ele>305.6</ele>
        <time>2024-04-07T07:12:01Z</time>
      </trkpt>
      <trkpt lat="44.08886" lon="1.91698">
        <ele>306.2</ele>
        <time>2024-04-07T07:12:02Z</time>
      </trkpt>
      <trkpt lat="44.08887" lon="1.917">
        <ele>306.4</ele>
        <time>2024-04-07T07:12:03Z</time>
      </trkpt>
      <trkpt lat="44.08888" lon="1.91702">
        <ele>306.6</ele>
        <time>2024-04-07T07:12:04Z</time>
      </trkpt>
      <trkpt lat="44.08889" lon="1.91705">
        <ele>307</ele>
        <time>2024-04-07T07:12:05Z</time>
      </trkpt>
      <trkpt lat="44.08891" lon="1.91707">
        <ele>307.2</ele>
        <time>2024-04-07T07:12:06Z</time>
      </trkpt>
      <trkpt lat="44.08892" lon="1.91709">
        <ele>307.6</ele>
        <time>2024-04-07T07:12:07Z</time>
      </trkpt>
      <trkpt lat="44.08894" lon="1.91711">
        <ele>307.8</ele>
        <time>2024-04-07T07:12:08Z</time>
      </trkpt>
      <trkpt lat="44.08896" lon="1.91714">
        <ele>308.2</ele>
        <time>2024-04-07T07:12:09Z</time>
      </trkpt>
      <trkpt lat="44.08898" lon="1.91717">
        <ele>308.2</ele>
        <time>2024-04-07T07:12:10Z</time>
      </trkpt>
      <trkpt lat="44.08901" lon="1.91723">
        <ele>308.6</ele>
        <time>2024-04-07T07:12:11Z</time>
      </trkpt>
      <trkpt lat="44.08901" lon="1.91723">
        <ele>308.8</ele>
        <time>2024-04-07T07:12:12Z</time>
      </trkpt>
      <trkpt lat="44.08902" lon="1.91726">
        <ele>309.2</ele>
        <time>2024-04-07T07:12:13Z</time>
      </trkpt>
      <trkpt lat="44.08904" lon="1.91728">
        <ele>309.4</ele>
        <time>2024-04-07T07:12:14Z</time>
      </trkpt>
      <trkpt lat="44.08907" lon="1.91734">
        <ele>309.4</ele>
        <time>2024-04-07T07:12:15Z</time>
      </trkpt>
      <trkpt lat="44.08907" lon="1.91734">
        <ele>309.8</ele>
        <time>2024-04-07T07:12:16Z</time>
      </trkpt>
      <trkpt lat="44.08909" lon="1.91737">
        <ele>309.8</ele>
        <time>2024-04-07T07:12:17Z</time>
      </trkpt>
      <trkpt lat="44.08911" lon="1.91741">
        <ele>310</ele>
        <time>2024-04-07T07:12:18Z</time>
      </trkpt>
      <trkpt lat="44.08913" lon="1.91745">
        <ele>310</ele>
        <time>2024-04-07T07:12:19Z</time>
      </trkpt>
      <trkpt lat="44.08915" lon="1.9175">
        <ele>310.2</ele>
        <time>2024-04-07T07:12:20Z</time>
      </trkpt>
      <trkpt lat="44.08922" lon="1.91761">
        <ele>310.4</ele>
        <time>2024-04-07T07:12:21Z</time>
      </trkpt>
      <trkpt lat="44.08922" lon="1.91761">
        <ele>310.6</ele>
        <time>2024-04-07T07:12:22Z</time>
      </trkpt>
      <trkpt lat="44.08927" lon="1.91768">
        <ele>310.8</ele>
        <time>2024-04-07T07:12:23Z</time>
      </trkpt>
      <trkpt lat="44.08928" lon="1.91771">
        <ele>311</ele>
        <time>2024-04-07T07:12:24Z</time>
      </trkpt>
      <trkpt lat="44.08929" lon="1.91775">
        <ele>311.2</ele>
        <time>2024-04-07T07:12:25Z</time>
      </trkpt>
      <trkpt lat="44.0893" lon="1.91777">
        <ele>311.4</ele>
        <time>2024-04-07T07:12:26Z</time>
      </trkpt>
      <trkpt lat="44.08931" lon="1.9178">
        <ele>312</ele>
        <time>2024-04-07T07:12:27Z</time>
      </trkpt>
      <trkpt lat="44.08933" lon="1.91782">
        <ele>312.2</ele>
        <time>2024-04-07T07:12:28Z</time>
      </trkpt>
      <trkpt lat="44.08935" lon="1.91786">
        <ele>312.4</ele>
        <time>2024-04-07T07:12:29Z</time>
      </trkpt>
      <trkpt lat="44.08937" lon="1.91789">
        <ele>312.6</ele>
        <time>2024-04-07T07:12:30Z</time>
      </trkpt>
      <trkpt lat="44.08938" lon="1.91791">
        <ele>312.6</ele>
        <time>2024-04-07T07:12:31Z</time>
      </trkpt>
      <trkpt lat="44.0894" lon="1.91794">
        <ele>312.8</ele>
        <time>2024-04-07T07:12:32Z</time>
      </trkpt>
      <trkpt lat="44.08941" lon="1.91796">
        <ele>313</ele>
        <time>2024-04-07T07:12:33Z</time>
      </trkpt>
      <trkpt lat="44.08943" lon="1.91798">
        <ele>313.2</ele>
        <time>2024-04-07T07:12:34Z</time>
      </trkpt>
      <trkpt lat="44.08945" lon="1.91801">
        <ele>313.2</ele>
        <time>2024-04-07T07:12:35Z</time>
      </trkpt>
      <trkpt lat="44.08946" lon="1.91803">
        <ele>313.4</ele>
        <time>2024-04-07T07:12:36Z</time>
      </trkpt>
      <trkpt lat="44.08947" lon="1.91806">
        <ele>313.6</ele>
        <time>2024-04-07T07:12:37Z</time>
      </trkpt>
      <trkpt lat="44.08949" lon="1.91809">
        <ele>313.8</ele>
        <time>2024-04-07T07:12:38Z</time>
      </trkpt>
      <trkpt lat="44.0895" lon="1.91811">
        <ele>313.8</ele>
        <time>2024-04-07T07:12:39Z</time>
      </trkpt>
      <trkpt lat="44.08952" lon="1.91814">
        <ele>314</ele>
        <time>2024-04-07T07:12:40Z</time>
      </trkpt>
      <trkpt lat="44.08953" lon="1.91817">
        <ele>314.2</ele>
        <time>2024-04-07T07:12:41Z</time>
      </trkpt>
      <trkpt lat="44.08957" lon="1.91823">
        <ele>314.2</ele>
        <time>2024-04-07T07:12:42Z</time>
      </trkpt>
      <trkpt lat="44.08957" lon="1.91823">
        <ele>314.4</ele>
        <time>2024-04-07T07:12:43Z</time>
      </trkpt>
      <trkpt lat="44.08959" lon="1.91826">
        <ele>314.4</ele>
        <time>2024-04-07T07:12:44Z</time>
      </trkpt>
      <trkpt lat="44.08961" lon="1.91829">
        <ele>314.6</ele>
        <time>2024-04-07T07:12:45Z</time>
      </trkpt>
      <trkpt lat="44.08963" lon="1.91831">
        <ele>314.6</ele>
        <time>2024-04-07T07:12:46Z</time>
      </trkpt>
      <trkpt lat="44.08965" lon="1.91834">
        <ele>314.8</ele>
        <time>2024-04-07T07:12:47Z</time>
      </trkpt>
      <trkpt lat="44.08967" lon="1.91836">
        <ele>315.2</ele>
        <time>2024-04-07T07:12:48Z</time>
      </trkpt>
      <trkpt lat="44.08969" lon="1.91838">
        <ele>315.2</ele>
        <time>2024-04-07T07:12:49Z</time>
      </trkpt>
      <trkpt lat="44.0897" lon="1.9184">
        <ele>315.2</ele>
        <time>2024-04-07T07:12:50Z</time>
      </trkpt>
      <trkpt lat="44.08972" lon="1.91841">
        <ele>315.4</ele>
        <time>2024-04-07T07:12:51Z</time>
      </trkpt>
      <trkpt lat="44.08973" lon="1.91843">
        <ele>315.4</ele>
        <time>2024-04-07T07:12:52Z</time>
      </trkpt>
      <trkpt lat="44.08974" lon="1.91845">
        <ele>315.6</ele>
        <time>2024-04-07T07:12:53Z</time>
      </trkpt>
      <trkpt lat="44.08976" lon="1.91848">
        <ele>315.6</ele>
        <time>2024-04-07T07:12:54Z</time>
      </trkpt>
      <trkpt lat="44.08977" lon="1.9185">
        <ele>315.6</ele>
        <time>2024-04-07T07:12:55Z</time>
      </trkpt>
      <trkpt lat="44.08978" lon="1.91852">
        <ele>315.6</ele>
        <time>2024-04-07T07:12:56Z</time>
      </trkpt>
      <trkpt lat="44.0898" lon="1.91854">
        <ele>315.8</ele>
        <time>2024-04-07T07:12:57Z</time>
      </trkpt>
      <trkpt lat="44.08983" lon="1.91856">
        <ele>315.8</ele>
        <time>2024-04-07T07:12:58Z</time>
      </trkpt>
      <trkpt lat="44.08985" lon="1.91858">
        <ele>316</ele>
        <time>2024-04-07T07:12:59Z</time>
      </trkpt>
      <trkpt lat="44.08988" lon="1.91859">
        <ele>316</ele>
        <time>2024-04-07T07:13:00Z</time>
      </trkpt>
      <trkpt lat="44.0899" lon="1.91861">
        <ele>316</ele>
        <time>2024-04-07T07:13:01Z</time>
      </trkpt>
      <trkpt lat="44.08992" lon="1.91863">
        <ele>316</ele>
        <time>2024-04-07T07:13:02Z</time>
      </trkpt>
      <trkpt lat="44.08994" lon="1.91864">
        <ele>316</ele>
        <time>2024-04-07T07:13:03Z</time>
      </trkpt>
      <trkpt lat="44.08999" lon="1.91868">
        <ele>316</ele>
        <time>2024-04-07T07:13:04Z</time>
      </trkpt>
      <trkpt lat="44.08999" lon="1.91868">
        <ele>316</ele>
        <time>2024-04-07T07:13:05Z</time>
      </trkpt>
      <trkpt lat="44.09001" lon="1.9187">
        <ele>316</ele>
        <time>2024-04-07T07:13:06Z</time>
      </trkpt>
      <trkpt lat="44.09006" lon="1.91873">
        <ele>316</ele>
        <time>2024-04-07T07:13:07Z</time>
      </trkpt>
      <trkpt lat="44.09006" lon="1.91873">
        <ele>316.2</ele>
        <time>2024-04-07T07:13:08Z</time>
      </trkpt>
      <trkpt lat="44.09008" lon="1.91875">
        <ele>316.2</ele>
        <time>2024-04-07T07:13:09Z</time>
      </trkpt>
      <trkpt lat="44.0901" lon="1.91877">
        <ele>316.2</ele>
        <time>2024-04-07T07:13:10Z</time>
      </trkpt>
      <trkpt lat="44.09013" lon="1.91879">
        <ele>316.2</ele>
        <time>2024-04-07T07:13:11Z</time>
      </trkpt>
      <trkpt lat="44.09015" lon="1.91881">
        <ele>316.4</ele>
        <time>2024-04-07T07:13:12Z</time>
      </trkpt>
      <trkpt lat="44.09018" lon="1.91884">
        <ele>316.6</ele>
        <time>2024-04-07T07:13:13Z</time>
      </trkpt>
      <trkpt lat="44.09021" lon="1.91886">
        <ele>316.6</ele>
        <time>2024-04-07T07:13:14Z</time>
      </trkpt>
      <trkpt lat="44.09023" lon="1.91888">
        <ele>316.8</ele>
        <time>2024-04-07T07:13:15Z</time>
      </trkpt>
      <trkpt lat="44.09025" lon="1.9189">
        <ele>316.8</ele>
        <time>2024-04-07T07:13:16Z</time>
      </trkpt>
      <trkpt lat="44.09028" lon="1.91892">
        <ele>317</ele>
        <time>2024-04-07T07:13:17Z</time>
      </trkpt>
      <trkpt lat="44.0903" lon="1.91894">
        <ele>317</ele>
        <time>2024-04-07T07:13:18Z</time>
      </trkpt>
      <trkpt lat="44.09032" lon="1.91895">
        <ele>317</ele>
        <time>2024-04-07T07:13:19Z</time>
      </trkpt>
      <trkpt lat="44.09035" lon="1.91897">
        <ele>317.2</ele>
        <time>2024-04-07T07:13:20Z</time>
      </trkpt>
      <trkpt lat="44.09037" lon="1.91898">
        <ele>317.2</ele>
        <time>2024-04-07T07:13:21Z</time>
      </trkpt>
      <trkpt lat="44.09039" lon="1.91899">
        <ele>317.2</ele>
        <time>2024-04-07T07:13:22Z</time>
      </trkpt>
      <trkpt lat="44.09041" lon="1.919">
        <ele>317.4</ele>
        <time>2024-04-07T07:13:23Z</time>
      </trkpt>
      <trkpt lat="44.09042" lon="1.91899">
        <ele>317.6</ele>
        <time>2024-04-07T07:13:24Z</time>
      </trkpt>
      <trkpt lat="44.09043" lon="1.91897">
        <ele>317.6</ele>
        <time>2024-04-07T07:13:25Z</time>
      </trkpt>
      <trkpt lat="44.09043" lon="1.91895">
        <ele>317.6</ele>
        <time>2024-04-07T07:13:26Z</time>
      </trkpt>
      <trkpt lat="44.09044" lon="1.91891">
        <ele>317.6</ele>
        <time>2024-04-07T07:13:27Z</time>
      </trkpt>
      <trkpt lat="44.09044" lon="1.91885">
        <ele>317.6</ele>
        <time>2024-04-07T07:13:28Z</time>
      </trkpt>
      <trkpt lat="44.09043" lon="1.91878">
        <ele>317.6</ele>
        <time>2024-04-07T07:13:29Z</time>
      </trkpt>
      <trkpt lat="44.09042" lon="1.9187">
        <ele>317.6</ele>
        <time>2024-04-07T07:13:30Z</time>
      </trkpt>
      <trkpt lat="44.09042" lon="1.91861">
        <ele>317.6</ele>
        <time>2024-04-07T07:13:31Z</time>
      </trkpt>
      <trkpt lat="44.09041" lon="1.91852">
        <ele>317.6</ele>
        <time>2024-04-07T07:13:32Z</time>
      </trkpt>
      <trkpt lat="44.0904" lon="1.91841">
        <ele>317.4</ele>
        <time>2024-04-07T07:13:33Z</time>
      </trkpt>
      <trkpt lat="44.09039" lon="1.9183">
        <ele>317.4</ele>
        <time>2024-04-07T07:13:34Z</time>
      </trkpt>
      <trkpt lat="44.09037" lon="1.91818">
        <ele>317.2</ele>
        <time>2024-04-07T07:13:35Z</time>
      </trkpt>
      <trkpt lat="44.09036" lon="1.91806">
        <ele>317.2</ele>
        <time>2024-04-07T07:13:36Z</time>
      </trkpt>
      <trkpt lat="44.09036" lon="1.91806">
        <ele>317</ele>
        <time>2024-04-07T07:13:37Z</time>
      </trkpt>
      <trkpt lat="44.09033" lon="1.91783">
        <ele>317</ele>
        <time>2024-04-07T07:13:38Z</time>
      </trkpt>
      <trkpt lat="44.09031" lon="1.9177">
        <ele>316.6</ele>
        <time>2024-04-07T07:13:39Z</time>
      </trkpt>
      <trkpt lat="44.09028" lon="1.91757">
        <ele>316.4</ele>
        <time>2024-04-07T07:13:40Z</time>
      </trkpt>
      <trkpt lat="44.09026" lon="1.91745">
        <ele>316</ele>
        <time>2024-04-07T07:13:41Z</time>
      </trkpt>
      <trkpt lat="44.09023" lon="1.91734">
        <ele>315.8</ele>
        <time>2024-04-07T07:13:42Z</time>
      </trkpt>
      <trkpt lat="44.09021" lon="1.91725">
        <ele>315.4</ele>
        <time>2024-04-07T07:13:43Z</time>
      </trkpt>
      <trkpt lat="44.09019" lon="1.91717">
        <ele>315</ele>
        <time>2024-04-07T07:13:44Z</time>
      </trkpt>
      <trkpt lat="44.09017" lon="1.91709">
        <ele>314.8</ele>
        <time>2024-04-07T07:13:45Z</time>
      </trkpt>
      <trkpt lat="44.09015" lon="1.91701">
        <ele>314.4</ele>
        <time>2024-04-07T07:13:46Z</time>
      </trkpt>
      <trkpt lat="44.09014" lon="1.91694">
        <ele>314</ele>
        <time>2024-04-07T07:13:47Z</time>
      </trkpt>
      <trkpt lat="44.09013" lon="1.91687">
        <ele>313.4</ele>
        <time>2024-04-07T07:13:48Z</time>
      </trkpt>
      <trkpt lat="44.09012" lon="1.91679">
        <ele>313.2</ele>
        <time>2024-04-07T07:13:49Z</time>
      </trkpt>
      <trkpt lat="44.0901" lon="1.9167">
        <ele>313</ele>
        <time>2024-04-07T07:13:50Z</time>
      </trkpt>
      <trkpt lat="44.09009" lon="1.91661">
        <ele>312.8</ele>
        <time>2024-04-07T07:13:51Z</time>
      </trkpt>
      <trkpt lat="44.09007" lon="1.91652">
        <ele>312.6</ele>
        <time>2024-04-07T07:13:52Z</time>
      </trkpt>
      <trkpt lat="44.09004" lon="1.91642">
        <ele>312.2</ele>
        <time>2024-04-07T07:13:53Z</time>
      </trkpt>
      <trkpt lat="44.09002" lon="1.91632">
        <ele>312.2</ele>
        <time>2024-04-07T07:13:54Z</time>
      </trkpt>
      <trkpt lat="44.08999" lon="1.91622">
        <ele>312</ele>
        <time>2024-04-07T07:13:55Z</time>
      </trkpt>
      <trkpt lat="44.08996" lon="1.91611">
        <ele>312</ele>
        <time>2024-04-07T07:13:56Z</time>
      </trkpt>
      <trkpt lat="44.08994" lon="1.91599">
        <ele>311.6</ele>
        <time>2024-04-07T07:13:57Z</time>
      </trkpt>
      <trkpt lat="44.08992" lon="1.91589">
        <ele>311.4</ele>
        <time>2024-04-07T07:13:58Z</time>
      </trkpt>
      <trkpt lat="44.08991" lon="1.91579">
        <ele>311</ele>
        <time>2024-04-07T07:13:59Z</time>
      </trkpt>
      <trkpt lat="44.08989" lon="1.91567">
        <ele>310.6</ele>
        <time>2024-04-07T07:14:00Z</time>
      </trkpt>
      <trkpt lat="44.08987" lon="1.91556">
        <ele>310.6</ele>
        <time>2024-04-07T07:14:01Z</time>
      </trkpt>
      <trkpt lat="44.08985" lon="1.91546">
        <ele>310.4</ele>
        <time>2024-04-07T07:14:02Z</time>
      </trkpt>
      <trkpt lat="44.08982" lon="1.91538">
        <ele>310.2</ele>
        <time>2024-04-07T07:14:03Z</time>
      </trkpt>
      <trkpt lat="44.0898" lon="1.9153">
        <ele>309.6</ele>
        <time>2024-04-07T07:14:04Z</time>
      </trkpt>
      <trkpt lat="44.0898" lon="1.91523">
        <ele>309.2</ele>
        <time>2024-04-07T07:14:05Z</time>
      </trkpt>
      <trkpt lat="44.08982" lon="1.91518">
        <ele>308.8</ele>
        <time>2024-04-07T07:14:06Z</time>
      </trkpt>
      <trkpt lat="44.08987" lon="1.91514">
        <ele>308.6</ele>
        <time>2024-04-07T07:14:07Z</time>
      </trkpt>
      <trkpt lat="44.08992" lon="1.91512">
        <ele>308.6</ele>
        <time>2024-04-07T07:14:08Z</time>
      </trkpt>
      <trkpt lat="44.08998" lon="1.9151">
        <ele>308.4</ele>
        <time>2024-04-07T07:14:09Z</time>
      </trkpt>
      <trkpt lat="44.09005" lon="1.91508">
        <ele>308.2</ele>
        <time>2024-04-07T07:14:10Z</time>
      </trkpt>
      <trkpt lat="44.09012" lon="1.91505">
        <ele>308</ele>
        <time>2024-04-07T07:14:11Z</time>
      </trkpt>
      <trkpt lat="44.09019" lon="1.91503">
        <ele>307.8</ele>
        <time>2024-04-07T07:14:12Z</time>
      </trkpt>
      <trkpt lat="44.09027" lon="1.91501">
        <ele>307.6</ele>
        <time>2024-04-07T07:14:13Z</time>
      </trkpt>
      <trkpt lat="44.09035" lon="1.91497">
        <ele>307.4</ele>
        <time>2024-04-07T07:14:14Z</time>
      </trkpt>
      <trkpt lat="44.09044" lon="1.91493">
        <ele>306.6</ele>
        <time>2024-04-07T07:14:15Z</time>
      </trkpt>
      <trkpt lat="44.09052" lon="1.91488">
        <ele>306.4</ele>
        <time>2024-04-07T07:14:16Z</time>
      </trkpt>
      <trkpt lat="44.09061" lon="1.91484">
        <ele>305.6</ele>
        <time>2024-04-07T07:14:17Z</time>
      </trkpt>
      <trkpt lat="44.09068" lon="1.91482">
        <ele>304.6</ele>
        <time>2024-04-07T07:14:18Z</time>
      </trkpt>
      <trkpt lat="44.09075" lon="1.91483">
        <ele>304.2</ele>
        <time>2024-04-07T07:14:19Z</time>
      </trkpt>
      <trkpt lat="44.0908" lon="1.91486">
        <ele>303.4</ele>
        <time>2024-04-07T07:14:20Z</time>
      </trkpt>
      <trkpt lat="44.09083" lon="1.91493">
        <ele>303</ele>
        <time>2024-04-07T07:14:21Z</time>
      </trkpt>
      <trkpt lat="44.09086" lon="1.91503">
        <ele>302.6</ele>
        <time>2024-04-07T07:14:22Z</time>
      </trkpt>
      <trkpt lat="44.09089" lon="1.91514">
        <ele>301.8</ele>
        <time>2024-04-07T07:14:23Z</time>
      </trkpt>
      <trkpt lat="44.09092" lon="1.91525">
        <ele>300</ele>
        <time>2024-04-07T07:14:24Z</time>
      </trkpt>
      <trkpt lat="44.09096" lon="1.91538">
        <ele>299.4</ele>
        <time>2024-04-07T07:14:25Z</time>
      </trkpt>
      <trkpt lat="44.091" lon="1.9155">
        <ele>298.6</ele>
        <time>2024-04-07T07:14:26Z</time>
      </trkpt>
      <trkpt lat="44.09111" lon="1.91575">
        <ele>298.2</ele>
        <time>2024-04-07T07:14:27Z</time>
      </trkpt>
      <trkpt lat="44.09111" lon="1.91575">
        <ele>297.6</ele>
        <time>2024-04-07T07:14:28Z</time>
      </trkpt>
      <trkpt lat="44.09118" lon="1.91586">
        <ele>296.8</ele>
        <time>2024-04-07T07:14:29Z</time>
      </trkpt>
      <trkpt lat="44.09135" lon="1.91601">
        <ele>296.4</ele>
        <time>2024-04-07T07:14:30Z</time>
      </trkpt>
      <trkpt lat="44.09144" lon="1.91604">
        <ele>294.6</ele>
        <time>2024-04-07T07:14:31Z</time>
      </trkpt>
      <trkpt lat="44.09152" lon="1.91606">
        <ele>293.8</ele>
        <time>2024-04-07T07:14:32Z</time>
      </trkpt>
      <trkpt lat="44.09159" lon="1.91604">
        <ele>293</ele>
        <time>2024-04-07T07:14:33Z</time>
      </trkpt>
      <trkpt lat="44.09162" lon="1.916">
        <ele>291.8</ele>
        <time>2024-04-07T07:14:34Z</time>
      </trkpt>
      <trkpt lat="44.09162" lon="1.916">
        <ele>290.2</ele>
        <time>2024-04-07T07:14:35Z</time>
      </trkpt>
      <trkpt lat="44.09163" lon="1.91583">
        <ele>288.8</ele>
        <time>2024-04-07T07:14:36Z</time>
      </trkpt>
      <trkpt lat="44.09163" lon="1.91583">
        <ele>288.4</ele>
        <time>2024-04-07T07:14:37Z</time>
      </trkpt>
      <trkpt lat="44.09164" lon="1.9156">
        <ele>287.4</ele>
        <time>2024-04-07T07:14:38Z</time>
      </trkpt>
      <trkpt lat="44.09165" lon="1.91546">
        <ele>287</ele>
        <time>2024-04-07T07:14:39Z</time>
      </trkpt>
      <trkpt lat="44.09166" lon="1.91531">
        <ele>285.8</ele>
        <time>2024-04-07T07:14:40Z</time>
      </trkpt>
      <trkpt lat="44.09167" lon="1.91516">
        <ele>285.2</ele>
        <time>2024-04-07T07:14:41Z</time>
      </trkpt>
      <trkpt lat="44.09169" lon="1.915">
        <ele>283.6</ele>
        <time>2024-04-07T07:14:42Z</time>
      </trkpt>
      <trkpt lat="44.09172" lon="1.91487">
        <ele>282.8</ele>
        <time>2024-04-07T07:14:43Z</time>
      </trkpt>
      <trkpt lat="44.09176" lon="1.91476">
        <ele>281.8</ele>
        <time>2024-04-07T07:14:44Z</time>
      </trkpt>
      <trkpt lat="44.09181" lon="1.9147">
        <ele>279.2</ele>
        <time>2024-04-07T07:14:45Z</time>
      </trkpt>
      <trkpt lat="44.09187" lon="1.91462">
        <ele>278</ele>
        <time>2024-04-07T07:14:46Z</time>
      </trkpt>
      <trkpt lat="44.09195" lon="1.91454">
        <ele>276.6</ele>
        <time>2024-04-07T07:14:47Z</time>
      </trkpt>
      <trkpt lat="44.09204" lon="1.91446">
        <ele>275.8</ele>
        <time>2024-04-07T07:14:48Z</time>
      </trkpt>
      <trkpt lat="44.09212" lon="1.91437">
        <ele>274.8</ele>
        <time>2024-04-07T07:14:49Z</time>
      </trkpt>
      <trkpt lat="44.09221" lon="1.91428">
        <ele>274.4</ele>
        <time>2024-04-07T07:14:50Z</time>
      </trkpt>
      <trkpt lat="44.0923" lon="1.91419">
        <ele>273.4</ele>
        <time>2024-04-07T07:14:51Z</time>
      </trkpt>
      <trkpt lat="44.0924" lon="1.9141">
        <ele>271.6</ele>
        <time>2024-04-07T07:14:52Z</time>
      </trkpt>
      <trkpt lat="44.09251" lon="1.91398">
        <ele>269.6</ele>
        <time>2024-04-07T07:14:53Z</time>
      </trkpt>
      <trkpt lat="44.0926" lon="1.91389">
        <ele>268</ele>
        <time>2024-04-07T07:14:54Z</time>
      </trkpt>
      <trkpt lat="44.0926" lon="1.91389">
        <ele>266.6</ele>
        <time>2024-04-07T07:14:55Z</time>
      </trkpt>
      <trkpt lat="44.09276" lon="1.9137">
        <ele>264.6</ele>
        <time>2024-04-07T07:14:56Z</time>
      </trkpt>
      <trkpt lat="44.09285" lon="1.9136">
        <ele>263.6</ele>
        <time>2024-04-07T07:14:57Z</time>
      </trkpt>
      <trkpt lat="44.09295" lon="1.91351">
        <ele>262.4</ele>
        <time>2024-04-07T07:14:58Z</time>
      </trkpt>
      <trkpt lat="44.09305" lon="1.91343">
        <ele>261.6</ele>
        <time>2024-04-07T07:14:59Z</time>
      </trkpt>
      <trkpt lat="44.09305" lon="1.91343">
        <ele>260</ele>
        <time>2024-04-07T07:15:00Z</time>
      </trkpt>
      <trkpt lat="44.09316" lon="1.91336">
        <ele>259</ele>
        <time>2024-04-07T07:15:01Z</time>
      </trkpt>
      <trkpt lat="44.09338" lon="1.91328">
        <ele>257.4</ele>
        <time>2024-04-07T07:15:02Z</time>
      </trkpt>
      <trkpt lat="44.09349" lon="1.91327">
        <ele>255.8</ele>
        <time>2024-04-07T07:15:03Z</time>
      </trkpt>
      <trkpt lat="44.0936" lon="1.91325">
        <ele>255.2</ele>
        <time>2024-04-07T07:15:04Z</time>
      </trkpt>
      <trkpt lat="44.09371" lon="1.91322">
        <ele>254.4</ele>
        <time>2024-04-07T07:15:05Z</time>
      </trkpt>
      <trkpt lat="44.09382" lon="1.91319">
        <ele>253.8</ele>
        <time>2024-04-07T07:15:06Z</time>
      </trkpt>
      <trkpt lat="44.09392" lon="1.91317">
        <ele>252.6</ele>
        <time>2024-04-07T07:15:07Z</time>
      </trkpt>
      <trkpt lat="44.09403" lon="1.91313">
        <ele>252</ele>
        <time>2024-04-07T07:15:08Z</time>
      </trkpt>
      <trkpt lat="44.09413" lon="1.91308">
        <ele>251.2</ele>
        <time>2024-04-07T07:15:09Z</time>
      </trkpt>
      <trkpt lat="44.09413" lon="1.91308">
        <ele>250.8</ele>
        <time>2024-04-07T07:15:10Z</time>
      </trkpt>
      <trkpt lat="44.09431" lon="1.91296">
        <ele>249.6</ele>
        <time>2024-04-07T07:15:11Z</time>
      </trkpt>
      <trkpt lat="44.09431" lon="1.91296">
        <ele>248.6</ele>
        <time>2024-04-07T07:15:12Z</time>
      </trkpt>
      <trkpt lat="44.09451" lon="1.91286">
        <ele>248.2</ele>
        <time>2024-04-07T07:15:13Z</time>
      </trkpt>
      <trkpt lat="44.09461" lon="1.91281">
        <ele>247.4</ele>
        <time>2024-04-07T07:15:14Z</time>
      </trkpt>
      <trkpt lat="44.09471" lon="1.91277">
        <ele>247</ele>
        <time>2024-04-07T07:15:15Z</time>
      </trkpt>
      <trkpt lat="44.0948" lon="1.91271">
        <ele>246.4</ele>
        <time>2024-04-07T07:15:16Z</time>
      </trkpt>
      <trkpt lat="44.0949" lon="1.91267">
        <ele>246.2</ele>
        <time>2024-04-07T07:15:17Z</time>
      </trkpt>
      <trkpt lat="44.095" lon="1.91263">
        <ele>245.2</ele>
        <time>2024-04-07T07:15:18Z</time>
      </trkpt>
      <trkpt lat="44.0951" lon="1.91261">
        <ele>244.8</ele>
        <time>2024-04-07T07:15:19Z</time>
      </trkpt>
      <trkpt lat="44.0952" lon="1.91259">
        <ele>244</ele>
        <time>2024-04-07T07:15:20Z</time>
      </trkpt>
      <trkpt lat="44.09532" lon="1.91258">
        <ele>243.4</ele>
        <time>2024-04-07T07:15:21Z</time>
      </trkpt>
      <trkpt lat="44.09539" lon="1.91257">
        <ele>242.8</ele>
        <time>2024-04-07T07:15:22Z</time>
      </trkpt>
      <trkpt lat="44.09549" lon="1.91256">
        <ele>241.2</ele>
        <time>2024-04-07T07:15:23Z</time>
      </trkpt>
      <trkpt lat="44.0956" lon="1.91257">
        <ele>240.6</ele>
        <time>2024-04-07T07:15:24Z</time>
      </trkpt>
      <trkpt lat="44.0957" lon="1.91257">
        <ele>240</ele>
        <time>2024-04-07T07:15:25Z</time>
      </trkpt>
      <trkpt lat="44.09581" lon="1.91258">
        <ele>239.4</ele>
        <time>2024-04-07T07:15:26Z</time>
      </trkpt>
      <trkpt lat="44.09592" lon="1.91258">
        <ele>238.4</ele>
        <time>2024-04-07T07:15:27Z</time>
      </trkpt>
      <trkpt lat="44.09602" lon="1.91257">
        <ele>238</ele>
        <time>2024-04-07T07:15:28Z</time>
      </trkpt>
      <trkpt lat="44.09614" lon="1.91255">
        <ele>237.2</ele>
        <time>2024-04-07T07:15:29Z</time>
      </trkpt>
      <trkpt lat="44.09623" lon="1.91251">
        <ele>235.2</ele>
        <time>2024-04-07T07:15:30Z</time>
      </trkpt>
      <trkpt lat="44.09632" lon="1.91248">
        <ele>234.6</ele>
        <time>2024-04-07T07:15:31Z</time>
      </trkpt>
      <trkpt lat="44.09639" lon="1.91246">
        <ele>233.6</ele>
        <time>2024-04-07T07:15:32Z</time>
      </trkpt>
      <trkpt lat="44.09648" lon="1.91243">
        <ele>233.2</ele>
        <time>2024-04-07T07:15:33Z</time>
      </trkpt>
      <trkpt lat="44.09657" lon="1.91241">
        <ele>232.6</ele>
        <time>2024-04-07T07:15:34Z</time>
      </trkpt>
      <trkpt lat="44.09669" lon="1.91239">
        <ele>232</ele>
        <time>2024-04-07T07:15:35Z</time>
      </trkpt>
      <trkpt lat="44.09677" lon="1.91237">
        <ele>230.8</ele>
        <time>2024-04-07T07:15:36Z</time>
      </trkpt>
      <trkpt lat="44.09687" lon="1.91235">
        <ele>230.4</ele>
        <time>2024-04-07T07:15:37Z</time>
      </trkpt>
      <trkpt lat="44.09697" lon="1.91234">
        <ele>229.8</ele>
        <time>2024-04-07T07:15:38Z</time>
      </trkpt>
      <trkpt lat="44.09707" lon="1.91232">
        <ele>229</ele>
        <time>2024-04-07T07:15:39Z</time>
      </trkpt>
      <trkpt lat="44.09717" lon="1.91229">
        <ele>228.6</ele>
        <time>2024-04-07T07:15:40Z</time>
      </trkpt>
      <trkpt lat="44.09717" lon="1.91229">
        <ele>227.6</ele>
        <time>2024-04-07T07:15:41Z</time>
      </trkpt>
      <trkpt lat="44.09737" lon="1.91223">
        <ele>227</ele>
        <time>2024-04-07T07:15:42Z</time>
      </trkpt>
      <trkpt lat="44.09748" lon="1.9122">
        <ele>225.8</ele>
        <time>2024-04-07T07:15:43Z</time>
      </trkpt>
      <trkpt lat="44.09759" lon="1.91217">
        <ele>225</ele>
        <time>2024-04-07T07:15:44Z</time>
      </trkpt>
      <trkpt lat="44.09768" lon="1.91214">
        <ele>224</ele>
        <time>2024-04-07T07:15:45Z</time>
      </trkpt>
      <trkpt lat="44.09777" lon="1.91209">
        <ele>223.8</ele>
        <time>2024-04-07T07:15:46Z</time>
      </trkpt>
      <trkpt lat="44.09777" lon="1.91209">
        <ele>222.8</ele>
        <time>2024-04-07T07:15:47Z</time>
      </trkpt>
      <trkpt lat="44.09783" lon="1.91206">
        <ele>220.8</ele>
        <time>2024-04-07T07:15:48Z</time>
      </trkpt>
      <trkpt lat="44.09797" lon="1.91197">
        <ele>220</ele>
        <time>2024-04-07T07:15:49Z</time>
      </trkpt>
      <trkpt lat="44.09803" lon="1.91193">
        <ele>218.6</ele>
        <time>2024-04-07T07:15:50Z</time>
      </trkpt>
      <trkpt lat="44.09809" lon="1.91187">
        <ele>218</ele>
        <time>2024-04-07T07:15:51Z</time>
      </trkpt>
      <trkpt lat="44.09812" lon="1.91184">
        <ele>217.6</ele>
        <time>2024-04-07T07:15:52Z</time>
      </trkpt>
      <trkpt lat="44.09812" lon="1.91184">
        <ele>217.2</ele>
        <time>2024-04-07T07:15:53Z</time>
      </trkpt>
      <trkpt lat="44.09818" lon="1.91179">
        <ele>216.2</ele>
        <time>2024-04-07T07:15:54Z</time>
      </trkpt>
      <trkpt lat="44.09819" lon="1.91177">
        <ele>215.8</ele>
        <time>2024-04-07T07:15:55Z</time>
      </trkpt>
      <trkpt lat="44.09821" lon="1.91174">
        <ele>214.8</ele>
        <time>2024-04-07T07:15:56Z</time>
      </trkpt>
      <trkpt lat="44.09824" lon="1.91174">
        <ele>213.8</ele>
        <time>2024-04-07T07:15:57Z</time>
      </trkpt>
      <trkpt lat="44.09826" lon="1.91174">
        <ele>213.4</ele>
        <time>2024-04-07T07:15:58Z</time>
      </trkpt>
      <trkpt lat="44.09828" lon="1.91178">
        <ele>212.8</ele>
        <time>2024-04-07T07:15:59Z</time>
      </trkpt>
      <trkpt lat="44.09828" lon="1.91178">
        <ele>212.6</ele>
        <time>2024-04-07T07:16:00Z</time>
      </trkpt>
      <trkpt lat="44.09838" lon="1.91189">
        <ele>212</ele>
        <time>2024-04-07T07:16:01Z</time>
      </trkpt>
      <trkpt lat="44.09838" lon="1.91189">
        <ele>211.8</ele>
        <time>2024-04-07T07:16:02Z</time>
      </trkpt>
      <trkpt lat="44.0985" lon="1.91199">
        <ele>211.4</ele>
        <time>2024-04-07T07:16:03Z</time>
      </trkpt>
      <trkpt lat="44.09858" lon="1.912">
        <ele>211.2</ele>
        <time>2024-04-07T07:16:04Z</time>
      </trkpt>
      <trkpt lat="44.09864" lon="1.91202">
        <ele>210.6</ele>
        <time>2024-04-07T07:16:05Z</time>
      </trkpt>
      <trkpt lat="44.0987" lon="1.91203">
        <ele>209.8</ele>
        <time>2024-04-07T07:16:06Z</time>
      </trkpt>
      <trkpt lat="44.09874" lon="1.91204">
        <ele>209.2</ele>
        <time>2024-04-07T07:16:07Z</time>
      </trkpt>
      <trkpt lat="44.09877" lon="1.91202">
        <ele>208.6</ele>
        <time>2024-04-07T07:16:08Z</time>
      </trkpt>
      <trkpt lat="44.0988" lon="1.91201">
        <ele>208.2</ele>
        <time>2024-04-07T07:16:09Z</time>
      </trkpt>
      <trkpt lat="44.09883" lon="1.912">
        <ele>207.8</ele>
        <time>2024-04-07T07:16:10Z</time>
      </trkpt>
      <trkpt lat="44.09885" lon="1.91198">
        <ele>207.6</ele>
        <time>2024-04-07T07:16:11Z</time>
      </trkpt>
      <trkpt lat="44.09888" lon="1.91198">
        <ele>207.2</ele>
        <time>2024-04-07T07:16:12Z</time>
      </trkpt>
      <trkpt lat="44.0989" lon="1.91198">
        <ele>207</ele>
        <time>2024-04-07T07:16:13Z</time>
      </trkpt>
      <trkpt lat="44.09892" lon="1.91197">
        <ele>206.8</ele>
        <time>2024-04-07T07:16:14Z</time>
      </trkpt>
      <trkpt lat="44.09895" lon="1.91196">
        <ele>206.8</ele>
        <time>2024-04-07T07:16:15Z</time>
      </trkpt>
      <trkpt lat="44.09897" lon="1.91196">
        <ele>206.6</ele>
        <time>2024-04-07T07:16:16Z</time>
      </trkpt>
      <trkpt lat="44.09899" lon="1.91195">
        <ele>206.4</ele>
        <time>2024-04-07T07:16:17Z</time>
      </trkpt>
      <trkpt lat="44.09901" lon="1.91195">
        <ele>206</ele>
        <time>2024-04-07T07:16:18Z</time>
      </trkpt>
      <trkpt lat="44.09903" lon="1.91195">
        <ele>206</ele>
        <time>2024-04-07T07:16:19Z</time>
      </trkpt>
      <trkpt lat="44.09906" lon="1.91195">
        <ele>205.8</ele>
        <time>2024-04-07T07:16:20Z</time>
      </trkpt>
      <trkpt lat="44.09909" lon="1.91195">
        <ele>205.8</ele>
        <time>2024-04-07T07:16:21Z</time>
      </trkpt>
      <trkpt lat="44.09912" lon="1.91195">
        <ele>205.8</ele>
        <time>2024-04-07T07:16:22Z</time>
      </trkpt>
      <trkpt lat="44.09915" lon="1.91194">
        <ele>206</ele>
        <time>2024-04-07T07:16:23Z</time>
      </trkpt>
      <trkpt lat="44.09918" lon="1.91193">
        <ele>206.2</ele>
        <time>2024-04-07T07:16:24Z</time>
      </trkpt>
      <trkpt lat="44.09922" lon="1.91193">
        <ele>206.2</ele>
        <time>2024-04-07T07:16:25Z</time>
      </trkpt>
      <trkpt lat="44.09925" lon="1.91192">
        <ele>206.4</ele>
        <time>2024-04-07T07:16:26Z</time>
      </trkpt>
      <trkpt lat="44.0993" lon="1.91193">
        <ele>206.6</ele>
        <time>2024-04-07T07:16:27Z</time>
      </trkpt>
      <trkpt lat="44.09936" lon="1.91192">
        <ele>206.8</ele>
        <time>2024-04-07T07:16:28Z</time>
      </trkpt>
      <trkpt lat="44.09941" lon="1.91191">
        <ele>206.8</ele>
        <time>2024-04-07T07:16:29Z</time>
      </trkpt>
      <trkpt lat="44.09948" lon="1.91191">
        <ele>206.8</ele>
        <time>2024-04-07T07:16:30Z</time>
      </trkpt>
      <trkpt lat="44.09955" lon="1.91191">
        <ele>206.8</ele>
        <time>2024-04-07T07:16:31Z</time>
      </trkpt>
      <trkpt lat="44.09961" lon="1.91192">
        <ele>207</ele>
        <time>2024-04-07T07:16:32Z</time>
      </trkpt>
      <trkpt lat="44.09967" lon="1.91193">
        <ele>207</ele>
        <time>2024-04-07T07:16:33Z</time>
      </trkpt>
      <trkpt lat="44.09972" lon="1.91193">
        <ele>207</ele>
        <time>2024-04-07T07:16:34Z</time>
      </trkpt>
      <trkpt lat="44.09978" lon="1.91194">
        <ele>207.2</ele>
        <time>2024-04-07T07:16:35Z</time>
      </trkpt>
      <trkpt lat="44.09984" lon="1.91195">
        <ele>207.2</ele>
        <time>2024-04-07T07:16:36Z</time>
      </trkpt>
      <trkpt lat="44.09992" lon="1.91196">
        <ele>207</ele>
        <time>2024-04-07T07:16:37Z</time>
      </trkpt>
      <trkpt lat="44.09997" lon="1.91197">
        <ele>207</ele>
        <time>2024-04-07T07:16:38Z</time>
      </trkpt>
      <trkpt lat="44.10002" lon="1.91197">
        <ele>206.8</ele>
        <time>2024-04-07T07:16:39Z</time>
      </trkpt>
      <trkpt lat="44.10004" lon="1.91198">
        <ele>206.8</ele>
        <time>2024-04-07T07:16:40Z</time>
      </trkpt>
      <trkpt lat="44.10004" lon="1.91198">
        <ele>206.6</ele>
        <time>2024-04-07T07:16:41Z</time>
      </trkpt>
      <trkpt lat="44.10009" lon="1.91197">
        <ele>206.4</ele>
        <time>2024-04-07T07:16:42Z</time>
      </trkpt>
      <trkpt lat="44.1001" lon="1.91197">
        <ele>206.4</ele>
        <time>2024-04-07T07:16:43Z</time>
      </trkpt>
      <trkpt lat="44.10012" lon="1.91197">
        <ele>206</ele>
        <time>2024-04-07T07:16:44Z</time>
      </trkpt>
      <trkpt lat="44.10013" lon="1.91197">
        <ele>206</ele>
        <time>2024-04-07T07:16:45Z</time>
      </trkpt>
      <trkpt lat="44.10015" lon="1.91198">
        <ele>205.8</ele>
        <time>2024-04-07T07:16:46Z</time>
      </trkpt>
      <trkpt lat="44.10017" lon="1.91199">
        <ele>205.8</ele>
        <time>2024-04-07T07:16:47Z</time>
      </trkpt>
      <trkpt lat="44.10017" lon="1.91199">
        <ele>205.8</ele>
        <time>2024-04-07T07:16:48Z</time>
      </trkpt>
      <trkpt lat="44.1002" lon="1.91199">
        <ele>205.8</ele>
        <time>2024-04-07T07:16:49Z</time>
      </trkpt>
      <trkpt lat="44.10027" lon="1.912">
        <ele>205.8</ele>
        <time>2024-04-07T07:16:50Z</time>
      </trkpt>
      <trkpt lat="44.10031" lon="1.91201">
        <ele>205.6</ele>
        <time>2024-04-07T07:16:51Z</time>
      </trkpt>
      <trkpt lat="44.10036" lon="1.91201">
        <ele>205.6</ele>
        <time>2024-04-07T07:16:52Z</time>
      </trkpt>
      <trkpt lat="44.10041" lon="1.91202">
        <ele>205.6</ele>
        <time>2024-04-07T07:16:53Z</time>
      </trkpt>
      <trkpt lat="44.10045" lon="1.91203">
        <ele>205.6</ele>
        <time>2024-04-07T07:16:54Z</time>
      </trkpt>
      <trkpt lat="44.10049" lon="1.91203">
        <ele>205.6</ele>
        <time>2024-04-07T07:16:55Z</time>
      </trkpt>
      <trkpt lat="44.10055" lon="1.91204">
        <ele>205.6</ele>
        <time>2024-04-07T07:16:56Z</time>
      </trkpt>
      <trkpt lat="44.10055" lon="1.91204">
        <ele>205.4</ele>
        <time>2024-04-07T07:16:57Z</time>
      </trkpt>
      <trkpt lat="44.10067" lon="1.91206">
        <ele>205.4</ele>
        <time>2024-04-07T07:16:58Z</time>
      </trkpt>
      <trkpt lat="44.10074" lon="1.91206">
        <ele>205.4</ele>
        <time>2024-04-07T07:16:59Z</time>
      </trkpt>
      <trkpt lat="44.1008" lon="1.91207">
        <ele>205.2</ele>
        <time>2024-04-07T07:17:00Z</time>
      </trkpt>
      <trkpt lat="44.10087" lon="1.91208">
        <ele>205</ele>
        <time>2024-04-07T07:17:01Z</time>
      </trkpt>
      <trkpt lat="44.10094" lon="1.91209">
        <ele>204.8</ele>
        <time>2024-04-07T07:17:02Z</time>
      </trkpt>
      <trkpt lat="44.10101" lon="1.91209">
        <ele>204.6</ele>
        <time>2024-04-07T07:17:03Z</time>
      </trkpt>
      <trkpt lat="44.1011" lon="1.9121">
        <ele>204</ele>
        <time>2024-04-07T07:17:04Z</time>
      </trkpt>
      <trkpt lat="44.10119" lon="1.91211">
        <ele>203.8</ele>
        <time>2024-04-07T07:17:05Z</time>
      </trkpt>
      <trkpt lat="44.10128" lon="1.91214">
        <ele>202.8</ele>
        <time>2024-04-07T07:17:06Z</time>
      </trkpt>
      <trkpt lat="44.10137" lon="1.91216">
        <ele>202.2</ele>
        <time>2024-04-07T07:17:07Z</time>
      </trkpt>
      <trkpt lat="44.10149" lon="1.91222">
        <ele>201.2</ele>
        <time>2024-04-07T07:17:08Z</time>
      </trkpt>
      <trkpt lat="44.10157" lon="1.91228">
        <ele>199.8</ele>
        <time>2024-04-07T07:17:09Z</time>
      </trkpt>
      <trkpt lat="44.10166" lon="1.91234">
        <ele>198.8</ele>
        <time>2024-04-07T07:17:10Z</time>
      </trkpt>
      <trkpt lat="44.10173" lon="1.9124">
        <ele>197.2</ele>
        <time>2024-04-07T07:17:11Z</time>
      </trkpt>
      <trkpt lat="44.10183" lon="1.91248">
        <ele>196.4</ele>
        <time>2024-04-07T07:17:12Z</time>
      </trkpt>
      <trkpt lat="44.10189" lon="1.91254">
        <ele>195</ele>
        <time>2024-04-07T07:17:13Z</time>
      </trkpt>
      <trkpt lat="44.10198" lon="1.9126">
        <ele>194.4</ele>
        <time>2024-04-07T07:17:14Z</time>
      </trkpt>
      <trkpt lat="44.10205" lon="1.91264">
        <ele>193.8</ele>
        <time>2024-04-07T07:17:15Z</time>
      </trkpt>
      <trkpt lat="44.10205" lon="1.91264">
        <ele>193.2</ele>
        <time>2024-04-07T07:17:16Z</time>
      </trkpt>
      <trkpt lat="44.1021" lon="1.91266">
        <ele>192</ele>
        <time>2024-04-07T07:17:17Z</time>
      </trkpt>
      <trkpt lat="44.10214" lon="1.91267">
        <ele>190.8</ele>
        <time>2024-04-07T07:17:18Z</time>
      </trkpt>
      <trkpt lat="44.10228" lon="1.91273">
        <ele>190.4</ele>
        <time>2024-04-07T07:17:19Z</time>
      </trkpt>
      <trkpt lat="44.10234" lon="1.91277">
        <ele>189.8</ele>
        <time>2024-04-07T07:17:20Z</time>
      </trkpt>
      <trkpt lat="44.10234" lon="1.91277">
        <ele>189.2</ele>
        <time>2024-04-07T07:17:21Z</time>
      </trkpt>
      <trkpt lat="44.10246" lon="1.91286">
        <ele>188.4</ele>
        <time>2024-04-07T07:17:22Z</time>
      </trkpt>
      <trkpt lat="44.10251" lon="1.9129">
        <ele>188</ele>
        <time>2024-04-07T07:17:23Z</time>
      </trkpt>
      <trkpt lat="44.10256" lon="1.91294">
        <ele>187.2</ele>
        <time>2024-04-07T07:17:24Z</time>
      </trkpt>
      <trkpt lat="44.10261" lon="1.91296">
        <ele>187</ele>
        <time>2024-04-07T07:17:25Z</time>
      </trkpt>
      <trkpt lat="44.10265" lon="1.91297">
        <ele>186.4</ele>
        <time>2024-04-07T07:17:26Z</time>
      </trkpt>
      <trkpt lat="44.1027" lon="1.91298">
        <ele>185.6</ele>
        <time>2024-04-07T07:17:27Z</time>
      </trkpt>
      <trkpt lat="44.10277" lon="1.91297">
        <ele>185.4</ele>
        <time>2024-04-07T07:17:28Z</time>
      </trkpt>
      <trkpt lat="44.10283" lon="1.91297">
        <ele>185.2</ele>
        <time>2024-04-07T07:17:29Z</time>
      </trkpt>
      <trkpt lat="44.10288" lon="1.91296">
        <ele>184.8</ele>
        <time>2024-04-07T07:17:30Z</time>
      </trkpt>
      <trkpt lat="44.10294" lon="1.91295">
        <ele>184.2</ele>
        <time>2024-04-07T07:17:31Z</time>
      </trkpt>
      <trkpt lat="44.103" lon="1.91295">
        <ele>184</ele>
        <time>2024-04-07T07:17:32Z</time>
      </trkpt>
      <trkpt lat="44.10306" lon="1.91294">
        <ele>183.8</ele>
        <time>2024-04-07T07:17:33Z</time>
      </trkpt>
      <trkpt lat="44.10311" lon="1.91292">
        <ele>183.6</ele>
        <time>2024-04-07T07:17:34Z</time>
      </trkpt>
      <trkpt lat="44.10317" lon="1.91289">
        <ele>183.4</ele>
        <time>2024-04-07T07:17:35Z</time>
      </trkpt>
      <trkpt lat="44.10322" lon="1.91285">
        <ele>183.4</ele>
        <time>2024-04-07T07:17:36Z</time>
      </trkpt>
      <trkpt lat="44.10327" lon="1.91281">
        <ele>183.4</ele>
        <time>2024-04-07T07:17:37Z</time>
      </trkpt>
      <trkpt lat="44.10333" lon="1.91275">
        <ele>183.4</ele>
        <time>2024-04-07T07:17:38Z</time>
      </trkpt>
      <trkpt lat="44.10336" lon="1.9127">
        <ele>183.4</ele>
        <time>2024-04-07T07:17:39Z</time>
      </trkpt>
      <trkpt lat="44.1034" lon="1.91263">
        <ele>183.4</ele>
        <time>2024-04-07T07:17:40Z</time>
      </trkpt>
      <trkpt lat="44.10343" lon="1.91257">
        <ele>183.4</ele>
        <time>2024-04-07T07:17:41Z</time>
      </trkpt>
      <trkpt lat="44.10347" lon="1.9125">
        <ele>183.4</ele>
        <time>2024-04-07T07:17:42Z</time>
      </trkpt>
      <trkpt lat="44.1035" lon="1.91243">
        <ele>183.4</ele>
        <time>2024-04-07T07:17:43Z</time>
      </trkpt>
      <trkpt lat="44.10355" lon="1.91235">
        <ele>183.6</ele>
        <time>2024-04-07T07:17:44Z</time>
      </trkpt>
      <trkpt lat="44.10358" lon="1.91228">
        <ele>183.8</ele>
        <time>2024-04-07T07:17:45Z</time>
      </trkpt>
      <trkpt lat="44.10361" lon="1.91222">
        <ele>183.8</ele>
        <time>2024-04-07T07:17:46Z</time>
      </trkpt>
      <trkpt lat="44.10364" lon="1.91216">
        <ele>184</ele>
        <time>2024-04-07T07:17:47Z</time>
      </trkpt>
      <trkpt lat="44.10367" lon="1.91209">
        <ele>184</ele>
        <time>2024-04-07T07:17:48Z</time>
      </trkpt>
      <trkpt lat="44.10371" lon="1.91201">
        <ele>184.2</ele>
        <time>2024-04-07T07:17:49Z</time>
      </trkpt>
      <trkpt lat="44.10375" lon="1.91194">
        <ele>184.4</ele>
        <time>2024-04-07T07:17:50Z</time>
      </trkpt>
      <trkpt lat="44.10378" lon="1.91186">
        <ele>184.4</ele>
        <time>2024-04-07T07:17:51Z</time>
      </trkpt>
      <trkpt lat="44.10382" lon="1.91179">
        <ele>184.4</ele>
        <time>2024-04-07T07:17:52Z</time>
      </trkpt>
      <trkpt lat="44.10385" lon="1.91171">
        <ele>184.4</ele>
        <time>2024-04-07T07:17:53Z</time>
      </trkpt>
      <trkpt lat="44.10388" lon="1.91163">
        <ele>184.4</ele>
        <time>2024-04-07T07:17:54Z</time>
      </trkpt>
      <trkpt lat="44.10391" lon="1.91155">
        <ele>184.4</ele>
        <time>2024-04-07T07:17:55Z</time>
      </trkpt>
      <trkpt lat="44.10394" lon="1.91147">
        <ele>184.2</ele>
        <time>2024-04-07T07:17:56Z</time>
      </trkpt>
      <trkpt lat="44.10398" lon="1.9114">
        <ele>184.2</ele>
        <time>2024-04-07T07:17:57Z</time>
      </trkpt>
      <trkpt lat="44.10401" lon="1.91134">
        <ele>184.2</ele>
        <time>2024-04-07T07:17:58Z</time>
      </trkpt>
      <trkpt lat="44.10405" lon="1.91125">
        <ele>184.2</ele>
        <time>2024-04-07T07:17:59Z</time>
      </trkpt>
      <trkpt lat="44.10409" lon="1.91116">
        <ele>184.2</ele>
        <time>2024-04-07T07:18:00Z</time>
      </trkpt>
      <trkpt lat="44.10413" lon="1.91108">
        <ele>184.2</ele>
        <time>2024-04-07T07:18:01Z</time>
      </trkpt>
      <trkpt lat="44.10417" lon="1.91101">
        <ele>184</ele>
        <time>2024-04-07T07:18:02Z</time>
      </trkpt>
      <trkpt lat="44.10421" lon="1.91093">
        <ele>184</ele>
        <time>2024-04-07T07:18:03Z</time>
      </trkpt>
      <trkpt lat="44.10426" lon="1.91085">
        <ele>183.8</ele>
        <time>2024-04-07T07:18:04Z</time>
      </trkpt>
      <trkpt lat="44.1043" lon="1.91078">
        <ele>183.6</ele>
        <time>2024-04-07T07:18:05Z</time>
      </trkpt>
      <trkpt lat="44.10434" lon="1.9107">
        <ele>183.6</ele>
        <time>2024-04-07T07:18:06Z</time>
      </trkpt>
      <trkpt lat="44.10438" lon="1.91063">
        <ele>183.4</ele>
        <time>2024-04-07T07:18:07Z</time>
      </trkpt>
      <trkpt lat="44.10442" lon="1.91055">
        <ele>183.2</ele>
        <time>2024-04-07T07:18:08Z</time>
      </trkpt>
      <trkpt lat="44.10447" lon="1.91048">
        <ele>183</ele>
        <time>2024-04-07T07:18:09Z</time>
      </trkpt>
      <trkpt lat="44.10451" lon="1.9104">
        <ele>183</ele>
        <time>2024-04-07T07:18:10Z</time>
      </trkpt>
      <trkpt lat="44.10455" lon="1.91031">
        <ele>182.8</ele>
        <time>2024-04-07T07:18:11Z</time>
      </trkpt>
      <trkpt lat="44.10459" lon="1.91024">
        <ele>182.6</ele>
        <time>2024-04-07T07:18:12Z</time>
      </trkpt>
      <trkpt lat="44.10463" lon="1.91016">
        <ele>182.4</ele>
        <time>2024-04-07T07:18:13Z</time>
      </trkpt>
      <trkpt lat="44.10467" lon="1.91008">
        <ele>182.2</ele>
        <time>2024-04-07T07:18:14Z</time>
      </trkpt>
      <trkpt lat="44.10471" lon="1.91">
        <ele>182.2</ele>
        <time>2024-04-07T07:18:15Z</time>
      </trkpt>
      <trkpt lat="44.10476" lon="1.90991">
        <ele>181.8</ele>
        <time>2024-04-07T07:18:16Z</time>
      </trkpt>
      <trkpt lat="44.1048" lon="1.90983">
        <ele>181.6</ele>
        <time>2024-04-07T07:18:17Z</time>
      </trkpt>
      <trkpt lat="44.10485" lon="1.90974">
        <ele>181.4</ele>
        <time>2024-04-07T07:18:18Z</time>
      </trkpt>
      <trkpt lat="44.1049" lon="1.90965">
        <ele>181.2</ele>
        <time>2024-04-07T07:18:19Z</time>
      </trkpt>
      <trkpt lat="44.10496" lon="1.90957">
        <ele>180.8</ele>
        <time>2024-04-07T07:18:20Z</time>
      </trkpt>
      <trkpt lat="44.10501" lon="1.90949">
        <ele>180.6</ele>
        <time>2024-04-07T07:18:21Z</time>
      </trkpt>
      <trkpt lat="44.10508" lon="1.90941">
        <ele>180.6</ele>
        <time>2024-04-07T07:18:22Z</time>
      </trkpt>
      <trkpt lat="44.10514" lon="1.90933">
        <ele>180.2</ele>
        <time>2024-04-07T07:18:23Z</time>
      </trkpt>
      <trkpt lat="44.10521" lon="1.90926">
        <ele>180.2</ele>
        <time>2024-04-07T07:18:24Z</time>
      </trkpt>
      <trkpt lat="44.10527" lon="1.90918">
        <ele>179.8</ele>
        <time>2024-04-07T07:18:25Z</time>
      </trkpt>
      <trkpt lat="44.10534" lon="1.90909">
        <ele>179.6</ele>
        <time>2024-04-07T07:18:26Z</time>
      </trkpt>
      <trkpt lat="44.1054" lon="1.90901">
        <ele>179.2</ele>
        <time>2024-04-07T07:18:27Z</time>
      </trkpt>
      <trkpt lat="44.10546" lon="1.90892">
        <ele>178.8</ele>
        <time>2024-04-07T07:18:28Z</time>
      </trkpt>
      <trkpt lat="44.10553" lon="1.90882">
        <ele>178.2</ele>
        <time>2024-04-07T07:18:29Z</time>
      </trkpt>
      <trkpt lat="44.10558" lon="1.90873">
        <ele>177.8</ele>
        <time>2024-04-07T07:18:30Z</time>
      </trkpt>
      <trkpt lat="44.10564" lon="1.90863">
        <ele>177.6</ele>
        <time>2024-04-07T07:18:31Z</time>
      </trkpt>
      <trkpt lat="44.10571" lon="1.90854">
        <ele>177</ele>
        <time>2024-04-07T07:18:32Z</time>
      </trkpt>
      <trkpt lat="44.10578" lon="1.90845">
        <ele>177</ele>
        <time>2024-04-07T07:18:33Z</time>
      </trkpt>
      <trkpt lat="44.10585" lon="1.90836">
        <ele>176.6</ele>
        <time>2024-04-07T07:18:34Z</time>
      </trkpt>
      <trkpt lat="44.10591" lon="1.90827">
        <ele>176.2</ele>
        <time>2024-04-07T07:18:35Z</time>
      </trkpt>
      <trkpt lat="44.10598" lon="1.90818">
        <ele>175.4</ele>
        <time>2024-04-07T07:18:36Z</time>
      </trkpt>
      <trkpt lat="44.10605" lon="1.90811">
        <ele>174.8</ele>
        <time>2024-04-07T07:18:37Z</time>
      </trkpt>
      <trkpt lat="44.10611" lon="1.90805">
        <ele>174</ele>
        <time>2024-04-07T07:18:38Z</time>
      </trkpt>
      <trkpt lat="44.1062" lon="1.90796">
        <ele>173.2</ele>
        <time>2024-04-07T07:18:39Z</time>
      </trkpt>
      <trkpt lat="44.10627" lon="1.9079">
        <ele>173</ele>
        <time>2024-04-07T07:18:40Z</time>
      </trkpt>
      <trkpt lat="44.10635" lon="1.90783">
        <ele>172.6</ele>
        <time>2024-04-07T07:18:41Z</time>
      </trkpt>
      <trkpt lat="44.10642" lon="1.90777">
        <ele>172.2</ele>
        <time>2024-04-07T07:18:42Z</time>
      </trkpt>
      <trkpt lat="44.10649" lon="1.90771">
        <ele>171.6</ele>
        <time>2024-04-07T07:18:43Z</time>
      </trkpt>
      <trkpt lat="44.10657" lon="1.90764">
        <ele>171.4</ele>
        <time>2024-04-07T07:18:44Z</time>
      </trkpt>
      <trkpt lat="44.10664" lon="1.90757">
        <ele>171.2</ele>
        <time>2024-04-07T07:18:45Z</time>
      </trkpt>
      <trkpt lat="44.1067" lon="1.9075">
        <ele>170.8</ele>
        <time>2024-04-07T07:18:46Z</time>
      </trkpt>
      <trkpt lat="44.10678" lon="1.90743">
        <ele>170.4</ele>
        <time>2024-04-07T07:18:47Z</time>
      </trkpt>
      <trkpt lat="44.10683" lon="1.90738">
        <ele>170</ele>
        <time>2024-04-07T07:18:48Z</time>
      </trkpt>
      <trkpt lat="44.10692" lon="1.9073">
        <ele>169.8</ele>
        <time>2024-04-07T07:18:49Z</time>
      </trkpt>
      <trkpt lat="44.10699" lon="1.90723">
        <ele>169.4</ele>
        <time>2024-04-07T07:18:50Z</time>
      </trkpt>
      <trkpt lat="44.10706" lon="1.90716">
        <ele>169.2</ele>
        <time>2024-04-07T07:18:51Z</time>
      </trkpt>
      <trkpt lat="44.10713" lon="1.90709">
        <ele>169</ele>
        <time>2024-04-07T07:18:52Z</time>
      </trkpt>
      <trkpt lat="44.1072" lon="1.90703">
        <ele>168.8</ele>
        <time>2024-04-07T07:18:53Z</time>
      </trkpt>
      <trkpt lat="44.10727" lon="1.90696">
        <ele>168.4</ele>
        <time>2024-04-07T07:18:54Z</time>
      </trkpt>
      <trkpt lat="44.10733" lon="1.9069">
        <ele>168</ele>
        <time>2024-04-07T07:18:55Z</time>
      </trkpt>
      <trkpt lat="44.1074" lon="1.90684">
        <ele>167.8</ele>
        <time>2024-04-07T07:18:56Z</time>
      </trkpt>
      <trkpt lat="44.10746" lon="1.90677">
        <ele>167.4</ele>
        <time>2024-04-07T07:18:57Z</time>
      </trkpt>
      <trkpt lat="44.10753" lon="1.9067">
        <ele>167.4</ele>
        <time>2024-04-07T07:18:58Z</time>
      </trkpt>
      <trkpt lat="44.10758" lon="1.90662">
        <ele>167.2</ele>
        <time>2024-04-07T07:18:59Z</time>
      </trkpt>
      <trkpt lat="44.10764" lon="1.90655">
        <ele>167</ele>
        <time>2024-04-07T07:19:00Z</time>
      </trkpt>
      <trkpt lat="44.1077" lon="1.90647">
        <ele>166.8</ele>
        <time>2024-04-07T07:19:01Z</time>
      </trkpt>
      <trkpt lat="44.10776" lon="1.9064">
        <ele>166.8</ele>
        <time>2024-04-07T07:19:02Z</time>
      </trkpt>
      <trkpt lat="44.10783" lon="1.90632">
        <ele>166.6</ele>
        <time>2024-04-07T07:19:03Z</time>
      </trkpt>
      <trkpt lat="44.1079" lon="1.90624">
        <ele>166.6</ele>
        <time>2024-04-07T07:19:04Z</time>
      </trkpt>
      <trkpt lat="44.10797" lon="1.90616">
        <ele>166.4</ele>
        <time>2024-04-07T07:19:05Z</time>
      </trkpt>
      <trkpt lat="44.10803" lon="1.90608">
        <ele>166</ele>
        <time>2024-04-07T07:19:06Z</time>
      </trkpt>
      <trkpt lat="44.10808" lon="1.90597">
        <ele>165.4</ele>
        <time>2024-04-07T07:19:07Z</time>
      </trkpt>
      <trkpt lat="44.10812" lon="1.90585">
        <ele>165</ele>
        <time>2024-04-07T07:19:08Z</time>
      </trkpt>
      <trkpt lat="44.10811" lon="1.90573">
        <ele>164.8</ele>
        <time>2024-04-07T07:19:09Z</time>
      </trkpt>
      <trkpt lat="44.10808" lon="1.90561">
        <ele>164.4</ele>
        <time>2024-04-07T07:19:10Z</time>
      </trkpt>
      <trkpt lat="44.10803" lon="1.9055">
        <ele>164.2</ele>
        <time>2024-04-07T07:19:11Z</time>
      </trkpt>
      <trkpt lat="44.10798" lon="1.90539">
        <ele>163.6</ele>
        <time>2024-04-07T07:19:12Z</time>
      </trkpt>
      <trkpt lat="44.10794" lon="1.90531">
        <ele>163.4</ele>
        <time>2024-04-07T07:19:13Z</time>
      </trkpt>
      <trkpt lat="44.1079" lon="1.90516">
        <ele>162.2</ele>
        <time>2024-04-07T07:19:14Z</time>
      </trkpt>
      <trkpt lat="44.10788" lon="1.90503">
        <ele>161.6</ele>
        <time>2024-04-07T07:19:15Z</time>
      </trkpt>
      <trkpt lat="44.10788" lon="1.90489">
        <ele>161.2</ele>
        <time>2024-04-07T07:19:16Z</time>
      </trkpt>
      <trkpt lat="44.10789" lon="1.90476">
        <ele>160.6</ele>
        <time>2024-04-07T07:19:17Z</time>
      </trkpt>
      <trkpt lat="44.10791" lon="1.90464">
        <ele>160.4</ele>
        <time>2024-04-07T07:19:18Z</time>
      </trkpt>
      <trkpt lat="44.10793" lon="1.90455">
        <ele>159.4</ele>
        <time>2024-04-07T07:19:19Z</time>
      </trkpt>
      <trkpt lat="44.10797" lon="1.90442">
        <ele>159</ele>
        <time>2024-04-07T07:19:20Z</time>
      </trkpt>
      <trkpt lat="44.108" lon="1.90431">
        <ele>158.4</ele>
        <time>2024-04-07T07:19:21Z</time>
      </trkpt>
      <trkpt lat="44.10804" lon="1.9042">
        <ele>158</ele>
        <time>2024-04-07T07:19:22Z</time>
      </trkpt>
      <trkpt lat="44.10808" lon="1.9041">
        <ele>157.8</ele>
        <time>2024-04-07T07:19:23Z</time>
      </trkpt>
      <trkpt lat="44.10812" lon="1.90399">
        <ele>157.6</ele>
        <time>2024-04-07T07:19:24Z</time>
      </trkpt>
      <trkpt lat="44.10816" lon="1.90389">
        <ele>157.4</ele>
        <time>2024-04-07T07:19:25Z</time>
      </trkpt>
      <trkpt lat="44.10821" lon="1.90379">
        <ele>157.2</ele>
        <time>2024-04-07T07:19:26Z</time>
      </trkpt>
      <trkpt lat="44.10827" lon="1.90371">
        <ele>157</ele>
        <time>2024-04-07T07:19:27Z</time>
      </trkpt>
      <trkpt lat="44.10834" lon="1.90364">
        <ele>156.6</ele>
        <time>2024-04-07T07:19:28Z</time>
      </trkpt>
      <trkpt lat="44.10841" lon="1.90357">
        <ele>156</ele>
        <time>2024-04-07T07:19:29Z</time>
      </trkpt>
      <trkpt lat="44.10848" lon="1.90351">
        <ele>155.6</ele>
        <time>2024-04-07T07:19:30Z</time>
      </trkpt>
      <trkpt lat="44.10855" lon="1.90344">
        <ele>155.6</ele>
        <time>2024-04-07T07:19:31Z</time>
      </trkpt>
      <trkpt lat="44.10861" lon="1.90337">
        <ele>155.4</ele>
        <time>2024-04-07T07:19:32Z</time>
      </trkpt>
      <trkpt lat="44.10866" lon="1.9033">
        <ele>155.2</ele>
        <time>2024-04-07T07:19:33Z</time>
      </trkpt>
      <trkpt lat="44.10871" lon="1.90324">
        <ele>155</ele>
        <time>2024-04-07T07:19:34Z</time>
      </trkpt>
      <trkpt lat="44.10876" lon="1.90322">
        <ele>154.6</ele>
        <time>2024-04-07T07:19:35Z</time>
      </trkpt>
      <trkpt lat="44.10881" lon="1.90324">
        <ele>154.6</ele>
        <time>2024-04-07T07:19:36Z</time>
      </trkpt>
      <trkpt lat="44.10888" lon="1.90328">
        <ele>154.4</ele>
        <time>2024-04-07T07:19:37Z</time>
      </trkpt>
      <trkpt lat="44.10894" lon="1.90333">
        <ele>154.6</ele>
        <time>2024-04-07T07:19:38Z</time>
      </trkpt>
      <trkpt lat="44.109" lon="1.90338">
        <ele>154.4</ele>
        <time>2024-04-07T07:19:39Z</time>
      </trkpt>
      <trkpt lat="44.10906" lon="1.90342">
        <ele>154.4</ele>
        <time>2024-04-07T07:19:40Z</time>
      </trkpt>
      <trkpt lat="44.10912" lon="1.90347">
        <ele>154.2</ele>
        <time>2024-04-07T07:19:41Z</time>
      </trkpt>
      <trkpt lat="44.10918" lon="1.90351">
        <ele>154.2</ele>
        <time>2024-04-07T07:19:42Z</time>
      </trkpt>
      <trkpt lat="44.10923" lon="1.90356">
        <ele>154.2</ele>
        <time>2024-04-07T07:19:43Z</time>
      </trkpt>
      <trkpt lat="44.10929" lon="1.9036">
        <ele>154</ele>
        <time>2024-04-07T07:19:44Z</time>
      </trkpt>
      <trkpt lat="44.10934" lon="1.90365">
        <ele>154</ele>
        <time>2024-04-07T07:19:45Z</time>
      </trkpt>
      <trkpt lat="44.10939" lon="1.9037">
        <ele>154</ele>
        <time>2024-04-07T07:19:46Z</time>
      </trkpt>
      <trkpt lat="44.10944" lon="1.90375">
        <ele>153.8</ele>
        <time>2024-04-07T07:19:47Z</time>
      </trkpt>
      <trkpt lat="44.1095" lon="1.90379">
        <ele>153.6</ele>
        <time>2024-04-07T07:19:48Z</time>
      </trkpt>
      <trkpt lat="44.10954" lon="1.90384">
        <ele>153.6</ele>
        <time>2024-04-07T07:19:49Z</time>
      </trkpt>
      <trkpt lat="44.10959" lon="1.90389">
        <ele>153.4</ele>
        <time>2024-04-07T07:19:50Z</time>
      </trkpt>
      <trkpt lat="44.10964" lon="1.90395">
        <ele>153.4</ele>
        <time>2024-04-07T07:19:51Z</time>
      </trkpt>
      <trkpt lat="44.10969" lon="1.904">
        <ele>153.4</ele>
        <time>2024-04-07T07:19:52Z</time>
      </trkpt>
      <trkpt lat="44.10973" lon="1.90405">
        <ele>153.4</ele>
        <time>2024-04-07T07:19:53Z</time>
      </trkpt>
      <trkpt lat="44.10979" lon="1.90409">
        <ele>153.2</ele>
        <time>2024-04-07T07:19:54Z</time>
      </trkpt>
      <trkpt lat="44.10984" lon="1.90414">
        <ele>153</ele>
        <time>2024-04-07T07:19:55Z</time>
      </trkpt>
      <trkpt lat="44.10989" lon="1.90418">
        <ele>153</ele>
        <time>2024-04-07T07:19:56Z</time>
      </trkpt>
      <trkpt lat="44.10994" lon="1.90422">
        <ele>153</ele>
        <time>2024-04-07T07:19:57Z</time>
      </trkpt>
      <trkpt lat="44.10998" lon="1.90427">
        <ele>153</ele>
        <time>2024-04-07T07:19:58Z</time>
      </trkpt>
      <trkpt lat="44.11004" lon="1.90432">
        <ele>153</ele>
        <time>2024-04-07T07:19:59Z</time>
      </trkpt>
      <trkpt lat="44.11008" lon="1.90437">
        <ele>153.2</ele>
        <time>2024-04-07T07:20:00Z</time>
      </trkpt>
      <trkpt lat="44.11013" lon="1.90442">
        <ele>153.4</ele>
        <time>2024-04-07T07:20:01Z</time>
      </trkpt>
      <trkpt lat="44.11017" lon="1.90445">
        <ele>153.4</ele>
        <time>2024-04-07T07:20:02Z</time>
      </trkpt>
      <trkpt lat="44.11022" lon="1.90449">
        <ele>153.4</ele>
        <time>2024-04-07T07:20:03Z</time>
      </trkpt>
      <trkpt lat="44.11027" lon="1.90454">
        <ele>153.4</ele>
        <time>2024-04-07T07:20:04Z</time>
      </trkpt>
      <trkpt lat="44.11032" lon="1.90459">
        <ele>153.4</ele>
        <time>2024-04-07T07:20:05Z</time>
      </trkpt>
      <trkpt lat="44.11036" lon="1.90463">
        <ele>153.6</ele>
        <time>2024-04-07T07:20:06Z</time>
      </trkpt>
      <trkpt lat="44.11041" lon="1.90467">
        <ele>153.6</ele>
        <time>2024-04-07T07:20:07Z</time>
      </trkpt>
      <trkpt lat="44.11046" lon="1.90471">
        <ele>153.8</ele>
        <time>2024-04-07T07:20:08Z</time>
      </trkpt>
      <trkpt lat="44.11052" lon="1.90477">
        <ele>153.8</ele>
        <time>2024-04-07T07:20:09Z</time>
      </trkpt>
      <trkpt lat="44.11057" lon="1.90481">
        <ele>153.8</ele>
        <time>2024-04-07T07:20:10Z</time>
      </trkpt>
      <trkpt lat="44.11062" lon="1.90485">
        <ele>153.8</ele>
        <time>2024-04-07T07:20:11Z</time>
      </trkpt>
      <trkpt lat="44.11066" lon="1.9049">
        <ele>153.8</ele>
        <time>2024-04-07T07:20:12Z</time>
      </trkpt>
      <trkpt lat="44.11071" lon="1.90495">
        <ele>153.8</ele>
        <time>2024-04-07T07:20:13Z</time>
      </trkpt>
      <trkpt lat="44.11076" lon="1.90499">
        <ele>153.8</ele>
        <time>2024-04-07T07:20:14Z</time>
      </trkpt>
      <trkpt lat="44.11081" lon="1.90504">
        <ele>153.8</ele>
        <time>2024-04-07T07:20:15Z</time>
      </trkpt>
      <trkpt lat="44.11085" lon="1.90508">
        <ele>153.8</ele>
        <time>2024-04-07T07:20:16Z</time>
      </trkpt>
      <trkpt lat="44.11089" lon="1.90512">
        <ele>153.8</ele>
        <time>2024-04-07T07:20:17Z</time>
      </trkpt>
      <trkpt lat="44.11093" lon="1.90516">
        <ele>153.8</ele>
        <time>2024-04-07T07:20:18Z</time>
      </trkpt>
      <trkpt lat="44.11098" lon="1.9052">
        <ele>153.8</ele>
        <time>2024-04-07T07:20:19Z</time>
      </trkpt>
      <trkpt lat="44.11103" lon="1.90526">
        <ele>153.8</ele>
        <time>2024-04-07T07:20:20Z</time>
      </trkpt>
      <trkpt lat="44.11107" lon="1.90531">
        <ele>153.8</ele>
        <time>2024-04-07T07:20:21Z</time>
      </trkpt>
      <trkpt lat="44.11111" lon="1.90534">
        <ele>153.8</ele>
        <time>2024-04-07T07:20:22Z</time>
      </trkpt>
      <trkpt lat="44.11116" lon="1.9054">
        <ele>153.8</ele>
        <time>2024-04-07T07:20:23Z</time>
      </trkpt>
      <trkpt lat="44.11119" lon="1.90543">
        <ele>154</ele>
        <time>2024-04-07T07:20:24Z</time>
      </trkpt>
      <trkpt lat="44.11125" lon="1.90548">
        <ele>154.2</ele>
        <time>2024-04-07T07:20:25Z</time>
      </trkpt>
      <trkpt lat="44.11129" lon="1.90553">
        <ele>154.4</ele>
        <time>2024-04-07T07:20:26Z</time>
      </trkpt>
      <trkpt lat="44.11132" lon="1.90556">
        <ele>154.6</ele>
        <time>2024-04-07T07:20:27Z</time>
      </trkpt>
      <trkpt lat="44.11137" lon="1.9056">
        <ele>154.6</ele>
        <time>2024-04-07T07:20:28Z</time>
      </trkpt>
      <trkpt lat="44.11142" lon="1.90565">
        <ele>155</ele>
        <time>2024-04-07T07:20:29Z</time>
      </trkpt>
      <trkpt lat="44.11146" lon="1.90568">
        <ele>155</ele>
        <time>2024-04-07T07:20:30Z</time>
      </trkpt>
      <trkpt lat="44.11151" lon="1.90572">
        <ele>155</ele>
        <time>2024-04-07T07:20:31Z</time>
      </trkpt>
      <trkpt lat="44.11155" lon="1.90576">
        <ele>155.2</ele>
        <time>2024-04-07T07:20:32Z</time>
      </trkpt>
      <trkpt lat="44.11158" lon="1.90578">
        <ele>155.4</ele>
        <time>2024-04-07T07:20:33Z</time>
      </trkpt>
      <trkpt lat="44.11162" lon="1.90582">
        <ele>155.6</ele>
        <time>2024-04-07T07:20:34Z</time>
      </trkpt>
      <trkpt lat="44.11165" lon="1.90586">
        <ele>155.6</ele>
        <time>2024-04-07T07:20:35Z</time>
      </trkpt>
      <trkpt lat="44.11169" lon="1.90589">
        <ele>155.8</ele>
        <time>2024-04-07T07:20:36Z</time>
      </trkpt>
      <trkpt lat="44.11174" lon="1.90593">
        <ele>155.8</ele>
        <time>2024-04-07T07:20:37Z</time>
      </trkpt>
      <trkpt lat="44.11177" lon="1.90596">
        <ele>156</ele>
        <time>2024-04-07T07:20:38Z</time>
      </trkpt>
      <trkpt lat="44.11181" lon="1.90599">
        <ele>156.2</ele>
        <time>2024-04-07T07:20:39Z</time>
      </trkpt>
      <trkpt lat="44.11184" lon="1.90602">
        <ele>156.4</ele>
        <time>2024-04-07T07:20:40Z</time>
      </trkpt>
      <trkpt lat="44.11187" lon="1.90605">
        <ele>156.4</ele>
        <time>2024-04-07T07:20:41Z</time>
      </trkpt>
      <trkpt lat="44.11189" lon="1.90607">
        <ele>156.6</ele>
        <time>2024-04-07T07:20:42Z</time>
      </trkpt>
      <trkpt lat="44.11191" lon="1.90609">
        <ele>156.6</ele>
        <time>2024-04-07T07:20:43Z</time>
      </trkpt>
      <trkpt lat="44.11194" lon="1.90611">
        <ele>156.8</ele>
        <time>2024-04-07T07:20:44Z</time>
      </trkpt>
      <trkpt lat="44.11196" lon="1.90613">
        <ele>156.8</ele>
        <time>2024-04-07T07:20:45Z</time>
      </trkpt>
      <trkpt lat="44.11198" lon="1.90615">
        <ele>157</ele>
        <time>2024-04-07T07:20:46Z</time>
      </trkpt>
      <trkpt lat="44.11201" lon="1.90617">
        <ele>157</ele>
        <time>2024-04-07T07:20:47Z</time>
      </trkpt>
      <trkpt lat="44.11204" lon="1.90619">
        <ele>157.2</ele>
        <time>2024-04-07T07:20:48Z</time>
      </trkpt>
      <trkpt lat="44.11206" lon="1.90621">
        <ele>157.4</ele>
        <time>2024-04-07T07:20:49Z</time>
      </trkpt>
      <trkpt lat="44.11208" lon="1.90623">
        <ele>157.6</ele>
        <time>2024-04-07T07:20:50Z</time>
      </trkpt>
      <trkpt lat="44.11212" lon="1.90627">
        <ele>157.8</ele>
        <time>2024-04-07T07:20:51Z</time>
      </trkpt>
      <trkpt lat="44.11214" lon="1.90629">
        <ele>157.8</ele>
        <time>2024-04-07T07:20:52Z</time>
      </trkpt>
      <trkpt lat="44.11218" lon="1.90632">
        <ele>158</ele>
        <time>2024-04-07T07:20:53Z</time>
      </trkpt>
      <trkpt lat="44.11221" lon="1.90635">
        <ele>158</ele>
        <time>2024-04-07T07:20:54Z</time>
      </trkpt>
      <trkpt lat="44.11225" lon="1.90638">
        <ele>158.2</ele>
        <time>2024-04-07T07:20:55Z</time>
      </trkpt>
      <trkpt lat="44.11225" lon="1.90638">
        <ele>158.4</ele>
        <time>2024-04-07T07:20:56Z</time>
      </trkpt>
      <trkpt lat="44.11232" lon="1.90643">
        <ele>158.6</ele>
        <time>2024-04-07T07:20:57Z</time>
      </trkpt>
      <trkpt lat="44.11235" lon="1.90646">
        <ele>158.6</ele>
        <time>2024-04-07T07:20:58Z</time>
      </trkpt>
      <trkpt lat="44.11238" lon="1.90648">
        <ele>158.8</ele>
        <time>2024-04-07T07:20:59Z</time>
      </trkpt>
      <trkpt lat="44.11241" lon="1.90651">
        <ele>159.4</ele>
        <time>2024-04-07T07:21:00Z</time>
      </trkpt>
      <trkpt lat="44.11244" lon="1.90653">
        <ele>159.6</ele>
        <time>2024-04-07T07:21:01Z</time>
      </trkpt>
      <trkpt lat="44.11248" lon="1.90655">
        <ele>160.2</ele>
        <time>2024-04-07T07:21:02Z</time>
      </trkpt>
      <trkpt lat="44.11251" lon="1.90658">
        <ele>160.4</ele>
        <time>2024-04-07T07:21:03Z</time>
      </trkpt>
      <trkpt lat="44.11254" lon="1.9066">
        <ele>160.8</ele>
        <time>2024-04-07T07:21:04Z</time>
      </trkpt>
      <trkpt lat="44.11258" lon="1.90663">
        <ele>161.4</ele>
        <time>2024-04-07T07:21:05Z</time>
      </trkpt>
      <trkpt lat="44.11261" lon="1.90666">
        <ele>161.6</ele>
        <time>2024-04-07T07:21:06Z</time>
      </trkpt>
      <trkpt lat="44.11264" lon="1.90669">
        <ele>161.8</ele>
        <time>2024-04-07T07:21:07Z</time>
      </trkpt>
      <trkpt lat="44.11268" lon="1.90673">
        <ele>161.8</ele>
        <time>2024-04-07T07:21:08Z</time>
      </trkpt>
      <trkpt lat="44.1127" lon="1.90676">
        <ele>162.4</ele>
        <time>2024-04-07T07:21:09Z</time>
      </trkpt>
      <trkpt lat="44.1127" lon="1.90676">
        <ele>162.6</ele>
        <time>2024-04-07T07:21:10Z</time>
      </trkpt>
      <trkpt lat="44.11277" lon="1.90683">
        <ele>163.2</ele>
        <time>2024-04-07T07:21:11Z</time>
      </trkpt>
      <trkpt lat="44.11281" lon="1.90686">
        <ele>163.4</ele>
        <time>2024-04-07T07:21:12Z</time>
      </trkpt>
      <trkpt lat="44.11284" lon="1.9069">
        <ele>163.4</ele>
        <time>2024-04-07T07:21:13Z</time>
      </trkpt>
      <trkpt lat="44.11288" lon="1.90694">
        <ele>163.4</ele>
        <time>2024-04-07T07:21:14Z</time>
      </trkpt>
      <trkpt lat="44.11291" lon="1.90697">
        <ele>163.6</ele>
        <time>2024-04-07T07:21:15Z</time>
      </trkpt>
      <trkpt lat="44.11294" lon="1.90701">
        <ele>163.6</ele>
        <time>2024-04-07T07:21:16Z</time>
      </trkpt>
      <trkpt lat="44.11297" lon="1.90705">
        <ele>163.8</ele>
        <time>2024-04-07T07:21:17Z</time>
      </trkpt>
      <trkpt lat="44.11302" lon="1.90709">
        <ele>163.8</ele>
        <time>2024-04-07T07:21:18Z</time>
      </trkpt>
      <trkpt lat="44.11305" lon="1.90713">
        <ele>164</ele>
        <time>2024-04-07T07:21:19Z</time>
      </trkpt>
      <trkpt lat="44.11307" lon="1.90716">
        <ele>164.2</ele>
        <time>2024-04-07T07:21:20Z</time>
      </trkpt>
      <trkpt lat="44.1131" lon="1.90719">
        <ele>164.6</ele>
        <time>2024-04-07T07:21:21Z</time>
      </trkpt>
      <trkpt lat="44.11313" lon="1.90721">
        <ele>164.6</ele>
        <time>2024-04-07T07:21:22Z</time>
      </trkpt>
      <trkpt lat="44.11315" lon="1.90721">
        <ele>164.8</ele>
        <time>2024-04-07T07:21:23Z</time>
      </trkpt>
      <trkpt lat="44.11319" lon="1.90718">
        <ele>164.8</ele>
        <time>2024-04-07T07:21:24Z</time>
      </trkpt>
      <trkpt lat="44.1132" lon="1.90715">
        <ele>164.8</ele>
        <time>2024-04-07T07:21:25Z</time>
      </trkpt>
      <trkpt lat="44.1132" lon="1.90715">
        <ele>164.8</ele>
        <time>2024-04-07T07:21:26Z</time>
      </trkpt>
      <trkpt lat="44.11325" lon="1.90703">
        <ele>164.8</ele>
        <time>2024-04-07T07:21:27Z</time>
      </trkpt>
      <trkpt lat="44.11329" lon="1.90696">
        <ele>164.8</ele>
        <time>2024-04-07T07:21:28Z</time>
      </trkpt>
      <trkpt lat="44.11333" lon="1.90689">
        <ele>164.8</ele>
        <time>2024-04-07T07:21:29Z</time>
      </trkpt>
      <trkpt lat="44.11337" lon="1.90682">
        <ele>164.8</ele>
        <time>2024-04-07T07:21:30Z</time>
      </trkpt>
      <trkpt lat="44.1134" lon="1.90677">
        <ele>164.8</ele>
        <time>2024-04-07T07:21:31Z</time>
      </trkpt>
      <trkpt lat="44.11344" lon="1.90671">
        <ele>164.6</ele>
        <time>2024-04-07T07:21:32Z</time>
      </trkpt>
      <trkpt lat="44.11344" lon="1.90671">
        <ele>164.2</ele>
        <time>2024-04-07T07:21:33Z</time>
      </trkpt>
      <trkpt lat="44.11355" lon="1.9066">
        <ele>164</ele>
        <time>2024-04-07T07:21:34Z</time>
      </trkpt>
      <trkpt lat="44.11361" lon="1.90656">
        <ele>163.8</ele>
        <time>2024-04-07T07:21:35Z</time>
      </trkpt>
      <trkpt lat="44.11365" lon="1.90654">
        <ele>163.4</ele>
        <time>2024-04-07T07:21:36Z</time>
      </trkpt>
      <trkpt lat="44.11371" lon="1.90651">
        <ele>163.2</ele>
        <time>2024-04-07T07:21:37Z</time>
      </trkpt>
      <trkpt lat="44.11377" lon="1.9065">
        <ele>163</ele>
        <time>2024-04-07T07:21:38Z</time>
      </trkpt>
      <trkpt lat="44.11385" lon="1.90648">
        <ele>162.6</ele>
        <time>2024-04-07T07:21:39Z</time>
      </trkpt>
      <trkpt lat="44.11391" lon="1.90647">
        <ele>162.4</ele>
        <time>2024-04-07T07:21:40Z</time>
      </trkpt>
      <trkpt lat="44.11396" lon="1.90646">
        <ele>162</ele>
        <time>2024-04-07T07:21:41Z</time>
      </trkpt>
      <trkpt lat="44.11403" lon="1.90644">
        <ele>161.8</ele>
        <time>2024-04-07T07:21:42Z</time>
      </trkpt>
      <trkpt lat="44.11409" lon="1.90642">
        <ele>161.6</ele>
        <time>2024-04-07T07:21:43Z</time>
      </trkpt>
      <trkpt lat="44.11416" lon="1.9064">
        <ele>161.4</ele>
        <time>2024-04-07T07:21:44Z</time>
      </trkpt>
      <trkpt lat="44.11423" lon="1.90638">
        <ele>160.8</ele>
        <time>2024-04-07T07:21:45Z</time>
      </trkpt>
      <trkpt lat="44.11429" lon="1.90635">
        <ele>160.6</ele>
        <time>2024-04-07T07:21:46Z</time>
      </trkpt>
      <trkpt lat="44.11436" lon="1.90633">
        <ele>160.4</ele>
        <time>2024-04-07T07:21:47Z</time>
      </trkpt>
      <trkpt lat="44.11443" lon="1.90632">
        <ele>160</ele>
        <time>2024-04-07T07:21:48Z</time>
      </trkpt>
      <trkpt lat="44.11443" lon="1.90632">
        <ele>159.6</ele>
        <time>2024-04-07T07:21:49Z</time>
      </trkpt>
      <trkpt lat="44.11457" lon="1.90628">
        <ele>159</ele>
        <time>2024-04-07T07:21:50Z</time>
      </trkpt>
      <trkpt lat="44.11463" lon="1.90626">
        <ele>158.8</ele>
        <time>2024-04-07T07:21:51Z</time>
      </trkpt>
      <trkpt lat="44.11463" lon="1.90626">
        <ele>158.2</ele>
        <time>2024-04-07T07:21:52Z</time>
      </trkpt>
      <trkpt lat="44.1147" lon="1.90624">
        <ele>157.8</ele>
        <time>2024-04-07T07:21:53Z</time>
      </trkpt>
      <trkpt lat="44.11483" lon="1.9062">
        <ele>157.4</ele>
        <time>2024-04-07T07:21:54Z</time>
      </trkpt>
      <trkpt lat="44.1149" lon="1.90619">
        <ele>157.2</ele>
        <time>2024-04-07T07:21:55Z</time>
      </trkpt>
      <trkpt lat="44.11497" lon="1.90617">
        <ele>156.8</ele>
        <time>2024-04-07T07:21:56Z</time>
      </trkpt>
      <trkpt lat="44.11504" lon="1.90615">
        <ele>156.2</ele>
        <time>2024-04-07T07:21:57Z</time>
      </trkpt>
      <trkpt lat="44.11511" lon="1.90614">
        <ele>156.2</ele>
        <time>2024-04-07T07:21:58Z</time>
      </trkpt>
      <trkpt lat="44.11518" lon="1.90612">
        <ele>155.8</ele>
        <time>2024-04-07T07:21:59Z</time>
      </trkpt>
      <trkpt lat="44.11525" lon="1.9061">
        <ele>155.8</ele>
        <time>2024-04-07T07:22:00Z</time>
      </trkpt>
      <trkpt lat="44.11532" lon="1.90609">
        <ele>155.6</ele>
        <time>2024-04-07T07:22:01Z</time>
      </trkpt>
      <trkpt lat="44.11538" lon="1.90607">
        <ele>155.2</ele>
        <time>2024-04-07T07:22:02Z</time>
      </trkpt>
      <trkpt lat="44.11545" lon="1.90605">
        <ele>154.8</ele>
        <time>2024-04-07T07:22:03Z</time>
      </trkpt>
      <trkpt lat="44.11551" lon="1.90604">
        <ele>154.4</ele>
        <time>2024-04-07T07:22:04Z</time>
      </trkpt>
      <trkpt lat="44.11558" lon="1.90604">
        <ele>153.8</ele>
        <time>2024-04-07T07:22:05Z</time>
      </trkpt>
      <trkpt lat="44.11563" lon="1.90605">
        <ele>153.6</ele>
        <time>2024-04-07T07:22:06Z</time>
      </trkpt>
      <trkpt lat="44.11565" lon="1.90608">
        <ele>153.6</ele>
        <time>2024-04-07T07:22:07Z</time>
      </trkpt>
      <trkpt lat="44.11567" lon="1.90612">
        <ele>153.4</ele>
        <time>2024-04-07T07:22:08Z</time>
      </trkpt>
      <trkpt lat="44.11568" lon="1.90617">
        <ele>153.4</ele>
        <time>2024-04-07T07:22:09Z</time>
      </trkpt>
      <trkpt lat="44.11569" lon="1.90622">
        <ele>153.2</ele>
        <time>2024-04-07T07:22:10Z</time>
      </trkpt>
      <trkpt lat="44.11571" lon="1.90627">
        <ele>153.2</ele>
        <time>2024-04-07T07:22:11Z</time>
      </trkpt>
      <trkpt lat="44.11573" lon="1.90632">
        <ele>153</ele>
        <time>2024-04-07T07:22:12Z</time>
      </trkpt>
      <trkpt lat="44.11575" lon="1.90638">
        <ele>152.8</ele>
        <time>2024-04-07T07:22:13Z</time>
      </trkpt>
      <trkpt lat="44.11577" lon="1.90643">
        <ele>152.6</ele>
        <time>2024-04-07T07:22:14Z</time>
      </trkpt>
      <trkpt lat="44.1158" lon="1.90648">
        <ele>152.6</ele>
        <time>2024-04-07T07:22:15Z</time>
      </trkpt>
      <trkpt lat="44.11582" lon="1.90653">
        <ele>152.6</ele>
        <time>2024-04-07T07:22:16Z</time>
      </trkpt>
      <trkpt lat="44.11585" lon="1.90658">
        <ele>152.6</ele>
        <time>2024-04-07T07:22:17Z</time>
      </trkpt>
      <trkpt lat="44.11588" lon="1.90662">
        <ele>152.6</ele>
        <time>2024-04-07T07:22:18Z</time>
      </trkpt>
      <trkpt lat="44.11591" lon="1.90668">
        <ele>152.8</ele>
        <time>2024-04-07T07:22:19Z</time>
      </trkpt>
      <trkpt lat="44.11594" lon="1.90672">
        <ele>152.8</ele>
        <time>2024-04-07T07:22:20Z</time>
      </trkpt>
      <trkpt lat="44.11598" lon="1.90677">
        <ele>153</ele>
        <time>2024-04-07T07:22:21Z</time>
      </trkpt>
      <trkpt lat="44.11602" lon="1.9068">
        <ele>153</ele>
        <time>2024-04-07T07:22:22Z</time>
      </trkpt>
      <trkpt lat="44.11606" lon="1.90683">
        <ele>153</ele>
        <time>2024-04-07T07:22:23Z</time>
      </trkpt>
      <trkpt lat="44.1161" lon="1.90686">
        <ele>153</ele>
        <time>2024-04-07T07:22:24Z</time>
      </trkpt>
      <trkpt lat="44.11615" lon="1.90687">
        <ele>153</ele>
        <time>2024-04-07T07:22:25Z</time>
      </trkpt>
      <trkpt lat="44.11621" lon="1.90687">
        <ele>153</ele>
        <time>2024-04-07T07:22:26Z</time>
      </trkpt>
      <trkpt lat="44.11626" lon="1.90687">
        <ele>153</ele>
        <time>2024-04-07T07:22:27Z</time>
      </trkpt>
      <trkpt lat="44.11631" lon="1.90687">
        <ele>153</ele>
        <time>2024-04-07T07:22:28Z</time>
      </trkpt>
      <trkpt lat="44.11636" lon="1.90687">
        <ele>153</ele>
        <time>2024-04-07T07:22:29Z</time>
      </trkpt>
      <trkpt lat="44.11641" lon="1.90687">
        <ele>153</ele>
        <time>2024-04-07T07:22:30Z</time>
      </trkpt>
      <trkpt lat="44.11646" lon="1.90687">
        <ele>153</ele>
        <time>2024-04-07T07:22:31Z</time>
      </trkpt>
      <trkpt lat="44.11651" lon="1.90687">
        <ele>152.8</ele>
        <time>2024-04-07T07:22:32Z</time>
      </trkpt>
      <trkpt lat="44.11654" lon="1.90688">
        <ele>152.6</ele>
        <time>2024-04-07T07:22:33Z</time>
      </trkpt>
      <trkpt lat="44.11657" lon="1.9069">
        <ele>152.6</ele>
        <time>2024-04-07T07:22:34Z</time>
      </trkpt>
      <trkpt lat="44.1166" lon="1.90691">
        <ele>152.6</ele>
        <time>2024-04-07T07:22:35Z</time>
      </trkpt>
      <trkpt lat="44.11662" lon="1.90691">
        <ele>152.6</ele>
        <time>2024-04-07T07:22:36Z</time>
      </trkpt>
      <trkpt lat="44.11663" lon="1.90693">
        <ele>152.4</ele>
        <time>2024-04-07T07:22:37Z</time>
      </trkpt>
      <trkpt lat="44.11664" lon="1.90694">
        <ele>152.4</ele>
        <time>2024-04-07T07:22:38Z</time>
      </trkpt>
      <trkpt lat="44.11665" lon="1.90695">
        <ele>152.2</ele>
        <time>2024-04-07T07:22:39Z</time>
      </trkpt>
      <trkpt lat="44.11666" lon="1.90696">
        <ele>152.2</ele>
        <time>2024-04-07T07:22:40Z</time>
      </trkpt>
      <trkpt lat="44.11668" lon="1.90696">
        <ele>152.2</ele>
        <time>2024-04-07T07:22:41Z</time>
      </trkpt>
      <trkpt lat="44.1167" lon="1.90696">
        <ele>152</ele>
        <time>2024-04-07T07:22:42Z</time>
      </trkpt>
      <trkpt lat="44.11673" lon="1.90697">
        <ele>152</ele>
        <time>2024-04-07T07:22:43Z</time>
      </trkpt>
      <trkpt lat="44.11676" lon="1.907">
        <ele>152</ele>
        <time>2024-04-07T07:22:44Z</time>
      </trkpt>
      <trkpt lat="44.1168" lon="1.90704">
        <ele>152</ele>
        <time>2024-04-07T07:22:45Z</time>
      </trkpt>
      <trkpt lat="44.11684" lon="1.90708">
        <ele>152</ele>
        <time>2024-04-07T07:22:46Z</time>
      </trkpt>
      <trkpt lat="44.11687" lon="1.90713">
        <ele>152</ele>
        <time>2024-04-07T07:22:47Z</time>
      </trkpt>
      <trkpt lat="44.11691" lon="1.90717">
        <ele>152</ele>
        <time>2024-04-07T07:22:48Z</time>
      </trkpt>
      <trkpt lat="44.11695" lon="1.9072">
        <ele>152</ele>
        <time>2024-04-07T07:22:49Z</time>
      </trkpt>
      <trkpt lat="44.11699" lon="1.90723">
        <ele>151.8</ele>
        <time>2024-04-07T07:22:50Z</time>
      </trkpt>
      <trkpt lat="44.11702" lon="1.90726">
        <ele>151.6</ele>
        <time>2024-04-07T07:22:51Z</time>
      </trkpt>
      <trkpt lat="44.11706" lon="1.90728">
        <ele>151.6</ele>
        <time>2024-04-07T07:22:52Z</time>
      </trkpt>
      <trkpt lat="44.11709" lon="1.9073">
        <ele>151.6</ele>
        <time>2024-04-07T07:22:53Z</time>
      </trkpt>
      <trkpt lat="44.11713" lon="1.90733">
        <ele>151.6</ele>
        <time>2024-04-07T07:22:54Z</time>
      </trkpt>
      <trkpt lat="44.11717" lon="1.90735">
        <ele>151.6</ele>
        <time>2024-04-07T07:22:55Z</time>
      </trkpt>
      <trkpt lat="44.11722" lon="1.90737">
        <ele>151.8</ele>
        <time>2024-04-07T07:22:56Z</time>
      </trkpt>
      <trkpt lat="44.11725" lon="1.9074">
        <ele>152</ele>
        <time>2024-04-07T07:22:57Z</time>
      </trkpt>
      <trkpt lat="44.1173" lon="1.90742">
        <ele>152</ele>
        <time>2024-04-07T07:22:58Z</time>
      </trkpt>
      <trkpt lat="44.11734" lon="1.90744">
        <ele>152.2</ele>
        <time>2024-04-07T07:22:59Z</time>
      </trkpt>
      <trkpt lat="44.11738" lon="1.90746">
        <ele>152.2</ele>
        <time>2024-04-07T07:23:00Z</time>
      </trkpt>
      <trkpt lat="44.11741" lon="1.90748">
        <ele>152.4</ele>
        <time>2024-04-07T07:23:01Z</time>
      </trkpt>
      <trkpt lat="44.11745" lon="1.90751">
        <ele>152.4</ele>
        <time>2024-04-07T07:23:02Z</time>
      </trkpt>
      <trkpt lat="44.11748" lon="1.90753">
        <ele>152.4</ele>
        <time>2024-04-07T07:23:03Z</time>
      </trkpt>
      <trkpt lat="44.11752" lon="1.90756">
        <ele>152.6</ele>
        <time>2024-04-07T07:23:04Z</time>
      </trkpt>
      <trkpt lat="44.11756" lon="1.90758">
        <ele>152.8</ele>
        <time>2024-04-07T07:23:05Z</time>
      </trkpt>
      <trkpt lat="44.11759" lon="1.90759">
        <ele>153</ele>
        <time>2024-04-07T07:23:06Z</time>
      </trkpt>
      <trkpt lat="44.11763" lon="1.90761">
        <ele>153.2</ele>
        <time>2024-04-07T07:23:07Z</time>
      </trkpt>
      <trkpt lat="44.11767" lon="1.90763">
        <ele>153.6</ele>
        <time>2024-04-07T07:23:08Z</time>
      </trkpt>
      <trkpt lat="44.11769" lon="1.90764">
        <ele>154</ele>
        <time>2024-04-07T07:23:09Z</time>
      </trkpt>
      <trkpt lat="44.11772" lon="1.90766">
        <ele>154.6</ele>
        <time>2024-04-07T07:23:10Z</time>
      </trkpt>
      <trkpt lat="44.11776" lon="1.90768">
        <ele>155.2</ele>
        <time>2024-04-07T07:23:11Z</time>
      </trkpt>
      <trkpt lat="44.1178" lon="1.9077">
        <ele>155.4</ele>
        <time>2024-04-07T07:23:12Z</time>
      </trkpt>
      <trkpt lat="44.11784" lon="1.9077">
        <ele>155.6</ele>
        <time>2024-04-07T07:23:13Z</time>
      </trkpt>
      <trkpt lat="44.11784" lon="1.9077">
        <ele>156</ele>
        <time>2024-04-07T07:23:14Z</time>
      </trkpt>
      <trkpt lat="44.11793" lon="1.90771">
        <ele>156.8</ele>
        <time>2024-04-07T07:23:15Z</time>
      </trkpt>
      <trkpt lat="44.11798" lon="1.90772">
        <ele>157</ele>
        <time>2024-04-07T07:23:16Z</time>
      </trkpt>
      <trkpt lat="44.11804" lon="1.90772">
        <ele>157.4</ele>
        <time>2024-04-07T07:23:17Z</time>
      </trkpt>
      <trkpt lat="44.11809" lon="1.90773">
        <ele>157.6</ele>
        <time>2024-04-07T07:23:18Z</time>
      </trkpt>
      <trkpt lat="44.11815" lon="1.90773">
        <ele>157.6</ele>
        <time>2024-04-07T07:23:19Z</time>
      </trkpt>
      <trkpt lat="44.11821" lon="1.90774">
        <ele>157.8</ele>
        <time>2024-04-07T07:23:20Z</time>
      </trkpt>
      <trkpt lat="44.11827" lon="1.90775">
        <ele>157.8</ele>
        <time>2024-04-07T07:23:21Z</time>
      </trkpt>
      <trkpt lat="44.11834" lon="1.90777">
        <ele>157.8</ele>
        <time>2024-04-07T07:23:22Z</time>
      </trkpt>
      <trkpt lat="44.1184" lon="1.9078">
        <ele>157.8</ele>
        <time>2024-04-07T07:23:23Z</time>
      </trkpt>
      <trkpt lat="44.11847" lon="1.90783">
        <ele>157.8</ele>
        <time>2024-04-07T07:23:24Z</time>
      </trkpt>
      <trkpt lat="44.11852" lon="1.90788">
        <ele>157.8</ele>
        <time>2024-04-07T07:23:25Z</time>
      </trkpt>
      <trkpt lat="44.11856" lon="1.90794">
        <ele>157.8</ele>
        <time>2024-04-07T07:23:26Z</time>
      </trkpt>
      <trkpt lat="44.1186" lon="1.90801">
        <ele>157.8</ele>
        <time>2024-04-07T07:23:27Z</time>
      </trkpt>
      <trkpt lat="44.11863" lon="1.90809">
        <ele>157.8</ele>
        <time>2024-04-07T07:23:28Z</time>
      </trkpt>
      <trkpt lat="44.11865" lon="1.90817">
        <ele>157.6</ele>
        <time>2024-04-07T07:23:29Z</time>
      </trkpt>
      <trkpt lat="44.11867" lon="1.90825">
        <ele>157.6</ele>
        <time>2024-04-07T07:23:30Z</time>
      </trkpt>
      <trkpt lat="44.11867" lon="1.90833">
        <ele>157.6</ele>
        <time>2024-04-07T07:23:31Z</time>
      </trkpt>
      <trkpt lat="44.11868" lon="1.9084">
        <ele>157.4</ele>
        <time>2024-04-07T07:23:32Z</time>
      </trkpt>
      <trkpt lat="44.11869" lon="1.90845">
        <ele>157.2</ele>
        <time>2024-04-07T07:23:33Z</time>
      </trkpt>
      <trkpt lat="44.1187" lon="1.90847">
        <ele>157.2</ele>
        <time>2024-04-07T07:23:34Z</time>
      </trkpt>
      <trkpt lat="44.11872" lon="1.90845">
        <ele>157.2</ele>
        <time>2024-04-07T07:23:35Z</time>
      </trkpt>
      <trkpt lat="44.11874" lon="1.9084">
        <ele>157.2</ele>
        <time>2024-04-07T07:23:36Z</time>
      </trkpt>
      <trkpt lat="44.11874" lon="1.90834">
        <ele>157</ele>
        <time>2024-04-07T07:23:37Z</time>
      </trkpt>
      <trkpt lat="44.11875" lon="1.90825">
        <ele>156.8</ele>
        <time>2024-04-07T07:23:38Z</time>
      </trkpt>
      <trkpt lat="44.11876" lon="1.90818">
        <ele>156.8</ele>
        <time>2024-04-07T07:23:39Z</time>
      </trkpt>
      <trkpt lat="44.11879" lon="1.90807">
        <ele>156.6</ele>
        <time>2024-04-07T07:23:40Z</time>
      </trkpt>
      <trkpt lat="44.11881" lon="1.90798">
        <ele>156.6</ele>
        <time>2024-04-07T07:23:41Z</time>
      </trkpt>
      <trkpt lat="44.11886" lon="1.90791">
        <ele>156.2</ele>
        <time>2024-04-07T07:23:42Z</time>
      </trkpt>
      <trkpt lat="44.11892" lon="1.90783">
        <ele>156</ele>
        <time>2024-04-07T07:23:43Z</time>
      </trkpt>
      <trkpt lat="44.11899" lon="1.90776">
        <ele>155</ele>
        <time>2024-04-07T07:23:44Z</time>
      </trkpt>
      <trkpt lat="44.11905" lon="1.9077">
        <ele>154.4</ele>
        <time>2024-04-07T07:23:45Z</time>
      </trkpt>
      <trkpt lat="44.11911" lon="1.90764">
        <ele>154.2</ele>
        <time>2024-04-07T07:23:46Z</time>
      </trkpt>
      <trkpt lat="44.11917" lon="1.90759">
        <ele>153.6</ele>
        <time>2024-04-07T07:23:47Z</time>
      </trkpt>
      <trkpt lat="44.11922" lon="1.90753">
        <ele>153.2</ele>
        <time>2024-04-07T07:23:48Z</time>
      </trkpt>
      <trkpt lat="44.11927" lon="1.90748">
        <ele>152.6</ele>
        <time>2024-04-07T07:23:49Z</time>
      </trkpt>
      <trkpt lat="44.11933" lon="1.90743">
        <ele>152.4</ele>
        <time>2024-04-07T07:23:50Z</time>
      </trkpt>
      <trkpt lat="44.11937" lon="1.90739">
        <ele>152.2</ele>
        <time>2024-04-07T07:23:51Z</time>
      </trkpt>
      <trkpt lat="44.11942" lon="1.90736">
        <ele>152</ele>
        <time>2024-04-07T07:23:52Z</time>
      </trkpt>
      <trkpt lat="44.11947" lon="1.90732">
        <ele>152</ele>
        <time>2024-04-07T07:23:53Z</time>
      </trkpt>
      <trkpt lat="44.11952" lon="1.90728">
        <ele>152.2</ele>
        <time>2024-04-07T07:23:54Z</time>
      </trkpt>
      <trkpt lat="44.11958" lon="1.90723">
        <ele>152.2</ele>
        <time>2024-04-07T07:23:55Z</time>
      </trkpt>
      <trkpt lat="44.11963" lon="1.90719">
        <ele>152.4</ele>
        <time>2024-04-07T07:23:56Z</time>
      </trkpt>
      <trkpt lat="44.11968" lon="1.90717">
        <ele>152.6</ele>
        <time>2024-04-07T07:23:57Z</time>
      </trkpt>
      <trkpt lat="44.11972" lon="1.90717">
        <ele>153</ele>
        <time>2024-04-07T07:23:58Z</time>
      </trkpt>
      <trkpt lat="44.11977" lon="1.9072">
        <ele>153</ele>
        <time>2024-04-07T07:23:59Z</time>
      </trkpt>
      <trkpt lat="44.11981" lon="1.90726">
        <ele>153.6</ele>
        <time>2024-04-07T07:24:00Z</time>
      </trkpt>
      <trkpt lat="44.11984" lon="1.90732">
        <ele>154</ele>
        <time>2024-04-07T07:24:01Z</time>
      </trkpt>
      <trkpt lat="44.11986" lon="1.90739">
        <ele>154.6</ele>
        <time>2024-04-07T07:24:02Z</time>
      </trkpt>
      <trkpt lat="44.11989" lon="1.90746">
        <ele>155</ele>
        <time>2024-04-07T07:24:03Z</time>
      </trkpt>
      <trkpt lat="44.11991" lon="1.90752">
        <ele>155.6</ele>
        <time>2024-04-07T07:24:04Z</time>
      </trkpt>
      <trkpt lat="44.11993" lon="1.90757">
        <ele>157.2</ele>
        <time>2024-04-07T07:24:05Z</time>
      </trkpt>
      <trkpt lat="44.11995" lon="1.90761">
        <ele>157.8</ele>
        <time>2024-04-07T07:24:06Z</time>
      </trkpt>
      <trkpt lat="44.11996" lon="1.90765">
        <ele>158.4</ele>
        <time>2024-04-07T07:24:07Z</time>
      </trkpt>
      <trkpt lat="44.11998" lon="1.90767">
        <ele>158.6</ele>
        <time>2024-04-07T07:24:08Z</time>
      </trkpt>
      <trkpt lat="44.11999" lon="1.90768">
        <ele>159</ele>
        <time>2024-04-07T07:24:09Z</time>
      </trkpt>
      <trkpt lat="44.12001" lon="1.90768">
        <ele>159.2</ele>
        <time>2024-04-07T07:24:10Z</time>
      </trkpt>
      <trkpt lat="44.12003" lon="1.90768">
        <ele>159.8</ele>
        <time>2024-04-07T07:24:11Z</time>
      </trkpt>
      <trkpt lat="44.12004" lon="1.90767">
        <ele>160</ele>
        <time>2024-04-07T07:24:12Z</time>
      </trkpt>
      <trkpt lat="44.12005" lon="1.90765">
        <ele>160.6</ele>
        <time>2024-04-07T07:24:13Z</time>
      </trkpt>
      <trkpt lat="44.12007" lon="1.90765">
        <ele>161</ele>
        <time>2024-04-07T07:24:14Z</time>
      </trkpt>
      <trkpt lat="44.12009" lon="1.90765">
        <ele>161.6</ele>
        <time>2024-04-07T07:24:15Z</time>
      </trkpt>
      <trkpt lat="44.1201" lon="1.90765">
        <ele>162.2</ele>
        <time>2024-04-07T07:24:16Z</time>
      </trkpt>
      <trkpt lat="44.12012" lon="1.90766">
        <ele>162.4</ele>
        <time>2024-04-07T07:24:17Z</time>
      </trkpt>
      <trkpt lat="44.12013" lon="1.90765">
        <ele>163.2</ele>
        <time>2024-04-07T07:24:18Z</time>
      </trkpt>
      <trkpt lat="44.12014" lon="1.90765">
        <ele>163.8</ele>
        <time>2024-04-07T07:24:19Z</time>
      </trkpt>
      <trkpt lat="44.12014" lon="1.90765">
        <ele>164.8</ele>
        <time>2024-04-07T07:24:20Z</time>
      </trkpt>
      <trkpt lat="44.12015" lon="1.90763">
        <ele>165.2</ele>
        <time>2024-04-07T07:24:21Z</time>
      </trkpt>
      <trkpt lat="44.12016" lon="1.90761">
        <ele>165.8</ele>
        <time>2024-04-07T07:24:22Z</time>
      </trkpt>
      <trkpt lat="44.12017" lon="1.90759">
        <ele>166.2</ele>
        <time>2024-04-07T07:24:23Z</time>
      </trkpt>
      <trkpt lat="44.12018" lon="1.90756">
        <ele>166.4</ele>
        <time>2024-04-07T07:24:24Z</time>
      </trkpt>
      <trkpt lat="44.12019" lon="1.90752">
        <ele>167.6</ele>
        <time>2024-04-07T07:24:25Z</time>
      </trkpt>
      <trkpt lat="44.1202" lon="1.90749">
        <ele>168.2</ele>
        <time>2024-04-07T07:24:26Z</time>
      </trkpt>
      <trkpt lat="44.12021" lon="1.90745">
        <ele>169</ele>
        <time>2024-04-07T07:24:27Z</time>
      </trkpt>
      <trkpt lat="44.12021" lon="1.90742">
        <ele>169.2</ele>
        <time>2024-04-07T07:24:28Z</time>
      </trkpt>
      <trkpt lat="44.12022" lon="1.90738">
        <ele>169.6</ele>
        <time>2024-04-07T07:24:29Z</time>
      </trkpt>
      <trkpt lat="44.12022" lon="1.90734">
        <ele>169.8</ele>
        <time>2024-04-07T07:24:30Z</time>
      </trkpt>
      <trkpt lat="44.12022" lon="1.9073">
        <ele>170.4</ele>
        <time>2024-04-07T07:24:31Z</time>
      </trkpt>
      <trkpt lat="44.12023" lon="1.90727">
        <ele>171.2</ele>
        <time>2024-04-07T07:24:32Z</time>
      </trkpt>
      <trkpt lat="44.12023" lon="1.90724">
        <ele>171.8</ele>
        <time>2024-04-07T07:24:33Z</time>
      </trkpt>
      <trkpt lat="44.12024" lon="1.9072">
        <ele>172.4</ele>
        <time>2024-04-07T07:24:34Z</time>
      </trkpt>
      <trkpt lat="44.12024" lon="1.90717">
        <ele>172.6</ele>
        <time>2024-04-07T07:24:35Z</time>
      </trkpt>
      <trkpt lat="44.12025" lon="1.90713">
        <ele>173.2</ele>
        <time>2024-04-07T07:24:36Z</time>
      </trkpt>
      <trkpt lat="44.12025" lon="1.9071">
        <ele>173.6</ele>
        <time>2024-04-07T07:24:37Z</time>
      </trkpt>
      <trkpt lat="44.12025" lon="1.90708">
        <ele>174.2</ele>
        <time>2024-04-07T07:24:38Z</time>
      </trkpt>
      <trkpt lat="44.12026" lon="1.90705">
        <ele>174.8</ele>
        <time>2024-04-07T07:24:39Z</time>
      </trkpt>
      <trkpt lat="44.12026" lon="1.90702">
        <ele>175.4</ele>
        <time>2024-04-07T07:24:40Z</time>
      </trkpt>
      <trkpt lat="44.12027" lon="1.907">
        <ele>176</ele>
        <time>2024-04-07T07:24:41Z</time>
      </trkpt>
      <trkpt lat="44.12027" lon="1.90697">
        <ele>176.2</ele>
        <time>2024-04-07T07:24:42Z</time>
      </trkpt>
      <trkpt lat="44.12027" lon="1.90695">
        <ele>176.8</ele>
        <time>2024-04-07T07:24:43Z</time>
      </trkpt>
      <trkpt lat="44.12027" lon="1.90693">
        <ele>177.2</ele>
        <time>2024-04-07T07:24:44Z</time>
      </trkpt>
      <trkpt lat="44.12027" lon="1.9069">
        <ele>177.8</ele>
        <time>2024-04-07T07:24:45Z</time>
      </trkpt>
      <trkpt lat="44.12027" lon="1.90687">
        <ele>178.2</ele>
        <time>2024-04-07T07:24:46Z</time>
      </trkpt>
      <trkpt lat="44.12027" lon="1.90685">
        <ele>179</ele>
        <time>2024-04-07T07:24:47Z</time>
      </trkpt>
      <trkpt lat="44.12028" lon="1.90682">
        <ele>179.2</ele>
        <time>2024-04-07T07:24:48Z</time>
      </trkpt>
      <trkpt lat="44.12028" lon="1.90679">
        <ele>179.8</ele>
        <time>2024-04-07T07:24:49Z</time>
      </trkpt>
      <trkpt lat="44.12027" lon="1.90676">
        <ele>180.2</ele>
        <time>2024-04-07T07:24:50Z</time>
      </trkpt>
      <trkpt lat="44.12028" lon="1.90673">
        <ele>180.4</ele>
        <time>2024-04-07T07:24:51Z</time>
      </trkpt>
      <trkpt lat="44.12028" lon="1.9067">
        <ele>180.8</ele>
        <time>2024-04-07T07:24:52Z</time>
      </trkpt>
      <trkpt lat="44.12028" lon="1.90667">
        <ele>181.2</ele>
        <time>2024-04-07T07:24:53Z</time>
      </trkpt>
      <trkpt lat="44.12028" lon="1.90663">
        <ele>181.8</ele>
        <time>2024-04-07T07:24:54Z</time>
      </trkpt>
      <trkpt lat="44.12028" lon="1.9066">
        <ele>182.2</ele>
        <time>2024-04-07T07:24:55Z</time>
      </trkpt>
      <trkpt lat="44.12029" lon="1.90657">
        <ele>182.6</ele>
        <time>2024-04-07T07:24:56Z</time>
      </trkpt>
      <trkpt lat="44.12029" lon="1.90653">
        <ele>183</ele>
        <time>2024-04-07T07:24:57Z</time>
      </trkpt>
      <trkpt lat="44.12028" lon="1.90649">
        <ele>183.8</ele>
        <time>2024-04-07T07:24:58Z</time>
      </trkpt>
      <trkpt lat="44.12028" lon="1.90645">
        <ele>184.4</ele>
        <time>2024-04-07T07:24:59Z</time>
      </trkpt>
      <trkpt lat="44.12028" lon="1.90642">
        <ele>184.4</ele>
        <time>2024-04-07T07:25:00Z</time>
      </trkpt>
      <trkpt lat="44.12028" lon="1.90638">
        <ele>185.2</ele>
        <time>2024-04-07T07:25:01Z</time>
      </trkpt>
      <trkpt lat="44.12028" lon="1.90634">
        <ele>185.6</ele>
        <time>2024-04-07T07:25:02Z</time>
      </trkpt>
      <trkpt lat="44.12028" lon="1.9063">
        <ele>186.4</ele>
        <time>2024-04-07T07:25:03Z</time>
      </trkpt>
      <trkpt lat="44.12028" lon="1.90627">
        <ele>186.8</ele>
        <time>2024-04-07T07:25:04Z</time>
      </trkpt>
      <trkpt lat="44.12029" lon="1.90624">
        <ele>187.4</ele>
        <time>2024-04-07T07:25:05Z</time>
      </trkpt>
      <trkpt lat="44.1203" lon="1.90621">
        <ele>187.6</ele>
        <time>2024-04-07T07:25:06Z</time>
      </trkpt>
      <trkpt lat="44.1203" lon="1.90618">
        <ele>188.2</ele>
        <time>2024-04-07T07:25:07Z</time>
      </trkpt>
      <trkpt lat="44.12031" lon="1.90614">
        <ele>188.8</ele>
        <time>2024-04-07T07:25:08Z</time>
      </trkpt>
      <trkpt lat="44.12031" lon="1.90612">
        <ele>189</ele>
        <time>2024-04-07T07:25:09Z</time>
      </trkpt>
      <trkpt lat="44.12032" lon="1.9061">
        <ele>189.8</ele>
        <time>2024-04-07T07:25:10Z</time>
      </trkpt>
      <trkpt lat="44.12032" lon="1.90608">
        <ele>190.2</ele>
        <time>2024-04-07T07:25:11Z</time>
      </trkpt>
      <trkpt lat="44.12032" lon="1.90606">
        <ele>190.6</ele>
        <time>2024-04-07T07:25:12Z</time>
      </trkpt>
      <trkpt lat="44.12032" lon="1.90604">
        <ele>191</ele>
        <time>2024-04-07T07:25:13Z</time>
      </trkpt>
      <trkpt lat="44.12031" lon="1.90601">
        <ele>191.2</ele>
        <time>2024-04-07T07:25:14Z</time>
      </trkpt>
      <trkpt lat="44.12031" lon="1.90598">
        <ele>191.4</ele>
        <time>2024-04-07T07:25:15Z</time>
      </trkpt>
      <trkpt lat="44.12032" lon="1.90596">
        <ele>191.8</ele>
        <time>2024-04-07T07:25:16Z</time>
      </trkpt>
      <trkpt lat="44.12032" lon="1.90593">
        <ele>191.8</ele>
        <time>2024-04-07T07:25:17Z</time>
      </trkpt>
      <trkpt lat="44.12033" lon="1.9059">
        <ele>192</ele>
        <time>2024-04-07T07:25:18Z</time>
      </trkpt>
      <trkpt lat="44.12033" lon="1.90586">
        <ele>192.2</ele>
        <time>2024-04-07T07:25:19Z</time>
      </trkpt>
      <trkpt lat="44.12033" lon="1.90583">
        <ele>192.6</ele>
        <time>2024-04-07T07:25:20Z</time>
      </trkpt>
      <trkpt lat="44.12034" lon="1.90581">
        <ele>193.2</ele>
        <time>2024-04-07T07:25:21Z</time>
      </trkpt>
      <trkpt lat="44.12034" lon="1.90579">
        <ele>193.4</ele>
        <time>2024-04-07T07:25:22Z</time>
      </trkpt>
      <trkpt lat="44.12034" lon="1.90576">
        <ele>193.6</ele>
        <time>2024-04-07T07:25:23Z</time>
      </trkpt>
      <trkpt lat="44.12034" lon="1.90573">
        <ele>193.6</ele>
        <time>2024-04-07T07:25:24Z</time>
      </trkpt>
      <trkpt lat="44.12035" lon="1.90571">
        <ele>194</ele>
        <time>2024-04-07T07:25:25Z</time>
      </trkpt>
      <trkpt lat="44.12036" lon="1.90569">
        <ele>194.2</ele>
        <time>2024-04-07T07:25:26Z</time>
      </trkpt>
      <trkpt lat="44.12038" lon="1.90569">
        <ele>194.4</ele>
        <time>2024-04-07T07:25:27Z</time>
      </trkpt>
      <trkpt lat="44.12039" lon="1.90568">
        <ele>194.8</ele>
        <time>2024-04-07T07:25:28Z</time>
      </trkpt>
      <trkpt lat="44.12041" lon="1.90567">
        <ele>195</ele>
        <time>2024-04-07T07:25:29Z</time>
      </trkpt>
      <trkpt lat="44.12042" lon="1.90567">
        <ele>195.2</ele>
        <time>2024-04-07T07:25:30Z</time>
      </trkpt>
      <trkpt lat="44.12043" lon="1.90566">
        <ele>195.4</ele>
        <time>2024-04-07T07:25:31Z</time>
      </trkpt>
      <trkpt lat="44.12044" lon="1.90565">
        <ele>195.6</ele>
        <time>2024-04-07T07:25:32Z</time>
      </trkpt>
      <trkpt lat="44.12045" lon="1.90564">
        <ele>195.8</ele>
        <time>2024-04-07T07:25:33Z</time>
      </trkpt>
      <trkpt lat="44.12046" lon="1.90563">
        <ele>196</ele>
        <time>2024-04-07T07:25:34Z</time>
      </trkpt>
      <trkpt lat="44.12047" lon="1.90562">
        <ele>196.2</ele>
        <time>2024-04-07T07:25:35Z</time>
      </trkpt>
      <trkpt lat="44.12048" lon="1.90561">
        <ele>196.4</ele>
        <time>2024-04-07T07:25:36Z</time>
      </trkpt>
      <trkpt lat="44.12049" lon="1.9056">
        <ele>196.6</ele>
        <time>2024-04-07T07:25:37Z</time>
      </trkpt>
      <trkpt lat="44.12049" lon="1.9056">
        <ele>196.8</ele>
        <time>2024-04-07T07:25:38Z</time>
      </trkpt>
      <trkpt lat="44.12049" lon="1.90559">
        <ele>197</ele>
        <time>2024-04-07T07:25:39Z</time>
      </trkpt>
      <trkpt lat="44.1205" lon="1.90558">
        <ele>197.2</ele>
        <time>2024-04-07T07:25:40Z</time>
      </trkpt>
      <trkpt lat="44.12051" lon="1.90557">
        <ele>197.2</ele>
        <time>2024-04-07T07:25:41Z</time>
      </trkpt>
      <trkpt lat="44.12052" lon="1.90557">
        <ele>197.4</ele>
        <time>2024-04-07T07:25:42Z</time>
      </trkpt>
      <trkpt lat="44.12052" lon="1.90556">
        <ele>197.6</ele>
        <time>2024-04-07T07:25:43Z</time>
      </trkpt>
      <trkpt lat="44.12052" lon="1.90554">
        <ele>198</ele>
        <time>2024-04-07T07:25:44Z</time>
      </trkpt>
      <trkpt lat="44.12052" lon="1.90553">
        <ele>198</ele>
        <time>2024-04-07T07:25:45Z</time>
      </trkpt>
      <trkpt lat="44.12053" lon="1.90552">
        <ele>198.2</ele>
        <time>2024-04-07T07:25:46Z</time>
      </trkpt>
      <trkpt lat="44.12053" lon="1.9055">
        <ele>198.2</ele>
        <time>2024-04-07T07:25:47Z</time>
      </trkpt>
      <trkpt lat="44.12054" lon="1.90549">
        <ele>198.4</ele>
        <time>2024-04-07T07:25:48Z</time>
      </trkpt>
      <trkpt lat="44.12055" lon="1.90547">
        <ele>198.6</ele>
        <time>2024-04-07T07:25:49Z</time>
      </trkpt>
      <trkpt lat="44.12055" lon="1.90546">
        <ele>199</ele>
        <time>2024-04-07T07:25:50Z</time>
      </trkpt>
      <trkpt lat="44.12055" lon="1.90545">
        <ele>199.2</ele>
        <time>2024-04-07T07:25:51Z</time>
      </trkpt>
      <trkpt lat="44.12056" lon="1.90544">
        <ele>199.4</ele>
        <time>2024-04-07T07:25:52Z</time>
      </trkpt>
      <trkpt lat="44.12056" lon="1.90542">
        <ele>199.4</ele>
        <time>2024-04-07T07:25:53Z</time>
      </trkpt>
      <trkpt lat="44.12057" lon="1.90541">
        <ele>199.6</ele>
        <time>2024-04-07T07:25:54Z</time>
      </trkpt>
      <trkpt lat="44.12057" lon="1.90539">
        <ele>199.8</ele>
        <time>2024-04-07T07:25:55Z</time>
      </trkpt>
      <trkpt lat="44.12058" lon="1.90538">
        <ele>200</ele>
        <time>2024-04-07T07:25:56Z</time>
      </trkpt>
      <trkpt lat="44.12058" lon="1.90536">
        <ele>200.2</ele>
        <time>2024-04-07T07:25:57Z</time>
      </trkpt>
      <trkpt lat="44.12059" lon="1.90535">
        <ele>200.2</ele>
        <time>2024-04-07T07:25:58Z</time>
      </trkpt>
      <trkpt lat="44.12059" lon="1.90534">
        <ele>200.4</ele>
        <time>2024-04-07T07:25:59Z</time>
      </trkpt>
      <trkpt lat="44.1206" lon="1.90533">
        <ele>200.6</ele>
        <time>2024-04-07T07:26:00Z</time>
      </trkpt>
      <trkpt lat="44.1206" lon="1.90532">
        <ele>200.8</ele>
        <time>2024-04-07T07:26:01Z</time>
      </trkpt>
      <trkpt lat="44.12061" lon="1.9053">
        <ele>201</ele>
        <time>2024-04-07T07:26:02Z</time>
      </trkpt>
      <trkpt lat="44.12062" lon="1.90529">
        <ele>201.2</ele>
        <time>2024-04-07T07:26:03Z</time>
      </trkpt>
      <trkpt lat="44.12062" lon="1.90528">
        <ele>201.4</ele>
        <time>2024-04-07T07:26:04Z</time>
      </trkpt>
      <trkpt lat="44.12062" lon="1.90526">
        <ele>201.4</ele>
        <time>2024-04-07T07:26:05Z</time>
      </trkpt>
      <trkpt lat="44.12063" lon="1.90525">
        <ele>201.6</ele>
        <time>2024-04-07T07:26:06Z</time>
      </trkpt>
      <trkpt lat="44.12064" lon="1.90521">
        <ele>201.8</ele>
        <time>2024-04-07T07:26:07Z</time>
      </trkpt>
      <trkpt lat="44.12064" lon="1.90519">
        <ele>202</ele>
        <time>2024-04-07T07:26:08Z</time>
      </trkpt>
      <trkpt lat="44.12065" lon="1.90517">
        <ele>202</ele>
        <time>2024-04-07T07:26:09Z</time>
      </trkpt>
      <trkpt lat="44.12065" lon="1.90514">
        <ele>202.4</ele>
        <time>2024-04-07T07:26:10Z</time>
      </trkpt>
      <trkpt lat="44.12066" lon="1.90512">
        <ele>202.6</ele>
        <time>2024-04-07T07:26:11Z</time>
      </trkpt>
      <trkpt lat="44.12066" lon="1.90509">
        <ele>202.8</ele>
        <time>2024-04-07T07:26:12Z</time>
      </trkpt>
      <trkpt lat="44.12067" lon="1.90506">
        <ele>203.4</ele>
        <time>2024-04-07T07:26:13Z</time>
      </trkpt>
      <trkpt lat="44.12067" lon="1.90503">
        <ele>203.6</ele>
        <time>2024-04-07T07:26:14Z</time>
      </trkpt>
      <trkpt lat="44.12068" lon="1.90502">
        <ele>204</ele>
        <time>2024-04-07T07:26:15Z</time>
      </trkpt>
      <trkpt lat="44.12069" lon="1.905">
        <ele>204.2</ele>
        <time>2024-04-07T07:26:16Z</time>
      </trkpt>
      <trkpt lat="44.12069" lon="1.90498">
        <ele>204.4</ele>
        <time>2024-04-07T07:26:17Z</time>
      </trkpt>
      <trkpt lat="44.1207" lon="1.90495">
        <ele>204.6</ele>
        <time>2024-04-07T07:26:18Z</time>
      </trkpt>
      <trkpt lat="44.12071" lon="1.90493">
        <ele>205</ele>
        <time>2024-04-07T07:26:19Z</time>
      </trkpt>
      <trkpt lat="44.12071" lon="1.90491">
        <ele>205.4</ele>
        <time>2024-04-07T07:26:20Z</time>
      </trkpt>
      <trkpt lat="44.12072" lon="1.90489">
        <ele>205.4</ele>
        <time>2024-04-07T07:26:21Z</time>
      </trkpt>
      <trkpt lat="44.12072" lon="1.90488">
        <ele>205.8</ele>
        <time>2024-04-07T07:26:22Z</time>
      </trkpt>
      <trkpt lat="44.12072" lon="1.90486">
        <ele>206</ele>
        <time>2024-04-07T07:26:23Z</time>
      </trkpt>
      <trkpt lat="44.12072" lon="1.90485">
        <ele>206.2</ele>
        <time>2024-04-07T07:26:24Z</time>
      </trkpt>
      <trkpt lat="44.12073" lon="1.90483">
        <ele>206.2</ele>
        <time>2024-04-07T07:26:25Z</time>
      </trkpt>
      <trkpt lat="44.12073" lon="1.90481">
        <ele>206.4</ele>
        <time>2024-04-07T07:26:26Z</time>
      </trkpt>
      <trkpt lat="44.12074" lon="1.90479">
        <ele>206.4</ele>
        <time>2024-04-07T07:26:27Z</time>
      </trkpt>
      <trkpt lat="44.12074" lon="1.90477">
        <ele>206.6</ele>
        <time>2024-04-07T07:26:28Z</time>
      </trkpt>
      <trkpt lat="44.12075" lon="1.90476">
        <ele>206.6</ele>
        <time>2024-04-07T07:26:29Z</time>
      </trkpt>
      <trkpt lat="44.12075" lon="1.90474">
        <ele>206.8</ele>
        <time>2024-04-07T07:26:30Z</time>
      </trkpt>
      <trkpt lat="44.12076" lon="1.90472">
        <ele>206.8</ele>
        <time>2024-04-07T07:26:31Z</time>
      </trkpt>
      <trkpt lat="44.12077" lon="1.9047">
        <ele>206.8</ele>
        <time>2024-04-07T07:26:32Z</time>
      </trkpt>
      <trkpt lat="44.12077" lon="1.90469">
        <ele>207</ele>
        <time>2024-04-07T07:26:33Z</time>
      </trkpt>
      <trkpt lat="44.12078" lon="1.90467">
        <ele>207.2</ele>
        <time>2024-04-07T07:26:34Z</time>
      </trkpt>
      <trkpt lat="44.12078" lon="1.90465">
        <ele>207.4</ele>
        <time>2024-04-07T07:26:35Z</time>
      </trkpt>
      <trkpt lat="44.12079" lon="1.90463">
        <ele>207.4</ele>
        <time>2024-04-07T07:26:36Z</time>
      </trkpt>
      <trkpt lat="44.12079" lon="1.90462">
        <ele>207.6</ele>
        <time>2024-04-07T07:26:37Z</time>
      </trkpt>
      <trkpt lat="44.12079" lon="1.9046">
        <ele>207.8</ele>
        <time>2024-04-07T07:26:38Z</time>
      </trkpt>
      <trkpt lat="44.1208" lon="1.90458">
        <ele>207.8</ele>
        <time>2024-04-07T07:26:39Z</time>
      </trkpt>
      <trkpt lat="44.1208" lon="1.90456">
        <ele>207.8</ele>
        <time>2024-04-07T07:26:40Z</time>
      </trkpt>
      <trkpt lat="44.12081" lon="1.90453">
        <ele>208</ele>
        <time>2024-04-07T07:26:41Z</time>
      </trkpt>
      <trkpt lat="44.12081" lon="1.90451">
        <ele>208.2</ele>
        <time>2024-04-07T07:26:42Z</time>
      </trkpt>
      <trkpt lat="44.12082" lon="1.90448">
        <ele>208.2</ele>
        <time>2024-04-07T07:26:43Z</time>
      </trkpt>
      <trkpt lat="44.12083" lon="1.90447">
        <ele>208.4</ele>
        <time>2024-04-07T07:26:44Z</time>
      </trkpt>
      <trkpt lat="44.12083" lon="1.90445">
        <ele>208.6</ele>
        <time>2024-04-07T07:26:45Z</time>
      </trkpt>
      <trkpt lat="44.12084" lon="1.90443">
        <ele>208.8</ele>
        <time>2024-04-07T07:26:46Z</time>
      </trkpt>
      <trkpt lat="44.12085" lon="1.9044">
        <ele>208.8</ele>
        <time>2024-04-07T07:26:47Z</time>
      </trkpt>
      <trkpt lat="44.12085" lon="1.9044">
        <ele>209</ele>
        <time>2024-04-07T07:26:48Z</time>
      </trkpt>
      <trkpt lat="44.12086" lon="1.90436">
        <ele>209</ele>
        <time>2024-04-07T07:26:49Z</time>
      </trkpt>
      <trkpt lat="44.12087" lon="1.90435">
        <ele>209</ele>
        <time>2024-04-07T07:26:50Z</time>
      </trkpt>
      <trkpt lat="44.12087" lon="1.90433">
        <ele>209.2</ele>
        <time>2024-04-07T07:26:51Z</time>
      </trkpt>
      <trkpt lat="44.12087" lon="1.90431">
        <ele>209.2</ele>
        <time>2024-04-07T07:26:52Z</time>
      </trkpt>
      <trkpt lat="44.12088" lon="1.90429">
        <ele>209.2</ele>
        <time>2024-04-07T07:26:53Z</time>
      </trkpt>
      <trkpt lat="44.12088" lon="1.90426">
        <ele>209.4</ele>
        <time>2024-04-07T07:26:54Z</time>
      </trkpt>
      <trkpt lat="44.12088" lon="1.90424">
        <ele>209.6</ele>
        <time>2024-04-07T07:26:55Z</time>
      </trkpt>
      <trkpt lat="44.12089" lon="1.90422">
        <ele>209.6</ele>
        <time>2024-04-07T07:26:56Z</time>
      </trkpt>
      <trkpt lat="44.12089" lon="1.9042">
        <ele>209.6</ele>
        <time>2024-04-07T07:26:57Z</time>
      </trkpt>
      <trkpt lat="44.12089" lon="1.90418">
        <ele>209.8</ele>
        <time>2024-04-07T07:26:58Z</time>
      </trkpt>
      <trkpt lat="44.12089" lon="1.90415">
        <ele>209.8</ele>
        <time>2024-04-07T07:26:59Z</time>
      </trkpt>
      <trkpt lat="44.12089" lon="1.90415">
        <ele>210</ele>
        <time>2024-04-07T07:27:00Z</time>
      </trkpt>
      <trkpt lat="44.1209" lon="1.90411">
        <ele>210</ele>
        <time>2024-04-07T07:27:01Z</time>
      </trkpt>
      <trkpt lat="44.1209" lon="1.90408">
        <ele>210</ele>
        <time>2024-04-07T07:27:02Z</time>
      </trkpt>
      <trkpt lat="44.1209" lon="1.90406">
        <ele>210.2</ele>
        <time>2024-04-07T07:27:03Z</time>
      </trkpt>
      <trkpt lat="44.12091" lon="1.90404">
        <ele>210</ele>
        <time>2024-04-07T07:27:04Z</time>
      </trkpt>
      <trkpt lat="44.12091" lon="1.90402">
        <ele>210.2</ele>
        <time>2024-04-07T07:27:05Z</time>
      </trkpt>
      <trkpt lat="44.12091" lon="1.90402">
        <ele>210.4</ele>
        <time>2024-04-07T07:27:06Z</time>
      </trkpt>
      <trkpt lat="44.12092" lon="1.90398">
        <ele>210.6</ele>
        <time>2024-04-07T07:27:07Z</time>
      </trkpt>
      <trkpt lat="44.12092" lon="1.90395">
        <ele>210.8</ele>
        <time>2024-04-07T07:27:08Z</time>
      </trkpt>
      <trkpt lat="44.12093" lon="1.90392">
        <ele>210.6</ele>
        <time>2024-04-07T07:27:09Z</time>
      </trkpt>
      <trkpt lat="44.12093" lon="1.9039">
        <ele>210.6</ele>
        <time>2024-04-07T07:27:10Z</time>
      </trkpt>
      <trkpt lat="44.12094" lon="1.90387">
        <ele>210.8</ele>
        <time>2024-04-07T07:27:11Z</time>
      </trkpt>
      <trkpt lat="44.12095" lon="1.90386">
        <ele>211</ele>
        <time>2024-04-07T07:27:12Z</time>
      </trkpt>
      <trkpt lat="44.12095" lon="1.90383">
        <ele>211.2</ele>
        <time>2024-04-07T07:27:13Z</time>
      </trkpt>
      <trkpt lat="44.12096" lon="1.9038">
        <ele>211.4</ele>
        <time>2024-04-07T07:27:14Z</time>
      </trkpt>
      <trkpt lat="44.12097" lon="1.90378">
        <ele>211.6</ele>
        <time>2024-04-07T07:27:15Z</time>
      </trkpt>
      <trkpt lat="44.12098" lon="1.90374">
        <ele>211.6</ele>
        <time>2024-04-07T07:27:16Z</time>
      </trkpt>
      <trkpt lat="44.12098" lon="1.90374">
        <ele>211.8</ele>
        <time>2024-04-07T07:27:17Z</time>
      </trkpt>
      <trkpt lat="44.121" lon="1.90368">
        <ele>211.8</ele>
        <time>2024-04-07T07:27:18Z</time>
      </trkpt>
      <trkpt lat="44.12102" lon="1.90365">
        <ele>211.8</ele>
        <time>2024-04-07T07:27:19Z</time>
      </trkpt>
      <trkpt lat="44.12103" lon="1.90362">
        <ele>211.8</ele>
        <time>2024-04-07T07:27:20Z</time>
      </trkpt>
      <trkpt lat="44.12104" lon="1.90359">
        <ele>212</ele>
        <time>2024-04-07T07:27:21Z</time>
      </trkpt>
      <trkpt lat="44.12106" lon="1.90356">
        <ele>212</ele>
        <time>2024-04-07T07:27:22Z</time>
      </trkpt>
      <trkpt lat="44.12106" lon="1.90352">
        <ele>212</ele>
        <time>2024-04-07T07:27:23Z</time>
      </trkpt>
      <trkpt lat="44.12107" lon="1.90349">
        <ele>211.8</ele>
        <time>2024-04-07T07:27:24Z</time>
      </trkpt>
      <trkpt lat="44.12107" lon="1.90345">
        <ele>211.8</ele>
        <time>2024-04-07T07:27:25Z</time>
      </trkpt>
      <trkpt lat="44.12108" lon="1.90343">
        <ele>211.8</ele>
        <time>2024-04-07T07:27:26Z</time>
      </trkpt>
      <trkpt lat="44.12108" lon="1.90341">
        <ele>212</ele>
        <time>2024-04-07T07:27:27Z</time>
      </trkpt>
      <trkpt lat="44.12109" lon="1.90339">
        <ele>212</ele>
        <time>2024-04-07T07:27:28Z</time>
      </trkpt>
      <trkpt lat="44.12109" lon="1.90336">
        <ele>212</ele>
        <time>2024-04-07T07:27:29Z</time>
      </trkpt>
      <trkpt lat="44.1211" lon="1.90333">
        <ele>212</ele>
        <time>2024-04-07T07:27:30Z</time>
      </trkpt>
      <trkpt lat="44.1211" lon="1.9033">
        <ele>212.2</ele>
        <time>2024-04-07T07:27:31Z</time>
      </trkpt>
      <trkpt lat="44.12111" lon="1.90328">
        <ele>212.4</ele>
        <time>2024-04-07T07:27:32Z</time>
      </trkpt>
      <trkpt lat="44.12111" lon="1.90325">
        <ele>212.4</ele>
        <time>2024-04-07T07:27:33Z</time>
      </trkpt>
      <trkpt lat="44.12112" lon="1.90322">
        <ele>212.6</ele>
        <time>2024-04-07T07:27:34Z</time>
      </trkpt>
      <trkpt lat="44.12112" lon="1.9032">
        <ele>212.8</ele>
        <time>2024-04-07T07:27:35Z</time>
      </trkpt>
      <trkpt lat="44.12113" lon="1.90318">
        <ele>213</ele>
        <time>2024-04-07T07:27:36Z</time>
      </trkpt>
      <trkpt lat="44.12114" lon="1.90316">
        <ele>213</ele>
        <time>2024-04-07T07:27:37Z</time>
      </trkpt>
      <trkpt lat="44.12115" lon="1.90314">
        <ele>213.2</ele>
        <time>2024-04-07T07:27:38Z</time>
      </trkpt>
      <trkpt lat="44.12116" lon="1.90311">
        <ele>213.4</ele>
        <time>2024-04-07T07:27:39Z</time>
      </trkpt>
      <trkpt lat="44.12116" lon="1.90309">
        <ele>213.8</ele>
        <time>2024-04-07T07:27:40Z</time>
      </trkpt>
      <trkpt lat="44.12116" lon="1.90307">
        <ele>214</ele>
        <time>2024-04-07T07:27:41Z</time>
      </trkpt>
      <trkpt lat="44.12116" lon="1.90305">
        <ele>214.2</ele>
        <time>2024-04-07T07:27:42Z</time>
      </trkpt>
      <trkpt lat="44.12116" lon="1.90303">
        <ele>214.4</ele>
        <time>2024-04-07T07:27:43Z</time>
      </trkpt>
      <trkpt lat="44.12117" lon="1.90301">
        <ele>214.4</ele>
        <time>2024-04-07T07:27:44Z</time>
      </trkpt>
      <trkpt lat="44.12117" lon="1.903">
        <ele>214.6</ele>
        <time>2024-04-07T07:27:45Z</time>
      </trkpt>
      <trkpt lat="44.12117" lon="1.90298">
        <ele>214.8</ele>
        <time>2024-04-07T07:27:46Z</time>
      </trkpt>
      <trkpt lat="44.12117" lon="1.90296">
        <ele>215</ele>
        <time>2024-04-07T07:27:47Z</time>
      </trkpt>
      <trkpt lat="44.12118" lon="1.90294">
        <ele>215.2</ele>
        <time>2024-04-07T07:27:48Z</time>
      </trkpt>
      <trkpt lat="44.12118" lon="1.90292">
        <ele>215.4</ele>
        <time>2024-04-07T07:27:49Z</time>
      </trkpt>
      <trkpt lat="44.12119" lon="1.9029">
        <ele>215.6</ele>
        <time>2024-04-07T07:27:50Z</time>
      </trkpt>
      <trkpt lat="44.1212" lon="1.90287">
        <ele>215.8</ele>
        <time>2024-04-07T07:27:51Z</time>
      </trkpt>
      <trkpt lat="44.1212" lon="1.90284">
        <ele>215.8</ele>
        <time>2024-04-07T07:27:52Z</time>
      </trkpt>
      <trkpt lat="44.1212" lon="1.90282">
        <ele>215.8</ele>
        <time>2024-04-07T07:27:53Z</time>
      </trkpt>
      <trkpt lat="44.1212" lon="1.90281">
        <ele>216</ele>
        <time>2024-04-07T07:27:54Z</time>
      </trkpt>
      <trkpt lat="44.12121" lon="1.90279">
        <ele>216</ele>
        <time>2024-04-07T07:27:55Z</time>
      </trkpt>
      <trkpt lat="44.12121" lon="1.90277">
        <ele>216.2</ele>
        <time>2024-04-07T07:27:56Z</time>
      </trkpt>
      <trkpt lat="44.12121" lon="1.90274">
        <ele>216.4</ele>
        <time>2024-04-07T07:27:57Z</time>
      </trkpt>
      <trkpt lat="44.12121" lon="1.90272">
        <ele>216.4</ele>
        <time>2024-04-07T07:27:58Z</time>
      </trkpt>
      <trkpt lat="44.12122" lon="1.9027">
        <ele>216.6</ele>
        <time>2024-04-07T07:27:59Z</time>
      </trkpt>
      <trkpt lat="44.12122" lon="1.90268">
        <ele>216.6</ele>
        <time>2024-04-07T07:28:00Z</time>
      </trkpt>
      <trkpt lat="44.12122" lon="1.90265">
        <ele>216.8</ele>
        <time>2024-04-07T07:28:01Z</time>
      </trkpt>
      <trkpt lat="44.12122" lon="1.90263">
        <ele>217</ele>
        <time>2024-04-07T07:28:02Z</time>
      </trkpt>
      <trkpt lat="44.12123" lon="1.90261">
        <ele>217.4</ele>
        <time>2024-04-07T07:28:03Z</time>
      </trkpt>
      <trkpt lat="44.12123" lon="1.90258">
        <ele>217.4</ele>
        <time>2024-04-07T07:28:04Z</time>
      </trkpt>
      <trkpt lat="44.12123" lon="1.90256">
        <ele>217.8</ele>
        <time>2024-04-07T07:28:05Z</time>
      </trkpt>
      <trkpt lat="44.12123" lon="1.90253">
        <ele>217.8</ele>
        <time>2024-04-07T07:28:06Z</time>
      </trkpt>
      <trkpt lat="44.12123" lon="1.9025">
        <ele>218</ele>
        <time>2024-04-07T07:28:07Z</time>
      </trkpt>
      <trkpt lat="44.12124" lon="1.90247">
        <ele>218</ele>
        <time>2024-04-07T07:28:08Z</time>
      </trkpt>
      <trkpt lat="44.12124" lon="1.90243">
        <ele>218</ele>
        <time>2024-04-07T07:28:09Z</time>
      </trkpt>
      <trkpt lat="44.12124" lon="1.90241">
        <ele>218</ele>
        <time>2024-04-07T07:28:10Z</time>
      </trkpt>
      <trkpt lat="44.12125" lon="1.90236">
        <ele>218</ele>
        <time>2024-04-07T07:28:11Z</time>
      </trkpt>
      <trkpt lat="44.12125" lon="1.90233">
        <ele>218</ele>
        <time>2024-04-07T07:28:12Z</time>
      </trkpt>
      <trkpt lat="44.12126" lon="1.90229">
        <ele>218</ele>
        <time>2024-04-07T07:28:13Z</time>
      </trkpt>
      <trkpt lat="44.12126" lon="1.90229">
        <ele>218</ele>
        <time>2024-04-07T07:28:14Z</time>
      </trkpt>
      <trkpt lat="44.12126" lon="1.90221">
        <ele>218</ele>
        <time>2024-04-07T07:28:15Z</time>
      </trkpt>
      <trkpt lat="44.12126" lon="1.90221">
        <ele>218</ele>
        <time>2024-04-07T07:28:16Z</time>
      </trkpt>
      <trkpt lat="44.12126" lon="1.90216">
        <ele>217.8</ele>
        <time>2024-04-07T07:28:17Z</time>
      </trkpt>
      <trkpt lat="44.12126" lon="1.90213">
        <ele>217.8</ele>
        <time>2024-04-07T07:28:18Z</time>
      </trkpt>
      <trkpt lat="44.12127" lon="1.9021">
        <ele>217.8</ele>
        <time>2024-04-07T07:28:19Z</time>
      </trkpt>
      <trkpt lat="44.12127" lon="1.90207">
        <ele>217.8</ele>
        <time>2024-04-07T07:28:20Z</time>
      </trkpt>
      <trkpt lat="44.12127" lon="1.90203">
        <ele>217.6</ele>
        <time>2024-04-07T07:28:21Z</time>
      </trkpt>
      <trkpt lat="44.12127" lon="1.90198">
        <ele>217.6</ele>
        <time>2024-04-07T07:28:22Z</time>
      </trkpt>
      <trkpt lat="44.12127" lon="1.90193">
        <ele>217.6</ele>
        <time>2024-04-07T07:28:23Z</time>
      </trkpt>
      <trkpt lat="44.12128" lon="1.9019">
        <ele>217.6</ele>
        <time>2024-04-07T07:28:24Z</time>
      </trkpt>
      <trkpt lat="44.12128" lon="1.90186">
        <ele>217.4</ele>
        <time>2024-04-07T07:28:25Z</time>
      </trkpt>
      <trkpt lat="44.12128" lon="1.90182">
        <ele>217.4</ele>
        <time>2024-04-07T07:28:26Z</time>
      </trkpt>
      <trkpt lat="44.12128" lon="1.90179">
        <ele>217.4</ele>
        <time>2024-04-07T07:28:27Z</time>
      </trkpt>
      <trkpt lat="44.12128" lon="1.90177">
        <ele>217.2</ele>
        <time>2024-04-07T07:28:28Z</time>
      </trkpt>
      <trkpt lat="44.12127" lon="1.90174">
        <ele>217</ele>
        <time>2024-04-07T07:28:29Z</time>
      </trkpt>
      <trkpt lat="44.12127" lon="1.90172">
        <ele>217</ele>
        <time>2024-04-07T07:28:30Z</time>
      </trkpt>
      <trkpt lat="44.12127" lon="1.90169">
        <ele>217</ele>
        <time>2024-04-07T07:28:31Z</time>
      </trkpt>
      <trkpt lat="44.12126" lon="1.90166">
        <ele>217</ele>
        <time>2024-04-07T07:28:32Z</time>
      </trkpt>
      <trkpt lat="44.12126" lon="1.90163">
        <ele>217</ele>
        <time>2024-04-07T07:28:33Z</time>
      </trkpt>
      <trkpt lat="44.12126" lon="1.90161">
        <ele>217</ele>
        <time>2024-04-07T07:28:34Z</time>
      </trkpt>
      <trkpt lat="44.12126" lon="1.90158">
        <ele>217.2</ele>
        <time>2024-04-07T07:28:35Z</time>
      </trkpt>
      <trkpt lat="44.12126" lon="1.90156">
        <ele>217.4</ele>
        <time>2024-04-07T07:28:36Z</time>
      </trkpt>
      <trkpt lat="44.12125" lon="1.90153">
        <ele>217.6</ele>
        <time>2024-04-07T07:28:37Z</time>
      </trkpt>
      <trkpt lat="44.12125" lon="1.90151">
        <ele>217.6</ele>
        <time>2024-04-07T07:28:38Z</time>
      </trkpt>
      <trkpt lat="44.12125" lon="1.90149">
        <ele>217.8</ele>
        <time>2024-04-07T07:28:39Z</time>
      </trkpt>
      <trkpt lat="44.12125" lon="1.90147">
        <ele>218</ele>
        <time>2024-04-07T07:28:40Z</time>
      </trkpt>
      <trkpt lat="44.12124" lon="1.90145">
        <ele>218.2</ele>
        <time>2024-04-07T07:28:41Z</time>
      </trkpt>
      <trkpt lat="44.12123" lon="1.90142">
        <ele>218.4</ele>
        <time>2024-04-07T07:28:42Z</time>
      </trkpt>
      <trkpt lat="44.12123" lon="1.90139">
        <ele>218.6</ele>
        <time>2024-04-07T07:28:43Z</time>
      </trkpt>
      <trkpt lat="44.12122" lon="1.90135">
        <ele>218.8</ele>
        <time>2024-04-07T07:28:44Z</time>
      </trkpt>
      <trkpt lat="44.12121" lon="1.90133">
        <ele>219</ele>
        <time>2024-04-07T07:28:45Z</time>
      </trkpt>
      <trkpt lat="44.12121" lon="1.90131">
        <ele>219.2</ele>
        <time>2024-04-07T07:28:46Z</time>
      </trkpt>
      <trkpt lat="44.1212" lon="1.90128">
        <ele>219.2</ele>
        <time>2024-04-07T07:28:47Z</time>
      </trkpt>
      <trkpt lat="44.1212" lon="1.90125">
        <ele>219.4</ele>
        <time>2024-04-07T07:28:48Z</time>
      </trkpt>
      <trkpt lat="44.1212" lon="1.90123">
        <ele>219.6</ele>
        <time>2024-04-07T07:28:49Z</time>
      </trkpt>
      <trkpt lat="44.1212" lon="1.9012">
        <ele>219.8</ele>
        <time>2024-04-07T07:28:50Z</time>
      </trkpt>
      <trkpt lat="44.12121" lon="1.90115">
        <ele>220.6</ele>
        <time>2024-04-07T07:28:51Z</time>
      </trkpt>
      <trkpt lat="44.12121" lon="1.90112">
        <ele>221</ele>
        <time>2024-04-07T07:28:52Z</time>
      </trkpt>
      <trkpt lat="44.12123" lon="1.90108">
        <ele>221.6</ele>
        <time>2024-04-07T07:28:53Z</time>
      </trkpt>
      <trkpt lat="44.12125" lon="1.90106">
        <ele>222</ele>
        <time>2024-04-07T07:28:54Z</time>
      </trkpt>
      <trkpt lat="44.12125" lon="1.90106">
        <ele>222.4</ele>
        <time>2024-04-07T07:28:55Z</time>
      </trkpt>
      <trkpt lat="44.12131" lon="1.90101">
        <ele>222.6</ele>
        <time>2024-04-07T07:28:56Z</time>
      </trkpt>
      <trkpt lat="44.12133" lon="1.90097">
        <ele>222.8</ele>
        <time>2024-04-07T07:28:57Z</time>
      </trkpt>
      <trkpt lat="44.12134" lon="1.90091">
        <ele>223</ele>
        <time>2024-04-07T07:28:58Z</time>
      </trkpt>
      <trkpt lat="44.12134" lon="1.90086">
        <ele>223</ele>
        <time>2024-04-07T07:28:59Z</time>
      </trkpt>
      <trkpt lat="44.12134" lon="1.90077">
        <ele>223.2</ele>
        <time>2024-04-07T07:29:00Z</time>
      </trkpt>
      <trkpt lat="44.12134" lon="1.90077">
        <ele>223.2</ele>
        <time>2024-04-07T07:29:01Z</time>
      </trkpt>
      <trkpt lat="44.12134" lon="1.90058">
        <ele>223.2</ele>
        <time>2024-04-07T07:29:02Z</time>
      </trkpt>
      <trkpt lat="44.12134" lon="1.90046">
        <ele>222.8</ele>
        <time>2024-04-07T07:29:03Z</time>
      </trkpt>
      <trkpt lat="44.12136" lon="1.90035">
        <ele>222.2</ele>
        <time>2024-04-07T07:29:04Z</time>
      </trkpt>
      <trkpt lat="44.12138" lon="1.90025">
        <ele>221.8</ele>
        <time>2024-04-07T07:29:05Z</time>
      </trkpt>
      <trkpt lat="44.1214" lon="1.90013">
        <ele>220.8</ele>
        <time>2024-04-07T07:29:06Z</time>
      </trkpt>
      <trkpt lat="44.12143" lon="1.90001">
        <ele>220.4</ele>
        <time>2024-04-07T07:29:07Z</time>
      </trkpt>
      <trkpt lat="44.12146" lon="1.89988">
        <ele>219.8</ele>
        <time>2024-04-07T07:29:08Z</time>
      </trkpt>
      <trkpt lat="44.12151" lon="1.89973">
        <ele>219.2</ele>
        <time>2024-04-07T07:29:09Z</time>
      </trkpt>
      <trkpt lat="44.12154" lon="1.89963">
        <ele>218.8</ele>
        <time>2024-04-07T07:29:10Z</time>
      </trkpt>
      <trkpt lat="44.12159" lon="1.8995">
        <ele>217.8</ele>
        <time>2024-04-07T07:29:11Z</time>
      </trkpt>
      <trkpt lat="44.12164" lon="1.89937">
        <ele>216.8</ele>
        <time>2024-04-07T07:29:12Z</time>
      </trkpt>
      <trkpt lat="44.12164" lon="1.89937">
        <ele>215.2</ele>
        <time>2024-04-07T07:29:13Z</time>
      </trkpt>
      <trkpt lat="44.12175" lon="1.89913">
        <ele>214.4</ele>
        <time>2024-04-07T07:29:14Z</time>
      </trkpt>
      <trkpt lat="44.12182" lon="1.89902">
        <ele>212.8</ele>
        <time>2024-04-07T07:29:15Z</time>
      </trkpt>
      <trkpt lat="44.12189" lon="1.89892">
        <ele>212</ele>
        <time>2024-04-07T07:29:16Z</time>
      </trkpt>
      <trkpt lat="44.12197" lon="1.89881">
        <ele>209.6</ele>
        <time>2024-04-07T07:29:17Z</time>
      </trkpt>
      <trkpt lat="44.12206" lon="1.89869">
        <ele>207.8</ele>
        <time>2024-04-07T07:29:18Z</time>
      </trkpt>
      <trkpt lat="44.12214" lon="1.89858">
        <ele>206.8</ele>
        <time>2024-04-07T07:29:19Z</time>
      </trkpt>
      <trkpt lat="44.12214" lon="1.89858">
        <ele>204</ele>
        <time>2024-04-07T07:29:20Z</time>
      </trkpt>
      <trkpt lat="44.1223" lon="1.89836">
        <ele>202.6</ele>
        <time>2024-04-07T07:29:21Z</time>
      </trkpt>
      <trkpt lat="44.12238" lon="1.89825">
        <ele>200.8</ele>
        <time>2024-04-07T07:29:22Z</time>
      </trkpt>
      <trkpt lat="44.12243" lon="1.89811">
        <ele>200</ele>
        <time>2024-04-07T07:29:23Z</time>
      </trkpt>
      <trkpt lat="44.12248" lon="1.89797">
        <ele>198.8</ele>
        <time>2024-04-07T07:29:24Z</time>
      </trkpt>
      <trkpt lat="44.12253" lon="1.89783">
        <ele>198.4</ele>
        <time>2024-04-07T07:29:25Z</time>
      </trkpt>
      <trkpt lat="44.12257" lon="1.89769">
        <ele>197.2</ele>
        <time>2024-04-07T07:29:26Z</time>
      </trkpt>
      <trkpt lat="44.12262" lon="1.89755">
        <ele>194.4</ele>
        <time>2024-04-07T07:29:27Z</time>
      </trkpt>
      <trkpt lat="44.12267" lon="1.89741">
        <ele>192.8</ele>
        <time>2024-04-07T07:29:28Z</time>
      </trkpt>
      <trkpt lat="44.12273" lon="1.89728">
        <ele>190.8</ele>
        <time>2024-04-07T07:29:29Z</time>
      </trkpt>
      <trkpt lat="44.12273" lon="1.89728">
        <ele>189.6</ele>
        <time>2024-04-07T07:29:30Z</time>
      </trkpt>
      <trkpt lat="44.1228" lon="1.89716">
        <ele>186.8</ele>
        <time>2024-04-07T07:29:31Z</time>
      </trkpt>
      <trkpt lat="44.12288" lon="1.89705">
        <ele>185.8</ele>
        <time>2024-04-07T07:29:32Z</time>
      </trkpt>
      <trkpt lat="44.12305" lon="1.89684">
        <ele>184.4</ele>
        <time>2024-04-07T07:29:33Z</time>
      </trkpt>
      <trkpt lat="44.12314" lon="1.89674">
        <ele>183.2</ele>
        <time>2024-04-07T07:29:34Z</time>
      </trkpt>
      <trkpt lat="44.12322" lon="1.89663">
        <ele>181.8</ele>
        <time>2024-04-07T07:29:35Z</time>
      </trkpt>
      <trkpt lat="44.1233" lon="1.89653">
        <ele>180.6</ele>
        <time>2024-04-07T07:29:36Z</time>
      </trkpt>
      <trkpt lat="44.12338" lon="1.89641">
        <ele>180</ele>
        <time>2024-04-07T07:29:37Z</time>
      </trkpt>
      <trkpt lat="44.12344" lon="1.89629">
        <ele>179.2</ele>
        <time>2024-04-07T07:29:38Z</time>
      </trkpt>
      <trkpt lat="44.12349" lon="1.89617">
        <ele>178.8</ele>
        <time>2024-04-07T07:29:39Z</time>
      </trkpt>
      <trkpt lat="44.12355" lon="1.89606">
        <ele>178.4</ele>
        <time>2024-04-07T07:29:40Z</time>
      </trkpt>
      <trkpt lat="44.1236" lon="1.89595">
        <ele>178.2</ele>
        <time>2024-04-07T07:29:41Z</time>
      </trkpt>
      <trkpt lat="44.12366" lon="1.89584">
        <ele>177.8</ele>
        <time>2024-04-07T07:29:42Z</time>
      </trkpt>
      <trkpt lat="44.12371" lon="1.89573">
        <ele>177.6</ele>
        <time>2024-04-07T07:29:43Z</time>
      </trkpt>
      <trkpt lat="44.12375" lon="1.89562">
        <ele>176.8</ele>
        <time>2024-04-07T07:29:44Z</time>
      </trkpt>
      <trkpt lat="44.1238" lon="1.89551">
        <ele>176.4</ele>
        <time>2024-04-07T07:29:45Z</time>
      </trkpt>
      <trkpt lat="44.12383" lon="1.8954">
        <ele>176.2</ele>
        <time>2024-04-07T07:29:46Z</time>
      </trkpt>
      <trkpt lat="44.12385" lon="1.89529">
        <ele>176</ele>
        <time>2024-04-07T07:29:47Z</time>
      </trkpt>
      <trkpt lat="44.12387" lon="1.89517">
        <ele>175.8</ele>
        <time>2024-04-07T07:29:48Z</time>
      </trkpt>
      <trkpt lat="44.12388" lon="1.89507">
        <ele>175.6</ele>
        <time>2024-04-07T07:29:49Z</time>
      </trkpt>
      <trkpt lat="44.1239" lon="1.89496">
        <ele>175.4</ele>
        <time>2024-04-07T07:29:50Z</time>
      </trkpt>
      <trkpt lat="44.12391" lon="1.89483">
        <ele>175.2</ele>
        <time>2024-04-07T07:29:51Z</time>
      </trkpt>
      <trkpt lat="44.12392" lon="1.89475">
        <ele>175.2</ele>
        <time>2024-04-07T07:29:52Z</time>
      </trkpt>
      <trkpt lat="44.12392" lon="1.89464">
        <ele>175.2</ele>
        <time>2024-04-07T07:29:53Z</time>
      </trkpt>
      <trkpt lat="44.12392" lon="1.89454">
        <ele>175.2</ele>
        <time>2024-04-07T07:29:54Z</time>
      </trkpt>
      <trkpt lat="44.12392" lon="1.89444">
        <ele>175</ele>
        <time>2024-04-07T07:29:55Z</time>
      </trkpt>
      <trkpt lat="44.12391" lon="1.89434">
        <ele>175</ele>
        <time>2024-04-07T07:29:56Z</time>
      </trkpt>
      <trkpt lat="44.12391" lon="1.89434">
        <ele>175</ele>
        <time>2024-04-07T07:29:57Z</time>
      </trkpt>
      <trkpt lat="44.12391" lon="1.89412">
        <ele>175</ele>
        <time>2024-04-07T07:29:58Z</time>
      </trkpt>
      <trkpt lat="44.12391" lon="1.89401">
        <ele>174.8</ele>
        <time>2024-04-07T07:29:59Z</time>
      </trkpt>
      <trkpt lat="44.12393" lon="1.89389">
        <ele>174.8</ele>
        <time>2024-04-07T07:30:00Z</time>
      </trkpt>
      <trkpt lat="44.12395" lon="1.89378">
        <ele>174.4</ele>
        <time>2024-04-07T07:30:01Z</time>
      </trkpt>
      <trkpt lat="44.12398" lon="1.89367">
        <ele>174.4</ele>
        <time>2024-04-07T07:30:02Z</time>
      </trkpt>
      <trkpt lat="44.12398" lon="1.89367">
        <ele>174</ele>
        <time>2024-04-07T07:30:03Z</time>
      </trkpt>
      <trkpt lat="44.12405" lon="1.89345">
        <ele>174</ele>
        <time>2024-04-07T07:30:04Z</time>
      </trkpt>
      <trkpt lat="44.12408" lon="1.89332">
        <ele>173.6</ele>
        <time>2024-04-07T07:30:05Z</time>
      </trkpt>
      <trkpt lat="44.12411" lon="1.8932">
        <ele>173.6</ele>
        <time>2024-04-07T07:30:06Z</time>
      </trkpt>
      <trkpt lat="44.12416" lon="1.89304">
        <ele>173</ele>
        <time>2024-04-07T07:30:07Z</time>
      </trkpt>
      <trkpt lat="44.12418" lon="1.89293">
        <ele>172.6</ele>
        <time>2024-04-07T07:30:08Z</time>
      </trkpt>
      <trkpt lat="44.12421" lon="1.8928">
        <ele>171.6</ele>
        <time>2024-04-07T07:30:09Z</time>
      </trkpt>
      <trkpt lat="44.12424" lon="1.89268">
        <ele>170.8</ele>
        <time>2024-04-07T07:30:10Z</time>
      </trkpt>
      <trkpt lat="44.12428" lon="1.89256">
        <ele>170.2</ele>
        <time>2024-04-07T07:30:11Z</time>
      </trkpt>
      <trkpt lat="44.12433" lon="1.89245">
        <ele>169.6</ele>
        <time>2024-04-07T07:30:12Z</time>
      </trkpt>
      <trkpt lat="44.12433" lon="1.89245">
        <ele>169.4</ele>
        <time>2024-04-07T07:30:13Z</time>
      </trkpt>
      <trkpt lat="44.12446" lon="1.89225">
        <ele>167.6</ele>
        <time>2024-04-07T07:30:14Z</time>
      </trkpt>
      <trkpt lat="44.12452" lon="1.89212">
        <ele>167</ele>
        <time>2024-04-07T07:30:15Z</time>
      </trkpt>
      <trkpt lat="44.12457" lon="1.892">
        <ele>165</ele>
        <time>2024-04-07T07:30:16Z</time>
      </trkpt>
      <trkpt lat="44.12462" lon="1.89187">
        <ele>164.2</ele>
        <time>2024-04-07T07:30:17Z</time>
      </trkpt>
      <trkpt lat="44.12467" lon="1.89174">
        <ele>163</ele>
        <time>2024-04-07T07:30:18Z</time>
      </trkpt>
      <trkpt lat="44.12471" lon="1.8916">
        <ele>162.4</ele>
        <time>2024-04-07T07:30:19Z</time>
      </trkpt>
      <trkpt lat="44.12475" lon="1.89147">
        <ele>161.6</ele>
        <time>2024-04-07T07:30:20Z</time>
      </trkpt>
      <trkpt lat="44.1248" lon="1.89134">
        <ele>160</ele>
        <time>2024-04-07T07:30:21Z</time>
      </trkpt>
      <trkpt lat="44.12485" lon="1.89122">
        <ele>159.6</ele>
        <time>2024-04-07T07:30:22Z</time>
      </trkpt>
      <trkpt lat="44.12491" lon="1.89109">
        <ele>158.8</ele>
        <time>2024-04-07T07:30:23Z</time>
      </trkpt>
      <trkpt lat="44.12496" lon="1.89097">
        <ele>158.4</ele>
        <time>2024-04-07T07:30:24Z</time>
      </trkpt>
      <trkpt lat="44.12501" lon="1.89085">
        <ele>157.8</ele>
        <time>2024-04-07T07:30:25Z</time>
      </trkpt>
      <trkpt lat="44.12507" lon="1.89073">
        <ele>157.2</ele>
        <time>2024-04-07T07:30:26Z</time>
      </trkpt>
      <trkpt lat="44.12513" lon="1.8906">
        <ele>156.6</ele>
        <time>2024-04-07T07:30:27Z</time>
      </trkpt>
      <trkpt lat="44.12519" lon="1.89049">
        <ele>156.4</ele>
        <time>2024-04-07T07:30:28Z</time>
      </trkpt>
      <trkpt lat="44.12523" lon="1.8904">
        <ele>155.8</ele>
        <time>2024-04-07T07:30:29Z</time>
      </trkpt>
      <trkpt lat="44.12528" lon="1.89029">
        <ele>155.6</ele>
        <time>2024-04-07T07:30:30Z</time>
      </trkpt>
      <trkpt lat="44.12534" lon="1.89018">
        <ele>155.4</ele>
        <time>2024-04-07T07:30:31Z</time>
      </trkpt>
      <trkpt lat="44.12541" lon="1.89005">
        <ele>155.2</ele>
        <time>2024-04-07T07:30:32Z</time>
      </trkpt>
      <trkpt lat="44.12547" lon="1.88996">
        <ele>155</ele>
        <time>2024-04-07T07:30:33Z</time>
      </trkpt>
      <trkpt lat="44.12552" lon="1.88989">
        <ele>154.8</ele>
        <time>2024-04-07T07:30:34Z</time>
      </trkpt>
      <trkpt lat="44.12552" lon="1.88989">
        <ele>154.6</ele>
        <time>2024-04-07T07:30:35Z</time>
      </trkpt>
      <trkpt lat="44.12567" lon="1.88977">
        <ele>154.6</ele>
        <time>2024-04-07T07:30:36Z</time>
      </trkpt>
      <trkpt lat="44.12578" lon="1.88972">
        <ele>154.4</ele>
        <time>2024-04-07T07:30:37Z</time>
      </trkpt>
      <trkpt lat="44.12585" lon="1.88968">
        <ele>154.4</ele>
        <time>2024-04-07T07:30:38Z</time>
      </trkpt>
      <trkpt lat="44.12593" lon="1.88964">
        <ele>154.2</ele>
        <time>2024-04-07T07:30:39Z</time>
      </trkpt>
      <trkpt lat="44.12601" lon="1.8896">
        <ele>154.2</ele>
        <time>2024-04-07T07:30:40Z</time>
      </trkpt>
      <trkpt lat="44.12608" lon="1.88955">
        <ele>154</ele>
        <time>2024-04-07T07:30:41Z</time>
      </trkpt>
      <trkpt lat="44.12617" lon="1.88949">
        <ele>154</ele>
        <time>2024-04-07T07:30:42Z</time>
      </trkpt>
      <trkpt lat="44.12622" lon="1.88944">
        <ele>154</ele>
        <time>2024-04-07T07:30:43Z</time>
      </trkpt>
      <trkpt lat="44.12624" lon="1.88938">
        <ele>154</ele>
        <time>2024-04-07T07:30:44Z</time>
      </trkpt>
      <trkpt lat="44.12624" lon="1.88932">
        <ele>154</ele>
        <time>2024-04-07T07:30:45Z</time>
      </trkpt>
      <trkpt lat="44.12622" lon="1.88926">
        <ele>154</ele>
        <time>2024-04-07T07:30:46Z</time>
      </trkpt>
      <trkpt lat="44.1262" lon="1.8892">
        <ele>154</ele>
        <time>2024-04-07T07:30:47Z</time>
      </trkpt>
      <trkpt lat="44.12617" lon="1.88911">
        <ele>153.8</ele>
        <time>2024-04-07T07:30:48Z</time>
      </trkpt>
      <trkpt lat="44.12618" lon="1.88903">
        <ele>153.8</ele>
        <time>2024-04-07T07:30:49Z</time>
      </trkpt>
      <trkpt lat="44.12621" lon="1.88896">
        <ele>154</ele>
        <time>2024-04-07T07:30:50Z</time>
      </trkpt>
      <trkpt lat="44.12626" lon="1.88889">
        <ele>154</ele>
        <time>2024-04-07T07:30:51Z</time>
      </trkpt>
      <trkpt lat="44.12631" lon="1.88881">
        <ele>153.6</ele>
        <time>2024-04-07T07:30:52Z</time>
      </trkpt>
      <trkpt lat="44.12638" lon="1.8887">
        <ele>153.8</ele>
        <time>2024-04-07T07:30:53Z</time>
      </trkpt>
      <trkpt lat="44.12644" lon="1.8886">
        <ele>153.6</ele>
        <time>2024-04-07T07:30:54Z</time>
      </trkpt>
      <trkpt lat="44.1265" lon="1.8885">
        <ele>153</ele>
        <time>2024-04-07T07:30:55Z</time>
      </trkpt>
      <trkpt lat="44.12655" lon="1.88841">
        <ele>152.8</ele>
        <time>2024-04-07T07:30:56Z</time>
      </trkpt>
      <trkpt lat="44.1266" lon="1.88831">
        <ele>152</ele>
        <time>2024-04-07T07:30:57Z</time>
      </trkpt>
      <trkpt lat="44.12666" lon="1.88817">
        <ele>151.8</ele>
        <time>2024-04-07T07:30:58Z</time>
      </trkpt>
      <trkpt lat="44.1267" lon="1.88805">
        <ele>151</ele>
        <time>2024-04-07T07:30:59Z</time>
      </trkpt>
      <trkpt lat="44.12673" lon="1.88793">
        <ele>150.6</ele>
        <time>2024-04-07T07:31:00Z</time>
      </trkpt>
      <trkpt lat="44.12674" lon="1.88783">
        <ele>150</ele>
        <time>2024-04-07T07:31:01Z</time>
      </trkpt>
      <trkpt lat="44.12676" lon="1.8877">
        <ele>149.8</ele>
        <time>2024-04-07T07:31:02Z</time>
      </trkpt>
      <trkpt lat="44.12676" lon="1.88756">
        <ele>149.6</ele>
        <time>2024-04-07T07:31:03Z</time>
      </trkpt>
      <trkpt lat="44.12677" lon="1.8874">
        <ele>149.2</ele>
        <time>2024-04-07T07:31:04Z</time>
      </trkpt>
      <trkpt lat="44.12678" lon="1.88727">
        <ele>148.8</ele>
        <time>2024-04-07T07:31:05Z</time>
      </trkpt>
      <trkpt lat="44.12678" lon="1.88717">
        <ele>148.2</ele>
        <time>2024-04-07T07:31:06Z</time>
      </trkpt>
      <trkpt lat="44.12678" lon="1.88704">
        <ele>148</ele>
        <time>2024-04-07T07:31:07Z</time>
      </trkpt>
      <trkpt lat="44.12678" lon="1.88691">
        <ele>147.6</ele>
        <time>2024-04-07T07:31:08Z</time>
      </trkpt>
      <trkpt lat="44.12677" lon="1.88676">
        <ele>147.4</ele>
        <time>2024-04-07T07:31:09Z</time>
      </trkpt>
      <trkpt lat="44.12677" lon="1.88663">
        <ele>147.2</ele>
        <time>2024-04-07T07:31:10Z</time>
      </trkpt>
      <trkpt lat="44.12676" lon="1.88653">
        <ele>147</ele>
        <time>2024-04-07T07:31:11Z</time>
      </trkpt>
      <trkpt lat="44.12676" lon="1.88653">
        <ele>146.6</ele>
        <time>2024-04-07T07:31:12Z</time>
      </trkpt>
      <trkpt lat="44.12675" lon="1.88628">
        <ele>146.4</ele>
        <time>2024-04-07T07:31:13Z</time>
      </trkpt>
      <trkpt lat="44.12675" lon="1.88628">
        <ele>146.2</ele>
        <time>2024-04-07T07:31:14Z</time>
      </trkpt>
      <trkpt lat="44.12675" lon="1.88603">
        <ele>145.8</ele>
        <time>2024-04-07T07:31:15Z</time>
      </trkpt>
      <trkpt lat="44.12675" lon="1.88603">
        <ele>145.8</ele>
        <time>2024-04-07T07:31:16Z</time>
      </trkpt>
      <trkpt lat="44.12679" lon="1.88581">
        <ele>145.8</ele>
        <time>2024-04-07T07:31:17Z</time>
      </trkpt>
      <trkpt lat="44.12683" lon="1.88572">
        <ele>145.6</ele>
        <time>2024-04-07T07:31:18Z</time>
      </trkpt>
      <trkpt lat="44.12689" lon="1.88565">
        <ele>145.6</ele>
        <time>2024-04-07T07:31:19Z</time>
      </trkpt>
      <trkpt lat="44.12695" lon="1.88561">
        <ele>145.4</ele>
        <time>2024-04-07T07:31:20Z</time>
      </trkpt>
      <trkpt lat="44.12703" lon="1.88558">
        <ele>145.4</ele>
        <time>2024-04-07T07:31:21Z</time>
      </trkpt>
      <trkpt lat="44.1271" lon="1.88556">
        <ele>145.2</ele>
        <time>2024-04-07T07:31:22Z</time>
      </trkpt>
      <trkpt lat="44.1271" lon="1.88556">
        <ele>145.2</ele>
        <time>2024-04-07T07:31:23Z</time>
      </trkpt>
      <trkpt lat="44.12723" lon="1.8855">
        <ele>145.2</ele>
        <time>2024-04-07T07:31:24Z</time>
      </trkpt>
      <trkpt lat="44.12729" lon="1.88544">
        <ele>145.2</ele>
        <time>2024-04-07T07:31:25Z</time>
      </trkpt>
      <trkpt lat="44.12734" lon="1.88535">
        <ele>145.2</ele>
        <time>2024-04-07T07:31:26Z</time>
      </trkpt>
      <trkpt lat="44.12737" lon="1.88527">
        <ele>145.2</ele>
        <time>2024-04-07T07:31:27Z</time>
      </trkpt>
      <trkpt lat="44.1274" lon="1.88519">
        <ele>145</ele>
        <time>2024-04-07T07:31:28Z</time>
      </trkpt>
      <trkpt lat="44.12744" lon="1.8851">
        <ele>145</ele>
        <time>2024-04-07T07:31:29Z</time>
      </trkpt>
      <trkpt lat="44.12746" lon="1.885">
        <ele>145</ele>
        <time>2024-04-07T07:31:30Z</time>
      </trkpt>
      <trkpt lat="44.12748" lon="1.8849">
        <ele>144.8</ele>
        <time>2024-04-07T07:31:31Z</time>
      </trkpt>
      <trkpt lat="44.12749" lon="1.88479">
        <ele>144.8</ele>
        <time>2024-04-07T07:31:32Z</time>
      </trkpt>
      <trkpt lat="44.1275" lon="1.88468">
        <ele>144.8</ele>
        <time>2024-04-07T07:31:33Z</time>
      </trkpt>
      <trkpt lat="44.1275" lon="1.88458">
        <ele>144.8</ele>
        <time>2024-04-07T07:31:34Z</time>
      </trkpt>
      <trkpt lat="44.1275" lon="1.88448">
        <ele>144.8</ele>
        <time>2024-04-07T07:31:35Z</time>
      </trkpt>
      <trkpt lat="44.1275" lon="1.88437">
        <ele>144.8</ele>
        <time>2024-04-07T07:31:36Z</time>
      </trkpt>
      <trkpt lat="44.12749" lon="1.88426">
        <ele>144.8</ele>
        <time>2024-04-07T07:31:37Z</time>
      </trkpt>
      <trkpt lat="44.12749" lon="1.88426">
        <ele>144.8</ele>
        <time>2024-04-07T07:31:38Z</time>
      </trkpt>
      <trkpt lat="44.12748" lon="1.88405">
        <ele>144.6</ele>
        <time>2024-04-07T07:31:39Z</time>
      </trkpt>
      <trkpt lat="44.12747" lon="1.88394">
        <ele>144.6</ele>
        <time>2024-04-07T07:31:40Z</time>
      </trkpt>
      <trkpt lat="44.12748" lon="1.88384">
        <ele>144.6</ele>
        <time>2024-04-07T07:31:41Z</time>
      </trkpt>
      <trkpt lat="44.12748" lon="1.88384">
        <ele>144.6</ele>
        <time>2024-04-07T07:31:42Z</time>
      </trkpt>
      <trkpt lat="44.12751" lon="1.88363">
        <ele>144.6</ele>
        <time>2024-04-07T07:31:43Z</time>
      </trkpt>
      <trkpt lat="44.12751" lon="1.88363">
        <ele>144.6</ele>
        <time>2024-04-07T07:31:44Z</time>
      </trkpt>
      <trkpt lat="44.12755" lon="1.88342">
        <ele>144.6</ele>
        <time>2024-04-07T07:31:45Z</time>
      </trkpt>
      <trkpt lat="44.12757" lon="1.88332">
        <ele>144.4</ele>
        <time>2024-04-07T07:31:46Z</time>
      </trkpt>
      <trkpt lat="44.1276" lon="1.8832">
        <ele>144.4</ele>
        <time>2024-04-07T07:31:47Z</time>
      </trkpt>
      <trkpt lat="44.1276" lon="1.8832">
        <ele>144.4</ele>
        <time>2024-04-07T07:31:48Z</time>
      </trkpt>
      <trkpt lat="44.12764" lon="1.88303">
        <ele>144.4</ele>
        <time>2024-04-07T07:31:49Z</time>
      </trkpt>
      <trkpt lat="44.12767" lon="1.88293">
        <ele>144.4</ele>
        <time>2024-04-07T07:31:50Z</time>
      </trkpt>
      <trkpt lat="44.1277" lon="1.88284">
        <ele>144.2</ele>
        <time>2024-04-07T07:31:51Z</time>
      </trkpt>
      <trkpt lat="44.12773" lon="1.88275">
        <ele>144.2</ele>
        <time>2024-04-07T07:31:52Z</time>
      </trkpt>
      <trkpt lat="44.12776" lon="1.88267">
        <ele>144</ele>
        <time>2024-04-07T07:31:53Z</time>
      </trkpt>
      <trkpt lat="44.12776" lon="1.88267">
        <ele>144</ele>
        <time>2024-04-07T07:31:54Z</time>
      </trkpt>
      <trkpt lat="44.12777" lon="1.88257">
        <ele>144</ele>
        <time>2024-04-07T07:31:55Z</time>
      </trkpt>
      <trkpt lat="44.12777" lon="1.88257">
        <ele>143.8</ele>
        <time>2024-04-07T07:31:56Z</time>
      </trkpt>
      <trkpt lat="44.12773" lon="1.88252">
        <ele>143.8</ele>
        <time>2024-04-07T07:31:57Z</time>
      </trkpt>
      <trkpt lat="44.12771" lon="1.8825">
        <ele>143.8</ele>
        <time>2024-04-07T07:31:58Z</time>
      </trkpt>
      <trkpt lat="44.12768" lon="1.88248">
        <ele>144</ele>
        <time>2024-04-07T07:31:59Z</time>
      </trkpt>
      <trkpt lat="44.12768" lon="1.88248">
        <ele>144</ele>
        <time>2024-04-07T07:32:00Z</time>
      </trkpt>
      <trkpt lat="44.1276" lon="1.88244">
        <ele>144.2</ele>
        <time>2024-04-07T07:32:01Z</time>
      </trkpt>
      <trkpt lat="44.12757" lon="1.88242">
        <ele>144.4</ele>
        <time>2024-04-07T07:32:02Z</time>
      </trkpt>
      <trkpt lat="44.12753" lon="1.8824">
        <ele>144.4</ele>
        <time>2024-04-07T07:32:03Z</time>
      </trkpt>
      <trkpt lat="44.1275" lon="1.88238">
        <ele>144.6</ele>
        <time>2024-04-07T07:32:04Z</time>
      </trkpt>
      <trkpt lat="44.12747" lon="1.88235">
        <ele>144.6</ele>
        <time>2024-04-07T07:32:05Z</time>
      </trkpt>
      <trkpt lat="44.12747" lon="1.88231">
        <ele>144.8</ele>
        <time>2024-04-07T07:32:06Z</time>
      </trkpt>
      <trkpt lat="44.12747" lon="1.88227">
        <ele>145</ele>
        <time>2024-04-07T07:32:07Z</time>
      </trkpt>
      <trkpt lat="44.12749" lon="1.88221">
        <ele>145</ele>
        <time>2024-04-07T07:32:08Z</time>
      </trkpt>
      <trkpt lat="44.12751" lon="1.88217">
        <ele>145</ele>
        <time>2024-04-07T07:32:09Z</time>
      </trkpt>
      <trkpt lat="44.12753" lon="1.88211">
        <ele>145</ele>
        <time>2024-04-07T07:32:10Z</time>
      </trkpt>
      <trkpt lat="44.12755" lon="1.88206">
        <ele>145.2</ele>
        <time>2024-04-07T07:32:11Z</time>
      </trkpt>
      <trkpt lat="44.12757" lon="1.88199">
        <ele>145.4</ele>
        <time>2024-04-07T07:32:12Z</time>
      </trkpt>
      <trkpt lat="44.12759" lon="1.88192">
        <ele>145.6</ele>
        <time>2024-04-07T07:32:13Z</time>
      </trkpt>
      <trkpt lat="44.12762" lon="1.88185">
        <ele>145.8</ele>
        <time>2024-04-07T07:32:14Z</time>
      </trkpt>
      <trkpt lat="44.12765" lon="1.88177">
        <ele>145.8</ele>
        <time>2024-04-07T07:32:15Z</time>
      </trkpt>
      <trkpt lat="44.12768" lon="1.8817">
        <ele>146</ele>
        <time>2024-04-07T07:32:16Z</time>
      </trkpt>
      <trkpt lat="44.12771" lon="1.88163">
        <ele>146.2</ele>
        <time>2024-04-07T07:32:17Z</time>
      </trkpt>
      <trkpt lat="44.12774" lon="1.88155">
        <ele>146.6</ele>
        <time>2024-04-07T07:32:18Z</time>
      </trkpt>
      <trkpt lat="44.12778" lon="1.88147">
        <ele>146.6</ele>
        <time>2024-04-07T07:32:19Z</time>
      </trkpt>
      <trkpt lat="44.12778" lon="1.88147">
        <ele>146.8</ele>
        <time>2024-04-07T07:32:20Z</time>
      </trkpt>
      <trkpt lat="44.12781" lon="1.88139">
        <ele>146.8</ele>
        <time>2024-04-07T07:32:21Z</time>
      </trkpt>
      <trkpt lat="44.12787" lon="1.88125">
        <ele>146.8</ele>
        <time>2024-04-07T07:32:22Z</time>
      </trkpt>
      <trkpt lat="44.1279" lon="1.88118">
        <ele>146.8</ele>
        <time>2024-04-07T07:32:23Z</time>
      </trkpt>
      <trkpt lat="44.1279" lon="1.88118">
        <ele>146.8</ele>
        <time>2024-04-07T07:32:24Z</time>
      </trkpt>
      <trkpt lat="44.12794" lon="1.8811">
        <ele>146.8</ele>
        <time>2024-04-07T07:32:25Z</time>
      </trkpt>
      <trkpt lat="44.12799" lon="1.88103">
        <ele>146.8</ele>
        <time>2024-04-07T07:32:26Z</time>
      </trkpt>
      <trkpt lat="44.12809" lon="1.8809">
        <ele>146.6</ele>
        <time>2024-04-07T07:32:27Z</time>
      </trkpt>
      <trkpt lat="44.12811" lon="1.88081">
        <ele>146.6</ele>
        <time>2024-04-07T07:32:28Z</time>
      </trkpt>
      <trkpt lat="44.12811" lon="1.88081">
        <ele>146.4</ele>
        <time>2024-04-07T07:32:29Z</time>
      </trkpt>
      <trkpt lat="44.12812" lon="1.88071">
        <ele>146.4</ele>
        <time>2024-04-07T07:32:30Z</time>
      </trkpt>
      <trkpt lat="44.12812" lon="1.88064">
        <ele>146</ele>
        <time>2024-04-07T07:32:31Z</time>
      </trkpt>
      <trkpt lat="44.12809" lon="1.88048">
        <ele>145.8</ele>
        <time>2024-04-07T07:32:32Z</time>
      </trkpt>
      <trkpt lat="44.1281" lon="1.88041">
        <ele>145.6</ele>
        <time>2024-04-07T07:32:33Z</time>
      </trkpt>
      <trkpt lat="44.12813" lon="1.88033">
        <ele>145.6</ele>
        <time>2024-04-07T07:32:34Z</time>
      </trkpt>
      <trkpt lat="44.12816" lon="1.88028">
        <ele>145.4</ele>
        <time>2024-04-07T07:32:35Z</time>
      </trkpt>
      <trkpt lat="44.12818" lon="1.88023">
        <ele>145.2</ele>
        <time>2024-04-07T07:32:36Z</time>
      </trkpt>
      <trkpt lat="44.1282" lon="1.8802">
        <ele>145.2</ele>
        <time>2024-04-07T07:32:37Z</time>
      </trkpt>
      <trkpt lat="44.12823" lon="1.88015">
        <ele>145</ele>
        <time>2024-04-07T07:32:38Z</time>
      </trkpt>
      <trkpt lat="44.12823" lon="1.88015">
        <ele>145</ele>
        <time>2024-04-07T07:32:39Z</time>
      </trkpt>
      <trkpt lat="44.12826" lon="1.88012">
        <ele>145</ele>
        <time>2024-04-07T07:32:40Z</time>
      </trkpt>
      <trkpt lat="44.1283" lon="1.88005">
        <ele>145</ele>
        <time>2024-04-07T07:32:41Z</time>
      </trkpt>
      <trkpt lat="44.12831" lon="1.88002">
        <ele>145</ele>
        <time>2024-04-07T07:32:42Z</time>
      </trkpt>
      <trkpt lat="44.12831" lon="1.87999">
        <ele>145</ele>
        <time>2024-04-07T07:32:43Z</time>
      </trkpt>
      <trkpt lat="44.12831" lon="1.87999">
        <ele>145</ele>
        <time>2024-04-07T07:32:44Z</time>
      </trkpt>
      <trkpt lat="44.1283" lon="1.87993">
        <ele>144.8</ele>
        <time>2024-04-07T07:32:45Z</time>
      </trkpt>
      <trkpt lat="44.12831" lon="1.8799">
        <ele>144.8</ele>
        <time>2024-04-07T07:32:46Z</time>
      </trkpt>
      <trkpt lat="44.12832" lon="1.87987">
        <ele>144.8</ele>
        <time>2024-04-07T07:32:47Z</time>
      </trkpt>
      <trkpt lat="44.12832" lon="1.87985">
        <ele>144.8</ele>
        <time>2024-04-07T07:32:48Z</time>
      </trkpt>
      <trkpt lat="44.12833" lon="1.87983">
        <ele>144.8</ele>
        <time>2024-04-07T07:32:49Z</time>
      </trkpt>
      <trkpt lat="44.12833" lon="1.87983">
        <ele>144.8</ele>
        <time>2024-04-07T07:32:50Z</time>
      </trkpt>
      <trkpt lat="44.12833" lon="1.8798">
        <ele>144.8</ele>
        <time>2024-04-07T07:32:51Z</time>
      </trkpt>
      <trkpt lat="44.12833" lon="1.8798">
        <ele>144.8</ele>
        <time>2024-04-07T07:32:52Z</time>
      </trkpt>
      <trkpt lat="44.12836" lon="1.87977">
        <ele>144.2</ele>
        <time>2024-04-07T07:38:12Z</time>
      </trkpt>
      <trkpt lat="44.12838" lon="1.87976">
        <ele>144.2</ele>
        <time>2024-04-07T07:38:13Z</time>
      </trkpt>
      <trkpt lat="44.1284" lon="1.87975">
        <ele>144.2</ele>
        <time>2024-04-07T07:38:14Z</time>
      </trkpt>
      <trkpt lat="44.12842" lon="1.87972">
        <ele>144.2</ele>
        <time>2024-04-07T07:38:15Z</time>
      </trkpt>
      <trkpt lat="44.12843" lon="1.87968">
        <ele>144.2</ele>
        <time>2024-04-07T07:38:16Z</time>
      </trkpt>
      <trkpt lat="44.12843" lon="1.87965">
        <ele>144.2</ele>
        <time>2024-04-07T07:38:17Z</time>
      </trkpt>
      <trkpt lat="44.12843" lon="1.87961">
        <ele>144</ele>
        <time>2024-04-07T07:38:18Z</time>
      </trkpt>
      <trkpt lat="44.12842" lon="1.87958">
        <ele>144</ele>
        <time>2024-04-07T07:38:19Z</time>
      </trkpt>
      <trkpt lat="44.12841" lon="1.87955">
        <ele>144</ele>
        <time>2024-04-07T07:38:20Z</time>
      </trkpt>
      <trkpt lat="44.12841" lon="1.87952">
        <ele>144</ele>
        <time>2024-04-07T07:38:21Z</time>
      </trkpt>
      <trkpt lat="44.1284" lon="1.87949">
        <ele>144.2</ele>
        <time>2024-04-07T07:38:22Z</time>
      </trkpt>
      <trkpt lat="44.1284" lon="1.87945">
        <ele>144.4</ele>
        <time>2024-04-07T07:38:23Z</time>
      </trkpt>
      <trkpt lat="44.12839" lon="1.87941">
        <ele>144.6</ele>
        <time>2024-04-07T07:38:24Z</time>
      </trkpt>
      <trkpt lat="44.12839" lon="1.87937">
        <ele>144.8</ele>
        <time>2024-04-07T07:38:25Z</time>
      </trkpt>
      <trkpt lat="44.12838" lon="1.87933">
        <ele>145</ele>
        <time>2024-04-07T07:38:26Z</time>
      </trkpt>
      <trkpt lat="44.12836" lon="1.87928">
        <ele>145.2</ele>
        <time>2024-04-07T07:38:27Z</time>
      </trkpt>
      <trkpt lat="44.12832" lon="1.87925">
        <ele>145.4</ele>
        <time>2024-04-07T07:38:28Z</time>
      </trkpt>
      <trkpt lat="44.1283" lon="1.87922">
        <ele>145.6</ele>
        <time>2024-04-07T07:38:29Z</time>
      </trkpt>
      <trkpt lat="44.12827" lon="1.87919">
        <ele>145.8</ele>
        <time>2024-04-07T07:38:30Z</time>
      </trkpt>
      <trkpt lat="44.12824" lon="1.87916">
        <ele>146</ele>
        <time>2024-04-07T07:38:31Z</time>
      </trkpt>
      <trkpt lat="44.12821" lon="1.87913">
        <ele>146.2</ele>
        <time>2024-04-07T07:38:32Z</time>
      </trkpt>
      <trkpt lat="44.12819" lon="1.8791">
        <ele>146.2</ele>
        <time>2024-04-07T07:38:33Z</time>
      </trkpt>
      <trkpt lat="44.12816" lon="1.87907">
        <ele>146.4</ele>
        <time>2024-04-07T07:38:34Z</time>
      </trkpt>
      <trkpt lat="44.12813" lon="1.87905">
        <ele>146.6</ele>
        <time>2024-04-07T07:38:35Z</time>
      </trkpt>
      <trkpt lat="44.1281" lon="1.87902">
        <ele>147</ele>
        <time>2024-04-07T07:38:36Z</time>
      </trkpt>
      <trkpt lat="44.12807" lon="1.87901">
        <ele>147</ele>
        <time>2024-04-07T07:38:37Z</time>
      </trkpt>
      <trkpt lat="44.12803" lon="1.87898">
        <ele>147.2</ele>
        <time>2024-04-07T07:38:38Z</time>
      </trkpt>
      <trkpt lat="44.128" lon="1.87896">
        <ele>147.4</ele>
        <time>2024-04-07T07:38:39Z</time>
      </trkpt>
      <trkpt lat="44.12796" lon="1.87894">
        <ele>147.6</ele>
        <time>2024-04-07T07:38:40Z</time>
      </trkpt>
      <trkpt lat="44.12792" lon="1.87893">
        <ele>147.8</ele>
        <time>2024-04-07T07:38:41Z</time>
      </trkpt>
      <trkpt lat="44.12789" lon="1.87892">
        <ele>148</ele>
        <time>2024-04-07T07:38:42Z</time>
      </trkpt>
      <trkpt lat="44.12785" lon="1.87891">
        <ele>148.2</ele>
        <time>2024-04-07T07:38:43Z</time>
      </trkpt>
      <trkpt lat="44.12782" lon="1.87891">
        <ele>148.2</ele>
        <time>2024-04-07T07:38:44Z</time>
      </trkpt>
      <trkpt lat="44.12778" lon="1.87891">
        <ele>148.6</ele>
        <time>2024-04-07T07:38:45Z</time>
      </trkpt>
      <trkpt lat="44.12774" lon="1.8789">
        <ele>149</ele>
        <time>2024-04-07T07:38:46Z</time>
      </trkpt>
      <trkpt lat="44.12771" lon="1.8789">
        <ele>149</ele>
        <time>2024-04-07T07:38:47Z</time>
      </trkpt>
      <trkpt lat="44.12767" lon="1.8789">
        <ele>149.2</ele>
        <time>2024-04-07T07:38:48Z</time>
      </trkpt>
      <trkpt lat="44.12764" lon="1.87891">
        <ele>149.2</ele>
        <time>2024-04-07T07:38:49Z</time>
      </trkpt>
      <trkpt lat="44.1276" lon="1.87892">
        <ele>149.4</ele>
        <time>2024-04-07T07:38:50Z</time>
      </trkpt>
      <trkpt lat="44.12757" lon="1.87892">
        <ele>149.8</ele>
        <time>2024-04-07T07:38:51Z</time>
      </trkpt>
      <trkpt lat="44.12754" lon="1.87894">
        <ele>150</ele>
        <time>2024-04-07T07:38:52Z</time>
      </trkpt>
      <trkpt lat="44.12751" lon="1.87894">
        <ele>150.2</ele>
        <time>2024-04-07T07:38:53Z</time>
      </trkpt>
      <trkpt lat="44.12746" lon="1.87895">
        <ele>150.4</ele>
        <time>2024-04-07T07:38:54Z</time>
      </trkpt>
      <trkpt lat="44.12743" lon="1.87897">
        <ele>150.6</ele>
        <time>2024-04-07T07:38:55Z</time>
      </trkpt>
      <trkpt lat="44.12739" lon="1.87899">
        <ele>150.6</ele>
        <time>2024-04-07T07:38:56Z</time>
      </trkpt>
      <trkpt lat="44.12737" lon="1.879">
        <ele>150.8</ele>
        <time>2024-04-07T07:38:57Z</time>
      </trkpt>
      <trkpt lat="44.12733" lon="1.879">
        <ele>150.8</ele>
        <time>2024-04-07T07:38:58Z</time>
      </trkpt>
      <trkpt lat="44.1273" lon="1.87898">
        <ele>151.2</ele>
        <time>2024-04-07T07:38:59Z</time>
      </trkpt>
      <trkpt lat="44.12726" lon="1.87896">
        <ele>151.2</ele>
        <time>2024-04-07T07:39:00Z</time>
      </trkpt>
      <trkpt lat="44.12724" lon="1.87892">
        <ele>151.6</ele>
        <time>2024-04-07T07:39:01Z</time>
      </trkpt>
      <trkpt lat="44.12722" lon="1.87889">
        <ele>151.6</ele>
        <time>2024-04-07T07:39:02Z</time>
      </trkpt>
      <trkpt lat="44.12719" lon="1.87885">
        <ele>152</ele>
        <time>2024-04-07T07:39:03Z</time>
      </trkpt>
      <trkpt lat="44.12718" lon="1.8788">
        <ele>152.4</ele>
        <time>2024-04-07T07:39:04Z</time>
      </trkpt>
      <trkpt lat="44.12717" lon="1.87875">
        <ele>152.4</ele>
        <time>2024-04-07T07:39:05Z</time>
      </trkpt>
      <trkpt lat="44.12715" lon="1.87871">
        <ele>152.6</ele>
        <time>2024-04-07T07:39:06Z</time>
      </trkpt>
      <trkpt lat="44.12714" lon="1.87867">
        <ele>152.8</ele>
        <time>2024-04-07T07:39:07Z</time>
      </trkpt>
      <trkpt lat="44.12713" lon="1.87863">
        <ele>153</ele>
        <time>2024-04-07T07:39:08Z</time>
      </trkpt>
      <trkpt lat="44.12712" lon="1.87858">
        <ele>153</ele>
        <time>2024-04-07T07:39:09Z</time>
      </trkpt>
      <trkpt lat="44.12711" lon="1.87852">
        <ele>153.4</ele>
        <time>2024-04-07T07:39:10Z</time>
      </trkpt>
      <trkpt lat="44.1271" lon="1.87848">
        <ele>153.6</ele>
        <time>2024-04-07T07:39:11Z</time>
      </trkpt>
      <trkpt lat="44.12709" lon="1.87844">
        <ele>154</ele>
        <time>2024-04-07T07:39:12Z</time>
      </trkpt>
      <trkpt lat="44.12707" lon="1.87838">
        <ele>154.8</ele>
        <time>2024-04-07T07:39:13Z</time>
      </trkpt>
      <trkpt lat="44.12706" lon="1.87834">
        <ele>154.8</ele>
        <time>2024-04-07T07:39:14Z</time>
      </trkpt>
      <trkpt lat="44.12704" lon="1.8783">
        <ele>155.4</ele>
        <time>2024-04-07T07:39:15Z</time>
      </trkpt>
      <trkpt lat="44.12702" lon="1.87825">
        <ele>155.6</ele>
        <time>2024-04-07T07:39:16Z</time>
      </trkpt>
      <trkpt lat="44.12701" lon="1.87821">
        <ele>156.4</ele>
        <time>2024-04-07T07:39:17Z</time>
      </trkpt>
      <trkpt lat="44.12699" lon="1.87818">
        <ele>156.6</ele>
        <time>2024-04-07T07:39:18Z</time>
      </trkpt>
      <trkpt lat="44.12697" lon="1.87814">
        <ele>157</ele>
        <time>2024-04-07T07:39:19Z</time>
      </trkpt>
      <trkpt lat="44.12695" lon="1.8781">
        <ele>157.2</ele>
        <time>2024-04-07T07:39:20Z</time>
      </trkpt>
      <trkpt lat="44.12695" lon="1.87806">
        <ele>157.8</ele>
        <time>2024-04-07T07:39:21Z</time>
      </trkpt>
      <trkpt lat="44.12694" lon="1.87802">
        <ele>158.4</ele>
        <time>2024-04-07T07:39:22Z</time>
      </trkpt>
      <trkpt lat="44.12693" lon="1.87797">
        <ele>158.6</ele>
        <time>2024-04-07T07:39:23Z</time>
      </trkpt>
      <trkpt lat="44.12692" lon="1.87793">
        <ele>159</ele>
        <time>2024-04-07T07:39:24Z</time>
      </trkpt>
      <trkpt lat="44.1269" lon="1.87787">
        <ele>159</ele>
        <time>2024-04-07T07:39:25Z</time>
      </trkpt>
      <trkpt lat="44.12688" lon="1.87783">
        <ele>159.6</ele>
        <time>2024-04-07T07:39:26Z</time>
      </trkpt>
      <trkpt lat="44.12687" lon="1.87778">
        <ele>160</ele>
        <time>2024-04-07T07:39:27Z</time>
      </trkpt>
      <trkpt lat="44.12686" lon="1.87773">
        <ele>160.8</ele>
        <time>2024-04-07T07:39:28Z</time>
      </trkpt>
      <trkpt lat="44.12685" lon="1.87768">
        <ele>161.4</ele>
        <time>2024-04-07T07:39:29Z</time>
      </trkpt>
      <trkpt lat="44.12684" lon="1.87763">
        <ele>161.6</ele>
        <time>2024-04-07T07:39:30Z</time>
      </trkpt>
      <trkpt lat="44.12684" lon="1.87763">
        <ele>162</ele>
        <time>2024-04-07T07:39:31Z</time>
      </trkpt>
      <trkpt lat="44.12683" lon="1.87755">
        <ele>162.2</ele>
        <time>2024-04-07T07:39:32Z</time>
      </trkpt>
      <trkpt lat="44.12682" lon="1.8775">
        <ele>162.6</ele>
        <time>2024-04-07T07:39:33Z</time>
      </trkpt>
      <trkpt lat="44.12682" lon="1.87743">
        <ele>162.8</ele>
        <time>2024-04-07T07:39:34Z</time>
      </trkpt>
      <trkpt lat="44.12681" lon="1.87738">
        <ele>163.2</ele>
        <time>2024-04-07T07:39:35Z</time>
      </trkpt>
      <trkpt lat="44.12681" lon="1.87732">
        <ele>163.4</ele>
        <time>2024-04-07T07:39:36Z</time>
      </trkpt>
      <trkpt lat="44.1268" lon="1.87727">
        <ele>163.6</ele>
        <time>2024-04-07T07:39:37Z</time>
      </trkpt>
      <trkpt lat="44.1268" lon="1.87722">
        <ele>164.2</ele>
        <time>2024-04-07T07:39:38Z</time>
      </trkpt>
      <trkpt lat="44.12681" lon="1.87717">
        <ele>164.2</ele>
        <time>2024-04-07T07:39:39Z</time>
      </trkpt>
      <trkpt lat="44.12681" lon="1.87712">
        <ele>164.8</ele>
        <time>2024-04-07T07:39:40Z</time>
      </trkpt>
      <trkpt lat="44.12682" lon="1.87707">
        <ele>164.8</ele>
        <time>2024-04-07T07:39:41Z</time>
      </trkpt>
      <trkpt lat="44.12682" lon="1.87702">
        <ele>165.4</ele>
        <time>2024-04-07T07:39:42Z</time>
      </trkpt>
      <trkpt lat="44.12683" lon="1.87698">
        <ele>165.4</ele>
        <time>2024-04-07T07:39:43Z</time>
      </trkpt>
      <trkpt lat="44.12684" lon="1.87694">
        <ele>165.8</ele>
        <time>2024-04-07T07:39:44Z</time>
      </trkpt>
      <trkpt lat="44.12685" lon="1.87689">
        <ele>166</ele>
        <time>2024-04-07T07:39:45Z</time>
      </trkpt>
      <trkpt lat="44.12686" lon="1.87685">
        <ele>166.2</ele>
        <time>2024-04-07T07:39:46Z</time>
      </trkpt>
      <trkpt lat="44.12687" lon="1.87681">
        <ele>166.8</ele>
        <time>2024-04-07T07:39:47Z</time>
      </trkpt>
      <trkpt lat="44.12688" lon="1.87676">
        <ele>166.8</ele>
        <time>2024-04-07T07:39:48Z</time>
      </trkpt>
      <trkpt lat="44.12689" lon="1.87672">
        <ele>167.4</ele>
        <time>2024-04-07T07:39:49Z</time>
      </trkpt>
      <trkpt lat="44.1269" lon="1.87669">
        <ele>167.4</ele>
        <time>2024-04-07T07:39:50Z</time>
      </trkpt>
      <trkpt lat="44.1269" lon="1.87665">
        <ele>168</ele>
        <time>2024-04-07T07:39:51Z</time>
      </trkpt>
      <trkpt lat="44.12692" lon="1.87661">
        <ele>168.4</ele>
        <time>2024-04-07T07:39:52Z</time>
      </trkpt>
      <trkpt lat="44.12693" lon="1.87658">
        <ele>168.6</ele>
        <time>2024-04-07T07:39:53Z</time>
      </trkpt>
      <trkpt lat="44.12694" lon="1.87654">
        <ele>168.8</ele>
        <time>2024-04-07T07:39:54Z</time>
      </trkpt>
      <trkpt lat="44.12695" lon="1.8765">
        <ele>169.4</ele>
        <time>2024-04-07T07:39:55Z</time>
      </trkpt>
      <trkpt lat="44.12696" lon="1.87645">
        <ele>169.8</ele>
        <time>2024-04-07T07:39:56Z</time>
      </trkpt>
      <trkpt lat="44.12697" lon="1.87642">
        <ele>170</ele>
        <time>2024-04-07T07:39:57Z</time>
      </trkpt>
      <trkpt lat="44.12698" lon="1.87638">
        <ele>170.4</ele>
        <time>2024-04-07T07:39:58Z</time>
      </trkpt>
      <trkpt lat="44.12699" lon="1.87634">
        <ele>170.6</ele>
        <time>2024-04-07T07:39:59Z</time>
      </trkpt>
      <trkpt lat="44.127" lon="1.8763">
        <ele>171.2</ele>
        <time>2024-04-07T07:40:00Z</time>
      </trkpt>
      <trkpt lat="44.12701" lon="1.87626">
        <ele>171.4</ele>
        <time>2024-04-07T07:40:01Z</time>
      </trkpt>
      <trkpt lat="44.12702" lon="1.87622">
        <ele>171.8</ele>
        <time>2024-04-07T07:40:02Z</time>
      </trkpt>
      <trkpt lat="44.12703" lon="1.87617">
        <ele>172.2</ele>
        <time>2024-04-07T07:40:03Z</time>
      </trkpt>
      <trkpt lat="44.12704" lon="1.87613">
        <ele>172.8</ele>
        <time>2024-04-07T07:40:04Z</time>
      </trkpt>
      <trkpt lat="44.12705" lon="1.87609">
        <ele>173.4</ele>
        <time>2024-04-07T07:40:05Z</time>
      </trkpt>
      <trkpt lat="44.12707" lon="1.87605">
        <ele>173.6</ele>
        <time>2024-04-07T07:40:06Z</time>
      </trkpt>
      <trkpt lat="44.12708" lon="1.87602">
        <ele>174.2</ele>
        <time>2024-04-07T07:40:07Z</time>
      </trkpt>
      <trkpt lat="44.12709" lon="1.87598">
        <ele>174.4</ele>
        <time>2024-04-07T07:40:08Z</time>
      </trkpt>
      <trkpt lat="44.12709" lon="1.87593">
        <ele>175</ele>
        <time>2024-04-07T07:40:09Z</time>
      </trkpt>
      <trkpt lat="44.12711" lon="1.87589">
        <ele>175.2</ele>
        <time>2024-04-07T07:40:10Z</time>
      </trkpt>
      <trkpt lat="44.12711" lon="1.87584">
        <ele>175.4</ele>
        <time>2024-04-07T07:40:11Z</time>
      </trkpt>
      <trkpt lat="44.12712" lon="1.87579">
        <ele>175.6</ele>
        <time>2024-04-07T07:40:12Z</time>
      </trkpt>
      <trkpt lat="44.12712" lon="1.87575">
        <ele>176</ele>
        <time>2024-04-07T07:40:13Z</time>
      </trkpt>
      <trkpt lat="44.12713" lon="1.8757">
        <ele>176.6</ele>
        <time>2024-04-07T07:40:14Z</time>
      </trkpt>
      <trkpt lat="44.12713" lon="1.87569">
        <ele>176.8</ele>
        <time>2024-04-07T07:40:15Z</time>
      </trkpt>
      <trkpt lat="44.12713" lon="1.87569">
        <ele>177</ele>
        <time>2024-04-07T07:40:16Z</time>
      </trkpt>
      <trkpt lat="44.12712" lon="1.87568">
        <ele>177.2</ele>
        <time>2024-04-07T07:40:17Z</time>
      </trkpt>
      <trkpt lat="44.1271" lon="1.87567">
        <ele>177.4</ele>
        <time>2024-04-07T07:40:18Z</time>
      </trkpt>
      <trkpt lat="44.12708" lon="1.87565">
        <ele>177.4</ele>
        <time>2024-04-07T07:40:19Z</time>
      </trkpt>
      <trkpt lat="44.12708" lon="1.87562">
        <ele>177.4</ele>
        <time>2024-04-07T07:40:20Z</time>
      </trkpt>
      <trkpt lat="44.12707" lon="1.87557">
        <ele>177.6</ele>
        <time>2024-04-07T07:40:21Z</time>
      </trkpt>
      <trkpt lat="44.12706" lon="1.87551">
        <ele>177.6</ele>
        <time>2024-04-07T07:40:22Z</time>
      </trkpt>
      <trkpt lat="44.12705" lon="1.87545">
        <ele>177.6</ele>
        <time>2024-04-07T07:40:23Z</time>
      </trkpt>
      <trkpt lat="44.12704" lon="1.87538">
        <ele>177.4</ele>
        <time>2024-04-07T07:40:24Z</time>
      </trkpt>
      <trkpt lat="44.12703" lon="1.87531">
        <ele>177.4</ele>
        <time>2024-04-07T07:40:25Z</time>
      </trkpt>
      <trkpt lat="44.12703" lon="1.87523">
        <ele>177.4</ele>
        <time>2024-04-07T07:40:26Z</time>
      </trkpt>
      <trkpt lat="44.12702" lon="1.87516">
        <ele>177.2</ele>
        <time>2024-04-07T07:40:27Z</time>
      </trkpt>
      <trkpt lat="44.12701" lon="1.87508">
        <ele>177.2</ele>
        <time>2024-04-07T07:40:28Z</time>
      </trkpt>
      <trkpt lat="44.12701" lon="1.87501">
        <ele>177</ele>
        <time>2024-04-07T07:40:29Z</time>
      </trkpt>
      <trkpt lat="44.12702" lon="1.87494">
        <ele>176.8</ele>
        <time>2024-04-07T07:40:30Z</time>
      </trkpt>
      <trkpt lat="44.12703" lon="1.87488">
        <ele>176.6</ele>
        <time>2024-04-07T07:40:31Z</time>
      </trkpt>
      <trkpt lat="44.12704" lon="1.87482">
        <ele>176.4</ele>
        <time>2024-04-07T07:40:32Z</time>
      </trkpt>
      <trkpt lat="44.12706" lon="1.87476">
        <ele>176.2</ele>
        <time>2024-04-07T07:40:33Z</time>
      </trkpt>
      <trkpt lat="44.12707" lon="1.8747">
        <ele>176</ele>
        <time>2024-04-07T07:40:34Z</time>
      </trkpt>
      <trkpt lat="44.12709" lon="1.87464">
        <ele>176</ele>
        <time>2024-04-07T07:40:35Z</time>
      </trkpt>
      <trkpt lat="44.12711" lon="1.87459">
        <ele>175.8</ele>
        <time>2024-04-07T07:40:36Z</time>
      </trkpt>
      <trkpt lat="44.12713" lon="1.87453">
        <ele>175.8</ele>
        <time>2024-04-07T07:40:37Z</time>
      </trkpt>
      <trkpt lat="44.12716" lon="1.87448">
        <ele>176</ele>
        <time>2024-04-07T07:40:38Z</time>
      </trkpt>
      <trkpt lat="44.12719" lon="1.87443">
        <ele>176.2</ele>
        <time>2024-04-07T07:40:39Z</time>
      </trkpt>
      <trkpt lat="44.12722" lon="1.87439">
        <ele>176.4</ele>
        <time>2024-04-07T07:40:40Z</time>
      </trkpt>
      <trkpt lat="44.12726" lon="1.87434">
        <ele>176.6</ele>
        <time>2024-04-07T07:40:41Z</time>
      </trkpt>
      <trkpt lat="44.12728" lon="1.8743">
        <ele>176.8</ele>
        <time>2024-04-07T07:40:42Z</time>
      </trkpt>
      <trkpt lat="44.12731" lon="1.87426">
        <ele>177.2</ele>
        <time>2024-04-07T07:40:43Z</time>
      </trkpt>
      <trkpt lat="44.12733" lon="1.87421">
        <ele>177.4</ele>
        <time>2024-04-07T07:40:44Z</time>
      </trkpt>
      <trkpt lat="44.12736" lon="1.87417">
        <ele>177.8</ele>
        <time>2024-04-07T07:40:45Z</time>
      </trkpt>
      <trkpt lat="44.12739" lon="1.87412">
        <ele>178</ele>
        <time>2024-04-07T07:40:46Z</time>
      </trkpt>
      <trkpt lat="44.12742" lon="1.87407">
        <ele>178.2</ele>
        <time>2024-04-07T07:40:47Z</time>
      </trkpt>
      <trkpt lat="44.12744" lon="1.87401">
        <ele>178.4</ele>
        <time>2024-04-07T07:40:48Z</time>
      </trkpt>
      <trkpt lat="44.12747" lon="1.87397">
        <ele>178.4</ele>
        <time>2024-04-07T07:40:49Z</time>
      </trkpt>
      <trkpt lat="44.1275" lon="1.87391">
        <ele>178.8</ele>
        <time>2024-04-07T07:40:50Z</time>
      </trkpt>
      <trkpt lat="44.12752" lon="1.87386">
        <ele>179</ele>
        <time>2024-04-07T07:40:51Z</time>
      </trkpt>
      <trkpt lat="44.12755" lon="1.8738">
        <ele>179.4</ele>
        <time>2024-04-07T07:40:52Z</time>
      </trkpt>
      <trkpt lat="44.12757" lon="1.87375">
        <ele>179.4</ele>
        <time>2024-04-07T07:40:53Z</time>
      </trkpt>
      <trkpt lat="44.12759" lon="1.8737">
        <ele>179.8</ele>
        <time>2024-04-07T07:40:54Z</time>
      </trkpt>
      <trkpt lat="44.12762" lon="1.87364">
        <ele>180</ele>
        <time>2024-04-07T07:40:55Z</time>
      </trkpt>
      <trkpt lat="44.12764" lon="1.87361">
        <ele>180.2</ele>
        <time>2024-04-07T07:40:56Z</time>
      </trkpt>
      <trkpt lat="44.12767" lon="1.87355">
        <ele>180.4</ele>
        <time>2024-04-07T07:40:57Z</time>
      </trkpt>
      <trkpt lat="44.12769" lon="1.87349">
        <ele>180.6</ele>
        <time>2024-04-07T07:40:58Z</time>
      </trkpt>
      <trkpt lat="44.12771" lon="1.87344">
        <ele>180.6</ele>
        <time>2024-04-07T07:40:59Z</time>
      </trkpt>
      <trkpt lat="44.12773" lon="1.87339">
        <ele>180.8</ele>
        <time>2024-04-07T07:41:00Z</time>
      </trkpt>
      <trkpt lat="44.12775" lon="1.87334">
        <ele>181.2</ele>
        <time>2024-04-07T07:41:01Z</time>
      </trkpt>
      <trkpt lat="44.12778" lon="1.87329">
        <ele>181.6</ele>
        <time>2024-04-07T07:41:02Z</time>
      </trkpt>
      <trkpt lat="44.1278" lon="1.87324">
        <ele>182</ele>
        <time>2024-04-07T07:41:03Z</time>
      </trkpt>
      <trkpt lat="44.12782" lon="1.87319">
        <ele>182.2</ele>
        <time>2024-04-07T07:41:04Z</time>
      </trkpt>
      <trkpt lat="44.12785" lon="1.87314">
        <ele>182.2</ele>
        <time>2024-04-07T07:41:05Z</time>
      </trkpt>
      <trkpt lat="44.12786" lon="1.8731">
        <ele>182.4</ele>
        <time>2024-04-07T07:41:06Z</time>
      </trkpt>
      <trkpt lat="44.12789" lon="1.87304">
        <ele>182.4</ele>
        <time>2024-04-07T07:41:07Z</time>
      </trkpt>
      <trkpt lat="44.12791" lon="1.87298">
        <ele>182.6</ele>
        <time>2024-04-07T07:41:08Z</time>
      </trkpt>
      <trkpt lat="44.12793" lon="1.87293">
        <ele>182.8</ele>
        <time>2024-04-07T07:41:09Z</time>
      </trkpt>
      <trkpt lat="44.12796" lon="1.87288">
        <ele>183</ele>
        <time>2024-04-07T07:41:10Z</time>
      </trkpt>
      <trkpt lat="44.12798" lon="1.87283">
        <ele>183.2</ele>
        <time>2024-04-07T07:41:11Z</time>
      </trkpt>
      <trkpt lat="44.128" lon="1.87279">
        <ele>183.4</ele>
        <time>2024-04-07T07:41:12Z</time>
      </trkpt>
      <trkpt lat="44.12803" lon="1.87274">
        <ele>183.8</ele>
        <time>2024-04-07T07:41:13Z</time>
      </trkpt>
      <trkpt lat="44.12803" lon="1.87274">
        <ele>184</ele>
        <time>2024-04-07T07:41:14Z</time>
      </trkpt>
      <trkpt lat="44.12808" lon="1.87264">
        <ele>184.2</ele>
        <time>2024-04-07T07:41:15Z</time>
      </trkpt>
      <trkpt lat="44.12811" lon="1.8726">
        <ele>184.2</ele>
        <time>2024-04-07T07:41:16Z</time>
      </trkpt>
      <trkpt lat="44.12814" lon="1.87256">
        <ele>184.4</ele>
        <time>2024-04-07T07:41:17Z</time>
      </trkpt>
      <trkpt lat="44.12817" lon="1.87251">
        <ele>184.6</ele>
        <time>2024-04-07T07:41:18Z</time>
      </trkpt>
      <trkpt lat="44.1282" lon="1.87248">
        <ele>184.8</ele>
        <time>2024-04-07T07:41:19Z</time>
      </trkpt>
      <trkpt lat="44.12823" lon="1.87244">
        <ele>185</ele>
        <time>2024-04-07T07:41:20Z</time>
      </trkpt>
      <trkpt lat="44.12826" lon="1.87241">
        <ele>185.4</ele>
        <time>2024-04-07T07:41:21Z</time>
      </trkpt>
      <trkpt lat="44.12831" lon="1.87238">
        <ele>185.6</ele>
        <time>2024-04-07T07:41:22Z</time>
      </trkpt>
      <trkpt lat="44.12835" lon="1.87235">
        <ele>185.6</ele>
        <time>2024-04-07T07:41:23Z</time>
      </trkpt>
      <trkpt lat="44.12839" lon="1.87232">
        <ele>185.8</ele>
        <time>2024-04-07T07:41:24Z</time>
      </trkpt>
      <trkpt lat="44.12844" lon="1.8723">
        <ele>186</ele>
        <time>2024-04-07T07:41:25Z</time>
      </trkpt>
      <trkpt lat="44.12848" lon="1.87227">
        <ele>186.2</ele>
        <time>2024-04-07T07:41:26Z</time>
      </trkpt>
      <trkpt lat="44.12852" lon="1.87224">
        <ele>186.2</ele>
        <time>2024-04-07T07:41:27Z</time>
      </trkpt>
      <trkpt lat="44.12856" lon="1.87222">
        <ele>186.4</ele>
        <time>2024-04-07T07:41:28Z</time>
      </trkpt>
      <trkpt lat="44.12861" lon="1.87219">
        <ele>186.6</ele>
        <time>2024-04-07T07:41:29Z</time>
      </trkpt>
      <trkpt lat="44.12865" lon="1.87216">
        <ele>186.8</ele>
        <time>2024-04-07T07:41:30Z</time>
      </trkpt>
      <trkpt lat="44.12865" lon="1.87216">
        <ele>186.8</ele>
        <time>2024-04-07T07:41:31Z</time>
      </trkpt>
      <trkpt lat="44.12874" lon="1.8721">
        <ele>186.8</ele>
        <time>2024-04-07T07:41:32Z</time>
      </trkpt>
      <trkpt lat="44.12878" lon="1.87208">
        <ele>187</ele>
        <time>2024-04-07T07:41:33Z</time>
      </trkpt>
      <trkpt lat="44.12883" lon="1.87205">
        <ele>187.2</ele>
        <time>2024-04-07T07:41:34Z</time>
      </trkpt>
      <trkpt lat="44.12887" lon="1.87202">
        <ele>187.6</ele>
        <time>2024-04-07T07:41:35Z</time>
      </trkpt>
      <trkpt lat="44.12887" lon="1.87202">
        <ele>187.6</ele>
        <time>2024-04-07T07:41:36Z</time>
      </trkpt>
      <trkpt lat="44.12896" lon="1.87196">
        <ele>187.6</ele>
        <time>2024-04-07T07:41:37Z</time>
      </trkpt>
      <trkpt lat="44.12901" lon="1.87193">
        <ele>188</ele>
        <time>2024-04-07T07:41:38Z</time>
      </trkpt>
      <trkpt lat="44.12905" lon="1.87189">
        <ele>188.2</ele>
        <time>2024-04-07T07:41:39Z</time>
      </trkpt>
      <trkpt lat="44.1291" lon="1.87186">
        <ele>188.2</ele>
        <time>2024-04-07T07:41:40Z</time>
      </trkpt>
      <trkpt lat="44.12915" lon="1.87183">
        <ele>188.2</ele>
        <time>2024-04-07T07:41:41Z</time>
      </trkpt>
      <trkpt lat="44.1292" lon="1.87179">
        <ele>188.2</ele>
        <time>2024-04-07T07:41:42Z</time>
      </trkpt>
      <trkpt lat="44.12925" lon="1.87176">
        <ele>188.2</ele>
        <time>2024-04-07T07:41:43Z</time>
      </trkpt>
      <trkpt lat="44.1293" lon="1.87173">
        <ele>188.2</ele>
        <time>2024-04-07T07:41:44Z</time>
      </trkpt>
      <trkpt lat="44.12935" lon="1.87169">
        <ele>188.2</ele>
        <time>2024-04-07T07:41:45Z</time>
      </trkpt>
      <trkpt lat="44.1294" lon="1.87165">
        <ele>188.6</ele>
        <time>2024-04-07T07:41:46Z</time>
      </trkpt>
      <trkpt lat="44.12946" lon="1.87162">
        <ele>188.2</ele>
        <time>2024-04-07T07:41:47Z</time>
      </trkpt>
      <trkpt lat="44.12951" lon="1.87159">
        <ele>188.2</ele>
        <time>2024-04-07T07:41:48Z</time>
      </trkpt>
      <trkpt lat="44.12956" lon="1.87156">
        <ele>188.2</ele>
        <time>2024-04-07T07:41:49Z</time>
      </trkpt>
      <trkpt lat="44.12961" lon="1.87152">
        <ele>188.2</ele>
        <time>2024-04-07T07:41:50Z</time>
      </trkpt>
      <trkpt lat="44.12966" lon="1.87149">
        <ele>188.2</ele>
        <time>2024-04-07T07:41:51Z</time>
      </trkpt>
      <trkpt lat="44.12971" lon="1.87146">
        <ele>188.2</ele>
        <time>2024-04-07T07:41:52Z</time>
      </trkpt>
      <trkpt lat="44.12976" lon="1.87143">
        <ele>188.2</ele>
        <time>2024-04-07T07:41:53Z</time>
      </trkpt>
      <trkpt lat="44.12981" lon="1.87139">
        <ele>188.2</ele>
        <time>2024-04-07T07:41:54Z</time>
      </trkpt>
      <trkpt lat="44.12986" lon="1.87136">
        <ele>188.2</ele>
        <time>2024-04-07T07:41:55Z</time>
      </trkpt>
      <trkpt lat="44.1299" lon="1.87132">
        <ele>188.2</ele>
        <time>2024-04-07T07:41:56Z</time>
      </trkpt>
      <trkpt lat="44.12995" lon="1.87129">
        <ele>188.2</ele>
        <time>2024-04-07T07:41:57Z</time>
      </trkpt>
      <trkpt lat="44.13" lon="1.87126">
        <ele>188.2</ele>
        <time>2024-04-07T07:41:58Z</time>
      </trkpt>
      <trkpt lat="44.13005" lon="1.87123">
        <ele>188.2</ele>
        <time>2024-04-07T07:41:59Z</time>
      </trkpt>
      <trkpt lat="44.13009" lon="1.87121">
        <ele>188.2</ele>
        <time>2024-04-07T07:42:00Z</time>
      </trkpt>
      <trkpt lat="44.13013" lon="1.87118">
        <ele>188.2</ele>
        <time>2024-04-07T07:42:01Z</time>
      </trkpt>
      <trkpt lat="44.13018" lon="1.87115">
        <ele>188.2</ele>
        <time>2024-04-07T07:42:02Z</time>
      </trkpt>
      <trkpt lat="44.13022" lon="1.87113">
        <ele>188.2</ele>
        <time>2024-04-07T07:42:03Z</time>
      </trkpt>
      <trkpt lat="44.13028" lon="1.87112">
        <ele>188.2</ele>
        <time>2024-04-07T07:42:04Z</time>
      </trkpt>
      <trkpt lat="44.13033" lon="1.87111">
        <ele>188</ele>
        <time>2024-04-07T07:42:05Z</time>
      </trkpt>
      <trkpt lat="44.1304" lon="1.87109">
        <ele>187.8</ele>
        <time>2024-04-07T07:42:06Z</time>
      </trkpt>
      <trkpt lat="44.13047" lon="1.87107">
        <ele>187.6</ele>
        <time>2024-04-07T07:42:07Z</time>
      </trkpt>
      <trkpt lat="44.13054" lon="1.87105">
        <ele>187.4</ele>
        <time>2024-04-07T07:42:08Z</time>
      </trkpt>
      <trkpt lat="44.13061" lon="1.871">
        <ele>186.8</ele>
        <time>2024-04-07T07:42:09Z</time>
      </trkpt>
      <trkpt lat="44.13066" lon="1.87095">
        <ele>186.8</ele>
        <time>2024-04-07T07:42:10Z</time>
      </trkpt>
      <trkpt lat="44.13069" lon="1.87087">
        <ele>186.2</ele>
        <time>2024-04-07T07:42:11Z</time>
      </trkpt>
      <trkpt lat="44.1307" lon="1.87077">
        <ele>185.8</ele>
        <time>2024-04-07T07:42:12Z</time>
      </trkpt>
      <trkpt lat="44.13069" lon="1.87065">
        <ele>184.6</ele>
        <time>2024-04-07T07:42:13Z</time>
      </trkpt>
      <trkpt lat="44.13067" lon="1.87052">
        <ele>184</ele>
        <time>2024-04-07T07:42:14Z</time>
      </trkpt>
      <trkpt lat="44.13065" lon="1.87038">
        <ele>183.6</ele>
        <time>2024-04-07T07:42:15Z</time>
      </trkpt>
      <trkpt lat="44.13062" lon="1.87025">
        <ele>182.6</ele>
        <time>2024-04-07T07:42:16Z</time>
      </trkpt>
      <trkpt lat="44.13059" lon="1.87009">
        <ele>181.6</ele>
        <time>2024-04-07T07:42:17Z</time>
      </trkpt>
      <trkpt lat="44.13057" lon="1.86994">
        <ele>179.6</ele>
        <time>2024-04-07T07:42:18Z</time>
      </trkpt>
      <trkpt lat="44.13055" lon="1.86979">
        <ele>179</ele>
        <time>2024-04-07T07:42:19Z</time>
      </trkpt>
      <trkpt lat="44.13054" lon="1.86964">
        <ele>178.2</ele>
        <time>2024-04-07T07:42:20Z</time>
      </trkpt>
      <trkpt lat="44.13052" lon="1.86949">
        <ele>177</ele>
        <time>2024-04-07T07:42:21Z</time>
      </trkpt>
      <trkpt lat="44.1305" lon="1.86934">
        <ele>174.4</ele>
        <time>2024-04-07T07:42:22Z</time>
      </trkpt>
      <trkpt lat="44.13047" lon="1.86919">
        <ele>173</ele>
        <time>2024-04-07T07:42:23Z</time>
      </trkpt>
      <trkpt lat="44.13044" lon="1.86902">
        <ele>172</ele>
        <time>2024-04-07T07:42:24Z</time>
      </trkpt>
      <trkpt lat="44.13042" lon="1.86885">
        <ele>170.4</ele>
        <time>2024-04-07T07:42:25Z</time>
      </trkpt>
      <trkpt lat="44.13039" lon="1.8687">
        <ele>169.8</ele>
        <time>2024-04-07T07:42:26Z</time>
      </trkpt>
      <trkpt lat="44.13037" lon="1.86854">
        <ele>168</ele>
        <time>2024-04-07T07:42:27Z</time>
      </trkpt>
      <trkpt lat="44.13035" lon="1.86839">
        <ele>166.2</ele>
        <time>2024-04-07T07:42:28Z</time>
      </trkpt>
      <trkpt lat="44.13033" lon="1.86824">
        <ele>163.6</ele>
        <time>2024-04-07T07:42:29Z</time>
      </trkpt>
      <trkpt lat="44.13031" lon="1.86812">
        <ele>162.8</ele>
        <time>2024-04-07T07:42:30Z</time>
      </trkpt>
      <trkpt lat="44.13028" lon="1.86801">
        <ele>161.6</ele>
        <time>2024-04-07T07:42:31Z</time>
      </trkpt>
      <trkpt lat="44.13026" lon="1.8679">
        <ele>160.8</ele>
        <time>2024-04-07T07:42:32Z</time>
      </trkpt>
      <trkpt lat="44.13024" lon="1.86779">
        <ele>160.8</ele>
        <time>2024-04-07T07:42:33Z</time>
      </trkpt>
      <trkpt lat="44.13021" lon="1.86768">
        <ele>160.6</ele>
        <time>2024-04-07T07:42:34Z</time>
      </trkpt>
      <trkpt lat="44.13019" lon="1.86759">
        <ele>160.6</ele>
        <time>2024-04-07T07:42:35Z</time>
      </trkpt>
      <trkpt lat="44.13019" lon="1.8675">
        <ele>160.2</ele>
        <time>2024-04-07T07:42:36Z</time>
      </trkpt>
      <trkpt lat="44.1302" lon="1.86742">
        <ele>160.2</ele>
        <time>2024-04-07T07:42:37Z</time>
      </trkpt>
      <trkpt lat="44.13015" lon="1.86733">
        <ele>160</ele>
        <time>2024-04-07T07:42:38Z</time>
      </trkpt>
      <trkpt lat="44.1301" lon="1.86725">
        <ele>160</ele>
        <time>2024-04-07T07:42:39Z</time>
      </trkpt>
      <trkpt lat="44.13006" lon="1.86716">
        <ele>160</ele>
        <time>2024-04-07T07:42:40Z</time>
      </trkpt>
      <trkpt lat="44.13003" lon="1.86708">
        <ele>160</ele>
        <time>2024-04-07T07:42:41Z</time>
      </trkpt>
      <trkpt lat="44.13001" lon="1.86701">
        <ele>160.2</ele>
        <time>2024-04-07T07:42:42Z</time>
      </trkpt>
      <trkpt lat="44.12999" lon="1.86695">
        <ele>160.6</ele>
        <time>2024-04-07T07:42:43Z</time>
      </trkpt>
      <trkpt lat="44.12995" lon="1.86689">
        <ele>160.8</ele>
        <time>2024-04-07T07:42:44Z</time>
      </trkpt>
      <trkpt lat="44.12989" lon="1.86682">
        <ele>160.8</ele>
        <time>2024-04-07T07:42:45Z</time>
      </trkpt>
      <trkpt lat="44.12984" lon="1.86678">
        <ele>160.8</ele>
        <time>2024-04-07T07:42:46Z</time>
      </trkpt>
      <trkpt lat="44.12979" lon="1.86673">
        <ele>161</ele>
        <time>2024-04-07T07:42:47Z</time>
      </trkpt>
      <trkpt lat="44.12976" lon="1.86667">
        <ele>161</ele>
        <time>2024-04-07T07:42:48Z</time>
      </trkpt>
      <trkpt lat="44.12971" lon="1.86661">
        <ele>161.2</ele>
        <time>2024-04-07T07:42:49Z</time>
      </trkpt>
      <trkpt lat="44.12969" lon="1.86656">
        <ele>161.2</ele>
        <time>2024-04-07T07:42:50Z</time>
      </trkpt>
      <trkpt lat="44.12966" lon="1.86649">
        <ele>161.2</ele>
        <time>2024-04-07T07:42:51Z</time>
      </trkpt>
      <trkpt lat="44.12963" lon="1.86643">
        <ele>161.2</ele>
        <time>2024-04-07T07:42:52Z</time>
      </trkpt>
      <trkpt lat="44.12961" lon="1.86636">
        <ele>161.2</ele>
        <time>2024-04-07T07:42:53Z</time>
      </trkpt>
      <trkpt lat="44.12958" lon="1.86629">
        <ele>161.4</ele>
        <time>2024-04-07T07:42:54Z</time>
      </trkpt>
      <trkpt lat="44.12954" lon="1.86623">
        <ele>161.4</ele>
        <time>2024-04-07T07:42:55Z</time>
      </trkpt>
      <trkpt lat="44.12951" lon="1.86616">
        <ele>161.6</ele>
        <time>2024-04-07T07:42:56Z</time>
      </trkpt>
      <trkpt lat="44.12947" lon="1.86609">
        <ele>161.6</ele>
        <time>2024-04-07T07:42:57Z</time>
      </trkpt>
      <trkpt lat="44.12942" lon="1.86603">
        <ele>161.6</ele>
        <time>2024-04-07T07:42:58Z</time>
      </trkpt>
      <trkpt lat="44.12938" lon="1.86597">
        <ele>161.8</ele>
        <time>2024-04-07T07:42:59Z</time>
      </trkpt>
      <trkpt lat="44.12934" lon="1.8659">
        <ele>162</ele>
        <time>2024-04-07T07:43:00Z</time>
      </trkpt>
      <trkpt lat="44.12929" lon="1.86584">
        <ele>162.2</ele>
        <time>2024-04-07T07:43:01Z</time>
      </trkpt>
      <trkpt lat="44.12925" lon="1.86578">
        <ele>162.2</ele>
        <time>2024-04-07T07:43:02Z</time>
      </trkpt>
      <trkpt lat="44.12921" lon="1.86572">
        <ele>162.4</ele>
        <time>2024-04-07T07:43:03Z</time>
      </trkpt>
      <trkpt lat="44.12916" lon="1.86566">
        <ele>162.4</ele>
        <time>2024-04-07T07:43:04Z</time>
      </trkpt>
      <trkpt lat="44.12912" lon="1.86559">
        <ele>162.8</ele>
        <time>2024-04-07T07:43:05Z</time>
      </trkpt>
      <trkpt lat="44.12908" lon="1.86553">
        <ele>162.8</ele>
        <time>2024-04-07T07:43:06Z</time>
      </trkpt>
      <trkpt lat="44.12904" lon="1.86547">
        <ele>163</ele>
        <time>2024-04-07T07:43:07Z</time>
      </trkpt>
      <trkpt lat="44.129" lon="1.86541">
        <ele>163.6</ele>
        <time>2024-04-07T07:43:08Z</time>
      </trkpt>
      <trkpt lat="44.12895" lon="1.86535">
        <ele>163.8</ele>
        <time>2024-04-07T07:43:09Z</time>
      </trkpt>
      <trkpt lat="44.12891" lon="1.8653">
        <ele>164</ele>
        <time>2024-04-07T07:43:10Z</time>
      </trkpt>
      <trkpt lat="44.12887" lon="1.86524">
        <ele>164.2</ele>
        <time>2024-04-07T07:43:11Z</time>
      </trkpt>
      <trkpt lat="44.12883" lon="1.86519">
        <ele>164.4</ele>
        <time>2024-04-07T07:43:12Z</time>
      </trkpt>
      <trkpt lat="44.12878" lon="1.86515">
        <ele>164.6</ele>
        <time>2024-04-07T07:43:13Z</time>
      </trkpt>
      <trkpt lat="44.12874" lon="1.8651">
        <ele>164.6</ele>
        <time>2024-04-07T07:43:14Z</time>
      </trkpt>
      <trkpt lat="44.12869" lon="1.86506">
        <ele>164.6</ele>
        <time>2024-04-07T07:43:15Z</time>
      </trkpt>
      <trkpt lat="44.12864" lon="1.86501">
        <ele>164.8</ele>
        <time>2024-04-07T07:43:16Z</time>
      </trkpt>
      <trkpt lat="44.12859" lon="1.86496">
        <ele>165</ele>
        <time>2024-04-07T07:43:17Z</time>
      </trkpt>
      <trkpt lat="44.12855" lon="1.8649">
        <ele>165</ele>
        <time>2024-04-07T07:43:18Z</time>
      </trkpt>
      <trkpt lat="44.12851" lon="1.86484">
        <ele>165</ele>
        <time>2024-04-07T07:43:19Z</time>
      </trkpt>
      <trkpt lat="44.12848" lon="1.86477">
        <ele>165.2</ele>
        <time>2024-04-07T07:43:20Z</time>
      </trkpt>
      <trkpt lat="44.12846" lon="1.86469">
        <ele>165.2</ele>
        <time>2024-04-07T07:43:21Z</time>
      </trkpt>
      <trkpt lat="44.12846" lon="1.8646">
        <ele>165.2</ele>
        <time>2024-04-07T07:43:22Z</time>
      </trkpt>
      <trkpt lat="44.12848" lon="1.86452">
        <ele>165</ele>
        <time>2024-04-07T07:43:23Z</time>
      </trkpt>
      <trkpt lat="44.12851" lon="1.86445">
        <ele>165.2</ele>
        <time>2024-04-07T07:43:24Z</time>
      </trkpt>
      <trkpt lat="44.12854" lon="1.86439">
        <ele>165.2</ele>
        <time>2024-04-07T07:43:25Z</time>
      </trkpt>
      <trkpt lat="44.12858" lon="1.86434">
        <ele>165</ele>
        <time>2024-04-07T07:43:26Z</time>
      </trkpt>
      <trkpt lat="44.12862" lon="1.86428">
        <ele>165</ele>
        <time>2024-04-07T07:43:27Z</time>
      </trkpt>
      <trkpt lat="44.12865" lon="1.86422">
        <ele>165</ele>
        <time>2024-04-07T07:43:28Z</time>
      </trkpt>
      <trkpt lat="44.12867" lon="1.86416">
        <ele>165</ele>
        <time>2024-04-07T07:43:29Z</time>
      </trkpt>
      <trkpt lat="44.12868" lon="1.86409">
        <ele>165</ele>
        <time>2024-04-07T07:43:30Z</time>
      </trkpt>
      <trkpt lat="44.12868" lon="1.86402">
        <ele>165.2</ele>
        <time>2024-04-07T07:43:31Z</time>
      </trkpt>
      <trkpt lat="44.12866" lon="1.86395">
        <ele>165.2</ele>
        <time>2024-04-07T07:43:32Z</time>
      </trkpt>
      <trkpt lat="44.12864" lon="1.86389">
        <ele>165.4</ele>
        <time>2024-04-07T07:43:33Z</time>
      </trkpt>
      <trkpt lat="44.1286" lon="1.86384">
        <ele>165.6</ele>
        <time>2024-04-07T07:43:34Z</time>
      </trkpt>
      <trkpt lat="44.12856" lon="1.86379">
        <ele>166</ele>
        <time>2024-04-07T07:43:35Z</time>
      </trkpt>
      <trkpt lat="44.12853" lon="1.86373">
        <ele>166.4</ele>
        <time>2024-04-07T07:43:36Z</time>
      </trkpt>
      <trkpt lat="44.1285" lon="1.86368">
        <ele>166.8</ele>
        <time>2024-04-07T07:43:37Z</time>
      </trkpt>
      <trkpt lat="44.12846" lon="1.86363">
        <ele>167</ele>
        <time>2024-04-07T07:43:38Z</time>
      </trkpt>
      <trkpt lat="44.12843" lon="1.86357">
        <ele>167.4</ele>
        <time>2024-04-07T07:43:39Z</time>
      </trkpt>
      <trkpt lat="44.12839" lon="1.86351">
        <ele>167.6</ele>
        <time>2024-04-07T07:43:40Z</time>
      </trkpt>
      <trkpt lat="44.12836" lon="1.86344">
        <ele>167.8</ele>
        <time>2024-04-07T07:43:41Z</time>
      </trkpt>
      <trkpt lat="44.12832" lon="1.86338">
        <ele>168</ele>
        <time>2024-04-07T07:43:42Z</time>
      </trkpt>
      <trkpt lat="44.12829" lon="1.86332">
        <ele>168</ele>
        <time>2024-04-07T07:43:43Z</time>
      </trkpt>
      <trkpt lat="44.12826" lon="1.86326">
        <ele>168.2</ele>
        <time>2024-04-07T07:43:44Z</time>
      </trkpt>
      <trkpt lat="44.12822" lon="1.86319">
        <ele>168.2</ele>
        <time>2024-04-07T07:43:45Z</time>
      </trkpt>
      <trkpt lat="44.1282" lon="1.86314">
        <ele>168.4</ele>
        <time>2024-04-07T07:43:46Z</time>
      </trkpt>
      <trkpt lat="44.12816" lon="1.86306">
        <ele>168.4</ele>
        <time>2024-04-07T07:43:47Z</time>
      </trkpt>
      <trkpt lat="44.12813" lon="1.863">
        <ele>168.4</ele>
        <time>2024-04-07T07:43:48Z</time>
      </trkpt>
      <trkpt lat="44.12809" lon="1.86293">
        <ele>168.4</ele>
        <time>2024-04-07T07:43:49Z</time>
      </trkpt>
      <trkpt lat="44.12806" lon="1.86286">
        <ele>168.4</ele>
        <time>2024-04-07T07:43:50Z</time>
      </trkpt>
      <trkpt lat="44.12804" lon="1.8628">
        <ele>168.4</ele>
        <time>2024-04-07T07:43:51Z</time>
      </trkpt>
      <trkpt lat="44.128" lon="1.86273">
        <ele>168.6</ele>
        <time>2024-04-07T07:43:52Z</time>
      </trkpt>
      <trkpt lat="44.12797" lon="1.86265">
        <ele>168.6</ele>
        <time>2024-04-07T07:43:53Z</time>
      </trkpt>
      <trkpt lat="44.12794" lon="1.86258">
        <ele>168.6</ele>
        <time>2024-04-07T07:43:54Z</time>
      </trkpt>
      <trkpt lat="44.12792" lon="1.8625">
        <ele>168.6</ele>
        <time>2024-04-07T07:43:55Z</time>
      </trkpt>
      <trkpt lat="44.12789" lon="1.86243">
        <ele>168.6</ele>
        <time>2024-04-07T07:43:56Z</time>
      </trkpt>
      <trkpt lat="44.12787" lon="1.86236">
        <ele>168.6</ele>
        <time>2024-04-07T07:43:57Z</time>
      </trkpt>
      <trkpt lat="44.12784" lon="1.86228">
        <ele>168.6</ele>
        <time>2024-04-07T07:43:58Z</time>
      </trkpt>
      <trkpt lat="44.12782" lon="1.86221">
        <ele>169</ele>
        <time>2024-04-07T07:43:59Z</time>
      </trkpt>
      <trkpt lat="44.12779" lon="1.86214">
        <ele>169</ele>
        <time>2024-04-07T07:44:00Z</time>
      </trkpt>
      <trkpt lat="44.12777" lon="1.86208">
        <ele>169</ele>
        <time>2024-04-07T07:44:01Z</time>
      </trkpt>
      <trkpt lat="44.12774" lon="1.86202">
        <ele>169.2</ele>
        <time>2024-04-07T07:44:02Z</time>
      </trkpt>
      <trkpt lat="44.12771" lon="1.86194">
        <ele>169.2</ele>
        <time>2024-04-07T07:44:03Z</time>
      </trkpt>
      <trkpt lat="44.12767" lon="1.86187">
        <ele>169.2</ele>
        <time>2024-04-07T07:44:04Z</time>
      </trkpt>
      <trkpt lat="44.12764" lon="1.86181">
        <ele>169.2</ele>
        <time>2024-04-07T07:44:05Z</time>
      </trkpt>
      <trkpt lat="44.12761" lon="1.86174">
        <ele>169.4</ele>
        <time>2024-04-07T07:44:06Z</time>
      </trkpt>
      <trkpt lat="44.12759" lon="1.86168">
        <ele>169.4</ele>
        <time>2024-04-07T07:44:07Z</time>
      </trkpt>
      <trkpt lat="44.12755" lon="1.86163">
        <ele>169.4</ele>
        <time>2024-04-07T07:44:08Z</time>
      </trkpt>
      <trkpt lat="44.12752" lon="1.86156">
        <ele>169.6</ele>
        <time>2024-04-07T07:44:09Z</time>
      </trkpt>
      <trkpt lat="44.12749" lon="1.8615">
        <ele>169.8</ele>
        <time>2024-04-07T07:44:10Z</time>
      </trkpt>
      <trkpt lat="44.12747" lon="1.86143">
        <ele>170</ele>
        <time>2024-04-07T07:44:11Z</time>
      </trkpt>
      <trkpt lat="44.12743" lon="1.86137">
        <ele>170</ele>
        <time>2024-04-07T07:44:12Z</time>
      </trkpt>
      <trkpt lat="44.1274" lon="1.86131">
        <ele>170.2</ele>
        <time>2024-04-07T07:44:13Z</time>
      </trkpt>
      <trkpt lat="44.12738" lon="1.86124">
        <ele>170.4</ele>
        <time>2024-04-07T07:44:14Z</time>
      </trkpt>
      <trkpt lat="44.12735" lon="1.86118">
        <ele>170.6</ele>
        <time>2024-04-07T07:44:15Z</time>
      </trkpt>
      <trkpt lat="44.12732" lon="1.86112">
        <ele>170.6</ele>
        <time>2024-04-07T07:44:16Z</time>
      </trkpt>
      <trkpt lat="44.12729" lon="1.86108">
        <ele>170.8</ele>
        <time>2024-04-07T07:44:17Z</time>
      </trkpt>
      <trkpt lat="44.12726" lon="1.86102">
        <ele>170.8</ele>
        <time>2024-04-07T07:44:18Z</time>
      </trkpt>
      <trkpt lat="44.12722" lon="1.86096">
        <ele>170.8</ele>
        <time>2024-04-07T07:44:19Z</time>
      </trkpt>
      <trkpt lat="44.12718" lon="1.8609">
        <ele>171.2</ele>
        <time>2024-04-07T07:44:20Z</time>
      </trkpt>
      <trkpt lat="44.12715" lon="1.86085">
        <ele>171.4</ele>
        <time>2024-04-07T07:44:21Z</time>
      </trkpt>
      <trkpt lat="44.12711" lon="1.86079">
        <ele>171.8</ele>
        <time>2024-04-07T07:44:22Z</time>
      </trkpt>
      <trkpt lat="44.12708" lon="1.86074">
        <ele>172</ele>
        <time>2024-04-07T07:44:23Z</time>
      </trkpt>
      <trkpt lat="44.12706" lon="1.86069">
        <ele>172.2</ele>
        <time>2024-04-07T07:44:24Z</time>
      </trkpt>
      <trkpt lat="44.12703" lon="1.86064">
        <ele>172.4</ele>
        <time>2024-04-07T07:44:25Z</time>
      </trkpt>
      <trkpt lat="44.127" lon="1.8606">
        <ele>172.6</ele>
        <time>2024-04-07T07:44:26Z</time>
      </trkpt>
      <trkpt lat="44.12698" lon="1.86056">
        <ele>172.8</ele>
        <time>2024-04-07T07:44:27Z</time>
      </trkpt>
      <trkpt lat="44.12694" lon="1.8605">
        <ele>173</ele>
        <time>2024-04-07T07:44:28Z</time>
      </trkpt>
      <trkpt lat="44.1269" lon="1.86044">
        <ele>173.2</ele>
        <time>2024-04-07T07:44:29Z</time>
      </trkpt>
      <trkpt lat="44.12687" lon="1.86038">
        <ele>173.4</ele>
        <time>2024-04-07T07:44:30Z</time>
      </trkpt>
      <trkpt lat="44.12685" lon="1.86033">
        <ele>173.6</ele>
        <time>2024-04-07T07:44:31Z</time>
      </trkpt>
      <trkpt lat="44.12683" lon="1.86027">
        <ele>173.8</ele>
        <time>2024-04-07T07:44:32Z</time>
      </trkpt>
      <trkpt lat="44.12681" lon="1.86021">
        <ele>174.4</ele>
        <time>2024-04-07T07:44:33Z</time>
      </trkpt>
      <trkpt lat="44.12679" lon="1.86015">
        <ele>174.8</ele>
        <time>2024-04-07T07:44:34Z</time>
      </trkpt>
      <trkpt lat="44.12677" lon="1.86007">
        <ele>175</ele>
        <time>2024-04-07T07:44:35Z</time>
      </trkpt>
      <trkpt lat="44.12675" lon="1.85999">
        <ele>175.2</ele>
        <time>2024-04-07T07:44:36Z</time>
      </trkpt>
      <trkpt lat="44.12674" lon="1.8599">
        <ele>175.4</ele>
        <time>2024-04-07T07:44:37Z</time>
      </trkpt>
      <trkpt lat="44.12672" lon="1.85982">
        <ele>175.4</ele>
        <time>2024-04-07T07:44:38Z</time>
      </trkpt>
      <trkpt lat="44.12669" lon="1.85974">
        <ele>175.6</ele>
        <time>2024-04-07T07:44:39Z</time>
      </trkpt>
      <trkpt lat="44.12665" lon="1.85966">
        <ele>175.8</ele>
        <time>2024-04-07T07:44:40Z</time>
      </trkpt>
      <trkpt lat="44.12661" lon="1.8596">
        <ele>175.8</ele>
        <time>2024-04-07T07:44:41Z</time>
      </trkpt>
      <trkpt lat="44.12657" lon="1.85954">
        <ele>176</ele>
        <time>2024-04-07T07:44:42Z</time>
      </trkpt>
      <trkpt lat="44.12654" lon="1.8595">
        <ele>176</ele>
        <time>2024-04-07T07:44:43Z</time>
      </trkpt>
      <trkpt lat="44.12649" lon="1.85945">
        <ele>176</ele>
        <time>2024-04-07T07:44:44Z</time>
      </trkpt>
      <trkpt lat="44.12644" lon="1.85938">
        <ele>176</ele>
        <time>2024-04-07T07:44:45Z</time>
      </trkpt>
      <trkpt lat="44.12639" lon="1.85933">
        <ele>176</ele>
        <time>2024-04-07T07:44:46Z</time>
      </trkpt>
      <trkpt lat="44.12634" lon="1.85928">
        <ele>176</ele>
        <time>2024-04-07T07:44:47Z</time>
      </trkpt>
      <trkpt lat="44.1263" lon="1.85924">
        <ele>176</ele>
        <time>2024-04-07T07:44:48Z</time>
      </trkpt>
      <trkpt lat="44.12625" lon="1.8592">
        <ele>176</ele>
        <time>2024-04-07T07:44:49Z</time>
      </trkpt>
      <trkpt lat="44.1262" lon="1.85914">
        <ele>176</ele>
        <time>2024-04-07T07:44:50Z</time>
      </trkpt>
      <trkpt lat="44.12615" lon="1.85909">
        <ele>176</ele>
        <time>2024-04-07T07:44:51Z</time>
      </trkpt>
      <trkpt lat="44.12612" lon="1.85904">
        <ele>176</ele>
        <time>2024-04-07T07:44:52Z</time>
      </trkpt>
      <trkpt lat="44.12607" lon="1.85899">
        <ele>176</ele>
        <time>2024-04-07T07:44:53Z</time>
      </trkpt>
      <trkpt lat="44.12602" lon="1.85894">
        <ele>176</ele>
        <time>2024-04-07T07:44:54Z</time>
      </trkpt>
      <trkpt lat="44.12598" lon="1.85889">
        <ele>176.2</ele>
        <time>2024-04-07T07:44:55Z</time>
      </trkpt>
      <trkpt lat="44.12593" lon="1.85884">
        <ele>176.2</ele>
        <time>2024-04-07T07:44:56Z</time>
      </trkpt>
      <trkpt lat="44.12588" lon="1.85879">
        <ele>176.4</ele>
        <time>2024-04-07T07:44:57Z</time>
      </trkpt>
      <trkpt lat="44.12583" lon="1.85874">
        <ele>176.4</ele>
        <time>2024-04-07T07:44:58Z</time>
      </trkpt>
      <trkpt lat="44.12578" lon="1.8587">
        <ele>176.4</ele>
        <time>2024-04-07T07:44:59Z</time>
      </trkpt>
      <trkpt lat="44.12573" lon="1.85865">
        <ele>176.6</ele>
        <time>2024-04-07T07:45:00Z</time>
      </trkpt>
      <trkpt lat="44.12569" lon="1.8586">
        <ele>176.6</ele>
        <time>2024-04-07T07:45:01Z</time>
      </trkpt>
      <trkpt lat="44.12563" lon="1.85854">
        <ele>176.6</ele>
        <time>2024-04-07T07:45:02Z</time>
      </trkpt>
      <trkpt lat="44.12559" lon="1.85849">
        <ele>176.8</ele>
        <time>2024-04-07T07:45:03Z</time>
      </trkpt>
      <trkpt lat="44.12555" lon="1.85844">
        <ele>176.8</ele>
        <time>2024-04-07T07:45:04Z</time>
      </trkpt>
      <trkpt lat="44.1255" lon="1.8584">
        <ele>176.8</ele>
        <time>2024-04-07T07:45:05Z</time>
      </trkpt>
      <trkpt lat="44.12546" lon="1.85835">
        <ele>177</ele>
        <time>2024-04-07T07:45:06Z</time>
      </trkpt>
      <trkpt lat="44.12541" lon="1.8583">
        <ele>177</ele>
        <time>2024-04-07T07:45:07Z</time>
      </trkpt>
      <trkpt lat="44.12537" lon="1.85826">
        <ele>177.2</ele>
        <time>2024-04-07T07:45:08Z</time>
      </trkpt>
      <trkpt lat="44.12533" lon="1.85821">
        <ele>177.4</ele>
        <time>2024-04-07T07:45:09Z</time>
      </trkpt>
      <trkpt lat="44.12529" lon="1.85816">
        <ele>177.4</ele>
        <time>2024-04-07T07:45:10Z</time>
      </trkpt>
      <trkpt lat="44.12524" lon="1.85812">
        <ele>177.6</ele>
        <time>2024-04-07T07:45:11Z</time>
      </trkpt>
      <trkpt lat="44.12519" lon="1.85808">
        <ele>177.6</ele>
        <time>2024-04-07T07:45:12Z</time>
      </trkpt>
      <trkpt lat="44.12515" lon="1.85805">
        <ele>177.6</ele>
        <time>2024-04-07T07:45:13Z</time>
      </trkpt>
      <trkpt lat="44.12511" lon="1.85801">
        <ele>178</ele>
        <time>2024-04-07T07:45:14Z</time>
      </trkpt>
      <trkpt lat="44.12507" lon="1.85796">
        <ele>178</ele>
        <time>2024-04-07T07:45:15Z</time>
      </trkpt>
      <trkpt lat="44.12503" lon="1.85792">
        <ele>178.2</ele>
        <time>2024-04-07T07:45:16Z</time>
      </trkpt>
      <trkpt lat="44.12499" lon="1.85787">
        <ele>178.4</ele>
        <time>2024-04-07T07:45:17Z</time>
      </trkpt>
      <trkpt lat="44.12494" lon="1.85782">
        <ele>178.4</ele>
        <time>2024-04-07T07:45:18Z</time>
      </trkpt>
      <trkpt lat="44.1249" lon="1.85777">
        <ele>178.6</ele>
        <time>2024-04-07T07:45:19Z</time>
      </trkpt>
      <trkpt lat="44.12486" lon="1.85772">
        <ele>178.8</ele>
        <time>2024-04-07T07:45:20Z</time>
      </trkpt>
      <trkpt lat="44.12482" lon="1.85767">
        <ele>179</ele>
        <time>2024-04-07T07:45:21Z</time>
      </trkpt>
      <trkpt lat="44.12477" lon="1.85762">
        <ele>179</ele>
        <time>2024-04-07T07:45:22Z</time>
      </trkpt>
      <trkpt lat="44.12473" lon="1.85757">
        <ele>179.2</ele>
        <time>2024-04-07T07:45:23Z</time>
      </trkpt>
      <trkpt lat="44.12469" lon="1.85752">
        <ele>179.2</ele>
        <time>2024-04-07T07:45:24Z</time>
      </trkpt>
      <trkpt lat="44.12464" lon="1.85747">
        <ele>179.4</ele>
        <time>2024-04-07T07:45:25Z</time>
      </trkpt>
      <trkpt lat="44.1246" lon="1.85742">
        <ele>179.4</ele>
        <time>2024-04-07T07:45:26Z</time>
      </trkpt>
      <trkpt lat="44.12456" lon="1.85737">
        <ele>179.4</ele>
        <time>2024-04-07T07:45:27Z</time>
      </trkpt>
      <trkpt lat="44.12452" lon="1.85733">
        <ele>179.8</ele>
        <time>2024-04-07T07:45:28Z</time>
      </trkpt>
      <trkpt lat="44.12448" lon="1.85728">
        <ele>179.8</ele>
        <time>2024-04-07T07:45:29Z</time>
      </trkpt>
      <trkpt lat="44.12444" lon="1.85723">
        <ele>180.2</ele>
        <time>2024-04-07T07:45:30Z</time>
      </trkpt>
      <trkpt lat="44.12441" lon="1.85719">
        <ele>180.2</ele>
        <time>2024-04-07T07:45:31Z</time>
      </trkpt>
      <trkpt lat="44.12438" lon="1.85714">
        <ele>180.4</ele>
        <time>2024-04-07T07:45:32Z</time>
      </trkpt>
      <trkpt lat="44.12434" lon="1.85709">
        <ele>180.6</ele>
        <time>2024-04-07T07:45:33Z</time>
      </trkpt>
      <trkpt lat="44.12429" lon="1.85703">
        <ele>180.8</ele>
        <time>2024-04-07T07:45:34Z</time>
      </trkpt>
      <trkpt lat="44.12425" lon="1.85698">
        <ele>181.2</ele>
        <time>2024-04-07T07:45:35Z</time>
      </trkpt>
      <trkpt lat="44.12421" lon="1.85692">
        <ele>181.2</ele>
        <time>2024-04-07T07:45:36Z</time>
      </trkpt>
      <trkpt lat="44.12418" lon="1.85687">
        <ele>181.4</ele>
        <time>2024-04-07T07:45:37Z</time>
      </trkpt>
      <trkpt lat="44.12414" lon="1.85681">
        <ele>181.4</ele>
        <time>2024-04-07T07:45:38Z</time>
      </trkpt>
      <trkpt lat="44.1241" lon="1.85675">
        <ele>181.8</ele>
        <time>2024-04-07T07:45:39Z</time>
      </trkpt>
      <trkpt lat="44.12406" lon="1.85669">
        <ele>181.8</ele>
        <time>2024-04-07T07:45:40Z</time>
      </trkpt>
      <trkpt lat="44.12402" lon="1.85663">
        <ele>182</ele>
        <time>2024-04-07T07:45:41Z</time>
      </trkpt>
      <trkpt lat="44.12399" lon="1.85657">
        <ele>182</ele>
        <time>2024-04-07T07:45:42Z</time>
      </trkpt>
      <trkpt lat="44.12395" lon="1.85652">
        <ele>182.2</ele>
        <time>2024-04-07T07:45:43Z</time>
      </trkpt>
      <trkpt lat="44.12391" lon="1.85647">
        <ele>182.4</ele>
        <time>2024-04-07T07:45:44Z</time>
      </trkpt>
      <trkpt lat="44.12388" lon="1.85644">
        <ele>182.4</ele>
        <time>2024-04-07T07:45:45Z</time>
      </trkpt>
      <trkpt lat="44.12384" lon="1.85639">
        <ele>182.6</ele>
        <time>2024-04-07T07:45:46Z</time>
      </trkpt>
      <trkpt lat="44.12379" lon="1.85634">
        <ele>182.8</ele>
        <time>2024-04-07T07:45:47Z</time>
      </trkpt>
      <trkpt lat="44.12375" lon="1.85629">
        <ele>183</ele>
        <time>2024-04-07T07:45:48Z</time>
      </trkpt>
      <trkpt lat="44.12371" lon="1.85623">
        <ele>183.2</ele>
        <time>2024-04-07T07:45:49Z</time>
      </trkpt>
      <trkpt lat="44.12367" lon="1.85617">
        <ele>183.4</ele>
        <time>2024-04-07T07:45:50Z</time>
      </trkpt>
      <trkpt lat="44.12364" lon="1.85611">
        <ele>183.6</ele>
        <time>2024-04-07T07:45:51Z</time>
      </trkpt>
      <trkpt lat="44.1236" lon="1.85605">
        <ele>183.8</ele>
        <time>2024-04-07T07:45:52Z</time>
      </trkpt>
      <trkpt lat="44.12356" lon="1.85599">
        <ele>184</ele>
        <time>2024-04-07T07:45:53Z</time>
      </trkpt>
      <trkpt lat="44.12352" lon="1.85594">
        <ele>184.2</ele>
        <time>2024-04-07T07:45:54Z</time>
      </trkpt>
      <trkpt lat="44.12349" lon="1.85588">
        <ele>184.4</ele>
        <time>2024-04-07T07:45:55Z</time>
      </trkpt>
      <trkpt lat="44.12346" lon="1.85582">
        <ele>184.4</ele>
        <time>2024-04-07T07:45:56Z</time>
      </trkpt>
      <trkpt lat="44.12343" lon="1.85576">
        <ele>184.6</ele>
        <time>2024-04-07T07:45:57Z</time>
      </trkpt>
      <trkpt lat="44.1234" lon="1.85571">
        <ele>184.8</ele>
        <time>2024-04-07T07:45:58Z</time>
      </trkpt>
      <trkpt lat="44.12338" lon="1.85565">
        <ele>185</ele>
        <time>2024-04-07T07:45:59Z</time>
      </trkpt>
      <trkpt lat="44.12335" lon="1.85559">
        <ele>185.2</ele>
        <time>2024-04-07T07:46:00Z</time>
      </trkpt>
      <trkpt lat="44.12333" lon="1.85553">
        <ele>185.6</ele>
        <time>2024-04-07T07:46:01Z</time>
      </trkpt>
      <trkpt lat="44.1233" lon="1.85547">
        <ele>185.8</ele>
        <time>2024-04-07T07:46:02Z</time>
      </trkpt>
      <trkpt lat="44.12327" lon="1.8554">
        <ele>185.8</ele>
        <time>2024-04-07T07:46:03Z</time>
      </trkpt>
      <trkpt lat="44.12324" lon="1.85535">
        <ele>186.4</ele>
        <time>2024-04-07T07:46:04Z</time>
      </trkpt>
      <trkpt lat="44.12321" lon="1.85529">
        <ele>186.4</ele>
        <time>2024-04-07T07:46:05Z</time>
      </trkpt>
      <trkpt lat="44.12319" lon="1.85523">
        <ele>187</ele>
        <time>2024-04-07T07:46:06Z</time>
      </trkpt>
      <trkpt lat="44.12315" lon="1.85517">
        <ele>187.2</ele>
        <time>2024-04-07T07:46:07Z</time>
      </trkpt>
      <trkpt lat="44.12311" lon="1.85512">
        <ele>187.6</ele>
        <time>2024-04-07T07:46:08Z</time>
      </trkpt>
      <trkpt lat="44.12308" lon="1.85506">
        <ele>187.6</ele>
        <time>2024-04-07T07:46:09Z</time>
      </trkpt>
      <trkpt lat="44.12304" lon="1.855">
        <ele>187.8</ele>
        <time>2024-04-07T07:46:10Z</time>
      </trkpt>
      <trkpt lat="44.123" lon="1.85494">
        <ele>187.8</ele>
        <time>2024-04-07T07:46:11Z</time>
      </trkpt>
      <trkpt lat="44.12297" lon="1.85489">
        <ele>187.8</ele>
        <time>2024-04-07T07:46:12Z</time>
      </trkpt>
      <trkpt lat="44.12293" lon="1.85483">
        <ele>187.8</ele>
        <time>2024-04-07T07:46:13Z</time>
      </trkpt>
      <trkpt lat="44.12289" lon="1.85478">
        <ele>188</ele>
        <time>2024-04-07T07:46:14Z</time>
      </trkpt>
      <trkpt lat="44.12286" lon="1.85472">
        <ele>188</ele>
        <time>2024-04-07T07:46:15Z</time>
      </trkpt>
      <trkpt lat="44.12282" lon="1.85466">
        <ele>188.2</ele>
        <time>2024-04-07T07:46:16Z</time>
      </trkpt>
      <trkpt lat="44.12279" lon="1.8546">
        <ele>188.6</ele>
        <time>2024-04-07T07:46:17Z</time>
      </trkpt>
      <trkpt lat="44.12276" lon="1.85454">
        <ele>188.8</ele>
        <time>2024-04-07T07:46:18Z</time>
      </trkpt>
      <trkpt lat="44.12273" lon="1.85449">
        <ele>189</ele>
        <time>2024-04-07T07:46:19Z</time>
      </trkpt>
      <trkpt lat="44.1227" lon="1.85443">
        <ele>189.6</ele>
        <time>2024-04-07T07:46:20Z</time>
      </trkpt>
      <trkpt lat="44.12267" lon="1.85438">
        <ele>189.6</ele>
        <time>2024-04-07T07:46:21Z</time>
      </trkpt>
      <trkpt lat="44.12264" lon="1.85433">
        <ele>190</ele>
        <time>2024-04-07T07:46:22Z</time>
      </trkpt>
      <trkpt lat="44.12261" lon="1.85428">
        <ele>190</ele>
        <time>2024-04-07T07:46:23Z</time>
      </trkpt>
      <trkpt lat="44.12258" lon="1.85423">
        <ele>190.4</ele>
        <time>2024-04-07T07:46:24Z</time>
      </trkpt>
      <trkpt lat="44.12255" lon="1.85418">
        <ele>190.4</ele>
        <time>2024-04-07T07:46:25Z</time>
      </trkpt>
      <trkpt lat="44.12252" lon="1.85413">
        <ele>190.6</ele>
        <time>2024-04-07T07:46:26Z</time>
      </trkpt>
      <trkpt lat="44.12248" lon="1.85408">
        <ele>191</ele>
        <time>2024-04-07T07:46:27Z</time>
      </trkpt>
      <trkpt lat="44.12243" lon="1.85402">
        <ele>191</ele>
        <time>2024-04-07T07:46:28Z</time>
      </trkpt>
      <trkpt lat="44.12239" lon="1.85398">
        <ele>191.4</ele>
        <time>2024-04-07T07:46:29Z</time>
      </trkpt>
      <trkpt lat="44.12235" lon="1.85393">
        <ele>191.4</ele>
        <time>2024-04-07T07:46:30Z</time>
      </trkpt>
      <trkpt lat="44.12232" lon="1.85388">
        <ele>191.6</ele>
        <time>2024-04-07T07:46:31Z</time>
      </trkpt>
      <trkpt lat="44.12228" lon="1.85383">
        <ele>191.6</ele>
        <time>2024-04-07T07:46:32Z</time>
      </trkpt>
      <trkpt lat="44.12224" lon="1.85378">
        <ele>191.8</ele>
        <time>2024-04-07T07:46:33Z</time>
      </trkpt>
      <trkpt lat="44.1222" lon="1.85374">
        <ele>192</ele>
        <time>2024-04-07T07:46:34Z</time>
      </trkpt>
      <trkpt lat="44.12216" lon="1.85369">
        <ele>192.2</ele>
        <time>2024-04-07T07:46:35Z</time>
      </trkpt>
      <trkpt lat="44.12211" lon="1.85365">
        <ele>192.2</ele>
        <time>2024-04-07T07:46:36Z</time>
      </trkpt>
      <trkpt lat="44.12206" lon="1.85361">
        <ele>192.4</ele>
        <time>2024-04-07T07:46:37Z</time>
      </trkpt>
      <trkpt lat="44.12202" lon="1.85356">
        <ele>192.6</ele>
        <time>2024-04-07T07:46:38Z</time>
      </trkpt>
      <trkpt lat="44.12197" lon="1.85351">
        <ele>192.8</ele>
        <time>2024-04-07T07:46:39Z</time>
      </trkpt>
      <trkpt lat="44.12193" lon="1.85347">
        <ele>192.8</ele>
        <time>2024-04-07T07:46:40Z</time>
      </trkpt>
      <trkpt lat="44.12189" lon="1.85343">
        <ele>193</ele>
        <time>2024-04-07T07:46:41Z</time>
      </trkpt>
      <trkpt lat="44.12185" lon="1.85338">
        <ele>193.2</ele>
        <time>2024-04-07T07:46:42Z</time>
      </trkpt>
      <trkpt lat="44.12181" lon="1.85333">
        <ele>193.4</ele>
        <time>2024-04-07T07:46:43Z</time>
      </trkpt>
      <trkpt lat="44.12177" lon="1.85327">
        <ele>193.8</ele>
        <time>2024-04-07T07:46:44Z</time>
      </trkpt>
      <trkpt lat="44.12173" lon="1.85321">
        <ele>194</ele>
        <time>2024-04-07T07:46:45Z</time>
      </trkpt>
      <trkpt lat="44.1217" lon="1.85315">
        <ele>194.2</ele>
        <time>2024-04-07T07:46:46Z</time>
      </trkpt>
      <trkpt lat="44.12167" lon="1.85309">
        <ele>194.2</ele>
        <time>2024-04-07T07:46:47Z</time>
      </trkpt>
      <trkpt lat="44.12163" lon="1.85303">
        <ele>194.4</ele>
        <time>2024-04-07T07:46:48Z</time>
      </trkpt>
      <trkpt lat="44.1216" lon="1.85296">
        <ele>194.4</ele>
        <time>2024-04-07T07:46:49Z</time>
      </trkpt>
      <trkpt lat="44.12157" lon="1.85289">
        <ele>194.4</ele>
        <time>2024-04-07T07:46:50Z</time>
      </trkpt>
      <trkpt lat="44.12154" lon="1.85282">
        <ele>194.6</ele>
        <time>2024-04-07T07:46:51Z</time>
      </trkpt>
      <trkpt lat="44.12151" lon="1.85275">
        <ele>194.6</ele>
        <time>2024-04-07T07:46:52Z</time>
      </trkpt>
      <trkpt lat="44.12148" lon="1.85268">
        <ele>194.6</ele>
        <time>2024-04-07T07:46:53Z</time>
      </trkpt>
      <trkpt lat="44.12145" lon="1.85261">
        <ele>194.6</ele>
        <time>2024-04-07T07:46:54Z</time>
      </trkpt>
      <trkpt lat="44.12142" lon="1.85254">
        <ele>194.8</ele>
        <time>2024-04-07T07:46:55Z</time>
      </trkpt>
      <trkpt lat="44.12139" lon="1.85247">
        <ele>194.8</ele>
        <time>2024-04-07T07:46:56Z</time>
      </trkpt>
      <trkpt lat="44.12136" lon="1.8524">
        <ele>195</ele>
        <time>2024-04-07T07:46:57Z</time>
      </trkpt>
      <trkpt lat="44.12134" lon="1.85233">
        <ele>195</ele>
        <time>2024-04-07T07:46:58Z</time>
      </trkpt>
      <trkpt lat="44.12131" lon="1.85226">
        <ele>195.2</ele>
        <time>2024-04-07T07:46:59Z</time>
      </trkpt>
      <trkpt lat="44.12129" lon="1.85219">
        <ele>195.2</ele>
        <time>2024-04-07T07:47:00Z</time>
      </trkpt>
      <trkpt lat="44.12126" lon="1.85213">
        <ele>195.2</ele>
        <time>2024-04-07T07:47:01Z</time>
      </trkpt>
      <trkpt lat="44.12124" lon="1.85207">
        <ele>195.2</ele>
        <time>2024-04-07T07:47:02Z</time>
      </trkpt>
      <trkpt lat="44.12122" lon="1.85201">
        <ele>195.4</ele>
        <time>2024-04-07T07:47:03Z</time>
      </trkpt>
      <trkpt lat="44.1212" lon="1.85195">
        <ele>195.4</ele>
        <time>2024-04-07T07:47:04Z</time>
      </trkpt>
      <trkpt lat="44.12118" lon="1.8519">
        <ele>195.6</ele>
        <time>2024-04-07T07:47:05Z</time>
      </trkpt>
      <trkpt lat="44.12116" lon="1.85184">
        <ele>195.6</ele>
        <time>2024-04-07T07:47:06Z</time>
      </trkpt>
      <trkpt lat="44.12114" lon="1.85178">
        <ele>196</ele>
        <time>2024-04-07T07:47:07Z</time>
      </trkpt>
      <trkpt lat="44.12112" lon="1.85172">
        <ele>196.2</ele>
        <time>2024-04-07T07:47:08Z</time>
      </trkpt>
      <trkpt lat="44.12109" lon="1.85165">
        <ele>196.4</ele>
        <time>2024-04-07T07:47:09Z</time>
      </trkpt>
      <trkpt lat="44.12107" lon="1.85157">
        <ele>196.6</ele>
        <time>2024-04-07T07:47:10Z</time>
      </trkpt>
      <trkpt lat="44.12104" lon="1.8515">
        <ele>196.8</ele>
        <time>2024-04-07T07:47:11Z</time>
      </trkpt>
      <trkpt lat="44.12101" lon="1.85143">
        <ele>196.8</ele>
        <time>2024-04-07T07:47:12Z</time>
      </trkpt>
      <trkpt lat="44.12098" lon="1.85136">
        <ele>197</ele>
        <time>2024-04-07T07:47:13Z</time>
      </trkpt>
      <trkpt lat="44.12095" lon="1.85128">
        <ele>197</ele>
        <time>2024-04-07T07:47:14Z</time>
      </trkpt>
      <trkpt lat="44.12092" lon="1.85122">
        <ele>197.2</ele>
        <time>2024-04-07T07:47:15Z</time>
      </trkpt>
      <trkpt lat="44.12088" lon="1.85116">
        <ele>197</ele>
        <time>2024-04-07T07:47:16Z</time>
      </trkpt>
      <trkpt lat="44.12085" lon="1.85109">
        <ele>197</ele>
        <time>2024-04-07T07:47:17Z</time>
      </trkpt>
      <trkpt lat="44.12082" lon="1.85103">
        <ele>197</ele>
        <time>2024-04-07T07:47:18Z</time>
      </trkpt>
      <trkpt lat="44.12079" lon="1.85097">
        <ele>197</ele>
        <time>2024-04-07T07:47:19Z</time>
      </trkpt>
      <trkpt lat="44.12076" lon="1.85091">
        <ele>197.2</ele>
        <time>2024-04-07T07:47:20Z</time>
      </trkpt>
      <trkpt lat="44.12073" lon="1.85086">
        <ele>197.2</ele>
        <time>2024-04-07T07:47:21Z</time>
      </trkpt>
      <trkpt lat="44.12071" lon="1.8508">
        <ele>197.2</ele>
        <time>2024-04-07T07:47:22Z</time>
      </trkpt>
      <trkpt lat="44.12068" lon="1.85075">
        <ele>197.4</ele>
        <time>2024-04-07T07:47:23Z</time>
      </trkpt>
      <trkpt lat="44.12065" lon="1.85069">
        <ele>197.6</ele>
        <time>2024-04-07T07:47:24Z</time>
      </trkpt>
      <trkpt lat="44.12062" lon="1.85063">
        <ele>198</ele>
        <time>2024-04-07T07:47:25Z</time>
      </trkpt>
      <trkpt lat="44.12059" lon="1.85057">
        <ele>198.2</ele>
        <time>2024-04-07T07:47:26Z</time>
      </trkpt>
      <trkpt lat="44.12055" lon="1.85051">
        <ele>198.4</ele>
        <time>2024-04-07T07:47:27Z</time>
      </trkpt>
      <trkpt lat="44.12053" lon="1.85045">
        <ele>198.8</ele>
        <time>2024-04-07T07:47:28Z</time>
      </trkpt>
      <trkpt lat="44.1205" lon="1.85039">
        <ele>198.8</ele>
        <time>2024-04-07T07:47:29Z</time>
      </trkpt>
      <trkpt lat="44.12047" lon="1.85032">
        <ele>199.2</ele>
        <time>2024-04-07T07:47:30Z</time>
      </trkpt>
      <trkpt lat="44.12044" lon="1.85026">
        <ele>199.4</ele>
        <time>2024-04-07T07:47:31Z</time>
      </trkpt>
      <trkpt lat="44.1204" lon="1.85021">
        <ele>199.4</ele>
        <time>2024-04-07T07:47:32Z</time>
      </trkpt>
      <trkpt lat="44.12037" lon="1.85016">
        <ele>199.6</ele>
        <time>2024-04-07T07:47:33Z</time>
      </trkpt>
      <trkpt lat="44.12034" lon="1.85011">
        <ele>199.6</ele>
        <time>2024-04-07T07:47:34Z</time>
      </trkpt>
      <trkpt lat="44.1203" lon="1.85007">
        <ele>199.6</ele>
        <time>2024-04-07T07:47:35Z</time>
      </trkpt>
      <trkpt lat="44.12027" lon="1.85003">
        <ele>200</ele>
        <time>2024-04-07T07:47:36Z</time>
      </trkpt>
      <trkpt lat="44.12022" lon="1.84999">
        <ele>200.4</ele>
        <time>2024-04-07T07:47:37Z</time>
      </trkpt>
      <trkpt lat="44.12018" lon="1.84996">
        <ele>200.6</ele>
        <time>2024-04-07T07:47:38Z</time>
      </trkpt>
      <trkpt lat="44.12013" lon="1.84993">
        <ele>201</ele>
        <time>2024-04-07T07:47:39Z</time>
      </trkpt>
      <trkpt lat="44.12008" lon="1.84989">
        <ele>201.2</ele>
        <time>2024-04-07T07:47:40Z</time>
      </trkpt>
      <trkpt lat="44.12002" lon="1.84985">
        <ele>201.6</ele>
        <time>2024-04-07T07:47:41Z</time>
      </trkpt>
      <trkpt lat="44.11998" lon="1.84981">
        <ele>201.6</ele>
        <time>2024-04-07T07:47:42Z</time>
      </trkpt>
      <trkpt lat="44.11993" lon="1.84977">
        <ele>201.8</ele>
        <time>2024-04-07T07:47:43Z</time>
      </trkpt>
      <trkpt lat="44.11988" lon="1.84973">
        <ele>201.8</ele>
        <time>2024-04-07T07:47:44Z</time>
      </trkpt>
      <trkpt lat="44.11984" lon="1.8497">
        <ele>201.8</ele>
        <time>2024-04-07T07:47:45Z</time>
      </trkpt>
      <trkpt lat="44.11981" lon="1.84966">
        <ele>202</ele>
        <time>2024-04-07T07:47:46Z</time>
      </trkpt>
      <trkpt lat="44.11977" lon="1.84962">
        <ele>202</ele>
        <time>2024-04-07T07:47:47Z</time>
      </trkpt>
      <trkpt lat="44.11973" lon="1.84959">
        <ele>202</ele>
        <time>2024-04-07T07:47:48Z</time>
      </trkpt>
      <trkpt lat="44.1197" lon="1.84956">
        <ele>202.2</ele>
        <time>2024-04-07T07:47:49Z</time>
      </trkpt>
      <trkpt lat="44.11967" lon="1.84954">
        <ele>202.4</ele>
        <time>2024-04-07T07:47:50Z</time>
      </trkpt>
      <trkpt lat="44.11963" lon="1.84952">
        <ele>202.6</ele>
        <time>2024-04-07T07:47:51Z</time>
      </trkpt>
      <trkpt lat="44.11959" lon="1.84949">
        <ele>203.4</ele>
        <time>2024-04-07T07:47:52Z</time>
      </trkpt>
      <trkpt lat="44.11955" lon="1.84946">
        <ele>203.6</ele>
        <time>2024-04-07T07:47:53Z</time>
      </trkpt>
      <trkpt lat="44.11951" lon="1.84942">
        <ele>204</ele>
        <time>2024-04-07T07:47:54Z</time>
      </trkpt>
      <trkpt lat="44.11947" lon="1.84938">
        <ele>204.2</ele>
        <time>2024-04-07T07:47:55Z</time>
      </trkpt>
      <trkpt lat="44.11945" lon="1.84933">
        <ele>204.4</ele>
        <time>2024-04-07T07:47:56Z</time>
      </trkpt>
      <trkpt lat="44.11943" lon="1.84927">
        <ele>204.6</ele>
        <time>2024-04-07T07:47:57Z</time>
      </trkpt>
      <trkpt lat="44.11941" lon="1.84921">
        <ele>204.6</ele>
        <time>2024-04-07T07:47:58Z</time>
      </trkpt>
      <trkpt lat="44.11939" lon="1.84916">
        <ele>204.8</ele>
        <time>2024-04-07T07:47:59Z</time>
      </trkpt>
      <trkpt lat="44.11936" lon="1.8491">
        <ele>204.8</ele>
        <time>2024-04-07T07:48:00Z</time>
      </trkpt>
      <trkpt lat="44.11934" lon="1.84904">
        <ele>205</ele>
        <time>2024-04-07T07:48:01Z</time>
      </trkpt>
      <trkpt lat="44.11933" lon="1.84899">
        <ele>205</ele>
        <time>2024-04-07T07:48:02Z</time>
      </trkpt>
      <trkpt lat="44.11931" lon="1.84894">
        <ele>205.2</ele>
        <time>2024-04-07T07:48:03Z</time>
      </trkpt>
      <trkpt lat="44.11929" lon="1.84889">
        <ele>205.6</ele>
        <time>2024-04-07T07:48:04Z</time>
      </trkpt>
      <trkpt lat="44.11927" lon="1.84885">
        <ele>205.6</ele>
        <time>2024-04-07T07:48:05Z</time>
      </trkpt>
      <trkpt lat="44.11926" lon="1.8488">
        <ele>205.8</ele>
        <time>2024-04-07T07:48:06Z</time>
      </trkpt>
      <trkpt lat="44.11924" lon="1.84875">
        <ele>206</ele>
        <time>2024-04-07T07:48:07Z</time>
      </trkpt>
      <trkpt lat="44.11922" lon="1.84871">
        <ele>206</ele>
        <time>2024-04-07T07:48:08Z</time>
      </trkpt>
      <trkpt lat="44.11919" lon="1.84869">
        <ele>206</ele>
        <time>2024-04-07T07:48:09Z</time>
      </trkpt>
      <trkpt lat="44.11916" lon="1.84868">
        <ele>206.2</ele>
        <time>2024-04-07T07:48:10Z</time>
      </trkpt>
      <trkpt lat="44.11912" lon="1.84867">
        <ele>206.4</ele>
        <time>2024-04-07T07:48:11Z</time>
      </trkpt>
      <trkpt lat="44.11907" lon="1.84866">
        <ele>206.6</ele>
        <time>2024-04-07T07:48:12Z</time>
      </trkpt>
      <trkpt lat="44.11902" lon="1.84866">
        <ele>207</ele>
        <time>2024-04-07T07:48:13Z</time>
      </trkpt>
      <trkpt lat="44.11897" lon="1.84864">
        <ele>207</ele>
        <time>2024-04-07T07:48:14Z</time>
      </trkpt>
      <trkpt lat="44.11892" lon="1.84863">
        <ele>207.2</ele>
        <time>2024-04-07T07:48:15Z</time>
      </trkpt>
      <trkpt lat="44.11888" lon="1.84861">
        <ele>207.2</ele>
        <time>2024-04-07T07:48:16Z</time>
      </trkpt>
      <trkpt lat="44.11884" lon="1.8486">
        <ele>207.4</ele>
        <time>2024-04-07T07:48:17Z</time>
      </trkpt>
      <trkpt lat="44.1188" lon="1.8486">
        <ele>207.4</ele>
        <time>2024-04-07T07:48:18Z</time>
      </trkpt>
      <trkpt lat="44.11876" lon="1.8486">
        <ele>207.6</ele>
        <time>2024-04-07T07:48:19Z</time>
      </trkpt>
      <trkpt lat="44.11871" lon="1.8486">
        <ele>208.2</ele>
        <time>2024-04-07T07:48:20Z</time>
      </trkpt>
      <trkpt lat="44.11867" lon="1.84859">
        <ele>208.8</ele>
        <time>2024-04-07T07:48:21Z</time>
      </trkpt>
      <trkpt lat="44.11861" lon="1.84858">
        <ele>209.6</ele>
        <time>2024-04-07T07:48:22Z</time>
      </trkpt>
      <trkpt lat="44.11856" lon="1.84858">
        <ele>210</ele>
        <time>2024-04-07T07:48:23Z</time>
      </trkpt>
      <trkpt lat="44.11852" lon="1.84857">
        <ele>210.8</ele>
        <time>2024-04-07T07:48:24Z</time>
      </trkpt>
      <trkpt lat="44.11848" lon="1.84856">
        <ele>211</ele>
        <time>2024-04-07T07:48:25Z</time>
      </trkpt>
      <trkpt lat="44.11845" lon="1.84855">
        <ele>211.4</ele>
        <time>2024-04-07T07:48:26Z</time>
      </trkpt>
      <trkpt lat="44.11842" lon="1.84855">
        <ele>212.2</ele>
        <time>2024-04-07T07:48:27Z</time>
      </trkpt>
      <trkpt lat="44.11837" lon="1.84855">
        <ele>213.2</ele>
        <time>2024-04-07T07:48:28Z</time>
      </trkpt>
      <trkpt lat="44.11831" lon="1.84856">
        <ele>213.8</ele>
        <time>2024-04-07T07:48:29Z</time>
      </trkpt>
      <trkpt lat="44.11826" lon="1.84856">
        <ele>214.4</ele>
        <time>2024-04-07T07:48:30Z</time>
      </trkpt>
      <trkpt lat="44.11822" lon="1.84855">
        <ele>215</ele>
        <time>2024-04-07T07:48:31Z</time>
      </trkpt>
      <trkpt lat="44.11818" lon="1.84853">
        <ele>215.4</ele>
        <time>2024-04-07T07:48:32Z</time>
      </trkpt>
      <trkpt lat="44.11815" lon="1.84852">
        <ele>216.2</ele>
        <time>2024-04-07T07:48:33Z</time>
      </trkpt>
      <trkpt lat="44.11811" lon="1.8485">
        <ele>216.6</ele>
        <time>2024-04-07T07:48:34Z</time>
      </trkpt>
      <trkpt lat="44.11806" lon="1.84848">
        <ele>217.4</ele>
        <time>2024-04-07T07:48:35Z</time>
      </trkpt>
      <trkpt lat="44.11802" lon="1.84846">
        <ele>217.6</ele>
        <time>2024-04-07T07:48:36Z</time>
      </trkpt>
      <trkpt lat="44.118" lon="1.84845">
        <ele>218</ele>
        <time>2024-04-07T07:48:37Z</time>
      </trkpt>
      <trkpt lat="44.11796" lon="1.84843">
        <ele>218.4</ele>
        <time>2024-04-07T07:48:38Z</time>
      </trkpt>
      <trkpt lat="44.11792" lon="1.8484">
        <ele>218.8</ele>
        <time>2024-04-07T07:48:39Z</time>
      </trkpt>
      <trkpt lat="44.11789" lon="1.84837">
        <ele>219.2</ele>
        <time>2024-04-07T07:48:40Z</time>
      </trkpt>
      <trkpt lat="44.11785" lon="1.84833">
        <ele>219.6</ele>
        <time>2024-04-07T07:48:41Z</time>
      </trkpt>
      <trkpt lat="44.11782" lon="1.8483">
        <ele>220.2</ele>
        <time>2024-04-07T07:48:42Z</time>
      </trkpt>
      <trkpt lat="44.1178" lon="1.84827">
        <ele>220.4</ele>
        <time>2024-04-07T07:48:43Z</time>
      </trkpt>
      <trkpt lat="44.11776" lon="1.84822">
        <ele>221.2</ele>
        <time>2024-04-07T07:48:44Z</time>
      </trkpt>
      <trkpt lat="44.11773" lon="1.84818">
        <ele>221.4</ele>
        <time>2024-04-07T07:48:45Z</time>
      </trkpt>
      <trkpt lat="44.1177" lon="1.84814">
        <ele>221.6</ele>
        <time>2024-04-07T07:48:46Z</time>
      </trkpt>
      <trkpt lat="44.11768" lon="1.8481">
        <ele>221.8</ele>
        <time>2024-04-07T07:48:47Z</time>
      </trkpt>
      <trkpt lat="44.11766" lon="1.84807">
        <ele>221.8</ele>
        <time>2024-04-07T07:48:48Z</time>
      </trkpt>
      <trkpt lat="44.11763" lon="1.84803">
        <ele>221.8</ele>
        <time>2024-04-07T07:48:49Z</time>
      </trkpt>
      <trkpt lat="44.1176" lon="1.84798">
        <ele>222</ele>
        <time>2024-04-07T07:48:50Z</time>
      </trkpt>
      <trkpt lat="44.11757" lon="1.84794">
        <ele>222.2</ele>
        <time>2024-04-07T07:48:51Z</time>
      </trkpt>
      <trkpt lat="44.11755" lon="1.84789">
        <ele>222.2</ele>
        <time>2024-04-07T07:48:52Z</time>
      </trkpt>
      <trkpt lat="44.11753" lon="1.84785">
        <ele>222.6</ele>
        <time>2024-04-07T07:48:53Z</time>
      </trkpt>
      <trkpt lat="44.11751" lon="1.84781">
        <ele>222.8</ele>
        <time>2024-04-07T07:48:54Z</time>
      </trkpt>
      <trkpt lat="44.11748" lon="1.84774">
        <ele>223</ele>
        <time>2024-04-07T07:48:55Z</time>
      </trkpt>
      <trkpt lat="44.11746" lon="1.84769">
        <ele>223</ele>
        <time>2024-04-07T07:48:56Z</time>
      </trkpt>
      <trkpt lat="44.11743" lon="1.84764">
        <ele>223</ele>
        <time>2024-04-07T07:48:57Z</time>
      </trkpt>
      <trkpt lat="44.1174" lon="1.8476">
        <ele>223.2</ele>
        <time>2024-04-07T07:48:58Z</time>
      </trkpt>
      <trkpt lat="44.11737" lon="1.84757">
        <ele>223.4</ele>
        <time>2024-04-07T07:48:59Z</time>
      </trkpt>
      <trkpt lat="44.11734" lon="1.84752">
        <ele>223.6</ele>
        <time>2024-04-07T07:49:00Z</time>
      </trkpt>
      <trkpt lat="44.11731" lon="1.84748">
        <ele>223.8</ele>
        <time>2024-04-07T07:49:01Z</time>
      </trkpt>
      <trkpt lat="44.11728" lon="1.84745">
        <ele>224.2</ele>
        <time>2024-04-07T07:49:02Z</time>
      </trkpt>
      <trkpt lat="44.11726" lon="1.84742">
        <ele>224.4</ele>
        <time>2024-04-07T07:49:03Z</time>
      </trkpt>
      <trkpt lat="44.11725" lon="1.8474">
        <ele>224.6</ele>
        <time>2024-04-07T07:49:04Z</time>
      </trkpt>
      <trkpt lat="44.1172" lon="1.84736">
        <ele>225.2</ele>
        <time>2024-04-07T07:49:05Z</time>
      </trkpt>
      <trkpt lat="44.11717" lon="1.84733">
        <ele>225.6</ele>
        <time>2024-04-07T07:49:06Z</time>
      </trkpt>
      <trkpt lat="44.11713" lon="1.8473">
        <ele>226.4</ele>
        <time>2024-04-07T07:49:07Z</time>
      </trkpt>
      <trkpt lat="44.1171" lon="1.84727">
        <ele>227</ele>
        <time>2024-04-07T07:49:08Z</time>
      </trkpt>
      <trkpt lat="44.11706" lon="1.84723">
        <ele>227.6</ele>
        <time>2024-04-07T07:49:09Z</time>
      </trkpt>
      <trkpt lat="44.11701" lon="1.8472">
        <ele>227.8</ele>
        <time>2024-04-07T07:49:10Z</time>
      </trkpt>
      <trkpt lat="44.11698" lon="1.84716">
        <ele>228.2</ele>
        <time>2024-04-07T07:49:11Z</time>
      </trkpt>
      <trkpt lat="44.11695" lon="1.84713">
        <ele>228.8</ele>
        <time>2024-04-07T07:49:12Z</time>
      </trkpt>
      <trkpt lat="44.11691" lon="1.84711">
        <ele>229</ele>
        <time>2024-04-07T07:49:13Z</time>
      </trkpt>
      <trkpt lat="44.11688" lon="1.84709">
        <ele>229.6</ele>
        <time>2024-04-07T07:49:14Z</time>
      </trkpt>
      <trkpt lat="44.11684" lon="1.84705">
        <ele>229.8</ele>
        <time>2024-04-07T07:49:15Z</time>
      </trkpt>
      <trkpt lat="44.11681" lon="1.84703">
        <ele>230.6</ele>
        <time>2024-04-07T07:49:16Z</time>
      </trkpt>
      <trkpt lat="44.11677" lon="1.84701">
        <ele>231</ele>
        <time>2024-04-07T07:49:17Z</time>
      </trkpt>
      <trkpt lat="44.11674" lon="1.847">
        <ele>231.8</ele>
        <time>2024-04-07T07:49:18Z</time>
      </trkpt>
      <trkpt lat="44.1167" lon="1.84698">
        <ele>232.6</ele>
        <time>2024-04-07T07:49:19Z</time>
      </trkpt>
      <trkpt lat="44.11666" lon="1.84696">
        <ele>233.4</ele>
        <time>2024-04-07T07:49:20Z</time>
      </trkpt>
      <trkpt lat="44.11664" lon="1.84693">
        <ele>234.4</ele>
        <time>2024-04-07T07:49:21Z</time>
      </trkpt>
      <trkpt lat="44.11662" lon="1.8469">
        <ele>234.6</ele>
        <time>2024-04-07T07:49:22Z</time>
      </trkpt>
      <trkpt lat="44.1166" lon="1.84688">
        <ele>235.2</ele>
        <time>2024-04-07T07:49:23Z</time>
      </trkpt>
      <trkpt lat="44.11657" lon="1.84686">
        <ele>235.4</ele>
        <time>2024-04-07T07:49:24Z</time>
      </trkpt>
      <trkpt lat="44.11655" lon="1.84683">
        <ele>235.8</ele>
        <time>2024-04-07T07:49:25Z</time>
      </trkpt>
      <trkpt lat="44.11652" lon="1.84681">
        <ele>236.2</ele>
        <time>2024-04-07T07:49:26Z</time>
      </trkpt>
      <trkpt lat="44.11649" lon="1.84678">
        <ele>237.2</ele>
        <time>2024-04-07T07:49:27Z</time>
      </trkpt>
      <trkpt lat="44.11647" lon="1.84677">
        <ele>237.8</ele>
        <time>2024-04-07T07:49:28Z</time>
      </trkpt>
      <trkpt lat="44.11642" lon="1.84674">
        <ele>238.6</ele>
        <time>2024-04-07T07:49:29Z</time>
      </trkpt>
      <trkpt lat="44.11639" lon="1.84673">
        <ele>239.2</ele>
        <time>2024-04-07T07:49:30Z</time>
      </trkpt>
      <trkpt lat="44.11636" lon="1.8467">
        <ele>239.8</ele>
        <time>2024-04-07T07:49:31Z</time>
      </trkpt>
      <trkpt lat="44.11633" lon="1.84667">
        <ele>240.6</ele>
        <time>2024-04-07T07:49:32Z</time>
      </trkpt>
      <trkpt lat="44.11632" lon="1.84665">
        <ele>240.6</ele>
        <time>2024-04-07T07:49:33Z</time>
      </trkpt>
      <trkpt lat="44.1163" lon="1.84663">
        <ele>241.4</ele>
        <time>2024-04-07T07:49:34Z</time>
      </trkpt>
      <trkpt lat="44.11628" lon="1.84661">
        <ele>241.4</ele>
        <time>2024-04-07T07:49:35Z</time>
      </trkpt>
      <trkpt lat="44.11625" lon="1.8466">
        <ele>242.2</ele>
        <time>2024-04-07T07:49:36Z</time>
      </trkpt>
      <trkpt lat="44.11623" lon="1.84659">
        <ele>242.6</ele>
        <time>2024-04-07T07:49:37Z</time>
      </trkpt>
      <trkpt lat="44.1162" lon="1.84656">
        <ele>243.8</ele>
        <time>2024-04-07T07:49:38Z</time>
      </trkpt>
      <trkpt lat="44.11617" lon="1.84653">
        <ele>244.4</ele>
        <time>2024-04-07T07:49:39Z</time>
      </trkpt>
      <trkpt lat="44.11613" lon="1.84648">
        <ele>244.6</ele>
        <time>2024-04-07T07:49:40Z</time>
      </trkpt>
      <trkpt lat="44.11612" lon="1.84645">
        <ele>245.2</ele>
        <time>2024-04-07T07:49:41Z</time>
      </trkpt>
      <trkpt lat="44.11611" lon="1.84642">
        <ele>245.4</ele>
        <time>2024-04-07T07:49:42Z</time>
      </trkpt>
      <trkpt lat="44.1161" lon="1.8464">
        <ele>245.8</ele>
        <time>2024-04-07T07:49:43Z</time>
      </trkpt>
      <trkpt lat="44.11609" lon="1.84638">
        <ele>246</ele>
        <time>2024-04-07T07:49:44Z</time>
      </trkpt>
      <trkpt lat="44.11608" lon="1.84635">
        <ele>246.4</ele>
        <time>2024-04-07T07:49:45Z</time>
      </trkpt>
      <trkpt lat="44.11608" lon="1.84633">
        <ele>246.6</ele>
        <time>2024-04-07T07:49:46Z</time>
      </trkpt>
      <trkpt lat="44.11607" lon="1.8463">
        <ele>247.2</ele>
        <time>2024-04-07T07:49:47Z</time>
      </trkpt>
      <trkpt lat="44.11607" lon="1.84627">
        <ele>247.6</ele>
        <time>2024-04-07T07:49:48Z</time>
      </trkpt>
      <trkpt lat="44.11608" lon="1.84626">
        <ele>247.8</ele>
        <time>2024-04-07T07:49:49Z</time>
      </trkpt>
      <trkpt lat="44.11607" lon="1.84623">
        <ele>248.2</ele>
        <time>2024-04-07T07:49:50Z</time>
      </trkpt>
      <trkpt lat="44.11605" lon="1.84621">
        <ele>248.6</ele>
        <time>2024-04-07T07:49:51Z</time>
      </trkpt>
      <trkpt lat="44.11603" lon="1.84619">
        <ele>249.2</ele>
        <time>2024-04-07T07:49:52Z</time>
      </trkpt>
      <trkpt lat="44.11602" lon="1.84614">
        <ele>249.4</ele>
        <time>2024-04-07T07:49:53Z</time>
      </trkpt>
      <trkpt lat="44.11602" lon="1.8461">
        <ele>250.2</ele>
        <time>2024-04-07T07:49:54Z</time>
      </trkpt>
      <trkpt lat="44.11599" lon="1.84606">
        <ele>250.8</ele>
        <time>2024-04-07T07:49:55Z</time>
      </trkpt>
      <trkpt lat="44.11598" lon="1.84601">
        <ele>251.4</ele>
        <time>2024-04-07T07:49:56Z</time>
      </trkpt>
      <trkpt lat="44.11597" lon="1.84598">
        <ele>252.4</ele>
        <time>2024-04-07T07:49:57Z</time>
      </trkpt>
      <trkpt lat="44.11591" lon="1.84594">
        <ele>252.8</ele>
        <time>2024-04-07T07:49:58Z</time>
      </trkpt>
      <trkpt lat="44.11588" lon="1.84592">
        <ele>253.2</ele>
        <time>2024-04-07T07:49:59Z</time>
      </trkpt>
      <trkpt lat="44.11583" lon="1.8459">
        <ele>253.4</ele>
        <time>2024-04-07T07:50:00Z</time>
      </trkpt>
      <trkpt lat="44.11582" lon="1.84589">
        <ele>254.2</ele>
        <time>2024-04-07T07:50:01Z</time>
      </trkpt>
      <trkpt lat="44.11582" lon="1.84589">
        <ele>254.6</ele>
        <time>2024-04-07T07:50:02Z</time>
      </trkpt>
      <trkpt lat="44.1158" lon="1.8459">
        <ele>255.2</ele>
        <time>2024-04-07T07:50:03Z</time>
      </trkpt>
      <trkpt lat="44.11577" lon="1.8459">
        <ele>255.6</ele>
        <time>2024-04-07T07:50:04Z</time>
      </trkpt>
      <trkpt lat="44.11574" lon="1.84589">
        <ele>256</ele>
        <time>2024-04-07T07:50:05Z</time>
      </trkpt>
      <trkpt lat="44.11572" lon="1.84588">
        <ele>256.4</ele>
        <time>2024-04-07T07:50:06Z</time>
      </trkpt>
      <trkpt lat="44.11569" lon="1.84586">
        <ele>256.4</ele>
        <time>2024-04-07T07:50:07Z</time>
      </trkpt>
      <trkpt lat="44.11566" lon="1.84584">
        <ele>257</ele>
        <time>2024-04-07T07:50:08Z</time>
      </trkpt>
      <trkpt lat="44.11564" lon="1.84582">
        <ele>257.2</ele>
        <time>2024-04-07T07:50:09Z</time>
      </trkpt>
      <trkpt lat="44.11563" lon="1.84579">
        <ele>258.2</ele>
        <time>2024-04-07T07:50:10Z</time>
      </trkpt>
      <trkpt lat="44.1156" lon="1.84576">
        <ele>258.4</ele>
        <time>2024-04-07T07:50:11Z</time>
      </trkpt>
      <trkpt lat="44.11559" lon="1.84574">
        <ele>259</ele>
        <time>2024-04-07T07:50:12Z</time>
      </trkpt>
      <trkpt lat="44.11555" lon="1.84571">
        <ele>259.2</ele>
        <time>2024-04-07T07:50:13Z</time>
      </trkpt>
      <trkpt lat="44.11552" lon="1.84568">
        <ele>259.4</ele>
        <time>2024-04-07T07:50:14Z</time>
      </trkpt>
      <trkpt lat="44.11549" lon="1.84565">
        <ele>260.2</ele>
        <time>2024-04-07T07:50:15Z</time>
      </trkpt>
      <trkpt lat="44.11546" lon="1.84564">
        <ele>260.4</ele>
        <time>2024-04-07T07:50:16Z</time>
      </trkpt>
      <trkpt lat="44.11544" lon="1.8456">
        <ele>260.8</ele>
        <time>2024-04-07T07:50:17Z</time>
      </trkpt>
      <trkpt lat="44.11541" lon="1.84557">
        <ele>261</ele>
        <time>2024-04-07T07:50:18Z</time>
      </trkpt>
      <trkpt lat="44.11538" lon="1.84553">
        <ele>261.8</ele>
        <time>2024-04-07T07:50:19Z</time>
      </trkpt>
      <trkpt lat="44.11537" lon="1.8455">
        <ele>262.2</ele>
        <time>2024-04-07T07:50:20Z</time>
      </trkpt>
      <trkpt lat="44.11535" lon="1.84547">
        <ele>263</ele>
        <time>2024-04-07T07:50:21Z</time>
      </trkpt>
      <trkpt lat="44.11534" lon="1.84544">
        <ele>263.8</ele>
        <time>2024-04-07T07:50:22Z</time>
      </trkpt>
      <trkpt lat="44.11532" lon="1.8454">
        <ele>264.2</ele>
        <time>2024-04-07T07:50:23Z</time>
      </trkpt>
      <trkpt lat="44.11529" lon="1.84537">
        <ele>264.8</ele>
        <time>2024-04-07T07:50:24Z</time>
      </trkpt>
      <trkpt lat="44.11526" lon="1.84534">
        <ele>265</ele>
        <time>2024-04-07T07:50:25Z</time>
      </trkpt>
      <trkpt lat="44.11524" lon="1.84531">
        <ele>265.2</ele>
        <time>2024-04-07T07:50:26Z</time>
      </trkpt>
      <trkpt lat="44.11522" lon="1.84527">
        <ele>265.4</ele>
        <time>2024-04-07T07:50:27Z</time>
      </trkpt>
      <trkpt lat="44.11519" lon="1.84522">
        <ele>266.4</ele>
        <time>2024-04-07T07:50:28Z</time>
      </trkpt>
      <trkpt lat="44.11517" lon="1.84519">
        <ele>267</ele>
        <time>2024-04-07T07:50:29Z</time>
      </trkpt>
      <trkpt lat="44.11515" lon="1.84515">
        <ele>268</ele>
        <time>2024-04-07T07:50:30Z</time>
      </trkpt>
      <trkpt lat="44.11514" lon="1.84512">
        <ele>268.6</ele>
        <time>2024-04-07T07:50:31Z</time>
      </trkpt>
      <trkpt lat="44.11512" lon="1.84509">
        <ele>268.8</ele>
        <time>2024-04-07T07:50:32Z</time>
      </trkpt>
      <trkpt lat="44.11509" lon="1.84504">
        <ele>269.2</ele>
        <time>2024-04-07T07:50:33Z</time>
      </trkpt>
      <trkpt lat="44.11507" lon="1.845">
        <ele>269.2</ele>
        <time>2024-04-07T07:50:34Z</time>
      </trkpt>
      <trkpt lat="44.11506" lon="1.84497">
        <ele>269.6</ele>
        <time>2024-04-07T07:50:35Z</time>
      </trkpt>
      <trkpt lat="44.11503" lon="1.84494">
        <ele>269.8</ele>
        <time>2024-04-07T07:50:36Z</time>
      </trkpt>
      <trkpt lat="44.11501" lon="1.8449">
        <ele>270.2</ele>
        <time>2024-04-07T07:50:37Z</time>
      </trkpt>
      <trkpt lat="44.11498" lon="1.84487">
        <ele>270.4</ele>
        <time>2024-04-07T07:50:38Z</time>
      </trkpt>
      <trkpt lat="44.11497" lon="1.84483">
        <ele>270.6</ele>
        <time>2024-04-07T07:50:39Z</time>
      </trkpt>
      <trkpt lat="44.11495" lon="1.84481">
        <ele>271</ele>
        <time>2024-04-07T07:50:40Z</time>
      </trkpt>
      <trkpt lat="44.11493" lon="1.84478">
        <ele>271.2</ele>
        <time>2024-04-07T07:50:41Z</time>
      </trkpt>
      <trkpt lat="44.11492" lon="1.84474">
        <ele>271.4</ele>
        <time>2024-04-07T07:50:42Z</time>
      </trkpt>
      <trkpt lat="44.1149" lon="1.84471">
        <ele>271.6</ele>
        <time>2024-04-07T07:50:43Z</time>
      </trkpt>
      <trkpt lat="44.11488" lon="1.84467">
        <ele>271.8</ele>
        <time>2024-04-07T07:50:44Z</time>
      </trkpt>
      <trkpt lat="44.11487" lon="1.84465">
        <ele>271.8</ele>
        <time>2024-04-07T07:50:45Z</time>
      </trkpt>
      <trkpt lat="44.11485" lon="1.84461">
        <ele>272.2</ele>
        <time>2024-04-07T07:50:46Z</time>
      </trkpt>
      <trkpt lat="44.11483" lon="1.84458">
        <ele>272.4</ele>
        <time>2024-04-07T07:50:47Z</time>
      </trkpt>
      <trkpt lat="44.1148" lon="1.84454">
        <ele>272.4</ele>
        <time>2024-04-07T07:50:48Z</time>
      </trkpt>
      <trkpt lat="44.11478" lon="1.84449">
        <ele>272.6</ele>
        <time>2024-04-07T07:50:49Z</time>
      </trkpt>
      <trkpt lat="44.11475" lon="1.84446">
        <ele>272.6</ele>
        <time>2024-04-07T07:50:50Z</time>
      </trkpt>
      <trkpt lat="44.11473" lon="1.84442">
        <ele>272.8</ele>
        <time>2024-04-07T07:50:51Z</time>
      </trkpt>
      <trkpt lat="44.11471" lon="1.84437">
        <ele>272.8</ele>
        <time>2024-04-07T07:50:52Z</time>
      </trkpt>
      <trkpt lat="44.11469" lon="1.84433">
        <ele>272.8</ele>
        <time>2024-04-07T07:50:53Z</time>
      </trkpt>
      <trkpt lat="44.11466" lon="1.8443">
        <ele>272.8</ele>
        <time>2024-04-07T07:50:54Z</time>
      </trkpt>
      <trkpt lat="44.11464" lon="1.84427">
        <ele>272.8</ele>
        <time>2024-04-07T07:50:55Z</time>
      </trkpt>
      <trkpt lat="44.11462" lon="1.84423">
        <ele>272.8</ele>
        <time>2024-04-07T07:50:56Z</time>
      </trkpt>
      <trkpt lat="44.1146" lon="1.84419">
        <ele>272.8</ele>
        <time>2024-04-07T07:50:57Z</time>
      </trkpt>
      <trkpt lat="44.11459" lon="1.84416">
        <ele>272.6</ele>
        <time>2024-04-07T07:50:58Z</time>
      </trkpt>
      <trkpt lat="44.11457" lon="1.84413">
        <ele>272.6</ele>
        <time>2024-04-07T07:50:59Z</time>
      </trkpt>
      <trkpt lat="44.11456" lon="1.84411">
        <ele>272.2</ele>
        <time>2024-04-07T07:51:00Z</time>
      </trkpt>
      <trkpt lat="44.11454" lon="1.84407">
        <ele>272.2</ele>
        <time>2024-04-07T07:51:01Z</time>
      </trkpt>
      <trkpt lat="44.11453" lon="1.84403">
        <ele>271.8</ele>
        <time>2024-04-07T07:51:02Z</time>
      </trkpt>
      <trkpt lat="44.11451" lon="1.844">
        <ele>271.8</ele>
        <time>2024-04-07T07:51:03Z</time>
      </trkpt>
      <trkpt lat="44.11449" lon="1.84398">
        <ele>271.8</ele>
        <time>2024-04-07T07:51:04Z</time>
      </trkpt>
      <trkpt lat="44.11447" lon="1.84395">
        <ele>271.4</ele>
        <time>2024-04-07T07:51:05Z</time>
      </trkpt>
      <trkpt lat="44.11444" lon="1.84389">
        <ele>271.2</ele>
        <time>2024-04-07T07:51:06Z</time>
      </trkpt>
      <trkpt lat="44.11442" lon="1.84382">
        <ele>270.8</ele>
        <time>2024-04-07T07:51:07Z</time>
      </trkpt>
      <trkpt lat="44.11441" lon="1.84372">
        <ele>270.4</ele>
        <time>2024-04-07T07:51:09Z</time>
      </trkpt>
      <trkpt lat="44.1144" lon="1.84369">
        <ele>270.4</ele>
        <time>2024-04-07T07:51:10Z</time>
      </trkpt>
      <trkpt lat="44.11441" lon="1.84366">
        <ele>270</ele>
        <time>2024-04-07T07:51:11Z</time>
      </trkpt>
      <trkpt lat="44.11441" lon="1.84362">
        <ele>269.8</ele>
        <time>2024-04-07T07:51:12Z</time>
      </trkpt>
      <trkpt lat="44.11441" lon="1.8436">
        <ele>268.4</ele>
        <time>2024-04-07T07:51:13Z</time>
      </trkpt>
      <trkpt lat="44.11442" lon="1.84356">
        <ele>267.6</ele>
        <time>2024-04-07T07:51:14Z</time>
      </trkpt>
      <trkpt lat="44.11442" lon="1.84354">
        <ele>267.4</ele>
        <time>2024-04-07T07:51:15Z</time>
      </trkpt>
      <trkpt lat="44.11443" lon="1.84353">
        <ele>267</ele>
        <time>2024-04-07T07:51:16Z</time>
      </trkpt>
      <trkpt lat="44.11443" lon="1.8435">
        <ele>266.8</ele>
        <time>2024-04-07T07:51:17Z</time>
      </trkpt>
      <trkpt lat="44.11444" lon="1.84348">
        <ele>266.6</ele>
        <time>2024-04-07T07:51:18Z</time>
      </trkpt>
      <trkpt lat="44.11444" lon="1.84346">
        <ele>266.4</ele>
        <time>2024-04-07T07:51:19Z</time>
      </trkpt>
      <trkpt lat="44.11445" lon="1.84343">
        <ele>266</ele>
        <time>2024-04-07T07:51:20Z</time>
      </trkpt>
      <trkpt lat="44.11445" lon="1.84339">
        <ele>265.6</ele>
        <time>2024-04-07T07:51:21Z</time>
      </trkpt>
      <trkpt lat="44.11445" lon="1.84335">
        <ele>265.6</ele>
        <time>2024-04-07T07:51:22Z</time>
      </trkpt>
      <trkpt lat="44.11445" lon="1.84331">
        <ele>265.6</ele>
        <time>2024-04-07T07:51:23Z</time>
      </trkpt>
      <trkpt lat="44.11446" lon="1.84328">
        <ele>265.4</ele>
        <time>2024-04-07T07:51:24Z</time>
      </trkpt>
      <trkpt lat="44.11447" lon="1.84323">
        <ele>265.4</ele>
        <time>2024-04-07T07:51:25Z</time>
      </trkpt>
      <trkpt lat="44.11447" lon="1.84322">
        <ele>265.4</ele>
        <time>2024-04-07T07:51:26Z</time>
      </trkpt>
      <trkpt lat="44.11448" lon="1.8432">
        <ele>265.4</ele>
        <time>2024-04-07T07:51:27Z</time>
      </trkpt>
      <trkpt lat="44.11449" lon="1.84317">
        <ele>265.4</ele>
        <time>2024-04-07T07:51:28Z</time>
      </trkpt>
      <trkpt lat="44.1145" lon="1.84314">
        <ele>265.4</ele>
        <time>2024-04-07T07:51:29Z</time>
      </trkpt>
      <trkpt lat="44.11449" lon="1.84311">
        <ele>265.4</ele>
        <time>2024-04-07T07:51:30Z</time>
      </trkpt>
      <trkpt lat="44.11448" lon="1.84307">
        <ele>265.4</ele>
        <time>2024-04-07T07:51:31Z</time>
      </trkpt>
      <trkpt lat="44.11447" lon="1.84303">
        <ele>265.4</ele>
        <time>2024-04-07T07:51:32Z</time>
      </trkpt>
      <trkpt lat="44.11448" lon="1.84298">
        <ele>265.4</ele>
        <time>2024-04-07T07:51:33Z</time>
      </trkpt>
      <trkpt lat="44.11449" lon="1.84294">
        <ele>265.6</ele>
        <time>2024-04-07T07:51:34Z</time>
      </trkpt>
      <trkpt lat="44.1145" lon="1.84286">
        <ele>265.6</ele>
        <time>2024-04-07T07:51:35Z</time>
      </trkpt>
      <trkpt lat="44.1145" lon="1.84279">
        <ele>265.6</ele>
        <time>2024-04-07T07:51:36Z</time>
      </trkpt>
      <trkpt lat="44.1145" lon="1.84275">
        <ele>265.6</ele>
        <time>2024-04-07T07:51:37Z</time>
      </trkpt>
      <trkpt lat="44.1145" lon="1.84272">
        <ele>265.8</ele>
        <time>2024-04-07T07:51:38Z</time>
      </trkpt>
      <trkpt lat="44.11452" lon="1.84268">
        <ele>266</ele>
        <time>2024-04-07T07:51:39Z</time>
      </trkpt>
      <trkpt lat="44.11454" lon="1.84263">
        <ele>266.2</ele>
        <time>2024-04-07T07:51:40Z</time>
      </trkpt>
      <trkpt lat="44.11455" lon="1.84258">
        <ele>266.4</ele>
        <time>2024-04-07T07:51:41Z</time>
      </trkpt>
      <trkpt lat="44.11455" lon="1.84252">
        <ele>266.6</ele>
        <time>2024-04-07T07:51:42Z</time>
      </trkpt>
      <trkpt lat="44.11456" lon="1.84247">
        <ele>267</ele>
        <time>2024-04-07T07:51:43Z</time>
      </trkpt>
      <trkpt lat="44.11457" lon="1.84241">
        <ele>267</ele>
        <time>2024-04-07T07:51:44Z</time>
      </trkpt>
      <trkpt lat="44.11457" lon="1.84238">
        <ele>267.4</ele>
        <time>2024-04-07T07:51:45Z</time>
      </trkpt>
      <trkpt lat="44.11457" lon="1.84235">
        <ele>267.6</ele>
        <time>2024-04-07T07:51:46Z</time>
      </trkpt>
      <trkpt lat="44.11458" lon="1.84231">
        <ele>268.2</ele>
        <time>2024-04-07T07:51:47Z</time>
      </trkpt>
      <trkpt lat="44.11459" lon="1.84227">
        <ele>268.6</ele>
        <time>2024-04-07T07:51:48Z</time>
      </trkpt>
      <trkpt lat="44.1146" lon="1.84225">
        <ele>268.8</ele>
        <time>2024-04-07T07:51:49Z</time>
      </trkpt>
      <trkpt lat="44.11461" lon="1.84219">
        <ele>269</ele>
        <time>2024-04-07T07:51:50Z</time>
      </trkpt>
      <trkpt lat="44.11462" lon="1.84213">
        <ele>269.2</ele>
        <time>2024-04-07T07:51:51Z</time>
      </trkpt>
      <trkpt lat="44.11463" lon="1.84207">
        <ele>269.8</ele>
        <time>2024-04-07T07:51:52Z</time>
      </trkpt>
      <trkpt lat="44.11463" lon="1.84201">
        <ele>270.2</ele>
        <time>2024-04-07T07:51:53Z</time>
      </trkpt>
      <trkpt lat="44.11464" lon="1.84196">
        <ele>270.6</ele>
        <time>2024-04-07T07:51:54Z</time>
      </trkpt>
      <trkpt lat="44.11465" lon="1.8419">
        <ele>270.8</ele>
        <time>2024-04-07T07:51:55Z</time>
      </trkpt>
      <trkpt lat="44.11465" lon="1.84185">
        <ele>271</ele>
        <time>2024-04-07T07:51:56Z</time>
      </trkpt>
      <trkpt lat="44.11465" lon="1.84182">
        <ele>271.4</ele>
        <time>2024-04-07T07:51:57Z</time>
      </trkpt>
      <trkpt lat="44.11466" lon="1.84179">
        <ele>271.8</ele>
        <time>2024-04-07T07:51:58Z</time>
      </trkpt>
      <trkpt lat="44.11467" lon="1.84175">
        <ele>272.4</ele>
        <time>2024-04-07T07:51:59Z</time>
      </trkpt>
      <trkpt lat="44.11468" lon="1.84171">
        <ele>272.6</ele>
        <time>2024-04-07T07:52:00Z</time>
      </trkpt>
      <trkpt lat="44.11469" lon="1.84166">
        <ele>273.2</ele>
        <time>2024-04-07T07:52:01Z</time>
      </trkpt>
      <trkpt lat="44.11469" lon="1.8416">
        <ele>273.6</ele>
        <time>2024-04-07T07:52:02Z</time>
      </trkpt>
      <trkpt lat="44.11469" lon="1.84156">
        <ele>274</ele>
        <time>2024-04-07T07:52:03Z</time>
      </trkpt>
      <trkpt lat="44.11469" lon="1.84152">
        <ele>274.2</ele>
        <time>2024-04-07T07:52:04Z</time>
      </trkpt>
      <trkpt lat="44.11471" lon="1.84144">
        <ele>274.8</ele>
        <time>2024-04-07T07:52:05Z</time>
      </trkpt>
      <trkpt lat="44.11471" lon="1.84138">
        <ele>275</ele>
        <time>2024-04-07T07:52:06Z</time>
      </trkpt>
      <trkpt lat="44.11471" lon="1.84132">
        <ele>275</ele>
        <time>2024-04-07T07:52:07Z</time>
      </trkpt>
      <trkpt lat="44.11471" lon="1.84129">
        <ele>275.4</ele>
        <time>2024-04-07T07:52:08Z</time>
      </trkpt>
      <trkpt lat="44.11471" lon="1.84124">
        <ele>275.6</ele>
        <time>2024-04-07T07:52:09Z</time>
      </trkpt>
      <trkpt lat="44.11469" lon="1.84119">
        <ele>276</ele>
        <time>2024-04-07T07:52:10Z</time>
      </trkpt>
      <trkpt lat="44.11468" lon="1.84114">
        <ele>276.2</ele>
        <time>2024-04-07T07:52:11Z</time>
      </trkpt>
      <trkpt lat="44.11468" lon="1.84108">
        <ele>276.4</ele>
        <time>2024-04-07T07:52:12Z</time>
      </trkpt>
      <trkpt lat="44.11468" lon="1.84104">
        <ele>276.6</ele>
        <time>2024-04-07T07:52:13Z</time>
      </trkpt>
      <trkpt lat="44.11468" lon="1.84099">
        <ele>276.8</ele>
        <time>2024-04-07T07:52:14Z</time>
      </trkpt>
      <trkpt lat="44.11466" lon="1.84094">
        <ele>277.2</ele>
        <time>2024-04-07T07:52:15Z</time>
      </trkpt>
      <trkpt lat="44.11462" lon="1.84087">
        <ele>277.4</ele>
        <time>2024-04-07T07:52:16Z</time>
      </trkpt>
      <trkpt lat="44.11459" lon="1.84081">
        <ele>277.6</ele>
        <time>2024-04-07T07:52:17Z</time>
      </trkpt>
      <trkpt lat="44.11458" lon="1.84077">
        <ele>277.6</ele>
        <time>2024-04-07T07:52:18Z</time>
      </trkpt>
      <trkpt lat="44.11459" lon="1.84072">
        <ele>278</ele>
        <time>2024-04-07T07:52:19Z</time>
      </trkpt>
      <trkpt lat="44.1146" lon="1.84066">
        <ele>278</ele>
        <time>2024-04-07T07:52:20Z</time>
      </trkpt>
      <trkpt lat="44.11461" lon="1.84061">
        <ele>278.2</ele>
        <time>2024-04-07T07:52:21Z</time>
      </trkpt>
      <trkpt lat="44.11462" lon="1.84057">
        <ele>278.2</ele>
        <time>2024-04-07T07:52:22Z</time>
      </trkpt>
      <trkpt lat="44.11463" lon="1.84054">
        <ele>278.2</ele>
        <time>2024-04-07T07:52:23Z</time>
      </trkpt>
      <trkpt lat="44.11464" lon="1.8405">
        <ele>278.4</ele>
        <time>2024-04-07T07:52:24Z</time>
      </trkpt>
      <trkpt lat="44.11465" lon="1.84046">
        <ele>278.6</ele>
        <time>2024-04-07T07:52:25Z</time>
      </trkpt>
      <trkpt lat="44.11465" lon="1.84042">
        <ele>278.8</ele>
        <time>2024-04-07T07:52:26Z</time>
      </trkpt>
      <trkpt lat="44.11466" lon="1.84039">
        <ele>279</ele>
        <time>2024-04-07T07:52:27Z</time>
      </trkpt>
      <trkpt lat="44.11465" lon="1.84036">
        <ele>279.2</ele>
        <time>2024-04-07T07:52:28Z</time>
      </trkpt>
      <trkpt lat="44.11465" lon="1.84033">
        <ele>279.6</ele>
        <time>2024-04-07T07:52:29Z</time>
      </trkpt>
      <trkpt lat="44.11464" lon="1.84028">
        <ele>280.2</ele>
        <time>2024-04-07T07:52:30Z</time>
      </trkpt>
      <trkpt lat="44.11463" lon="1.84026">
        <ele>280.8</ele>
        <time>2024-04-07T07:52:31Z</time>
      </trkpt>
      <trkpt lat="44.11462" lon="1.84021">
        <ele>281</ele>
        <time>2024-04-07T07:52:32Z</time>
      </trkpt>
      <trkpt lat="44.1146" lon="1.84019">
        <ele>281.4</ele>
        <time>2024-04-07T07:52:33Z</time>
      </trkpt>
      <trkpt lat="44.1146" lon="1.84015">
        <ele>281.6</ele>
        <time>2024-04-07T07:52:34Z</time>
      </trkpt>
      <trkpt lat="44.11458" lon="1.84011">
        <ele>281.8</ele>
        <time>2024-04-07T07:52:35Z</time>
      </trkpt>
      <trkpt lat="44.11457" lon="1.84008">
        <ele>282</ele>
        <time>2024-04-07T07:52:36Z</time>
      </trkpt>
      <trkpt lat="44.11456" lon="1.84005">
        <ele>282.4</ele>
        <time>2024-04-07T07:52:37Z</time>
      </trkpt>
      <trkpt lat="44.11454" lon="1.84001">
        <ele>282.4</ele>
        <time>2024-04-07T07:52:38Z</time>
      </trkpt>
      <trkpt lat="44.11452" lon="1.83998">
        <ele>283</ele>
        <time>2024-04-07T07:52:39Z</time>
      </trkpt>
      <trkpt lat="44.11451" lon="1.83994">
        <ele>283.4</ele>
        <time>2024-04-07T07:52:40Z</time>
      </trkpt>
      <trkpt lat="44.11449" lon="1.8399">
        <ele>283.4</ele>
        <time>2024-04-07T07:52:41Z</time>
      </trkpt>
      <trkpt lat="44.11447" lon="1.83987">
        <ele>283.6</ele>
        <time>2024-04-07T07:52:42Z</time>
      </trkpt>
      <trkpt lat="44.11446" lon="1.83984">
        <ele>283.8</ele>
        <time>2024-04-07T07:52:43Z</time>
      </trkpt>
      <trkpt lat="44.11445" lon="1.83981">
        <ele>284</ele>
        <time>2024-04-07T07:52:44Z</time>
      </trkpt>
      <trkpt lat="44.11443" lon="1.83977">
        <ele>284</ele>
        <time>2024-04-07T07:52:45Z</time>
      </trkpt>
      <trkpt lat="44.11442" lon="1.83974">
        <ele>284.6</ele>
        <time>2024-04-07T07:52:46Z</time>
      </trkpt>
      <trkpt lat="44.1144" lon="1.83971">
        <ele>284.6</ele>
        <time>2024-04-07T07:52:47Z</time>
      </trkpt>
      <trkpt lat="44.11439" lon="1.83968">
        <ele>284.8</ele>
        <time>2024-04-07T07:52:48Z</time>
      </trkpt>
      <trkpt lat="44.11439" lon="1.83964">
        <ele>285.2</ele>
        <time>2024-04-07T07:52:49Z</time>
      </trkpt>
      <trkpt lat="44.11438" lon="1.83961">
        <ele>285.4</ele>
        <time>2024-04-07T07:52:50Z</time>
      </trkpt>
      <trkpt lat="44.11437" lon="1.83959">
        <ele>285.8</ele>
        <time>2024-04-07T07:52:51Z</time>
      </trkpt>
      <trkpt lat="44.11435" lon="1.83957">
        <ele>286</ele>
        <time>2024-04-07T07:52:52Z</time>
      </trkpt>
      <trkpt lat="44.11434" lon="1.83954">
        <ele>286.2</ele>
        <time>2024-04-07T07:52:53Z</time>
      </trkpt>
      <trkpt lat="44.11433" lon="1.8395">
        <ele>286.4</ele>
        <time>2024-04-07T07:52:54Z</time>
      </trkpt>
      <trkpt lat="44.11432" lon="1.83947">
        <ele>286.8</ele>
        <time>2024-04-07T07:52:55Z</time>
      </trkpt>
      <trkpt lat="44.11431" lon="1.83944">
        <ele>287.2</ele>
        <time>2024-04-07T07:52:56Z</time>
      </trkpt>
      <trkpt lat="44.11431" lon="1.8394">
        <ele>287.2</ele>
        <time>2024-04-07T07:52:57Z</time>
      </trkpt>
      <trkpt lat="44.1143" lon="1.83936">
        <ele>287.6</ele>
        <time>2024-04-07T07:52:58Z</time>
      </trkpt>
      <trkpt lat="44.11428" lon="1.83932">
        <ele>287.8</ele>
        <time>2024-04-07T07:52:59Z</time>
      </trkpt>
      <trkpt lat="44.11426" lon="1.83928">
        <ele>288.4</ele>
        <time>2024-04-07T07:53:00Z</time>
      </trkpt>
      <trkpt lat="44.11424" lon="1.83925">
        <ele>288.6</ele>
        <time>2024-04-07T07:53:01Z</time>
      </trkpt>
      <trkpt lat="44.11422" lon="1.83921">
        <ele>288.8</ele>
        <time>2024-04-07T07:53:02Z</time>
      </trkpt>
      <trkpt lat="44.1142" lon="1.83917">
        <ele>289</ele>
        <time>2024-04-07T07:53:03Z</time>
      </trkpt>
      <trkpt lat="44.11417" lon="1.83914">
        <ele>289.4</ele>
        <time>2024-04-07T07:53:04Z</time>
      </trkpt>
      <trkpt lat="44.11415" lon="1.8391">
        <ele>289.6</ele>
        <time>2024-04-07T07:53:05Z</time>
      </trkpt>
      <trkpt lat="44.11413" lon="1.83906">
        <ele>289.8</ele>
        <time>2024-04-07T07:53:06Z</time>
      </trkpt>
      <trkpt lat="44.1141" lon="1.83903">
        <ele>290</ele>
        <time>2024-04-07T07:53:07Z</time>
      </trkpt>
      <trkpt lat="44.11408" lon="1.839">
        <ele>290.2</ele>
        <time>2024-04-07T07:53:08Z</time>
      </trkpt>
      <trkpt lat="44.11406" lon="1.83897">
        <ele>290.6</ele>
        <time>2024-04-07T07:53:09Z</time>
      </trkpt>
      <trkpt lat="44.11402" lon="1.83893">
        <ele>290.8</ele>
        <time>2024-04-07T07:53:10Z</time>
      </trkpt>
      <trkpt lat="44.114" lon="1.8389">
        <ele>291</ele>
        <time>2024-04-07T07:53:11Z</time>
      </trkpt>
      <trkpt lat="44.11397" lon="1.83887">
        <ele>291.4</ele>
        <time>2024-04-07T07:53:12Z</time>
      </trkpt>
      <trkpt lat="44.11394" lon="1.83883">
        <ele>291.8</ele>
        <time>2024-04-07T07:53:13Z</time>
      </trkpt>
      <trkpt lat="44.11392" lon="1.8388">
        <ele>292.2</ele>
        <time>2024-04-07T07:53:14Z</time>
      </trkpt>
      <trkpt lat="44.1139" lon="1.83876">
        <ele>292.2</ele>
        <time>2024-04-07T07:53:15Z</time>
      </trkpt>
      <trkpt lat="44.11387" lon="1.83873">
        <ele>292.6</ele>
        <time>2024-04-07T07:53:16Z</time>
      </trkpt>
      <trkpt lat="44.11385" lon="1.8387">
        <ele>292.6</ele>
        <time>2024-04-07T07:53:17Z</time>
      </trkpt>
      <trkpt lat="44.11382" lon="1.83866">
        <ele>293</ele>
        <time>2024-04-07T07:53:18Z</time>
      </trkpt>
      <trkpt lat="44.11379" lon="1.83862">
        <ele>293.2</ele>
        <time>2024-04-07T07:53:19Z</time>
      </trkpt>
      <trkpt lat="44.11377" lon="1.83858">
        <ele>293.4</ele>
        <time>2024-04-07T07:53:20Z</time>
      </trkpt>
      <trkpt lat="44.11375" lon="1.83855">
        <ele>293.6</ele>
        <time>2024-04-07T07:53:21Z</time>
      </trkpt>
      <trkpt lat="44.11374" lon="1.83851">
        <ele>294</ele>
        <time>2024-04-07T07:53:22Z</time>
      </trkpt>
      <trkpt lat="44.11371" lon="1.83846">
        <ele>294.6</ele>
        <time>2024-04-07T07:53:23Z</time>
      </trkpt>
      <trkpt lat="44.1137" lon="1.83841">
        <ele>295</ele>
        <time>2024-04-07T07:53:24Z</time>
      </trkpt>
      <trkpt lat="44.11368" lon="1.83836">
        <ele>295.2</ele>
        <time>2024-04-07T07:53:25Z</time>
      </trkpt>
      <trkpt lat="44.11368" lon="1.83832">
        <ele>295.4</ele>
        <time>2024-04-07T07:53:26Z</time>
      </trkpt>
      <trkpt lat="44.11367" lon="1.83827">
        <ele>295.6</ele>
        <time>2024-04-07T07:53:27Z</time>
      </trkpt>
      <trkpt lat="44.11366" lon="1.83821">
        <ele>295.8</ele>
        <time>2024-04-07T07:53:28Z</time>
      </trkpt>
      <trkpt lat="44.11365" lon="1.83816">
        <ele>296.2</ele>
        <time>2024-04-07T07:53:29Z</time>
      </trkpt>
      <trkpt lat="44.11365" lon="1.83811">
        <ele>296.6</ele>
        <time>2024-04-07T07:53:30Z</time>
      </trkpt>
      <trkpt lat="44.11365" lon="1.83805">
        <ele>297</ele>
        <time>2024-04-07T07:53:31Z</time>
      </trkpt>
      <trkpt lat="44.11365" lon="1.83801">
        <ele>297.6</ele>
        <time>2024-04-07T07:53:32Z</time>
      </trkpt>
      <trkpt lat="44.11364" lon="1.83794">
        <ele>298</ele>
        <time>2024-04-07T07:53:33Z</time>
      </trkpt>
      <trkpt lat="44.11365" lon="1.83789">
        <ele>298.6</ele>
        <time>2024-04-07T07:53:34Z</time>
      </trkpt>
      <trkpt lat="44.11365" lon="1.83785">
        <ele>298.8</ele>
        <time>2024-04-07T07:53:35Z</time>
      </trkpt>
      <trkpt lat="44.11365" lon="1.83779">
        <ele>299.2</ele>
        <time>2024-04-07T07:53:36Z</time>
      </trkpt>
      <trkpt lat="44.11364" lon="1.83774">
        <ele>299.4</ele>
        <time>2024-04-07T07:53:37Z</time>
      </trkpt>
      <trkpt lat="44.11364" lon="1.83767">
        <ele>299.6</ele>
        <time>2024-04-07T07:53:38Z</time>
      </trkpt>
      <trkpt lat="44.11364" lon="1.83762">
        <ele>300</ele>
        <time>2024-04-07T07:53:39Z</time>
      </trkpt>
      <trkpt lat="44.11363" lon="1.83757">
        <ele>300.6</ele>
        <time>2024-04-07T07:53:40Z</time>
      </trkpt>
      <trkpt lat="44.11362" lon="1.83753">
        <ele>300.8</ele>
        <time>2024-04-07T07:53:41Z</time>
      </trkpt>
      <trkpt lat="44.11362" lon="1.83748">
        <ele>301</ele>
        <time>2024-04-07T07:53:42Z</time>
      </trkpt>
      <trkpt lat="44.11361" lon="1.83741">
        <ele>301.4</ele>
        <time>2024-04-07T07:53:43Z</time>
      </trkpt>
      <trkpt lat="44.1136" lon="1.83736">
        <ele>301.6</ele>
        <time>2024-04-07T07:53:44Z</time>
      </trkpt>
      <trkpt lat="44.11358" lon="1.83732">
        <ele>302</ele>
        <time>2024-04-07T07:53:45Z</time>
      </trkpt>
      <trkpt lat="44.11358" lon="1.83728">
        <ele>302.2</ele>
        <time>2024-04-07T07:53:46Z</time>
      </trkpt>
      <trkpt lat="44.11356" lon="1.83723">
        <ele>302.8</ele>
        <time>2024-04-07T07:53:47Z</time>
      </trkpt>
      <trkpt lat="44.11355" lon="1.83717">
        <ele>303.2</ele>
        <time>2024-04-07T07:53:48Z</time>
      </trkpt>
      <trkpt lat="44.11354" lon="1.83712">
        <ele>303.4</ele>
        <time>2024-04-07T07:53:49Z</time>
      </trkpt>
      <trkpt lat="44.11354" lon="1.83707">
        <ele>303.8</ele>
        <time>2024-04-07T07:53:50Z</time>
      </trkpt>
      <trkpt lat="44.11353" lon="1.83702">
        <ele>304</ele>
        <time>2024-04-07T07:53:51Z</time>
      </trkpt>
      <trkpt lat="44.11352" lon="1.83696">
        <ele>304.6</ele>
        <time>2024-04-07T07:53:52Z</time>
      </trkpt>
      <trkpt lat="44.11351" lon="1.83692">
        <ele>304.8</ele>
        <time>2024-04-07T07:53:53Z</time>
      </trkpt>
      <trkpt lat="44.11349" lon="1.83687">
        <ele>305.2</ele>
        <time>2024-04-07T07:53:54Z</time>
      </trkpt>
      <trkpt lat="44.11348" lon="1.83682">
        <ele>305.6</ele>
        <time>2024-04-07T07:53:55Z</time>
      </trkpt>
      <trkpt lat="44.11347" lon="1.83677">
        <ele>306</ele>
        <time>2024-04-07T07:53:56Z</time>
      </trkpt>
      <trkpt lat="44.11345" lon="1.83671">
        <ele>306.4</ele>
        <time>2024-04-07T07:53:57Z</time>
      </trkpt>
      <trkpt lat="44.11344" lon="1.83666">
        <ele>306.4</ele>
        <time>2024-04-07T07:53:58Z</time>
      </trkpt>
      <trkpt lat="44.11343" lon="1.83661">
        <ele>307</ele>
        <time>2024-04-07T07:53:59Z</time>
      </trkpt>
      <trkpt lat="44.11342" lon="1.83657">
        <ele>307.2</ele>
        <time>2024-04-07T07:54:00Z</time>
      </trkpt>
      <trkpt lat="44.11341" lon="1.83653">
        <ele>307.4</ele>
        <time>2024-04-07T07:54:01Z</time>
      </trkpt>
      <trkpt lat="44.11339" lon="1.83647">
        <ele>307.4</ele>
        <time>2024-04-07T07:54:02Z</time>
      </trkpt>
      <trkpt lat="44.11338" lon="1.83642">
        <ele>307.8</ele>
        <time>2024-04-07T07:54:03Z</time>
      </trkpt>
      <trkpt lat="44.11337" lon="1.83637">
        <ele>308</ele>
        <time>2024-04-07T07:54:04Z</time>
      </trkpt>
      <trkpt lat="44.11336" lon="1.83633">
        <ele>308.2</ele>
        <time>2024-04-07T07:54:05Z</time>
      </trkpt>
      <trkpt lat="44.11334" lon="1.83628">
        <ele>309</ele>
        <time>2024-04-07T07:54:06Z</time>
      </trkpt>
      <trkpt lat="44.11333" lon="1.83622">
        <ele>309.4</ele>
        <time>2024-04-07T07:54:07Z</time>
      </trkpt>
      <trkpt lat="44.11332" lon="1.83617">
        <ele>310</ele>
        <time>2024-04-07T07:54:08Z</time>
      </trkpt>
      <trkpt lat="44.11332" lon="1.83612">
        <ele>310</ele>
        <time>2024-04-07T07:54:09Z</time>
      </trkpt>
      <trkpt lat="44.11332" lon="1.83608">
        <ele>310.4</ele>
        <time>2024-04-07T07:54:10Z</time>
      </trkpt>
      <trkpt lat="44.11332" lon="1.83603">
        <ele>310.4</ele>
        <time>2024-04-07T07:54:11Z</time>
      </trkpt>
      <trkpt lat="44.11332" lon="1.83597">
        <ele>310.8</ele>
        <time>2024-04-07T07:54:12Z</time>
      </trkpt>
      <trkpt lat="44.11331" lon="1.83592">
        <ele>311</ele>
        <time>2024-04-07T07:54:13Z</time>
      </trkpt>
      <trkpt lat="44.11331" lon="1.83587">
        <ele>311.2</ele>
        <time>2024-04-07T07:54:14Z</time>
      </trkpt>
      <trkpt lat="44.1133" lon="1.83583">
        <ele>311.4</ele>
        <time>2024-04-07T07:54:15Z</time>
      </trkpt>
      <trkpt lat="44.11329" lon="1.83579">
        <ele>311.8</ele>
        <time>2024-04-07T07:54:16Z</time>
      </trkpt>
      <trkpt lat="44.11327" lon="1.83574">
        <ele>312.2</ele>
        <time>2024-04-07T07:54:17Z</time>
      </trkpt>
      <trkpt lat="44.11326" lon="1.8357">
        <ele>312.4</ele>
        <time>2024-04-07T07:54:18Z</time>
      </trkpt>
      <trkpt lat="44.11324" lon="1.83565">
        <ele>312.8</ele>
        <time>2024-04-07T07:54:19Z</time>
      </trkpt>
      <trkpt lat="44.11322" lon="1.83561">
        <ele>313</ele>
        <time>2024-04-07T07:54:20Z</time>
      </trkpt>
      <trkpt lat="44.1132" lon="1.83558">
        <ele>313.4</ele>
        <time>2024-04-07T07:54:21Z</time>
      </trkpt>
      <trkpt lat="44.11318" lon="1.83554">
        <ele>313.8</ele>
        <time>2024-04-07T07:54:22Z</time>
      </trkpt>
      <trkpt lat="44.11316" lon="1.83549">
        <ele>314.2</ele>
        <time>2024-04-07T07:54:23Z</time>
      </trkpt>
      <trkpt lat="44.11315" lon="1.83545">
        <ele>314.8</ele>
        <time>2024-04-07T07:54:24Z</time>
      </trkpt>
      <trkpt lat="44.11313" lon="1.83539">
        <ele>315</ele>
        <time>2024-04-07T07:54:25Z</time>
      </trkpt>
      <trkpt lat="44.11312" lon="1.83536">
        <ele>315.8</ele>
        <time>2024-04-07T07:54:26Z</time>
      </trkpt>
      <trkpt lat="44.11311" lon="1.83532">
        <ele>316</ele>
        <time>2024-04-07T07:54:27Z</time>
      </trkpt>
      <trkpt lat="44.1131" lon="1.83527">
        <ele>316.2</ele>
        <time>2024-04-07T07:54:28Z</time>
      </trkpt>
      <trkpt lat="44.11309" lon="1.83524">
        <ele>316.4</ele>
        <time>2024-04-07T07:54:29Z</time>
      </trkpt>
      <trkpt lat="44.11306" lon="1.8352">
        <ele>316.6</ele>
        <time>2024-04-07T07:54:30Z</time>
      </trkpt>
      <trkpt lat="44.11305" lon="1.83517">
        <ele>317</ele>
        <time>2024-04-07T07:54:31Z</time>
      </trkpt>
      <trkpt lat="44.11303" lon="1.83514">
        <ele>317.2</ele>
        <time>2024-04-07T07:54:32Z</time>
      </trkpt>
      <trkpt lat="44.11301" lon="1.83511">
        <ele>317.6</ele>
        <time>2024-04-07T07:54:33Z</time>
      </trkpt>
      <trkpt lat="44.11298" lon="1.83509">
        <ele>317.8</ele>
        <time>2024-04-07T07:54:34Z</time>
      </trkpt>
      <trkpt lat="44.11295" lon="1.83509">
        <ele>318.6</ele>
        <time>2024-04-07T07:54:35Z</time>
      </trkpt>
      <trkpt lat="44.11291" lon="1.83509">
        <ele>318.8</ele>
        <time>2024-04-07T07:54:36Z</time>
      </trkpt>
      <trkpt lat="44.11287" lon="1.83508">
        <ele>319.4</ele>
        <time>2024-04-07T07:54:37Z</time>
      </trkpt>
      <trkpt lat="44.11283" lon="1.8351">
        <ele>319.8</ele>
        <time>2024-04-07T07:54:38Z</time>
      </trkpt>
      <trkpt lat="44.1128" lon="1.83511">
        <ele>320.4</ele>
        <time>2024-04-07T07:54:39Z</time>
      </trkpt>
      <trkpt lat="44.11278" lon="1.83512">
        <ele>320.8</ele>
        <time>2024-04-07T07:54:40Z</time>
      </trkpt>
      <trkpt lat="44.11275" lon="1.83513">
        <ele>321</ele>
        <time>2024-04-07T07:54:41Z</time>
      </trkpt>
      <trkpt lat="44.11272" lon="1.83515">
        <ele>321.4</ele>
        <time>2024-04-07T07:54:42Z</time>
      </trkpt>
      <trkpt lat="44.11269" lon="1.83518">
        <ele>321.4</ele>
        <time>2024-04-07T07:54:43Z</time>
      </trkpt>
      <trkpt lat="44.11266" lon="1.8352">
        <ele>322</ele>
        <time>2024-04-07T07:54:44Z</time>
      </trkpt>
      <trkpt lat="44.11263" lon="1.83522">
        <ele>322.2</ele>
        <time>2024-04-07T07:54:45Z</time>
      </trkpt>
      <trkpt lat="44.1126" lon="1.83524">
        <ele>322.8</ele>
        <time>2024-04-07T07:54:46Z</time>
      </trkpt>
      <trkpt lat="44.11257" lon="1.83526">
        <ele>323</ele>
        <time>2024-04-07T07:54:47Z</time>
      </trkpt>
      <trkpt lat="44.11255" lon="1.83528">
        <ele>323.6</ele>
        <time>2024-04-07T07:54:48Z</time>
      </trkpt>
      <trkpt lat="44.11251" lon="1.83531">
        <ele>324</ele>
        <time>2024-04-07T07:54:49Z</time>
      </trkpt>
      <trkpt lat="44.11249" lon="1.83534">
        <ele>324.2</ele>
        <time>2024-04-07T07:54:50Z</time>
      </trkpt>
      <trkpt lat="44.11246" lon="1.83537">
        <ele>324.6</ele>
        <time>2024-04-07T07:54:51Z</time>
      </trkpt>
      <trkpt lat="44.11243" lon="1.83541">
        <ele>324.8</ele>
        <time>2024-04-07T07:54:52Z</time>
      </trkpt>
      <trkpt lat="44.11241" lon="1.83545">
        <ele>325</ele>
        <time>2024-04-07T07:54:53Z</time>
      </trkpt>
      <trkpt lat="44.11239" lon="1.83549">
        <ele>325.4</ele>
        <time>2024-04-07T07:54:54Z</time>
      </trkpt>
      <trkpt lat="44.11238" lon="1.83553">
        <ele>326</ele>
        <time>2024-04-07T07:54:55Z</time>
      </trkpt>
      <trkpt lat="44.11236" lon="1.83559">
        <ele>326.4</ele>
        <time>2024-04-07T07:54:56Z</time>
      </trkpt>
      <trkpt lat="44.11235" lon="1.83564">
        <ele>326.8</ele>
        <time>2024-04-07T07:54:57Z</time>
      </trkpt>
      <trkpt lat="44.11233" lon="1.83569">
        <ele>327</ele>
        <time>2024-04-07T07:54:58Z</time>
      </trkpt>
      <trkpt lat="44.1123" lon="1.83574">
        <ele>327.2</ele>
        <time>2024-04-07T07:54:59Z</time>
      </trkpt>
      <trkpt lat="44.11228" lon="1.83577">
        <ele>327.6</ele>
        <time>2024-04-07T07:55:00Z</time>
      </trkpt>
      <trkpt lat="44.11226" lon="1.83581">
        <ele>327.6</ele>
        <time>2024-04-07T07:55:01Z</time>
      </trkpt>
      <trkpt lat="44.11223" lon="1.83586">
        <ele>327.8</ele>
        <time>2024-04-07T07:55:02Z</time>
      </trkpt>
      <trkpt lat="44.11221" lon="1.83589">
        <ele>328</ele>
        <time>2024-04-07T07:55:03Z</time>
      </trkpt>
      <trkpt lat="44.11219" lon="1.83594">
        <ele>328</ele>
        <time>2024-04-07T07:55:04Z</time>
      </trkpt>
      <trkpt lat="44.11218" lon="1.83598">
        <ele>328.4</ele>
        <time>2024-04-07T07:55:05Z</time>
      </trkpt>
      <trkpt lat="44.11217" lon="1.83602">
        <ele>328.8</ele>
        <time>2024-04-07T07:55:06Z</time>
      </trkpt>
      <trkpt lat="44.11216" lon="1.83607">
        <ele>329.4</ele>
        <time>2024-04-07T07:55:07Z</time>
      </trkpt>
      <trkpt lat="44.11214" lon="1.83612">
        <ele>329.6</ele>
        <time>2024-04-07T07:55:08Z</time>
      </trkpt>
      <trkpt lat="44.11213" lon="1.83617">
        <ele>330</ele>
        <time>2024-04-07T07:55:09Z</time>
      </trkpt>
      <trkpt lat="44.11212" lon="1.83622">
        <ele>330</ele>
        <time>2024-04-07T07:55:10Z</time>
      </trkpt>
      <trkpt lat="44.11211" lon="1.83626">
        <ele>330.4</ele>
        <time>2024-04-07T07:55:11Z</time>
      </trkpt>
      <trkpt lat="44.11209" lon="1.83631">
        <ele>330.8</ele>
        <time>2024-04-07T07:55:12Z</time>
      </trkpt>
      <trkpt lat="44.11209" lon="1.83636">
        <ele>331.2</ele>
        <time>2024-04-07T07:55:13Z</time>
      </trkpt>
      <trkpt lat="44.11207" lon="1.83642">
        <ele>331.4</ele>
        <time>2024-04-07T07:55:14Z</time>
      </trkpt>
      <trkpt lat="44.11207" lon="1.83645">
        <ele>331.6</ele>
        <time>2024-04-07T07:55:15Z</time>
      </trkpt>
      <trkpt lat="44.11206" lon="1.8365">
        <ele>331.8</ele>
        <time>2024-04-07T07:55:16Z</time>
      </trkpt>
      <trkpt lat="44.11206" lon="1.83655">
        <ele>331.8</ele>
        <time>2024-04-07T07:55:17Z</time>
      </trkpt>
      <trkpt lat="44.11204" lon="1.8366">
        <ele>332.2</ele>
        <time>2024-04-07T07:55:18Z</time>
      </trkpt>
      <trkpt lat="44.11203" lon="1.83665">
        <ele>332.2</ele>
        <time>2024-04-07T07:55:19Z</time>
      </trkpt>
      <trkpt lat="44.11202" lon="1.8367">
        <ele>332.4</ele>
        <time>2024-04-07T07:55:20Z</time>
      </trkpt>
      <trkpt lat="44.11201" lon="1.83674">
        <ele>332.6</ele>
        <time>2024-04-07T07:55:21Z</time>
      </trkpt>
      <trkpt lat="44.112" lon="1.8368">
        <ele>332.8</ele>
        <time>2024-04-07T07:55:22Z</time>
      </trkpt>
      <trkpt lat="44.11198" lon="1.83684">
        <ele>332.8</ele>
        <time>2024-04-07T07:55:23Z</time>
      </trkpt>
      <trkpt lat="44.11196" lon="1.8369">
        <ele>333</ele>
        <time>2024-04-07T07:55:24Z</time>
      </trkpt>
      <trkpt lat="44.11195" lon="1.83694">
        <ele>333.2</ele>
        <time>2024-04-07T07:55:25Z</time>
      </trkpt>
      <trkpt lat="44.11193" lon="1.83699">
        <ele>333.4</ele>
        <time>2024-04-07T07:55:26Z</time>
      </trkpt>
      <trkpt lat="44.1119" lon="1.83704">
        <ele>333.6</ele>
        <time>2024-04-07T07:55:27Z</time>
      </trkpt>
      <trkpt lat="44.11189" lon="1.83706">
        <ele>333.8</ele>
        <time>2024-04-07T07:55:28Z</time>
      </trkpt>
      <trkpt lat="44.11186" lon="1.83709">
        <ele>334</ele>
        <time>2024-04-07T07:55:29Z</time>
      </trkpt>
      <trkpt lat="44.11183" lon="1.83711">
        <ele>334.4</ele>
        <time>2024-04-07T07:55:30Z</time>
      </trkpt>
      <trkpt lat="44.11178" lon="1.83711">
        <ele>335.2</ele>
        <time>2024-04-07T07:55:31Z</time>
      </trkpt>
      <trkpt lat="44.11175" lon="1.83708">
        <ele>335.6</ele>
        <time>2024-04-07T07:55:32Z</time>
      </trkpt>
      <trkpt lat="44.11173" lon="1.83704">
        <ele>335.8</ele>
        <time>2024-04-07T07:55:33Z</time>
      </trkpt>
      <trkpt lat="44.11172" lon="1.837">
        <ele>336.4</ele>
        <time>2024-04-07T07:55:34Z</time>
      </trkpt>
      <trkpt lat="44.11172" lon="1.83697">
        <ele>336.6</ele>
        <time>2024-04-07T07:55:35Z</time>
      </trkpt>
      <trkpt lat="44.11172" lon="1.83694">
        <ele>337</ele>
        <time>2024-04-07T07:55:36Z</time>
      </trkpt>
      <trkpt lat="44.11172" lon="1.8369">
        <ele>337</ele>
        <time>2024-04-07T07:55:37Z</time>
      </trkpt>
      <trkpt lat="44.11172" lon="1.83687">
        <ele>337.6</ele>
        <time>2024-04-07T07:55:38Z</time>
      </trkpt>
      <trkpt lat="44.11172" lon="1.83684">
        <ele>338.2</ele>
        <time>2024-04-07T07:55:39Z</time>
      </trkpt>
      <trkpt lat="44.11173" lon="1.83681">
        <ele>338.6</ele>
        <time>2024-04-07T07:55:40Z</time>
      </trkpt>
      <trkpt lat="44.11173" lon="1.83678">
        <ele>339.2</ele>
        <time>2024-04-07T07:55:41Z</time>
      </trkpt>
      <trkpt lat="44.11173" lon="1.83674">
        <ele>339.6</ele>
        <time>2024-04-07T07:55:42Z</time>
      </trkpt>
      <trkpt lat="44.11173" lon="1.83672">
        <ele>340.4</ele>
        <time>2024-04-07T07:55:43Z</time>
      </trkpt>
      <trkpt lat="44.11173" lon="1.83668">
        <ele>340.6</ele>
        <time>2024-04-07T07:55:44Z</time>
      </trkpt>
      <trkpt lat="44.11174" lon="1.83665">
        <ele>341</ele>
        <time>2024-04-07T07:55:45Z</time>
      </trkpt>
      <trkpt lat="44.11174" lon="1.83661">
        <ele>341.2</ele>
        <time>2024-04-07T07:55:46Z</time>
      </trkpt>
      <trkpt lat="44.11175" lon="1.83658">
        <ele>341.8</ele>
        <time>2024-04-07T07:55:47Z</time>
      </trkpt>
      <trkpt lat="44.11175" lon="1.83654">
        <ele>342</ele>
        <time>2024-04-07T07:55:48Z</time>
      </trkpt>
      <trkpt lat="44.11175" lon="1.8365">
        <ele>342.8</ele>
        <time>2024-04-07T07:55:49Z</time>
      </trkpt>
      <trkpt lat="44.11175" lon="1.83645">
        <ele>343.4</ele>
        <time>2024-04-07T07:55:50Z</time>
      </trkpt>
      <trkpt lat="44.11175" lon="1.83641">
        <ele>343.8</ele>
        <time>2024-04-07T07:55:51Z</time>
      </trkpt>
      <trkpt lat="44.11174" lon="1.83636">
        <ele>344.4</ele>
        <time>2024-04-07T07:55:52Z</time>
      </trkpt>
      <trkpt lat="44.11173" lon="1.83631">
        <ele>344.8</ele>
        <time>2024-04-07T07:55:53Z</time>
      </trkpt>
      <trkpt lat="44.11171" lon="1.83627">
        <ele>345.6</ele>
        <time>2024-04-07T07:55:54Z</time>
      </trkpt>
      <trkpt lat="44.11169" lon="1.83622">
        <ele>345.8</ele>
        <time>2024-04-07T07:55:55Z</time>
      </trkpt>
      <trkpt lat="44.11166" lon="1.83617">
        <ele>346.2</ele>
        <time>2024-04-07T07:55:56Z</time>
      </trkpt>
      <trkpt lat="44.11163" lon="1.83613">
        <ele>346.4</ele>
        <time>2024-04-07T07:55:57Z</time>
      </trkpt>
      <trkpt lat="44.1116" lon="1.8361">
        <ele>346.8</ele>
        <time>2024-04-07T07:55:58Z</time>
      </trkpt>
      <trkpt lat="44.11157" lon="1.83607">
        <ele>347.6</ele>
        <time>2024-04-07T07:55:59Z</time>
      </trkpt>
      <trkpt lat="44.11154" lon="1.83605">
        <ele>348</ele>
        <time>2024-04-07T07:56:00Z</time>
      </trkpt>
      <trkpt lat="44.1115" lon="1.83602">
        <ele>348.6</ele>
        <time>2024-04-07T07:56:01Z</time>
      </trkpt>
      <trkpt lat="44.11148" lon="1.83598">
        <ele>348.8</ele>
        <time>2024-04-07T07:56:02Z</time>
      </trkpt>
      <trkpt lat="44.11146" lon="1.83595">
        <ele>349.2</ele>
        <time>2024-04-07T07:56:03Z</time>
      </trkpt>
      <trkpt lat="44.11144" lon="1.83592">
        <ele>349.4</ele>
        <time>2024-04-07T07:56:04Z</time>
      </trkpt>
      <trkpt lat="44.11141" lon="1.83589">
        <ele>349.8</ele>
        <time>2024-04-07T07:56:05Z</time>
      </trkpt>
      <trkpt lat="44.11139" lon="1.83584">
        <ele>350.6</ele>
        <time>2024-04-07T07:56:06Z</time>
      </trkpt>
      <trkpt lat="44.11136" lon="1.83581">
        <ele>351</ele>
        <time>2024-04-07T07:56:07Z</time>
      </trkpt>
      <trkpt lat="44.11135" lon="1.83578">
        <ele>351.6</ele>
        <time>2024-04-07T07:56:08Z</time>
      </trkpt>
      <trkpt lat="44.11133" lon="1.83575">
        <ele>351.8</ele>
        <time>2024-04-07T07:56:09Z</time>
      </trkpt>
      <trkpt lat="44.1113" lon="1.83572">
        <ele>352.4</ele>
        <time>2024-04-07T07:56:10Z</time>
      </trkpt>
      <trkpt lat="44.11126" lon="1.83569">
        <ele>352.6</ele>
        <time>2024-04-07T07:56:11Z</time>
      </trkpt>
      <trkpt lat="44.11124" lon="1.83566">
        <ele>353.2</ele>
        <time>2024-04-07T07:56:12Z</time>
      </trkpt>
      <trkpt lat="44.11121" lon="1.83563">
        <ele>353.4</ele>
        <time>2024-04-07T07:56:13Z</time>
      </trkpt>
      <trkpt lat="44.11119" lon="1.8356">
        <ele>353.8</ele>
        <time>2024-04-07T07:56:14Z</time>
      </trkpt>
      <trkpt lat="44.11117" lon="1.83557">
        <ele>354.2</ele>
        <time>2024-04-07T07:56:15Z</time>
      </trkpt>
      <trkpt lat="44.11113" lon="1.83553">
        <ele>354.4</ele>
        <time>2024-04-07T07:56:16Z</time>
      </trkpt>
      <trkpt lat="44.11111" lon="1.8355">
        <ele>354.8</ele>
        <time>2024-04-07T07:56:17Z</time>
      </trkpt>
      <trkpt lat="44.11109" lon="1.83546">
        <ele>354.8</ele>
        <time>2024-04-07T07:56:18Z</time>
      </trkpt>
      <trkpt lat="44.11108" lon="1.83543">
        <ele>355</ele>
        <time>2024-04-07T07:56:19Z</time>
      </trkpt>
      <trkpt lat="44.11106" lon="1.83539">
        <ele>355.2</ele>
        <time>2024-04-07T07:56:20Z</time>
      </trkpt>
      <trkpt lat="44.11104" lon="1.83536">
        <ele>355.4</ele>
        <time>2024-04-07T07:56:21Z</time>
      </trkpt>
      <trkpt lat="44.11102" lon="1.83532">
        <ele>355.6</ele>
        <time>2024-04-07T07:56:22Z</time>
      </trkpt>
      <trkpt lat="44.111" lon="1.83528">
        <ele>355.8</ele>
        <time>2024-04-07T07:56:23Z</time>
      </trkpt>
      <trkpt lat="44.11099" lon="1.83525">
        <ele>356.4</ele>
        <time>2024-04-07T07:56:24Z</time>
      </trkpt>
      <trkpt lat="44.11097" lon="1.83522">
        <ele>356.8</ele>
        <time>2024-04-07T07:56:25Z</time>
      </trkpt>
      <trkpt lat="44.11096" lon="1.83518">
        <ele>357.4</ele>
        <time>2024-04-07T07:56:26Z</time>
      </trkpt>
      <trkpt lat="44.11094" lon="1.83514">
        <ele>357.6</ele>
        <time>2024-04-07T07:56:27Z</time>
      </trkpt>
      <trkpt lat="44.11092" lon="1.8351">
        <ele>358.2</ele>
        <time>2024-04-07T07:56:28Z</time>
      </trkpt>
      <trkpt lat="44.11091" lon="1.83506">
        <ele>358.4</ele>
        <time>2024-04-07T07:56:29Z</time>
      </trkpt>
      <trkpt lat="44.1109" lon="1.83502">
        <ele>359</ele>
        <time>2024-04-07T07:56:30Z</time>
      </trkpt>
      <trkpt lat="44.11089" lon="1.83497">
        <ele>359.2</ele>
        <time>2024-04-07T07:56:31Z</time>
      </trkpt>
      <trkpt lat="44.11088" lon="1.83492">
        <ele>359.8</ele>
        <time>2024-04-07T07:56:32Z</time>
      </trkpt>
      <trkpt lat="44.11087" lon="1.83488">
        <ele>360</ele>
        <time>2024-04-07T07:56:33Z</time>
      </trkpt>
      <trkpt lat="44.11086" lon="1.83483">
        <ele>360.4</ele>
        <time>2024-04-07T07:56:34Z</time>
      </trkpt>
      <trkpt lat="44.11086" lon="1.83479">
        <ele>360.8</ele>
        <time>2024-04-07T07:56:35Z</time>
      </trkpt>
      <trkpt lat="44.11085" lon="1.83474">
        <ele>361</ele>
        <time>2024-04-07T07:56:36Z</time>
      </trkpt>
      <trkpt lat="44.11085" lon="1.83469">
        <ele>361.4</ele>
        <time>2024-04-07T07:56:37Z</time>
      </trkpt>
      <trkpt lat="44.11085" lon="1.83464">
        <ele>361.6</ele>
        <time>2024-04-07T07:56:38Z</time>
      </trkpt>
      <trkpt lat="44.11086" lon="1.8346">
        <ele>362</ele>
        <time>2024-04-07T07:56:39Z</time>
      </trkpt>
      <trkpt lat="44.11086" lon="1.83456">
        <ele>362</ele>
        <time>2024-04-07T07:56:40Z</time>
      </trkpt>
      <trkpt lat="44.11087" lon="1.83451">
        <ele>362.4</ele>
        <time>2024-04-07T07:56:41Z</time>
      </trkpt>
      <trkpt lat="44.11088" lon="1.83447">
        <ele>362.4</ele>
        <time>2024-04-07T07:56:42Z</time>
      </trkpt>
      <trkpt lat="44.11089" lon="1.83443">
        <ele>362.6</ele>
        <time>2024-04-07T07:56:43Z</time>
      </trkpt>
      <trkpt lat="44.1109" lon="1.83439">
        <ele>363</ele>
        <time>2024-04-07T07:56:44Z</time>
      </trkpt>
      <trkpt lat="44.11092" lon="1.83435">
        <ele>363.2</ele>
        <time>2024-04-07T07:56:45Z</time>
      </trkpt>
      <trkpt lat="44.11094" lon="1.83429">
        <ele>364</ele>
        <time>2024-04-07T07:56:46Z</time>
      </trkpt>
      <trkpt lat="44.11096" lon="1.83423">
        <ele>364.2</ele>
        <time>2024-04-07T07:56:47Z</time>
      </trkpt>
      <trkpt lat="44.11097" lon="1.83418">
        <ele>364.6</ele>
        <time>2024-04-07T07:56:48Z</time>
      </trkpt>
      <trkpt lat="44.11098" lon="1.83413">
        <ele>364.8</ele>
        <time>2024-04-07T07:56:49Z</time>
      </trkpt>
      <trkpt lat="44.111" lon="1.83407">
        <ele>365.2</ele>
        <time>2024-04-07T07:56:50Z</time>
      </trkpt>
      <trkpt lat="44.11102" lon="1.83403">
        <ele>365.4</ele>
        <time>2024-04-07T07:56:51Z</time>
      </trkpt>
      <trkpt lat="44.11104" lon="1.83397">
        <ele>365.6</ele>
        <time>2024-04-07T07:56:52Z</time>
      </trkpt>
      <trkpt lat="44.11105" lon="1.83393">
        <ele>365.8</ele>
        <time>2024-04-07T07:56:53Z</time>
      </trkpt>
      <trkpt lat="44.11106" lon="1.83389">
        <ele>365.8</ele>
        <time>2024-04-07T07:56:54Z</time>
      </trkpt>
      <trkpt lat="44.11108" lon="1.83384">
        <ele>366</ele>
        <time>2024-04-07T07:56:55Z</time>
      </trkpt>
      <trkpt lat="44.11109" lon="1.83381">
        <ele>366</ele>
        <time>2024-04-07T07:56:56Z</time>
      </trkpt>
      <trkpt lat="44.1111" lon="1.83376">
        <ele>366</ele>
        <time>2024-04-07T07:56:57Z</time>
      </trkpt>
      <trkpt lat="44.11112" lon="1.83371">
        <ele>366</ele>
        <time>2024-04-07T07:56:58Z</time>
      </trkpt>
      <trkpt lat="44.11113" lon="1.83366">
        <ele>366.2</ele>
        <time>2024-04-07T07:56:59Z</time>
      </trkpt>
      <trkpt lat="44.11114" lon="1.8336">
        <ele>366.2</ele>
        <time>2024-04-07T07:57:00Z</time>
      </trkpt>
      <trkpt lat="44.11114" lon="1.83355">
        <ele>366.2</ele>
        <time>2024-04-07T07:57:01Z</time>
      </trkpt>
      <trkpt lat="44.11115" lon="1.83349">
        <ele>366.4</ele>
        <time>2024-04-07T07:57:02Z</time>
      </trkpt>
      <trkpt lat="44.11116" lon="1.83343">
        <ele>366.6</ele>
        <time>2024-04-07T07:57:03Z</time>
      </trkpt>
      <trkpt lat="44.11116" lon="1.83337">
        <ele>366.8</ele>
        <time>2024-04-07T07:57:04Z</time>
      </trkpt>
      <trkpt lat="44.11115" lon="1.83332">
        <ele>366.8</ele>
        <time>2024-04-07T07:57:05Z</time>
      </trkpt>
      <trkpt lat="44.11113" lon="1.83326">
        <ele>367</ele>
        <time>2024-04-07T07:57:06Z</time>
      </trkpt>
      <trkpt lat="44.11112" lon="1.83321">
        <ele>367</ele>
        <time>2024-04-07T07:57:07Z</time>
      </trkpt>
      <trkpt lat="44.1111" lon="1.83316">
        <ele>367.2</ele>
        <time>2024-04-07T07:57:08Z</time>
      </trkpt>
      <trkpt lat="44.11108" lon="1.83311">
        <ele>367.4</ele>
        <time>2024-04-07T07:57:09Z</time>
      </trkpt>
      <trkpt lat="44.11106" lon="1.83305">
        <ele>367.4</ele>
        <time>2024-04-07T07:57:10Z</time>
      </trkpt>
      <trkpt lat="44.11104" lon="1.83301">
        <ele>367.6</ele>
        <time>2024-04-07T07:57:11Z</time>
      </trkpt>
      <trkpt lat="44.11101" lon="1.83296">
        <ele>367.6</ele>
        <time>2024-04-07T07:57:12Z</time>
      </trkpt>
      <trkpt lat="44.11097" lon="1.83291">
        <ele>367.6</ele>
        <time>2024-04-07T07:57:13Z</time>
      </trkpt>
      <trkpt lat="44.11095" lon="1.83289">
        <ele>367.6</ele>
        <time>2024-04-07T07:57:14Z</time>
      </trkpt>
      <trkpt lat="44.11092" lon="1.83285">
        <ele>367.8</ele>
        <time>2024-04-07T07:57:15Z</time>
      </trkpt>
      <trkpt lat="44.1109" lon="1.83282">
        <ele>368</ele>
        <time>2024-04-07T07:57:16Z</time>
      </trkpt>
      <trkpt lat="44.11088" lon="1.83279">
        <ele>368</ele>
        <time>2024-04-07T07:57:17Z</time>
      </trkpt>
      <trkpt lat="44.11086" lon="1.83276">
        <ele>368.2</ele>
        <time>2024-04-07T07:57:18Z</time>
      </trkpt>
      <trkpt lat="44.11084" lon="1.83272">
        <ele>368.2</ele>
        <time>2024-04-07T07:57:19Z</time>
      </trkpt>
      <trkpt lat="44.11081" lon="1.83266">
        <ele>368.4</ele>
        <time>2024-04-07T07:57:20Z</time>
      </trkpt>
      <trkpt lat="44.11079" lon="1.83262">
        <ele>368.4</ele>
        <time>2024-04-07T07:57:21Z</time>
      </trkpt>
      <trkpt lat="44.11077" lon="1.83258">
        <ele>368.6</ele>
        <time>2024-04-07T07:57:22Z</time>
      </trkpt>
      <trkpt lat="44.11075" lon="1.83255">
        <ele>368.8</ele>
        <time>2024-04-07T07:57:23Z</time>
      </trkpt>
      <trkpt lat="44.11072" lon="1.83252">
        <ele>368.8</ele>
        <time>2024-04-07T07:57:24Z</time>
      </trkpt>
      <trkpt lat="44.11068" lon="1.83248">
        <ele>369</ele>
        <time>2024-04-07T07:57:25Z</time>
      </trkpt>
      <trkpt lat="44.11064" lon="1.83244">
        <ele>369.2</ele>
        <time>2024-04-07T07:57:26Z</time>
      </trkpt>
      <trkpt lat="44.1106" lon="1.8324">
        <ele>369.2</ele>
        <time>2024-04-07T07:57:27Z</time>
      </trkpt>
      <trkpt lat="44.11057" lon="1.83237">
        <ele>369.4</ele>
        <time>2024-04-07T07:57:28Z</time>
      </trkpt>
      <trkpt lat="44.11054" lon="1.83233">
        <ele>369.6</ele>
        <time>2024-04-07T07:57:29Z</time>
      </trkpt>
      <trkpt lat="44.1105" lon="1.83228">
        <ele>369.6</ele>
        <time>2024-04-07T07:57:30Z</time>
      </trkpt>
      <trkpt lat="44.11046" lon="1.83224">
        <ele>369.8</ele>
        <time>2024-04-07T07:57:31Z</time>
      </trkpt>
      <trkpt lat="44.11043" lon="1.83219">
        <ele>369.8</ele>
        <time>2024-04-07T07:57:32Z</time>
      </trkpt>
      <trkpt lat="44.1104" lon="1.83216">
        <ele>370</ele>
        <time>2024-04-07T07:57:33Z</time>
      </trkpt>
      <trkpt lat="44.11036" lon="1.83211">
        <ele>370</ele>
        <time>2024-04-07T07:57:34Z</time>
      </trkpt>
      <trkpt lat="44.11032" lon="1.83206">
        <ele>370.2</ele>
        <time>2024-04-07T07:57:35Z</time>
      </trkpt>
      <trkpt lat="44.11029" lon="1.83202">
        <ele>370.2</ele>
        <time>2024-04-07T07:57:36Z</time>
      </trkpt>
      <trkpt lat="44.11026" lon="1.83197">
        <ele>370.4</ele>
        <time>2024-04-07T07:57:37Z</time>
      </trkpt>
      <trkpt lat="44.11023" lon="1.83192">
        <ele>370.6</ele>
        <time>2024-04-07T07:57:38Z</time>
      </trkpt>
      <trkpt lat="44.1102" lon="1.83188">
        <ele>370.6</ele>
        <time>2024-04-07T07:57:39Z</time>
      </trkpt>
      <trkpt lat="44.11017" lon="1.83182">
        <ele>370.8</ele>
        <time>2024-04-07T07:57:40Z</time>
      </trkpt>
      <trkpt lat="44.11014" lon="1.83176">
        <ele>371</ele>
        <time>2024-04-07T07:57:41Z</time>
      </trkpt>
      <trkpt lat="44.11011" lon="1.83172">
        <ele>371.2</ele>
        <time>2024-04-07T07:57:42Z</time>
      </trkpt>
      <trkpt lat="44.11009" lon="1.83168">
        <ele>371.2</ele>
        <time>2024-04-07T07:57:43Z</time>
      </trkpt>
      <trkpt lat="44.11006" lon="1.83164">
        <ele>371.4</ele>
        <time>2024-04-07T07:57:44Z</time>
      </trkpt>
      <trkpt lat="44.11003" lon="1.83159">
        <ele>371.4</ele>
        <time>2024-04-07T07:57:45Z</time>
      </trkpt>
      <trkpt lat="44.11001" lon="1.83156">
        <ele>371.6</ele>
        <time>2024-04-07T07:57:46Z</time>
      </trkpt>
      <trkpt lat="44.10998" lon="1.83151">
        <ele>372</ele>
        <time>2024-04-07T07:57:47Z</time>
      </trkpt>
      <trkpt lat="44.10996" lon="1.83149">
        <ele>372</ele>
        <time>2024-04-07T07:57:48Z</time>
      </trkpt>
      <trkpt lat="44.10993" lon="1.83145">
        <ele>372.2</ele>
        <time>2024-04-07T07:57:49Z</time>
      </trkpt>
      <trkpt lat="44.1099" lon="1.83142">
        <ele>372.2</ele>
        <time>2024-04-07T07:57:50Z</time>
      </trkpt>
      <trkpt lat="44.10987" lon="1.8314">
        <ele>372.6</ele>
        <time>2024-04-07T07:57:51Z</time>
      </trkpt>
      <trkpt lat="44.10984" lon="1.83139">
        <ele>372.8</ele>
        <time>2024-04-07T07:57:52Z</time>
      </trkpt>
      <trkpt lat="44.10981" lon="1.83138">
        <ele>372.8</ele>
        <time>2024-04-07T07:57:53Z</time>
      </trkpt>
      <trkpt lat="44.10977" lon="1.83138">
        <ele>373</ele>
        <time>2024-04-07T07:57:54Z</time>
      </trkpt>
      <trkpt lat="44.10974" lon="1.83138">
        <ele>373.2</ele>
        <time>2024-04-07T07:57:55Z</time>
      </trkpt>
      <trkpt lat="44.1097" lon="1.83138">
        <ele>373.4</ele>
        <time>2024-04-07T07:57:56Z</time>
      </trkpt>
      <trkpt lat="44.10965" lon="1.83137">
        <ele>373.6</ele>
        <time>2024-04-07T07:57:57Z</time>
      </trkpt>
      <trkpt lat="44.10963" lon="1.83137">
        <ele>373.6</ele>
        <time>2024-04-07T07:57:58Z</time>
      </trkpt>
      <trkpt lat="44.10959" lon="1.83137">
        <ele>373.8</ele>
        <time>2024-04-07T07:57:59Z</time>
      </trkpt>
      <trkpt lat="44.10955" lon="1.83137">
        <ele>373.8</ele>
        <time>2024-04-07T07:58:00Z</time>
      </trkpt>
      <trkpt lat="44.10951" lon="1.83137">
        <ele>374</ele>
        <time>2024-04-07T07:58:01Z</time>
      </trkpt>
      <trkpt lat="44.10947" lon="1.83137">
        <ele>374.2</ele>
        <time>2024-04-07T07:58:02Z</time>
      </trkpt>
      <trkpt lat="44.10943" lon="1.83138">
        <ele>374.4</ele>
        <time>2024-04-07T07:58:03Z</time>
      </trkpt>
      <trkpt lat="44.1094" lon="1.83139">
        <ele>374.6</ele>
        <time>2024-04-07T07:58:04Z</time>
      </trkpt>
      <trkpt lat="44.10936" lon="1.83139">
        <ele>374.8</ele>
        <time>2024-04-07T07:58:05Z</time>
      </trkpt>
      <trkpt lat="44.10932" lon="1.83139">
        <ele>374.8</ele>
        <time>2024-04-07T07:58:06Z</time>
      </trkpt>
      <trkpt lat="44.10928" lon="1.8314">
        <ele>375</ele>
        <time>2024-04-07T07:58:07Z</time>
      </trkpt>
      <trkpt lat="44.10925" lon="1.83141">
        <ele>375</ele>
        <time>2024-04-07T07:58:08Z</time>
      </trkpt>
      <trkpt lat="44.10921" lon="1.83142">
        <ele>375.2</ele>
        <time>2024-04-07T07:58:09Z</time>
      </trkpt>
      <trkpt lat="44.10916" lon="1.83143">
        <ele>375.2</ele>
        <time>2024-04-07T07:58:10Z</time>
      </trkpt>
      <trkpt lat="44.10912" lon="1.83144">
        <ele>375.4</ele>
        <time>2024-04-07T07:58:11Z</time>
      </trkpt>
      <trkpt lat="44.10907" lon="1.83145">
        <ele>375.4</ele>
        <time>2024-04-07T07:58:12Z</time>
      </trkpt>
      <trkpt lat="44.10903" lon="1.83146">
        <ele>375.6</ele>
        <time>2024-04-07T07:58:13Z</time>
      </trkpt>
      <trkpt lat="44.10899" lon="1.83147">
        <ele>375.6</ele>
        <time>2024-04-07T07:58:14Z</time>
      </trkpt>
      <trkpt lat="44.10895" lon="1.83147">
        <ele>375.8</ele>
        <time>2024-04-07T07:58:15Z</time>
      </trkpt>
      <trkpt lat="44.10889" lon="1.83149">
        <ele>376</ele>
        <time>2024-04-07T07:58:16Z</time>
      </trkpt>
      <trkpt lat="44.10885" lon="1.8315">
        <ele>376</ele>
        <time>2024-04-07T07:58:17Z</time>
      </trkpt>
      <trkpt lat="44.10882" lon="1.8315">
        <ele>376.4</ele>
        <time>2024-04-07T07:58:18Z</time>
      </trkpt>
      <trkpt lat="44.10878" lon="1.83151">
        <ele>376.6</ele>
        <time>2024-04-07T07:58:19Z</time>
      </trkpt>
      <trkpt lat="44.10874" lon="1.83153">
        <ele>376.6</ele>
        <time>2024-04-07T07:58:20Z</time>
      </trkpt>
      <trkpt lat="44.1087" lon="1.83155">
        <ele>376.8</ele>
        <time>2024-04-07T07:58:21Z</time>
      </trkpt>
      <trkpt lat="44.10867" lon="1.83155">
        <ele>376.8</ele>
        <time>2024-04-07T07:58:22Z</time>
      </trkpt>
      <trkpt lat="44.10864" lon="1.83156">
        <ele>377</ele>
        <time>2024-04-07T07:58:23Z</time>
      </trkpt>
      <trkpt lat="44.10861" lon="1.83157">
        <ele>377.2</ele>
        <time>2024-04-07T07:58:24Z</time>
      </trkpt>
      <trkpt lat="44.10857" lon="1.83158">
        <ele>377.2</ele>
        <time>2024-04-07T07:58:25Z</time>
      </trkpt>
      <trkpt lat="44.10853" lon="1.83159">
        <ele>377.4</ele>
        <time>2024-04-07T07:58:26Z</time>
      </trkpt>
      <trkpt lat="44.10849" lon="1.83159">
        <ele>377.4</ele>
        <time>2024-04-07T07:58:27Z</time>
      </trkpt>
      <trkpt lat="44.10846" lon="1.8316">
        <ele>377.6</ele>
        <time>2024-04-07T07:58:28Z</time>
      </trkpt>
      <trkpt lat="44.10843" lon="1.83162">
        <ele>377.8</ele>
        <time>2024-04-07T07:58:29Z</time>
      </trkpt>
      <trkpt lat="44.10839" lon="1.83163">
        <ele>378</ele>
        <time>2024-04-07T07:58:30Z</time>
      </trkpt>
      <trkpt lat="44.10836" lon="1.83165">
        <ele>378.2</ele>
        <time>2024-04-07T07:58:31Z</time>
      </trkpt>
      <trkpt lat="44.10832" lon="1.83166">
        <ele>378.4</ele>
        <time>2024-04-07T07:58:32Z</time>
      </trkpt>
      <trkpt lat="44.10829" lon="1.83167">
        <ele>378.6</ele>
        <time>2024-04-07T07:58:33Z</time>
      </trkpt>
      <trkpt lat="44.10826" lon="1.83168">
        <ele>379</ele>
        <time>2024-04-07T07:58:34Z</time>
      </trkpt>
      <trkpt lat="44.10822" lon="1.8317">
        <ele>379.4</ele>
        <time>2024-04-07T07:58:35Z</time>
      </trkpt>
      <trkpt lat="44.10819" lon="1.83171">
        <ele>379.6</ele>
        <time>2024-04-07T07:58:36Z</time>
      </trkpt>
      <trkpt lat="44.10816" lon="1.83172">
        <ele>379.8</ele>
        <time>2024-04-07T07:58:37Z</time>
      </trkpt>
      <trkpt lat="44.10814" lon="1.83173">
        <ele>380</ele>
        <time>2024-04-07T07:58:38Z</time>
      </trkpt>
      <trkpt lat="44.10811" lon="1.83174">
        <ele>380.6</ele>
        <time>2024-04-07T07:58:39Z</time>
      </trkpt>
      <trkpt lat="44.10808" lon="1.83175">
        <ele>380.8</ele>
        <time>2024-04-07T07:58:40Z</time>
      </trkpt>
      <trkpt lat="44.10805" lon="1.83176">
        <ele>381</ele>
        <time>2024-04-07T07:58:41Z</time>
      </trkpt>
      <trkpt lat="44.10803" lon="1.83177">
        <ele>381.2</ele>
        <time>2024-04-07T07:58:42Z</time>
      </trkpt>
      <trkpt lat="44.108" lon="1.83179">
        <ele>381.8</ele>
        <time>2024-04-07T07:58:43Z</time>
      </trkpt>
      <trkpt lat="44.10796" lon="1.83181">
        <ele>382.2</ele>
        <time>2024-04-07T07:58:44Z</time>
      </trkpt>
      <trkpt lat="44.10793" lon="1.83181">
        <ele>382.4</ele>
        <time>2024-04-07T07:58:45Z</time>
      </trkpt>
      <trkpt lat="44.1079" lon="1.83182">
        <ele>382.6</ele>
        <time>2024-04-07T07:58:46Z</time>
      </trkpt>
      <trkpt lat="44.10788" lon="1.83183">
        <ele>382.6</ele>
        <time>2024-04-07T07:58:47Z</time>
      </trkpt>
      <trkpt lat="44.10785" lon="1.83184">
        <ele>383.2</ele>
        <time>2024-04-07T07:58:48Z</time>
      </trkpt>
      <trkpt lat="44.10783" lon="1.83184">
        <ele>383.2</ele>
        <time>2024-04-07T07:58:49Z</time>
      </trkpt>
      <trkpt lat="44.1078" lon="1.83184">
        <ele>383.6</ele>
        <time>2024-04-07T07:58:50Z</time>
      </trkpt>
      <trkpt lat="44.10776" lon="1.83185">
        <ele>383.8</ele>
        <time>2024-04-07T07:58:51Z</time>
      </trkpt>
      <trkpt lat="44.10774" lon="1.83186">
        <ele>384.4</ele>
        <time>2024-04-07T07:58:52Z</time>
      </trkpt>
      <trkpt lat="44.10772" lon="1.83186">
        <ele>385</ele>
        <time>2024-04-07T07:58:53Z</time>
      </trkpt>
      <trkpt lat="44.10769" lon="1.83187">
        <ele>385.4</ele>
        <time>2024-04-07T07:58:54Z</time>
      </trkpt>
      <trkpt lat="44.10767" lon="1.83187">
        <ele>385.6</ele>
        <time>2024-04-07T07:58:55Z</time>
      </trkpt>
      <trkpt lat="44.10764" lon="1.83188">
        <ele>385.8</ele>
        <time>2024-04-07T07:58:56Z</time>
      </trkpt>
      <trkpt lat="44.10762" lon="1.83189">
        <ele>386.4</ele>
        <time>2024-04-07T07:58:57Z</time>
      </trkpt>
      <trkpt lat="44.10759" lon="1.8319">
        <ele>386.6</ele>
        <time>2024-04-07T07:58:58Z</time>
      </trkpt>
      <trkpt lat="44.10756" lon="1.83191">
        <ele>387</ele>
        <time>2024-04-07T07:58:59Z</time>
      </trkpt>
      <trkpt lat="44.10753" lon="1.83192">
        <ele>387.2</ele>
        <time>2024-04-07T07:59:00Z</time>
      </trkpt>
      <trkpt lat="44.10749" lon="1.83193">
        <ele>387.6</ele>
        <time>2024-04-07T07:59:01Z</time>
      </trkpt>
      <trkpt lat="44.10747" lon="1.83194">
        <ele>387.8</ele>
        <time>2024-04-07T07:59:02Z</time>
      </trkpt>
      <trkpt lat="44.10744" lon="1.83195">
        <ele>387.8</ele>
        <time>2024-04-07T07:59:03Z</time>
      </trkpt>
      <trkpt lat="44.10741" lon="1.83196">
        <ele>388</ele>
        <time>2024-04-07T07:59:04Z</time>
      </trkpt>
      <trkpt lat="44.10738" lon="1.83198">
        <ele>388.2</ele>
        <time>2024-04-07T07:59:05Z</time>
      </trkpt>
      <trkpt lat="44.10735" lon="1.83199">
        <ele>388.4</ele>
        <time>2024-04-07T07:59:06Z</time>
      </trkpt>
      <trkpt lat="44.10733" lon="1.83201">
        <ele>388.6</ele>
        <time>2024-04-07T07:59:07Z</time>
      </trkpt>
      <trkpt lat="44.1073" lon="1.83202">
        <ele>388.8</ele>
        <time>2024-04-07T07:59:08Z</time>
      </trkpt>
      <trkpt lat="44.10728" lon="1.83204">
        <ele>388.8</ele>
        <time>2024-04-07T07:59:09Z</time>
      </trkpt>
      <trkpt lat="44.10725" lon="1.83206">
        <ele>388.8</ele>
        <time>2024-04-07T07:59:10Z</time>
      </trkpt>
      <trkpt lat="44.10721" lon="1.83209">
        <ele>389</ele>
        <time>2024-04-07T07:59:11Z</time>
      </trkpt>
      <trkpt lat="44.10717" lon="1.83212">
        <ele>389</ele>
        <time>2024-04-07T07:59:12Z</time>
      </trkpt>
      <trkpt lat="44.10712" lon="1.83216">
        <ele>389</ele>
        <time>2024-04-07T07:59:13Z</time>
      </trkpt>
      <trkpt lat="44.10706" lon="1.83221">
        <ele>389</ele>
        <time>2024-04-07T07:59:14Z</time>
      </trkpt>
      <trkpt lat="44.10701" lon="1.83226">
        <ele>389</ele>
        <time>2024-04-07T07:59:15Z</time>
      </trkpt>
      <trkpt lat="44.10694" lon="1.83232">
        <ele>389</ele>
        <time>2024-04-07T07:59:16Z</time>
      </trkpt>
      <trkpt lat="44.10689" lon="1.83239">
        <ele>389</ele>
        <time>2024-04-07T07:59:17Z</time>
      </trkpt>
      <trkpt lat="44.10684" lon="1.83245">
        <ele>388.8</ele>
        <time>2024-04-07T07:59:18Z</time>
      </trkpt>
      <trkpt lat="44.10678" lon="1.83253">
        <ele>388.2</ele>
        <time>2024-04-07T07:59:19Z</time>
      </trkpt>
      <trkpt lat="44.10675" lon="1.83258">
        <ele>387.6</ele>
        <time>2024-04-07T07:59:20Z</time>
      </trkpt>
      <trkpt lat="44.10669" lon="1.83265">
        <ele>387.2</ele>
        <time>2024-04-07T07:59:21Z</time>
      </trkpt>
      <trkpt lat="44.10664" lon="1.83271">
        <ele>386.8</ele>
        <time>2024-04-07T07:59:22Z</time>
      </trkpt>
      <trkpt lat="44.10659" lon="1.83276">
        <ele>386.6</ele>
        <time>2024-04-07T07:59:23Z</time>
      </trkpt>
      <trkpt lat="44.10654" lon="1.83279">
        <ele>386.2</ele>
        <time>2024-04-07T07:59:24Z</time>
      </trkpt>
      <trkpt lat="44.10649" lon="1.83281">
        <ele>386</ele>
        <time>2024-04-07T07:59:25Z</time>
      </trkpt>
      <trkpt lat="44.10645" lon="1.8328">
        <ele>385.4</ele>
        <time>2024-04-07T07:59:26Z</time>
      </trkpt>
      <trkpt lat="44.10641" lon="1.83279">
        <ele>385</ele>
        <time>2024-04-07T07:59:27Z</time>
      </trkpt>
      <trkpt lat="44.10636" lon="1.83278">
        <ele>384.6</ele>
        <time>2024-04-07T07:59:28Z</time>
      </trkpt>
      <trkpt lat="44.10631" lon="1.83277">
        <ele>384.2</ele>
        <time>2024-04-07T07:59:29Z</time>
      </trkpt>
      <trkpt lat="44.10624" lon="1.83276">
        <ele>384</ele>
        <time>2024-04-07T07:59:30Z</time>
      </trkpt>
      <trkpt lat="44.10619" lon="1.83276">
        <ele>383.8</ele>
        <time>2024-04-07T07:59:31Z</time>
      </trkpt>
      <trkpt lat="44.10614" lon="1.83276">
        <ele>383.8</ele>
        <time>2024-04-07T07:59:32Z</time>
      </trkpt>
      <trkpt lat="44.10608" lon="1.83275">
        <ele>383.6</ele>
        <time>2024-04-07T07:59:33Z</time>
      </trkpt>
      <trkpt lat="44.10594" lon="1.83273">
        <ele>383</ele>
        <time>2024-04-07T07:59:35Z</time>
      </trkpt>
      <trkpt lat="44.1059" lon="1.83272">
        <ele>382.8</ele>
        <time>2024-04-07T07:59:36Z</time>
      </trkpt>
      <trkpt lat="44.10583" lon="1.83271">
        <ele>382.8</ele>
        <time>2024-04-07T07:59:37Z</time>
      </trkpt>
      <trkpt lat="44.10577" lon="1.83269">
        <ele>382.6</ele>
        <time>2024-04-07T07:59:38Z</time>
      </trkpt>
      <trkpt lat="44.1057" lon="1.83268">
        <ele>382.6</ele>
        <time>2024-04-07T07:59:39Z</time>
      </trkpt>
      <trkpt lat="44.10559" lon="1.83266">
        <ele>382.4</ele>
        <time>2024-04-07T07:59:41Z</time>
      </trkpt>
      <trkpt lat="44.10553" lon="1.83265">
        <ele>382.2</ele>
        <time>2024-04-07T07:59:42Z</time>
      </trkpt>
      <trkpt lat="44.10542" lon="1.83262">
        <ele>382.2</ele>
        <time>2024-04-07T07:59:44Z</time>
      </trkpt>
      <trkpt lat="44.10536" lon="1.8326">
        <ele>382.2</ele>
        <time>2024-04-07T07:59:45Z</time>
      </trkpt>
      <trkpt lat="44.10531" lon="1.83258">
        <ele>382.2</ele>
        <time>2024-04-07T07:59:46Z</time>
      </trkpt>
      <trkpt lat="44.10527" lon="1.83255">
        <ele>382.2</ele>
        <time>2024-04-07T07:59:47Z</time>
      </trkpt>
      <trkpt lat="44.10522" lon="1.83253">
        <ele>382.2</ele>
        <time>2024-04-07T07:59:48Z</time>
      </trkpt>
      <trkpt lat="44.10517" lon="1.83251">
        <ele>382.2</ele>
        <time>2024-04-07T07:59:49Z</time>
      </trkpt>
      <trkpt lat="44.10512" lon="1.83248">
        <ele>382.2</ele>
        <time>2024-04-07T07:59:50Z</time>
      </trkpt>
      <trkpt lat="44.10508" lon="1.83246">
        <ele>382.4</ele>
        <time>2024-04-07T07:59:51Z</time>
      </trkpt>
      <trkpt lat="44.10503" lon="1.83243">
        <ele>382.4</ele>
        <time>2024-04-07T07:59:52Z</time>
      </trkpt>
      <trkpt lat="44.10498" lon="1.8324">
        <ele>382.6</ele>
        <time>2024-04-07T07:59:53Z</time>
      </trkpt>
      <trkpt lat="44.10493" lon="1.83237">
        <ele>382.8</ele>
        <time>2024-04-07T07:59:54Z</time>
      </trkpt>
      <trkpt lat="44.10489" lon="1.83234">
        <ele>383</ele>
        <time>2024-04-07T07:59:55Z</time>
      </trkpt>
      <trkpt lat="44.10484" lon="1.83231">
        <ele>383.2</ele>
        <time>2024-04-07T07:59:56Z</time>
      </trkpt>
      <trkpt lat="44.1048" lon="1.83228">
        <ele>383.4</ele>
        <time>2024-04-07T07:59:57Z</time>
      </trkpt>
      <trkpt lat="44.10476" lon="1.83226">
        <ele>383.8</ele>
        <time>2024-04-07T07:59:58Z</time>
      </trkpt>
      <trkpt lat="44.10472" lon="1.83223">
        <ele>383.8</ele>
        <time>2024-04-07T07:59:59Z</time>
      </trkpt>
      <trkpt lat="44.10469" lon="1.83221">
        <ele>384.2</ele>
        <time>2024-04-07T08:00:00Z</time>
      </trkpt>
      <trkpt lat="44.10466" lon="1.83219">
        <ele>384.4</ele>
        <time>2024-04-07T08:00:01Z</time>
      </trkpt>
      <trkpt lat="44.10463" lon="1.83216">
        <ele>384.6</ele>
        <time>2024-04-07T08:00:02Z</time>
      </trkpt>
      <trkpt lat="44.1046" lon="1.83212">
        <ele>385</ele>
        <time>2024-04-07T08:00:03Z</time>
      </trkpt>
      <trkpt lat="44.10458" lon="1.83208">
        <ele>385</ele>
        <time>2024-04-07T08:00:04Z</time>
      </trkpt>
      <trkpt lat="44.10457" lon="1.83204">
        <ele>385.6</ele>
        <time>2024-04-07T08:00:05Z</time>
      </trkpt>
      <trkpt lat="44.10456" lon="1.83198">
        <ele>385.8</ele>
        <time>2024-04-07T08:00:06Z</time>
      </trkpt>
      <trkpt lat="44.10454" lon="1.83192">
        <ele>386.2</ele>
        <time>2024-04-07T08:00:07Z</time>
      </trkpt>
      <trkpt lat="44.10452" lon="1.83186">
        <ele>386.2</ele>
        <time>2024-04-07T08:00:08Z</time>
      </trkpt>
      <trkpt lat="44.10448" lon="1.8318">
        <ele>386.6</ele>
        <time>2024-04-07T08:00:09Z</time>
      </trkpt>
      <trkpt lat="44.10444" lon="1.83175">
        <ele>386.6</ele>
        <time>2024-04-07T08:00:10Z</time>
      </trkpt>
      <trkpt lat="44.1044" lon="1.83169">
        <ele>386.6</ele>
        <time>2024-04-07T08:00:11Z</time>
      </trkpt>
      <trkpt lat="44.10436" lon="1.83163">
        <ele>386.8</ele>
        <time>2024-04-07T08:00:12Z</time>
      </trkpt>
      <trkpt lat="44.10433" lon="1.83157">
        <ele>386.8</ele>
        <time>2024-04-07T08:00:13Z</time>
      </trkpt>
      <trkpt lat="44.1043" lon="1.83151">
        <ele>387</ele>
        <time>2024-04-07T08:00:14Z</time>
      </trkpt>
      <trkpt lat="44.10426" lon="1.83146">
        <ele>387</ele>
        <time>2024-04-07T08:00:15Z</time>
      </trkpt>
      <trkpt lat="44.10423" lon="1.8314">
        <ele>387</ele>
        <time>2024-04-07T08:00:16Z</time>
      </trkpt>
      <trkpt lat="44.1042" lon="1.83133">
        <ele>387</ele>
        <time>2024-04-07T08:00:17Z</time>
      </trkpt>
      <trkpt lat="44.10417" lon="1.83127">
        <ele>387</ele>
        <time>2024-04-07T08:00:18Z</time>
      </trkpt>
      <trkpt lat="44.10413" lon="1.8312">
        <ele>387</ele>
        <time>2024-04-07T08:00:19Z</time>
      </trkpt>
      <trkpt lat="44.1041" lon="1.83114">
        <ele>387</ele>
        <time>2024-04-07T08:00:20Z</time>
      </trkpt>
      <trkpt lat="44.10407" lon="1.83108">
        <ele>387</ele>
        <time>2024-04-07T08:00:21Z</time>
      </trkpt>
      <trkpt lat="44.10403" lon="1.83102">
        <ele>387</ele>
        <time>2024-04-07T08:00:22Z</time>
      </trkpt>
      <trkpt lat="44.104" lon="1.83097">
        <ele>387</ele>
        <time>2024-04-07T08:00:23Z</time>
      </trkpt>
      <trkpt lat="44.10396" lon="1.83091">
        <ele>387</ele>
        <time>2024-04-07T08:00:24Z</time>
      </trkpt>
      <trkpt lat="44.10393" lon="1.83085">
        <ele>386.8</ele>
        <time>2024-04-07T08:00:25Z</time>
      </trkpt>
      <trkpt lat="44.1039" lon="1.8308">
        <ele>386.8</ele>
        <time>2024-04-07T08:00:26Z</time>
      </trkpt>
      <trkpt lat="44.10387" lon="1.83076">
        <ele>386.8</ele>
        <time>2024-04-07T08:00:27Z</time>
      </trkpt>
      <trkpt lat="44.10384" lon="1.83072">
        <ele>387</ele>
        <time>2024-04-07T08:00:28Z</time>
      </trkpt>
      <trkpt lat="44.10381" lon="1.83068">
        <ele>387</ele>
        <time>2024-04-07T08:00:29Z</time>
      </trkpt>
      <trkpt lat="44.10378" lon="1.83065">
        <ele>387.2</ele>
        <time>2024-04-07T08:00:30Z</time>
      </trkpt>
      <trkpt lat="44.10375" lon="1.83062">
        <ele>387.2</ele>
        <time>2024-04-07T08:00:31Z</time>
      </trkpt>
      <trkpt lat="44.10371" lon="1.8306">
        <ele>387.4</ele>
        <time>2024-04-07T08:00:32Z</time>
      </trkpt>
      <trkpt lat="44.10367" lon="1.83059">
        <ele>387.6</ele>
        <time>2024-04-07T08:00:33Z</time>
      </trkpt>
      <trkpt lat="44.10362" lon="1.83057">
        <ele>387.4</ele>
        <time>2024-04-07T08:00:34Z</time>
      </trkpt>
      <trkpt lat="44.10359" lon="1.83057">
        <ele>387.6</ele>
        <time>2024-04-07T08:00:35Z</time>
      </trkpt>
      <trkpt lat="44.10355" lon="1.83057">
        <ele>387.8</ele>
        <time>2024-04-07T08:00:36Z</time>
      </trkpt>
      <trkpt lat="44.10351" lon="1.83058">
        <ele>388</ele>
        <time>2024-04-07T08:00:37Z</time>
      </trkpt>
      <trkpt lat="44.10348" lon="1.83059">
        <ele>388.4</ele>
        <time>2024-04-07T08:00:38Z</time>
      </trkpt>
      <trkpt lat="44.10346" lon="1.83061">
        <ele>389.2</ele>
        <time>2024-04-07T08:00:39Z</time>
      </trkpt>
      <trkpt lat="44.10343" lon="1.83064">
        <ele>389.4</ele>
        <time>2024-04-07T08:00:40Z</time>
      </trkpt>
      <trkpt lat="44.1034" lon="1.83066">
        <ele>389.6</ele>
        <time>2024-04-07T08:00:41Z</time>
      </trkpt>
      <trkpt lat="44.10337" lon="1.83069">
        <ele>390</ele>
        <time>2024-04-07T08:00:42Z</time>
      </trkpt>
      <trkpt lat="44.10335" lon="1.83073">
        <ele>390.6</ele>
        <time>2024-04-07T08:00:43Z</time>
      </trkpt>
      <trkpt lat="44.10333" lon="1.83076">
        <ele>390.8</ele>
        <time>2024-04-07T08:00:44Z</time>
      </trkpt>
      <trkpt lat="44.1033" lon="1.83079">
        <ele>391.6</ele>
        <time>2024-04-07T08:00:45Z</time>
      </trkpt>
      <trkpt lat="44.10327" lon="1.83083">
        <ele>392</ele>
        <time>2024-04-07T08:00:46Z</time>
      </trkpt>
      <trkpt lat="44.10325" lon="1.83085">
        <ele>392.6</ele>
        <time>2024-04-07T08:00:47Z</time>
      </trkpt>
      <trkpt lat="44.10322" lon="1.83087">
        <ele>393.2</ele>
        <time>2024-04-07T08:00:48Z</time>
      </trkpt>
      <trkpt lat="44.10319" lon="1.83091">
        <ele>393.4</ele>
        <time>2024-04-07T08:00:49Z</time>
      </trkpt>
      <trkpt lat="44.10316" lon="1.83094">
        <ele>394</ele>
        <time>2024-04-07T08:00:50Z</time>
      </trkpt>
      <trkpt lat="44.10314" lon="1.83097">
        <ele>394.2</ele>
        <time>2024-04-07T08:00:51Z</time>
      </trkpt>
      <trkpt lat="44.10311" lon="1.831">
        <ele>394.8</ele>
        <time>2024-04-07T08:00:52Z</time>
      </trkpt>
      <trkpt lat="44.10308" lon="1.83103">
        <ele>395.2</ele>
        <time>2024-04-07T08:00:53Z</time>
      </trkpt>
      <trkpt lat="44.10305" lon="1.83106">
        <ele>395.8</ele>
        <time>2024-04-07T08:00:54Z</time>
      </trkpt>
      <trkpt lat="44.10302" lon="1.8311">
        <ele>396</ele>
        <time>2024-04-07T08:00:55Z</time>
      </trkpt>
      <trkpt lat="44.10299" lon="1.83115">
        <ele>396.8</ele>
        <time>2024-04-07T08:00:56Z</time>
      </trkpt>
      <trkpt lat="44.10298" lon="1.83118">
        <ele>397.6</ele>
        <time>2024-04-07T08:00:57Z</time>
      </trkpt>
      <trkpt lat="44.10296" lon="1.83121">
        <ele>397.8</ele>
        <time>2024-04-07T08:00:58Z</time>
      </trkpt>
      <trkpt lat="44.10295" lon="1.83126">
        <ele>398.2</ele>
        <time>2024-04-07T08:00:59Z</time>
      </trkpt>
      <trkpt lat="44.10294" lon="1.83131">
        <ele>398.4</ele>
        <time>2024-04-07T08:01:00Z</time>
      </trkpt>
      <trkpt lat="44.10292" lon="1.83137">
        <ele>398.8</ele>
        <time>2024-04-07T08:01:01Z</time>
      </trkpt>
      <trkpt lat="44.1029" lon="1.8314">
        <ele>399</ele>
        <time>2024-04-07T08:01:02Z</time>
      </trkpt>
      <trkpt lat="44.10287" lon="1.83143">
        <ele>400</ele>
        <time>2024-04-07T08:01:03Z</time>
      </trkpt>
      <trkpt lat="44.10284" lon="1.83146">
        <ele>400.8</ele>
        <time>2024-04-07T08:01:04Z</time>
      </trkpt>
      <trkpt lat="44.10283" lon="1.8315">
        <ele>401.2</ele>
        <time>2024-04-07T08:01:05Z</time>
      </trkpt>
      <trkpt lat="44.1028" lon="1.83154">
        <ele>401.6</ele>
        <time>2024-04-07T08:01:06Z</time>
      </trkpt>
      <trkpt lat="44.10278" lon="1.83158">
        <ele>402</ele>
        <time>2024-04-07T08:01:07Z</time>
      </trkpt>
      <trkpt lat="44.10275" lon="1.83161">
        <ele>402.6</ele>
        <time>2024-04-07T08:01:08Z</time>
      </trkpt>
      <trkpt lat="44.10273" lon="1.83165">
        <ele>403</ele>
        <time>2024-04-07T08:01:09Z</time>
      </trkpt>
      <trkpt lat="44.10269" lon="1.83168">
        <ele>403.4</ele>
        <time>2024-04-07T08:01:10Z</time>
      </trkpt>
      <trkpt lat="44.10266" lon="1.83172">
        <ele>403.6</ele>
        <time>2024-04-07T08:01:11Z</time>
      </trkpt>
      <trkpt lat="44.10264" lon="1.83175">
        <ele>404.2</ele>
        <time>2024-04-07T08:01:12Z</time>
      </trkpt>
      <trkpt lat="44.10262" lon="1.83178">
        <ele>404.8</ele>
        <time>2024-04-07T08:01:13Z</time>
      </trkpt>
      <trkpt lat="44.1026" lon="1.83181">
        <ele>405</ele>
        <time>2024-04-07T08:01:14Z</time>
      </trkpt>
      <trkpt lat="44.10258" lon="1.83184">
        <ele>405.4</ele>
        <time>2024-04-07T08:01:15Z</time>
      </trkpt>
      <trkpt lat="44.10256" lon="1.83187">
        <ele>405.6</ele>
        <time>2024-04-07T08:01:16Z</time>
      </trkpt>
      <trkpt lat="44.10254" lon="1.83191">
        <ele>406</ele>
        <time>2024-04-07T08:01:17Z</time>
      </trkpt>
      <trkpt lat="44.10252" lon="1.83194">
        <ele>406.4</ele>
        <time>2024-04-07T08:01:18Z</time>
      </trkpt>
      <trkpt lat="44.1025" lon="1.83198">
        <ele>406.6</ele>
        <time>2024-04-07T08:01:19Z</time>
      </trkpt>
      <trkpt lat="44.10249" lon="1.83203">
        <ele>407.2</ele>
        <time>2024-04-07T08:01:20Z</time>
      </trkpt>
      <trkpt lat="44.10249" lon="1.83208">
        <ele>407.6</ele>
        <time>2024-04-07T08:01:21Z</time>
      </trkpt>
      <trkpt lat="44.10249" lon="1.83213">
        <ele>408</ele>
        <time>2024-04-07T08:01:22Z</time>
      </trkpt>
      <trkpt lat="44.10249" lon="1.83218">
        <ele>408.4</ele>
        <time>2024-04-07T08:01:23Z</time>
      </trkpt>
      <trkpt lat="44.10249" lon="1.83222">
        <ele>408.8</ele>
        <time>2024-04-07T08:01:24Z</time>
      </trkpt>
      <trkpt lat="44.10249" lon="1.83227">
        <ele>409</ele>
        <time>2024-04-07T08:01:25Z</time>
      </trkpt>
      <trkpt lat="44.10249" lon="1.83232">
        <ele>409.2</ele>
        <time>2024-04-07T08:01:26Z</time>
      </trkpt>
      <trkpt lat="44.10248" lon="1.83237">
        <ele>409.4</ele>
        <time>2024-04-07T08:01:27Z</time>
      </trkpt>
      <trkpt lat="44.10247" lon="1.83242">
        <ele>409.6</ele>
        <time>2024-04-07T08:01:28Z</time>
      </trkpt>
      <trkpt lat="44.10246" lon="1.83246">
        <ele>409.8</ele>
        <time>2024-04-07T08:01:29Z</time>
      </trkpt>
      <trkpt lat="44.10244" lon="1.83248">
        <ele>410.6</ele>
        <time>2024-04-07T08:01:30Z</time>
      </trkpt>
      <trkpt lat="44.10241" lon="1.83251">
        <ele>411.2</ele>
        <time>2024-04-07T08:01:31Z</time>
      </trkpt>
      <trkpt lat="44.10238" lon="1.83254">
        <ele>411.4</ele>
        <time>2024-04-07T08:01:32Z</time>
      </trkpt>
      <trkpt lat="44.10236" lon="1.83256">
        <ele>411.8</ele>
        <time>2024-04-07T08:01:33Z</time>
      </trkpt>
      <trkpt lat="44.10233" lon="1.83258">
        <ele>412</ele>
        <time>2024-04-07T08:01:34Z</time>
      </trkpt>
      <trkpt lat="44.1023" lon="1.8326">
        <ele>412.2</ele>
        <time>2024-04-07T08:01:35Z</time>
      </trkpt>
      <trkpt lat="44.10227" lon="1.83262">
        <ele>412.4</ele>
        <time>2024-04-07T08:01:36Z</time>
      </trkpt>
      <trkpt lat="44.10224" lon="1.83264">
        <ele>412.6</ele>
        <time>2024-04-07T08:01:37Z</time>
      </trkpt>
      <trkpt lat="44.10222" lon="1.83266">
        <ele>412.8</ele>
        <time>2024-04-07T08:01:38Z</time>
      </trkpt>
      <trkpt lat="44.10219" lon="1.83268">
        <ele>413.2</ele>
        <time>2024-04-07T08:01:39Z</time>
      </trkpt>
      <trkpt lat="44.10217" lon="1.8327">
        <ele>413.6</ele>
        <time>2024-04-07T08:01:40Z</time>
      </trkpt>
      <trkpt lat="44.10214" lon="1.83271">
        <ele>413.8</ele>
        <time>2024-04-07T08:01:41Z</time>
      </trkpt>
      <trkpt lat="44.10212" lon="1.83272">
        <ele>414.4</ele>
        <time>2024-04-07T08:01:42Z</time>
      </trkpt>
      <trkpt lat="44.10209" lon="1.83274">
        <ele>414.6</ele>
        <time>2024-04-07T08:01:43Z</time>
      </trkpt>
      <trkpt lat="44.10207" lon="1.83276">
        <ele>415.2</ele>
        <time>2024-04-07T08:01:44Z</time>
      </trkpt>
      <trkpt lat="44.10204" lon="1.83278">
        <ele>415.4</ele>
        <time>2024-04-07T08:01:45Z</time>
      </trkpt>
      <trkpt lat="44.10201" lon="1.83281">
        <ele>415.6</ele>
        <time>2024-04-07T08:01:46Z</time>
      </trkpt>
      <trkpt lat="44.10199" lon="1.83283">
        <ele>415.8</ele>
        <time>2024-04-07T08:01:47Z</time>
      </trkpt>
      <trkpt lat="44.10197" lon="1.83285">
        <ele>416.4</ele>
        <time>2024-04-07T08:01:48Z</time>
      </trkpt>
      <trkpt lat="44.10195" lon="1.83287">
        <ele>416.8</ele>
        <time>2024-04-07T08:01:49Z</time>
      </trkpt>
      <trkpt lat="44.10193" lon="1.8329">
        <ele>417</ele>
        <time>2024-04-07T08:01:50Z</time>
      </trkpt>
      <trkpt lat="44.10191" lon="1.83292">
        <ele>417.4</ele>
        <time>2024-04-07T08:01:51Z</time>
      </trkpt>
      <trkpt lat="44.1019" lon="1.83295">
        <ele>417.6</ele>
        <time>2024-04-07T08:01:52Z</time>
      </trkpt>
      <trkpt lat="44.1019" lon="1.833">
        <ele>417.8</ele>
        <time>2024-04-07T08:01:53Z</time>
      </trkpt>
      <trkpt lat="44.10191" lon="1.83305">
        <ele>418</ele>
        <time>2024-04-07T08:01:54Z</time>
      </trkpt>
      <trkpt lat="44.10192" lon="1.8331">
        <ele>418.6</ele>
        <time>2024-04-07T08:01:55Z</time>
      </trkpt>
      <trkpt lat="44.10193" lon="1.83315">
        <ele>418.6</ele>
        <time>2024-04-07T08:01:56Z</time>
      </trkpt>
      <trkpt lat="44.10193" lon="1.83321">
        <ele>418.8</ele>
        <time>2024-04-07T08:01:57Z</time>
      </trkpt>
      <trkpt lat="44.10192" lon="1.83328">
        <ele>419</ele>
        <time>2024-04-07T08:01:58Z</time>
      </trkpt>
      <trkpt lat="44.10191" lon="1.83335">
        <ele>419.2</ele>
        <time>2024-04-07T08:01:59Z</time>
      </trkpt>
      <trkpt lat="44.10188" lon="1.83341">
        <ele>419.4</ele>
        <time>2024-04-07T08:02:00Z</time>
      </trkpt>
      <trkpt lat="44.10186" lon="1.83346">
        <ele>419.4</ele>
        <time>2024-04-07T08:02:01Z</time>
      </trkpt>
      <trkpt lat="44.10182" lon="1.83349">
        <ele>419.6</ele>
        <time>2024-04-07T08:02:02Z</time>
      </trkpt>
      <trkpt lat="44.10178" lon="1.83349">
        <ele>419.6</ele>
        <time>2024-04-07T08:02:03Z</time>
      </trkpt>
      <trkpt lat="44.10174" lon="1.83348">
        <ele>419.8</ele>
        <time>2024-04-07T08:02:04Z</time>
      </trkpt>
      <trkpt lat="44.1017" lon="1.83346">
        <ele>419.8</ele>
        <time>2024-04-07T08:02:05Z</time>
      </trkpt>
      <trkpt lat="44.10166" lon="1.83345">
        <ele>420</ele>
        <time>2024-04-07T08:02:06Z</time>
      </trkpt>
      <trkpt lat="44.10162" lon="1.83342">
        <ele>420.2</ele>
        <time>2024-04-07T08:02:07Z</time>
      </trkpt>
      <trkpt lat="44.10158" lon="1.8334">
        <ele>420.2</ele>
        <time>2024-04-07T08:02:08Z</time>
      </trkpt>
      <trkpt lat="44.10153" lon="1.83338">
        <ele>420.4</ele>
        <time>2024-04-07T08:02:09Z</time>
      </trkpt>
      <trkpt lat="44.10149" lon="1.83336">
        <ele>420.4</ele>
        <time>2024-04-07T08:02:10Z</time>
      </trkpt>
      <trkpt lat="44.10145" lon="1.83335">
        <ele>420.6</ele>
        <time>2024-04-07T08:02:11Z</time>
      </trkpt>
      <trkpt lat="44.1014" lon="1.83334">
        <ele>420.6</ele>
        <time>2024-04-07T08:02:12Z</time>
      </trkpt>
      <trkpt lat="44.10135" lon="1.83332">
        <ele>420.8</ele>
        <time>2024-04-07T08:02:13Z</time>
      </trkpt>
      <trkpt lat="44.1013" lon="1.83329">
        <ele>420.8</ele>
        <time>2024-04-07T08:02:14Z</time>
      </trkpt>
      <trkpt lat="44.10125" lon="1.83326">
        <ele>421</ele>
        <time>2024-04-07T08:02:15Z</time>
      </trkpt>
      <trkpt lat="44.10121" lon="1.83322">
        <ele>421</ele>
        <time>2024-04-07T08:02:16Z</time>
      </trkpt>
      <trkpt lat="44.10117" lon="1.83317">
        <ele>421</ele>
        <time>2024-04-07T08:02:17Z</time>
      </trkpt>
      <trkpt lat="44.10113" lon="1.83312">
        <ele>421.2</ele>
        <time>2024-04-07T08:02:18Z</time>
      </trkpt>
      <trkpt lat="44.10109" lon="1.83307">
        <ele>421.2</ele>
        <time>2024-04-07T08:02:19Z</time>
      </trkpt>
      <trkpt lat="44.10104" lon="1.83301">
        <ele>421.2</ele>
        <time>2024-04-07T08:02:20Z</time>
      </trkpt>
      <trkpt lat="44.101" lon="1.83295">
        <ele>421.2</ele>
        <time>2024-04-07T08:02:21Z</time>
      </trkpt>
      <trkpt lat="44.10096" lon="1.83289">
        <ele>421.4</ele>
        <time>2024-04-07T08:02:22Z</time>
      </trkpt>
      <trkpt lat="44.10092" lon="1.83283">
        <ele>421.4</ele>
        <time>2024-04-07T08:02:23Z</time>
      </trkpt>
      <trkpt lat="44.10088" lon="1.83277">
        <ele>421.4</ele>
        <time>2024-04-07T08:02:24Z</time>
      </trkpt>
      <trkpt lat="44.10083" lon="1.83271">
        <ele>421.4</ele>
        <time>2024-04-07T08:02:25Z</time>
      </trkpt>
      <trkpt lat="44.10079" lon="1.83265">
        <ele>421.4</ele>
        <time>2024-04-07T08:02:26Z</time>
      </trkpt>
      <trkpt lat="44.10075" lon="1.8326">
        <ele>421.4</ele>
        <time>2024-04-07T08:02:27Z</time>
      </trkpt>
      <trkpt lat="44.1007" lon="1.83254">
        <ele>421.4</ele>
        <time>2024-04-07T08:02:28Z</time>
      </trkpt>
      <trkpt lat="44.10066" lon="1.83249">
        <ele>421.4</ele>
        <time>2024-04-07T08:02:29Z</time>
      </trkpt>
      <trkpt lat="44.10061" lon="1.83245">
        <ele>421.6</ele>
        <time>2024-04-07T08:02:30Z</time>
      </trkpt>
      <trkpt lat="44.10056" lon="1.83241">
        <ele>421.6</ele>
        <time>2024-04-07T08:02:31Z</time>
      </trkpt>
      <trkpt lat="44.10051" lon="1.83237">
        <ele>421.8</ele>
        <time>2024-04-07T08:02:32Z</time>
      </trkpt>
      <trkpt lat="44.10046" lon="1.83234">
        <ele>421.8</ele>
        <time>2024-04-07T08:02:33Z</time>
      </trkpt>
      <trkpt lat="44.10041" lon="1.8323">
        <ele>422</ele>
        <time>2024-04-07T08:02:34Z</time>
      </trkpt>
      <trkpt lat="44.10036" lon="1.83227">
        <ele>422.2</ele>
        <time>2024-04-07T08:02:35Z</time>
      </trkpt>
      <trkpt lat="44.10031" lon="1.83224">
        <ele>422.4</ele>
        <time>2024-04-07T08:02:36Z</time>
      </trkpt>
      <trkpt lat="44.10026" lon="1.83221">
        <ele>422.4</ele>
        <time>2024-04-07T08:02:37Z</time>
      </trkpt>
      <trkpt lat="44.10022" lon="1.83218">
        <ele>422.6</ele>
        <time>2024-04-07T08:02:38Z</time>
      </trkpt>
      <trkpt lat="44.10018" lon="1.83215">
        <ele>422.6</ele>
        <time>2024-04-07T08:02:39Z</time>
      </trkpt>
      <trkpt lat="44.10013" lon="1.83213">
        <ele>422.8</ele>
        <time>2024-04-07T08:02:40Z</time>
      </trkpt>
      <trkpt lat="44.10009" lon="1.8321">
        <ele>423</ele>
        <time>2024-04-07T08:02:41Z</time>
      </trkpt>
      <trkpt lat="44.10006" lon="1.83206">
        <ele>423.2</ele>
        <time>2024-04-07T08:02:42Z</time>
      </trkpt>
      <trkpt lat="44.10002" lon="1.83204">
        <ele>423.6</ele>
        <time>2024-04-07T08:02:43Z</time>
      </trkpt>
      <trkpt lat="44.09999" lon="1.83202">
        <ele>423.6</ele>
        <time>2024-04-07T08:02:44Z</time>
      </trkpt>
      <trkpt lat="44.09995" lon="1.832">
        <ele>424.2</ele>
        <time>2024-04-07T08:02:45Z</time>
      </trkpt>
      <trkpt lat="44.09991" lon="1.83198">
        <ele>424.4</ele>
        <time>2024-04-07T08:02:46Z</time>
      </trkpt>
      <trkpt lat="44.09989" lon="1.83197">
        <ele>424.6</ele>
        <time>2024-04-07T08:02:47Z</time>
      </trkpt>
      <trkpt lat="44.09986" lon="1.83197">
        <ele>424.8</ele>
        <time>2024-04-07T08:02:48Z</time>
      </trkpt>
      <trkpt lat="44.09984" lon="1.83196">
        <ele>425.2</ele>
        <time>2024-04-07T08:02:49Z</time>
      </trkpt>
      <trkpt lat="44.09981" lon="1.83195">
        <ele>425.8</ele>
        <time>2024-04-07T08:02:50Z</time>
      </trkpt>
      <trkpt lat="44.09979" lon="1.83194">
        <ele>426.2</ele>
        <time>2024-04-07T08:02:51Z</time>
      </trkpt>
      <trkpt lat="44.09976" lon="1.83193">
        <ele>426.8</ele>
        <time>2024-04-07T08:02:52Z</time>
      </trkpt>
      <trkpt lat="44.09973" lon="1.83192">
        <ele>427</ele>
        <time>2024-04-07T08:02:53Z</time>
      </trkpt>
      <trkpt lat="44.0997" lon="1.8319">
        <ele>427.6</ele>
        <time>2024-04-07T08:02:54Z</time>
      </trkpt>
      <trkpt lat="44.09968" lon="1.83189">
        <ele>428</ele>
        <time>2024-04-07T08:02:55Z</time>
      </trkpt>
      <trkpt lat="44.09966" lon="1.83187">
        <ele>428.6</ele>
        <time>2024-04-07T08:02:56Z</time>
      </trkpt>
      <trkpt lat="44.09963" lon="1.83186">
        <ele>429</ele>
        <time>2024-04-07T08:02:57Z</time>
      </trkpt>
      <trkpt lat="44.09961" lon="1.83184">
        <ele>429.4</ele>
        <time>2024-04-07T08:02:58Z</time>
      </trkpt>
      <trkpt lat="44.09958" lon="1.83182">
        <ele>430</ele>
        <time>2024-04-07T08:02:59Z</time>
      </trkpt>
      <trkpt lat="44.09956" lon="1.83181">
        <ele>430.2</ele>
        <time>2024-04-07T08:03:00Z</time>
      </trkpt>
      <trkpt lat="44.09952" lon="1.83179">
        <ele>430.8</ele>
        <time>2024-04-07T08:03:01Z</time>
      </trkpt>
      <trkpt lat="44.09949" lon="1.83177">
        <ele>431</ele>
        <time>2024-04-07T08:03:02Z</time>
      </trkpt>
      <trkpt lat="44.09946" lon="1.83175">
        <ele>431.4</ele>
        <time>2024-04-07T08:03:03Z</time>
      </trkpt>
      <trkpt lat="44.09942" lon="1.83173">
        <ele>431.6</ele>
        <time>2024-04-07T08:03:04Z</time>
      </trkpt>
      <trkpt lat="44.09939" lon="1.83171">
        <ele>432.4</ele>
        <time>2024-04-07T08:03:05Z</time>
      </trkpt>
      <trkpt lat="44.09934" lon="1.83169">
        <ele>432.6</ele>
        <time>2024-04-07T08:03:06Z</time>
      </trkpt>
      <trkpt lat="44.09931" lon="1.83166">
        <ele>432.8</ele>
        <time>2024-04-07T08:03:07Z</time>
      </trkpt>
      <trkpt lat="44.09927" lon="1.83164">
        <ele>433.2</ele>
        <time>2024-04-07T08:03:08Z</time>
      </trkpt>
      <trkpt lat="44.09922" lon="1.83161">
        <ele>433.4</ele>
        <time>2024-04-07T08:03:09Z</time>
      </trkpt>
      <trkpt lat="44.09919" lon="1.83158">
        <ele>433.6</ele>
        <time>2024-04-07T08:03:10Z</time>
      </trkpt>
      <trkpt lat="44.09914" lon="1.83154">
        <ele>433.6</ele>
        <time>2024-04-07T08:03:11Z</time>
      </trkpt>
      <trkpt lat="44.09911" lon="1.8315">
        <ele>433.8</ele>
        <time>2024-04-07T08:03:12Z</time>
      </trkpt>
      <trkpt lat="44.09906" lon="1.83147">
        <ele>433.8</ele>
        <time>2024-04-07T08:03:13Z</time>
      </trkpt>
      <trkpt lat="44.09902" lon="1.83143">
        <ele>433.8</ele>
        <time>2024-04-07T08:03:14Z</time>
      </trkpt>
      <trkpt lat="44.09897" lon="1.8314">
        <ele>433.8</ele>
        <time>2024-04-07T08:03:15Z</time>
      </trkpt>
      <trkpt lat="44.09893" lon="1.83136">
        <ele>433.8</ele>
        <time>2024-04-07T08:03:16Z</time>
      </trkpt>
      <trkpt lat="44.09889" lon="1.83131">
        <ele>433.8</ele>
        <time>2024-04-07T08:03:17Z</time>
      </trkpt>
      <trkpt lat="44.09883" lon="1.83125">
        <ele>433.8</ele>
        <time>2024-04-07T08:03:18Z</time>
      </trkpt>
      <trkpt lat="44.09878" lon="1.8312">
        <ele>433.6</ele>
        <time>2024-04-07T08:03:19Z</time>
      </trkpt>
      <trkpt lat="44.09873" lon="1.83115">
        <ele>433.4</ele>
        <time>2024-04-07T08:03:20Z</time>
      </trkpt>
      <trkpt lat="44.09868" lon="1.8311">
        <ele>433.2</ele>
        <time>2024-04-07T08:03:21Z</time>
      </trkpt>
      <trkpt lat="44.09863" lon="1.83105">
        <ele>433.2</ele>
        <time>2024-04-07T08:03:22Z</time>
      </trkpt>
      <trkpt lat="44.09858" lon="1.831">
        <ele>432.8</ele>
        <time>2024-04-07T08:03:23Z</time>
      </trkpt>
      <trkpt lat="44.09851" lon="1.83094">
        <ele>432.8</ele>
        <time>2024-04-07T08:03:24Z</time>
      </trkpt>
      <trkpt lat="44.09845" lon="1.83087">
        <ele>432.4</ele>
        <time>2024-04-07T08:03:25Z</time>
      </trkpt>
      <trkpt lat="44.0984" lon="1.83081">
        <ele>432.2</ele>
        <time>2024-04-07T08:03:26Z</time>
      </trkpt>
      <trkpt lat="44.09834" lon="1.83074">
        <ele>431.8</ele>
        <time>2024-04-07T08:03:27Z</time>
      </trkpt>
      <trkpt lat="44.09828" lon="1.83067">
        <ele>431.2</ele>
        <time>2024-04-07T08:03:28Z</time>
      </trkpt>
      <trkpt lat="44.09822" lon="1.83061">
        <ele>430.8</ele>
        <time>2024-04-07T08:03:29Z</time>
      </trkpt>
      <trkpt lat="44.09816" lon="1.83056">
        <ele>430</ele>
        <time>2024-04-07T08:03:30Z</time>
      </trkpt>
      <trkpt lat="44.09811" lon="1.83052">
        <ele>429.4</ele>
        <time>2024-04-07T08:03:31Z</time>
      </trkpt>
      <trkpt lat="44.09804" lon="1.83048">
        <ele>428</ele>
        <time>2024-04-07T08:03:32Z</time>
      </trkpt>
      <trkpt lat="44.09797" lon="1.83045">
        <ele>427.2</ele>
        <time>2024-04-07T08:03:33Z</time>
      </trkpt>
      <trkpt lat="44.09789" lon="1.83042">
        <ele>426.2</ele>
        <time>2024-04-07T08:03:34Z</time>
      </trkpt>
      <trkpt lat="44.0978" lon="1.83039">
        <ele>424.6</ele>
        <time>2024-04-07T08:03:35Z</time>
      </trkpt>
      <trkpt lat="44.0977" lon="1.83036">
        <ele>424</ele>
        <time>2024-04-07T08:03:36Z</time>
      </trkpt>
      <trkpt lat="44.09762" lon="1.83034">
        <ele>423</ele>
        <time>2024-04-07T08:03:37Z</time>
      </trkpt>
      <trkpt lat="44.09744" lon="1.8303">
        <ele>421.4</ele>
        <time>2024-04-07T08:03:39Z</time>
      </trkpt>
      <trkpt lat="44.09736" lon="1.83028">
        <ele>421.2</ele>
        <time>2024-04-07T08:03:40Z</time>
      </trkpt>
      <trkpt lat="44.09728" lon="1.83028">
        <ele>420.8</ele>
        <time>2024-04-07T08:03:41Z</time>
      </trkpt>
      <trkpt lat="44.0972" lon="1.83029">
        <ele>420.2</ele>
        <time>2024-04-07T08:03:42Z</time>
      </trkpt>
      <trkpt lat="44.09713" lon="1.83032">
        <ele>419.8</ele>
        <time>2024-04-07T08:03:43Z</time>
      </trkpt>
      <trkpt lat="44.09707" lon="1.83035">
        <ele>419.4</ele>
        <time>2024-04-07T08:03:44Z</time>
      </trkpt>
      <trkpt lat="44.09702" lon="1.83041">
        <ele>419.2</ele>
        <time>2024-04-07T08:03:45Z</time>
      </trkpt>
      <trkpt lat="44.09698" lon="1.83049">
        <ele>418.6</ele>
        <time>2024-04-07T08:03:46Z</time>
      </trkpt>
      <trkpt lat="44.09693" lon="1.83056">
        <ele>418</ele>
        <time>2024-04-07T08:03:47Z</time>
      </trkpt>
      <trkpt lat="44.09687" lon="1.83063">
        <ele>417.2</ele>
        <time>2024-04-07T08:03:48Z</time>
      </trkpt>
      <trkpt lat="44.09681" lon="1.83068">
        <ele>416.8</ele>
        <time>2024-04-07T08:03:49Z</time>
      </trkpt>
      <trkpt lat="44.09674" lon="1.83072">
        <ele>415.8</ele>
        <time>2024-04-07T08:03:50Z</time>
      </trkpt>
      <trkpt lat="44.09667" lon="1.83074">
        <ele>415.2</ele>
        <time>2024-04-07T08:03:51Z</time>
      </trkpt>
      <trkpt lat="44.0966" lon="1.83076">
        <ele>415</ele>
        <time>2024-04-07T08:03:52Z</time>
      </trkpt>
      <trkpt lat="44.09654" lon="1.83076">
        <ele>414</ele>
        <time>2024-04-07T08:03:53Z</time>
      </trkpt>
      <trkpt lat="44.09648" lon="1.83076">
        <ele>413.4</ele>
        <time>2024-04-07T08:03:54Z</time>
      </trkpt>
      <trkpt lat="44.09642" lon="1.83076">
        <ele>412.6</ele>
        <time>2024-04-07T08:03:55Z</time>
      </trkpt>
      <trkpt lat="44.09637" lon="1.83077">
        <ele>412.2</ele>
        <time>2024-04-07T08:03:56Z</time>
      </trkpt>
      <trkpt lat="44.09633" lon="1.83079">
        <ele>412</ele>
        <time>2024-04-07T08:03:57Z</time>
      </trkpt>
      <trkpt lat="44.09629" lon="1.8308">
        <ele>412</ele>
        <time>2024-04-07T08:03:58Z</time>
      </trkpt>
      <trkpt lat="44.09625" lon="1.83081">
        <ele>409.4</ele>
        <time>2024-04-07T08:03:59Z</time>
      </trkpt>
      <trkpt lat="44.0962" lon="1.83081">
        <ele>408</ele>
        <time>2024-04-07T08:04:00Z</time>
      </trkpt>
      <trkpt lat="44.09615" lon="1.83081">
        <ele>407</ele>
        <time>2024-04-07T08:04:01Z</time>
      </trkpt>
      <trkpt lat="44.0961" lon="1.83081">
        <ele>406.2</ele>
        <time>2024-04-07T08:04:02Z</time>
      </trkpt>
      <trkpt lat="44.09604" lon="1.83082">
        <ele>406.2</ele>
        <time>2024-04-07T08:04:03Z</time>
      </trkpt>
      <trkpt lat="44.09599" lon="1.83081">
        <ele>405.4</ele>
        <time>2024-04-07T08:04:04Z</time>
      </trkpt>
      <trkpt lat="44.09592" lon="1.83081">
        <ele>405.2</ele>
        <time>2024-04-07T08:04:05Z</time>
      </trkpt>
      <trkpt lat="44.09586" lon="1.83082">
        <ele>403.6</ele>
        <time>2024-04-07T08:04:06Z</time>
      </trkpt>
      <trkpt lat="44.09581" lon="1.83083">
        <ele>402.8</ele>
        <time>2024-04-07T08:04:07Z</time>
      </trkpt>
      <trkpt lat="44.09578" lon="1.83084">
        <ele>401.8</ele>
        <time>2024-04-07T08:04:08Z</time>
      </trkpt>
      <trkpt lat="44.09576" lon="1.83083">
        <ele>400.8</ele>
        <time>2024-04-07T08:04:09Z</time>
      </trkpt>
      <trkpt lat="44.09575" lon="1.83082">
        <ele>400.4</ele>
        <time>2024-04-07T08:04:10Z</time>
      </trkpt>
      <trkpt lat="44.09575" lon="1.83079">
        <ele>399.6</ele>
        <time>2024-04-07T08:04:11Z</time>
      </trkpt>
      <trkpt lat="44.09576" lon="1.83077">
        <ele>399.2</ele>
        <time>2024-04-07T08:04:12Z</time>
      </trkpt>
      <trkpt lat="44.09578" lon="1.83074">
        <ele>398.2</ele>
        <time>2024-04-07T08:04:13Z</time>
      </trkpt>
      <trkpt lat="44.09581" lon="1.83071">
        <ele>397.6</ele>
        <time>2024-04-07T08:04:14Z</time>
      </trkpt>
      <trkpt lat="44.09584" lon="1.83067">
        <ele>397</ele>
        <time>2024-04-07T08:04:15Z</time>
      </trkpt>
      <trkpt lat="44.09587" lon="1.83061">
        <ele>396.8</ele>
        <time>2024-04-07T08:04:16Z</time>
      </trkpt>
      <trkpt lat="44.09591" lon="1.83053">
        <ele>396.4</ele>
        <time>2024-04-07T08:04:17Z</time>
      </trkpt>
      <trkpt lat="44.09594" lon="1.83045">
        <ele>395.8</ele>
        <time>2024-04-07T08:04:18Z</time>
      </trkpt>
      <trkpt lat="44.09598" lon="1.83037">
        <ele>395.6</ele>
        <time>2024-04-07T08:04:19Z</time>
      </trkpt>
      <trkpt lat="44.09601" lon="1.83026">
        <ele>395</ele>
        <time>2024-04-07T08:04:20Z</time>
      </trkpt>
      <trkpt lat="44.09604" lon="1.83015">
        <ele>394.8</ele>
        <time>2024-04-07T08:04:21Z</time>
      </trkpt>
      <trkpt lat="44.09607" lon="1.83004">
        <ele>394.4</ele>
        <time>2024-04-07T08:04:22Z</time>
      </trkpt>
      <trkpt lat="44.0961" lon="1.82989">
        <ele>393.8</ele>
        <time>2024-04-07T08:04:23Z</time>
      </trkpt>
      <trkpt lat="44.09611" lon="1.82975">
        <ele>393.2</ele>
        <time>2024-04-07T08:04:24Z</time>
      </trkpt>
      <trkpt lat="44.09609" lon="1.8296">
        <ele>392.6</ele>
        <time>2024-04-07T08:04:25Z</time>
      </trkpt>
      <trkpt lat="44.09606" lon="1.82949">
        <ele>392</ele>
        <time>2024-04-07T08:04:26Z</time>
      </trkpt>
      <trkpt lat="44.096" lon="1.82939">
        <ele>391</ele>
        <time>2024-04-07T08:04:27Z</time>
      </trkpt>
      <trkpt lat="44.09595" lon="1.82928">
        <ele>390.6</ele>
        <time>2024-04-07T08:04:28Z</time>
      </trkpt>
      <trkpt lat="44.09592" lon="1.82916">
        <ele>389.4</ele>
        <time>2024-04-07T08:04:29Z</time>
      </trkpt>
      <trkpt lat="44.09588" lon="1.82904">
        <ele>388.6</ele>
        <time>2024-04-07T08:04:30Z</time>
      </trkpt>
      <trkpt lat="44.09585" lon="1.82895">
        <ele>387.8</ele>
        <time>2024-04-07T08:04:31Z</time>
      </trkpt>
      <trkpt lat="44.09583" lon="1.82886">
        <ele>387.6</ele>
        <time>2024-04-07T08:04:32Z</time>
      </trkpt>
      <trkpt lat="44.09581" lon="1.82878">
        <ele>387.4</ele>
        <time>2024-04-07T08:04:33Z</time>
      </trkpt>
      <trkpt lat="44.09578" lon="1.82871">
        <ele>387.4</ele>
        <time>2024-04-07T08:04:34Z</time>
      </trkpt>
      <trkpt lat="44.09577" lon="1.82862">
        <ele>387.4</ele>
        <time>2024-04-07T08:04:35Z</time>
      </trkpt>
      <trkpt lat="44.09576" lon="1.82852">
        <ele>387.4</ele>
        <time>2024-04-07T08:04:36Z</time>
      </trkpt>
      <trkpt lat="44.09576" lon="1.82844">
        <ele>387.4</ele>
        <time>2024-04-07T08:04:37Z</time>
      </trkpt>
      <trkpt lat="44.09576" lon="1.82834">
        <ele>387.8</ele>
        <time>2024-04-07T08:04:38Z</time>
      </trkpt>
      <trkpt lat="44.09575" lon="1.82824">
        <ele>387.8</ele>
        <time>2024-04-07T08:04:39Z</time>
      </trkpt>
      <trkpt lat="44.09574" lon="1.82814">
        <ele>388.2</ele>
        <time>2024-04-07T08:04:40Z</time>
      </trkpt>
      <trkpt lat="44.09573" lon="1.82804">
        <ele>388.2</ele>
        <time>2024-04-07T08:04:41Z</time>
      </trkpt>
      <trkpt lat="44.09573" lon="1.82794">
        <ele>388.2</ele>
        <time>2024-04-07T08:04:42Z</time>
      </trkpt>
      <trkpt lat="44.09574" lon="1.82784">
        <ele>388.2</ele>
        <time>2024-04-07T08:04:43Z</time>
      </trkpt>
      <trkpt lat="44.09576" lon="1.82773">
        <ele>388.2</ele>
        <time>2024-04-07T08:04:44Z</time>
      </trkpt>
      <trkpt lat="44.09578" lon="1.82761">
        <ele>387.8</ele>
        <time>2024-04-07T08:04:45Z</time>
      </trkpt>
      <trkpt lat="44.09579" lon="1.82747">
        <ele>387.4</ele>
        <time>2024-04-07T08:04:46Z</time>
      </trkpt>
      <trkpt lat="44.09581" lon="1.82735">
        <ele>386.6</ele>
        <time>2024-04-07T08:04:47Z</time>
      </trkpt>
      <trkpt lat="44.09582" lon="1.82725">
        <ele>386.2</ele>
        <time>2024-04-07T08:04:48Z</time>
      </trkpt>
      <trkpt lat="44.09586" lon="1.82715">
        <ele>384.8</ele>
        <time>2024-04-07T08:04:49Z</time>
      </trkpt>
      <trkpt lat="44.09591" lon="1.82705">
        <ele>384</ele>
        <time>2024-04-07T08:04:50Z</time>
      </trkpt>
      <trkpt lat="44.09596" lon="1.82695">
        <ele>383</ele>
        <time>2024-04-07T08:04:51Z</time>
      </trkpt>
      <trkpt lat="44.096" lon="1.82684">
        <ele>382.4</ele>
        <time>2024-04-07T08:04:52Z</time>
      </trkpt>
      <trkpt lat="44.09602" lon="1.82673">
        <ele>382</ele>
        <time>2024-04-07T08:04:53Z</time>
      </trkpt>
      <trkpt lat="44.09603" lon="1.82661">
        <ele>381.4</ele>
        <time>2024-04-07T08:04:54Z</time>
      </trkpt>
      <trkpt lat="44.09604" lon="1.82649">
        <ele>380.6</ele>
        <time>2024-04-07T08:04:55Z</time>
      </trkpt>
      <trkpt lat="44.09604" lon="1.82635">
        <ele>378</ele>
        <time>2024-04-07T08:04:56Z</time>
      </trkpt>
      <trkpt lat="44.09603" lon="1.8262">
        <ele>377</ele>
        <time>2024-04-07T08:04:57Z</time>
      </trkpt>
      <trkpt lat="44.09605" lon="1.8261">
        <ele>374.6</ele>
        <time>2024-04-07T08:04:58Z</time>
      </trkpt>
      <trkpt lat="44.09606" lon="1.82598">
        <ele>374.2</ele>
        <time>2024-04-07T08:04:59Z</time>
      </trkpt>
      <trkpt lat="44.09606" lon="1.82586">
        <ele>373</ele>
        <time>2024-04-07T08:05:00Z</time>
      </trkpt>
      <trkpt lat="44.09607" lon="1.82575">
        <ele>372.2</ele>
        <time>2024-04-07T08:05:01Z</time>
      </trkpt>
      <trkpt lat="44.09608" lon="1.82566">
        <ele>371.6</ele>
        <time>2024-04-07T08:05:02Z</time>
      </trkpt>
      <trkpt lat="44.09609" lon="1.82556">
        <ele>370.2</ele>
        <time>2024-04-07T08:05:03Z</time>
      </trkpt>
      <trkpt lat="44.09611" lon="1.82544">
        <ele>369.6</ele>
        <time>2024-04-07T08:05:04Z</time>
      </trkpt>
      <trkpt lat="44.0961" lon="1.82532">
        <ele>368.6</ele>
        <time>2024-04-07T08:05:05Z</time>
      </trkpt>
      <trkpt lat="44.09611" lon="1.82522">
        <ele>368.2</ele>
        <time>2024-04-07T08:05:06Z</time>
      </trkpt>
      <trkpt lat="44.09612" lon="1.82513">
        <ele>367.6</ele>
        <time>2024-04-07T08:05:07Z</time>
      </trkpt>
      <trkpt lat="44.09612" lon="1.82505">
        <ele>367.4</ele>
        <time>2024-04-07T08:05:08Z</time>
      </trkpt>
      <trkpt lat="44.09614" lon="1.82497">
        <ele>366.2</ele>
        <time>2024-04-07T08:05:09Z</time>
      </trkpt>
      <trkpt lat="44.09616" lon="1.82487">
        <ele>365.6</ele>
        <time>2024-04-07T08:05:10Z</time>
      </trkpt>
      <trkpt lat="44.09617" lon="1.82478">
        <ele>365.2</ele>
        <time>2024-04-07T08:05:11Z</time>
      </trkpt>
      <trkpt lat="44.09619" lon="1.82469">
        <ele>363.8</ele>
        <time>2024-04-07T08:05:12Z</time>
      </trkpt>
      <trkpt lat="44.0962" lon="1.82459">
        <ele>363.2</ele>
        <time>2024-04-07T08:05:13Z</time>
      </trkpt>
      <trkpt lat="44.0962" lon="1.82449">
        <ele>362.4</ele>
        <time>2024-04-07T08:05:14Z</time>
      </trkpt>
      <trkpt lat="44.09621" lon="1.82441">
        <ele>361.8</ele>
        <time>2024-04-07T08:05:15Z</time>
      </trkpt>
      <trkpt lat="44.09622" lon="1.82432">
        <ele>361.4</ele>
        <time>2024-04-07T08:05:16Z</time>
      </trkpt>
      <trkpt lat="44.09623" lon="1.82421">
        <ele>360.8</ele>
        <time>2024-04-07T08:05:17Z</time>
      </trkpt>
      <trkpt lat="44.09624" lon="1.82411">
        <ele>359.6</ele>
        <time>2024-04-07T08:05:18Z</time>
      </trkpt>
      <trkpt lat="44.09626" lon="1.82404">
        <ele>357.8</ele>
        <time>2024-04-07T08:05:19Z</time>
      </trkpt>
      <trkpt lat="44.09626" lon="1.82398">
        <ele>357</ele>
        <time>2024-04-07T08:05:20Z</time>
      </trkpt>
      <trkpt lat="44.09626" lon="1.82392">
        <ele>355.2</ele>
        <time>2024-04-07T08:05:21Z</time>
      </trkpt>
      <trkpt lat="44.09625" lon="1.82388">
        <ele>354.4</ele>
        <time>2024-04-07T08:05:22Z</time>
      </trkpt>
      <trkpt lat="44.09622" lon="1.82384">
        <ele>352.6</ele>
        <time>2024-04-07T08:05:23Z</time>
      </trkpt>
      <trkpt lat="44.09619" lon="1.8238">
        <ele>351.8</ele>
        <time>2024-04-07T08:05:24Z</time>
      </trkpt>
      <trkpt lat="44.09615" lon="1.82377">
        <ele>350.4</ele>
        <time>2024-04-07T08:05:25Z</time>
      </trkpt>
      <trkpt lat="44.0961" lon="1.82374">
        <ele>349.6</ele>
        <time>2024-04-07T08:05:26Z</time>
      </trkpt>
      <trkpt lat="44.09606" lon="1.82372">
        <ele>348.2</ele>
        <time>2024-04-07T08:05:27Z</time>
      </trkpt>
      <trkpt lat="44.09602" lon="1.82369">
        <ele>346.8</ele>
        <time>2024-04-07T08:05:28Z</time>
      </trkpt>
      <trkpt lat="44.09598" lon="1.82364">
        <ele>346.2</ele>
        <time>2024-04-07T08:05:29Z</time>
      </trkpt>
      <trkpt lat="44.09593" lon="1.82361">
        <ele>345</ele>
        <time>2024-04-07T08:05:30Z</time>
      </trkpt>
      <trkpt lat="44.09589" lon="1.82359">
        <ele>344</ele>
        <time>2024-04-07T08:05:31Z</time>
      </trkpt>
      <trkpt lat="44.09585" lon="1.82357">
        <ele>342.4</ele>
        <time>2024-04-07T08:05:32Z</time>
      </trkpt>
      <trkpt lat="44.09582" lon="1.82355">
        <ele>341.8</ele>
        <time>2024-04-07T08:05:33Z</time>
      </trkpt>
      <trkpt lat="44.09582" lon="1.82353">
        <ele>340.2</ele>
        <time>2024-04-07T08:05:34Z</time>
      </trkpt>
      <trkpt lat="44.09584" lon="1.8235">
        <ele>339.4</ele>
        <time>2024-04-07T08:05:35Z</time>
      </trkpt>
      <trkpt lat="44.09585" lon="1.8235">
        <ele>338.4</ele>
        <time>2024-04-07T08:05:36Z</time>
      </trkpt>
      <trkpt lat="44.09587" lon="1.8235">
        <ele>338</ele>
        <time>2024-04-07T08:05:37Z</time>
      </trkpt>
      <trkpt lat="44.09589" lon="1.8235">
        <ele>337.6</ele>
        <time>2024-04-07T08:05:38Z</time>
      </trkpt>
      <trkpt lat="44.09593" lon="1.8235">
        <ele>337</ele>
        <time>2024-04-07T08:05:39Z</time>
      </trkpt>
      <trkpt lat="44.09597" lon="1.8235">
        <ele>336.8</ele>
        <time>2024-04-07T08:05:40Z</time>
      </trkpt>
      <trkpt lat="44.09601" lon="1.82349">
        <ele>336.2</ele>
        <time>2024-04-07T08:05:41Z</time>
      </trkpt>
      <trkpt lat="44.09607" lon="1.82347">
        <ele>335.4</ele>
        <time>2024-04-07T08:05:42Z</time>
      </trkpt>
      <trkpt lat="44.09612" lon="1.82347">
        <ele>334.4</ele>
        <time>2024-04-07T08:05:43Z</time>
      </trkpt>
      <trkpt lat="44.09618" lon="1.82346">
        <ele>333.6</ele>
        <time>2024-04-07T08:05:44Z</time>
      </trkpt>
      <trkpt lat="44.09621" lon="1.82345">
        <ele>332.2</ele>
        <time>2024-04-07T08:05:45Z</time>
      </trkpt>
      <trkpt lat="44.09623" lon="1.82344">
        <ele>331.2</ele>
        <time>2024-04-07T08:05:46Z</time>
      </trkpt>
      <trkpt lat="44.09623" lon="1.82343">
        <ele>331</ele>
        <time>2024-04-07T08:05:47Z</time>
      </trkpt>
      <trkpt lat="44.09623" lon="1.82343">
        <ele>329.4</ele>
        <time>2024-04-07T08:05:48Z</time>
      </trkpt>
      <trkpt lat="44.09623" lon="1.82343">
        <ele>328.8</ele>
        <time>2024-04-07T08:05:49Z</time>
      </trkpt>
      <trkpt lat="44.09624" lon="1.82343">
        <ele>327.8</ele>
        <time>2024-04-07T08:05:50Z</time>
      </trkpt>
      <trkpt lat="44.09626" lon="1.82342">
        <ele>327.4</ele>
        <time>2024-04-07T08:05:51Z</time>
      </trkpt>
      <trkpt lat="44.09627" lon="1.82342">
        <ele>326.8</ele>
        <time>2024-04-07T08:05:52Z</time>
      </trkpt>
      <trkpt lat="44.09628" lon="1.8234">
        <ele>326.6</ele>
        <time>2024-04-07T08:05:53Z</time>
      </trkpt>
      <trkpt lat="44.09631" lon="1.82337">
        <ele>326.4</ele>
        <time>2024-04-07T08:05:54Z</time>
      </trkpt>
      <trkpt lat="44.09637" lon="1.82333">
        <ele>326</ele>
        <time>2024-04-07T08:05:55Z</time>
      </trkpt>
      <trkpt lat="44.09637" lon="1.82333">
        <ele>326</ele>
        <time>2024-04-07T08:05:56Z</time>
      </trkpt>
      <trkpt lat="44.09637" lon="1.82333">
        <ele>325.4</ele>
        <time>2024-04-07T08:05:57Z</time>
      </trkpt>
      <trkpt lat="44.09638" lon="1.82331">
        <ele>325.4</ele>
        <time>2024-04-07T08:05:58Z</time>
      </trkpt>
      <trkpt lat="44.09649" lon="1.82309">
        <ele>323.6</ele>
        <time>2024-04-07T08:06:07Z</time>
      </trkpt>
      <trkpt lat="44.09648" lon="1.82305">
        <ele>322.8</ele>
        <time>2024-04-07T08:06:08Z</time>
      </trkpt>
      <trkpt lat="44.09646" lon="1.82299">
        <ele>322.4</ele>
        <time>2024-04-07T08:06:09Z</time>
      </trkpt>
      <trkpt lat="44.09644" lon="1.82291">
        <ele>321.6</ele>
        <time>2024-04-07T08:06:10Z</time>
      </trkpt>
      <trkpt lat="44.09642" lon="1.82285">
        <ele>320.6</ele>
        <time>2024-04-07T08:06:11Z</time>
      </trkpt>
      <trkpt lat="44.09641" lon="1.82278">
        <ele>320</ele>
        <time>2024-04-07T08:06:12Z</time>
      </trkpt>
      <trkpt lat="44.0964" lon="1.82274">
        <ele>319.2</ele>
        <time>2024-04-07T08:06:13Z</time>
      </trkpt>
      <trkpt lat="44.09639" lon="1.82271">
        <ele>318.8</ele>
        <time>2024-04-07T08:06:14Z</time>
      </trkpt>
      <trkpt lat="44.09637" lon="1.82268">
        <ele>318</ele>
        <time>2024-04-07T08:06:15Z</time>
      </trkpt>
      <trkpt lat="44.09632" lon="1.82261">
        <ele>317.6</ele>
        <time>2024-04-07T08:06:16Z</time>
      </trkpt>
      <trkpt lat="44.09628" lon="1.82253">
        <ele>317</ele>
        <time>2024-04-07T08:06:17Z</time>
      </trkpt>
      <trkpt lat="44.09626" lon="1.82246">
        <ele>316.8</ele>
        <time>2024-04-07T08:06:18Z</time>
      </trkpt>
      <trkpt lat="44.09624" lon="1.82238">
        <ele>316</ele>
        <time>2024-04-07T08:06:19Z</time>
      </trkpt>
      <trkpt lat="44.09622" lon="1.82229">
        <ele>315.4</ele>
        <time>2024-04-07T08:06:20Z</time>
      </trkpt>
      <trkpt lat="44.09623" lon="1.82224">
        <ele>314.4</ele>
        <time>2024-04-07T08:06:21Z</time>
      </trkpt>
      <trkpt lat="44.09623" lon="1.82219">
        <ele>313.4</ele>
        <time>2024-04-07T08:06:22Z</time>
      </trkpt>
      <trkpt lat="44.09623" lon="1.82213">
        <ele>312.8</ele>
        <time>2024-04-07T08:06:23Z</time>
      </trkpt>
      <trkpt lat="44.09623" lon="1.82204">
        <ele>311.8</ele>
        <time>2024-04-07T08:06:24Z</time>
      </trkpt>
      <trkpt lat="44.09622" lon="1.82199">
        <ele>311.2</ele>
        <time>2024-04-07T08:06:25Z</time>
      </trkpt>
      <trkpt lat="44.0962" lon="1.82196">
        <ele>310.2</ele>
        <time>2024-04-07T08:06:26Z</time>
      </trkpt>
      <trkpt lat="44.09617" lon="1.82188">
        <ele>309.8</ele>
        <time>2024-04-07T08:06:27Z</time>
      </trkpt>
      <trkpt lat="44.09614" lon="1.82182">
        <ele>308.2</ele>
        <time>2024-04-07T08:06:28Z</time>
      </trkpt>
      <trkpt lat="44.09612" lon="1.82175">
        <ele>306.8</ele>
        <time>2024-04-07T08:06:29Z</time>
      </trkpt>
      <trkpt lat="44.09612" lon="1.82168">
        <ele>306.6</ele>
        <time>2024-04-07T08:06:30Z</time>
      </trkpt>
      <trkpt lat="44.09612" lon="1.82165">
        <ele>306</ele>
        <time>2024-04-07T08:06:31Z</time>
      </trkpt>
      <trkpt lat="44.09613" lon="1.82155">
        <ele>305.8</ele>
        <time>2024-04-07T08:06:32Z</time>
      </trkpt>
      <trkpt lat="44.09614" lon="1.82148">
        <ele>305.6</ele>
        <time>2024-04-07T08:06:33Z</time>
      </trkpt>
      <trkpt lat="44.09615" lon="1.8214">
        <ele>305.4</ele>
        <time>2024-04-07T08:06:34Z</time>
      </trkpt>
      <trkpt lat="44.09618" lon="1.82131">
        <ele>305.2</ele>
        <time>2024-04-07T08:06:35Z</time>
      </trkpt>
      <trkpt lat="44.09622" lon="1.82123">
        <ele>305.2</ele>
        <time>2024-04-07T08:06:36Z</time>
      </trkpt>
      <trkpt lat="44.09625" lon="1.82114">
        <ele>304.8</ele>
        <time>2024-04-07T08:06:37Z</time>
      </trkpt>
      <trkpt lat="44.09629" lon="1.82106">
        <ele>303.8</ele>
        <time>2024-04-07T08:06:38Z</time>
      </trkpt>
      <trkpt lat="44.09633" lon="1.82102">
        <ele>303.6</ele>
        <time>2024-04-07T08:06:39Z</time>
      </trkpt>
      <trkpt lat="44.09638" lon="1.82097">
        <ele>303.2</ele>
        <time>2024-04-07T08:06:40Z</time>
      </trkpt>
      <trkpt lat="44.09642" lon="1.82093">
        <ele>303</ele>
        <time>2024-04-07T08:06:41Z</time>
      </trkpt>
      <trkpt lat="44.09645" lon="1.82091">
        <ele>302.4</ele>
        <time>2024-04-07T08:06:42Z</time>
      </trkpt>
      <trkpt lat="44.09649" lon="1.82089">
        <ele>302.2</ele>
        <time>2024-04-07T08:06:43Z</time>
      </trkpt>
      <trkpt lat="44.09655" lon="1.82086">
        <ele>301.4</ele>
        <time>2024-04-07T08:06:44Z</time>
      </trkpt>
      <trkpt lat="44.09662" lon="1.82079">
        <ele>301</ele>
        <time>2024-04-07T08:06:45Z</time>
      </trkpt>
      <trkpt lat="44.09665" lon="1.82074">
        <ele>300.2</ele>
        <time>2024-04-07T08:06:46Z</time>
      </trkpt>
      <trkpt lat="44.09668" lon="1.8207">
        <ele>299.2</ele>
        <time>2024-04-07T08:06:47Z</time>
      </trkpt>
      <trkpt lat="44.09671" lon="1.82066">
        <ele>298.8</ele>
        <time>2024-04-07T08:06:48Z</time>
      </trkpt>
      <trkpt lat="44.09675" lon="1.82062">
        <ele>297.8</ele>
        <time>2024-04-07T08:06:49Z</time>
      </trkpt>
      <trkpt lat="44.0968" lon="1.82059">
        <ele>297.4</ele>
        <time>2024-04-07T08:06:50Z</time>
      </trkpt>
      <trkpt lat="44.09684" lon="1.82055">
        <ele>297</ele>
        <time>2024-04-07T08:06:51Z</time>
      </trkpt>
      <trkpt lat="44.09688" lon="1.82052">
        <ele>296.6</ele>
        <time>2024-04-07T08:06:52Z</time>
      </trkpt>
      <trkpt lat="44.09691" lon="1.82048">
        <ele>295.4</ele>
        <time>2024-04-07T08:06:53Z</time>
      </trkpt>
      <trkpt lat="44.09695" lon="1.82043">
        <ele>294.2</ele>
        <time>2024-04-07T08:06:54Z</time>
      </trkpt>
      <trkpt lat="44.097" lon="1.82037">
        <ele>294</ele>
        <time>2024-04-07T08:06:55Z</time>
      </trkpt>
      <trkpt lat="44.09705" lon="1.82029">
        <ele>293.2</ele>
        <time>2024-04-07T08:06:56Z</time>
      </trkpt>
      <trkpt lat="44.0971" lon="1.82018">
        <ele>292.8</ele>
        <time>2024-04-07T08:06:57Z</time>
      </trkpt>
      <trkpt lat="44.09715" lon="1.82009">
        <ele>292</ele>
        <time>2024-04-07T08:06:58Z</time>
      </trkpt>
      <trkpt lat="44.09718" lon="1.82002">
        <ele>291</ele>
        <time>2024-04-07T08:06:59Z</time>
      </trkpt>
      <trkpt lat="44.09722" lon="1.81992">
        <ele>289.8</ele>
        <time>2024-04-07T08:07:00Z</time>
      </trkpt>
      <trkpt lat="44.09727" lon="1.81984">
        <ele>289.2</ele>
        <time>2024-04-07T08:07:01Z</time>
      </trkpt>
      <trkpt lat="44.09731" lon="1.81974">
        <ele>288.6</ele>
        <time>2024-04-07T08:07:02Z</time>
      </trkpt>
      <trkpt lat="44.09734" lon="1.81964">
        <ele>288</ele>
        <time>2024-04-07T08:07:03Z</time>
      </trkpt>
      <trkpt lat="44.09738" lon="1.81955">
        <ele>287.8</ele>
        <time>2024-04-07T08:07:04Z</time>
      </trkpt>
      <trkpt lat="44.09746" lon="1.81944">
        <ele>287.6</ele>
        <time>2024-04-07T08:07:05Z</time>
      </trkpt>
      <trkpt lat="44.09754" lon="1.81939">
        <ele>287.4</ele>
        <time>2024-04-07T08:07:06Z</time>
      </trkpt>
      <trkpt lat="44.09762" lon="1.81936">
        <ele>286.4</ele>
        <time>2024-04-07T08:07:07Z</time>
      </trkpt>
      <trkpt lat="44.0977" lon="1.81935">
        <ele>285.8</ele>
        <time>2024-04-07T08:07:08Z</time>
      </trkpt>
      <trkpt lat="44.09778" lon="1.81934">
        <ele>284.6</ele>
        <time>2024-04-07T08:07:09Z</time>
      </trkpt>
      <trkpt lat="44.09786" lon="1.81933">
        <ele>284.2</ele>
        <time>2024-04-07T08:07:10Z</time>
      </trkpt>
      <trkpt lat="44.09794" lon="1.81928">
        <ele>282.4</ele>
        <time>2024-04-07T08:07:11Z</time>
      </trkpt>
      <trkpt lat="44.09802" lon="1.81922">
        <ele>281.4</ele>
        <time>2024-04-07T08:07:12Z</time>
      </trkpt>
      <trkpt lat="44.09806" lon="1.81916">
        <ele>281</ele>
        <time>2024-04-07T08:07:13Z</time>
      </trkpt>
      <trkpt lat="44.09809" lon="1.8191">
        <ele>279.8</ele>
        <time>2024-04-07T08:07:14Z</time>
      </trkpt>
      <trkpt lat="44.09811" lon="1.81903">
        <ele>279.4</ele>
        <time>2024-04-07T08:07:15Z</time>
      </trkpt>
      <trkpt lat="44.09814" lon="1.81895">
        <ele>278.8</ele>
        <time>2024-04-07T08:07:16Z</time>
      </trkpt>
      <trkpt lat="44.09817" lon="1.81888">
        <ele>278.4</ele>
        <time>2024-04-07T08:07:17Z</time>
      </trkpt>
      <trkpt lat="44.09819" lon="1.81884">
        <ele>278.2</ele>
        <time>2024-04-07T08:07:18Z</time>
      </trkpt>
      <trkpt lat="44.09825" lon="1.81875">
        <ele>278</ele>
        <time>2024-04-07T08:07:19Z</time>
      </trkpt>
      <trkpt lat="44.0983" lon="1.81866">
        <ele>277.6</ele>
        <time>2024-04-07T08:07:20Z</time>
      </trkpt>
      <trkpt lat="44.09832" lon="1.81854">
        <ele>277.4</ele>
        <time>2024-04-07T08:07:21Z</time>
      </trkpt>
      <trkpt lat="44.09835" lon="1.81842">
        <ele>277</ele>
        <time>2024-04-07T08:07:22Z</time>
      </trkpt>
      <trkpt lat="44.09838" lon="1.81831">
        <ele>276.6</ele>
        <time>2024-04-07T08:07:23Z</time>
      </trkpt>
      <trkpt lat="44.09843" lon="1.8182">
        <ele>276.4</ele>
        <time>2024-04-07T08:07:24Z</time>
      </trkpt>
      <trkpt lat="44.0985" lon="1.8181">
        <ele>276.2</ele>
        <time>2024-04-07T08:07:25Z</time>
      </trkpt>
      <trkpt lat="44.09856" lon="1.818">
        <ele>275.8</ele>
        <time>2024-04-07T08:07:26Z</time>
      </trkpt>
      <trkpt lat="44.09863" lon="1.81792">
        <ele>274.8</ele>
        <time>2024-04-07T08:07:27Z</time>
      </trkpt>
      <trkpt lat="44.09871" lon="1.81784">
        <ele>274.2</ele>
        <time>2024-04-07T08:07:28Z</time>
      </trkpt>
      <trkpt lat="44.09879" lon="1.81774">
        <ele>273.2</ele>
        <time>2024-04-07T08:07:29Z</time>
      </trkpt>
      <trkpt lat="44.09886" lon="1.81764">
        <ele>272.4</ele>
        <time>2024-04-07T08:07:30Z</time>
      </trkpt>
      <trkpt lat="44.0989" lon="1.81755">
        <ele>272</ele>
        <time>2024-04-07T08:07:31Z</time>
      </trkpt>
      <trkpt lat="44.09894" lon="1.81745">
        <ele>271.6</ele>
        <time>2024-04-07T08:07:32Z</time>
      </trkpt>
      <trkpt lat="44.09899" lon="1.81736">
        <ele>271</ele>
        <time>2024-04-07T08:07:33Z</time>
      </trkpt>
      <trkpt lat="44.09904" lon="1.81726">
        <ele>270.4</ele>
        <time>2024-04-07T08:07:34Z</time>
      </trkpt>
      <trkpt lat="44.0991" lon="1.81717">
        <ele>270</ele>
        <time>2024-04-07T08:07:35Z</time>
      </trkpt>
      <trkpt lat="44.09916" lon="1.81706">
        <ele>269.4</ele>
        <time>2024-04-07T08:07:36Z</time>
      </trkpt>
      <trkpt lat="44.09922" lon="1.81696">
        <ele>268.6</ele>
        <time>2024-04-07T08:07:37Z</time>
      </trkpt>
      <trkpt lat="44.09928" lon="1.81687">
        <ele>268.2</ele>
        <time>2024-04-07T08:07:38Z</time>
      </trkpt>
      <trkpt lat="44.09935" lon="1.81677">
        <ele>267.6</ele>
        <time>2024-04-07T08:07:39Z</time>
      </trkpt>
      <trkpt lat="44.09941" lon="1.81669">
        <ele>267.4</ele>
        <time>2024-04-07T08:07:40Z</time>
      </trkpt>
      <trkpt lat="44.09948" lon="1.81661">
        <ele>266.6</ele>
        <time>2024-04-07T08:07:41Z</time>
      </trkpt>
      <trkpt lat="44.09954" lon="1.81653">
        <ele>266</ele>
        <time>2024-04-07T08:07:42Z</time>
      </trkpt>
      <trkpt lat="44.09961" lon="1.81646">
        <ele>264.8</ele>
        <time>2024-04-07T08:07:43Z</time>
      </trkpt>
      <trkpt lat="44.09969" lon="1.81638">
        <ele>264.4</ele>
        <time>2024-04-07T08:07:44Z</time>
      </trkpt>
      <trkpt lat="44.09976" lon="1.81634">
        <ele>263.6</ele>
        <time>2024-04-07T08:07:45Z</time>
      </trkpt>
      <trkpt lat="44.09986" lon="1.81627">
        <ele>263.2</ele>
        <time>2024-04-07T08:07:46Z</time>
      </trkpt>
      <trkpt lat="44.10002" lon="1.81618">
        <ele>262.6</ele>
        <time>2024-04-07T08:07:48Z</time>
      </trkpt>
      <trkpt lat="44.1001" lon="1.81613">
        <ele>262.4</ele>
        <time>2024-04-07T08:07:49Z</time>
      </trkpt>
      <trkpt lat="44.10018" lon="1.81609">
        <ele>261.6</ele>
        <time>2024-04-07T08:07:50Z</time>
      </trkpt>
      <trkpt lat="44.10026" lon="1.81605">
        <ele>261.2</ele>
        <time>2024-04-07T08:07:51Z</time>
      </trkpt>
      <trkpt lat="44.10035" lon="1.81602">
        <ele>260.6</ele>
        <time>2024-04-07T08:07:52Z</time>
      </trkpt>
      <trkpt lat="44.10043" lon="1.81599">
        <ele>260.4</ele>
        <time>2024-04-07T08:07:53Z</time>
      </trkpt>
      <trkpt lat="44.10052" lon="1.81598">
        <ele>260</ele>
        <time>2024-04-07T08:07:54Z</time>
      </trkpt>
      <trkpt lat="44.10072" lon="1.81599">
        <ele>259.2</ele>
        <time>2024-04-07T08:07:56Z</time>
      </trkpt>
      <trkpt lat="44.1008" lon="1.81599">
        <ele>259</ele>
        <time>2024-04-07T08:07:57Z</time>
      </trkpt>
      <trkpt lat="44.1009" lon="1.81598">
        <ele>258.8</ele>
        <time>2024-04-07T08:07:58Z</time>
      </trkpt>
      <trkpt lat="44.10101" lon="1.81599">
        <ele>257.4</ele>
        <time>2024-04-07T08:07:59Z</time>
      </trkpt>
      <trkpt lat="44.10112" lon="1.81601">
        <ele>256.8</ele>
        <time>2024-04-07T08:08:00Z</time>
      </trkpt>
      <trkpt lat="44.10123" lon="1.81604">
        <ele>255.2</ele>
        <time>2024-04-07T08:08:01Z</time>
      </trkpt>
      <trkpt lat="44.10133" lon="1.81607">
        <ele>253.8</ele>
        <time>2024-04-07T08:08:02Z</time>
      </trkpt>
      <trkpt lat="44.10154" lon="1.81614">
        <ele>252.2</ele>
        <time>2024-04-07T08:08:04Z</time>
      </trkpt>
      <trkpt lat="44.10163" lon="1.81616">
        <ele>252</ele>
        <time>2024-04-07T08:08:05Z</time>
      </trkpt>
      <trkpt lat="44.10172" lon="1.81618">
        <ele>251.4</ele>
        <time>2024-04-07T08:08:06Z</time>
      </trkpt>
      <trkpt lat="44.10182" lon="1.81619">
        <ele>251.2</ele>
        <time>2024-04-07T08:08:07Z</time>
      </trkpt>
      <trkpt lat="44.1019" lon="1.8162">
        <ele>250.8</ele>
        <time>2024-04-07T08:08:08Z</time>
      </trkpt>
      <trkpt lat="44.10198" lon="1.81619">
        <ele>250.8</ele>
        <time>2024-04-07T08:08:09Z</time>
      </trkpt>
      <trkpt lat="44.10207" lon="1.81618">
        <ele>250.4</ele>
        <time>2024-04-07T08:08:10Z</time>
      </trkpt>
      <trkpt lat="44.10216" lon="1.81616">
        <ele>250.2</ele>
        <time>2024-04-07T08:08:11Z</time>
      </trkpt>
      <trkpt lat="44.10225" lon="1.81615">
        <ele>250</ele>
        <time>2024-04-07T08:08:12Z</time>
      </trkpt>
      <trkpt lat="44.10235" lon="1.81613">
        <ele>250</ele>
        <time>2024-04-07T08:08:13Z</time>
      </trkpt>
      <trkpt lat="44.10257" lon="1.81609">
        <ele>249.4</ele>
        <time>2024-04-07T08:08:15Z</time>
      </trkpt>
      <trkpt lat="44.10268" lon="1.81606">
        <ele>249</ele>
        <time>2024-04-07T08:08:16Z</time>
      </trkpt>
      <trkpt lat="44.10278" lon="1.81603">
        <ele>248.2</ele>
        <time>2024-04-07T08:08:17Z</time>
      </trkpt>
      <trkpt lat="44.10288" lon="1.816">
        <ele>247.8</ele>
        <time>2024-04-07T08:08:18Z</time>
      </trkpt>
      <trkpt lat="44.10298" lon="1.81596">
        <ele>247</ele>
        <time>2024-04-07T08:08:19Z</time>
      </trkpt>
      <trkpt lat="44.10307" lon="1.81591">
        <ele>246.2</ele>
        <time>2024-04-07T08:08:20Z</time>
      </trkpt>
      <trkpt lat="44.10315" lon="1.81586">
        <ele>246</ele>
        <time>2024-04-07T08:08:21Z</time>
      </trkpt>
      <trkpt lat="44.10322" lon="1.81581">
        <ele>245</ele>
        <time>2024-04-07T08:08:22Z</time>
      </trkpt>
      <trkpt lat="44.10329" lon="1.81575">
        <ele>244.6</ele>
        <time>2024-04-07T08:08:23Z</time>
      </trkpt>
      <trkpt lat="44.10337" lon="1.8157">
        <ele>244.2</ele>
        <time>2024-04-07T08:08:24Z</time>
      </trkpt>
      <trkpt lat="44.10344" lon="1.81564">
        <ele>244.2</ele>
        <time>2024-04-07T08:08:25Z</time>
      </trkpt>
      <trkpt lat="44.1035" lon="1.81558">
        <ele>243.8</ele>
        <time>2024-04-07T08:08:26Z</time>
      </trkpt>
      <trkpt lat="44.10357" lon="1.81552">
        <ele>243.6</ele>
        <time>2024-04-07T08:08:27Z</time>
      </trkpt>
      <trkpt lat="44.1037" lon="1.81537">
        <ele>243.4</ele>
        <time>2024-04-07T08:08:29Z</time>
      </trkpt>
      <trkpt lat="44.10383" lon="1.81522">
        <ele>243</ele>
        <time>2024-04-07T08:08:31Z</time>
      </trkpt>
      <trkpt lat="44.10389" lon="1.81517">
        <ele>242.6</ele>
        <time>2024-04-07T08:08:32Z</time>
      </trkpt>
      <trkpt lat="44.10396" lon="1.81509">
        <ele>242</ele>
        <time>2024-04-07T08:08:33Z</time>
      </trkpt>
      <trkpt lat="44.10403" lon="1.81502">
        <ele>241.8</ele>
        <time>2024-04-07T08:08:34Z</time>
      </trkpt>
      <trkpt lat="44.1041" lon="1.81494">
        <ele>241.2</ele>
        <time>2024-04-07T08:08:35Z</time>
      </trkpt>
      <trkpt lat="44.10419" lon="1.81485">
        <ele>241.2</ele>
        <time>2024-04-07T08:08:36Z</time>
      </trkpt>
      <trkpt lat="44.10432" lon="1.81471">
        <ele>240.2</ele>
        <time>2024-04-07T08:08:38Z</time>
      </trkpt>
      <trkpt lat="44.10442" lon="1.81465">
        <ele>239.6</ele>
        <time>2024-04-07T08:08:39Z</time>
      </trkpt>
      <trkpt lat="44.10449" lon="1.81461">
        <ele>238.6</ele>
        <time>2024-04-07T08:08:40Z</time>
      </trkpt>
      <trkpt lat="44.10458" lon="1.81458">
        <ele>238.2</ele>
        <time>2024-04-07T08:08:41Z</time>
      </trkpt>
      <trkpt lat="44.10464" lon="1.81456">
        <ele>237.6</ele>
        <time>2024-04-07T08:08:42Z</time>
      </trkpt>
      <trkpt lat="44.10474" lon="1.81452">
        <ele>237.4</ele>
        <time>2024-04-07T08:08:43Z</time>
      </trkpt>
      <trkpt lat="44.10482" lon="1.8145">
        <ele>237</ele>
        <time>2024-04-07T08:08:44Z</time>
      </trkpt>
      <trkpt lat="44.10491" lon="1.81447">
        <ele>237</ele>
        <time>2024-04-07T08:08:45Z</time>
      </trkpt>
      <trkpt lat="44.10499" lon="1.81443">
        <ele>236.6</ele>
        <time>2024-04-07T08:08:46Z</time>
      </trkpt>
      <trkpt lat="44.10506" lon="1.81439">
        <ele>236.2</ele>
        <time>2024-04-07T08:08:47Z</time>
      </trkpt>
      <trkpt lat="44.10513" lon="1.81434">
        <ele>236</ele>
        <time>2024-04-07T08:08:48Z</time>
      </trkpt>
      <trkpt lat="44.1052" lon="1.81428">
        <ele>235.8</ele>
        <time>2024-04-07T08:08:49Z</time>
      </trkpt>
      <trkpt lat="44.10527" lon="1.81422">
        <ele>235.6</ele>
        <time>2024-04-07T08:08:50Z</time>
      </trkpt>
      <trkpt lat="44.10537" lon="1.81416">
        <ele>235.2</ele>
        <time>2024-04-07T08:08:51Z</time>
      </trkpt>
      <trkpt lat="44.10544" lon="1.81412">
        <ele>235.2</ele>
        <time>2024-04-07T08:08:52Z</time>
      </trkpt>
      <trkpt lat="44.10552" lon="1.81408">
        <ele>234.8</ele>
        <time>2024-04-07T08:08:53Z</time>
      </trkpt>
      <trkpt lat="44.1056" lon="1.81405">
        <ele>234.6</ele>
        <time>2024-04-07T08:08:54Z</time>
      </trkpt>
      <trkpt lat="44.10567" lon="1.81402">
        <ele>234.6</ele>
        <time>2024-04-07T08:08:55Z</time>
      </trkpt>
      <trkpt lat="44.10572" lon="1.81401">
        <ele>234</ele>
        <time>2024-04-07T08:08:56Z</time>
      </trkpt>
      <trkpt lat="44.1058" lon="1.81398">
        <ele>233.6</ele>
        <time>2024-04-07T08:08:57Z</time>
      </trkpt>
      <trkpt lat="44.10588" lon="1.81396">
        <ele>233</ele>
        <time>2024-04-07T08:08:58Z</time>
      </trkpt>
      <trkpt lat="44.10594" lon="1.81394">
        <ele>232.8</ele>
        <time>2024-04-07T08:08:59Z</time>
      </trkpt>
      <trkpt lat="44.10602" lon="1.81391">
        <ele>232.2</ele>
        <time>2024-04-07T08:09:00Z</time>
      </trkpt>
      <trkpt lat="44.10612" lon="1.81385">
        <ele>232</ele>
        <time>2024-04-07T08:09:01Z</time>
      </trkpt>
      <trkpt lat="44.1062" lon="1.8138">
        <ele>231.8</ele>
        <time>2024-04-07T08:09:02Z</time>
      </trkpt>
      <trkpt lat="44.10629" lon="1.81373">
        <ele>231.4</ele>
        <time>2024-04-07T08:09:03Z</time>
      </trkpt>
      <trkpt lat="44.10648" lon="1.8136">
        <ele>230.6</ele>
        <time>2024-04-07T08:09:05Z</time>
      </trkpt>
      <trkpt lat="44.10657" lon="1.81354">
        <ele>230.4</ele>
        <time>2024-04-07T08:09:06Z</time>
      </trkpt>
      <trkpt lat="44.10662" lon="1.81351">
        <ele>230</ele>
        <time>2024-04-07T08:09:07Z</time>
      </trkpt>
      <trkpt lat="44.1067" lon="1.81347">
        <ele>229.6</ele>
        <time>2024-04-07T08:09:08Z</time>
      </trkpt>
      <trkpt lat="44.10682" lon="1.81339">
        <ele>229</ele>
        <time>2024-04-07T08:09:10Z</time>
      </trkpt>
      <trkpt lat="44.10689" lon="1.81335">
        <ele>228.6</ele>
        <time>2024-04-07T08:09:11Z</time>
      </trkpt>
      <trkpt lat="44.10698" lon="1.81329">
        <ele>228.4</ele>
        <time>2024-04-07T08:09:12Z</time>
      </trkpt>
      <trkpt lat="44.10706" lon="1.81324">
        <ele>228.4</ele>
        <time>2024-04-07T08:09:13Z</time>
      </trkpt>
      <trkpt lat="44.10718" lon="1.81317">
        <ele>228</ele>
        <time>2024-04-07T08:09:15Z</time>
      </trkpt>
      <trkpt lat="44.10725" lon="1.81314">
        <ele>227.8</ele>
        <time>2024-04-07T08:09:16Z</time>
      </trkpt>
      <trkpt lat="44.10731" lon="1.81312">
        <ele>227.6</ele>
        <time>2024-04-07T08:09:17Z</time>
      </trkpt>
      <trkpt lat="44.10736" lon="1.8131">
        <ele>227.2</ele>
        <time>2024-04-07T08:09:18Z</time>
      </trkpt>
      <trkpt lat="44.10743" lon="1.81307">
        <ele>227.2</ele>
        <time>2024-04-07T08:09:19Z</time>
      </trkpt>
      <trkpt lat="44.10748" lon="1.81306">
        <ele>227</ele>
        <time>2024-04-07T08:09:20Z</time>
      </trkpt>
      <trkpt lat="44.10753" lon="1.81304">
        <ele>226.8</ele>
        <time>2024-04-07T08:09:21Z</time>
      </trkpt>
      <trkpt lat="44.10759" lon="1.81302">
        <ele>226.8</ele>
        <time>2024-04-07T08:09:22Z</time>
      </trkpt>
      <trkpt lat="44.10766" lon="1.813">
        <ele>226.6</ele>
        <time>2024-04-07T08:09:23Z</time>
      </trkpt>
      <trkpt lat="44.10773" lon="1.81299">
        <ele>226.6</ele>
        <time>2024-04-07T08:09:24Z</time>
      </trkpt>
      <trkpt lat="44.10782" lon="1.81298">
        <ele>226.4</ele>
        <time>2024-04-07T08:09:25Z</time>
      </trkpt>
      <trkpt lat="44.10789" lon="1.81296">
        <ele>226.4</ele>
        <time>2024-04-07T08:09:26Z</time>
      </trkpt>
      <trkpt lat="44.10797" lon="1.81294">
        <ele>226.4</ele>
        <time>2024-04-07T08:09:27Z</time>
      </trkpt>
      <trkpt lat="44.10804" lon="1.81292">
        <ele>226.2</ele>
        <time>2024-04-07T08:09:28Z</time>
      </trkpt>
      <trkpt lat="44.10812" lon="1.81288">
        <ele>226.2</ele>
        <time>2024-04-07T08:09:29Z</time>
      </trkpt>
      <trkpt lat="44.10819" lon="1.81284">
        <ele>226</ele>
        <time>2024-04-07T08:09:30Z</time>
      </trkpt>
      <trkpt lat="44.10827" lon="1.8128">
        <ele>225.8</ele>
        <time>2024-04-07T08:09:31Z</time>
      </trkpt>
      <trkpt lat="44.10834" lon="1.81278">
        <ele>225.6</ele>
        <time>2024-04-07T08:09:32Z</time>
      </trkpt>
      <trkpt lat="44.10844" lon="1.81274">
        <ele>225.4</ele>
        <time>2024-04-07T08:09:33Z</time>
      </trkpt>
      <trkpt lat="44.10852" lon="1.81271">
        <ele>224.8</ele>
        <time>2024-04-07T08:09:34Z</time>
      </trkpt>
      <trkpt lat="44.1086" lon="1.81267">
        <ele>224.6</ele>
        <time>2024-04-07T08:09:35Z</time>
      </trkpt>
      <trkpt lat="44.10867" lon="1.81262">
        <ele>224.2</ele>
        <time>2024-04-07T08:09:36Z</time>
      </trkpt>
      <trkpt lat="44.10872" lon="1.81257">
        <ele>224</ele>
        <time>2024-04-07T08:09:37Z</time>
      </trkpt>
      <trkpt lat="44.10877" lon="1.8125">
        <ele>223.8</ele>
        <time>2024-04-07T08:09:38Z</time>
      </trkpt>
      <trkpt lat="44.10882" lon="1.81242">
        <ele>223.2</ele>
        <time>2024-04-07T08:09:39Z</time>
      </trkpt>
      <trkpt lat="44.10888" lon="1.81234">
        <ele>223</ele>
        <time>2024-04-07T08:09:40Z</time>
      </trkpt>
      <trkpt lat="44.10892" lon="1.81228">
        <ele>222.8</ele>
        <time>2024-04-07T08:09:41Z</time>
      </trkpt>
      <trkpt lat="44.10896" lon="1.81221">
        <ele>222.6</ele>
        <time>2024-04-07T08:09:42Z</time>
      </trkpt>
      <trkpt lat="44.109" lon="1.81212">
        <ele>222.2</ele>
        <time>2024-04-07T08:09:43Z</time>
      </trkpt>
      <trkpt lat="44.10902" lon="1.81205">
        <ele>222</ele>
        <time>2024-04-07T08:09:44Z</time>
      </trkpt>
      <trkpt lat="44.10905" lon="1.81194">
        <ele>221.8</ele>
        <time>2024-04-07T08:09:45Z</time>
      </trkpt>
      <trkpt lat="44.10908" lon="1.81187">
        <ele>221.6</ele>
        <time>2024-04-07T08:09:46Z</time>
      </trkpt>
      <trkpt lat="44.10912" lon="1.81179">
        <ele>221.2</ele>
        <time>2024-04-07T08:09:47Z</time>
      </trkpt>
      <trkpt lat="44.10917" lon="1.81171">
        <ele>221</ele>
        <time>2024-04-07T08:09:48Z</time>
      </trkpt>
      <trkpt lat="44.10922" lon="1.81163">
        <ele>220.8</ele>
        <time>2024-04-07T08:09:49Z</time>
      </trkpt>
      <trkpt lat="44.10927" lon="1.81156">
        <ele>220.4</ele>
        <time>2024-04-07T08:09:50Z</time>
      </trkpt>
      <trkpt lat="44.10932" lon="1.81148">
        <ele>220.2</ele>
        <time>2024-04-07T08:09:51Z</time>
      </trkpt>
      <trkpt lat="44.10936" lon="1.81141">
        <ele>219.8</ele>
        <time>2024-04-07T08:09:52Z</time>
      </trkpt>
      <trkpt lat="44.10941" lon="1.81132">
        <ele>219.8</ele>
        <time>2024-04-07T08:09:53Z</time>
      </trkpt>
      <trkpt lat="44.10943" lon="1.81126">
        <ele>219.4</ele>
        <time>2024-04-07T08:09:54Z</time>
      </trkpt>
      <trkpt lat="44.10946" lon="1.8112">
        <ele>219.2</ele>
        <time>2024-04-07T08:09:55Z</time>
      </trkpt>
      <trkpt lat="44.10948" lon="1.81113">
        <ele>219.2</ele>
        <time>2024-04-07T08:09:56Z</time>
      </trkpt>
      <trkpt lat="44.10949" lon="1.81106">
        <ele>219.2</ele>
        <time>2024-04-07T08:09:57Z</time>
      </trkpt>
      <trkpt lat="44.1095" lon="1.81099">
        <ele>219.2</ele>
        <time>2024-04-07T08:09:58Z</time>
      </trkpt>
      <trkpt lat="44.10951" lon="1.81092">
        <ele>219</ele>
        <time>2024-04-07T08:09:59Z</time>
      </trkpt>
      <trkpt lat="44.10953" lon="1.81085">
        <ele>219.2</ele>
        <time>2024-04-07T08:10:00Z</time>
      </trkpt>
      <trkpt lat="44.10954" lon="1.81079">
        <ele>219.2</ele>
        <time>2024-04-07T08:10:01Z</time>
      </trkpt>
      <trkpt lat="44.10955" lon="1.81072">
        <ele>219.4</ele>
        <time>2024-04-07T08:10:02Z</time>
      </trkpt>
      <trkpt lat="44.10958" lon="1.81064">
        <ele>219.2</ele>
        <time>2024-04-07T08:10:03Z</time>
      </trkpt>
      <trkpt lat="44.10962" lon="1.81057">
        <ele>219.2</ele>
        <time>2024-04-07T08:10:04Z</time>
      </trkpt>
      <trkpt lat="44.10966" lon="1.81049">
        <ele>219.2</ele>
        <time>2024-04-07T08:10:05Z</time>
      </trkpt>
      <trkpt lat="44.1097" lon="1.81043">
        <ele>219.2</ele>
        <time>2024-04-07T08:10:06Z</time>
      </trkpt>
      <trkpt lat="44.10974" lon="1.81037">
        <ele>219.2</ele>
        <time>2024-04-07T08:10:07Z</time>
      </trkpt>
      <trkpt lat="44.10978" lon="1.81031">
        <ele>219</ele>
        <time>2024-04-07T08:10:08Z</time>
      </trkpt>
      <trkpt lat="44.10982" lon="1.81026">
        <ele>219</ele>
        <time>2024-04-07T08:10:09Z</time>
      </trkpt>
      <trkpt lat="44.10985" lon="1.81022">
        <ele>219.2</ele>
        <time>2024-04-07T08:10:10Z</time>
      </trkpt>
      <trkpt lat="44.10988" lon="1.81017">
        <ele>219.2</ele>
        <time>2024-04-07T08:10:11Z</time>
      </trkpt>
      <trkpt lat="44.10991" lon="1.81013">
        <ele>219.2</ele>
        <time>2024-04-07T08:10:12Z</time>
      </trkpt>
      <trkpt lat="44.10994" lon="1.8101">
        <ele>219.4</ele>
        <time>2024-04-07T08:10:13Z</time>
      </trkpt>
      <trkpt lat="44.10998" lon="1.81005">
        <ele>219.4</ele>
        <time>2024-04-07T08:10:14Z</time>
      </trkpt>
      <trkpt lat="44.11005" lon="1.80995">
        <ele>219.8</ele>
        <time>2024-04-07T08:10:16Z</time>
      </trkpt>
      <trkpt lat="44.11009" lon="1.8099">
        <ele>220.2</ele>
        <time>2024-04-07T08:10:17Z</time>
      </trkpt>
      <trkpt lat="44.11013" lon="1.80983">
        <ele>220.4</ele>
        <time>2024-04-07T08:10:18Z</time>
      </trkpt>
      <trkpt lat="44.11019" lon="1.8097">
        <ele>220.8</ele>
        <time>2024-04-07T08:10:20Z</time>
      </trkpt>
      <trkpt lat="44.11021" lon="1.80963">
        <ele>221</ele>
        <time>2024-04-07T08:10:21Z</time>
      </trkpt>
      <trkpt lat="44.11023" lon="1.80957">
        <ele>221</ele>
        <time>2024-04-07T08:10:22Z</time>
      </trkpt>
      <trkpt lat="44.11026" lon="1.80951">
        <ele>221</ele>
        <time>2024-04-07T08:10:23Z</time>
      </trkpt>
      <trkpt lat="44.11027" lon="1.80945">
        <ele>221</ele>
        <time>2024-04-07T08:10:24Z</time>
      </trkpt>
      <trkpt lat="44.11028" lon="1.80938">
        <ele>221.2</ele>
        <time>2024-04-07T08:10:25Z</time>
      </trkpt>
      <trkpt lat="44.11029" lon="1.80931">
        <ele>221.2</ele>
        <time>2024-04-07T08:10:26Z</time>
      </trkpt>
      <trkpt lat="44.11028" lon="1.80924">
        <ele>221.2</ele>
        <time>2024-04-07T08:10:27Z</time>
      </trkpt>
      <trkpt lat="44.11027" lon="1.80917">
        <ele>221.2</ele>
        <time>2024-04-07T08:10:28Z</time>
      </trkpt>
      <trkpt lat="44.11025" lon="1.8091">
        <ele>221.2</ele>
        <time>2024-04-07T08:10:29Z</time>
      </trkpt>
      <trkpt lat="44.11022" lon="1.80903">
        <ele>221.2</ele>
        <time>2024-04-07T08:10:30Z</time>
      </trkpt>
      <trkpt lat="44.11019" lon="1.80895">
        <ele>220.8</ele>
        <time>2024-04-07T08:10:31Z</time>
      </trkpt>
      <trkpt lat="44.11014" lon="1.80879">
        <ele>220.6</ele>
        <time>2024-04-07T08:10:33Z</time>
      </trkpt>
      <trkpt lat="44.11012" lon="1.80871">
        <ele>220.6</ele>
        <time>2024-04-07T08:10:34Z</time>
      </trkpt>
      <trkpt lat="44.11011" lon="1.80862">
        <ele>220.4</ele>
        <time>2024-04-07T08:10:35Z</time>
      </trkpt>
      <trkpt lat="44.1101" lon="1.8085">
        <ele>220</ele>
        <time>2024-04-07T08:10:36Z</time>
      </trkpt>
      <trkpt lat="44.1101" lon="1.8084">
        <ele>219.4</ele>
        <time>2024-04-07T08:10:37Z</time>
      </trkpt>
      <trkpt lat="44.1101" lon="1.80831">
        <ele>219.2</ele>
        <time>2024-04-07T08:10:38Z</time>
      </trkpt>
      <trkpt lat="44.11011" lon="1.80821">
        <ele>218.6</ele>
        <time>2024-04-07T08:10:39Z</time>
      </trkpt>
      <trkpt lat="44.11013" lon="1.80811">
        <ele>218</ele>
        <time>2024-04-07T08:10:40Z</time>
      </trkpt>
      <trkpt lat="44.11016" lon="1.80801">
        <ele>217.8</ele>
        <time>2024-04-07T08:10:41Z</time>
      </trkpt>
      <trkpt lat="44.1102" lon="1.80792">
        <ele>217.6</ele>
        <time>2024-04-07T08:10:42Z</time>
      </trkpt>
      <trkpt lat="44.11025" lon="1.80785">
        <ele>217.4</ele>
        <time>2024-04-07T08:10:43Z</time>
      </trkpt>
      <trkpt lat="44.1103" lon="1.80778">
        <ele>217.4</ele>
        <time>2024-04-07T08:10:44Z</time>
      </trkpt>
      <trkpt lat="44.11037" lon="1.80771">
        <ele>217</ele>
        <time>2024-04-07T08:10:45Z</time>
      </trkpt>
      <trkpt lat="44.11042" lon="1.80764">
        <ele>216.6</ele>
        <time>2024-04-07T08:10:46Z</time>
      </trkpt>
      <trkpt lat="44.11048" lon="1.80757">
        <ele>216</ele>
        <time>2024-04-07T08:10:47Z</time>
      </trkpt>
      <trkpt lat="44.11053" lon="1.8075">
        <ele>215.8</ele>
        <time>2024-04-07T08:10:48Z</time>
      </trkpt>
      <trkpt lat="44.11059" lon="1.80743">
        <ele>215.2</ele>
        <time>2024-04-07T08:10:49Z</time>
      </trkpt>
      <trkpt lat="44.11066" lon="1.80735">
        <ele>215</ele>
        <time>2024-04-07T08:10:50Z</time>
      </trkpt>
      <trkpt lat="44.11071" lon="1.80729">
        <ele>214.6</ele>
        <time>2024-04-07T08:10:51Z</time>
      </trkpt>
      <trkpt lat="44.11078" lon="1.80722">
        <ele>214.4</ele>
        <time>2024-04-07T08:10:52Z</time>
      </trkpt>
      <trkpt lat="44.11086" lon="1.80715">
        <ele>214.2</ele>
        <time>2024-04-07T08:10:53Z</time>
      </trkpt>
      <trkpt lat="44.11092" lon="1.80709">
        <ele>213.8</ele>
        <time>2024-04-07T08:10:54Z</time>
      </trkpt>
      <trkpt lat="44.11097" lon="1.80702">
        <ele>213.8</ele>
        <time>2024-04-07T08:10:55Z</time>
      </trkpt>
      <trkpt lat="44.11101" lon="1.80695">
        <ele>213.4</ele>
        <time>2024-04-07T08:10:56Z</time>
      </trkpt>
      <trkpt lat="44.11104" lon="1.80687">
        <ele>213.2</ele>
        <time>2024-04-07T08:10:57Z</time>
      </trkpt>
      <trkpt lat="44.11107" lon="1.80677">
        <ele>212.8</ele>
        <time>2024-04-07T08:10:58Z</time>
      </trkpt>
      <trkpt lat="44.11111" lon="1.80666">
        <ele>212.8</ele>
        <time>2024-04-07T08:10:59Z</time>
      </trkpt>
      <trkpt lat="44.11115" lon="1.80654">
        <ele>212.4</ele>
        <time>2024-04-07T08:11:00Z</time>
      </trkpt>
      <trkpt lat="44.11119" lon="1.80642">
        <ele>212.4</ele>
        <time>2024-04-07T08:11:01Z</time>
      </trkpt>
      <trkpt lat="44.11123" lon="1.80631">
        <ele>212</ele>
        <time>2024-04-07T08:11:02Z</time>
      </trkpt>
      <trkpt lat="44.11128" lon="1.8062">
        <ele>211.2</ele>
        <time>2024-04-07T08:11:03Z</time>
      </trkpt>
      <trkpt lat="44.11132" lon="1.80609">
        <ele>210.8</ele>
        <time>2024-04-07T08:11:04Z</time>
      </trkpt>
      <trkpt lat="44.11136" lon="1.80602">
        <ele>210</ele>
        <time>2024-04-07T08:11:05Z</time>
      </trkpt>
      <trkpt lat="44.11139" lon="1.80599">
        <ele>209.4</ele>
        <time>2024-04-07T08:11:06Z</time>
      </trkpt>
      <trkpt lat="44.11141" lon="1.80598">
        <ele>208.6</ele>
        <time>2024-04-07T08:11:07Z</time>
      </trkpt>
      <trkpt lat="44.11143" lon="1.80599">
        <ele>207.8</ele>
        <time>2024-04-07T08:11:08Z</time>
      </trkpt>
      <trkpt lat="44.11145" lon="1.80602">
        <ele>206.6</ele>
        <time>2024-04-07T08:11:09Z</time>
      </trkpt>
      <trkpt lat="44.11147" lon="1.80606">
        <ele>206.2</ele>
        <time>2024-04-07T08:11:10Z</time>
      </trkpt>
      <trkpt lat="44.11149" lon="1.8061">
        <ele>205.6</ele>
        <time>2024-04-07T08:11:11Z</time>
      </trkpt>
      <trkpt lat="44.11152" lon="1.80614">
        <ele>205.2</ele>
        <time>2024-04-07T08:11:12Z</time>
      </trkpt>
      <trkpt lat="44.11156" lon="1.80617">
        <ele>205</ele>
        <time>2024-04-07T08:11:13Z</time>
      </trkpt>
      <trkpt lat="44.11159" lon="1.80621">
        <ele>204.6</ele>
        <time>2024-04-07T08:11:14Z</time>
      </trkpt>
      <trkpt lat="44.11164" lon="1.80625">
        <ele>204.6</ele>
        <time>2024-04-07T08:11:15Z</time>
      </trkpt>
      <trkpt lat="44.11168" lon="1.80629">
        <ele>204.4</ele>
        <time>2024-04-07T08:11:16Z</time>
      </trkpt>
      <trkpt lat="44.11173" lon="1.80634">
        <ele>204.2</ele>
        <time>2024-04-07T08:11:17Z</time>
      </trkpt>
      <trkpt lat="44.11177" lon="1.80638">
        <ele>204</ele>
        <time>2024-04-07T08:11:18Z</time>
      </trkpt>
      <trkpt lat="44.11182" lon="1.80643">
        <ele>203.8</ele>
        <time>2024-04-07T08:11:19Z</time>
      </trkpt>
      <trkpt lat="44.11186" lon="1.80648">
        <ele>203.6</ele>
        <time>2024-04-07T08:11:20Z</time>
      </trkpt>
      <trkpt lat="44.1119" lon="1.80654">
        <ele>203.6</ele>
        <time>2024-04-07T08:11:21Z</time>
      </trkpt>
      <trkpt lat="44.11193" lon="1.8066">
        <ele>203.4</ele>
        <time>2024-04-07T08:11:22Z</time>
      </trkpt>
      <trkpt lat="44.11195" lon="1.80667">
        <ele>203.4</ele>
        <time>2024-04-07T08:11:23Z</time>
      </trkpt>
      <trkpt lat="44.11196" lon="1.80674">
        <ele>203.4</ele>
        <time>2024-04-07T08:11:24Z</time>
      </trkpt>
      <trkpt lat="44.11196" lon="1.80682">
        <ele>203.2</ele>
        <time>2024-04-07T08:11:25Z</time>
      </trkpt>
      <trkpt lat="44.11197" lon="1.80689">
        <ele>203.2</ele>
        <time>2024-04-07T08:11:26Z</time>
      </trkpt>
      <trkpt lat="44.11198" lon="1.80696">
        <ele>203</ele>
        <time>2024-04-07T08:11:27Z</time>
      </trkpt>
      <trkpt lat="44.112" lon="1.80703">
        <ele>202.8</ele>
        <time>2024-04-07T08:11:28Z</time>
      </trkpt>
      <trkpt lat="44.11203" lon="1.80709">
        <ele>202.8</ele>
        <time>2024-04-07T08:11:29Z</time>
      </trkpt>
      <trkpt lat="44.11206" lon="1.80714">
        <ele>203</ele>
        <time>2024-04-07T08:11:30Z</time>
      </trkpt>
      <trkpt lat="44.11209" lon="1.80719">
        <ele>203</ele>
        <time>2024-04-07T08:11:31Z</time>
      </trkpt>
      <trkpt lat="44.11212" lon="1.80725">
        <ele>203.2</ele>
        <time>2024-04-07T08:11:32Z</time>
      </trkpt>
      <trkpt lat="44.11215" lon="1.80729">
        <ele>203.2</ele>
        <time>2024-04-07T08:11:33Z</time>
      </trkpt>
      <trkpt lat="44.11217" lon="1.80734">
        <ele>203.4</ele>
        <time>2024-04-07T08:11:34Z</time>
      </trkpt>
      <trkpt lat="44.11221" lon="1.80737">
        <ele>203.6</ele>
        <time>2024-04-07T08:11:35Z</time>
      </trkpt>
      <trkpt lat="44.11225" lon="1.80739">
        <ele>203.6</ele>
        <time>2024-04-07T08:11:36Z</time>
      </trkpt>
      <trkpt lat="44.1123" lon="1.8074">
        <ele>203.6</ele>
        <time>2024-04-07T08:11:37Z</time>
      </trkpt>
      <trkpt lat="44.11234" lon="1.8074">
        <ele>203.6</ele>
        <time>2024-04-07T08:11:38Z</time>
      </trkpt>
      <trkpt lat="44.11239" lon="1.80739">
        <ele>203.8</ele>
        <time>2024-04-07T08:11:39Z</time>
      </trkpt>
      <trkpt lat="44.11244" lon="1.80738">
        <ele>204</ele>
        <time>2024-04-07T08:11:40Z</time>
      </trkpt>
      <trkpt lat="44.11249" lon="1.80737">
        <ele>204.6</ele>
        <time>2024-04-07T08:11:41Z</time>
      </trkpt>
      <trkpt lat="44.11253" lon="1.80737">
        <ele>204.8</ele>
        <time>2024-04-07T08:11:42Z</time>
      </trkpt>
      <trkpt lat="44.11257" lon="1.80737">
        <ele>205.2</ele>
        <time>2024-04-07T08:11:43Z</time>
      </trkpt>
      <trkpt lat="44.11261" lon="1.80736">
        <ele>205.8</ele>
        <time>2024-04-07T08:11:44Z</time>
      </trkpt>
      <trkpt lat="44.11264" lon="1.80736">
        <ele>206</ele>
        <time>2024-04-07T08:11:45Z</time>
      </trkpt>
      <trkpt lat="44.11267" lon="1.80735">
        <ele>206.4</ele>
        <time>2024-04-07T08:11:46Z</time>
      </trkpt>
      <trkpt lat="44.1127" lon="1.80736">
        <ele>206.6</ele>
        <time>2024-04-07T08:11:47Z</time>
      </trkpt>
      <trkpt lat="44.11272" lon="1.80738">
        <ele>207</ele>
        <time>2024-04-07T08:11:48Z</time>
      </trkpt>
      <trkpt lat="44.11274" lon="1.80742">
        <ele>207</ele>
        <time>2024-04-07T08:11:49Z</time>
      </trkpt>
      <trkpt lat="44.11275" lon="1.80745">
        <ele>207.2</ele>
        <time>2024-04-07T08:11:50Z</time>
      </trkpt>
      <trkpt lat="44.11276" lon="1.80748">
        <ele>207.4</ele>
        <time>2024-04-07T08:11:51Z</time>
      </trkpt>
      <trkpt lat="44.11277" lon="1.8075">
        <ele>207.8</ele>
        <time>2024-04-07T08:11:52Z</time>
      </trkpt>
      <trkpt lat="44.11278" lon="1.80752">
        <ele>208</ele>
        <time>2024-04-07T08:11:53Z</time>
      </trkpt>
      <trkpt lat="44.1128" lon="1.80755">
        <ele>208.4</ele>
        <time>2024-04-07T08:11:54Z</time>
      </trkpt>
      <trkpt lat="44.11281" lon="1.80757">
        <ele>208.8</ele>
        <time>2024-04-07T08:11:55Z</time>
      </trkpt>
      <trkpt lat="44.11283" lon="1.8076">
        <ele>209.6</ele>
        <time>2024-04-07T08:11:56Z</time>
      </trkpt>
      <trkpt lat="44.11284" lon="1.80763">
        <ele>210.6</ele>
        <time>2024-04-07T08:11:57Z</time>
      </trkpt>
      <trkpt lat="44.11286" lon="1.80765">
        <ele>211</ele>
        <time>2024-04-07T08:11:58Z</time>
      </trkpt>
      <trkpt lat="44.11287" lon="1.80767">
        <ele>211.4</ele>
        <time>2024-04-07T08:11:59Z</time>
      </trkpt>
      <trkpt lat="44.11289" lon="1.80769">
        <ele>211.8</ele>
        <time>2024-04-07T08:12:00Z</time>
      </trkpt>
      <trkpt lat="44.11291" lon="1.80771">
        <ele>212.4</ele>
        <time>2024-04-07T08:12:01Z</time>
      </trkpt>
      <trkpt lat="44.11293" lon="1.80774">
        <ele>213.4</ele>
        <time>2024-04-07T08:12:02Z</time>
      </trkpt>
      <trkpt lat="44.11295" lon="1.80775">
        <ele>213.6</ele>
        <time>2024-04-07T08:12:03Z</time>
      </trkpt>
      <trkpt lat="44.11297" lon="1.80778">
        <ele>214.8</ele>
        <time>2024-04-07T08:12:04Z</time>
      </trkpt>
      <trkpt lat="44.11299" lon="1.80781">
        <ele>215.4</ele>
        <time>2024-04-07T08:12:05Z</time>
      </trkpt>
      <trkpt lat="44.11301" lon="1.80783">
        <ele>216.4</ele>
        <time>2024-04-07T08:12:06Z</time>
      </trkpt>
      <trkpt lat="44.11303" lon="1.80785">
        <ele>216.8</ele>
        <time>2024-04-07T08:12:07Z</time>
      </trkpt>
      <trkpt lat="44.11304" lon="1.80788">
        <ele>217.4</ele>
        <time>2024-04-07T08:12:08Z</time>
      </trkpt>
      <trkpt lat="44.11305" lon="1.80791">
        <ele>217.6</ele>
        <time>2024-04-07T08:12:09Z</time>
      </trkpt>
      <trkpt lat="44.11307" lon="1.80793">
        <ele>218.2</ele>
        <time>2024-04-07T08:12:10Z</time>
      </trkpt>
      <trkpt lat="44.11309" lon="1.80795">
        <ele>218.6</ele>
        <time>2024-04-07T08:12:11Z</time>
      </trkpt>
      <trkpt lat="44.11311" lon="1.80798">
        <ele>218.8</ele>
        <time>2024-04-07T08:12:12Z</time>
      </trkpt>
      <trkpt lat="44.11313" lon="1.80801">
        <ele>219.4</ele>
        <time>2024-04-07T08:12:13Z</time>
      </trkpt>
      <trkpt lat="44.11316" lon="1.80802">
        <ele>219.6</ele>
        <time>2024-04-07T08:12:14Z</time>
      </trkpt>
      <trkpt lat="44.11319" lon="1.80803">
        <ele>220.2</ele>
        <time>2024-04-07T08:12:15Z</time>
      </trkpt>
      <trkpt lat="44.1132" lon="1.80805">
        <ele>220.4</ele>
        <time>2024-04-07T08:12:16Z</time>
      </trkpt>
      <trkpt lat="44.11321" lon="1.80806">
        <ele>221</ele>
        <time>2024-04-07T08:12:17Z</time>
      </trkpt>
      <trkpt lat="44.11323" lon="1.80808">
        <ele>221.6</ele>
        <time>2024-04-07T08:12:18Z</time>
      </trkpt>
      <trkpt lat="44.11326" lon="1.80809">
        <ele>222</ele>
        <time>2024-04-07T08:12:19Z</time>
      </trkpt>
      <trkpt lat="44.1133" lon="1.80811">
        <ele>222.6</ele>
        <time>2024-04-07T08:12:20Z</time>
      </trkpt>
      <trkpt lat="44.11332" lon="1.80812">
        <ele>222.8</ele>
        <time>2024-04-07T08:12:21Z</time>
      </trkpt>
      <trkpt lat="44.11335" lon="1.80814">
        <ele>223.4</ele>
        <time>2024-04-07T08:12:22Z</time>
      </trkpt>
      <trkpt lat="44.11337" lon="1.80818">
        <ele>223.6</ele>
        <time>2024-04-07T08:12:23Z</time>
      </trkpt>
      <trkpt lat="44.1134" lon="1.80821">
        <ele>224.2</ele>
        <time>2024-04-07T08:12:24Z</time>
      </trkpt>
      <trkpt lat="44.11342" lon="1.80823">
        <ele>224.6</ele>
        <time>2024-04-07T08:12:25Z</time>
      </trkpt>
      <trkpt lat="44.11344" lon="1.80826">
        <ele>225</ele>
        <time>2024-04-07T08:12:26Z</time>
      </trkpt>
      <trkpt lat="44.11345" lon="1.80828">
        <ele>225.6</ele>
        <time>2024-04-07T08:12:27Z</time>
      </trkpt>
      <trkpt lat="44.11347" lon="1.8083">
        <ele>225.8</ele>
        <time>2024-04-07T08:12:28Z</time>
      </trkpt>
      <trkpt lat="44.11349" lon="1.80832">
        <ele>226.4</ele>
        <time>2024-04-07T08:12:29Z</time>
      </trkpt>
      <trkpt lat="44.11352" lon="1.80834">
        <ele>226.6</ele>
        <time>2024-04-07T08:12:30Z</time>
      </trkpt>
      <trkpt lat="44.11356" lon="1.80838">
        <ele>227.2</ele>
        <time>2024-04-07T08:12:31Z</time>
      </trkpt>
      <trkpt lat="44.11359" lon="1.80841">
        <ele>227.6</ele>
        <time>2024-04-07T08:12:32Z</time>
      </trkpt>
      <trkpt lat="44.11361" lon="1.80842">
        <ele>228.2</ele>
        <time>2024-04-07T08:12:33Z</time>
      </trkpt>
      <trkpt lat="44.11364" lon="1.80845">
        <ele>228.4</ele>
        <time>2024-04-07T08:12:34Z</time>
      </trkpt>
      <trkpt lat="44.11367" lon="1.80848">
        <ele>229</ele>
        <time>2024-04-07T08:12:35Z</time>
      </trkpt>
      <trkpt lat="44.1137" lon="1.8085">
        <ele>229.6</ele>
        <time>2024-04-07T08:12:36Z</time>
      </trkpt>
      <trkpt lat="44.11373" lon="1.80852">
        <ele>229.8</ele>
        <time>2024-04-07T08:12:37Z</time>
      </trkpt>
      <trkpt lat="44.11375" lon="1.80855">
        <ele>230.4</ele>
        <time>2024-04-07T08:12:38Z</time>
      </trkpt>
      <trkpt lat="44.11375" lon="1.80856">
        <ele>230.6</ele>
        <time>2024-04-07T08:12:39Z</time>
      </trkpt>
      <trkpt lat="44.11376" lon="1.80858">
        <ele>231.4</ele>
        <time>2024-04-07T08:12:40Z</time>
      </trkpt>
      <trkpt lat="44.11377" lon="1.80859">
        <ele>231.6</ele>
        <time>2024-04-07T08:12:41Z</time>
      </trkpt>
      <trkpt lat="44.11378" lon="1.80861">
        <ele>232.2</ele>
        <time>2024-04-07T08:12:42Z</time>
      </trkpt>
      <trkpt lat="44.1138" lon="1.80862">
        <ele>232.6</ele>
        <time>2024-04-07T08:12:43Z</time>
      </trkpt>
      <trkpt lat="44.11381" lon="1.80864">
        <ele>233.2</ele>
        <time>2024-04-07T08:12:44Z</time>
      </trkpt>
      <trkpt lat="44.11382" lon="1.80866">
        <ele>233.4</ele>
        <time>2024-04-07T08:12:45Z</time>
      </trkpt>
      <trkpt lat="44.11383" lon="1.80869">
        <ele>233.8</ele>
        <time>2024-04-07T08:12:46Z</time>
      </trkpt>
      <trkpt lat="44.11384" lon="1.80871">
        <ele>234.4</ele>
        <time>2024-04-07T08:12:47Z</time>
      </trkpt>
      <trkpt lat="44.11385" lon="1.80873">
        <ele>234.8</ele>
        <time>2024-04-07T08:12:48Z</time>
      </trkpt>
      <trkpt lat="44.11386" lon="1.80876">
        <ele>235.4</ele>
        <time>2024-04-07T08:12:49Z</time>
      </trkpt>
      <trkpt lat="44.11388" lon="1.80878">
        <ele>235.8</ele>
        <time>2024-04-07T08:12:50Z</time>
      </trkpt>
      <trkpt lat="44.11389" lon="1.80881">
        <ele>236.6</ele>
        <time>2024-04-07T08:12:51Z</time>
      </trkpt>
      <trkpt lat="44.11391" lon="1.80884">
        <ele>237</ele>
        <time>2024-04-07T08:12:52Z</time>
      </trkpt>
      <trkpt lat="44.11392" lon="1.80888">
        <ele>237</ele>
        <time>2024-04-07T08:12:53Z</time>
      </trkpt>
      <trkpt lat="44.11392" lon="1.80891">
        <ele>237.6</ele>
        <time>2024-04-07T08:12:54Z</time>
      </trkpt>
      <trkpt lat="44.11392" lon="1.80895">
        <ele>237.6</ele>
        <time>2024-04-07T08:12:55Z</time>
      </trkpt>
      <trkpt lat="44.11391" lon="1.80898">
        <ele>238.4</ele>
        <time>2024-04-07T08:12:56Z</time>
      </trkpt>
      <trkpt lat="44.1139" lon="1.80901">
        <ele>238.8</ele>
        <time>2024-04-07T08:12:57Z</time>
      </trkpt>
      <trkpt lat="44.11388" lon="1.80905">
        <ele>239.8</ele>
        <time>2024-04-07T08:12:58Z</time>
      </trkpt>
      <trkpt lat="44.11386" lon="1.80908">
        <ele>240</ele>
        <time>2024-04-07T08:12:59Z</time>
      </trkpt>
      <trkpt lat="44.11384" lon="1.80912">
        <ele>240.6</ele>
        <time>2024-04-07T08:13:00Z</time>
      </trkpt>
      <trkpt lat="44.11381" lon="1.80916">
        <ele>240.8</ele>
        <time>2024-04-07T08:13:01Z</time>
      </trkpt>
      <trkpt lat="44.1138" lon="1.8092">
        <ele>241</ele>
        <time>2024-04-07T08:13:02Z</time>
      </trkpt>
      <trkpt lat="44.11378" lon="1.80924">
        <ele>241.2</ele>
        <time>2024-04-07T08:13:03Z</time>
      </trkpt>
      <trkpt lat="44.11377" lon="1.80928">
        <ele>241.4</ele>
        <time>2024-04-07T08:13:04Z</time>
      </trkpt>
      <trkpt lat="44.11377" lon="1.80936">
        <ele>241.6</ele>
        <time>2024-04-07T08:13:05Z</time>
      </trkpt>
      <trkpt lat="44.11378" lon="1.80941">
        <ele>241.6</ele>
        <time>2024-04-07T08:13:06Z</time>
      </trkpt>
      <trkpt lat="44.11379" lon="1.80946">
        <ele>241.8</ele>
        <time>2024-04-07T08:13:07Z</time>
      </trkpt>
      <trkpt lat="44.11381" lon="1.80952">
        <ele>242</ele>
        <time>2024-04-07T08:13:08Z</time>
      </trkpt>
      <trkpt lat="44.11382" lon="1.80957">
        <ele>242.2</ele>
        <time>2024-04-07T08:13:09Z</time>
      </trkpt>
      <trkpt lat="44.11383" lon="1.80964">
        <ele>242.4</ele>
        <time>2024-04-07T08:13:10Z</time>
      </trkpt>
      <trkpt lat="44.11386" lon="1.80971">
        <ele>242.4</ele>
        <time>2024-04-07T08:13:11Z</time>
      </trkpt>
      <trkpt lat="44.11389" lon="1.80979">
        <ele>242.4</ele>
        <time>2024-04-07T08:13:12Z</time>
      </trkpt>
      <trkpt lat="44.11393" lon="1.80987">
        <ele>242.6</ele>
        <time>2024-04-07T08:13:13Z</time>
      </trkpt>
      <trkpt lat="44.11393" lon="1.80993">
        <ele>242.8</ele>
        <time>2024-04-07T08:13:14Z</time>
      </trkpt>
      <trkpt lat="44.11395" lon="1.80999">
        <ele>243</ele>
        <time>2024-04-07T08:13:15Z</time>
      </trkpt>
      <trkpt lat="44.11398" lon="1.81003">
        <ele>243.2</ele>
        <time>2024-04-07T08:13:16Z</time>
      </trkpt>
      <trkpt lat="44.114" lon="1.81008">
        <ele>243.2</ele>
        <time>2024-04-07T08:13:17Z</time>
      </trkpt>
      <trkpt lat="44.11402" lon="1.81013">
        <ele>243.4</ele>
        <time>2024-04-07T08:13:18Z</time>
      </trkpt>
      <trkpt lat="44.11406" lon="1.81019">
        <ele>243.6</ele>
        <time>2024-04-07T08:13:19Z</time>
      </trkpt>
      <trkpt lat="44.11407" lon="1.81023">
        <ele>243.8</ele>
        <time>2024-04-07T08:13:20Z</time>
      </trkpt>
      <trkpt lat="44.1141" lon="1.81027">
        <ele>244</ele>
        <time>2024-04-07T08:13:21Z</time>
      </trkpt>
      <trkpt lat="44.11412" lon="1.81032">
        <ele>244.2</ele>
        <time>2024-04-07T08:13:22Z</time>
      </trkpt>
      <trkpt lat="44.11414" lon="1.81036">
        <ele>244.4</ele>
        <time>2024-04-07T08:13:23Z</time>
      </trkpt>
      <trkpt lat="44.11416" lon="1.81041">
        <ele>244.6</ele>
        <time>2024-04-07T08:13:24Z</time>
      </trkpt>
      <trkpt lat="44.11419" lon="1.81049">
        <ele>244.8</ele>
        <time>2024-04-07T08:13:25Z</time>
      </trkpt>
      <trkpt lat="44.11422" lon="1.81054">
        <ele>245.2</ele>
        <time>2024-04-07T08:13:26Z</time>
      </trkpt>
      <trkpt lat="44.11424" lon="1.8106">
        <ele>245.4</ele>
        <time>2024-04-07T08:13:27Z</time>
      </trkpt>
      <trkpt lat="44.11425" lon="1.81067">
        <ele>245.8</ele>
        <time>2024-04-07T08:13:28Z</time>
      </trkpt>
      <trkpt lat="44.11425" lon="1.81074">
        <ele>246</ele>
        <time>2024-04-07T08:13:29Z</time>
      </trkpt>
      <trkpt lat="44.11423" lon="1.81079">
        <ele>246.4</ele>
        <time>2024-04-07T08:13:30Z</time>
      </trkpt>
      <trkpt lat="44.11422" lon="1.81084">
        <ele>246.4</ele>
        <time>2024-04-07T08:13:31Z</time>
      </trkpt>
      <trkpt lat="44.11422" lon="1.81089">
        <ele>246.8</ele>
        <time>2024-04-07T08:13:32Z</time>
      </trkpt>
      <trkpt lat="44.11422" lon="1.81093">
        <ele>247</ele>
        <time>2024-04-07T08:13:33Z</time>
      </trkpt>
      <trkpt lat="44.11422" lon="1.81096">
        <ele>247.4</ele>
        <time>2024-04-07T08:13:34Z</time>
      </trkpt>
      <trkpt lat="44.11423" lon="1.81098">
        <ele>247.8</ele>
        <time>2024-04-07T08:13:35Z</time>
      </trkpt>
      <trkpt lat="44.11424" lon="1.81101">
        <ele>247.8</ele>
        <time>2024-04-07T08:13:36Z</time>
      </trkpt>
      <trkpt lat="44.11427" lon="1.81103">
        <ele>248.4</ele>
        <time>2024-04-07T08:13:37Z</time>
      </trkpt>
      <trkpt lat="44.11433" lon="1.81104">
        <ele>248.6</ele>
        <time>2024-04-07T08:13:38Z</time>
      </trkpt>
      <trkpt lat="44.11436" lon="1.81104">
        <ele>249</ele>
        <time>2024-04-07T08:13:39Z</time>
      </trkpt>
      <trkpt lat="44.1144" lon="1.81103">
        <ele>249.2</ele>
        <time>2024-04-07T08:13:40Z</time>
      </trkpt>
      <trkpt lat="44.11444" lon="1.81103">
        <ele>249.4</ele>
        <time>2024-04-07T08:13:41Z</time>
      </trkpt>
      <trkpt lat="44.11448" lon="1.81104">
        <ele>249.6</ele>
        <time>2024-04-07T08:13:42Z</time>
      </trkpt>
      <trkpt lat="44.11452" lon="1.81106">
        <ele>249.6</ele>
        <time>2024-04-07T08:13:43Z</time>
      </trkpt>
      <trkpt lat="44.11456" lon="1.81106">
        <ele>249.8</ele>
        <time>2024-04-07T08:13:44Z</time>
      </trkpt>
      <trkpt lat="44.11461" lon="1.81107">
        <ele>250</ele>
        <time>2024-04-07T08:13:45Z</time>
      </trkpt>
      <trkpt lat="44.11465" lon="1.81108">
        <ele>250.2</ele>
        <time>2024-04-07T08:13:46Z</time>
      </trkpt>
      <trkpt lat="44.11469" lon="1.81108">
        <ele>250.4</ele>
        <time>2024-04-07T08:13:47Z</time>
      </trkpt>
      <trkpt lat="44.11474" lon="1.8111">
        <ele>250.6</ele>
        <time>2024-04-07T08:13:48Z</time>
      </trkpt>
      <trkpt lat="44.11478" lon="1.81111">
        <ele>250.8</ele>
        <time>2024-04-07T08:13:49Z</time>
      </trkpt>
      <trkpt lat="44.11482" lon="1.81112">
        <ele>251</ele>
        <time>2024-04-07T08:13:50Z</time>
      </trkpt>
      <trkpt lat="44.11486" lon="1.81114">
        <ele>251.4</ele>
        <time>2024-04-07T08:13:51Z</time>
      </trkpt>
      <trkpt lat="44.1149" lon="1.81116">
        <ele>251.4</ele>
        <time>2024-04-07T08:13:52Z</time>
      </trkpt>
      <trkpt lat="44.11494" lon="1.81118">
        <ele>251.6</ele>
        <time>2024-04-07T08:13:53Z</time>
      </trkpt>
      <trkpt lat="44.11497" lon="1.8112">
        <ele>251.8</ele>
        <time>2024-04-07T08:13:54Z</time>
      </trkpt>
      <trkpt lat="44.11501" lon="1.81123">
        <ele>251.8</ele>
        <time>2024-04-07T08:13:55Z</time>
      </trkpt>
      <trkpt lat="44.11504" lon="1.81127">
        <ele>251.8</ele>
        <time>2024-04-07T08:13:56Z</time>
      </trkpt>
      <trkpt lat="44.11507" lon="1.81132">
        <ele>252</ele>
        <time>2024-04-07T08:13:57Z</time>
      </trkpt>
      <trkpt lat="44.11512" lon="1.81138">
        <ele>252</ele>
        <time>2024-04-07T08:13:58Z</time>
      </trkpt>
      <trkpt lat="44.11516" lon="1.81142">
        <ele>252</ele>
        <time>2024-04-07T08:13:59Z</time>
      </trkpt>
      <trkpt lat="44.11521" lon="1.81145">
        <ele>252.2</ele>
        <time>2024-04-07T08:14:00Z</time>
      </trkpt>
      <trkpt lat="44.11526" lon="1.81146">
        <ele>252.2</ele>
        <time>2024-04-07T08:14:01Z</time>
      </trkpt>
      <trkpt lat="44.1153" lon="1.81147">
        <ele>252.4</ele>
        <time>2024-04-07T08:14:02Z</time>
      </trkpt>
      <trkpt lat="44.11534" lon="1.81146">
        <ele>252.4</ele>
        <time>2024-04-07T08:14:03Z</time>
      </trkpt>
      <trkpt lat="44.11538" lon="1.81145">
        <ele>252.4</ele>
        <time>2024-04-07T08:14:04Z</time>
      </trkpt>
      <trkpt lat="44.11541" lon="1.81144">
        <ele>252.4</ele>
        <time>2024-04-07T08:14:05Z</time>
      </trkpt>
      <trkpt lat="44.11544" lon="1.81142">
        <ele>252.6</ele>
        <time>2024-04-07T08:14:06Z</time>
      </trkpt>
      <trkpt lat="44.11548" lon="1.81141">
        <ele>252.6</ele>
        <time>2024-04-07T08:14:07Z</time>
      </trkpt>
      <trkpt lat="44.11551" lon="1.81139">
        <ele>252.8</ele>
        <time>2024-04-07T08:14:08Z</time>
      </trkpt>
      <trkpt lat="44.11555" lon="1.81136">
        <ele>252.8</ele>
        <time>2024-04-07T08:14:09Z</time>
      </trkpt>
      <trkpt lat="44.11557" lon="1.81134">
        <ele>253</ele>
        <time>2024-04-07T08:14:10Z</time>
      </trkpt>
      <trkpt lat="44.1156" lon="1.81131">
        <ele>253.6</ele>
        <time>2024-04-07T08:14:11Z</time>
      </trkpt>
      <trkpt lat="44.11563" lon="1.81129">
        <ele>253.6</ele>
        <time>2024-04-07T08:14:12Z</time>
      </trkpt>
      <trkpt lat="44.11566" lon="1.81127">
        <ele>254.2</ele>
        <time>2024-04-07T08:14:13Z</time>
      </trkpt>
      <trkpt lat="44.11569" lon="1.81125">
        <ele>254.4</ele>
        <time>2024-04-07T08:14:14Z</time>
      </trkpt>
      <trkpt lat="44.11572" lon="1.81122">
        <ele>255.4</ele>
        <time>2024-04-07T08:14:15Z</time>
      </trkpt>
      <trkpt lat="44.11576" lon="1.8112">
        <ele>255.8</ele>
        <time>2024-04-07T08:14:16Z</time>
      </trkpt>
      <trkpt lat="44.11579" lon="1.81118">
        <ele>257</ele>
        <time>2024-04-07T08:14:17Z</time>
      </trkpt>
      <trkpt lat="44.11582" lon="1.81115">
        <ele>257.6</ele>
        <time>2024-04-07T08:14:18Z</time>
      </trkpt>
      <trkpt lat="44.11585" lon="1.81114">
        <ele>257.8</ele>
        <time>2024-04-07T08:14:19Z</time>
      </trkpt>
      <trkpt lat="44.11588" lon="1.81112">
        <ele>258.4</ele>
        <time>2024-04-07T08:14:20Z</time>
      </trkpt>
      <trkpt lat="44.11591" lon="1.8111">
        <ele>258.6</ele>
        <time>2024-04-07T08:14:21Z</time>
      </trkpt>
      <trkpt lat="44.11594" lon="1.81108">
        <ele>258.8</ele>
        <time>2024-04-07T08:14:22Z</time>
      </trkpt>
      <trkpt lat="44.11597" lon="1.81106">
        <ele>259</ele>
        <time>2024-04-07T08:14:23Z</time>
      </trkpt>
      <trkpt lat="44.11601" lon="1.81104">
        <ele>259.6</ele>
        <time>2024-04-07T08:14:24Z</time>
      </trkpt>
      <trkpt lat="44.11604" lon="1.81104">
        <ele>260.4</ele>
        <time>2024-04-07T08:14:25Z</time>
      </trkpt>
      <trkpt lat="44.11607" lon="1.81104">
        <ele>260.8</ele>
        <time>2024-04-07T08:14:26Z</time>
      </trkpt>
      <trkpt lat="44.1161" lon="1.81103">
        <ele>261.8</ele>
        <time>2024-04-07T08:14:27Z</time>
      </trkpt>
      <trkpt lat="44.11613" lon="1.81103">
        <ele>262.2</ele>
        <time>2024-04-07T08:14:28Z</time>
      </trkpt>
      <trkpt lat="44.11617" lon="1.81103">
        <ele>262.8</ele>
        <time>2024-04-07T08:14:29Z</time>
      </trkpt>
      <trkpt lat="44.11621" lon="1.81103">
        <ele>263</ele>
        <time>2024-04-07T08:14:30Z</time>
      </trkpt>
      <trkpt lat="44.11624" lon="1.81103">
        <ele>263.6</ele>
        <time>2024-04-07T08:14:31Z</time>
      </trkpt>
      <trkpt lat="44.11627" lon="1.81101">
        <ele>264</ele>
        <time>2024-04-07T08:14:32Z</time>
      </trkpt>
      <trkpt lat="44.1163" lon="1.81101">
        <ele>264.6</ele>
        <time>2024-04-07T08:14:33Z</time>
      </trkpt>
      <trkpt lat="44.11633" lon="1.81101">
        <ele>265</ele>
        <time>2024-04-07T08:14:34Z</time>
      </trkpt>
      <trkpt lat="44.11636" lon="1.81101">
        <ele>265.4</ele>
        <time>2024-04-07T08:14:35Z</time>
      </trkpt>
      <trkpt lat="44.1164" lon="1.81099">
        <ele>265.8</ele>
        <time>2024-04-07T08:14:36Z</time>
      </trkpt>
      <trkpt lat="44.11643" lon="1.81097">
        <ele>265.8</ele>
        <time>2024-04-07T08:14:37Z</time>
      </trkpt>
      <trkpt lat="44.11645" lon="1.81096">
        <ele>266.6</ele>
        <time>2024-04-07T08:14:38Z</time>
      </trkpt>
      <trkpt lat="44.11648" lon="1.81096">
        <ele>266.8</ele>
        <time>2024-04-07T08:14:39Z</time>
      </trkpt>
      <trkpt lat="44.1165" lon="1.81096">
        <ele>267.2</ele>
        <time>2024-04-07T08:14:40Z</time>
      </trkpt>
      <trkpt lat="44.11653" lon="1.81097">
        <ele>267.4</ele>
        <time>2024-04-07T08:14:41Z</time>
      </trkpt>
      <trkpt lat="44.11656" lon="1.81098">
        <ele>267.8</ele>
        <time>2024-04-07T08:14:42Z</time>
      </trkpt>
      <trkpt lat="44.11658" lon="1.81099">
        <ele>268</ele>
        <time>2024-04-07T08:14:43Z</time>
      </trkpt>
      <trkpt lat="44.1166" lon="1.81099">
        <ele>268.4</ele>
        <time>2024-04-07T08:14:44Z</time>
      </trkpt>
      <trkpt lat="44.11663" lon="1.811">
        <ele>269.2</ele>
        <time>2024-04-07T08:14:45Z</time>
      </trkpt>
      <trkpt lat="44.11664" lon="1.81101">
        <ele>269.4</ele>
        <time>2024-04-07T08:14:46Z</time>
      </trkpt>
      <trkpt lat="44.11666" lon="1.81101">
        <ele>269.8</ele>
        <time>2024-04-07T08:14:47Z</time>
      </trkpt>
      <trkpt lat="44.11668" lon="1.81102">
        <ele>270.2</ele>
        <time>2024-04-07T08:14:48Z</time>
      </trkpt>
      <trkpt lat="44.1167" lon="1.81104">
        <ele>270.8</ele>
        <time>2024-04-07T08:14:49Z</time>
      </trkpt>
      <trkpt lat="44.11671" lon="1.81105">
        <ele>271</ele>
        <time>2024-04-07T08:14:50Z</time>
      </trkpt>
      <trkpt lat="44.11671" lon="1.81106">
        <ele>271.4</ele>
        <time>2024-04-07T08:14:51Z</time>
      </trkpt>
      <trkpt lat="44.1167" lon="1.81108">
        <ele>271.8</ele>
        <time>2024-04-07T08:14:52Z</time>
      </trkpt>
      <trkpt lat="44.11668" lon="1.8111">
        <ele>272.2</ele>
        <time>2024-04-07T08:14:53Z</time>
      </trkpt>
      <trkpt lat="44.11666" lon="1.81113">
        <ele>273.2</ele>
        <time>2024-04-07T08:14:54Z</time>
      </trkpt>
      <trkpt lat="44.11664" lon="1.81117">
        <ele>273.6</ele>
        <time>2024-04-07T08:14:55Z</time>
      </trkpt>
      <trkpt lat="44.11663" lon="1.8112">
        <ele>274.2</ele>
        <time>2024-04-07T08:14:56Z</time>
      </trkpt>
      <trkpt lat="44.11662" lon="1.81124">
        <ele>274.4</ele>
        <time>2024-04-07T08:14:57Z</time>
      </trkpt>
      <trkpt lat="44.11661" lon="1.81128">
        <ele>274.6</ele>
        <time>2024-04-07T08:14:58Z</time>
      </trkpt>
      <trkpt lat="44.1166" lon="1.81132">
        <ele>275</ele>
        <time>2024-04-07T08:14:59Z</time>
      </trkpt>
      <trkpt lat="44.1166" lon="1.81137">
        <ele>275</ele>
        <time>2024-04-07T08:15:00Z</time>
      </trkpt>
      <trkpt lat="44.1166" lon="1.8114">
        <ele>275.4</ele>
        <time>2024-04-07T08:15:01Z</time>
      </trkpt>
      <trkpt lat="44.1166" lon="1.81144">
        <ele>275.6</ele>
        <time>2024-04-07T08:15:02Z</time>
      </trkpt>
      <trkpt lat="44.1166" lon="1.81147">
        <ele>276</ele>
        <time>2024-04-07T08:15:03Z</time>
      </trkpt>
      <trkpt lat="44.11661" lon="1.81151">
        <ele>276.2</ele>
        <time>2024-04-07T08:15:04Z</time>
      </trkpt>
      <trkpt lat="44.11662" lon="1.81154">
        <ele>276.6</ele>
        <time>2024-04-07T08:15:05Z</time>
      </trkpt>
      <trkpt lat="44.11663" lon="1.81157">
        <ele>277</ele>
        <time>2024-04-07T08:15:06Z</time>
      </trkpt>
      <trkpt lat="44.11665" lon="1.8116">
        <ele>277.4</ele>
        <time>2024-04-07T08:15:07Z</time>
      </trkpt>
      <trkpt lat="44.11666" lon="1.81163">
        <ele>278</ele>
        <time>2024-04-07T08:15:08Z</time>
      </trkpt>
      <trkpt lat="44.11668" lon="1.81167">
        <ele>278.4</ele>
        <time>2024-04-07T08:15:09Z</time>
      </trkpt>
      <trkpt lat="44.11669" lon="1.8117">
        <ele>279</ele>
        <time>2024-04-07T08:15:10Z</time>
      </trkpt>
      <trkpt lat="44.11671" lon="1.81172">
        <ele>279.2</ele>
        <time>2024-04-07T08:15:11Z</time>
      </trkpt>
      <trkpt lat="44.11673" lon="1.81175">
        <ele>279.6</ele>
        <time>2024-04-07T08:15:12Z</time>
      </trkpt>
      <trkpt lat="44.11675" lon="1.81178">
        <ele>280</ele>
        <time>2024-04-07T08:15:13Z</time>
      </trkpt>
      <trkpt lat="44.11678" lon="1.81181">
        <ele>280.4</ele>
        <time>2024-04-07T08:15:14Z</time>
      </trkpt>
      <trkpt lat="44.1168" lon="1.81184">
        <ele>280.8</ele>
        <time>2024-04-07T08:15:15Z</time>
      </trkpt>
      <trkpt lat="44.11683" lon="1.81187">
        <ele>281</ele>
        <time>2024-04-07T08:15:16Z</time>
      </trkpt>
      <trkpt lat="44.11685" lon="1.81189">
        <ele>281.4</ele>
        <time>2024-04-07T08:15:17Z</time>
      </trkpt>
      <trkpt lat="44.11687" lon="1.81192">
        <ele>281.6</ele>
        <time>2024-04-07T08:15:18Z</time>
      </trkpt>
      <trkpt lat="44.11689" lon="1.81195">
        <ele>282.2</ele>
        <time>2024-04-07T08:15:19Z</time>
      </trkpt>
      <trkpt lat="44.11691" lon="1.81198">
        <ele>282.6</ele>
        <time>2024-04-07T08:15:20Z</time>
      </trkpt>
      <trkpt lat="44.11692" lon="1.81202">
        <ele>283</ele>
        <time>2024-04-07T08:15:21Z</time>
      </trkpt>
      <trkpt lat="44.11694" lon="1.81206">
        <ele>283.2</ele>
        <time>2024-04-07T08:15:22Z</time>
      </trkpt>
      <trkpt lat="44.11696" lon="1.8121">
        <ele>283.8</ele>
        <time>2024-04-07T08:15:23Z</time>
      </trkpt>
      <trkpt lat="44.11697" lon="1.81215">
        <ele>284.2</ele>
        <time>2024-04-07T08:15:24Z</time>
      </trkpt>
      <trkpt lat="44.11699" lon="1.81218">
        <ele>284.6</ele>
        <time>2024-04-07T08:15:25Z</time>
      </trkpt>
      <trkpt lat="44.11701" lon="1.81222">
        <ele>285.2</ele>
        <time>2024-04-07T08:15:26Z</time>
      </trkpt>
      <trkpt lat="44.11702" lon="1.81226">
        <ele>285.4</ele>
        <time>2024-04-07T08:15:27Z</time>
      </trkpt>
      <trkpt lat="44.11704" lon="1.8123">
        <ele>286</ele>
        <time>2024-04-07T08:15:28Z</time>
      </trkpt>
      <trkpt lat="44.11705" lon="1.81234">
        <ele>286.4</ele>
        <time>2024-04-07T08:15:29Z</time>
      </trkpt>
      <trkpt lat="44.11706" lon="1.81238">
        <ele>287</ele>
        <time>2024-04-07T08:15:30Z</time>
      </trkpt>
      <trkpt lat="44.11708" lon="1.81242">
        <ele>287.2</ele>
        <time>2024-04-07T08:15:31Z</time>
      </trkpt>
      <trkpt lat="44.11709" lon="1.81246">
        <ele>287.6</ele>
        <time>2024-04-07T08:15:32Z</time>
      </trkpt>
      <trkpt lat="44.11711" lon="1.8125">
        <ele>288</ele>
        <time>2024-04-07T08:15:33Z</time>
      </trkpt>
      <trkpt lat="44.11712" lon="1.81254">
        <ele>288.2</ele>
        <time>2024-04-07T08:15:34Z</time>
      </trkpt>
      <trkpt lat="44.11713" lon="1.81258">
        <ele>288.6</ele>
        <time>2024-04-07T08:15:35Z</time>
      </trkpt>
      <trkpt lat="44.11713" lon="1.81263">
        <ele>289</ele>
        <time>2024-04-07T08:15:36Z</time>
      </trkpt>
      <trkpt lat="44.11714" lon="1.81267">
        <ele>289.4</ele>
        <time>2024-04-07T08:15:37Z</time>
      </trkpt>
      <trkpt lat="44.11714" lon="1.81272">
        <ele>289.6</ele>
        <time>2024-04-07T08:15:38Z</time>
      </trkpt>
      <trkpt lat="44.11714" lon="1.81277">
        <ele>290</ele>
        <time>2024-04-07T08:15:39Z</time>
      </trkpt>
      <trkpt lat="44.11713" lon="1.81281">
        <ele>290.2</ele>
        <time>2024-04-07T08:15:40Z</time>
      </trkpt>
      <trkpt lat="44.11712" lon="1.81285">
        <ele>290.8</ele>
        <time>2024-04-07T08:15:41Z</time>
      </trkpt>
      <trkpt lat="44.11711" lon="1.81288">
        <ele>291</ele>
        <time>2024-04-07T08:15:42Z</time>
      </trkpt>
      <trkpt lat="44.1171" lon="1.81291">
        <ele>291.2</ele>
        <time>2024-04-07T08:15:43Z</time>
      </trkpt>
      <trkpt lat="44.11708" lon="1.81294">
        <ele>291.4</ele>
        <time>2024-04-07T08:15:44Z</time>
      </trkpt>
      <trkpt lat="44.11706" lon="1.81297">
        <ele>291.6</ele>
        <time>2024-04-07T08:15:45Z</time>
      </trkpt>
      <trkpt lat="44.11703" lon="1.813">
        <ele>292</ele>
        <time>2024-04-07T08:15:46Z</time>
      </trkpt>
      <trkpt lat="44.117" lon="1.81303">
        <ele>292.4</ele>
        <time>2024-04-07T08:15:47Z</time>
      </trkpt>
      <trkpt lat="44.11697" lon="1.81306">
        <ele>292.8</ele>
        <time>2024-04-07T08:15:48Z</time>
      </trkpt>
      <trkpt lat="44.11695" lon="1.81309">
        <ele>293.2</ele>
        <time>2024-04-07T08:15:49Z</time>
      </trkpt>
      <trkpt lat="44.11692" lon="1.81312">
        <ele>293.6</ele>
        <time>2024-04-07T08:15:50Z</time>
      </trkpt>
      <trkpt lat="44.11689" lon="1.81315">
        <ele>294</ele>
        <time>2024-04-07T08:15:51Z</time>
      </trkpt>
      <trkpt lat="44.11687" lon="1.81318">
        <ele>294.4</ele>
        <time>2024-04-07T08:15:52Z</time>
      </trkpt>
      <trkpt lat="44.11684" lon="1.81322">
        <ele>295.2</ele>
        <time>2024-04-07T08:15:53Z</time>
      </trkpt>
      <trkpt lat="44.11682" lon="1.81326">
        <ele>295.6</ele>
        <time>2024-04-07T08:15:54Z</time>
      </trkpt>
      <trkpt lat="44.1168" lon="1.81329">
        <ele>296.2</ele>
        <time>2024-04-07T08:15:55Z</time>
      </trkpt>
      <trkpt lat="44.11678" lon="1.81333">
        <ele>296.6</ele>
        <time>2024-04-07T08:15:56Z</time>
      </trkpt>
      <trkpt lat="44.11675" lon="1.81337">
        <ele>297.2</ele>
        <time>2024-04-07T08:15:57Z</time>
      </trkpt>
      <trkpt lat="44.11673" lon="1.8134">
        <ele>298</ele>
        <time>2024-04-07T08:15:58Z</time>
      </trkpt>
      <trkpt lat="44.11671" lon="1.81344">
        <ele>298.2</ele>
        <time>2024-04-07T08:15:59Z</time>
      </trkpt>
      <trkpt lat="44.11669" lon="1.81347">
        <ele>299</ele>
        <time>2024-04-07T08:16:00Z</time>
      </trkpt>
      <trkpt lat="44.11667" lon="1.81351">
        <ele>299</ele>
        <time>2024-04-07T08:16:01Z</time>
      </trkpt>
      <trkpt lat="44.11665" lon="1.81354">
        <ele>299.8</ele>
        <time>2024-04-07T08:16:02Z</time>
      </trkpt>
      <trkpt lat="44.11663" lon="1.81358">
        <ele>300.2</ele>
        <time>2024-04-07T08:16:03Z</time>
      </trkpt>
      <trkpt lat="44.11661" lon="1.81361">
        <ele>300.4</ele>
        <time>2024-04-07T08:16:04Z</time>
      </trkpt>
      <trkpt lat="44.11658" lon="1.81365">
        <ele>301</ele>
        <time>2024-04-07T08:16:05Z</time>
      </trkpt>
      <trkpt lat="44.11656" lon="1.81368">
        <ele>301.4</ele>
        <time>2024-04-07T08:16:06Z</time>
      </trkpt>
      <trkpt lat="44.11654" lon="1.81372">
        <ele>301.8</ele>
        <time>2024-04-07T08:16:07Z</time>
      </trkpt>
      <trkpt lat="44.11651" lon="1.81375">
        <ele>302</ele>
        <time>2024-04-07T08:16:08Z</time>
      </trkpt>
      <trkpt lat="44.11648" lon="1.81378">
        <ele>302.4</ele>
        <time>2024-04-07T08:16:09Z</time>
      </trkpt>
      <trkpt lat="44.11646" lon="1.81381">
        <ele>302.8</ele>
        <time>2024-04-07T08:16:10Z</time>
      </trkpt>
      <trkpt lat="44.11643" lon="1.81384">
        <ele>303.2</ele>
        <time>2024-04-07T08:16:11Z</time>
      </trkpt>
      <trkpt lat="44.1164" lon="1.81388">
        <ele>303.4</ele>
        <time>2024-04-07T08:16:12Z</time>
      </trkpt>
      <trkpt lat="44.11638" lon="1.81391">
        <ele>303.6</ele>
        <time>2024-04-07T08:16:13Z</time>
      </trkpt>
      <trkpt lat="44.11635" lon="1.81394">
        <ele>303.8</ele>
        <time>2024-04-07T08:16:14Z</time>
      </trkpt>
      <trkpt lat="44.11633" lon="1.81397">
        <ele>304</ele>
        <time>2024-04-07T08:16:15Z</time>
      </trkpt>
      <trkpt lat="44.1163" lon="1.814">
        <ele>304.4</ele>
        <time>2024-04-07T08:16:16Z</time>
      </trkpt>
      <trkpt lat="44.11628" lon="1.81403">
        <ele>304.6</ele>
        <time>2024-04-07T08:16:17Z</time>
      </trkpt>
      <trkpt lat="44.11625" lon="1.81407">
        <ele>305.2</ele>
        <time>2024-04-07T08:16:18Z</time>
      </trkpt>
      <trkpt lat="44.11623" lon="1.8141">
        <ele>305.4</ele>
        <time>2024-04-07T08:16:19Z</time>
      </trkpt>
      <trkpt lat="44.1162" lon="1.81413">
        <ele>305.8</ele>
        <time>2024-04-07T08:16:20Z</time>
      </trkpt>
      <trkpt lat="44.11618" lon="1.81416">
        <ele>306</ele>
        <time>2024-04-07T08:16:21Z</time>
      </trkpt>
      <trkpt lat="44.11616" lon="1.81419">
        <ele>306.2</ele>
        <time>2024-04-07T08:16:22Z</time>
      </trkpt>
      <trkpt lat="44.11613" lon="1.81422">
        <ele>306.6</ele>
        <time>2024-04-07T08:16:23Z</time>
      </trkpt>
      <trkpt lat="44.11611" lon="1.81426">
        <ele>306.8</ele>
        <time>2024-04-07T08:16:24Z</time>
      </trkpt>
      <trkpt lat="44.1161" lon="1.81429">
        <ele>307.2</ele>
        <time>2024-04-07T08:16:25Z</time>
      </trkpt>
      <trkpt lat="44.11608" lon="1.81433">
        <ele>307.4</ele>
        <time>2024-04-07T08:16:26Z</time>
      </trkpt>
      <trkpt lat="44.11606" lon="1.81436">
        <ele>307.6</ele>
        <time>2024-04-07T08:16:27Z</time>
      </trkpt>
      <trkpt lat="44.11604" lon="1.81441">
        <ele>307.8</ele>
        <time>2024-04-07T08:16:28Z</time>
      </trkpt>
      <trkpt lat="44.11603" lon="1.81445">
        <ele>308.2</ele>
        <time>2024-04-07T08:16:29Z</time>
      </trkpt>
      <trkpt lat="44.11602" lon="1.81449">
        <ele>308.2</ele>
        <time>2024-04-07T08:16:30Z</time>
      </trkpt>
      <trkpt lat="44.11601" lon="1.81453">
        <ele>308.6</ele>
        <time>2024-04-07T08:16:31Z</time>
      </trkpt>
      <trkpt lat="44.116" lon="1.81457">
        <ele>309.2</ele>
        <time>2024-04-07T08:16:32Z</time>
      </trkpt>
      <trkpt lat="44.11598" lon="1.81462">
        <ele>309.4</ele>
        <time>2024-04-07T08:16:33Z</time>
      </trkpt>
      <trkpt lat="44.11597" lon="1.81467">
        <ele>309.6</ele>
        <time>2024-04-07T08:16:34Z</time>
      </trkpt>
      <trkpt lat="44.11595" lon="1.81472">
        <ele>309.6</ele>
        <time>2024-04-07T08:16:35Z</time>
      </trkpt>
      <trkpt lat="44.11593" lon="1.81478">
        <ele>310</ele>
        <time>2024-04-07T08:16:36Z</time>
      </trkpt>
      <trkpt lat="44.11592" lon="1.81483">
        <ele>310.2</ele>
        <time>2024-04-07T08:16:37Z</time>
      </trkpt>
      <trkpt lat="44.1159" lon="1.81487">
        <ele>310.6</ele>
        <time>2024-04-07T08:16:38Z</time>
      </trkpt>
      <trkpt lat="44.11589" lon="1.81491">
        <ele>310.8</ele>
        <time>2024-04-07T08:16:39Z</time>
      </trkpt>
      <trkpt lat="44.11587" lon="1.81496">
        <ele>311.2</ele>
        <time>2024-04-07T08:16:40Z</time>
      </trkpt>
      <trkpt lat="44.11585" lon="1.815">
        <ele>311.6</ele>
        <time>2024-04-07T08:16:41Z</time>
      </trkpt>
      <trkpt lat="44.11584" lon="1.81506">
        <ele>311.8</ele>
        <time>2024-04-07T08:16:42Z</time>
      </trkpt>
      <trkpt lat="44.11583" lon="1.81512">
        <ele>312.2</ele>
        <time>2024-04-07T08:16:43Z</time>
      </trkpt>
      <trkpt lat="44.11581" lon="1.81517">
        <ele>312.4</ele>
        <time>2024-04-07T08:16:44Z</time>
      </trkpt>
      <trkpt lat="44.1158" lon="1.81523">
        <ele>313</ele>
        <time>2024-04-07T08:16:45Z</time>
      </trkpt>
      <trkpt lat="44.11578" lon="1.81528">
        <ele>313.2</ele>
        <time>2024-04-07T08:16:46Z</time>
      </trkpt>
      <trkpt lat="44.11577" lon="1.81534">
        <ele>313.6</ele>
        <time>2024-04-07T08:16:47Z</time>
      </trkpt>
      <trkpt lat="44.11575" lon="1.81539">
        <ele>313.8</ele>
        <time>2024-04-07T08:16:48Z</time>
      </trkpt>
      <trkpt lat="44.11573" lon="1.81544">
        <ele>314</ele>
        <time>2024-04-07T08:16:49Z</time>
      </trkpt>
      <trkpt lat="44.11571" lon="1.81549">
        <ele>314.4</ele>
        <time>2024-04-07T08:16:50Z</time>
      </trkpt>
      <trkpt lat="44.1157" lon="1.81554">
        <ele>314.6</ele>
        <time>2024-04-07T08:16:51Z</time>
      </trkpt>
      <trkpt lat="44.11568" lon="1.81559">
        <ele>315.2</ele>
        <time>2024-04-07T08:16:52Z</time>
      </trkpt>
      <trkpt lat="44.11566" lon="1.81563">
        <ele>315.8</ele>
        <time>2024-04-07T08:16:53Z</time>
      </trkpt>
      <trkpt lat="44.11565" lon="1.81568">
        <ele>316.2</ele>
        <time>2024-04-07T08:16:54Z</time>
      </trkpt>
      <trkpt lat="44.11564" lon="1.81573">
        <ele>316.6</ele>
        <time>2024-04-07T08:16:55Z</time>
      </trkpt>
      <trkpt lat="44.11561" lon="1.81578">
        <ele>317</ele>
        <time>2024-04-07T08:16:56Z</time>
      </trkpt>
      <trkpt lat="44.11559" lon="1.81583">
        <ele>317.4</ele>
        <time>2024-04-07T08:16:57Z</time>
      </trkpt>
      <trkpt lat="44.11557" lon="1.81587">
        <ele>317.6</ele>
        <time>2024-04-07T08:16:58Z</time>
      </trkpt>
      <trkpt lat="44.11555" lon="1.81592">
        <ele>318</ele>
        <time>2024-04-07T08:16:59Z</time>
      </trkpt>
      <trkpt lat="44.11553" lon="1.81597">
        <ele>318.4</ele>
        <time>2024-04-07T08:17:00Z</time>
      </trkpt>
      <trkpt lat="44.11551" lon="1.81602">
        <ele>318.8</ele>
        <time>2024-04-07T08:17:01Z</time>
      </trkpt>
      <trkpt lat="44.11549" lon="1.81606">
        <ele>318.8</ele>
        <time>2024-04-07T08:17:02Z</time>
      </trkpt>
      <trkpt lat="44.11548" lon="1.81611">
        <ele>319.2</ele>
        <time>2024-04-07T08:17:03Z</time>
      </trkpt>
      <trkpt lat="44.11546" lon="1.81615">
        <ele>319.4</ele>
        <time>2024-04-07T08:17:04Z</time>
      </trkpt>
      <trkpt lat="44.11545" lon="1.81619">
        <ele>319.6</ele>
        <time>2024-04-07T08:17:05Z</time>
      </trkpt>
      <trkpt lat="44.11544" lon="1.81623">
        <ele>320.4</ele>
        <time>2024-04-07T08:17:06Z</time>
      </trkpt>
      <trkpt lat="44.11543" lon="1.81627">
        <ele>320.8</ele>
        <time>2024-04-07T08:17:07Z</time>
      </trkpt>
      <trkpt lat="44.11541" lon="1.81631">
        <ele>321.4</ele>
        <time>2024-04-07T08:17:08Z</time>
      </trkpt>
      <trkpt lat="44.1154" lon="1.81634">
        <ele>321.6</ele>
        <time>2024-04-07T08:17:09Z</time>
      </trkpt>
      <trkpt lat="44.11539" lon="1.81637">
        <ele>322.4</ele>
        <time>2024-04-07T08:17:10Z</time>
      </trkpt>
      <trkpt lat="44.11538" lon="1.8164">
        <ele>322.8</ele>
        <time>2024-04-07T08:17:11Z</time>
      </trkpt>
      <trkpt lat="44.11537" lon="1.81644">
        <ele>323.2</ele>
        <time>2024-04-07T08:17:12Z</time>
      </trkpt>
      <trkpt lat="44.11537" lon="1.81648">
        <ele>323.8</ele>
        <time>2024-04-07T08:17:13Z</time>
      </trkpt>
      <trkpt lat="44.11536" lon="1.81651">
        <ele>324</ele>
        <time>2024-04-07T08:17:14Z</time>
      </trkpt>
      <trkpt lat="44.11536" lon="1.81655">
        <ele>324.6</ele>
        <time>2024-04-07T08:17:15Z</time>
      </trkpt>
      <trkpt lat="44.11535" lon="1.81657">
        <ele>325</ele>
        <time>2024-04-07T08:17:16Z</time>
      </trkpt>
      <trkpt lat="44.11534" lon="1.8166">
        <ele>325.6</ele>
        <time>2024-04-07T08:17:17Z</time>
      </trkpt>
      <trkpt lat="44.11534" lon="1.81663">
        <ele>325.8</ele>
        <time>2024-04-07T08:17:18Z</time>
      </trkpt>
      <trkpt lat="44.11533" lon="1.81666">
        <ele>326.8</ele>
        <time>2024-04-07T08:17:19Z</time>
      </trkpt>
      <trkpt lat="44.11532" lon="1.8167">
        <ele>327.2</ele>
        <time>2024-04-07T08:17:20Z</time>
      </trkpt>
      <trkpt lat="44.11531" lon="1.81675">
        <ele>327.8</ele>
        <time>2024-04-07T08:17:21Z</time>
      </trkpt>
      <trkpt lat="44.11529" lon="1.81678">
        <ele>328.6</ele>
        <time>2024-04-07T08:17:22Z</time>
      </trkpt>
      <trkpt lat="44.11528" lon="1.81681">
        <ele>328.8</ele>
        <time>2024-04-07T08:17:23Z</time>
      </trkpt>
      <trkpt lat="44.11526" lon="1.81684">
        <ele>329.4</ele>
        <time>2024-04-07T08:17:24Z</time>
      </trkpt>
      <trkpt lat="44.11524" lon="1.81688">
        <ele>329.6</ele>
        <time>2024-04-07T08:17:25Z</time>
      </trkpt>
      <trkpt lat="44.11523" lon="1.81692">
        <ele>330.2</ele>
        <time>2024-04-07T08:17:26Z</time>
      </trkpt>
      <trkpt lat="44.11521" lon="1.81697">
        <ele>330.4</ele>
        <time>2024-04-07T08:17:27Z</time>
      </trkpt>
      <trkpt lat="44.1152" lon="1.81701">
        <ele>331.2</ele>
        <time>2024-04-07T08:17:28Z</time>
      </trkpt>
      <trkpt lat="44.11519" lon="1.81705">
        <ele>331.6</ele>
        <time>2024-04-07T08:17:29Z</time>
      </trkpt>
      <trkpt lat="44.11518" lon="1.81708">
        <ele>332.4</ele>
        <time>2024-04-07T08:17:30Z</time>
      </trkpt>
      <trkpt lat="44.11518" lon="1.81712">
        <ele>332.8</ele>
        <time>2024-04-07T08:17:31Z</time>
      </trkpt>
      <trkpt lat="44.11517" lon="1.81717">
        <ele>333</ele>
        <time>2024-04-07T08:17:32Z</time>
      </trkpt>
      <trkpt lat="44.11516" lon="1.8172">
        <ele>333.6</ele>
        <time>2024-04-07T08:17:33Z</time>
      </trkpt>
      <trkpt lat="44.11516" lon="1.81725">
        <ele>333.8</ele>
        <time>2024-04-07T08:17:34Z</time>
      </trkpt>
      <trkpt lat="44.11515" lon="1.81729">
        <ele>334.4</ele>
        <time>2024-04-07T08:17:35Z</time>
      </trkpt>
      <trkpt lat="44.11514" lon="1.81731">
        <ele>334.6</ele>
        <time>2024-04-07T08:17:36Z</time>
      </trkpt>
      <trkpt lat="44.11513" lon="1.81735">
        <ele>335.2</ele>
        <time>2024-04-07T08:17:37Z</time>
      </trkpt>
      <trkpt lat="44.11512" lon="1.81739">
        <ele>335.8</ele>
        <time>2024-04-07T08:17:38Z</time>
      </trkpt>
      <trkpt lat="44.11511" lon="1.81744">
        <ele>336</ele>
        <time>2024-04-07T08:17:39Z</time>
      </trkpt>
      <trkpt lat="44.1151" lon="1.81748">
        <ele>336.6</ele>
        <time>2024-04-07T08:17:40Z</time>
      </trkpt>
      <trkpt lat="44.11508" lon="1.81752">
        <ele>337</ele>
        <time>2024-04-07T08:17:41Z</time>
      </trkpt>
      <trkpt lat="44.11506" lon="1.81756">
        <ele>337.4</ele>
        <time>2024-04-07T08:17:42Z</time>
      </trkpt>
      <trkpt lat="44.11505" lon="1.81761">
        <ele>337.6</ele>
        <time>2024-04-07T08:17:43Z</time>
      </trkpt>
      <trkpt lat="44.11504" lon="1.81766">
        <ele>338.2</ele>
        <time>2024-04-07T08:17:44Z</time>
      </trkpt>
      <trkpt lat="44.11504" lon="1.8177">
        <ele>338.4</ele>
        <time>2024-04-07T08:17:45Z</time>
      </trkpt>
      <trkpt lat="44.11503" lon="1.81774">
        <ele>339.4</ele>
        <time>2024-04-07T08:17:46Z</time>
      </trkpt>
      <trkpt lat="44.11502" lon="1.81778">
        <ele>340.2</ele>
        <time>2024-04-07T08:17:47Z</time>
      </trkpt>
      <trkpt lat="44.11502" lon="1.81782">
        <ele>340.4</ele>
        <time>2024-04-07T08:17:48Z</time>
      </trkpt>
      <trkpt lat="44.11502" lon="1.81785">
        <ele>341.2</ele>
        <time>2024-04-07T08:17:49Z</time>
      </trkpt>
      <trkpt lat="44.11501" lon="1.81789">
        <ele>341.4</ele>
        <time>2024-04-07T08:17:50Z</time>
      </trkpt>
      <trkpt lat="44.11501" lon="1.81793">
        <ele>341.6</ele>
        <time>2024-04-07T08:17:51Z</time>
      </trkpt>
      <trkpt lat="44.11501" lon="1.81796">
        <ele>341.8</ele>
        <time>2024-04-07T08:17:52Z</time>
      </trkpt>
      <trkpt lat="44.11501" lon="1.818">
        <ele>342</ele>
        <time>2024-04-07T08:17:53Z</time>
      </trkpt>
      <trkpt lat="44.11501" lon="1.81803">
        <ele>342.2</ele>
        <time>2024-04-07T08:17:54Z</time>
      </trkpt>
      <trkpt lat="44.11502" lon="1.81806">
        <ele>343</ele>
        <time>2024-04-07T08:17:55Z</time>
      </trkpt>
      <trkpt lat="44.11502" lon="1.81809">
        <ele>343.6</ele>
        <time>2024-04-07T08:17:56Z</time>
      </trkpt>
      <trkpt lat="44.11503" lon="1.81813">
        <ele>343.8</ele>
        <time>2024-04-07T08:17:57Z</time>
      </trkpt>
      <trkpt lat="44.11505" lon="1.81817">
        <ele>344.2</ele>
        <time>2024-04-07T08:17:58Z</time>
      </trkpt>
      <trkpt lat="44.11506" lon="1.81821">
        <ele>344.4</ele>
        <time>2024-04-07T08:17:59Z</time>
      </trkpt>
      <trkpt lat="44.11507" lon="1.81824">
        <ele>345</ele>
        <time>2024-04-07T08:18:00Z</time>
      </trkpt>
      <trkpt lat="44.11508" lon="1.81828">
        <ele>345.2</ele>
        <time>2024-04-07T08:18:01Z</time>
      </trkpt>
      <trkpt lat="44.11508" lon="1.81831">
        <ele>345.6</ele>
        <time>2024-04-07T08:18:02Z</time>
      </trkpt>
      <trkpt lat="44.11509" lon="1.81834">
        <ele>346</ele>
        <time>2024-04-07T08:18:03Z</time>
      </trkpt>
      <trkpt lat="44.1151" lon="1.81837">
        <ele>346.4</ele>
        <time>2024-04-07T08:18:04Z</time>
      </trkpt>
      <trkpt lat="44.11511" lon="1.8184">
        <ele>346.6</ele>
        <time>2024-04-07T08:18:05Z</time>
      </trkpt>
      <trkpt lat="44.11513" lon="1.81842">
        <ele>346.8</ele>
        <time>2024-04-07T08:18:06Z</time>
      </trkpt>
      <trkpt lat="44.11514" lon="1.81845">
        <ele>347.4</ele>
        <time>2024-04-07T08:18:07Z</time>
      </trkpt>
      <trkpt lat="44.11516" lon="1.81848">
        <ele>347.4</ele>
        <time>2024-04-07T08:18:08Z</time>
      </trkpt>
      <trkpt lat="44.11518" lon="1.81851">
        <ele>347.8</ele>
        <time>2024-04-07T08:18:09Z</time>
      </trkpt>
      <trkpt lat="44.11519" lon="1.81855">
        <ele>348</ele>
        <time>2024-04-07T08:18:10Z</time>
      </trkpt>
      <trkpt lat="44.11519" lon="1.81858">
        <ele>348.4</ele>
        <time>2024-04-07T08:18:11Z</time>
      </trkpt>
      <trkpt lat="44.11521" lon="1.81862">
        <ele>348.8</ele>
        <time>2024-04-07T08:18:12Z</time>
      </trkpt>
      <trkpt lat="44.11523" lon="1.81865">
        <ele>349</ele>
        <time>2024-04-07T08:18:13Z</time>
      </trkpt>
      <trkpt lat="44.11524" lon="1.81868">
        <ele>349</ele>
        <time>2024-04-07T08:18:14Z</time>
      </trkpt>
      <trkpt lat="44.11526" lon="1.81872">
        <ele>349</ele>
        <time>2024-04-07T08:18:15Z</time>
      </trkpt>
      <trkpt lat="44.11528" lon="1.81877">
        <ele>349.2</ele>
        <time>2024-04-07T08:18:16Z</time>
      </trkpt>
      <trkpt lat="44.1153" lon="1.81882">
        <ele>349.4</ele>
        <time>2024-04-07T08:18:17Z</time>
      </trkpt>
      <trkpt lat="44.11532" lon="1.81887">
        <ele>349.6</ele>
        <time>2024-04-07T08:18:18Z</time>
      </trkpt>
      <trkpt lat="44.11534" lon="1.81891">
        <ele>349.6</ele>
        <time>2024-04-07T08:18:19Z</time>
      </trkpt>
      <trkpt lat="44.11536" lon="1.81896">
        <ele>349.8</ele>
        <time>2024-04-07T08:18:20Z</time>
      </trkpt>
      <trkpt lat="44.11538" lon="1.81901">
        <ele>350</ele>
        <time>2024-04-07T08:18:21Z</time>
      </trkpt>
      <trkpt lat="44.1154" lon="1.81909">
        <ele>350</ele>
        <time>2024-04-07T08:18:22Z</time>
      </trkpt>
      <trkpt lat="44.11539" lon="1.81914">
        <ele>350.2</ele>
        <time>2024-04-07T08:18:23Z</time>
      </trkpt>
      <trkpt lat="44.1154" lon="1.81919">
        <ele>350.2</ele>
        <time>2024-04-07T08:18:24Z</time>
      </trkpt>
      <trkpt lat="44.11539" lon="1.81924">
        <ele>350.6</ele>
        <time>2024-04-07T08:18:25Z</time>
      </trkpt>
      <trkpt lat="44.11538" lon="1.81928">
        <ele>350.6</ele>
        <time>2024-04-07T08:18:26Z</time>
      </trkpt>
      <trkpt lat="44.11535" lon="1.81932">
        <ele>351</ele>
        <time>2024-04-07T08:18:27Z</time>
      </trkpt>
      <trkpt lat="44.11532" lon="1.81935">
        <ele>351.2</ele>
        <time>2024-04-07T08:18:28Z</time>
      </trkpt>
      <trkpt lat="44.1153" lon="1.81938">
        <ele>351.4</ele>
        <time>2024-04-07T08:18:29Z</time>
      </trkpt>
      <trkpt lat="44.11527" lon="1.81941">
        <ele>351.8</ele>
        <time>2024-04-07T08:18:30Z</time>
      </trkpt>
      <trkpt lat="44.11523" lon="1.81943">
        <ele>352</ele>
        <time>2024-04-07T08:18:31Z</time>
      </trkpt>
      <trkpt lat="44.11521" lon="1.81945">
        <ele>352.4</ele>
        <time>2024-04-07T08:18:32Z</time>
      </trkpt>
      <trkpt lat="44.11516" lon="1.81947">
        <ele>352.4</ele>
        <time>2024-04-07T08:18:33Z</time>
      </trkpt>
      <trkpt lat="44.11512" lon="1.81948">
        <ele>352.8</ele>
        <time>2024-04-07T08:18:34Z</time>
      </trkpt>
      <trkpt lat="44.11508" lon="1.8195">
        <ele>352.8</ele>
        <time>2024-04-07T08:18:35Z</time>
      </trkpt>
      <trkpt lat="44.11505" lon="1.81951">
        <ele>353</ele>
        <time>2024-04-07T08:18:36Z</time>
      </trkpt>
      <trkpt lat="44.11501" lon="1.81952">
        <ele>353.4</ele>
        <time>2024-04-07T08:18:37Z</time>
      </trkpt>
      <trkpt lat="44.11498" lon="1.81953">
        <ele>353.6</ele>
        <time>2024-04-07T08:18:38Z</time>
      </trkpt>
      <trkpt lat="44.11495" lon="1.81955">
        <ele>354</ele>
        <time>2024-04-07T08:18:39Z</time>
      </trkpt>
      <trkpt lat="44.11492" lon="1.81956">
        <ele>354.2</ele>
        <time>2024-04-07T08:18:40Z</time>
      </trkpt>
      <trkpt lat="44.11489" lon="1.81957">
        <ele>354.4</ele>
        <time>2024-04-07T08:18:41Z</time>
      </trkpt>
      <trkpt lat="44.11487" lon="1.81958">
        <ele>354.6</ele>
        <time>2024-04-07T08:18:42Z</time>
      </trkpt>
      <trkpt lat="44.11483" lon="1.8196">
        <ele>354.6</ele>
        <time>2024-04-07T08:18:43Z</time>
      </trkpt>
      <trkpt lat="44.1148" lon="1.81963">
        <ele>354.6</ele>
        <time>2024-04-07T08:18:44Z</time>
      </trkpt>
      <trkpt lat="44.11476" lon="1.81964">
        <ele>354.6</ele>
        <time>2024-04-07T08:18:45Z</time>
      </trkpt>
      <trkpt lat="44.11473" lon="1.81967">
        <ele>354.6</ele>
        <time>2024-04-07T08:18:46Z</time>
      </trkpt>
      <trkpt lat="44.11468" lon="1.8197">
        <ele>354.6</ele>
        <time>2024-04-07T08:18:47Z</time>
      </trkpt>
      <trkpt lat="44.11463" lon="1.81974">
        <ele>354.6</ele>
        <time>2024-04-07T08:18:48Z</time>
      </trkpt>
      <trkpt lat="44.11458" lon="1.81978">
        <ele>354.4</ele>
        <time>2024-04-07T08:18:49Z</time>
      </trkpt>
      <trkpt lat="44.11452" lon="1.81983">
        <ele>354.4</ele>
        <time>2024-04-07T08:18:50Z</time>
      </trkpt>
      <trkpt lat="44.11446" lon="1.81988">
        <ele>354.2</ele>
        <time>2024-04-07T08:18:51Z</time>
      </trkpt>
      <trkpt lat="44.1144" lon="1.81994">
        <ele>353.8</ele>
        <time>2024-04-07T08:18:52Z</time>
      </trkpt>
      <trkpt lat="44.11434" lon="1.81999">
        <ele>353.2</ele>
        <time>2024-04-07T08:18:53Z</time>
      </trkpt>
      <trkpt lat="44.11427" lon="1.82006">
        <ele>353</ele>
        <time>2024-04-07T08:18:54Z</time>
      </trkpt>
      <trkpt lat="44.11421" lon="1.82012">
        <ele>352.8</ele>
        <time>2024-04-07T08:18:55Z</time>
      </trkpt>
      <trkpt lat="44.11414" lon="1.82021">
        <ele>352.4</ele>
        <time>2024-04-07T08:18:56Z</time>
      </trkpt>
      <trkpt lat="44.11406" lon="1.82029">
        <ele>352</ele>
        <time>2024-04-07T08:18:57Z</time>
      </trkpt>
      <trkpt lat="44.114" lon="1.82036">
        <ele>351.6</ele>
        <time>2024-04-07T08:18:58Z</time>
      </trkpt>
      <trkpt lat="44.11392" lon="1.82041">
        <ele>351.2</ele>
        <time>2024-04-07T08:18:59Z</time>
      </trkpt>
      <trkpt lat="44.11386" lon="1.82046">
        <ele>350.8</ele>
        <time>2024-04-07T08:19:00Z</time>
      </trkpt>
      <trkpt lat="44.11379" lon="1.8205">
        <ele>350.2</ele>
        <time>2024-04-07T08:19:01Z</time>
      </trkpt>
      <trkpt lat="44.11374" lon="1.82053">
        <ele>350</ele>
        <time>2024-04-07T08:19:02Z</time>
      </trkpt>
      <trkpt lat="44.1137" lon="1.82056">
        <ele>349.8</ele>
        <time>2024-04-07T08:19:03Z</time>
      </trkpt>
      <trkpt lat="44.11365" lon="1.82061">
        <ele>349.8</ele>
        <time>2024-04-07T08:19:04Z</time>
      </trkpt>
      <trkpt lat="44.11361" lon="1.82067">
        <ele>349.8</ele>
        <time>2024-04-07T08:19:05Z</time>
      </trkpt>
      <trkpt lat="44.11358" lon="1.82073">
        <ele>349.8</ele>
        <time>2024-04-07T08:19:06Z</time>
      </trkpt>
      <trkpt lat="44.11356" lon="1.82079">
        <ele>349.6</ele>
        <time>2024-04-07T08:19:07Z</time>
      </trkpt>
      <trkpt lat="44.11354" lon="1.82085">
        <ele>349.8</ele>
        <time>2024-04-07T08:19:08Z</time>
      </trkpt>
      <trkpt lat="44.11352" lon="1.8209">
        <ele>349.8</ele>
        <time>2024-04-07T08:19:09Z</time>
      </trkpt>
      <trkpt lat="44.1135" lon="1.82097">
        <ele>349.8</ele>
        <time>2024-04-07T08:19:10Z</time>
      </trkpt>
      <trkpt lat="44.11349" lon="1.82102">
        <ele>350.2</ele>
        <time>2024-04-07T08:19:11Z</time>
      </trkpt>
      <trkpt lat="44.11347" lon="1.82107">
        <ele>350.2</ele>
        <time>2024-04-07T08:19:12Z</time>
      </trkpt>
      <trkpt lat="44.11346" lon="1.82112">
        <ele>350.4</ele>
        <time>2024-04-07T08:19:13Z</time>
      </trkpt>
      <trkpt lat="44.11345" lon="1.82117">
        <ele>350.4</ele>
        <time>2024-04-07T08:19:14Z</time>
      </trkpt>
      <trkpt lat="44.11343" lon="1.82121">
        <ele>350.6</ele>
        <time>2024-04-07T08:19:15Z</time>
      </trkpt>
      <trkpt lat="44.11341" lon="1.82126">
        <ele>350.6</ele>
        <time>2024-04-07T08:19:16Z</time>
      </trkpt>
      <trkpt lat="44.11339" lon="1.82131">
        <ele>350.8</ele>
        <time>2024-04-07T08:19:17Z</time>
      </trkpt>
      <trkpt lat="44.11337" lon="1.82134">
        <ele>350.8</ele>
        <time>2024-04-07T08:19:18Z</time>
      </trkpt>
      <trkpt lat="44.11334" lon="1.82139">
        <ele>351</ele>
        <time>2024-04-07T08:19:19Z</time>
      </trkpt>
      <trkpt lat="44.11331" lon="1.82143">
        <ele>351.2</ele>
        <time>2024-04-07T08:19:20Z</time>
      </trkpt>
      <trkpt lat="44.11328" lon="1.82147">
        <ele>351.2</ele>
        <time>2024-04-07T08:19:21Z</time>
      </trkpt>
      <trkpt lat="44.11326" lon="1.82151">
        <ele>351.6</ele>
        <time>2024-04-07T08:19:22Z</time>
      </trkpt>
      <trkpt lat="44.11325" lon="1.82154">
        <ele>351.6</ele>
        <time>2024-04-07T08:19:23Z</time>
      </trkpt>
      <trkpt lat="44.11323" lon="1.82159">
        <ele>352</ele>
        <time>2024-04-07T08:19:24Z</time>
      </trkpt>
      <trkpt lat="44.1132" lon="1.82164">
        <ele>352</ele>
        <time>2024-04-07T08:19:25Z</time>
      </trkpt>
      <trkpt lat="44.11319" lon="1.82167">
        <ele>352.6</ele>
        <time>2024-04-07T08:19:26Z</time>
      </trkpt>
      <trkpt lat="44.11318" lon="1.82171">
        <ele>353</ele>
        <time>2024-04-07T08:19:27Z</time>
      </trkpt>
      <trkpt lat="44.11316" lon="1.82175">
        <ele>353.2</ele>
        <time>2024-04-07T08:19:28Z</time>
      </trkpt>
      <trkpt lat="44.11314" lon="1.82179">
        <ele>353.4</ele>
        <time>2024-04-07T08:19:29Z</time>
      </trkpt>
      <trkpt lat="44.11314" lon="1.82182">
        <ele>353.6</ele>
        <time>2024-04-07T08:19:30Z</time>
      </trkpt>
      <trkpt lat="44.11312" lon="1.82185">
        <ele>354.2</ele>
        <time>2024-04-07T08:19:31Z</time>
      </trkpt>
      <trkpt lat="44.11311" lon="1.82188">
        <ele>354.2</ele>
        <time>2024-04-07T08:19:32Z</time>
      </trkpt>
      <trkpt lat="44.1131" lon="1.82192">
        <ele>354.6</ele>
        <time>2024-04-07T08:19:33Z</time>
      </trkpt>
      <trkpt lat="44.11308" lon="1.82196">
        <ele>354.8</ele>
        <time>2024-04-07T08:19:34Z</time>
      </trkpt>
      <trkpt lat="44.11307" lon="1.822">
        <ele>355.2</ele>
        <time>2024-04-07T08:19:35Z</time>
      </trkpt>
      <trkpt lat="44.11306" lon="1.82205">
        <ele>355.6</ele>
        <time>2024-04-07T08:19:36Z</time>
      </trkpt>
      <trkpt lat="44.11305" lon="1.82211">
        <ele>355.8</ele>
        <time>2024-04-07T08:19:37Z</time>
      </trkpt>
      <trkpt lat="44.11304" lon="1.82218">
        <ele>356.4</ele>
        <time>2024-04-07T08:19:38Z</time>
      </trkpt>
      <trkpt lat="44.11304" lon="1.82225">
        <ele>356.6</ele>
        <time>2024-04-07T08:19:39Z</time>
      </trkpt>
      <trkpt lat="44.11303" lon="1.82231">
        <ele>357.2</ele>
        <time>2024-04-07T08:19:40Z</time>
      </trkpt>
      <trkpt lat="44.11304" lon="1.82237">
        <ele>357.4</ele>
        <time>2024-04-07T08:19:41Z</time>
      </trkpt>
      <trkpt lat="44.11304" lon="1.82244">
        <ele>357.4</ele>
        <time>2024-04-07T08:19:42Z</time>
      </trkpt>
      <trkpt lat="44.11304" lon="1.82251">
        <ele>357.6</ele>
        <time>2024-04-07T08:19:43Z</time>
      </trkpt>
      <trkpt lat="44.11304" lon="1.82257">
        <ele>357.8</ele>
        <time>2024-04-07T08:19:44Z</time>
      </trkpt>
      <trkpt lat="44.11304" lon="1.82263">
        <ele>358</ele>
        <time>2024-04-07T08:19:45Z</time>
      </trkpt>
      <trkpt lat="44.11304" lon="1.82271">
        <ele>358</ele>
        <time>2024-04-07T08:19:46Z</time>
      </trkpt>
      <trkpt lat="44.11304" lon="1.82276">
        <ele>358.2</ele>
        <time>2024-04-07T08:19:47Z</time>
      </trkpt>
      <trkpt lat="44.11304" lon="1.82284">
        <ele>358.2</ele>
        <time>2024-04-07T08:19:48Z</time>
      </trkpt>
      <trkpt lat="44.11303" lon="1.8229">
        <ele>358.6</ele>
        <time>2024-04-07T08:19:49Z</time>
      </trkpt>
      <trkpt lat="44.11302" lon="1.82297">
        <ele>358.8</ele>
        <time>2024-04-07T08:19:50Z</time>
      </trkpt>
      <trkpt lat="44.11302" lon="1.82303">
        <ele>359</ele>
        <time>2024-04-07T08:19:51Z</time>
      </trkpt>
      <trkpt lat="44.11301" lon="1.82308">
        <ele>359.2</ele>
        <time>2024-04-07T08:19:52Z</time>
      </trkpt>
      <trkpt lat="44.11301" lon="1.82314">
        <ele>359.2</ele>
        <time>2024-04-07T08:19:53Z</time>
      </trkpt>
      <trkpt lat="44.11299" lon="1.82318">
        <ele>359.4</ele>
        <time>2024-04-07T08:19:54Z</time>
      </trkpt>
      <trkpt lat="44.11299" lon="1.82322">
        <ele>359.6</ele>
        <time>2024-04-07T08:19:55Z</time>
      </trkpt>
      <trkpt lat="44.11298" lon="1.82327">
        <ele>360</ele>
        <time>2024-04-07T08:19:56Z</time>
      </trkpt>
      <trkpt lat="44.11296" lon="1.82332">
        <ele>360</ele>
        <time>2024-04-07T08:19:57Z</time>
      </trkpt>
      <trkpt lat="44.11295" lon="1.82338">
        <ele>360.2</ele>
        <time>2024-04-07T08:19:58Z</time>
      </trkpt>
      <trkpt lat="44.11294" lon="1.82344">
        <ele>360.4</ele>
        <time>2024-04-07T08:19:59Z</time>
      </trkpt>
      <trkpt lat="44.11293" lon="1.8235">
        <ele>360.6</ele>
        <time>2024-04-07T08:20:00Z</time>
      </trkpt>
      <trkpt lat="44.11293" lon="1.82356">
        <ele>360.8</ele>
        <time>2024-04-07T08:20:01Z</time>
      </trkpt>
      <trkpt lat="44.11292" lon="1.82362">
        <ele>360.8</ele>
        <time>2024-04-07T08:20:02Z</time>
      </trkpt>
      <trkpt lat="44.11291" lon="1.82367">
        <ele>361</ele>
        <time>2024-04-07T08:20:03Z</time>
      </trkpt>
      <trkpt lat="44.1129" lon="1.82372">
        <ele>361.2</ele>
        <time>2024-04-07T08:20:04Z</time>
      </trkpt>
      <trkpt lat="44.11289" lon="1.82377">
        <ele>361.6</ele>
        <time>2024-04-07T08:20:05Z</time>
      </trkpt>
      <trkpt lat="44.11288" lon="1.82381">
        <ele>361.8</ele>
        <time>2024-04-07T08:20:06Z</time>
      </trkpt>
      <trkpt lat="44.11288" lon="1.82386">
        <ele>362</ele>
        <time>2024-04-07T08:20:07Z</time>
      </trkpt>
      <trkpt lat="44.11288" lon="1.8239">
        <ele>362.2</ele>
        <time>2024-04-07T08:20:08Z</time>
      </trkpt>
      <trkpt lat="44.11288" lon="1.82394">
        <ele>362.6</ele>
        <time>2024-04-07T08:20:09Z</time>
      </trkpt>
      <trkpt lat="44.11288" lon="1.82398">
        <ele>363</ele>
        <time>2024-04-07T08:20:10Z</time>
      </trkpt>
      <trkpt lat="44.11288" lon="1.82402">
        <ele>363.2</ele>
        <time>2024-04-07T08:20:11Z</time>
      </trkpt>
      <trkpt lat="44.11289" lon="1.82405">
        <ele>363.4</ele>
        <time>2024-04-07T08:20:12Z</time>
      </trkpt>
      <trkpt lat="44.11291" lon="1.82408">
        <ele>363.6</ele>
        <time>2024-04-07T08:20:13Z</time>
      </trkpt>
      <trkpt lat="44.11293" lon="1.82411">
        <ele>363.8</ele>
        <time>2024-04-07T08:20:14Z</time>
      </trkpt>
      <trkpt lat="44.11295" lon="1.82413">
        <ele>364</ele>
        <time>2024-04-07T08:20:15Z</time>
      </trkpt>
      <trkpt lat="44.11297" lon="1.82415">
        <ele>364.6</ele>
        <time>2024-04-07T08:20:16Z</time>
      </trkpt>
      <trkpt lat="44.11301" lon="1.82419">
        <ele>365.6</ele>
        <time>2024-04-07T08:20:17Z</time>
      </trkpt>
      <trkpt lat="44.11304" lon="1.82423">
        <ele>366</ele>
        <time>2024-04-07T08:20:18Z</time>
      </trkpt>
      <trkpt lat="44.11304" lon="1.82426">
        <ele>366.4</ele>
        <time>2024-04-07T08:20:19Z</time>
      </trkpt>
      <trkpt lat="44.11307" lon="1.8243">
        <ele>366.6</ele>
        <time>2024-04-07T08:20:20Z</time>
      </trkpt>
      <trkpt lat="44.11309" lon="1.82434">
        <ele>366.8</ele>
        <time>2024-04-07T08:20:21Z</time>
      </trkpt>
      <trkpt lat="44.11314" lon="1.82439">
        <ele>366.8</ele>
        <time>2024-04-07T08:20:22Z</time>
      </trkpt>
      <trkpt lat="44.11317" lon="1.82442">
        <ele>367</ele>
        <time>2024-04-07T08:20:23Z</time>
      </trkpt>
      <trkpt lat="44.11319" lon="1.82447">
        <ele>367</ele>
        <time>2024-04-07T08:20:24Z</time>
      </trkpt>
      <trkpt lat="44.11322" lon="1.82452">
        <ele>367.2</ele>
        <time>2024-04-07T08:20:25Z</time>
      </trkpt>
      <trkpt lat="44.11324" lon="1.82456">
        <ele>367.4</ele>
        <time>2024-04-07T08:20:26Z</time>
      </trkpt>
      <trkpt lat="44.11325" lon="1.82461">
        <ele>367.4</ele>
        <time>2024-04-07T08:20:27Z</time>
      </trkpt>
      <trkpt lat="44.11327" lon="1.82464">
        <ele>367.8</ele>
        <time>2024-04-07T08:20:28Z</time>
      </trkpt>
      <trkpt lat="44.1133" lon="1.82469">
        <ele>367.8</ele>
        <time>2024-04-07T08:20:29Z</time>
      </trkpt>
      <trkpt lat="44.11333" lon="1.82474">
        <ele>368.2</ele>
        <time>2024-04-07T08:20:30Z</time>
      </trkpt>
      <trkpt lat="44.11336" lon="1.8248">
        <ele>368.4</ele>
        <time>2024-04-07T08:20:31Z</time>
      </trkpt>
      <trkpt lat="44.11337" lon="1.82484">
        <ele>368.8</ele>
        <time>2024-04-07T08:20:32Z</time>
      </trkpt>
      <trkpt lat="44.1134" lon="1.82487">
        <ele>369</ele>
        <time>2024-04-07T08:20:33Z</time>
      </trkpt>
      <trkpt lat="44.11342" lon="1.82491">
        <ele>369.4</ele>
        <time>2024-04-07T08:20:34Z</time>
      </trkpt>
      <trkpt lat="44.11347" lon="1.82497">
        <ele>369.4</ele>
        <time>2024-04-07T08:20:35Z</time>
      </trkpt>
      <trkpt lat="44.11348" lon="1.82503">
        <ele>369.6</ele>
        <time>2024-04-07T08:20:36Z</time>
      </trkpt>
      <trkpt lat="44.1135" lon="1.82508">
        <ele>369.6</ele>
        <time>2024-04-07T08:20:37Z</time>
      </trkpt>
      <trkpt lat="44.11353" lon="1.82515">
        <ele>369.6</ele>
        <time>2024-04-07T08:20:38Z</time>
      </trkpt>
      <trkpt lat="44.11354" lon="1.82521">
        <ele>369.6</ele>
        <time>2024-04-07T08:20:39Z</time>
      </trkpt>
      <trkpt lat="44.11353" lon="1.82526">
        <ele>369.8</ele>
        <time>2024-04-07T08:20:40Z</time>
      </trkpt>
      <trkpt lat="44.11355" lon="1.82532">
        <ele>369.8</ele>
        <time>2024-04-07T08:20:41Z</time>
      </trkpt>
      <trkpt lat="44.11357" lon="1.8254">
        <ele>369.8</ele>
        <time>2024-04-07T08:20:42Z</time>
      </trkpt>
      <trkpt lat="44.11359" lon="1.82547">
        <ele>370</ele>
        <time>2024-04-07T08:20:43Z</time>
      </trkpt>
      <trkpt lat="44.11362" lon="1.82554">
        <ele>370.2</ele>
        <time>2024-04-07T08:20:44Z</time>
      </trkpt>
      <trkpt lat="44.11366" lon="1.8256">
        <ele>370.4</ele>
        <time>2024-04-07T08:20:45Z</time>
      </trkpt>
      <trkpt lat="44.1137" lon="1.82567">
        <ele>370.4</ele>
        <time>2024-04-07T08:20:46Z</time>
      </trkpt>
      <trkpt lat="44.11373" lon="1.82573">
        <ele>370.6</ele>
        <time>2024-04-07T08:20:47Z</time>
      </trkpt>
      <trkpt lat="44.11376" lon="1.82578">
        <ele>370.6</ele>
        <time>2024-04-07T08:20:48Z</time>
      </trkpt>
      <trkpt lat="44.11377" lon="1.82584">
        <ele>370.6</ele>
        <time>2024-04-07T08:20:49Z</time>
      </trkpt>
      <trkpt lat="44.11379" lon="1.8259">
        <ele>370.6</ele>
        <time>2024-04-07T08:20:50Z</time>
      </trkpt>
      <trkpt lat="44.11381" lon="1.82597">
        <ele>370.6</ele>
        <time>2024-04-07T08:20:51Z</time>
      </trkpt>
      <trkpt lat="44.11384" lon="1.82604">
        <ele>370.8</ele>
        <time>2024-04-07T08:20:52Z</time>
      </trkpt>
      <trkpt lat="44.11385" lon="1.8261">
        <ele>370.8</ele>
        <time>2024-04-07T08:20:53Z</time>
      </trkpt>
      <trkpt lat="44.11386" lon="1.82617">
        <ele>370.8</ele>
        <time>2024-04-07T08:20:54Z</time>
      </trkpt>
      <trkpt lat="44.11386" lon="1.82622">
        <ele>371</ele>
        <time>2024-04-07T08:20:55Z</time>
      </trkpt>
      <trkpt lat="44.11386" lon="1.82626">
        <ele>371</ele>
        <time>2024-04-07T08:20:56Z</time>
      </trkpt>
      <trkpt lat="44.11386" lon="1.82631">
        <ele>371.4</ele>
        <time>2024-04-07T08:20:57Z</time>
      </trkpt>
      <trkpt lat="44.11385" lon="1.82636">
        <ele>371.4</ele>
        <time>2024-04-07T08:20:58Z</time>
      </trkpt>
      <trkpt lat="44.11385" lon="1.82642">
        <ele>371.8</ele>
        <time>2024-04-07T08:20:59Z</time>
      </trkpt>
      <trkpt lat="44.11384" lon="1.82647">
        <ele>372.2</ele>
        <time>2024-04-07T08:21:00Z</time>
      </trkpt>
      <trkpt lat="44.11382" lon="1.82653">
        <ele>372.6</ele>
        <time>2024-04-07T08:21:01Z</time>
      </trkpt>
      <trkpt lat="44.11381" lon="1.82659">
        <ele>373</ele>
        <time>2024-04-07T08:21:02Z</time>
      </trkpt>
      <trkpt lat="44.1138" lon="1.82665">
        <ele>373.6</ele>
        <time>2024-04-07T08:21:03Z</time>
      </trkpt>
      <trkpt lat="44.11379" lon="1.82671">
        <ele>374.2</ele>
        <time>2024-04-07T08:21:04Z</time>
      </trkpt>
      <trkpt lat="44.11378" lon="1.82676">
        <ele>374.2</ele>
        <time>2024-04-07T08:21:05Z</time>
      </trkpt>
      <trkpt lat="44.11377" lon="1.82682">
        <ele>374.6</ele>
        <time>2024-04-07T08:21:06Z</time>
      </trkpt>
      <trkpt lat="44.11376" lon="1.82688">
        <ele>374.8</ele>
        <time>2024-04-07T08:21:07Z</time>
      </trkpt>
      <trkpt lat="44.11374" lon="1.82693">
        <ele>375</ele>
        <time>2024-04-07T08:21:08Z</time>
      </trkpt>
      <trkpt lat="44.11373" lon="1.827">
        <ele>375.2</ele>
        <time>2024-04-07T08:21:09Z</time>
      </trkpt>
      <trkpt lat="44.11373" lon="1.82705">
        <ele>375.2</ele>
        <time>2024-04-07T08:21:10Z</time>
      </trkpt>
      <trkpt lat="44.11374" lon="1.8271">
        <ele>375.4</ele>
        <time>2024-04-07T08:21:11Z</time>
      </trkpt>
      <trkpt lat="44.11374" lon="1.82716">
        <ele>375.6</ele>
        <time>2024-04-07T08:21:12Z</time>
      </trkpt>
      <trkpt lat="44.11374" lon="1.82722">
        <ele>376</ele>
        <time>2024-04-07T08:21:13Z</time>
      </trkpt>
      <trkpt lat="44.11373" lon="1.82728">
        <ele>376</ele>
        <time>2024-04-07T08:21:14Z</time>
      </trkpt>
      <trkpt lat="44.11373" lon="1.82733">
        <ele>376.2</ele>
        <time>2024-04-07T08:21:15Z</time>
      </trkpt>
      <trkpt lat="44.11373" lon="1.82739">
        <ele>376.2</ele>
        <time>2024-04-07T08:21:16Z</time>
      </trkpt>
      <trkpt lat="44.11374" lon="1.82745">
        <ele>376.2</ele>
        <time>2024-04-07T08:21:17Z</time>
      </trkpt>
      <trkpt lat="44.11375" lon="1.82752">
        <ele>376.2</ele>
        <time>2024-04-07T08:21:18Z</time>
      </trkpt>
      <trkpt lat="44.11375" lon="1.8276">
        <ele>376.4</ele>
        <time>2024-04-07T08:21:19Z</time>
      </trkpt>
      <trkpt lat="44.11376" lon="1.82768">
        <ele>376.4</ele>
        <time>2024-04-07T08:21:20Z</time>
      </trkpt>
      <trkpt lat="44.11377" lon="1.82777">
        <ele>376.4</ele>
        <time>2024-04-07T08:21:21Z</time>
      </trkpt>
      <trkpt lat="44.11377" lon="1.82786">
        <ele>376.4</ele>
        <time>2024-04-07T08:21:22Z</time>
      </trkpt>
      <trkpt lat="44.11377" lon="1.82794">
        <ele>376.4</ele>
        <time>2024-04-07T08:21:23Z</time>
      </trkpt>
      <trkpt lat="44.11377" lon="1.82802">
        <ele>376.4</ele>
        <time>2024-04-07T08:21:24Z</time>
      </trkpt>
      <trkpt lat="44.11377" lon="1.8281">
        <ele>376.2</ele>
        <time>2024-04-07T08:21:25Z</time>
      </trkpt>
      <trkpt lat="44.11377" lon="1.82817">
        <ele>376.2</ele>
        <time>2024-04-07T08:21:26Z</time>
      </trkpt>
      <trkpt lat="44.11377" lon="1.82824">
        <ele>376.2</ele>
        <time>2024-04-07T08:21:27Z</time>
      </trkpt>
      <trkpt lat="44.11377" lon="1.82832">
        <ele>376.2</ele>
        <time>2024-04-07T08:21:28Z</time>
      </trkpt>
      <trkpt lat="44.11377" lon="1.82839">
        <ele>376.2</ele>
        <time>2024-04-07T08:21:29Z</time>
      </trkpt>
      <trkpt lat="44.11378" lon="1.82847">
        <ele>376.2</ele>
        <time>2024-04-07T08:21:30Z</time>
      </trkpt>
      <trkpt lat="44.1138" lon="1.82853">
        <ele>376.2</ele>
        <time>2024-04-07T08:21:31Z</time>
      </trkpt>
      <trkpt lat="44.11381" lon="1.8286">
        <ele>376.2</ele>
        <time>2024-04-07T08:21:32Z</time>
      </trkpt>
      <trkpt lat="44.11383" lon="1.82867">
        <ele>376.2</ele>
        <time>2024-04-07T08:21:33Z</time>
      </trkpt>
      <trkpt lat="44.11384" lon="1.82873">
        <ele>376.2</ele>
        <time>2024-04-07T08:21:34Z</time>
      </trkpt>
      <trkpt lat="44.11385" lon="1.82879">
        <ele>376.2</ele>
        <time>2024-04-07T08:21:35Z</time>
      </trkpt>
      <trkpt lat="44.11388" lon="1.82883">
        <ele>376.2</ele>
        <time>2024-04-07T08:21:36Z</time>
      </trkpt>
      <trkpt lat="44.1139" lon="1.82884">
        <ele>376.2</ele>
        <time>2024-04-07T08:21:37Z</time>
      </trkpt>
      <trkpt lat="44.11393" lon="1.82887">
        <ele>376.2</ele>
        <time>2024-04-07T08:21:38Z</time>
      </trkpt>
      <trkpt lat="44.11395" lon="1.82891">
        <ele>376.2</ele>
        <time>2024-04-07T08:21:39Z</time>
      </trkpt>
      <trkpt lat="44.11396" lon="1.82895">
        <ele>376.2</ele>
        <time>2024-04-07T08:21:40Z</time>
      </trkpt>
      <trkpt lat="44.11396" lon="1.829">
        <ele>376.2</ele>
        <time>2024-04-07T08:21:41Z</time>
      </trkpt>
      <trkpt lat="44.11395" lon="1.82905">
        <ele>376.2</ele>
        <time>2024-04-07T08:21:43Z</time>
      </trkpt>
      <trkpt lat="44.11394" lon="1.82912">
        <ele>376.4</ele>
        <time>2024-04-07T08:21:44Z</time>
      </trkpt>
      <trkpt lat="44.11393" lon="1.82918">
        <ele>376.4</ele>
        <time>2024-04-07T08:21:45Z</time>
      </trkpt>
      <trkpt lat="44.11391" lon="1.82924">
        <ele>376.4</ele>
        <time>2024-04-07T08:21:46Z</time>
      </trkpt>
      <trkpt lat="44.1139" lon="1.8293">
        <ele>376.4</ele>
        <time>2024-04-07T08:21:47Z</time>
      </trkpt>
      <trkpt lat="44.11389" lon="1.82936">
        <ele>376.8</ele>
        <time>2024-04-07T08:21:48Z</time>
      </trkpt>
      <trkpt lat="44.11389" lon="1.82948">
        <ele>377.4</ele>
        <time>2024-04-07T08:21:50Z</time>
      </trkpt>
      <trkpt lat="44.1139" lon="1.82955">
        <ele>377.8</ele>
        <time>2024-04-07T08:21:51Z</time>
      </trkpt>
      <trkpt lat="44.11391" lon="1.82962">
        <ele>378.2</ele>
        <time>2024-04-07T08:21:52Z</time>
      </trkpt>
      <trkpt lat="44.11393" lon="1.82968">
        <ele>378.6</ele>
        <time>2024-04-07T08:21:53Z</time>
      </trkpt>
      <trkpt lat="44.11394" lon="1.82975">
        <ele>378.8</ele>
        <time>2024-04-07T08:21:54Z</time>
      </trkpt>
      <trkpt lat="44.11395" lon="1.82981">
        <ele>379.2</ele>
        <time>2024-04-07T08:21:55Z</time>
      </trkpt>
      <trkpt lat="44.11397" lon="1.82987">
        <ele>379.4</ele>
        <time>2024-04-07T08:21:56Z</time>
      </trkpt>
      <trkpt lat="44.114" lon="1.82992">
        <ele>380</ele>
        <time>2024-04-07T08:21:57Z</time>
      </trkpt>
      <trkpt lat="44.11403" lon="1.82996">
        <ele>380.4</ele>
        <time>2024-04-07T08:21:58Z</time>
      </trkpt>
      <trkpt lat="44.11407" lon="1.83001">
        <ele>380.8</ele>
        <time>2024-04-07T08:21:59Z</time>
      </trkpt>
      <trkpt lat="44.1141" lon="1.83005">
        <ele>381</ele>
        <time>2024-04-07T08:22:00Z</time>
      </trkpt>
      <trkpt lat="44.11414" lon="1.83009">
        <ele>381</ele>
        <time>2024-04-07T08:22:01Z</time>
      </trkpt>
      <trkpt lat="44.11419" lon="1.83013">
        <ele>381.2</ele>
        <time>2024-04-07T08:22:02Z</time>
      </trkpt>
      <trkpt lat="44.11424" lon="1.83016">
        <ele>381.4</ele>
        <time>2024-04-07T08:22:03Z</time>
      </trkpt>
      <trkpt lat="44.11429" lon="1.8302">
        <ele>381.6</ele>
        <time>2024-04-07T08:22:04Z</time>
      </trkpt>
      <trkpt lat="44.11433" lon="1.83024">
        <ele>381.8</ele>
        <time>2024-04-07T08:22:05Z</time>
      </trkpt>
      <trkpt lat="44.11437" lon="1.83028">
        <ele>382</ele>
        <time>2024-04-07T08:22:06Z</time>
      </trkpt>
      <trkpt lat="44.1144" lon="1.83032">
        <ele>382</ele>
        <time>2024-04-07T08:22:07Z</time>
      </trkpt>
      <trkpt lat="44.11442" lon="1.83037">
        <ele>382.2</ele>
        <time>2024-04-07T08:22:08Z</time>
      </trkpt>
      <trkpt lat="44.11444" lon="1.83043">
        <ele>382.2</ele>
        <time>2024-04-07T08:22:09Z</time>
      </trkpt>
      <trkpt lat="44.11448" lon="1.83048">
        <ele>382.2</ele>
        <time>2024-04-07T08:22:10Z</time>
      </trkpt>
      <trkpt lat="44.11454" lon="1.83055">
        <ele>382.2</ele>
        <time>2024-04-07T08:22:11Z</time>
      </trkpt>
      <trkpt lat="44.11459" lon="1.83061">
        <ele>382.2</ele>
        <time>2024-04-07T08:22:12Z</time>
      </trkpt>
      <trkpt lat="44.11463" lon="1.83067">
        <ele>382.2</ele>
        <time>2024-04-07T08:22:13Z</time>
      </trkpt>
      <trkpt lat="44.11468" lon="1.83075">
        <ele>382.2</ele>
        <time>2024-04-07T08:22:14Z</time>
      </trkpt>
      <trkpt lat="44.11471" lon="1.83082">
        <ele>382.2</ele>
        <time>2024-04-07T08:22:15Z</time>
      </trkpt>
      <trkpt lat="44.11475" lon="1.83088">
        <ele>382</ele>
        <time>2024-04-07T08:22:16Z</time>
      </trkpt>
      <trkpt lat="44.11478" lon="1.83093">
        <ele>382.2</ele>
        <time>2024-04-07T08:22:17Z</time>
      </trkpt>
      <trkpt lat="44.11482" lon="1.83098">
        <ele>382.2</ele>
        <time>2024-04-07T08:22:18Z</time>
      </trkpt>
      <trkpt lat="44.11487" lon="1.83103">
        <ele>382.2</ele>
        <time>2024-04-07T08:22:19Z</time>
      </trkpt>
      <trkpt lat="44.11492" lon="1.8311">
        <ele>382.4</ele>
        <time>2024-04-07T08:22:20Z</time>
      </trkpt>
      <trkpt lat="44.11496" lon="1.83116">
        <ele>382.6</ele>
        <time>2024-04-07T08:22:21Z</time>
      </trkpt>
      <trkpt lat="44.115" lon="1.83122">
        <ele>382.6</ele>
        <time>2024-04-07T08:22:22Z</time>
      </trkpt>
      <trkpt lat="44.11504" lon="1.83127">
        <ele>382.6</ele>
        <time>2024-04-07T08:22:23Z</time>
      </trkpt>
      <trkpt lat="44.11508" lon="1.83133">
        <ele>382.8</ele>
        <time>2024-04-07T08:22:24Z</time>
      </trkpt>
      <trkpt lat="44.11512" lon="1.8314">
        <ele>382.8</ele>
        <time>2024-04-07T08:22:25Z</time>
      </trkpt>
      <trkpt lat="44.11515" lon="1.83147">
        <ele>382.8</ele>
        <time>2024-04-07T08:22:26Z</time>
      </trkpt>
      <trkpt lat="44.11518" lon="1.83155">
        <ele>382.8</ele>
        <time>2024-04-07T08:22:27Z</time>
      </trkpt>
      <trkpt lat="44.1152" lon="1.83163">
        <ele>382.8</ele>
        <time>2024-04-07T08:22:28Z</time>
      </trkpt>
      <trkpt lat="44.11523" lon="1.8317">
        <ele>382.8</ele>
        <time>2024-04-07T08:22:29Z</time>
      </trkpt>
      <trkpt lat="44.11526" lon="1.83177">
        <ele>382.8</ele>
        <time>2024-04-07T08:22:30Z</time>
      </trkpt>
      <trkpt lat="44.11534" lon="1.83188">
        <ele>382.8</ele>
        <time>2024-04-07T08:22:32Z</time>
      </trkpt>
      <trkpt lat="44.11539" lon="1.83191">
        <ele>382.6</ele>
        <time>2024-04-07T08:22:33Z</time>
      </trkpt>
      <trkpt lat="44.11545" lon="1.83193">
        <ele>382.6</ele>
        <time>2024-04-07T08:22:34Z</time>
      </trkpt>
      <trkpt lat="44.11551" lon="1.83194">
        <ele>382.6</ele>
        <time>2024-04-07T08:22:35Z</time>
      </trkpt>
      <trkpt lat="44.11558" lon="1.83193">
        <ele>382.4</ele>
        <time>2024-04-07T08:22:36Z</time>
      </trkpt>
      <trkpt lat="44.11564" lon="1.83192">
        <ele>382.4</ele>
        <time>2024-04-07T08:22:37Z</time>
      </trkpt>
      <trkpt lat="44.11571" lon="1.83192">
        <ele>382.4</ele>
        <time>2024-04-07T08:22:38Z</time>
      </trkpt>
      <trkpt lat="44.11577" lon="1.83193">
        <ele>382.2</ele>
        <time>2024-04-07T08:22:39Z</time>
      </trkpt>
      <trkpt lat="44.1159" lon="1.83197">
        <ele>382.2</ele>
        <time>2024-04-07T08:22:41Z</time>
      </trkpt>
      <trkpt lat="44.11596" lon="1.83201">
        <ele>382.2</ele>
        <time>2024-04-07T08:22:42Z</time>
      </trkpt>
      <trkpt lat="44.11601" lon="1.83207">
        <ele>381.6</ele>
        <time>2024-04-07T08:22:43Z</time>
      </trkpt>
      <trkpt lat="44.11605" lon="1.83212">
        <ele>381.4</ele>
        <time>2024-04-07T08:22:44Z</time>
      </trkpt>
      <trkpt lat="44.11609" lon="1.83217">
        <ele>381.2</ele>
        <time>2024-04-07T08:22:45Z</time>
      </trkpt>
      <trkpt lat="44.11614" lon="1.83223">
        <ele>381</ele>
        <time>2024-04-07T08:22:46Z</time>
      </trkpt>
      <trkpt lat="44.11619" lon="1.83228">
        <ele>380.8</ele>
        <time>2024-04-07T08:22:47Z</time>
      </trkpt>
      <trkpt lat="44.11623" lon="1.83235">
        <ele>380.6</ele>
        <time>2024-04-07T08:22:48Z</time>
      </trkpt>
      <trkpt lat="44.11627" lon="1.8324">
        <ele>380.2</ele>
        <time>2024-04-07T08:22:49Z</time>
      </trkpt>
      <trkpt lat="44.1163" lon="1.83246">
        <ele>380.2</ele>
        <time>2024-04-07T08:22:50Z</time>
      </trkpt>
      <trkpt lat="44.11634" lon="1.83252">
        <ele>380</ele>
        <time>2024-04-07T08:22:51Z</time>
      </trkpt>
      <trkpt lat="44.11638" lon="1.83258">
        <ele>380</ele>
        <time>2024-04-07T08:22:52Z</time>
      </trkpt>
      <trkpt lat="44.11647" lon="1.83269">
        <ele>380</ele>
        <time>2024-04-07T08:22:54Z</time>
      </trkpt>
      <trkpt lat="44.11652" lon="1.83274">
        <ele>380.2</ele>
        <time>2024-04-07T08:22:55Z</time>
      </trkpt>
      <trkpt lat="44.11661" lon="1.83285">
        <ele>380.2</ele>
        <time>2024-04-07T08:22:57Z</time>
      </trkpt>
      <trkpt lat="44.11665" lon="1.83291">
        <ele>380.2</ele>
        <time>2024-04-07T08:22:58Z</time>
      </trkpt>
      <trkpt lat="44.1167" lon="1.83298">
        <ele>380.4</ele>
        <time>2024-04-07T08:22:59Z</time>
      </trkpt>
      <trkpt lat="44.11674" lon="1.83304">
        <ele>380.4</ele>
        <time>2024-04-07T08:23:00Z</time>
      </trkpt>
      <trkpt lat="44.11678" lon="1.83311">
        <ele>380.4</ele>
        <time>2024-04-07T08:23:01Z</time>
      </trkpt>
      <trkpt lat="44.11686" lon="1.83323">
        <ele>380.4</ele>
        <time>2024-04-07T08:23:03Z</time>
      </trkpt>
      <trkpt lat="44.1169" lon="1.83329">
        <ele>380.2</ele>
        <time>2024-04-07T08:23:04Z</time>
      </trkpt>
      <trkpt lat="44.11699" lon="1.83342">
        <ele>380</ele>
        <time>2024-04-07T08:23:06Z</time>
      </trkpt>
      <trkpt lat="44.11704" lon="1.83348">
        <ele>379.6</ele>
        <time>2024-04-07T08:23:07Z</time>
      </trkpt>
      <trkpt lat="44.11714" lon="1.8336">
        <ele>379.4</ele>
        <time>2024-04-07T08:23:09Z</time>
      </trkpt>
      <trkpt lat="44.1172" lon="1.83365">
        <ele>379.2</ele>
        <time>2024-04-07T08:23:10Z</time>
      </trkpt>
      <trkpt lat="44.11731" lon="1.83375">
        <ele>378.8</ele>
        <time>2024-04-07T08:23:12Z</time>
      </trkpt>
      <trkpt lat="44.11737" lon="1.8338">
        <ele>378.8</ele>
        <time>2024-04-07T08:23:13Z</time>
      </trkpt>
      <trkpt lat="44.11742" lon="1.83385">
        <ele>378.6</ele>
        <time>2024-04-07T08:23:14Z</time>
      </trkpt>
      <trkpt lat="44.11748" lon="1.83391">
        <ele>378.6</ele>
        <time>2024-04-07T08:23:15Z</time>
      </trkpt>
      <trkpt lat="44.11754" lon="1.83396">
        <ele>378.6</ele>
        <time>2024-04-07T08:23:16Z</time>
      </trkpt>
      <trkpt lat="44.1176" lon="1.83401">
        <ele>378.6</ele>
        <time>2024-04-07T08:23:17Z</time>
      </trkpt>
      <trkpt lat="44.11766" lon="1.83405">
        <ele>378.4</ele>
        <time>2024-04-07T08:23:18Z</time>
      </trkpt>
      <trkpt lat="44.11771" lon="1.83409">
        <ele>378.4</ele>
        <time>2024-04-07T08:23:19Z</time>
      </trkpt>
      <trkpt lat="44.11783" lon="1.83415">
        <ele>378.4</ele>
        <time>2024-04-07T08:23:21Z</time>
      </trkpt>
      <trkpt lat="44.11789" lon="1.83418">
        <ele>378.4</ele>
        <time>2024-04-07T08:23:22Z</time>
      </trkpt>
      <trkpt lat="44.11795" lon="1.83419">
        <ele>378.4</ele>
        <time>2024-04-07T08:23:23Z</time>
      </trkpt>
      <trkpt lat="44.11801" lon="1.83418">
        <ele>378.2</ele>
        <time>2024-04-07T08:23:24Z</time>
      </trkpt>
      <trkpt lat="44.11807" lon="1.83418">
        <ele>378.2</ele>
        <time>2024-04-07T08:23:25Z</time>
      </trkpt>
      <trkpt lat="44.11813" lon="1.83419">
        <ele>378.2</ele>
        <time>2024-04-07T08:23:26Z</time>
      </trkpt>
      <trkpt lat="44.11818" lon="1.8342">
        <ele>378.2</ele>
        <time>2024-04-07T08:23:27Z</time>
      </trkpt>
      <trkpt lat="44.11823" lon="1.83421">
        <ele>378.2</ele>
        <time>2024-04-07T08:23:28Z</time>
      </trkpt>
      <trkpt lat="44.11828" lon="1.83422">
        <ele>378.2</ele>
        <time>2024-04-07T08:23:29Z</time>
      </trkpt>
      <trkpt lat="44.11833" lon="1.83423">
        <ele>378.2</ele>
        <time>2024-04-07T08:23:30Z</time>
      </trkpt>
      <trkpt lat="44.11837" lon="1.83425">
        <ele>378.2</ele>
        <time>2024-04-07T08:23:31Z</time>
      </trkpt>
      <trkpt lat="44.11841" lon="1.83427">
        <ele>378.2</ele>
        <time>2024-04-07T08:23:32Z</time>
      </trkpt>
      <trkpt lat="44.11845" lon="1.83429">
        <ele>378.2</ele>
        <time>2024-04-07T08:23:33Z</time>
      </trkpt>
      <trkpt lat="44.11847" lon="1.83431">
        <ele>378.4</ele>
        <time>2024-04-07T08:23:34Z</time>
      </trkpt>
      <trkpt lat="44.1185" lon="1.83433">
        <ele>378.2</ele>
        <time>2024-04-07T08:23:35Z</time>
      </trkpt>
      <trkpt lat="44.11853" lon="1.83435">
        <ele>378.2</ele>
        <time>2024-04-07T08:23:36Z</time>
      </trkpt>
      <trkpt lat="44.11856" lon="1.83437">
        <ele>378.2</ele>
        <time>2024-04-07T08:23:37Z</time>
      </trkpt>
      <trkpt lat="44.11859" lon="1.83439">
        <ele>378.2</ele>
        <time>2024-04-07T08:23:38Z</time>
      </trkpt>
      <trkpt lat="44.11861" lon="1.83441">
        <ele>378.2</ele>
        <time>2024-04-07T08:23:39Z</time>
      </trkpt>
      <trkpt lat="44.11863" lon="1.83444">
        <ele>378.2</ele>
        <time>2024-04-07T08:23:40Z</time>
      </trkpt>
      <trkpt lat="44.11865" lon="1.83446">
        <ele>378</ele>
        <time>2024-04-07T08:23:41Z</time>
      </trkpt>
      <trkpt lat="44.11867" lon="1.83448">
        <ele>378</ele>
        <time>2024-04-07T08:23:42Z</time>
      </trkpt>
      <trkpt lat="44.1187" lon="1.83452">
        <ele>378</ele>
        <time>2024-04-07T08:23:43Z</time>
      </trkpt>
      <trkpt lat="44.11873" lon="1.83455">
        <ele>377.8</ele>
        <time>2024-04-07T08:23:44Z</time>
      </trkpt>
      <trkpt lat="44.11876" lon="1.83458">
        <ele>378</ele>
        <time>2024-04-07T08:23:45Z</time>
      </trkpt>
      <trkpt lat="44.11878" lon="1.83461">
        <ele>378</ele>
        <time>2024-04-07T08:23:46Z</time>
      </trkpt>
      <trkpt lat="44.1188" lon="1.83465">
        <ele>377.8</ele>
        <time>2024-04-07T08:23:47Z</time>
      </trkpt>
      <trkpt lat="44.11882" lon="1.83469">
        <ele>377.4</ele>
        <time>2024-04-07T08:23:48Z</time>
      </trkpt>
      <trkpt lat="44.11885" lon="1.83473">
        <ele>377.2</ele>
        <time>2024-04-07T08:23:49Z</time>
      </trkpt>
      <trkpt lat="44.11888" lon="1.83478">
        <ele>377</ele>
        <time>2024-04-07T08:23:50Z</time>
      </trkpt>
      <trkpt lat="44.11891" lon="1.83481">
        <ele>376.6</ele>
        <time>2024-04-07T08:23:51Z</time>
      </trkpt>
      <trkpt lat="44.11894" lon="1.83485">
        <ele>376.4</ele>
        <time>2024-04-07T08:23:52Z</time>
      </trkpt>
      <trkpt lat="44.11897" lon="1.83489">
        <ele>376</ele>
        <time>2024-04-07T08:23:53Z</time>
      </trkpt>
      <trkpt lat="44.11901" lon="1.83494">
        <ele>375.8</ele>
        <time>2024-04-07T08:23:54Z</time>
      </trkpt>
      <trkpt lat="44.11906" lon="1.83499">
        <ele>375.6</ele>
        <time>2024-04-07T08:23:55Z</time>
      </trkpt>
      <trkpt lat="44.11911" lon="1.83504">
        <ele>375.6</ele>
        <time>2024-04-07T08:23:56Z</time>
      </trkpt>
      <trkpt lat="44.11916" lon="1.83508">
        <ele>375.4</ele>
        <time>2024-04-07T08:23:57Z</time>
      </trkpt>
      <trkpt lat="44.11922" lon="1.83511">
        <ele>375.4</ele>
        <time>2024-04-07T08:23:58Z</time>
      </trkpt>
      <trkpt lat="44.11929" lon="1.83516">
        <ele>375.2</ele>
        <time>2024-04-07T08:23:59Z</time>
      </trkpt>
      <trkpt lat="44.11936" lon="1.8352">
        <ele>374.8</ele>
        <time>2024-04-07T08:24:00Z</time>
      </trkpt>
      <trkpt lat="44.11942" lon="1.83525">
        <ele>374.4</ele>
        <time>2024-04-07T08:24:01Z</time>
      </trkpt>
      <trkpt lat="44.1195" lon="1.83532">
        <ele>373.8</ele>
        <time>2024-04-07T08:24:02Z</time>
      </trkpt>
      <trkpt lat="44.11956" lon="1.83539">
        <ele>373.4</ele>
        <time>2024-04-07T08:24:03Z</time>
      </trkpt>
      <trkpt lat="44.11961" lon="1.83546">
        <ele>373</ele>
        <time>2024-04-07T08:24:04Z</time>
      </trkpt>
      <trkpt lat="44.11965" lon="1.83554">
        <ele>373</ele>
        <time>2024-04-07T08:24:05Z</time>
      </trkpt>
      <trkpt lat="44.11969" lon="1.83561">
        <ele>372.8</ele>
        <time>2024-04-07T08:24:06Z</time>
      </trkpt>
      <trkpt lat="44.11975" lon="1.83567">
        <ele>372.8</ele>
        <time>2024-04-07T08:24:07Z</time>
      </trkpt>
      <trkpt lat="44.1198" lon="1.83573">
        <ele>372.8</ele>
        <time>2024-04-07T08:24:08Z</time>
      </trkpt>
      <trkpt lat="44.11983" lon="1.8358">
        <ele>372.8</ele>
        <time>2024-04-07T08:24:09Z</time>
      </trkpt>
      <trkpt lat="44.11986" lon="1.83588">
        <ele>372.6</ele>
        <time>2024-04-07T08:24:10Z</time>
      </trkpt>
      <trkpt lat="44.11987" lon="1.83594">
        <ele>372.8</ele>
        <time>2024-04-07T08:24:11Z</time>
      </trkpt>
      <trkpt lat="44.11988" lon="1.836">
        <ele>372.8</ele>
        <time>2024-04-07T08:24:12Z</time>
      </trkpt>
      <trkpt lat="44.11989" lon="1.83605">
        <ele>372.8</ele>
        <time>2024-04-07T08:24:13Z</time>
      </trkpt>
      <trkpt lat="44.11991" lon="1.8361">
        <ele>373</ele>
        <time>2024-04-07T08:24:14Z</time>
      </trkpt>
      <trkpt lat="44.11994" lon="1.83614">
        <ele>373.2</ele>
        <time>2024-04-07T08:24:15Z</time>
      </trkpt>
      <trkpt lat="44.11997" lon="1.83618">
        <ele>373.4</ele>
        <time>2024-04-07T08:24:16Z</time>
      </trkpt>
      <trkpt lat="44.11999" lon="1.83623">
        <ele>373.8</ele>
        <time>2024-04-07T08:24:17Z</time>
      </trkpt>
      <trkpt lat="44.12001" lon="1.83628">
        <ele>374.2</ele>
        <time>2024-04-07T08:24:18Z</time>
      </trkpt>
      <trkpt lat="44.12004" lon="1.83633">
        <ele>374.4</ele>
        <time>2024-04-07T08:24:19Z</time>
      </trkpt>
      <trkpt lat="44.12007" lon="1.83639">
        <ele>374.8</ele>
        <time>2024-04-07T08:24:20Z</time>
      </trkpt>
      <trkpt lat="44.12009" lon="1.83645">
        <ele>375</ele>
        <time>2024-04-07T08:24:21Z</time>
      </trkpt>
      <trkpt lat="44.12011" lon="1.83651">
        <ele>375</ele>
        <time>2024-04-07T08:24:22Z</time>
      </trkpt>
      <trkpt lat="44.12012" lon="1.83658">
        <ele>375</ele>
        <time>2024-04-07T08:24:23Z</time>
      </trkpt>
      <trkpt lat="44.12012" lon="1.83664">
        <ele>375.2</ele>
        <time>2024-04-07T08:24:24Z</time>
      </trkpt>
      <trkpt lat="44.12011" lon="1.83671">
        <ele>375.2</ele>
        <time>2024-04-07T08:24:25Z</time>
      </trkpt>
      <trkpt lat="44.1201" lon="1.83679">
        <ele>375.4</ele>
        <time>2024-04-07T08:24:26Z</time>
      </trkpt>
      <trkpt lat="44.12009" lon="1.83686">
        <ele>375.4</ele>
        <time>2024-04-07T08:24:27Z</time>
      </trkpt>
      <trkpt lat="44.12009" lon="1.83694">
        <ele>375.4</ele>
        <time>2024-04-07T08:24:28Z</time>
      </trkpt>
      <trkpt lat="44.1201" lon="1.83702">
        <ele>375.4</ele>
        <time>2024-04-07T08:24:29Z</time>
      </trkpt>
      <trkpt lat="44.12011" lon="1.83709">
        <ele>375.4</ele>
        <time>2024-04-07T08:24:30Z</time>
      </trkpt>
      <trkpt lat="44.12013" lon="1.83716">
        <ele>375.4</ele>
        <time>2024-04-07T08:24:31Z</time>
      </trkpt>
      <trkpt lat="44.12016" lon="1.83723">
        <ele>375.4</ele>
        <time>2024-04-07T08:24:32Z</time>
      </trkpt>
      <trkpt lat="44.12019" lon="1.8373">
        <ele>375.6</ele>
        <time>2024-04-07T08:24:33Z</time>
      </trkpt>
      <trkpt lat="44.12025" lon="1.83746">
        <ele>375.6</ele>
        <time>2024-04-07T08:24:35Z</time>
      </trkpt>
      <trkpt lat="44.12029" lon="1.83753">
        <ele>375.6</ele>
        <time>2024-04-07T08:24:36Z</time>
      </trkpt>
      <trkpt lat="44.12032" lon="1.8376">
        <ele>375.6</ele>
        <time>2024-04-07T08:24:37Z</time>
      </trkpt>
      <trkpt lat="44.12036" lon="1.83767">
        <ele>375.6</ele>
        <time>2024-04-07T08:24:38Z</time>
      </trkpt>
      <trkpt lat="44.1204" lon="1.83774">
        <ele>375.6</ele>
        <time>2024-04-07T08:24:39Z</time>
      </trkpt>
      <trkpt lat="44.12044" lon="1.83782">
        <ele>375.8</ele>
        <time>2024-04-07T08:24:40Z</time>
      </trkpt>
      <trkpt lat="44.12049" lon="1.8379">
        <ele>375.8</ele>
        <time>2024-04-07T08:24:41Z</time>
      </trkpt>
      <trkpt lat="44.12055" lon="1.83797">
        <ele>375.8</ele>
        <time>2024-04-07T08:24:42Z</time>
      </trkpt>
      <trkpt lat="44.12059" lon="1.83805">
        <ele>375.8</ele>
        <time>2024-04-07T08:24:43Z</time>
      </trkpt>
      <trkpt lat="44.12068" lon="1.83821">
        <ele>375.6</ele>
        <time>2024-04-07T08:24:45Z</time>
      </trkpt>
      <trkpt lat="44.12072" lon="1.83829">
        <ele>375.6</ele>
        <time>2024-04-07T08:24:46Z</time>
      </trkpt>
      <trkpt lat="44.12076" lon="1.83838">
        <ele>375.4</ele>
        <time>2024-04-07T08:24:47Z</time>
      </trkpt>
      <trkpt lat="44.1208" lon="1.83847">
        <ele>375.2</ele>
        <time>2024-04-07T08:24:48Z</time>
      </trkpt>
      <trkpt lat="44.12084" lon="1.83855">
        <ele>375</ele>
        <time>2024-04-07T08:24:49Z</time>
      </trkpt>
      <trkpt lat="44.12089" lon="1.83862">
        <ele>374.8</ele>
        <time>2024-04-07T08:24:50Z</time>
      </trkpt>
      <trkpt lat="44.12092" lon="1.8387">
        <ele>374.4</ele>
        <time>2024-04-07T08:24:51Z</time>
      </trkpt>
      <trkpt lat="44.12095" lon="1.83877">
        <ele>374.4</ele>
        <time>2024-04-07T08:24:52Z</time>
      </trkpt>
      <trkpt lat="44.12098" lon="1.83884">
        <ele>374.2</ele>
        <time>2024-04-07T08:24:53Z</time>
      </trkpt>
      <trkpt lat="44.12101" lon="1.83892">
        <ele>374</ele>
        <time>2024-04-07T08:24:54Z</time>
      </trkpt>
      <trkpt lat="44.12104" lon="1.83899">
        <ele>373.8</ele>
        <time>2024-04-07T08:24:55Z</time>
      </trkpt>
      <trkpt lat="44.12108" lon="1.83906">
        <ele>373.6</ele>
        <time>2024-04-07T08:24:56Z</time>
      </trkpt>
      <trkpt lat="44.12111" lon="1.83914">
        <ele>373.6</ele>
        <time>2024-04-07T08:24:57Z</time>
      </trkpt>
      <trkpt lat="44.12119" lon="1.83932">
        <ele>372.8</ele>
        <time>2024-04-07T08:24:59Z</time>
      </trkpt>
      <trkpt lat="44.12123" lon="1.8394">
        <ele>372.2</ele>
        <time>2024-04-07T08:25:00Z</time>
      </trkpt>
      <trkpt lat="44.12127" lon="1.83948">
        <ele>371.2</ele>
        <time>2024-04-07T08:25:01Z</time>
      </trkpt>
      <trkpt lat="44.12131" lon="1.83956">
        <ele>370.8</ele>
        <time>2024-04-07T08:25:02Z</time>
      </trkpt>
      <trkpt lat="44.12135" lon="1.83964">
        <ele>370.4</ele>
        <time>2024-04-07T08:25:03Z</time>
      </trkpt>
      <trkpt lat="44.12138" lon="1.83972">
        <ele>370</ele>
        <time>2024-04-07T08:25:04Z</time>
      </trkpt>
      <trkpt lat="44.12142" lon="1.83979">
        <ele>369.6</ele>
        <time>2024-04-07T08:25:05Z</time>
      </trkpt>
      <trkpt lat="44.12147" lon="1.83987">
        <ele>369.6</ele>
        <time>2024-04-07T08:25:06Z</time>
      </trkpt>
      <trkpt lat="44.12155" lon="1.84005">
        <ele>369.2</ele>
        <time>2024-04-07T08:25:08Z</time>
      </trkpt>
      <trkpt lat="44.12159" lon="1.84014">
        <ele>368.6</ele>
        <time>2024-04-07T08:25:09Z</time>
      </trkpt>
      <trkpt lat="44.12163" lon="1.84024">
        <ele>368.2</ele>
        <time>2024-04-07T08:25:10Z</time>
      </trkpt>
      <trkpt lat="44.12166" lon="1.84033">
        <ele>368.2</ele>
        <time>2024-04-07T08:25:11Z</time>
      </trkpt>
      <trkpt lat="44.1217" lon="1.84042">
        <ele>367.4</ele>
        <time>2024-04-07T08:25:12Z</time>
      </trkpt>
      <trkpt lat="44.12173" lon="1.84051">
        <ele>367.2</ele>
        <time>2024-04-07T08:25:13Z</time>
      </trkpt>
      <trkpt lat="44.12178" lon="1.8406">
        <ele>366.6</ele>
        <time>2024-04-07T08:25:14Z</time>
      </trkpt>
      <trkpt lat="44.12182" lon="1.8407">
        <ele>366.4</ele>
        <time>2024-04-07T08:25:15Z</time>
      </trkpt>
      <trkpt lat="44.12186" lon="1.84079">
        <ele>366.2</ele>
        <time>2024-04-07T08:25:16Z</time>
      </trkpt>
      <trkpt lat="44.12189" lon="1.84088">
        <ele>366</ele>
        <time>2024-04-07T08:25:17Z</time>
      </trkpt>
      <trkpt lat="44.12194" lon="1.84097">
        <ele>365.6</ele>
        <time>2024-04-07T08:25:18Z</time>
      </trkpt>
      <trkpt lat="44.12198" lon="1.84104">
        <ele>365.2</ele>
        <time>2024-04-07T08:25:19Z</time>
      </trkpt>
      <trkpt lat="44.12203" lon="1.84111">
        <ele>365</ele>
        <time>2024-04-07T08:25:20Z</time>
      </trkpt>
      <trkpt lat="44.12208" lon="1.84117">
        <ele>365</ele>
        <time>2024-04-07T08:25:21Z</time>
      </trkpt>
      <trkpt lat="44.12213" lon="1.84123">
        <ele>364.8</ele>
        <time>2024-04-07T08:25:22Z</time>
      </trkpt>
      <trkpt lat="44.12219" lon="1.8413">
        <ele>364.4</ele>
        <time>2024-04-07T08:25:23Z</time>
      </trkpt>
      <trkpt lat="44.12225" lon="1.84136">
        <ele>364.4</ele>
        <time>2024-04-07T08:25:24Z</time>
      </trkpt>
      <trkpt lat="44.1223" lon="1.84142">
        <ele>364.2</ele>
        <time>2024-04-07T08:25:25Z</time>
      </trkpt>
      <trkpt lat="44.12233" lon="1.84149">
        <ele>364.2</ele>
        <time>2024-04-07T08:25:26Z</time>
      </trkpt>
      <trkpt lat="44.12238" lon="1.84156">
        <ele>364.2</ele>
        <time>2024-04-07T08:25:27Z</time>
      </trkpt>
      <trkpt lat="44.12241" lon="1.84162">
        <ele>364</ele>
        <time>2024-04-07T08:25:28Z</time>
      </trkpt>
      <trkpt lat="44.12244" lon="1.84169">
        <ele>364</ele>
        <time>2024-04-07T08:25:29Z</time>
      </trkpt>
      <trkpt lat="44.12248" lon="1.84176">
        <ele>364.2</ele>
        <time>2024-04-07T08:25:30Z</time>
      </trkpt>
      <trkpt lat="44.12251" lon="1.84182">
        <ele>364.2</ele>
        <time>2024-04-07T08:25:31Z</time>
      </trkpt>
      <trkpt lat="44.12255" lon="1.84189">
        <ele>364.4</ele>
        <time>2024-04-07T08:25:32Z</time>
      </trkpt>
      <trkpt lat="44.12257" lon="1.84196">
        <ele>364.4</ele>
        <time>2024-04-07T08:25:33Z</time>
      </trkpt>
      <trkpt lat="44.12259" lon="1.84203">
        <ele>364.6</ele>
        <time>2024-04-07T08:25:34Z</time>
      </trkpt>
      <trkpt lat="44.12261" lon="1.8421">
        <ele>364.4</ele>
        <time>2024-04-07T08:25:35Z</time>
      </trkpt>
      <trkpt lat="44.12264" lon="1.84217">
        <ele>364.8</ele>
        <time>2024-04-07T08:25:36Z</time>
      </trkpt>
      <trkpt lat="44.12265" lon="1.84224">
        <ele>365</ele>
        <time>2024-04-07T08:25:37Z</time>
      </trkpt>
      <trkpt lat="44.12267" lon="1.84231">
        <ele>365</ele>
        <time>2024-04-07T08:25:38Z</time>
      </trkpt>
      <trkpt lat="44.12268" lon="1.8424">
        <ele>365</ele>
        <time>2024-04-07T08:25:39Z</time>
      </trkpt>
      <trkpt lat="44.12268" lon="1.84248">
        <ele>365.2</ele>
        <time>2024-04-07T08:25:40Z</time>
      </trkpt>
      <trkpt lat="44.12266" lon="1.84256">
        <ele>365.4</ele>
        <time>2024-04-07T08:25:41Z</time>
      </trkpt>
      <trkpt lat="44.12264" lon="1.84264">
        <ele>365.4</ele>
        <time>2024-04-07T08:25:42Z</time>
      </trkpt>
      <trkpt lat="44.12263" lon="1.84273">
        <ele>365.6</ele>
        <time>2024-04-07T08:25:43Z</time>
      </trkpt>
      <trkpt lat="44.12262" lon="1.84281">
        <ele>365.8</ele>
        <time>2024-04-07T08:25:44Z</time>
      </trkpt>
      <trkpt lat="44.12262" lon="1.8429">
        <ele>365.8</ele>
        <time>2024-04-07T08:25:45Z</time>
      </trkpt>
      <trkpt lat="44.12261" lon="1.84298">
        <ele>366</ele>
        <time>2024-04-07T08:25:46Z</time>
      </trkpt>
      <trkpt lat="44.1226" lon="1.84307">
        <ele>366</ele>
        <time>2024-04-07T08:25:47Z</time>
      </trkpt>
      <trkpt lat="44.1226" lon="1.84315">
        <ele>366</ele>
        <time>2024-04-07T08:25:48Z</time>
      </trkpt>
      <trkpt lat="44.12259" lon="1.84323">
        <ele>366</ele>
        <time>2024-04-07T08:25:49Z</time>
      </trkpt>
      <trkpt lat="44.12259" lon="1.84338">
        <ele>366</ele>
        <time>2024-04-07T08:25:51Z</time>
      </trkpt>
      <trkpt lat="44.12258" lon="1.84345">
        <ele>366.2</ele>
        <time>2024-04-07T08:25:52Z</time>
      </trkpt>
      <trkpt lat="44.12258" lon="1.84352">
        <ele>366.2</ele>
        <time>2024-04-07T08:25:53Z</time>
      </trkpt>
      <trkpt lat="44.12258" lon="1.8436">
        <ele>366.4</ele>
        <time>2024-04-07T08:25:54Z</time>
      </trkpt>
      <trkpt lat="44.12258" lon="1.84367">
        <ele>366.6</ele>
        <time>2024-04-07T08:25:55Z</time>
      </trkpt>
      <trkpt lat="44.12258" lon="1.84374">
        <ele>366.6</ele>
        <time>2024-04-07T08:25:56Z</time>
      </trkpt>
      <trkpt lat="44.12257" lon="1.84381">
        <ele>367</ele>
        <time>2024-04-07T08:25:57Z</time>
      </trkpt>
      <trkpt lat="44.12257" lon="1.84387">
        <ele>367.2</ele>
        <time>2024-04-07T08:25:58Z</time>
      </trkpt>
      <trkpt lat="44.12256" lon="1.84394">
        <ele>367.4</ele>
        <time>2024-04-07T08:25:59Z</time>
      </trkpt>
      <trkpt lat="44.12256" lon="1.84401">
        <ele>367.6</ele>
        <time>2024-04-07T08:26:00Z</time>
      </trkpt>
      <trkpt lat="44.12255" lon="1.84407">
        <ele>368</ele>
        <time>2024-04-07T08:26:01Z</time>
      </trkpt>
      <trkpt lat="44.12254" lon="1.84413">
        <ele>368.6</ele>
        <time>2024-04-07T08:26:02Z</time>
      </trkpt>
      <trkpt lat="44.12253" lon="1.84419">
        <ele>368.8</ele>
        <time>2024-04-07T08:26:03Z</time>
      </trkpt>
      <trkpt lat="44.12252" lon="1.84425">
        <ele>369</ele>
        <time>2024-04-07T08:26:04Z</time>
      </trkpt>
      <trkpt lat="44.12251" lon="1.84432">
        <ele>369.2</ele>
        <time>2024-04-07T08:26:05Z</time>
      </trkpt>
      <trkpt lat="44.1225" lon="1.84438">
        <ele>369.6</ele>
        <time>2024-04-07T08:26:06Z</time>
      </trkpt>
      <trkpt lat="44.12249" lon="1.84444">
        <ele>369.6</ele>
        <time>2024-04-07T08:26:07Z</time>
      </trkpt>
      <trkpt lat="44.12249" lon="1.8445">
        <ele>370</ele>
        <time>2024-04-07T08:26:08Z</time>
      </trkpt>
      <trkpt lat="44.12249" lon="1.84457">
        <ele>370.2</ele>
        <time>2024-04-07T08:26:09Z</time>
      </trkpt>
      <trkpt lat="44.12248" lon="1.84463">
        <ele>370.6</ele>
        <time>2024-04-07T08:26:10Z</time>
      </trkpt>
      <trkpt lat="44.12248" lon="1.8447">
        <ele>370.8</ele>
        <time>2024-04-07T08:26:11Z</time>
      </trkpt>
      <trkpt lat="44.12247" lon="1.84477">
        <ele>371.2</ele>
        <time>2024-04-07T08:26:12Z</time>
      </trkpt>
      <trkpt lat="44.12245" lon="1.84485">
        <ele>371.6</ele>
        <time>2024-04-07T08:26:13Z</time>
      </trkpt>
      <trkpt lat="44.12243" lon="1.84491">
        <ele>371.8</ele>
        <time>2024-04-07T08:26:14Z</time>
      </trkpt>
      <trkpt lat="44.12241" lon="1.84498">
        <ele>372.2</ele>
        <time>2024-04-07T08:26:15Z</time>
      </trkpt>
      <trkpt lat="44.12239" lon="1.84504">
        <ele>372.4</ele>
        <time>2024-04-07T08:26:16Z</time>
      </trkpt>
      <trkpt lat="44.12237" lon="1.84511">
        <ele>372.6</ele>
        <time>2024-04-07T08:26:17Z</time>
      </trkpt>
      <trkpt lat="44.12235" lon="1.84518">
        <ele>372.8</ele>
        <time>2024-04-07T08:26:18Z</time>
      </trkpt>
      <trkpt lat="44.12234" lon="1.84525">
        <ele>373</ele>
        <time>2024-04-07T08:26:19Z</time>
      </trkpt>
      <trkpt lat="44.12235" lon="1.84532">
        <ele>373.2</ele>
        <time>2024-04-07T08:26:20Z</time>
      </trkpt>
      <trkpt lat="44.12236" lon="1.84538">
        <ele>373.4</ele>
        <time>2024-04-07T08:26:21Z</time>
      </trkpt>
      <trkpt lat="44.12237" lon="1.84545">
        <ele>373.8</ele>
        <time>2024-04-07T08:26:22Z</time>
      </trkpt>
      <trkpt lat="44.12237" lon="1.84552">
        <ele>373.8</ele>
        <time>2024-04-07T08:26:23Z</time>
      </trkpt>
      <trkpt lat="44.12236" lon="1.84559">
        <ele>374</ele>
        <time>2024-04-07T08:26:24Z</time>
      </trkpt>
      <trkpt lat="44.12234" lon="1.84565">
        <ele>374.2</ele>
        <time>2024-04-07T08:26:25Z</time>
      </trkpt>
      <trkpt lat="44.12232" lon="1.8457">
        <ele>374.2</ele>
        <time>2024-04-07T08:26:26Z</time>
      </trkpt>
      <trkpt lat="44.1223" lon="1.84576">
        <ele>374.2</ele>
        <time>2024-04-07T08:26:27Z</time>
      </trkpt>
      <trkpt lat="44.12228" lon="1.84581">
        <ele>374.4</ele>
        <time>2024-04-07T08:26:28Z</time>
      </trkpt>
      <trkpt lat="44.12227" lon="1.84586">
        <ele>374.4</ele>
        <time>2024-04-07T08:26:29Z</time>
      </trkpt>
      <trkpt lat="44.12226" lon="1.84592">
        <ele>374.6</ele>
        <time>2024-04-07T08:26:30Z</time>
      </trkpt>
      <trkpt lat="44.12227" lon="1.84598">
        <ele>374.6</ele>
        <time>2024-04-07T08:26:31Z</time>
      </trkpt>
      <trkpt lat="44.12228" lon="1.84603">
        <ele>374.8</ele>
        <time>2024-04-07T08:26:32Z</time>
      </trkpt>
      <trkpt lat="44.1223" lon="1.84608">
        <ele>375.2</ele>
        <time>2024-04-07T08:26:33Z</time>
      </trkpt>
      <trkpt lat="44.12232" lon="1.84614">
        <ele>375.4</ele>
        <time>2024-04-07T08:26:34Z</time>
      </trkpt>
      <trkpt lat="44.12233" lon="1.8462">
        <ele>375.8</ele>
        <time>2024-04-07T08:26:35Z</time>
      </trkpt>
      <trkpt lat="44.12234" lon="1.84626">
        <ele>376.2</ele>
        <time>2024-04-07T08:26:36Z</time>
      </trkpt>
      <trkpt lat="44.12233" lon="1.84631">
        <ele>376.4</ele>
        <time>2024-04-07T08:26:37Z</time>
      </trkpt>
      <trkpt lat="44.12231" lon="1.84636">
        <ele>376.6</ele>
        <time>2024-04-07T08:26:38Z</time>
      </trkpt>
      <trkpt lat="44.1223" lon="1.84641">
        <ele>376.8</ele>
        <time>2024-04-07T08:26:39Z</time>
      </trkpt>
      <trkpt lat="44.1223" lon="1.84647">
        <ele>377</ele>
        <time>2024-04-07T08:26:40Z</time>
      </trkpt>
      <trkpt lat="44.12231" lon="1.84653">
        <ele>377.2</ele>
        <time>2024-04-07T08:26:41Z</time>
      </trkpt>
      <trkpt lat="44.12232" lon="1.84659">
        <ele>377.2</ele>
        <time>2024-04-07T08:26:42Z</time>
      </trkpt>
      <trkpt lat="44.12233" lon="1.84665">
        <ele>377.4</ele>
        <time>2024-04-07T08:26:43Z</time>
      </trkpt>
      <trkpt lat="44.12234" lon="1.84672">
        <ele>378.4</ele>
        <time>2024-04-07T08:26:44Z</time>
      </trkpt>
      <trkpt lat="44.12236" lon="1.84678">
        <ele>378.8</ele>
        <time>2024-04-07T08:26:45Z</time>
      </trkpt>
      <trkpt lat="44.12237" lon="1.84684">
        <ele>379</ele>
        <time>2024-04-07T08:26:46Z</time>
      </trkpt>
      <trkpt lat="44.12235" lon="1.8469">
        <ele>379.4</ele>
        <time>2024-04-07T08:26:47Z</time>
      </trkpt>
      <trkpt lat="44.12233" lon="1.84696">
        <ele>379.6</ele>
        <time>2024-04-07T08:26:48Z</time>
      </trkpt>
      <trkpt lat="44.1223" lon="1.84701">
        <ele>380</ele>
        <time>2024-04-07T08:26:49Z</time>
      </trkpt>
      <trkpt lat="44.12228" lon="1.84708">
        <ele>380.2</ele>
        <time>2024-04-07T08:26:50Z</time>
      </trkpt>
      <trkpt lat="44.12226" lon="1.84714">
        <ele>380.6</ele>
        <time>2024-04-07T08:26:51Z</time>
      </trkpt>
      <trkpt lat="44.12225" lon="1.84721">
        <ele>380.8</ele>
        <time>2024-04-07T08:26:52Z</time>
      </trkpt>
      <trkpt lat="44.12225" lon="1.84727">
        <ele>381</ele>
        <time>2024-04-07T08:26:53Z</time>
      </trkpt>
      <trkpt lat="44.12225" lon="1.84734">
        <ele>381.2</ele>
        <time>2024-04-07T08:26:54Z</time>
      </trkpt>
      <trkpt lat="44.12225" lon="1.8474">
        <ele>381.2</ele>
        <time>2024-04-07T08:26:55Z</time>
      </trkpt>
      <trkpt lat="44.12225" lon="1.84746">
        <ele>381.6</ele>
        <time>2024-04-07T08:26:56Z</time>
      </trkpt>
      <trkpt lat="44.12223" lon="1.84752">
        <ele>381.6</ele>
        <time>2024-04-07T08:26:57Z</time>
      </trkpt>
      <trkpt lat="44.12222" lon="1.84756">
        <ele>381.8</ele>
        <time>2024-04-07T08:26:58Z</time>
      </trkpt>
      <trkpt lat="44.12222" lon="1.84761">
        <ele>381.8</ele>
        <time>2024-04-07T08:26:59Z</time>
      </trkpt>
      <trkpt lat="44.12224" lon="1.84765">
        <ele>382</ele>
        <time>2024-04-07T08:27:00Z</time>
      </trkpt>
      <trkpt lat="44.12226" lon="1.84769">
        <ele>382</ele>
        <time>2024-04-07T08:27:01Z</time>
      </trkpt>
      <trkpt lat="44.12229" lon="1.84772">
        <ele>382</ele>
        <time>2024-04-07T08:27:02Z</time>
      </trkpt>
      <trkpt lat="44.12231" lon="1.84776">
        <ele>382.2</ele>
        <time>2024-04-07T08:27:03Z</time>
      </trkpt>
      <trkpt lat="44.12233" lon="1.8478">
        <ele>382.2</ele>
        <time>2024-04-07T08:27:04Z</time>
      </trkpt>
      <trkpt lat="44.12235" lon="1.84785">
        <ele>382.2</ele>
        <time>2024-04-07T08:27:05Z</time>
      </trkpt>
      <trkpt lat="44.12237" lon="1.84791">
        <ele>382.2</ele>
        <time>2024-04-07T08:27:06Z</time>
      </trkpt>
      <trkpt lat="44.1224" lon="1.84797">
        <ele>382.2</ele>
        <time>2024-04-07T08:27:07Z</time>
      </trkpt>
      <trkpt lat="44.12243" lon="1.84803">
        <ele>382.2</ele>
        <time>2024-04-07T08:27:08Z</time>
      </trkpt>
      <trkpt lat="44.12246" lon="1.84811">
        <ele>382.2</ele>
        <time>2024-04-07T08:27:09Z</time>
      </trkpt>
      <trkpt lat="44.12248" lon="1.84818">
        <ele>382</ele>
        <time>2024-04-07T08:27:10Z</time>
      </trkpt>
      <trkpt lat="44.1225" lon="1.84824">
        <ele>381.8</ele>
        <time>2024-04-07T08:27:11Z</time>
      </trkpt>
      <trkpt lat="44.12252" lon="1.84832">
        <ele>381.2</ele>
        <time>2024-04-07T08:27:12Z</time>
      </trkpt>
      <trkpt lat="44.12256" lon="1.84839">
        <ele>381</ele>
        <time>2024-04-07T08:27:13Z</time>
      </trkpt>
      <trkpt lat="44.12261" lon="1.84848">
        <ele>379.6</ele>
        <time>2024-04-07T08:27:14Z</time>
      </trkpt>
      <trkpt lat="44.12266" lon="1.84857">
        <ele>379.2</ele>
        <time>2024-04-07T08:27:15Z</time>
      </trkpt>
      <trkpt lat="44.12272" lon="1.84867">
        <ele>378.4</ele>
        <time>2024-04-07T08:27:16Z</time>
      </trkpt>
      <trkpt lat="44.12278" lon="1.84877">
        <ele>377.8</ele>
        <time>2024-04-07T08:27:17Z</time>
      </trkpt>
      <trkpt lat="44.12282" lon="1.84887">
        <ele>376.8</ele>
        <time>2024-04-07T08:27:18Z</time>
      </trkpt>
      <trkpt lat="44.12286" lon="1.84896">
        <ele>376.4</ele>
        <time>2024-04-07T08:27:19Z</time>
      </trkpt>
      <trkpt lat="44.1229" lon="1.84903">
        <ele>375.4</ele>
        <time>2024-04-07T08:27:20Z</time>
      </trkpt>
      <trkpt lat="44.12296" lon="1.84907">
        <ele>373.6</ele>
        <time>2024-04-07T08:27:21Z</time>
      </trkpt>
      <trkpt lat="44.12301" lon="1.84906">
        <ele>372.8</ele>
        <time>2024-04-07T08:27:22Z</time>
      </trkpt>
      <trkpt lat="44.12307" lon="1.84904">
        <ele>371.6</ele>
        <time>2024-04-07T08:27:23Z</time>
      </trkpt>
      <trkpt lat="44.12314" lon="1.84901">
        <ele>371</ele>
        <time>2024-04-07T08:27:24Z</time>
      </trkpt>
      <trkpt lat="44.12321" lon="1.84897">
        <ele>369.8</ele>
        <time>2024-04-07T08:27:25Z</time>
      </trkpt>
      <trkpt lat="44.12328" lon="1.8489">
        <ele>369.2</ele>
        <time>2024-04-07T08:27:26Z</time>
      </trkpt>
      <trkpt lat="44.12335" lon="1.84884">
        <ele>368</ele>
        <time>2024-04-07T08:27:27Z</time>
      </trkpt>
      <trkpt lat="44.12342" lon="1.84879">
        <ele>367.2</ele>
        <time>2024-04-07T08:27:28Z</time>
      </trkpt>
      <trkpt lat="44.12349" lon="1.84873">
        <ele>366.6</ele>
        <time>2024-04-07T08:27:29Z</time>
      </trkpt>
      <trkpt lat="44.12354" lon="1.84866">
        <ele>365.6</ele>
        <time>2024-04-07T08:27:30Z</time>
      </trkpt>
      <trkpt lat="44.12359" lon="1.8486">
        <ele>365.2</ele>
        <time>2024-04-07T08:27:31Z</time>
      </trkpt>
      <trkpt lat="44.12364" lon="1.84858">
        <ele>362.8</ele>
        <time>2024-04-07T08:27:32Z</time>
      </trkpt>
      <trkpt lat="44.12368" lon="1.8486">
        <ele>361.8</ele>
        <time>2024-04-07T08:27:33Z</time>
      </trkpt>
      <trkpt lat="44.12373" lon="1.84863">
        <ele>360.6</ele>
        <time>2024-04-07T08:27:34Z</time>
      </trkpt>
      <trkpt lat="44.12378" lon="1.84869">
        <ele>359.4</ele>
        <time>2024-04-07T08:27:35Z</time>
      </trkpt>
      <trkpt lat="44.12383" lon="1.84873">
        <ele>358</ele>
        <time>2024-04-07T08:27:36Z</time>
      </trkpt>
      <trkpt lat="44.12395" lon="1.84878">
        <ele>357.2</ele>
        <time>2024-04-07T08:27:38Z</time>
      </trkpt>
      <trkpt lat="44.12401" lon="1.8488">
        <ele>356.8</ele>
        <time>2024-04-07T08:27:39Z</time>
      </trkpt>
      <trkpt lat="44.12408" lon="1.84882">
        <ele>356.6</ele>
        <time>2024-04-07T08:27:40Z</time>
      </trkpt>
      <trkpt lat="44.12414" lon="1.84884">
        <ele>356</ele>
        <time>2024-04-07T08:27:41Z</time>
      </trkpt>
      <trkpt lat="44.12421" lon="1.84887">
        <ele>355.8</ele>
        <time>2024-04-07T08:27:42Z</time>
      </trkpt>
      <trkpt lat="44.12427" lon="1.84892">
        <ele>355.2</ele>
        <time>2024-04-07T08:27:43Z</time>
      </trkpt>
      <trkpt lat="44.12434" lon="1.84897">
        <ele>354.8</ele>
        <time>2024-04-07T08:27:44Z</time>
      </trkpt>
      <trkpt lat="44.12441" lon="1.84903">
        <ele>354.4</ele>
        <time>2024-04-07T08:27:45Z</time>
      </trkpt>
      <trkpt lat="44.12448" lon="1.84911">
        <ele>353.8</ele>
        <time>2024-04-07T08:27:46Z</time>
      </trkpt>
      <trkpt lat="44.12455" lon="1.84917">
        <ele>353.6</ele>
        <time>2024-04-07T08:27:47Z</time>
      </trkpt>
      <trkpt lat="44.12461" lon="1.84924">
        <ele>353.2</ele>
        <time>2024-04-07T08:27:48Z</time>
      </trkpt>
      <trkpt lat="44.12466" lon="1.84932">
        <ele>352.8</ele>
        <time>2024-04-07T08:27:49Z</time>
      </trkpt>
      <trkpt lat="44.1247" lon="1.8494">
        <ele>352.2</ele>
        <time>2024-04-07T08:27:50Z</time>
      </trkpt>
      <trkpt lat="44.12473" lon="1.8495">
        <ele>351.6</ele>
        <time>2024-04-07T08:27:51Z</time>
      </trkpt>
      <trkpt lat="44.12476" lon="1.84961">
        <ele>350.8</ele>
        <time>2024-04-07T08:27:52Z</time>
      </trkpt>
      <trkpt lat="44.1248" lon="1.84971">
        <ele>350.2</ele>
        <time>2024-04-07T08:27:53Z</time>
      </trkpt>
      <trkpt lat="44.12484" lon="1.84981">
        <ele>348</ele>
        <time>2024-04-07T08:27:54Z</time>
      </trkpt>
      <trkpt lat="44.1249" lon="1.84992">
        <ele>346</ele>
        <time>2024-04-07T08:27:55Z</time>
      </trkpt>
      <trkpt lat="44.12496" lon="1.85002">
        <ele>345.2</ele>
        <time>2024-04-07T08:27:56Z</time>
      </trkpt>
      <trkpt lat="44.12501" lon="1.85014">
        <ele>343.8</ele>
        <time>2024-04-07T08:27:57Z</time>
      </trkpt>
      <trkpt lat="44.12506" lon="1.85028">
        <ele>343.2</ele>
        <time>2024-04-07T08:27:58Z</time>
      </trkpt>
      <trkpt lat="44.1251" lon="1.85041">
        <ele>342</ele>
        <time>2024-04-07T08:27:59Z</time>
      </trkpt>
      <trkpt lat="44.12514" lon="1.85054">
        <ele>341.4</ele>
        <time>2024-04-07T08:28:00Z</time>
      </trkpt>
      <trkpt lat="44.12517" lon="1.85065">
        <ele>340.6</ele>
        <time>2024-04-07T08:28:01Z</time>
      </trkpt>
      <trkpt lat="44.1252" lon="1.85072">
        <ele>340.2</ele>
        <time>2024-04-07T08:28:02Z</time>
      </trkpt>
      <trkpt lat="44.12522" lon="1.85076">
        <ele>338.4</ele>
        <time>2024-04-07T08:28:03Z</time>
      </trkpt>
      <trkpt lat="44.12523" lon="1.85078">
        <ele>337.4</ele>
        <time>2024-04-07T08:28:04Z</time>
      </trkpt>
      <trkpt lat="44.12525" lon="1.8508">
        <ele>336.6</ele>
        <time>2024-04-07T08:28:05Z</time>
      </trkpt>
      <trkpt lat="44.12526" lon="1.8508">
        <ele>335.8</ele>
        <time>2024-04-07T08:28:06Z</time>
      </trkpt>
      <trkpt lat="44.12528" lon="1.8508">
        <ele>335.6</ele>
        <time>2024-04-07T08:28:07Z</time>
      </trkpt>
      <trkpt lat="44.1253" lon="1.8508">
        <ele>335.2</ele>
        <time>2024-04-07T08:28:08Z</time>
      </trkpt>
      <trkpt lat="44.12532" lon="1.85082">
        <ele>335.2</ele>
        <time>2024-04-07T08:28:09Z</time>
      </trkpt>
      <trkpt lat="44.12534" lon="1.85085">
        <ele>335</ele>
        <time>2024-04-07T08:28:10Z</time>
      </trkpt>
      <trkpt lat="44.12536" lon="1.85088">
        <ele>335</ele>
        <time>2024-04-07T08:28:11Z</time>
      </trkpt>
      <trkpt lat="44.12539" lon="1.85091">
        <ele>334.8</ele>
        <time>2024-04-07T08:28:12Z</time>
      </trkpt>
      <trkpt lat="44.12547" lon="1.85096">
        <ele>334.6</ele>
        <time>2024-04-07T08:28:14Z</time>
      </trkpt>
      <trkpt lat="44.12551" lon="1.85099">
        <ele>334.4</ele>
        <time>2024-04-07T08:28:15Z</time>
      </trkpt>
      <trkpt lat="44.12562" lon="1.85105">
        <ele>334.4</ele>
        <time>2024-04-07T08:28:17Z</time>
      </trkpt>
      <trkpt lat="44.12574" lon="1.85111">
        <ele>334.4</ele>
        <time>2024-04-07T08:28:19Z</time>
      </trkpt>
      <trkpt lat="44.1258" lon="1.85115">
        <ele>334.2</ele>
        <time>2024-04-07T08:28:20Z</time>
      </trkpt>
      <trkpt lat="44.12586" lon="1.8512">
        <ele>334.2</ele>
        <time>2024-04-07T08:28:21Z</time>
      </trkpt>
      <trkpt lat="44.12592" lon="1.85125">
        <ele>334.2</ele>
        <time>2024-04-07T08:28:22Z</time>
      </trkpt>
      <trkpt lat="44.12597" lon="1.8513">
        <ele>334.2</ele>
        <time>2024-04-07T08:28:23Z</time>
      </trkpt>
      <trkpt lat="44.12602" lon="1.85134">
        <ele>334.2</ele>
        <time>2024-04-07T08:28:24Z</time>
      </trkpt>
      <trkpt lat="44.12607" lon="1.85137">
        <ele>334</ele>
        <time>2024-04-07T08:28:25Z</time>
      </trkpt>
      <trkpt lat="44.1261" lon="1.8514">
        <ele>333.4</ele>
        <time>2024-04-07T08:28:26Z</time>
      </trkpt>
      <trkpt lat="44.12614" lon="1.85142">
        <ele>333</ele>
        <time>2024-04-07T08:28:27Z</time>
      </trkpt>
      <trkpt lat="44.12616" lon="1.85144">
        <ele>332.8</ele>
        <time>2024-04-07T08:28:28Z</time>
      </trkpt>
      <trkpt lat="44.12619" lon="1.85147">
        <ele>332.6</ele>
        <time>2024-04-07T08:28:29Z</time>
      </trkpt>
      <trkpt lat="44.12621" lon="1.8515">
        <ele>332.6</ele>
        <time>2024-04-07T08:28:30Z</time>
      </trkpt>
      <trkpt lat="44.12627" lon="1.85157">
        <ele>332.4</ele>
        <time>2024-04-07T08:28:32Z</time>
      </trkpt>
      <trkpt lat="44.1263" lon="1.85161">
        <ele>332.4</ele>
        <time>2024-04-07T08:28:33Z</time>
      </trkpt>
      <trkpt lat="44.12634" lon="1.85164">
        <ele>332.2</ele>
        <time>2024-04-07T08:28:34Z</time>
      </trkpt>
      <trkpt lat="44.12638" lon="1.85167">
        <ele>332.2</ele>
        <time>2024-04-07T08:28:35Z</time>
      </trkpt>
      <trkpt lat="44.12642" lon="1.85172">
        <ele>332.2</ele>
        <time>2024-04-07T08:28:36Z</time>
      </trkpt>
      <trkpt lat="44.12645" lon="1.85177">
        <ele>332.2</ele>
        <time>2024-04-07T08:28:37Z</time>
      </trkpt>
      <trkpt lat="44.12648" lon="1.85183">
        <ele>332.2</ele>
        <time>2024-04-07T08:28:38Z</time>
      </trkpt>
      <trkpt lat="44.1265" lon="1.85189">
        <ele>332.2</ele>
        <time>2024-04-07T08:28:39Z</time>
      </trkpt>
      <trkpt lat="44.12653" lon="1.85195">
        <ele>332.2</ele>
        <time>2024-04-07T08:28:40Z</time>
      </trkpt>
      <trkpt lat="44.12657" lon="1.85201">
        <ele>332.2</ele>
        <time>2024-04-07T08:28:41Z</time>
      </trkpt>
      <trkpt lat="44.12661" lon="1.85207">
        <ele>332.2</ele>
        <time>2024-04-07T08:28:42Z</time>
      </trkpt>
      <trkpt lat="44.12667" lon="1.85213">
        <ele>332.2</ele>
        <time>2024-04-07T08:28:43Z</time>
      </trkpt>
      <trkpt lat="44.12673" lon="1.85219">
        <ele>332.2</ele>
        <time>2024-04-07T08:28:44Z</time>
      </trkpt>
      <trkpt lat="44.12679" lon="1.85225">
        <ele>332</ele>
        <time>2024-04-07T08:28:45Z</time>
      </trkpt>
      <trkpt lat="44.12685" lon="1.85231">
        <ele>331.8</ele>
        <time>2024-04-07T08:28:46Z</time>
      </trkpt>
      <trkpt lat="44.12691" lon="1.85236">
        <ele>331.6</ele>
        <time>2024-04-07T08:28:47Z</time>
      </trkpt>
      <trkpt lat="44.12697" lon="1.8524">
        <ele>331.2</ele>
        <time>2024-04-07T08:28:48Z</time>
      </trkpt>
      <trkpt lat="44.12703" lon="1.85246">
        <ele>330.4</ele>
        <time>2024-04-07T08:28:49Z</time>
      </trkpt>
      <trkpt lat="44.12708" lon="1.85253">
        <ele>330.2</ele>
        <time>2024-04-07T08:28:50Z</time>
      </trkpt>
      <trkpt lat="44.12714" lon="1.8526">
        <ele>329.8</ele>
        <time>2024-04-07T08:28:51Z</time>
      </trkpt>
      <trkpt lat="44.12719" lon="1.85267">
        <ele>329.6</ele>
        <time>2024-04-07T08:28:52Z</time>
      </trkpt>
      <trkpt lat="44.12725" lon="1.85275">
        <ele>329.2</ele>
        <time>2024-04-07T08:28:53Z</time>
      </trkpt>
      <trkpt lat="44.12732" lon="1.85283">
        <ele>329</ele>
        <time>2024-04-07T08:28:54Z</time>
      </trkpt>
      <trkpt lat="44.12738" lon="1.85291">
        <ele>328.4</ele>
        <time>2024-04-07T08:28:55Z</time>
      </trkpt>
      <trkpt lat="44.12744" lon="1.853">
        <ele>327.4</ele>
        <time>2024-04-07T08:28:56Z</time>
      </trkpt>
      <trkpt lat="44.1275" lon="1.85308">
        <ele>327</ele>
        <time>2024-04-07T08:28:57Z</time>
      </trkpt>
      <trkpt lat="44.12755" lon="1.85317">
        <ele>325.8</ele>
        <time>2024-04-07T08:28:58Z</time>
      </trkpt>
      <trkpt lat="44.12759" lon="1.85325">
        <ele>324.8</ele>
        <time>2024-04-07T08:28:59Z</time>
      </trkpt>
      <trkpt lat="44.12764" lon="1.85334">
        <ele>323.4</ele>
        <time>2024-04-07T08:29:00Z</time>
      </trkpt>
      <trkpt lat="44.12768" lon="1.85343">
        <ele>322.2</ele>
        <time>2024-04-07T08:29:01Z</time>
      </trkpt>
      <trkpt lat="44.12773" lon="1.85352">
        <ele>320.6</ele>
        <time>2024-04-07T08:29:02Z</time>
      </trkpt>
      <trkpt lat="44.12779" lon="1.85359">
        <ele>320</ele>
        <time>2024-04-07T08:29:03Z</time>
      </trkpt>
      <trkpt lat="44.12786" lon="1.85366">
        <ele>319.2</ele>
        <time>2024-04-07T08:29:04Z</time>
      </trkpt>
      <trkpt lat="44.12794" lon="1.85373">
        <ele>317.8</ele>
        <time>2024-04-07T08:29:05Z</time>
      </trkpt>
      <trkpt lat="44.12801" lon="1.85382">
        <ele>316.8</ele>
        <time>2024-04-07T08:29:06Z</time>
      </trkpt>
      <trkpt lat="44.12808" lon="1.85391">
        <ele>315</ele>
        <time>2024-04-07T08:29:07Z</time>
      </trkpt>
      <trkpt lat="44.12816" lon="1.85401">
        <ele>314.4</ele>
        <time>2024-04-07T08:29:08Z</time>
      </trkpt>
      <trkpt lat="44.12823" lon="1.8541">
        <ele>313.2</ele>
        <time>2024-04-07T08:29:09Z</time>
      </trkpt>
      <trkpt lat="44.12831" lon="1.85419">
        <ele>312.4</ele>
        <time>2024-04-07T08:29:10Z</time>
      </trkpt>
      <trkpt lat="44.12838" lon="1.85428">
        <ele>311.4</ele>
        <time>2024-04-07T08:29:11Z</time>
      </trkpt>
      <trkpt lat="44.12845" lon="1.85437">
        <ele>310.2</ele>
        <time>2024-04-07T08:29:12Z</time>
      </trkpt>
      <trkpt lat="44.12852" lon="1.85444">
        <ele>309.6</ele>
        <time>2024-04-07T08:29:13Z</time>
      </trkpt>
      <trkpt lat="44.12857" lon="1.85454">
        <ele>308.8</ele>
        <time>2024-04-07T08:29:14Z</time>
      </trkpt>
      <trkpt lat="44.12861" lon="1.85465">
        <ele>308.6</ele>
        <time>2024-04-07T08:29:15Z</time>
      </trkpt>
      <trkpt lat="44.12865" lon="1.85476">
        <ele>307.8</ele>
        <time>2024-04-07T08:29:16Z</time>
      </trkpt>
      <trkpt lat="44.12868" lon="1.85487">
        <ele>307.6</ele>
        <time>2024-04-07T08:29:17Z</time>
      </trkpt>
      <trkpt lat="44.12872" lon="1.85498">
        <ele>307</ele>
        <time>2024-04-07T08:29:18Z</time>
      </trkpt>
      <trkpt lat="44.12875" lon="1.85509">
        <ele>306.8</ele>
        <time>2024-04-07T08:29:19Z</time>
      </trkpt>
      <trkpt lat="44.12878" lon="1.85519">
        <ele>306.6</ele>
        <time>2024-04-07T08:29:20Z</time>
      </trkpt>
      <trkpt lat="44.12881" lon="1.8553">
        <ele>306.4</ele>
        <time>2024-04-07T08:29:21Z</time>
      </trkpt>
      <trkpt lat="44.12885" lon="1.8554">
        <ele>306.2</ele>
        <time>2024-04-07T08:29:22Z</time>
      </trkpt>
      <trkpt lat="44.12888" lon="1.8555">
        <ele>306</ele>
        <time>2024-04-07T08:29:23Z</time>
      </trkpt>
      <trkpt lat="44.12891" lon="1.8556">
        <ele>305.6</ele>
        <time>2024-04-07T08:29:24Z</time>
      </trkpt>
      <trkpt lat="44.12894" lon="1.8557">
        <ele>304.8</ele>
        <time>2024-04-07T08:29:25Z</time>
      </trkpt>
      <trkpt lat="44.12897" lon="1.85579">
        <ele>304.4</ele>
        <time>2024-04-07T08:29:26Z</time>
      </trkpt>
      <trkpt lat="44.129" lon="1.85589">
        <ele>304</ele>
        <time>2024-04-07T08:29:27Z</time>
      </trkpt>
      <trkpt lat="44.12902" lon="1.85598">
        <ele>303.6</ele>
        <time>2024-04-07T08:29:28Z</time>
      </trkpt>
      <trkpt lat="44.12904" lon="1.85608">
        <ele>303.2</ele>
        <time>2024-04-07T08:29:29Z</time>
      </trkpt>
      <trkpt lat="44.12906" lon="1.85618">
        <ele>302.8</ele>
        <time>2024-04-07T08:29:30Z</time>
      </trkpt>
      <trkpt lat="44.12908" lon="1.85628">
        <ele>302.6</ele>
        <time>2024-04-07T08:29:31Z</time>
      </trkpt>
      <trkpt lat="44.12911" lon="1.85638">
        <ele>301.8</ele>
        <time>2024-04-07T08:29:32Z</time>
      </trkpt>
      <trkpt lat="44.12913" lon="1.85649">
        <ele>301.4</ele>
        <time>2024-04-07T08:29:33Z</time>
      </trkpt>
      <trkpt lat="44.12918" lon="1.85671">
        <ele>300.8</ele>
        <time>2024-04-07T08:29:35Z</time>
      </trkpt>
      <trkpt lat="44.12923" lon="1.85697">
        <ele>299.8</ele>
        <time>2024-04-07T08:29:37Z</time>
      </trkpt>
      <trkpt lat="44.12925" lon="1.8571">
        <ele>298.6</ele>
        <time>2024-04-07T08:29:38Z</time>
      </trkpt>
      <trkpt lat="44.12927" lon="1.85722">
        <ele>298</ele>
        <time>2024-04-07T08:29:39Z</time>
      </trkpt>
      <trkpt lat="44.12929" lon="1.85735">
        <ele>297.6</ele>
        <time>2024-04-07T08:29:40Z</time>
      </trkpt>
      <trkpt lat="44.12932" lon="1.85748">
        <ele>296.8</ele>
        <time>2024-04-07T08:29:41Z</time>
      </trkpt>
      <trkpt lat="44.12939" lon="1.85773">
        <ele>295.2</ele>
        <time>2024-04-07T08:29:43Z</time>
      </trkpt>
      <trkpt lat="44.12945" lon="1.85797">
        <ele>293.6</ele>
        <time>2024-04-07T08:29:45Z</time>
      </trkpt>
      <trkpt lat="44.12948" lon="1.8581">
        <ele>293.2</ele>
        <time>2024-04-07T08:29:46Z</time>
      </trkpt>
      <trkpt lat="44.1295" lon="1.85822">
        <ele>292.6</ele>
        <time>2024-04-07T08:29:47Z</time>
      </trkpt>
      <trkpt lat="44.12952" lon="1.85835">
        <ele>290.8</ele>
        <time>2024-04-07T08:29:48Z</time>
      </trkpt>
      <trkpt lat="44.12954" lon="1.85848">
        <ele>290</ele>
        <time>2024-04-07T08:29:49Z</time>
      </trkpt>
      <trkpt lat="44.12956" lon="1.85861">
        <ele>289</ele>
        <time>2024-04-07T08:29:50Z</time>
      </trkpt>
      <trkpt lat="44.12958" lon="1.85873">
        <ele>288.4</ele>
        <time>2024-04-07T08:29:51Z</time>
      </trkpt>
      <trkpt lat="44.12959" lon="1.85884">
        <ele>287.4</ele>
        <time>2024-04-07T08:29:52Z</time>
      </trkpt>
      <trkpt lat="44.12961" lon="1.85893">
        <ele>287</ele>
        <time>2024-04-07T08:29:53Z</time>
      </trkpt>
      <trkpt lat="44.12962" lon="1.85902">
        <ele>286.2</ele>
        <time>2024-04-07T08:29:54Z</time>
      </trkpt>
      <trkpt lat="44.12961" lon="1.8591">
        <ele>285.8</ele>
        <time>2024-04-07T08:29:55Z</time>
      </trkpt>
      <trkpt lat="44.1296" lon="1.85918">
        <ele>285.6</ele>
        <time>2024-04-07T08:29:56Z</time>
      </trkpt>
      <trkpt lat="44.12959" lon="1.85925">
        <ele>285.2</ele>
        <time>2024-04-07T08:29:57Z</time>
      </trkpt>
      <trkpt lat="44.12958" lon="1.85933">
        <ele>285</ele>
        <time>2024-04-07T08:29:58Z</time>
      </trkpt>
      <trkpt lat="44.12957" lon="1.8595">
        <ele>284.8</ele>
        <time>2024-04-07T08:30:00Z</time>
      </trkpt>
      <trkpt lat="44.12958" lon="1.85958">
        <ele>284.8</ele>
        <time>2024-04-07T08:30:01Z</time>
      </trkpt>
      <trkpt lat="44.12958" lon="1.85967">
        <ele>284.6</ele>
        <time>2024-04-07T08:30:02Z</time>
      </trkpt>
      <trkpt lat="44.12958" lon="1.85976">
        <ele>284.4</ele>
        <time>2024-04-07T08:30:03Z</time>
      </trkpt>
      <trkpt lat="44.12957" lon="1.85985">
        <ele>284</ele>
        <time>2024-04-07T08:30:04Z</time>
      </trkpt>
      <trkpt lat="44.12955" lon="1.86002">
        <ele>283.6</ele>
        <time>2024-04-07T08:30:06Z</time>
      </trkpt>
      <trkpt lat="44.12955" lon="1.86011">
        <ele>283.6</ele>
        <time>2024-04-07T08:30:07Z</time>
      </trkpt>
      <trkpt lat="44.12955" lon="1.8602">
        <ele>283.4</ele>
        <time>2024-04-07T08:30:08Z</time>
      </trkpt>
      <trkpt lat="44.12955" lon="1.86028">
        <ele>283.2</ele>
        <time>2024-04-07T08:30:09Z</time>
      </trkpt>
      <trkpt lat="44.12956" lon="1.86037">
        <ele>283</ele>
        <time>2024-04-07T08:30:10Z</time>
      </trkpt>
      <trkpt lat="44.12957" lon="1.86046">
        <ele>283</ele>
        <time>2024-04-07T08:30:11Z</time>
      </trkpt>
      <trkpt lat="44.12958" lon="1.86054">
        <ele>282.8</ele>
        <time>2024-04-07T08:30:12Z</time>
      </trkpt>
      <trkpt lat="44.12959" lon="1.86063">
        <ele>282.6</ele>
        <time>2024-04-07T08:30:13Z</time>
      </trkpt>
      <trkpt lat="44.12961" lon="1.86071">
        <ele>282.6</ele>
        <time>2024-04-07T08:30:14Z</time>
      </trkpt>
      <trkpt lat="44.12963" lon="1.86079">
        <ele>282.2</ele>
        <time>2024-04-07T08:30:15Z</time>
      </trkpt>
      <trkpt lat="44.12966" lon="1.86087">
        <ele>282.2</ele>
        <time>2024-04-07T08:30:16Z</time>
      </trkpt>
      <trkpt lat="44.12972" lon="1.86103">
        <ele>282</ele>
        <time>2024-04-07T08:30:18Z</time>
      </trkpt>
      <trkpt lat="44.12975" lon="1.86112">
        <ele>281.8</ele>
        <time>2024-04-07T08:30:19Z</time>
      </trkpt>
      <trkpt lat="44.12978" lon="1.8612">
        <ele>281.4</ele>
        <time>2024-04-07T08:30:20Z</time>
      </trkpt>
      <trkpt lat="44.12982" lon="1.86127">
        <ele>280.8</ele>
        <time>2024-04-07T08:30:21Z</time>
      </trkpt>
      <trkpt lat="44.12987" lon="1.86132">
        <ele>280.4</ele>
        <time>2024-04-07T08:30:22Z</time>
      </trkpt>
      <trkpt lat="44.12991" lon="1.86138">
        <ele>280.2</ele>
        <time>2024-04-07T08:30:23Z</time>
      </trkpt>
      <trkpt lat="44.12996" lon="1.86143">
        <ele>280</ele>
        <time>2024-04-07T08:30:24Z</time>
      </trkpt>
      <trkpt lat="44.13001" lon="1.86149">
        <ele>279.8</ele>
        <time>2024-04-07T08:30:25Z</time>
      </trkpt>
      <trkpt lat="44.13005" lon="1.86155">
        <ele>279.2</ele>
        <time>2024-04-07T08:30:26Z</time>
      </trkpt>
      <trkpt lat="44.13009" lon="1.86162">
        <ele>279</ele>
        <time>2024-04-07T08:30:27Z</time>
      </trkpt>
      <trkpt lat="44.13013" lon="1.8617">
        <ele>278.6</ele>
        <time>2024-04-07T08:30:28Z</time>
      </trkpt>
      <trkpt lat="44.13016" lon="1.86179">
        <ele>278.6</ele>
        <time>2024-04-07T08:30:29Z</time>
      </trkpt>
      <trkpt lat="44.13019" lon="1.86187">
        <ele>278.2</ele>
        <time>2024-04-07T08:30:30Z</time>
      </trkpt>
      <trkpt lat="44.13029" lon="1.86203">
        <ele>277.8</ele>
        <time>2024-04-07T08:30:32Z</time>
      </trkpt>
      <trkpt lat="44.13036" lon="1.8621">
        <ele>277.8</ele>
        <time>2024-04-07T08:30:33Z</time>
      </trkpt>
      <trkpt lat="44.13043" lon="1.86217">
        <ele>277.4</ele>
        <time>2024-04-07T08:30:34Z</time>
      </trkpt>
      <trkpt lat="44.13048" lon="1.86226">
        <ele>276.8</ele>
        <time>2024-04-07T08:30:35Z</time>
      </trkpt>
      <trkpt lat="44.13051" lon="1.86237">
        <ele>276.2</ele>
        <time>2024-04-07T08:30:36Z</time>
      </trkpt>
      <trkpt lat="44.13054" lon="1.86248">
        <ele>275</ele>
        <time>2024-04-07T08:30:37Z</time>
      </trkpt>
      <trkpt lat="44.13057" lon="1.86258">
        <ele>274.6</ele>
        <time>2024-04-07T08:30:38Z</time>
      </trkpt>
      <trkpt lat="44.13061" lon="1.86267">
        <ele>273.4</ele>
        <time>2024-04-07T08:30:39Z</time>
      </trkpt>
      <trkpt lat="44.13066" lon="1.86275">
        <ele>272</ele>
        <time>2024-04-07T08:30:40Z</time>
      </trkpt>
      <trkpt lat="44.13072" lon="1.8628">
        <ele>271</ele>
        <time>2024-04-07T08:30:41Z</time>
      </trkpt>
      <trkpt lat="44.13077" lon="1.86283">
        <ele>269.8</ele>
        <time>2024-04-07T08:30:42Z</time>
      </trkpt>
      <trkpt lat="44.1308" lon="1.86287">
        <ele>269.2</ele>
        <time>2024-04-07T08:30:43Z</time>
      </trkpt>
      <trkpt lat="44.1308" lon="1.86287">
        <ele>268.2</ele>
        <time>2024-04-07T08:30:44Z</time>
      </trkpt>
      <trkpt lat="44.13084" lon="1.863">
        <ele>267.4</ele>
        <time>2024-04-07T08:30:45Z</time>
      </trkpt>
      <trkpt lat="44.13085" lon="1.86307">
        <ele>266.4</ele>
        <time>2024-04-07T08:30:46Z</time>
      </trkpt>
      <trkpt lat="44.13085" lon="1.86313">
        <ele>265.4</ele>
        <time>2024-04-07T08:30:47Z</time>
      </trkpt>
      <trkpt lat="44.13084" lon="1.86317">
        <ele>264.8</ele>
        <time>2024-04-07T08:30:48Z</time>
      </trkpt>
      <trkpt lat="44.13083" lon="1.86322">
        <ele>263.8</ele>
        <time>2024-04-07T08:30:49Z</time>
      </trkpt>
      <trkpt lat="44.13082" lon="1.86328">
        <ele>263.2</ele>
        <time>2024-04-07T08:30:50Z</time>
      </trkpt>
      <trkpt lat="44.13082" lon="1.86335">
        <ele>262.8</ele>
        <time>2024-04-07T08:30:51Z</time>
      </trkpt>
      <trkpt lat="44.13082" lon="1.86342">
        <ele>262.6</ele>
        <time>2024-04-07T08:30:52Z</time>
      </trkpt>
      <trkpt lat="44.13083" lon="1.86351">
        <ele>262.2</ele>
        <time>2024-04-07T08:30:53Z</time>
      </trkpt>
      <trkpt lat="44.13083" lon="1.86359">
        <ele>262.2</ele>
        <time>2024-04-07T08:30:54Z</time>
      </trkpt>
      <trkpt lat="44.13083" lon="1.86367">
        <ele>261.6</ele>
        <time>2024-04-07T08:30:55Z</time>
      </trkpt>
      <trkpt lat="44.13084" lon="1.86375">
        <ele>261.2</ele>
        <time>2024-04-07T08:30:56Z</time>
      </trkpt>
      <trkpt lat="44.13087" lon="1.86384">
        <ele>261</ele>
        <time>2024-04-07T08:30:57Z</time>
      </trkpt>
      <trkpt lat="44.13089" lon="1.86391">
        <ele>260.6</ele>
        <time>2024-04-07T08:30:58Z</time>
      </trkpt>
      <trkpt lat="44.13092" lon="1.864">
        <ele>259.8</ele>
        <time>2024-04-07T08:30:59Z</time>
      </trkpt>
      <trkpt lat="44.13095" lon="1.86409">
        <ele>258.8</ele>
        <time>2024-04-07T08:31:00Z</time>
      </trkpt>
      <trkpt lat="44.13098" lon="1.86418">
        <ele>258.2</ele>
        <time>2024-04-07T08:31:01Z</time>
      </trkpt>
      <trkpt lat="44.13101" lon="1.86427">
        <ele>256.8</ele>
        <time>2024-04-07T08:31:02Z</time>
      </trkpt>
      <trkpt lat="44.13104" lon="1.86436">
        <ele>256</ele>
        <time>2024-04-07T08:31:03Z</time>
      </trkpt>
      <trkpt lat="44.13107" lon="1.86443">
        <ele>254.8</ele>
        <time>2024-04-07T08:31:04Z</time>
      </trkpt>
      <trkpt lat="44.13111" lon="1.8645">
        <ele>253</ele>
        <time>2024-04-07T08:31:05Z</time>
      </trkpt>
      <trkpt lat="44.13115" lon="1.86459">
        <ele>252.6</ele>
        <time>2024-04-07T08:31:06Z</time>
      </trkpt>
      <trkpt lat="44.13118" lon="1.8647">
        <ele>251.2</ele>
        <time>2024-04-07T08:31:07Z</time>
      </trkpt>
      <trkpt lat="44.13121" lon="1.86481">
        <ele>250.4</ele>
        <time>2024-04-07T08:31:08Z</time>
      </trkpt>
      <trkpt lat="44.13124" lon="1.86492">
        <ele>249.4</ele>
        <time>2024-04-07T08:31:09Z</time>
      </trkpt>
      <trkpt lat="44.13128" lon="1.86504">
        <ele>249.2</ele>
        <time>2024-04-07T08:31:10Z</time>
      </trkpt>
      <trkpt lat="44.13131" lon="1.86515">
        <ele>248</ele>
        <time>2024-04-07T08:31:11Z</time>
      </trkpt>
      <trkpt lat="44.13133" lon="1.86527">
        <ele>247.8</ele>
        <time>2024-04-07T08:31:12Z</time>
      </trkpt>
      <trkpt lat="44.13136" lon="1.86539">
        <ele>246.2</ele>
        <time>2024-04-07T08:31:13Z</time>
      </trkpt>
      <trkpt lat="44.13138" lon="1.8655">
        <ele>244.8</ele>
        <time>2024-04-07T08:31:14Z</time>
      </trkpt>
      <trkpt lat="44.13141" lon="1.8656">
        <ele>244</ele>
        <time>2024-04-07T08:31:15Z</time>
      </trkpt>
      <trkpt lat="44.13145" lon="1.86568">
        <ele>242.4</ele>
        <time>2024-04-07T08:31:16Z</time>
      </trkpt>
      <trkpt lat="44.13151" lon="1.86573">
        <ele>241.2</ele>
        <time>2024-04-07T08:31:17Z</time>
      </trkpt>
      <trkpt lat="44.13158" lon="1.86577">
        <ele>238.4</ele>
        <time>2024-04-07T08:31:18Z</time>
      </trkpt>
      <trkpt lat="44.13166" lon="1.86579">
        <ele>237.2</ele>
        <time>2024-04-07T08:31:19Z</time>
      </trkpt>
      <trkpt lat="44.13174" lon="1.86581">
        <ele>235.8</ele>
        <time>2024-04-07T08:31:20Z</time>
      </trkpt>
      <trkpt lat="44.13183" lon="1.86582">
        <ele>233.8</ele>
        <time>2024-04-07T08:31:21Z</time>
      </trkpt>
      <trkpt lat="44.13191" lon="1.86582">
        <ele>232.2</ele>
        <time>2024-04-07T08:31:22Z</time>
      </trkpt>
      <trkpt lat="44.13198" lon="1.86582">
        <ele>229.8</ele>
        <time>2024-04-07T08:31:23Z</time>
      </trkpt>
      <trkpt lat="44.13202" lon="1.86584">
        <ele>229</ele>
        <time>2024-04-07T08:31:24Z</time>
      </trkpt>
      <trkpt lat="44.13204" lon="1.86588">
        <ele>228</ele>
        <time>2024-04-07T08:31:25Z</time>
      </trkpt>
      <trkpt lat="44.13203" lon="1.86594">
        <ele>227.2</ele>
        <time>2024-04-07T08:31:26Z</time>
      </trkpt>
      <trkpt lat="44.13202" lon="1.86602">
        <ele>225.8</ele>
        <time>2024-04-07T08:31:27Z</time>
      </trkpt>
      <trkpt lat="44.13199" lon="1.8661">
        <ele>225.2</ele>
        <time>2024-04-07T08:31:28Z</time>
      </trkpt>
      <trkpt lat="44.13196" lon="1.86619">
        <ele>223.2</ele>
        <time>2024-04-07T08:31:29Z</time>
      </trkpt>
      <trkpt lat="44.13193" lon="1.86629">
        <ele>221.6</ele>
        <time>2024-04-07T08:31:30Z</time>
      </trkpt>
      <trkpt lat="44.13187" lon="1.86652">
        <ele>219.8</ele>
        <time>2024-04-07T08:31:32Z</time>
      </trkpt>
      <trkpt lat="44.13183" lon="1.86662">
        <ele>219.2</ele>
        <time>2024-04-07T08:31:33Z</time>
      </trkpt>
      <trkpt lat="44.1318" lon="1.86674">
        <ele>218</ele>
        <time>2024-04-07T08:31:34Z</time>
      </trkpt>
      <trkpt lat="44.13176" lon="1.86686">
        <ele>217.6</ele>
        <time>2024-04-07T08:31:35Z</time>
      </trkpt>
      <trkpt lat="44.13173" lon="1.86699">
        <ele>216.6</ele>
        <time>2024-04-07T08:31:36Z</time>
      </trkpt>
      <trkpt lat="44.13171" lon="1.86711">
        <ele>216.2</ele>
        <time>2024-04-07T08:31:37Z</time>
      </trkpt>
      <trkpt lat="44.13168" lon="1.86724">
        <ele>215</ele>
        <time>2024-04-07T08:31:38Z</time>
      </trkpt>
      <trkpt lat="44.13165" lon="1.86738">
        <ele>213.4</ele>
        <time>2024-04-07T08:31:39Z</time>
      </trkpt>
      <trkpt lat="44.13159" lon="1.86764">
        <ele>211.2</ele>
        <time>2024-04-07T08:31:41Z</time>
      </trkpt>
      <trkpt lat="44.13156" lon="1.86775">
        <ele>210.6</ele>
        <time>2024-04-07T08:31:42Z</time>
      </trkpt>
      <trkpt lat="44.13152" lon="1.86783">
        <ele>209.8</ele>
        <time>2024-04-07T08:31:43Z</time>
      </trkpt>
      <trkpt lat="44.13147" lon="1.8679">
        <ele>209.4</ele>
        <time>2024-04-07T08:31:44Z</time>
      </trkpt>
      <trkpt lat="44.13143" lon="1.86798">
        <ele>208</ele>
        <time>2024-04-07T08:31:45Z</time>
      </trkpt>
      <trkpt lat="44.13142" lon="1.86807">
        <ele>207.6</ele>
        <time>2024-04-07T08:31:46Z</time>
      </trkpt>
      <trkpt lat="44.13142" lon="1.86817">
        <ele>206.2</ele>
        <time>2024-04-07T08:31:47Z</time>
      </trkpt>
      <trkpt lat="44.13143" lon="1.86829">
        <ele>205</ele>
        <time>2024-04-07T08:31:48Z</time>
      </trkpt>
      <trkpt lat="44.13144" lon="1.86841">
        <ele>204.6</ele>
        <time>2024-04-07T08:31:49Z</time>
      </trkpt>
      <trkpt lat="44.13147" lon="1.86853">
        <ele>203.2</ele>
        <time>2024-04-07T08:31:50Z</time>
      </trkpt>
      <trkpt lat="44.13155" lon="1.86873">
        <ele>200.6</ele>
        <time>2024-04-07T08:31:52Z</time>
      </trkpt>
      <trkpt lat="44.13162" lon="1.86883">
        <ele>199.4</ele>
        <time>2024-04-07T08:31:53Z</time>
      </trkpt>
      <trkpt lat="44.13172" lon="1.86889">
        <ele>197.8</ele>
        <time>2024-04-07T08:31:54Z</time>
      </trkpt>
      <trkpt lat="44.13183" lon="1.86893">
        <ele>197.2</ele>
        <time>2024-04-07T08:31:55Z</time>
      </trkpt>
      <trkpt lat="44.13194" lon="1.86897">
        <ele>195.4</ele>
        <time>2024-04-07T08:31:56Z</time>
      </trkpt>
      <trkpt lat="44.13206" lon="1.869">
        <ele>193.8</ele>
        <time>2024-04-07T08:31:57Z</time>
      </trkpt>
      <trkpt lat="44.13228" lon="1.86908">
        <ele>191.4</ele>
        <time>2024-04-07T08:31:59Z</time>
      </trkpt>
      <trkpt lat="44.13237" lon="1.86915">
        <ele>190.8</ele>
        <time>2024-04-07T08:32:00Z</time>
      </trkpt>
      <trkpt lat="44.13246" lon="1.86925">
        <ele>187.6</ele>
        <time>2024-04-07T08:32:01Z</time>
      </trkpt>
      <trkpt lat="44.13255" lon="1.86934">
        <ele>186.4</ele>
        <time>2024-04-07T08:32:02Z</time>
      </trkpt>
      <trkpt lat="44.13265" lon="1.86943">
        <ele>183.6</ele>
        <time>2024-04-07T08:32:03Z</time>
      </trkpt>
      <trkpt lat="44.13276" lon="1.86951">
        <ele>180.6</ele>
        <time>2024-04-07T08:32:04Z</time>
      </trkpt>
      <trkpt lat="44.13287" lon="1.86959">
        <ele>179.6</ele>
        <time>2024-04-07T08:32:05Z</time>
      </trkpt>
      <trkpt lat="44.13299" lon="1.86967">
        <ele>178</ele>
        <time>2024-04-07T08:32:06Z</time>
      </trkpt>
      <trkpt lat="44.13311" lon="1.86976">
        <ele>177.2</ele>
        <time>2024-04-07T08:32:07Z</time>
      </trkpt>
      <trkpt lat="44.13323" lon="1.86985">
        <ele>175</ele>
        <time>2024-04-07T08:32:08Z</time>
      </trkpt>
      <trkpt lat="44.13336" lon="1.86992">
        <ele>173.4</ele>
        <time>2024-04-07T08:32:09Z</time>
      </trkpt>
      <trkpt lat="44.13348" lon="1.86998">
        <ele>171</ele>
        <time>2024-04-07T08:32:10Z</time>
      </trkpt>
      <trkpt lat="44.1336" lon="1.87003">
        <ele>170.4</ele>
        <time>2024-04-07T08:32:11Z</time>
      </trkpt>
      <trkpt lat="44.13371" lon="1.87007">
        <ele>168.4</ele>
        <time>2024-04-07T08:32:12Z</time>
      </trkpt>
      <trkpt lat="44.13381" lon="1.8701">
        <ele>166.2</ele>
        <time>2024-04-07T08:32:13Z</time>
      </trkpt>
      <trkpt lat="44.13391" lon="1.87014">
        <ele>165.2</ele>
        <time>2024-04-07T08:32:14Z</time>
      </trkpt>
      <trkpt lat="44.13401" lon="1.87018">
        <ele>164</ele>
        <time>2024-04-07T08:32:15Z</time>
      </trkpt>
      <trkpt lat="44.13411" lon="1.87024">
        <ele>163.6</ele>
        <time>2024-04-07T08:32:16Z</time>
      </trkpt>
      <trkpt lat="44.1342" lon="1.8703">
        <ele>163</ele>
        <time>2024-04-07T08:32:17Z</time>
      </trkpt>
      <trkpt lat="44.13438" lon="1.87048">
        <ele>162</ele>
        <time>2024-04-07T08:32:19Z</time>
      </trkpt>
      <trkpt lat="44.13447" lon="1.87057">
        <ele>161.6</ele>
        <time>2024-04-07T08:32:20Z</time>
      </trkpt>
      <trkpt lat="44.13457" lon="1.87065">
        <ele>161.2</ele>
        <time>2024-04-07T08:32:21Z</time>
      </trkpt>
      <trkpt lat="44.13467" lon="1.87072">
        <ele>160.4</ele>
        <time>2024-04-07T08:32:22Z</time>
      </trkpt>
      <trkpt lat="44.13477" lon="1.87079">
        <ele>160</ele>
        <time>2024-04-07T08:32:23Z</time>
      </trkpt>
      <trkpt lat="44.13489" lon="1.87087">
        <ele>158.8</ele>
        <time>2024-04-07T08:32:24Z</time>
      </trkpt>
      <trkpt lat="44.13496" lon="1.87094">
        <ele>158.4</ele>
        <time>2024-04-07T08:32:25Z</time>
      </trkpt>
      <trkpt lat="44.13505" lon="1.87102">
        <ele>157.2</ele>
        <time>2024-04-07T08:32:26Z</time>
      </trkpt>
      <trkpt lat="44.13514" lon="1.8711">
        <ele>156.6</ele>
        <time>2024-04-07T08:32:27Z</time>
      </trkpt>
      <trkpt lat="44.13522" lon="1.87117">
        <ele>155.8</ele>
        <time>2024-04-07T08:32:28Z</time>
      </trkpt>
      <trkpt lat="44.1353" lon="1.87125">
        <ele>155.2</ele>
        <time>2024-04-07T08:32:29Z</time>
      </trkpt>
      <trkpt lat="44.13537" lon="1.87133">
        <ele>154.4</ele>
        <time>2024-04-07T08:32:30Z</time>
      </trkpt>
      <trkpt lat="44.13545" lon="1.87141">
        <ele>154</ele>
        <time>2024-04-07T08:32:31Z</time>
      </trkpt>
      <trkpt lat="44.13551" lon="1.8715">
        <ele>153.6</ele>
        <time>2024-04-07T08:32:32Z</time>
      </trkpt>
      <trkpt lat="44.13558" lon="1.87158">
        <ele>153.4</ele>
        <time>2024-04-07T08:32:33Z</time>
      </trkpt>
      <trkpt lat="44.13558" lon="1.87158">
        <ele>153.4</ele>
        <time>2024-04-07T08:32:34Z</time>
      </trkpt>
      <trkpt lat="44.1357" lon="1.87176">
        <ele>153.2</ele>
        <time>2024-04-07T08:32:35Z</time>
      </trkpt>
      <trkpt lat="44.13576" lon="1.87185">
        <ele>153</ele>
        <time>2024-04-07T08:32:36Z</time>
      </trkpt>
      <trkpt lat="44.13581" lon="1.87194">
        <ele>152.8</ele>
        <time>2024-04-07T08:32:37Z</time>
      </trkpt>
      <trkpt lat="44.13587" lon="1.87203">
        <ele>152.6</ele>
        <time>2024-04-07T08:32:38Z</time>
      </trkpt>
      <trkpt lat="44.13593" lon="1.87212">
        <ele>152.6</ele>
        <time>2024-04-07T08:32:39Z</time>
      </trkpt>
      <trkpt lat="44.13598" lon="1.87221">
        <ele>152.2</ele>
        <time>2024-04-07T08:32:40Z</time>
      </trkpt>
      <trkpt lat="44.13604" lon="1.87229">
        <ele>152.2</ele>
        <time>2024-04-07T08:32:41Z</time>
      </trkpt>
      <trkpt lat="44.13609" lon="1.87236">
        <ele>151.4</ele>
        <time>2024-04-07T08:32:42Z</time>
      </trkpt>
      <trkpt lat="44.13613" lon="1.87242">
        <ele>151</ele>
        <time>2024-04-07T08:32:43Z</time>
      </trkpt>
      <trkpt lat="44.13616" lon="1.87248">
        <ele>150.4</ele>
        <time>2024-04-07T08:32:44Z</time>
      </trkpt>
      <trkpt lat="44.13616" lon="1.87254">
        <ele>150.2</ele>
        <time>2024-04-07T08:32:45Z</time>
      </trkpt>
      <trkpt lat="44.13614" lon="1.87259">
        <ele>149.6</ele>
        <time>2024-04-07T08:32:46Z</time>
      </trkpt>
      <trkpt lat="44.1361" lon="1.87263">
        <ele>149.2</ele>
        <time>2024-04-07T08:32:47Z</time>
      </trkpt>
      <trkpt lat="44.13605" lon="1.87267">
        <ele>149.2</ele>
        <time>2024-04-07T08:32:48Z</time>
      </trkpt>
      <trkpt lat="44.13602" lon="1.87271">
        <ele>149</ele>
        <time>2024-04-07T08:32:49Z</time>
      </trkpt>
      <trkpt lat="44.13597" lon="1.87276">
        <ele>149</ele>
        <time>2024-04-07T08:32:50Z</time>
      </trkpt>
      <trkpt lat="44.13593" lon="1.8728">
        <ele>148.8</ele>
        <time>2024-04-07T08:32:51Z</time>
      </trkpt>
      <trkpt lat="44.13588" lon="1.87284">
        <ele>148.8</ele>
        <time>2024-04-07T08:32:52Z</time>
      </trkpt>
      <trkpt lat="44.13583" lon="1.87285">
        <ele>148.8</ele>
        <time>2024-04-07T08:32:53Z</time>
      </trkpt>
      <trkpt lat="44.13578" lon="1.87285">
        <ele>148.8</ele>
        <time>2024-04-07T08:32:54Z</time>
      </trkpt>
      <trkpt lat="44.13572" lon="1.87283">
        <ele>148.8</ele>
        <time>2024-04-07T08:32:55Z</time>
      </trkpt>
      <trkpt lat="44.13566" lon="1.8728">
        <ele>148.8</ele>
        <time>2024-04-07T08:32:56Z</time>
      </trkpt>
      <trkpt lat="44.1356" lon="1.87277">
        <ele>148.6</ele>
        <time>2024-04-07T08:32:57Z</time>
      </trkpt>
      <trkpt lat="44.13554" lon="1.87275">
        <ele>148.6</ele>
        <time>2024-04-07T08:32:58Z</time>
      </trkpt>
      <trkpt lat="44.13548" lon="1.87272">
        <ele>148.6</ele>
        <time>2024-04-07T08:32:59Z</time>
      </trkpt>
      <trkpt lat="44.13544" lon="1.8727">
        <ele>148.4</ele>
        <time>2024-04-07T08:33:00Z</time>
      </trkpt>
      <trkpt lat="44.13537" lon="1.87269">
        <ele>148.4</ele>
        <time>2024-04-07T08:33:01Z</time>
      </trkpt>
      <trkpt lat="44.13532" lon="1.8727">
        <ele>148.4</ele>
        <time>2024-04-07T08:33:02Z</time>
      </trkpt>
      <trkpt lat="44.13521" lon="1.87274">
        <ele>148</ele>
        <time>2024-04-07T08:33:04Z</time>
      </trkpt>
      <trkpt lat="44.13515" lon="1.87276">
        <ele>147.8</ele>
        <time>2024-04-07T08:33:05Z</time>
      </trkpt>
      <trkpt lat="44.13502" lon="1.8728">
        <ele>147.6</ele>
        <time>2024-04-07T08:33:07Z</time>
      </trkpt>
      <trkpt lat="44.13495" lon="1.87281">
        <ele>147.6</ele>
        <time>2024-04-07T08:33:08Z</time>
      </trkpt>
      <trkpt lat="44.13489" lon="1.87283">
        <ele>147.4</ele>
        <time>2024-04-07T08:33:09Z</time>
      </trkpt>
      <trkpt lat="44.13483" lon="1.87284">
        <ele>147.4</ele>
        <time>2024-04-07T08:33:10Z</time>
      </trkpt>
      <trkpt lat="44.13476" lon="1.87285">
        <ele>147.4</ele>
        <time>2024-04-07T08:33:11Z</time>
      </trkpt>
      <trkpt lat="44.13471" lon="1.87286">
        <ele>147.6</ele>
        <time>2024-04-07T08:33:12Z</time>
      </trkpt>
      <trkpt lat="44.13465" lon="1.87287">
        <ele>147.4</ele>
        <time>2024-04-07T08:33:13Z</time>
      </trkpt>
      <trkpt lat="44.1346" lon="1.87288">
        <ele>147.2</ele>
        <time>2024-04-07T08:33:14Z</time>
      </trkpt>
      <trkpt lat="44.13447" lon="1.87292">
        <ele>147</ele>
        <time>2024-04-07T08:33:16Z</time>
      </trkpt>
      <trkpt lat="44.13442" lon="1.87293">
        <ele>147</ele>
        <time>2024-04-07T08:33:17Z</time>
      </trkpt>
      <trkpt lat="44.1343" lon="1.87297">
        <ele>146.8</ele>
        <time>2024-04-07T08:33:19Z</time>
      </trkpt>
      <trkpt lat="44.13424" lon="1.87298">
        <ele>146.8</ele>
        <time>2024-04-07T08:33:20Z</time>
      </trkpt>
      <trkpt lat="44.13418" lon="1.87301">
        <ele>146.8</ele>
        <time>2024-04-07T08:33:21Z</time>
      </trkpt>
      <trkpt lat="44.13412" lon="1.87303">
        <ele>146.8</ele>
        <time>2024-04-07T08:33:22Z</time>
      </trkpt>
      <trkpt lat="44.13407" lon="1.87305">
        <ele>146.8</ele>
        <time>2024-04-07T08:33:23Z</time>
      </trkpt>
      <trkpt lat="44.13401" lon="1.87307">
        <ele>146.8</ele>
        <time>2024-04-07T08:33:24Z</time>
      </trkpt>
      <trkpt lat="44.13395" lon="1.87309">
        <ele>146.8</ele>
        <time>2024-04-07T08:33:25Z</time>
      </trkpt>
      <trkpt lat="44.13389" lon="1.8731">
        <ele>146.8</ele>
        <time>2024-04-07T08:33:26Z</time>
      </trkpt>
      <trkpt lat="44.13383" lon="1.87312">
        <ele>147</ele>
        <time>2024-04-07T08:33:27Z</time>
      </trkpt>
      <trkpt lat="44.13377" lon="1.87313">
        <ele>147</ele>
        <time>2024-04-07T08:33:28Z</time>
      </trkpt>
      <trkpt lat="44.13371" lon="1.87315">
        <ele>147</ele>
        <time>2024-04-07T08:33:29Z</time>
      </trkpt>
      <trkpt lat="44.13365" lon="1.87317">
        <ele>147</ele>
        <time>2024-04-07T08:33:30Z</time>
      </trkpt>
      <trkpt lat="44.13359" lon="1.87319">
        <ele>147.2</ele>
        <time>2024-04-07T08:33:31Z</time>
      </trkpt>
      <trkpt lat="44.13352" lon="1.8732">
        <ele>147.4</ele>
        <time>2024-04-07T08:33:32Z</time>
      </trkpt>
      <trkpt lat="44.13347" lon="1.87321">
        <ele>147.6</ele>
        <time>2024-04-07T08:33:33Z</time>
      </trkpt>
      <trkpt lat="44.13341" lon="1.87323">
        <ele>147.6</ele>
        <time>2024-04-07T08:33:34Z</time>
      </trkpt>
      <trkpt lat="44.13336" lon="1.87324">
        <ele>147.6</ele>
        <time>2024-04-07T08:33:35Z</time>
      </trkpt>
      <trkpt lat="44.13325" lon="1.87329">
        <ele>147.8</ele>
        <time>2024-04-07T08:33:37Z</time>
      </trkpt>
      <trkpt lat="44.1332" lon="1.87332">
        <ele>148</ele>
        <time>2024-04-07T08:33:38Z</time>
      </trkpt>
      <trkpt lat="44.13315" lon="1.87334">
        <ele>148</ele>
        <time>2024-04-07T08:33:39Z</time>
      </trkpt>
      <trkpt lat="44.13309" lon="1.87337">
        <ele>148.2</ele>
        <time>2024-04-07T08:33:40Z</time>
      </trkpt>
      <trkpt lat="44.13304" lon="1.87338">
        <ele>148.2</ele>
        <time>2024-04-07T08:33:41Z</time>
      </trkpt>
      <trkpt lat="44.133" lon="1.87338">
        <ele>148.2</ele>
        <time>2024-04-07T08:33:42Z</time>
      </trkpt>
      <trkpt lat="44.13297" lon="1.8734">
        <ele>148.2</ele>
        <time>2024-04-07T08:33:43Z</time>
      </trkpt>
      <trkpt lat="44.13293" lon="1.87341">
        <ele>148.4</ele>
        <time>2024-04-07T08:33:44Z</time>
      </trkpt>
      <trkpt lat="44.13288" lon="1.87343">
        <ele>148.4</ele>
        <time>2024-04-07T08:33:45Z</time>
      </trkpt>
      <trkpt lat="44.13282" lon="1.87345">
        <ele>148.6</ele>
        <time>2024-04-07T08:33:46Z</time>
      </trkpt>
      <trkpt lat="44.13276" lon="1.87347">
        <ele>148.6</ele>
        <time>2024-04-07T08:33:47Z</time>
      </trkpt>
      <trkpt lat="44.13272" lon="1.87348">
        <ele>148.8</ele>
        <time>2024-04-07T08:33:48Z</time>
      </trkpt>
      <trkpt lat="44.13268" lon="1.87349">
        <ele>149</ele>
        <time>2024-04-07T08:33:49Z</time>
      </trkpt>
      <trkpt lat="44.13263" lon="1.8735">
        <ele>149.2</ele>
        <time>2024-04-07T08:33:50Z</time>
      </trkpt>
      <trkpt lat="44.13258" lon="1.87353">
        <ele>149.4</ele>
        <time>2024-04-07T08:33:51Z</time>
      </trkpt>
      <trkpt lat="44.13252" lon="1.87356">
        <ele>149.6</ele>
        <time>2024-04-07T08:33:52Z</time>
      </trkpt>
      <trkpt lat="44.13248" lon="1.87358">
        <ele>149.6</ele>
        <time>2024-04-07T08:33:53Z</time>
      </trkpt>
      <trkpt lat="44.13246" lon="1.87358">
        <ele>149.8</ele>
        <time>2024-04-07T08:33:54Z</time>
      </trkpt>
      <trkpt lat="44.13243" lon="1.87358">
        <ele>150.2</ele>
        <time>2024-04-07T08:33:55Z</time>
      </trkpt>
      <trkpt lat="44.1324" lon="1.87358">
        <ele>150.6</ele>
        <time>2024-04-07T08:33:56Z</time>
      </trkpt>
      <trkpt lat="44.13235" lon="1.87358">
        <ele>150.8</ele>
        <time>2024-04-07T08:33:57Z</time>
      </trkpt>
      <trkpt lat="44.13231" lon="1.87358">
        <ele>151</ele>
        <time>2024-04-07T08:33:58Z</time>
      </trkpt>
      <trkpt lat="44.13227" lon="1.87358">
        <ele>151.2</ele>
        <time>2024-04-07T08:33:59Z</time>
      </trkpt>
      <trkpt lat="44.13224" lon="1.87358">
        <ele>151.4</ele>
        <time>2024-04-07T08:34:00Z</time>
      </trkpt>
      <trkpt lat="44.13221" lon="1.87358">
        <ele>151.8</ele>
        <time>2024-04-07T08:34:01Z</time>
      </trkpt>
      <trkpt lat="44.13217" lon="1.87358">
        <ele>152</ele>
        <time>2024-04-07T08:34:02Z</time>
      </trkpt>
      <trkpt lat="44.13213" lon="1.87359">
        <ele>152.2</ele>
        <time>2024-04-07T08:34:03Z</time>
      </trkpt>
      <trkpt lat="44.1321" lon="1.8736">
        <ele>152.6</ele>
        <time>2024-04-07T08:34:04Z</time>
      </trkpt>
      <trkpt lat="44.13206" lon="1.87361">
        <ele>152.6</ele>
        <time>2024-04-07T08:34:05Z</time>
      </trkpt>
      <trkpt lat="44.13202" lon="1.87361">
        <ele>152.8</ele>
        <time>2024-04-07T08:34:06Z</time>
      </trkpt>
      <trkpt lat="44.13198" lon="1.87362">
        <ele>153</ele>
        <time>2024-04-07T08:34:07Z</time>
      </trkpt>
      <trkpt lat="44.13194" lon="1.87363">
        <ele>153.2</ele>
        <time>2024-04-07T08:34:08Z</time>
      </trkpt>
      <trkpt lat="44.13189" lon="1.87363">
        <ele>153.6</ele>
        <time>2024-04-07T08:34:09Z</time>
      </trkpt>
      <trkpt lat="44.13185" lon="1.87363">
        <ele>154</ele>
        <time>2024-04-07T08:34:10Z</time>
      </trkpt>
      <trkpt lat="44.13181" lon="1.87363">
        <ele>154.8</ele>
        <time>2024-04-07T08:34:11Z</time>
      </trkpt>
      <trkpt lat="44.13177" lon="1.87363">
        <ele>155.2</ele>
        <time>2024-04-07T08:34:12Z</time>
      </trkpt>
      <trkpt lat="44.13173" lon="1.87364">
        <ele>156</ele>
        <time>2024-04-07T08:34:13Z</time>
      </trkpt>
      <trkpt lat="44.13169" lon="1.87365">
        <ele>156.2</ele>
        <time>2024-04-07T08:34:14Z</time>
      </trkpt>
      <trkpt lat="44.13165" lon="1.87365">
        <ele>156.4</ele>
        <time>2024-04-07T08:34:15Z</time>
      </trkpt>
      <trkpt lat="44.13161" lon="1.87366">
        <ele>156.6</ele>
        <time>2024-04-07T08:34:16Z</time>
      </trkpt>
      <trkpt lat="44.13157" lon="1.87367">
        <ele>156.8</ele>
        <time>2024-04-07T08:34:17Z</time>
      </trkpt>
      <trkpt lat="44.13152" lon="1.87369">
        <ele>157</ele>
        <time>2024-04-07T08:34:18Z</time>
      </trkpt>
      <trkpt lat="44.13148" lon="1.87371">
        <ele>157.4</ele>
        <time>2024-04-07T08:34:19Z</time>
      </trkpt>
      <trkpt lat="44.13144" lon="1.87372">
        <ele>157.8</ele>
        <time>2024-04-07T08:34:20Z</time>
      </trkpt>
      <trkpt lat="44.1314" lon="1.87373">
        <ele>158</ele>
        <time>2024-04-07T08:34:21Z</time>
      </trkpt>
      <trkpt lat="44.13135" lon="1.87375">
        <ele>158.2</ele>
        <time>2024-04-07T08:34:22Z</time>
      </trkpt>
      <trkpt lat="44.13131" lon="1.87376">
        <ele>158.2</ele>
        <time>2024-04-07T08:34:23Z</time>
      </trkpt>
      <trkpt lat="44.13128" lon="1.87378">
        <ele>158.4</ele>
        <time>2024-04-07T08:34:24Z</time>
      </trkpt>
      <trkpt lat="44.13124" lon="1.87379">
        <ele>158.4</ele>
        <time>2024-04-07T08:34:25Z</time>
      </trkpt>
      <trkpt lat="44.13119" lon="1.87381">
        <ele>158.4</ele>
        <time>2024-04-07T08:34:26Z</time>
      </trkpt>
      <trkpt lat="44.13115" lon="1.87383">
        <ele>158.6</ele>
        <time>2024-04-07T08:34:27Z</time>
      </trkpt>
      <trkpt lat="44.13112" lon="1.87385">
        <ele>158.6</ele>
        <time>2024-04-07T08:34:28Z</time>
      </trkpt>
      <trkpt lat="44.13108" lon="1.87386">
        <ele>158.6</ele>
        <time>2024-04-07T08:34:29Z</time>
      </trkpt>
      <trkpt lat="44.13105" lon="1.87389">
        <ele>158.6</ele>
        <time>2024-04-07T08:34:30Z</time>
      </trkpt>
      <trkpt lat="44.13101" lon="1.87391">
        <ele>158.6</ele>
        <time>2024-04-07T08:34:31Z</time>
      </trkpt>
      <trkpt lat="44.13098" lon="1.87393">
        <ele>158.6</ele>
        <time>2024-04-07T08:34:32Z</time>
      </trkpt>
      <trkpt lat="44.13094" lon="1.87396">
        <ele>158.6</ele>
        <time>2024-04-07T08:34:33Z</time>
      </trkpt>
      <trkpt lat="44.1309" lon="1.87399">
        <ele>158.8</ele>
        <time>2024-04-07T08:34:34Z</time>
      </trkpt>
      <trkpt lat="44.13087" lon="1.87402">
        <ele>159</ele>
        <time>2024-04-07T08:34:35Z</time>
      </trkpt>
      <trkpt lat="44.13082" lon="1.87405">
        <ele>159</ele>
        <time>2024-04-07T08:34:36Z</time>
      </trkpt>
      <trkpt lat="44.13077" lon="1.87408">
        <ele>159.4</ele>
        <time>2024-04-07T08:34:37Z</time>
      </trkpt>
      <trkpt lat="44.13072" lon="1.8741">
        <ele>159.8</ele>
        <time>2024-04-07T08:34:38Z</time>
      </trkpt>
      <trkpt lat="44.13068" lon="1.87413">
        <ele>159.8</ele>
        <time>2024-04-07T08:34:39Z</time>
      </trkpt>
      <trkpt lat="44.13064" lon="1.87416">
        <ele>160</ele>
        <time>2024-04-07T08:34:40Z</time>
      </trkpt>
      <trkpt lat="44.13059" lon="1.87418">
        <ele>160.2</ele>
        <time>2024-04-07T08:34:41Z</time>
      </trkpt>
      <trkpt lat="44.13055" lon="1.87421">
        <ele>160.4</ele>
        <time>2024-04-07T08:34:42Z</time>
      </trkpt>
      <trkpt lat="44.13049" lon="1.87424">
        <ele>160.4</ele>
        <time>2024-04-07T08:34:43Z</time>
      </trkpt>
      <trkpt lat="44.13044" lon="1.87427">
        <ele>160.8</ele>
        <time>2024-04-07T08:34:44Z</time>
      </trkpt>
      <trkpt lat="44.1304" lon="1.87429">
        <ele>161</ele>
        <time>2024-04-07T08:34:45Z</time>
      </trkpt>
      <trkpt lat="44.13035" lon="1.87431">
        <ele>161.2</ele>
        <time>2024-04-07T08:34:46Z</time>
      </trkpt>
      <trkpt lat="44.13031" lon="1.87433">
        <ele>161.2</ele>
        <time>2024-04-07T08:34:47Z</time>
      </trkpt>
      <trkpt lat="44.13027" lon="1.87437">
        <ele>161.2</ele>
        <time>2024-04-07T08:34:48Z</time>
      </trkpt>
      <trkpt lat="44.13022" lon="1.87441">
        <ele>161.2</ele>
        <time>2024-04-07T08:34:49Z</time>
      </trkpt>
      <trkpt lat="44.13018" lon="1.87445">
        <ele>161.2</ele>
        <time>2024-04-07T08:34:50Z</time>
      </trkpt>
      <trkpt lat="44.13014" lon="1.87449">
        <ele>161.2</ele>
        <time>2024-04-07T08:34:51Z</time>
      </trkpt>
      <trkpt lat="44.13009" lon="1.87452">
        <ele>161.2</ele>
        <time>2024-04-07T08:34:52Z</time>
      </trkpt>
      <trkpt lat="44.13005" lon="1.87457">
        <ele>161</ele>
        <time>2024-04-07T08:34:53Z</time>
      </trkpt>
      <trkpt lat="44.13002" lon="1.87461">
        <ele>160.8</ele>
        <time>2024-04-07T08:34:54Z</time>
      </trkpt>
      <trkpt lat="44.12997" lon="1.87466">
        <ele>160.6</ele>
        <time>2024-04-07T08:34:55Z</time>
      </trkpt>
      <trkpt lat="44.12992" lon="1.87471">
        <ele>160.6</ele>
        <time>2024-04-07T08:34:56Z</time>
      </trkpt>
      <trkpt lat="44.12989" lon="1.87477">
        <ele>160.6</ele>
        <time>2024-04-07T08:34:57Z</time>
      </trkpt>
      <trkpt lat="44.12985" lon="1.87483">
        <ele>160.4</ele>
        <time>2024-04-07T08:34:58Z</time>
      </trkpt>
      <trkpt lat="44.12981" lon="1.87489">
        <ele>160.4</ele>
        <time>2024-04-07T08:34:59Z</time>
      </trkpt>
      <trkpt lat="44.12976" lon="1.87495">
        <ele>160.4</ele>
        <time>2024-04-07T08:35:00Z</time>
      </trkpt>
      <trkpt lat="44.1297" lon="1.87501">
        <ele>160.4</ele>
        <time>2024-04-07T08:35:01Z</time>
      </trkpt>
      <trkpt lat="44.12965" lon="1.87506">
        <ele>160.2</ele>
        <time>2024-04-07T08:35:02Z</time>
      </trkpt>
      <trkpt lat="44.12961" lon="1.87512">
        <ele>159.6</ele>
        <time>2024-04-07T08:35:03Z</time>
      </trkpt>
      <trkpt lat="44.12957" lon="1.87518">
        <ele>159.6</ele>
        <time>2024-04-07T08:35:04Z</time>
      </trkpt>
      <trkpt lat="44.12954" lon="1.87523">
        <ele>159.4</ele>
        <time>2024-04-07T08:35:05Z</time>
      </trkpt>
      <trkpt lat="44.12951" lon="1.87527">
        <ele>159.2</ele>
        <time>2024-04-07T08:35:06Z</time>
      </trkpt>
      <trkpt lat="44.12948" lon="1.87533">
        <ele>159</ele>
        <time>2024-04-07T08:35:07Z</time>
      </trkpt>
      <trkpt lat="44.12944" lon="1.87538">
        <ele>159</ele>
        <time>2024-04-07T08:35:08Z</time>
      </trkpt>
      <trkpt lat="44.12935" lon="1.87547">
        <ele>158.8</ele>
        <time>2024-04-07T08:35:10Z</time>
      </trkpt>
      <trkpt lat="44.12932" lon="1.87554">
        <ele>158.8</ele>
        <time>2024-04-07T08:35:11Z</time>
      </trkpt>
      <trkpt lat="44.12928" lon="1.87562">
        <ele>158.6</ele>
        <time>2024-04-07T08:35:12Z</time>
      </trkpt>
      <trkpt lat="44.12916" lon="1.87579">
        <ele>157.8</ele>
        <time>2024-04-07T08:35:14Z</time>
      </trkpt>
      <trkpt lat="44.1291" lon="1.87587">
        <ele>157.6</ele>
        <time>2024-04-07T08:35:15Z</time>
      </trkpt>
      <trkpt lat="44.12902" lon="1.87597">
        <ele>156.6</ele>
        <time>2024-04-07T08:35:16Z</time>
      </trkpt>
      <trkpt lat="44.12897" lon="1.87604">
        <ele>156.4</ele>
        <time>2024-04-07T08:35:17Z</time>
      </trkpt>
      <trkpt lat="44.12893" lon="1.87611">
        <ele>155.8</ele>
        <time>2024-04-07T08:35:18Z</time>
      </trkpt>
      <trkpt lat="44.12891" lon="1.87618">
        <ele>155.6</ele>
        <time>2024-04-07T08:35:19Z</time>
      </trkpt>
      <trkpt lat="44.1289" lon="1.87624">
        <ele>155.4</ele>
        <time>2024-04-07T08:35:20Z</time>
      </trkpt>
      <trkpt lat="44.12891" lon="1.8763">
        <ele>155.2</ele>
        <time>2024-04-07T08:35:21Z</time>
      </trkpt>
      <trkpt lat="44.12894" lon="1.87637">
        <ele>154.8</ele>
        <time>2024-04-07T08:35:22Z</time>
      </trkpt>
      <trkpt lat="44.12899" lon="1.87643">
        <ele>154.2</ele>
        <time>2024-04-07T08:35:23Z</time>
      </trkpt>
      <trkpt lat="44.12901" lon="1.87653">
        <ele>153.8</ele>
        <time>2024-04-07T08:35:24Z</time>
      </trkpt>
      <trkpt lat="44.12901" lon="1.87663">
        <ele>152.6</ele>
        <time>2024-04-07T08:35:25Z</time>
      </trkpt>
      <trkpt lat="44.129" lon="1.87669">
        <ele>151.6</ele>
        <time>2024-04-07T08:35:26Z</time>
      </trkpt>
      <trkpt lat="44.12898" lon="1.87679">
        <ele>150.4</ele>
        <time>2024-04-07T08:35:27Z</time>
      </trkpt>
      <trkpt lat="44.12896" lon="1.87687">
        <ele>149.8</ele>
        <time>2024-04-07T08:35:28Z</time>
      </trkpt>
      <trkpt lat="44.12893" lon="1.87694">
        <ele>149.6</ele>
        <time>2024-04-07T08:35:29Z</time>
      </trkpt>
      <trkpt lat="44.12891" lon="1.87701">
        <ele>149.4</ele>
        <time>2024-04-07T08:35:30Z</time>
      </trkpt>
      <trkpt lat="44.12887" lon="1.87706">
        <ele>149.4</ele>
        <time>2024-04-07T08:35:31Z</time>
      </trkpt>
      <trkpt lat="44.12883" lon="1.87711">
        <ele>149.2</ele>
        <time>2024-04-07T08:35:32Z</time>
      </trkpt>
      <trkpt lat="44.1288" lon="1.87717">
        <ele>149.2</ele>
        <time>2024-04-07T08:35:33Z</time>
      </trkpt>
      <trkpt lat="44.12876" lon="1.87723">
        <ele>149</ele>
        <time>2024-04-07T08:35:34Z</time>
      </trkpt>
      <trkpt lat="44.12872" lon="1.87728">
        <ele>149</ele>
        <time>2024-04-07T08:35:35Z</time>
      </trkpt>
      <trkpt lat="44.12867" lon="1.87742">
        <ele>149</ele>
        <time>2024-04-07T08:35:37Z</time>
      </trkpt>
      <trkpt lat="44.12865" lon="1.8775">
        <ele>149</ele>
        <time>2024-04-07T08:35:38Z</time>
      </trkpt>
      <trkpt lat="44.1286" lon="1.87765">
        <ele>149</ele>
        <time>2024-04-07T08:35:40Z</time>
      </trkpt>
      <trkpt lat="44.12858" lon="1.87772">
        <ele>149</ele>
        <time>2024-04-07T08:35:41Z</time>
      </trkpt>
      <trkpt lat="44.12854" lon="1.87779">
        <ele>149</ele>
        <time>2024-04-07T08:35:42Z</time>
      </trkpt>
      <trkpt lat="44.12851" lon="1.87786">
        <ele>149</ele>
        <time>2024-04-07T08:35:43Z</time>
      </trkpt>
      <trkpt lat="44.12847" lon="1.87792">
        <ele>149</ele>
        <time>2024-04-07T08:35:44Z</time>
      </trkpt>
      <trkpt lat="44.12843" lon="1.87798">
        <ele>149</ele>
        <time>2024-04-07T08:35:45Z</time>
      </trkpt>
      <trkpt lat="44.12839" lon="1.87804">
        <ele>149.2</ele>
        <time>2024-04-07T08:35:46Z</time>
      </trkpt>
      <trkpt lat="44.12836" lon="1.8781">
        <ele>149.2</ele>
        <time>2024-04-07T08:35:47Z</time>
      </trkpt>
      <trkpt lat="44.12832" lon="1.87815">
        <ele>149.4</ele>
        <time>2024-04-07T08:35:48Z</time>
      </trkpt>
      <trkpt lat="44.12828" lon="1.8782">
        <ele>149.4</ele>
        <time>2024-04-07T08:35:49Z</time>
      </trkpt>
      <trkpt lat="44.12824" lon="1.87824">
        <ele>149.6</ele>
        <time>2024-04-07T08:35:50Z</time>
      </trkpt>
      <trkpt lat="44.1282" lon="1.87828">
        <ele>149.6</ele>
        <time>2024-04-07T08:35:51Z</time>
      </trkpt>
      <trkpt lat="44.12817" lon="1.87832">
        <ele>149.8</ele>
        <time>2024-04-07T08:35:52Z</time>
      </trkpt>
      <trkpt lat="44.12814" lon="1.87837">
        <ele>150</ele>
        <time>2024-04-07T08:35:53Z</time>
      </trkpt>
      <trkpt lat="44.12811" lon="1.87842">
        <ele>150</ele>
        <time>2024-04-07T08:35:54Z</time>
      </trkpt>
      <trkpt lat="44.12809" lon="1.87847">
        <ele>150.2</ele>
        <time>2024-04-07T08:35:55Z</time>
      </trkpt>
      <trkpt lat="44.12805" lon="1.87857">
        <ele>150.8</ele>
        <time>2024-04-07T08:35:57Z</time>
      </trkpt>
      <trkpt lat="44.12803" lon="1.87863">
        <ele>151</ele>
        <time>2024-04-07T08:35:58Z</time>
      </trkpt>
      <trkpt lat="44.12802" lon="1.87869">
        <ele>151.4</ele>
        <time>2024-04-07T08:35:59Z</time>
      </trkpt>
      <trkpt lat="44.12801" lon="1.87875">
        <ele>151.4</ele>
        <time>2024-04-07T08:36:00Z</time>
      </trkpt>
      <trkpt lat="44.12799" lon="1.8788">
        <ele>151.6</ele>
        <time>2024-04-07T08:36:01Z</time>
      </trkpt>
      <trkpt lat="44.12798" lon="1.87884">
        <ele>151.8</ele>
        <time>2024-04-07T08:36:02Z</time>
      </trkpt>
      <trkpt lat="44.12797" lon="1.87887">
        <ele>152</ele>
        <time>2024-04-07T08:36:03Z</time>
      </trkpt>
      <trkpt lat="44.12797" lon="1.87889">
        <ele>151.8</ele>
        <time>2024-04-07T08:36:04Z</time>
      </trkpt>
      <trkpt lat="44.12796" lon="1.87891">
        <ele>152</ele>
        <time>2024-04-07T08:36:05Z</time>
      </trkpt>
      <trkpt lat="44.12796" lon="1.87893">
        <ele>152.2</ele>
        <time>2024-04-07T08:36:06Z</time>
      </trkpt>
      <trkpt lat="44.12796" lon="1.87894">
        <ele>152.4</ele>
        <time>2024-04-07T08:36:07Z</time>
      </trkpt>
      <trkpt lat="44.12795" lon="1.87895">
        <ele>152.8</ele>
        <time>2024-04-07T08:36:08Z</time>
      </trkpt>
      <trkpt lat="44.12794" lon="1.87896">
        <ele>152.8</ele>
        <time>2024-04-07T08:36:09Z</time>
      </trkpt>
      <trkpt lat="44.12792" lon="1.87895">
        <ele>153</ele>
        <time>2024-04-07T08:36:10Z</time>
      </trkpt>
      <trkpt lat="44.1279" lon="1.87895">
        <ele>153.2</ele>
        <time>2024-04-07T08:36:11Z</time>
      </trkpt>
      <trkpt lat="44.12787" lon="1.87895">
        <ele>153.2</ele>
        <time>2024-04-07T08:36:12Z</time>
      </trkpt>
      <trkpt lat="44.12785" lon="1.87895">
        <ele>153.2</ele>
        <time>2024-04-07T08:36:13Z</time>
      </trkpt>
      <trkpt lat="44.12783" lon="1.87895">
        <ele>153.4</ele>
        <time>2024-04-07T08:36:14Z</time>
      </trkpt>
      <trkpt lat="44.12782" lon="1.87895">
        <ele>153.4</ele>
        <time>2024-04-07T08:36:15Z</time>
      </trkpt>
      <trkpt lat="44.12781" lon="1.87895">
        <ele>153.4</ele>
        <time>2024-04-07T08:36:16Z</time>
      </trkpt>
      <trkpt lat="44.12779" lon="1.87895">
        <ele>153.6</ele>
        <time>2024-04-07T08:36:17Z</time>
      </trkpt>
      <trkpt lat="44.12779" lon="1.87894">
        <ele>153.6</ele>
        <time>2024-04-07T08:36:18Z</time>
      </trkpt>
      <trkpt lat="44.12778" lon="1.87893">
        <ele>153.6</ele>
        <time>2024-04-07T08:36:19Z</time>
      </trkpt>
      <trkpt lat="44.12779" lon="1.87892">
        <ele>153.8</ele>
        <time>2024-04-07T08:36:20Z</time>
      </trkpt>
      <trkpt lat="44.1278" lon="1.87892">
        <ele>153.8</ele>
        <time>2024-04-07T08:36:21Z</time>
      </trkpt>
      <trkpt lat="44.12782" lon="1.87893">
        <ele>153.8</ele>
        <time>2024-04-07T08:36:22Z</time>
      </trkpt>
      <trkpt lat="44.12785" lon="1.87894">
        <ele>153.8</ele>
        <time>2024-04-07T08:36:23Z</time>
      </trkpt>
      <trkpt lat="44.12789" lon="1.87896">
        <ele>154</ele>
        <time>2024-04-07T08:36:24Z</time>
      </trkpt>
      <trkpt lat="44.12793" lon="1.87897">
        <ele>154</ele>
        <time>2024-04-07T08:36:25Z</time>
      </trkpt>
      <trkpt lat="44.12798" lon="1.87899">
        <ele>154</ele>
        <time>2024-04-07T08:36:26Z</time>
      </trkpt>
      <trkpt lat="44.12803" lon="1.87902">
        <ele>154</ele>
        <time>2024-04-07T08:36:27Z</time>
      </trkpt>
      <trkpt lat="44.12808" lon="1.87906">
        <ele>154</ele>
        <time>2024-04-07T08:36:28Z</time>
      </trkpt>
      <trkpt lat="44.12818" lon="1.87915">
        <ele>153.6</ele>
        <time>2024-04-07T08:36:30Z</time>
      </trkpt>
      <trkpt lat="44.12823" lon="1.8792">
        <ele>153.4</ele>
        <time>2024-04-07T08:36:31Z</time>
      </trkpt>
      <trkpt lat="44.12828" lon="1.87925">
        <ele>153.4</ele>
        <time>2024-04-07T08:36:32Z</time>
      </trkpt>
      <trkpt lat="44.12833" lon="1.8793">
        <ele>153</ele>
        <time>2024-04-07T08:36:33Z</time>
      </trkpt>
      <trkpt lat="44.12836" lon="1.87935">
        <ele>153</ele>
        <time>2024-04-07T08:36:34Z</time>
      </trkpt>
      <trkpt lat="44.12838" lon="1.87941">
        <ele>152.4</ele>
        <time>2024-04-07T08:36:35Z</time>
      </trkpt>
      <trkpt lat="44.12839" lon="1.87947">
        <ele>152.2</ele>
        <time>2024-04-07T08:36:36Z</time>
      </trkpt>
      <trkpt lat="44.12841" lon="1.87957">
        <ele>152</ele>
        <time>2024-04-07T08:36:37Z</time>
      </trkpt>
      <trkpt lat="44.12841" lon="1.87965">
        <ele>151.6</ele>
        <time>2024-04-07T08:36:38Z</time>
      </trkpt>
      <trkpt lat="44.1284" lon="1.87973">
        <ele>151.4</ele>
        <time>2024-04-07T08:36:39Z</time>
      </trkpt>
      <trkpt lat="44.12838" lon="1.8798">
        <ele>151.2</ele>
        <time>2024-04-07T08:36:40Z</time>
      </trkpt>
      <trkpt lat="44.12835" lon="1.87984">
        <ele>150.8</ele>
        <time>2024-04-07T08:36:41Z</time>
      </trkpt>
      <trkpt lat="44.12832" lon="1.87986">
        <ele>150.4</ele>
        <time>2024-04-07T08:36:42Z</time>
      </trkpt>
      <trkpt lat="44.1283" lon="1.87986">
        <ele>149.8</ele>
        <time>2024-04-07T08:36:43Z</time>
      </trkpt>
      <trkpt lat="44.12829" lon="1.87987">
        <ele>149.6</ele>
        <time>2024-04-07T08:36:44Z</time>
      </trkpt>
      <trkpt lat="44.12828" lon="1.87987">
        <ele>149.4</ele>
        <time>2024-04-07T08:36:45Z</time>
      </trkpt>
      <trkpt lat="44.12828" lon="1.87987">
        <ele>149.2</ele>
        <time>2024-04-07T08:36:46Z</time>
      </trkpt>
      <trkpt lat="44.12828" lon="1.87987">
        <ele>149.2</ele>
        <time>2024-04-07T08:36:47Z</time>
      </trkpt>
      <trkpt lat="44.12832" lon="1.87983">
        <ele>150.4</ele>
        <time>2024-04-07T08:46:55Z</time>
      </trkpt>
      <trkpt lat="44.12833" lon="1.87981">
        <ele>150.4</ele>
        <time>2024-04-07T08:46:56Z</time>
      </trkpt>
      <trkpt lat="44.12835" lon="1.8798">
        <ele>150.4</ele>
        <time>2024-04-07T08:46:57Z</time>
      </trkpt>
      <trkpt lat="44.12837" lon="1.87978">
        <ele>150.2</ele>
        <time>2024-04-07T08:46:58Z</time>
      </trkpt>
      <trkpt lat="44.12838" lon="1.87975">
        <ele>150.2</ele>
        <time>2024-04-07T08:46:59Z</time>
      </trkpt>
      <trkpt lat="44.1284" lon="1.8797">
        <ele>150</ele>
        <time>2024-04-07T08:47:01Z</time>
      </trkpt>
      <trkpt lat="44.12841" lon="1.87967">
        <ele>150</ele>
        <time>2024-04-07T08:47:02Z</time>
      </trkpt>
      <trkpt lat="44.12842" lon="1.87963">
        <ele>150</ele>
        <time>2024-04-07T08:47:03Z</time>
      </trkpt>
      <trkpt lat="44.12842" lon="1.87961">
        <ele>150</ele>
        <time>2024-04-07T08:47:04Z</time>
      </trkpt>
      <trkpt lat="44.12842" lon="1.87958">
        <ele>150</ele>
        <time>2024-04-07T08:47:05Z</time>
      </trkpt>
      <trkpt lat="44.12841" lon="1.87956">
        <ele>150</ele>
        <time>2024-04-07T08:47:06Z</time>
      </trkpt>
      <trkpt lat="44.1284" lon="1.87953">
        <ele>150</ele>
        <time>2024-04-07T08:47:07Z</time>
      </trkpt>
      <trkpt lat="44.1284" lon="1.8795">
        <ele>150</ele>
        <time>2024-04-07T08:47:08Z</time>
      </trkpt>
      <trkpt lat="44.1284" lon="1.87948">
        <ele>150.2</ele>
        <time>2024-04-07T08:47:09Z</time>
      </trkpt>
      <trkpt lat="44.12841" lon="1.87946">
        <ele>150.2</ele>
        <time>2024-04-07T08:47:10Z</time>
      </trkpt>
      <trkpt lat="44.12842" lon="1.87944">
        <ele>150.2</ele>
        <time>2024-04-07T08:47:11Z</time>
      </trkpt>
      <trkpt lat="44.12844" lon="1.87943">
        <ele>150.2</ele>
        <time>2024-04-07T08:47:12Z</time>
      </trkpt>
      <trkpt lat="44.12846" lon="1.87944">
        <ele>150.4</ele>
        <time>2024-04-07T08:47:13Z</time>
      </trkpt>
      <trkpt lat="44.12848" lon="1.87946">
        <ele>150.6</ele>
        <time>2024-04-07T08:47:14Z</time>
      </trkpt>
      <trkpt lat="44.12851" lon="1.87948">
        <ele>150.8</ele>
        <time>2024-04-07T08:47:15Z</time>
      </trkpt>
      <trkpt lat="44.12853" lon="1.87951">
        <ele>150.8</ele>
        <time>2024-04-07T08:47:16Z</time>
      </trkpt>
      <trkpt lat="44.12856" lon="1.87954">
        <ele>151</ele>
        <time>2024-04-07T08:47:17Z</time>
      </trkpt>
      <trkpt lat="44.12858" lon="1.87957">
        <ele>151.2</ele>
        <time>2024-04-07T08:47:18Z</time>
      </trkpt>
      <trkpt lat="44.12861" lon="1.8796">
        <ele>151.2</ele>
        <time>2024-04-07T08:47:19Z</time>
      </trkpt>
      <trkpt lat="44.12864" lon="1.87963">
        <ele>151.2</ele>
        <time>2024-04-07T08:47:20Z</time>
      </trkpt>
      <trkpt lat="44.12867" lon="1.87967">
        <ele>151.2</ele>
        <time>2024-04-07T08:47:21Z</time>
      </trkpt>
      <trkpt lat="44.1287" lon="1.8797">
        <ele>151.2</ele>
        <time>2024-04-07T08:47:22Z</time>
      </trkpt>
      <trkpt lat="44.12873" lon="1.87973">
        <ele>151.4</ele>
        <time>2024-04-07T08:47:23Z</time>
      </trkpt>
      <trkpt lat="44.12877" lon="1.87977">
        <ele>151.4</ele>
        <time>2024-04-07T08:47:24Z</time>
      </trkpt>
      <trkpt lat="44.1288" lon="1.8798">
        <ele>151.6</ele>
        <time>2024-04-07T08:47:25Z</time>
      </trkpt>
      <trkpt lat="44.12883" lon="1.87984">
        <ele>151.6</ele>
        <time>2024-04-07T08:47:26Z</time>
      </trkpt>
      <trkpt lat="44.12886" lon="1.87987">
        <ele>151.6</ele>
        <time>2024-04-07T08:47:27Z</time>
      </trkpt>
      <trkpt lat="44.1289" lon="1.8799">
        <ele>151.4</ele>
        <time>2024-04-07T08:47:28Z</time>
      </trkpt>
      <trkpt lat="44.12893" lon="1.87994">
        <ele>151.4</ele>
        <time>2024-04-07T08:47:29Z</time>
      </trkpt>
      <trkpt lat="44.12897" lon="1.87997">
        <ele>151.4</ele>
        <time>2024-04-07T08:47:30Z</time>
      </trkpt>
      <trkpt lat="44.129" lon="1.88001">
        <ele>151.4</ele>
        <time>2024-04-07T08:47:31Z</time>
      </trkpt>
      <trkpt lat="44.12907" lon="1.88009">
        <ele>151.4</ele>
        <time>2024-04-07T08:47:33Z</time>
      </trkpt>
      <trkpt lat="44.12909" lon="1.88013">
        <ele>151.6</ele>
        <time>2024-04-07T08:47:34Z</time>
      </trkpt>
      <trkpt lat="44.12909" lon="1.88019">
        <ele>151.2</ele>
        <time>2024-04-07T08:47:35Z</time>
      </trkpt>
      <trkpt lat="44.12907" lon="1.88025">
        <ele>151.2</ele>
        <time>2024-04-07T08:47:36Z</time>
      </trkpt>
      <trkpt lat="44.12904" lon="1.88031">
        <ele>151.2</ele>
        <time>2024-04-07T08:47:37Z</time>
      </trkpt>
      <trkpt lat="44.12901" lon="1.88037">
        <ele>151.2</ele>
        <time>2024-04-07T08:47:38Z</time>
      </trkpt>
      <trkpt lat="44.12894" lon="1.88049">
        <ele>151</ele>
        <time>2024-04-07T08:47:40Z</time>
      </trkpt>
      <trkpt lat="44.1289" lon="1.88054">
        <ele>151</ele>
        <time>2024-04-07T08:47:41Z</time>
      </trkpt>
      <trkpt lat="44.12888" lon="1.88059">
        <ele>150.8</ele>
        <time>2024-04-07T08:47:42Z</time>
      </trkpt>
      <trkpt lat="44.12887" lon="1.88063">
        <ele>150.4</ele>
        <time>2024-04-07T08:47:43Z</time>
      </trkpt>
      <trkpt lat="44.12888" lon="1.88067">
        <ele>150.4</ele>
        <time>2024-04-07T08:47:44Z</time>
      </trkpt>
      <trkpt lat="44.12889" lon="1.8807">
        <ele>150</ele>
        <time>2024-04-07T08:47:45Z</time>
      </trkpt>
      <trkpt lat="44.12891" lon="1.88072">
        <ele>150</ele>
        <time>2024-04-07T08:47:46Z</time>
      </trkpt>
      <trkpt lat="44.12894" lon="1.88075">
        <ele>149.8</ele>
        <time>2024-04-07T08:47:47Z</time>
      </trkpt>
      <trkpt lat="44.12896" lon="1.88076">
        <ele>149.8</ele>
        <time>2024-04-07T08:47:48Z</time>
      </trkpt>
      <trkpt lat="44.12899" lon="1.88079">
        <ele>149.6</ele>
        <time>2024-04-07T08:47:49Z</time>
      </trkpt>
      <trkpt lat="44.12903" lon="1.8808">
        <ele>149.6</ele>
        <time>2024-04-07T08:47:50Z</time>
      </trkpt>
      <trkpt lat="44.12905" lon="1.8808">
        <ele>149.6</ele>
        <time>2024-04-07T08:47:51Z</time>
      </trkpt>
      <trkpt lat="44.12906" lon="1.8808">
        <ele>149.6</ele>
        <time>2024-04-07T08:47:52Z</time>
      </trkpt>
      <trkpt lat="44.12908" lon="1.88078">
        <ele>149.6</ele>
        <time>2024-04-07T08:47:53Z</time>
      </trkpt>
      <trkpt lat="44.1291" lon="1.88075">
        <ele>149.6</ele>
        <time>2024-04-07T08:47:54Z</time>
      </trkpt>
      <trkpt lat="44.12911" lon="1.8807">
        <ele>149.6</ele>
        <time>2024-04-07T08:47:55Z</time>
      </trkpt>
      <trkpt lat="44.12914" lon="1.88066">
        <ele>149.6</ele>
        <time>2024-04-07T08:47:56Z</time>
      </trkpt>
      <trkpt lat="44.12916" lon="1.88061">
        <ele>149.6</ele>
        <time>2024-04-07T08:47:57Z</time>
      </trkpt>
      <trkpt lat="44.12918" lon="1.88056">
        <ele>149.6</ele>
        <time>2024-04-07T08:47:58Z</time>
      </trkpt>
      <trkpt lat="44.12921" lon="1.88051">
        <ele>149.8</ele>
        <time>2024-04-07T08:47:59Z</time>
      </trkpt>
      <trkpt lat="44.12924" lon="1.88046">
        <ele>149.8</ele>
        <time>2024-04-07T08:48:00Z</time>
      </trkpt>
      <trkpt lat="44.12927" lon="1.88041">
        <ele>149.8</ele>
        <time>2024-04-07T08:48:01Z</time>
      </trkpt>
      <trkpt lat="44.12931" lon="1.88036">
        <ele>150</ele>
        <time>2024-04-07T08:48:02Z</time>
      </trkpt>
      <trkpt lat="44.12935" lon="1.88032">
        <ele>150</ele>
        <time>2024-04-07T08:48:03Z</time>
      </trkpt>
      <trkpt lat="44.12939" lon="1.88028">
        <ele>150</ele>
        <time>2024-04-07T08:48:04Z</time>
      </trkpt>
      <trkpt lat="44.12943" lon="1.88024">
        <ele>150</ele>
        <time>2024-04-07T08:48:05Z</time>
      </trkpt>
      <trkpt lat="44.12947" lon="1.8802">
        <ele>150.4</ele>
        <time>2024-04-07T08:48:06Z</time>
      </trkpt>
      <trkpt lat="44.1295" lon="1.88017">
        <ele>150.4</ele>
        <time>2024-04-07T08:48:07Z</time>
      </trkpt>
      <trkpt lat="44.12954" lon="1.88013">
        <ele>150.6</ele>
        <time>2024-04-07T08:48:08Z</time>
      </trkpt>
      <trkpt lat="44.12958" lon="1.8801">
        <ele>150.8</ele>
        <time>2024-04-07T08:48:09Z</time>
      </trkpt>
      <trkpt lat="44.12962" lon="1.88006">
        <ele>151</ele>
        <time>2024-04-07T08:48:10Z</time>
      </trkpt>
      <trkpt lat="44.12965" lon="1.88003">
        <ele>151.2</ele>
        <time>2024-04-07T08:48:11Z</time>
      </trkpt>
      <trkpt lat="44.12969" lon="1.87999">
        <ele>151.4</ele>
        <time>2024-04-07T08:48:12Z</time>
      </trkpt>
      <trkpt lat="44.12973" lon="1.87996">
        <ele>151.8</ele>
        <time>2024-04-07T08:48:13Z</time>
      </trkpt>
      <trkpt lat="44.12976" lon="1.87994">
        <ele>151.8</ele>
        <time>2024-04-07T08:48:14Z</time>
      </trkpt>
      <trkpt lat="44.12981" lon="1.87992">
        <ele>152.2</ele>
        <time>2024-04-07T08:48:15Z</time>
      </trkpt>
      <trkpt lat="44.12984" lon="1.87992">
        <ele>152.4</ele>
        <time>2024-04-07T08:48:16Z</time>
      </trkpt>
      <trkpt lat="44.12988" lon="1.87992">
        <ele>152.8</ele>
        <time>2024-04-07T08:48:17Z</time>
      </trkpt>
      <trkpt lat="44.1299" lon="1.87993">
        <ele>152.8</ele>
        <time>2024-04-07T08:48:18Z</time>
      </trkpt>
      <trkpt lat="44.12994" lon="1.87995">
        <ele>153.2</ele>
        <time>2024-04-07T08:48:19Z</time>
      </trkpt>
      <trkpt lat="44.12997" lon="1.87997">
        <ele>153.6</ele>
        <time>2024-04-07T08:48:20Z</time>
      </trkpt>
      <trkpt lat="44.13" lon="1.88">
        <ele>153.8</ele>
        <time>2024-04-07T08:48:21Z</time>
      </trkpt>
      <trkpt lat="44.13003" lon="1.88003">
        <ele>154</ele>
        <time>2024-04-07T08:48:22Z</time>
      </trkpt>
      <trkpt lat="44.13005" lon="1.88006">
        <ele>154.2</ele>
        <time>2024-04-07T08:48:23Z</time>
      </trkpt>
      <trkpt lat="44.13008" lon="1.8801">
        <ele>155</ele>
        <time>2024-04-07T08:48:24Z</time>
      </trkpt>
      <trkpt lat="44.1301" lon="1.88013">
        <ele>155.4</ele>
        <time>2024-04-07T08:48:25Z</time>
      </trkpt>
      <trkpt lat="44.13012" lon="1.88017">
        <ele>155.8</ele>
        <time>2024-04-07T08:48:26Z</time>
      </trkpt>
      <trkpt lat="44.13014" lon="1.88021">
        <ele>156.2</ele>
        <time>2024-04-07T08:48:27Z</time>
      </trkpt>
      <trkpt lat="44.13015" lon="1.88025">
        <ele>156.6</ele>
        <time>2024-04-07T08:48:28Z</time>
      </trkpt>
      <trkpt lat="44.13015" lon="1.8803">
        <ele>157.4</ele>
        <time>2024-04-07T08:48:29Z</time>
      </trkpt>
      <trkpt lat="44.13015" lon="1.88034">
        <ele>157.6</ele>
        <time>2024-04-07T08:48:30Z</time>
      </trkpt>
      <trkpt lat="44.13014" lon="1.88039">
        <ele>158.4</ele>
        <time>2024-04-07T08:48:31Z</time>
      </trkpt>
      <trkpt lat="44.13012" lon="1.88044">
        <ele>158.6</ele>
        <time>2024-04-07T08:48:32Z</time>
      </trkpt>
      <trkpt lat="44.13011" lon="1.88047">
        <ele>159.2</ele>
        <time>2024-04-07T08:48:33Z</time>
      </trkpt>
      <trkpt lat="44.13009" lon="1.88051">
        <ele>159.4</ele>
        <time>2024-04-07T08:48:34Z</time>
      </trkpt>
      <trkpt lat="44.13007" lon="1.88055">
        <ele>159.8</ele>
        <time>2024-04-07T08:48:35Z</time>
      </trkpt>
      <trkpt lat="44.13006" lon="1.88059">
        <ele>160.8</ele>
        <time>2024-04-07T08:48:36Z</time>
      </trkpt>
      <trkpt lat="44.13004" lon="1.88063">
        <ele>161</ele>
        <time>2024-04-07T08:48:37Z</time>
      </trkpt>
      <trkpt lat="44.13002" lon="1.88067">
        <ele>161.4</ele>
        <time>2024-04-07T08:48:38Z</time>
      </trkpt>
      <trkpt lat="44.13" lon="1.88071">
        <ele>161.8</ele>
        <time>2024-04-07T08:48:39Z</time>
      </trkpt>
      <trkpt lat="44.12998" lon="1.88075">
        <ele>162.4</ele>
        <time>2024-04-07T08:48:40Z</time>
      </trkpt>
      <trkpt lat="44.12996" lon="1.88079">
        <ele>162.6</ele>
        <time>2024-04-07T08:48:41Z</time>
      </trkpt>
      <trkpt lat="44.12995" lon="1.88082">
        <ele>163.2</ele>
        <time>2024-04-07T08:48:42Z</time>
      </trkpt>
      <trkpt lat="44.12993" lon="1.88085">
        <ele>163.4</ele>
        <time>2024-04-07T08:48:43Z</time>
      </trkpt>
      <trkpt lat="44.12991" lon="1.88089">
        <ele>164</ele>
        <time>2024-04-07T08:48:44Z</time>
      </trkpt>
      <trkpt lat="44.12988" lon="1.88092">
        <ele>164.8</ele>
        <time>2024-04-07T08:48:45Z</time>
      </trkpt>
      <trkpt lat="44.12986" lon="1.88095">
        <ele>165.2</ele>
        <time>2024-04-07T08:48:46Z</time>
      </trkpt>
      <trkpt lat="44.12984" lon="1.88097">
        <ele>166</ele>
        <time>2024-04-07T08:48:47Z</time>
      </trkpt>
      <trkpt lat="44.12983" lon="1.881">
        <ele>166.2</ele>
        <time>2024-04-07T08:48:48Z</time>
      </trkpt>
      <trkpt lat="44.12981" lon="1.88102">
        <ele>167</ele>
        <time>2024-04-07T08:48:49Z</time>
      </trkpt>
      <trkpt lat="44.12979" lon="1.88104">
        <ele>167.2</ele>
        <time>2024-04-07T08:48:50Z</time>
      </trkpt>
      <trkpt lat="44.12977" lon="1.88106">
        <ele>167.6</ele>
        <time>2024-04-07T08:48:51Z</time>
      </trkpt>
      <trkpt lat="44.12975" lon="1.88109">
        <ele>168.2</ele>
        <time>2024-04-07T08:48:52Z</time>
      </trkpt>
      <trkpt lat="44.12973" lon="1.88112">
        <ele>168.4</ele>
        <time>2024-04-07T08:48:53Z</time>
      </trkpt>
      <trkpt lat="44.1297" lon="1.88115">
        <ele>169</ele>
        <time>2024-04-07T08:48:54Z</time>
      </trkpt>
      <trkpt lat="44.12968" lon="1.88118">
        <ele>169.2</ele>
        <time>2024-04-07T08:48:55Z</time>
      </trkpt>
      <trkpt lat="44.12966" lon="1.88121">
        <ele>170</ele>
        <time>2024-04-07T08:48:56Z</time>
      </trkpt>
      <trkpt lat="44.12963" lon="1.88124">
        <ele>170.4</ele>
        <time>2024-04-07T08:48:57Z</time>
      </trkpt>
      <trkpt lat="44.12961" lon="1.88128">
        <ele>171</ele>
        <time>2024-04-07T08:48:58Z</time>
      </trkpt>
      <trkpt lat="44.12959" lon="1.88131">
        <ele>171.2</ele>
        <time>2024-04-07T08:48:59Z</time>
      </trkpt>
      <trkpt lat="44.12957" lon="1.88134">
        <ele>171.8</ele>
        <time>2024-04-07T08:49:00Z</time>
      </trkpt>
      <trkpt lat="44.12955" lon="1.88137">
        <ele>172.6</ele>
        <time>2024-04-07T08:49:01Z</time>
      </trkpt>
      <trkpt lat="44.12953" lon="1.88141">
        <ele>172.8</ele>
        <time>2024-04-07T08:49:02Z</time>
      </trkpt>
      <trkpt lat="44.12951" lon="1.88144">
        <ele>173.4</ele>
        <time>2024-04-07T08:49:03Z</time>
      </trkpt>
      <trkpt lat="44.1295" lon="1.88148">
        <ele>173.6</ele>
        <time>2024-04-07T08:49:04Z</time>
      </trkpt>
      <trkpt lat="44.12948" lon="1.88152">
        <ele>174.2</ele>
        <time>2024-04-07T08:49:05Z</time>
      </trkpt>
      <trkpt lat="44.12947" lon="1.88156">
        <ele>174.6</ele>
        <time>2024-04-07T08:49:06Z</time>
      </trkpt>
      <trkpt lat="44.12946" lon="1.88161">
        <ele>175.2</ele>
        <time>2024-04-07T08:49:07Z</time>
      </trkpt>
      <trkpt lat="44.12947" lon="1.88165">
        <ele>175.8</ele>
        <time>2024-04-07T08:49:08Z</time>
      </trkpt>
      <trkpt lat="44.12948" lon="1.8817">
        <ele>176</ele>
        <time>2024-04-07T08:49:09Z</time>
      </trkpt>
      <trkpt lat="44.12949" lon="1.88173">
        <ele>176.6</ele>
        <time>2024-04-07T08:49:10Z</time>
      </trkpt>
      <trkpt lat="44.12952" lon="1.88176">
        <ele>176.8</ele>
        <time>2024-04-07T08:49:11Z</time>
      </trkpt>
      <trkpt lat="44.12955" lon="1.88178">
        <ele>177.2</ele>
        <time>2024-04-07T08:49:12Z</time>
      </trkpt>
      <trkpt lat="44.12958" lon="1.88181">
        <ele>177.2</ele>
        <time>2024-04-07T08:49:13Z</time>
      </trkpt>
      <trkpt lat="44.12961" lon="1.88183">
        <ele>177.6</ele>
        <time>2024-04-07T08:49:14Z</time>
      </trkpt>
      <trkpt lat="44.12964" lon="1.88186">
        <ele>178</ele>
        <time>2024-04-07T08:49:15Z</time>
      </trkpt>
      <trkpt lat="44.12967" lon="1.88189">
        <ele>178.6</ele>
        <time>2024-04-07T08:49:16Z</time>
      </trkpt>
      <trkpt lat="44.1297" lon="1.88192">
        <ele>179.2</ele>
        <time>2024-04-07T08:49:17Z</time>
      </trkpt>
      <trkpt lat="44.12972" lon="1.88196">
        <ele>179.6</ele>
        <time>2024-04-07T08:49:18Z</time>
      </trkpt>
      <trkpt lat="44.12974" lon="1.882">
        <ele>180</ele>
        <time>2024-04-07T08:49:19Z</time>
      </trkpt>
      <trkpt lat="44.12976" lon="1.88204">
        <ele>180.2</ele>
        <time>2024-04-07T08:49:20Z</time>
      </trkpt>
      <trkpt lat="44.12977" lon="1.88208">
        <ele>180.6</ele>
        <time>2024-04-07T08:49:21Z</time>
      </trkpt>
      <trkpt lat="44.12978" lon="1.88213">
        <ele>180.8</ele>
        <time>2024-04-07T08:49:22Z</time>
      </trkpt>
      <trkpt lat="44.1298" lon="1.88218">
        <ele>181.2</ele>
        <time>2024-04-07T08:49:23Z</time>
      </trkpt>
      <trkpt lat="44.12982" lon="1.88222">
        <ele>181.6</ele>
        <time>2024-04-07T08:49:24Z</time>
      </trkpt>
      <trkpt lat="44.12983" lon="1.88227">
        <ele>181.8</ele>
        <time>2024-04-07T08:49:25Z</time>
      </trkpt>
      <trkpt lat="44.12984" lon="1.88232">
        <ele>182.2</ele>
        <time>2024-04-07T08:49:26Z</time>
      </trkpt>
      <trkpt lat="44.12985" lon="1.88237">
        <ele>182.2</ele>
        <time>2024-04-07T08:49:27Z</time>
      </trkpt>
      <trkpt lat="44.12986" lon="1.88243">
        <ele>182.4</ele>
        <time>2024-04-07T08:49:28Z</time>
      </trkpt>
      <trkpt lat="44.12987" lon="1.88248">
        <ele>182.4</ele>
        <time>2024-04-07T08:49:29Z</time>
      </trkpt>
      <trkpt lat="44.12989" lon="1.88252">
        <ele>182.8</ele>
        <time>2024-04-07T08:49:30Z</time>
      </trkpt>
      <trkpt lat="44.1299" lon="1.88257">
        <ele>183.2</ele>
        <time>2024-04-07T08:49:31Z</time>
      </trkpt>
      <trkpt lat="44.12991" lon="1.88263">
        <ele>183.4</ele>
        <time>2024-04-07T08:49:32Z</time>
      </trkpt>
      <trkpt lat="44.12992" lon="1.88268">
        <ele>183.6</ele>
        <time>2024-04-07T08:49:33Z</time>
      </trkpt>
      <trkpt lat="44.12993" lon="1.88273">
        <ele>183.8</ele>
        <time>2024-04-07T08:49:34Z</time>
      </trkpt>
      <trkpt lat="44.12994" lon="1.88278">
        <ele>184</ele>
        <time>2024-04-07T08:49:35Z</time>
      </trkpt>
      <trkpt lat="44.12996" lon="1.88282">
        <ele>184</ele>
        <time>2024-04-07T08:49:36Z</time>
      </trkpt>
      <trkpt lat="44.12997" lon="1.88287">
        <ele>184.4</ele>
        <time>2024-04-07T08:49:37Z</time>
      </trkpt>
      <trkpt lat="44.12999" lon="1.88292">
        <ele>184.4</ele>
        <time>2024-04-07T08:49:38Z</time>
      </trkpt>
      <trkpt lat="44.13" lon="1.88297">
        <ele>184.4</ele>
        <time>2024-04-07T08:49:39Z</time>
      </trkpt>
      <trkpt lat="44.13002" lon="1.88301">
        <ele>184.6</ele>
        <time>2024-04-07T08:49:40Z</time>
      </trkpt>
      <trkpt lat="44.13003" lon="1.88306">
        <ele>184.8</ele>
        <time>2024-04-07T08:49:41Z</time>
      </trkpt>
      <trkpt lat="44.13004" lon="1.88311">
        <ele>185.4</ele>
        <time>2024-04-07T08:49:42Z</time>
      </trkpt>
      <trkpt lat="44.13006" lon="1.88316">
        <ele>185.4</ele>
        <time>2024-04-07T08:49:43Z</time>
      </trkpt>
      <trkpt lat="44.13007" lon="1.88321">
        <ele>185.8</ele>
        <time>2024-04-07T08:49:44Z</time>
      </trkpt>
      <trkpt lat="44.13009" lon="1.88325">
        <ele>185.8</ele>
        <time>2024-04-07T08:49:45Z</time>
      </trkpt>
      <trkpt lat="44.13011" lon="1.8833">
        <ele>186</ele>
        <time>2024-04-07T08:49:46Z</time>
      </trkpt>
      <trkpt lat="44.13012" lon="1.88335">
        <ele>186.4</ele>
        <time>2024-04-07T08:49:47Z</time>
      </trkpt>
      <trkpt lat="44.13014" lon="1.8834">
        <ele>186.4</ele>
        <time>2024-04-07T08:49:48Z</time>
      </trkpt>
      <trkpt lat="44.13015" lon="1.88344">
        <ele>186.6</ele>
        <time>2024-04-07T08:49:49Z</time>
      </trkpt>
      <trkpt lat="44.13017" lon="1.88349">
        <ele>186.6</ele>
        <time>2024-04-07T08:49:50Z</time>
      </trkpt>
      <trkpt lat="44.13019" lon="1.88354">
        <ele>186.8</ele>
        <time>2024-04-07T08:49:51Z</time>
      </trkpt>
      <trkpt lat="44.13021" lon="1.88358">
        <ele>186.8</ele>
        <time>2024-04-07T08:49:52Z</time>
      </trkpt>
      <trkpt lat="44.13023" lon="1.88363">
        <ele>187</ele>
        <time>2024-04-07T08:49:53Z</time>
      </trkpt>
      <trkpt lat="44.13025" lon="1.88367">
        <ele>187.2</ele>
        <time>2024-04-07T08:49:54Z</time>
      </trkpt>
      <trkpt lat="44.13027" lon="1.88371">
        <ele>187.6</ele>
        <time>2024-04-07T08:49:55Z</time>
      </trkpt>
      <trkpt lat="44.13029" lon="1.88376">
        <ele>187.8</ele>
        <time>2024-04-07T08:49:56Z</time>
      </trkpt>
      <trkpt lat="44.1303" lon="1.88381">
        <ele>188</ele>
        <time>2024-04-07T08:49:57Z</time>
      </trkpt>
      <trkpt lat="44.13032" lon="1.88385">
        <ele>188</ele>
        <time>2024-04-07T08:49:58Z</time>
      </trkpt>
      <trkpt lat="44.13034" lon="1.8839">
        <ele>188.2</ele>
        <time>2024-04-07T08:49:59Z</time>
      </trkpt>
      <trkpt lat="44.13035" lon="1.88395">
        <ele>188.4</ele>
        <time>2024-04-07T08:50:00Z</time>
      </trkpt>
      <trkpt lat="44.13036" lon="1.884">
        <ele>188.6</ele>
        <time>2024-04-07T08:50:01Z</time>
      </trkpt>
      <trkpt lat="44.13037" lon="1.88405">
        <ele>188.8</ele>
        <time>2024-04-07T08:50:02Z</time>
      </trkpt>
      <trkpt lat="44.13038" lon="1.8841">
        <ele>189</ele>
        <time>2024-04-07T08:50:03Z</time>
      </trkpt>
      <trkpt lat="44.13037" lon="1.88415">
        <ele>189</ele>
        <time>2024-04-07T08:50:04Z</time>
      </trkpt>
      <trkpt lat="44.13036" lon="1.8842">
        <ele>189.2</ele>
        <time>2024-04-07T08:50:05Z</time>
      </trkpt>
      <trkpt lat="44.13035" lon="1.88425">
        <ele>189.2</ele>
        <time>2024-04-07T08:50:06Z</time>
      </trkpt>
      <trkpt lat="44.13033" lon="1.8843">
        <ele>189.2</ele>
        <time>2024-04-07T08:50:07Z</time>
      </trkpt>
      <trkpt lat="44.13031" lon="1.88435">
        <ele>189.4</ele>
        <time>2024-04-07T08:50:08Z</time>
      </trkpt>
      <trkpt lat="44.1303" lon="1.8844">
        <ele>189.4</ele>
        <time>2024-04-07T08:50:09Z</time>
      </trkpt>
      <trkpt lat="44.13029" lon="1.88446">
        <ele>189.4</ele>
        <time>2024-04-07T08:50:10Z</time>
      </trkpt>
      <trkpt lat="44.13029" lon="1.88452">
        <ele>189.4</ele>
        <time>2024-04-07T08:50:11Z</time>
      </trkpt>
      <trkpt lat="44.1303" lon="1.88457">
        <ele>189.6</ele>
        <time>2024-04-07T08:50:12Z</time>
      </trkpt>
      <trkpt lat="44.13032" lon="1.88462">
        <ele>189.8</ele>
        <time>2024-04-07T08:50:13Z</time>
      </trkpt>
      <trkpt lat="44.13034" lon="1.88466">
        <ele>190.2</ele>
        <time>2024-04-07T08:50:14Z</time>
      </trkpt>
      <trkpt lat="44.13036" lon="1.8847">
        <ele>190</ele>
        <time>2024-04-07T08:50:15Z</time>
      </trkpt>
      <trkpt lat="44.13039" lon="1.88474">
        <ele>190.4</ele>
        <time>2024-04-07T08:50:16Z</time>
      </trkpt>
      <trkpt lat="44.13041" lon="1.88477">
        <ele>190.6</ele>
        <time>2024-04-07T08:50:17Z</time>
      </trkpt>
      <trkpt lat="44.13043" lon="1.88481">
        <ele>190.8</ele>
        <time>2024-04-07T08:50:18Z</time>
      </trkpt>
      <trkpt lat="44.13046" lon="1.88485">
        <ele>191.2</ele>
        <time>2024-04-07T08:50:19Z</time>
      </trkpt>
      <trkpt lat="44.13048" lon="1.88489">
        <ele>191.4</ele>
        <time>2024-04-07T08:50:20Z</time>
      </trkpt>
      <trkpt lat="44.1305" lon="1.88493">
        <ele>191.8</ele>
        <time>2024-04-07T08:50:21Z</time>
      </trkpt>
      <trkpt lat="44.13052" lon="1.88497">
        <ele>191.8</ele>
        <time>2024-04-07T08:50:22Z</time>
      </trkpt>
      <trkpt lat="44.13054" lon="1.88501">
        <ele>192.2</ele>
        <time>2024-04-07T08:50:23Z</time>
      </trkpt>
      <trkpt lat="44.13056" lon="1.88505">
        <ele>192.4</ele>
        <time>2024-04-07T08:50:24Z</time>
      </trkpt>
      <trkpt lat="44.13058" lon="1.88509">
        <ele>192.8</ele>
        <time>2024-04-07T08:50:25Z</time>
      </trkpt>
      <trkpt lat="44.13059" lon="1.88513">
        <ele>193</ele>
        <time>2024-04-07T08:50:26Z</time>
      </trkpt>
      <trkpt lat="44.13061" lon="1.88518">
        <ele>193.4</ele>
        <time>2024-04-07T08:50:27Z</time>
      </trkpt>
      <trkpt lat="44.13062" lon="1.88523">
        <ele>193.8</ele>
        <time>2024-04-07T08:50:28Z</time>
      </trkpt>
      <trkpt lat="44.13063" lon="1.88527">
        <ele>194</ele>
        <time>2024-04-07T08:50:29Z</time>
      </trkpt>
      <trkpt lat="44.13064" lon="1.88532">
        <ele>194.2</ele>
        <time>2024-04-07T08:50:30Z</time>
      </trkpt>
      <trkpt lat="44.13065" lon="1.88537">
        <ele>194.4</ele>
        <time>2024-04-07T08:50:31Z</time>
      </trkpt>
      <trkpt lat="44.13066" lon="1.88542">
        <ele>194.6</ele>
        <time>2024-04-07T08:50:32Z</time>
      </trkpt>
      <trkpt lat="44.13067" lon="1.88547">
        <ele>194.8</ele>
        <time>2024-04-07T08:50:33Z</time>
      </trkpt>
      <trkpt lat="44.13067" lon="1.88552">
        <ele>195</ele>
        <time>2024-04-07T08:50:34Z</time>
      </trkpt>
      <trkpt lat="44.13069" lon="1.88556">
        <ele>195.4</ele>
        <time>2024-04-07T08:50:35Z</time>
      </trkpt>
      <trkpt lat="44.13069" lon="1.88561">
        <ele>195.6</ele>
        <time>2024-04-07T08:50:36Z</time>
      </trkpt>
      <trkpt lat="44.1307" lon="1.88566">
        <ele>196</ele>
        <time>2024-04-07T08:50:37Z</time>
      </trkpt>
      <trkpt lat="44.13071" lon="1.88572">
        <ele>196.2</ele>
        <time>2024-04-07T08:50:38Z</time>
      </trkpt>
      <trkpt lat="44.13071" lon="1.88576">
        <ele>196.6</ele>
        <time>2024-04-07T08:50:39Z</time>
      </trkpt>
      <trkpt lat="44.13072" lon="1.88581">
        <ele>196.6</ele>
        <time>2024-04-07T08:50:40Z</time>
      </trkpt>
      <trkpt lat="44.13073" lon="1.88586">
        <ele>197</ele>
        <time>2024-04-07T08:50:41Z</time>
      </trkpt>
      <trkpt lat="44.13074" lon="1.88591">
        <ele>197.2</ele>
        <time>2024-04-07T08:50:42Z</time>
      </trkpt>
      <trkpt lat="44.13075" lon="1.88596">
        <ele>197.6</ele>
        <time>2024-04-07T08:50:43Z</time>
      </trkpt>
      <trkpt lat="44.13077" lon="1.88602">
        <ele>198</ele>
        <time>2024-04-07T08:50:44Z</time>
      </trkpt>
      <trkpt lat="44.13078" lon="1.88607">
        <ele>198.2</ele>
        <time>2024-04-07T08:50:45Z</time>
      </trkpt>
      <trkpt lat="44.13079" lon="1.88612">
        <ele>198.4</ele>
        <time>2024-04-07T08:50:46Z</time>
      </trkpt>
      <trkpt lat="44.13081" lon="1.88617">
        <ele>198.6</ele>
        <time>2024-04-07T08:50:47Z</time>
      </trkpt>
      <trkpt lat="44.13082" lon="1.88622">
        <ele>198.8</ele>
        <time>2024-04-07T08:50:48Z</time>
      </trkpt>
      <trkpt lat="44.13084" lon="1.88627">
        <ele>199</ele>
        <time>2024-04-07T08:50:49Z</time>
      </trkpt>
      <trkpt lat="44.13085" lon="1.88632">
        <ele>199.2</ele>
        <time>2024-04-07T08:50:50Z</time>
      </trkpt>
      <trkpt lat="44.13087" lon="1.88637">
        <ele>199.8</ele>
        <time>2024-04-07T08:50:51Z</time>
      </trkpt>
      <trkpt lat="44.13089" lon="1.88642">
        <ele>199.8</ele>
        <time>2024-04-07T08:50:52Z</time>
      </trkpt>
      <trkpt lat="44.1309" lon="1.88647">
        <ele>200.2</ele>
        <time>2024-04-07T08:50:53Z</time>
      </trkpt>
      <trkpt lat="44.13092" lon="1.88651">
        <ele>200.4</ele>
        <time>2024-04-07T08:50:54Z</time>
      </trkpt>
      <trkpt lat="44.13094" lon="1.88656">
        <ele>200.6</ele>
        <time>2024-04-07T08:50:55Z</time>
      </trkpt>
      <trkpt lat="44.13095" lon="1.88661">
        <ele>200.8</ele>
        <time>2024-04-07T08:50:56Z</time>
      </trkpt>
      <trkpt lat="44.13097" lon="1.88665">
        <ele>201.2</ele>
        <time>2024-04-07T08:50:57Z</time>
      </trkpt>
      <trkpt lat="44.13098" lon="1.8867">
        <ele>201.4</ele>
        <time>2024-04-07T08:50:58Z</time>
      </trkpt>
      <trkpt lat="44.131" lon="1.88675">
        <ele>201.6</ele>
        <time>2024-04-07T08:50:59Z</time>
      </trkpt>
      <trkpt lat="44.13101" lon="1.8868">
        <ele>201.6</ele>
        <time>2024-04-07T08:51:00Z</time>
      </trkpt>
      <trkpt lat="44.13103" lon="1.88684">
        <ele>201.8</ele>
        <time>2024-04-07T08:51:01Z</time>
      </trkpt>
      <trkpt lat="44.13104" lon="1.88689">
        <ele>202.2</ele>
        <time>2024-04-07T08:51:02Z</time>
      </trkpt>
      <trkpt lat="44.13106" lon="1.88694">
        <ele>202.4</ele>
        <time>2024-04-07T08:51:03Z</time>
      </trkpt>
      <trkpt lat="44.13107" lon="1.88698">
        <ele>202.8</ele>
        <time>2024-04-07T08:51:04Z</time>
      </trkpt>
      <trkpt lat="44.13108" lon="1.88703">
        <ele>203</ele>
        <time>2024-04-07T08:51:05Z</time>
      </trkpt>
      <trkpt lat="44.13109" lon="1.88708">
        <ele>203.2</ele>
        <time>2024-04-07T08:51:06Z</time>
      </trkpt>
      <trkpt lat="44.1311" lon="1.88713">
        <ele>203.6</ele>
        <time>2024-04-07T08:51:07Z</time>
      </trkpt>
      <trkpt lat="44.13111" lon="1.88718">
        <ele>203.8</ele>
        <time>2024-04-07T08:51:08Z</time>
      </trkpt>
      <trkpt lat="44.13112" lon="1.88723">
        <ele>204.2</ele>
        <time>2024-04-07T08:51:09Z</time>
      </trkpt>
      <trkpt lat="44.13112" lon="1.88728">
        <ele>204.2</ele>
        <time>2024-04-07T08:51:10Z</time>
      </trkpt>
      <trkpt lat="44.13113" lon="1.88732">
        <ele>204.6</ele>
        <time>2024-04-07T08:51:11Z</time>
      </trkpt>
      <trkpt lat="44.13113" lon="1.88737">
        <ele>204.6</ele>
        <time>2024-04-07T08:51:12Z</time>
      </trkpt>
      <trkpt lat="44.13114" lon="1.88742">
        <ele>205</ele>
        <time>2024-04-07T08:51:13Z</time>
      </trkpt>
      <trkpt lat="44.13114" lon="1.88747">
        <ele>205.2</ele>
        <time>2024-04-07T08:51:14Z</time>
      </trkpt>
      <trkpt lat="44.13115" lon="1.88752">
        <ele>205.8</ele>
        <time>2024-04-07T08:51:15Z</time>
      </trkpt>
      <trkpt lat="44.13115" lon="1.88758">
        <ele>206</ele>
        <time>2024-04-07T08:51:16Z</time>
      </trkpt>
      <trkpt lat="44.13115" lon="1.88763">
        <ele>206.4</ele>
        <time>2024-04-07T08:51:17Z</time>
      </trkpt>
      <trkpt lat="44.13115" lon="1.88768">
        <ele>206.6</ele>
        <time>2024-04-07T08:51:18Z</time>
      </trkpt>
      <trkpt lat="44.13116" lon="1.88773">
        <ele>206.8</ele>
        <time>2024-04-07T08:51:19Z</time>
      </trkpt>
      <trkpt lat="44.13116" lon="1.88778">
        <ele>207.6</ele>
        <time>2024-04-07T08:51:20Z</time>
      </trkpt>
      <trkpt lat="44.13116" lon="1.88783">
        <ele>207.8</ele>
        <time>2024-04-07T08:51:21Z</time>
      </trkpt>
      <trkpt lat="44.13117" lon="1.88788">
        <ele>208.2</ele>
        <time>2024-04-07T08:51:22Z</time>
      </trkpt>
      <trkpt lat="44.13118" lon="1.88793">
        <ele>208.6</ele>
        <time>2024-04-07T08:51:23Z</time>
      </trkpt>
      <trkpt lat="44.13119" lon="1.88798">
        <ele>208.8</ele>
        <time>2024-04-07T08:51:24Z</time>
      </trkpt>
      <trkpt lat="44.1312" lon="1.88803">
        <ele>209.2</ele>
        <time>2024-04-07T08:51:25Z</time>
      </trkpt>
      <trkpt lat="44.13121" lon="1.88808">
        <ele>209.4</ele>
        <time>2024-04-07T08:51:26Z</time>
      </trkpt>
      <trkpt lat="44.13123" lon="1.88812">
        <ele>209.8</ele>
        <time>2024-04-07T08:51:27Z</time>
      </trkpt>
      <trkpt lat="44.13125" lon="1.88817">
        <ele>210</ele>
        <time>2024-04-07T08:51:28Z</time>
      </trkpt>
      <trkpt lat="44.13126" lon="1.88822">
        <ele>210.4</ele>
        <time>2024-04-07T08:51:29Z</time>
      </trkpt>
      <trkpt lat="44.13128" lon="1.88826">
        <ele>210.4</ele>
        <time>2024-04-07T08:51:30Z</time>
      </trkpt>
      <trkpt lat="44.1313" lon="1.88831">
        <ele>211</ele>
        <time>2024-04-07T08:51:31Z</time>
      </trkpt>
      <trkpt lat="44.13132" lon="1.88835">
        <ele>211.6</ele>
        <time>2024-04-07T08:51:32Z</time>
      </trkpt>
      <trkpt lat="44.13134" lon="1.8884">
        <ele>211.8</ele>
        <time>2024-04-07T08:51:33Z</time>
      </trkpt>
      <trkpt lat="44.13136" lon="1.88843">
        <ele>212.2</ele>
        <time>2024-04-07T08:51:34Z</time>
      </trkpt>
      <trkpt lat="44.13139" lon="1.88847">
        <ele>212.2</ele>
        <time>2024-04-07T08:51:35Z</time>
      </trkpt>
      <trkpt lat="44.13141" lon="1.8885">
        <ele>212.6</ele>
        <time>2024-04-07T08:51:36Z</time>
      </trkpt>
      <trkpt lat="44.13143" lon="1.88854">
        <ele>213</ele>
        <time>2024-04-07T08:51:37Z</time>
      </trkpt>
      <trkpt lat="44.13145" lon="1.88857">
        <ele>213.2</ele>
        <time>2024-04-07T08:51:38Z</time>
      </trkpt>
      <trkpt lat="44.13147" lon="1.88861">
        <ele>213.8</ele>
        <time>2024-04-07T08:51:39Z</time>
      </trkpt>
      <trkpt lat="44.1315" lon="1.88865">
        <ele>213.8</ele>
        <time>2024-04-07T08:51:40Z</time>
      </trkpt>
      <trkpt lat="44.13152" lon="1.88868">
        <ele>214.6</ele>
        <time>2024-04-07T08:51:41Z</time>
      </trkpt>
      <trkpt lat="44.13156" lon="1.88871">
        <ele>214.8</ele>
        <time>2024-04-07T08:51:42Z</time>
      </trkpt>
      <trkpt lat="44.13159" lon="1.88874">
        <ele>215</ele>
        <time>2024-04-07T08:51:43Z</time>
      </trkpt>
      <trkpt lat="44.13161" lon="1.88878">
        <ele>215.2</ele>
        <time>2024-04-07T08:51:44Z</time>
      </trkpt>
      <trkpt lat="44.13164" lon="1.88881">
        <ele>215.4</ele>
        <time>2024-04-07T08:51:45Z</time>
      </trkpt>
      <trkpt lat="44.13167" lon="1.88884">
        <ele>215.6</ele>
        <time>2024-04-07T08:51:46Z</time>
      </trkpt>
      <trkpt lat="44.1317" lon="1.88888">
        <ele>215.8</ele>
        <time>2024-04-07T08:51:47Z</time>
      </trkpt>
      <trkpt lat="44.13173" lon="1.88891">
        <ele>216</ele>
        <time>2024-04-07T08:51:48Z</time>
      </trkpt>
      <trkpt lat="44.13176" lon="1.88894">
        <ele>216.2</ele>
        <time>2024-04-07T08:51:49Z</time>
      </trkpt>
      <trkpt lat="44.13178" lon="1.88899">
        <ele>216.4</ele>
        <time>2024-04-07T08:51:50Z</time>
      </trkpt>
      <trkpt lat="44.13181" lon="1.88903">
        <ele>216.6</ele>
        <time>2024-04-07T08:51:51Z</time>
      </trkpt>
      <trkpt lat="44.13184" lon="1.88907">
        <ele>216.8</ele>
        <time>2024-04-07T08:51:52Z</time>
      </trkpt>
      <trkpt lat="44.13188" lon="1.88911">
        <ele>216.8</ele>
        <time>2024-04-07T08:51:53Z</time>
      </trkpt>
      <trkpt lat="44.13191" lon="1.88914">
        <ele>217</ele>
        <time>2024-04-07T08:51:54Z</time>
      </trkpt>
      <trkpt lat="44.13194" lon="1.88918">
        <ele>217</ele>
        <time>2024-04-07T08:51:55Z</time>
      </trkpt>
      <trkpt lat="44.13198" lon="1.88922">
        <ele>217.2</ele>
        <time>2024-04-07T08:51:56Z</time>
      </trkpt>
      <trkpt lat="44.13201" lon="1.88927">
        <ele>217.2</ele>
        <time>2024-04-07T08:51:57Z</time>
      </trkpt>
      <trkpt lat="44.13205" lon="1.88932">
        <ele>217.2</ele>
        <time>2024-04-07T08:51:58Z</time>
      </trkpt>
      <trkpt lat="44.13208" lon="1.88937">
        <ele>217</ele>
        <time>2024-04-07T08:51:59Z</time>
      </trkpt>
      <trkpt lat="44.13212" lon="1.88943">
        <ele>217</ele>
        <time>2024-04-07T08:52:00Z</time>
      </trkpt>
      <trkpt lat="44.13215" lon="1.88948">
        <ele>217</ele>
        <time>2024-04-07T08:52:01Z</time>
      </trkpt>
      <trkpt lat="44.13218" lon="1.88954">
        <ele>217</ele>
        <time>2024-04-07T08:52:02Z</time>
      </trkpt>
      <trkpt lat="44.13221" lon="1.8896">
        <ele>216.8</ele>
        <time>2024-04-07T08:52:03Z</time>
      </trkpt>
      <trkpt lat="44.13225" lon="1.88967">
        <ele>216.6</ele>
        <time>2024-04-07T08:52:04Z</time>
      </trkpt>
      <trkpt lat="44.13228" lon="1.88973">
        <ele>216.4</ele>
        <time>2024-04-07T08:52:05Z</time>
      </trkpt>
      <trkpt lat="44.13232" lon="1.88979">
        <ele>216.2</ele>
        <time>2024-04-07T08:52:06Z</time>
      </trkpt>
      <trkpt lat="44.13236" lon="1.88985">
        <ele>216.2</ele>
        <time>2024-04-07T08:52:07Z</time>
      </trkpt>
      <trkpt lat="44.1324" lon="1.88992">
        <ele>216</ele>
        <time>2024-04-07T08:52:08Z</time>
      </trkpt>
      <trkpt lat="44.13243" lon="1.88999">
        <ele>216</ele>
        <time>2024-04-07T08:52:09Z</time>
      </trkpt>
      <trkpt lat="44.13251" lon="1.89013">
        <ele>215.8</ele>
        <time>2024-04-07T08:52:11Z</time>
      </trkpt>
      <trkpt lat="44.13255" lon="1.8902">
        <ele>215.8</ele>
        <time>2024-04-07T08:52:12Z</time>
      </trkpt>
      <trkpt lat="44.13262" lon="1.89035">
        <ele>215.6</ele>
        <time>2024-04-07T08:52:14Z</time>
      </trkpt>
      <trkpt lat="44.13266" lon="1.89042">
        <ele>215.4</ele>
        <time>2024-04-07T08:52:15Z</time>
      </trkpt>
      <trkpt lat="44.13274" lon="1.89059">
        <ele>214.6</ele>
        <time>2024-04-07T08:52:17Z</time>
      </trkpt>
      <trkpt lat="44.13277" lon="1.89068">
        <ele>214.2</ele>
        <time>2024-04-07T08:52:18Z</time>
      </trkpt>
      <trkpt lat="44.1328" lon="1.89078">
        <ele>213.6</ele>
        <time>2024-04-07T08:52:19Z</time>
      </trkpt>
      <trkpt lat="44.13283" lon="1.89089">
        <ele>213.2</ele>
        <time>2024-04-07T08:52:20Z</time>
      </trkpt>
      <trkpt lat="44.13286" lon="1.891">
        <ele>212.8</ele>
        <time>2024-04-07T08:52:21Z</time>
      </trkpt>
      <trkpt lat="44.13292" lon="1.89124">
        <ele>212.2</ele>
        <time>2024-04-07T08:52:23Z</time>
      </trkpt>
      <trkpt lat="44.13293" lon="1.89137">
        <ele>211.8</ele>
        <time>2024-04-07T08:52:24Z</time>
      </trkpt>
      <trkpt lat="44.13293" lon="1.89151">
        <ele>211.6</ele>
        <time>2024-04-07T08:52:25Z</time>
      </trkpt>
      <trkpt lat="44.13294" lon="1.89166">
        <ele>210.4</ele>
        <time>2024-04-07T08:52:26Z</time>
      </trkpt>
      <trkpt lat="44.13293" lon="1.89181">
        <ele>209.8</ele>
        <time>2024-04-07T08:52:27Z</time>
      </trkpt>
      <trkpt lat="44.13292" lon="1.89196">
        <ele>209.2</ele>
        <time>2024-04-07T08:52:28Z</time>
      </trkpt>
      <trkpt lat="44.13289" lon="1.89208">
        <ele>208.4</ele>
        <time>2024-04-07T08:52:29Z</time>
      </trkpt>
      <trkpt lat="44.13285" lon="1.89217">
        <ele>207.6</ele>
        <time>2024-04-07T08:52:30Z</time>
      </trkpt>
      <trkpt lat="44.13282" lon="1.89225">
        <ele>206.8</ele>
        <time>2024-04-07T08:52:31Z</time>
      </trkpt>
      <trkpt lat="44.13279" lon="1.89233">
        <ele>206.6</ele>
        <time>2024-04-07T08:52:32Z</time>
      </trkpt>
      <trkpt lat="44.13277" lon="1.89239">
        <ele>206.4</ele>
        <time>2024-04-07T08:52:33Z</time>
      </trkpt>
      <trkpt lat="44.13275" lon="1.89244">
        <ele>206.2</ele>
        <time>2024-04-07T08:52:34Z</time>
      </trkpt>
      <trkpt lat="44.13272" lon="1.8925">
        <ele>206.4</ele>
        <time>2024-04-07T08:52:35Z</time>
      </trkpt>
      <trkpt lat="44.1327" lon="1.89255">
        <ele>206.4</ele>
        <time>2024-04-07T08:52:36Z</time>
      </trkpt>
      <trkpt lat="44.13268" lon="1.89261">
        <ele>206.4</ele>
        <time>2024-04-07T08:52:37Z</time>
      </trkpt>
      <trkpt lat="44.13266" lon="1.89267">
        <ele>206.6</ele>
        <time>2024-04-07T08:52:38Z</time>
      </trkpt>
      <trkpt lat="44.13264" lon="1.89272">
        <ele>206.8</ele>
        <time>2024-04-07T08:52:39Z</time>
      </trkpt>
      <trkpt lat="44.13262" lon="1.89278">
        <ele>207.4</ele>
        <time>2024-04-07T08:52:40Z</time>
      </trkpt>
      <trkpt lat="44.1326" lon="1.89283">
        <ele>207.8</ele>
        <time>2024-04-07T08:52:41Z</time>
      </trkpt>
      <trkpt lat="44.13258" lon="1.89289">
        <ele>208.4</ele>
        <time>2024-04-07T08:52:42Z</time>
      </trkpt>
      <trkpt lat="44.13256" lon="1.89294">
        <ele>209</ele>
        <time>2024-04-07T08:52:43Z</time>
      </trkpt>
      <trkpt lat="44.13254" lon="1.893">
        <ele>209.2</ele>
        <time>2024-04-07T08:52:44Z</time>
      </trkpt>
      <trkpt lat="44.13252" lon="1.89305">
        <ele>209.6</ele>
        <time>2024-04-07T08:52:45Z</time>
      </trkpt>
      <trkpt lat="44.1325" lon="1.89311">
        <ele>209.8</ele>
        <time>2024-04-07T08:52:46Z</time>
      </trkpt>
      <trkpt lat="44.13248" lon="1.89317">
        <ele>210.2</ele>
        <time>2024-04-07T08:52:47Z</time>
      </trkpt>
      <trkpt lat="44.13246" lon="1.89323">
        <ele>210.4</ele>
        <time>2024-04-07T08:52:48Z</time>
      </trkpt>
      <trkpt lat="44.13244" lon="1.89329">
        <ele>210.6</ele>
        <time>2024-04-07T08:52:49Z</time>
      </trkpt>
      <trkpt lat="44.13242" lon="1.89335">
        <ele>210.8</ele>
        <time>2024-04-07T08:52:50Z</time>
      </trkpt>
      <trkpt lat="44.13241" lon="1.89341">
        <ele>211</ele>
        <time>2024-04-07T08:52:51Z</time>
      </trkpt>
      <trkpt lat="44.13239" lon="1.89347">
        <ele>211.4</ele>
        <time>2024-04-07T08:52:52Z</time>
      </trkpt>
      <trkpt lat="44.13237" lon="1.89353">
        <ele>211.6</ele>
        <time>2024-04-07T08:52:53Z</time>
      </trkpt>
      <trkpt lat="44.13235" lon="1.89359">
        <ele>212</ele>
        <time>2024-04-07T08:52:54Z</time>
      </trkpt>
      <trkpt lat="44.13233" lon="1.89365">
        <ele>212.2</ele>
        <time>2024-04-07T08:52:55Z</time>
      </trkpt>
      <trkpt lat="44.13231" lon="1.89371">
        <ele>212.8</ele>
        <time>2024-04-07T08:52:56Z</time>
      </trkpt>
      <trkpt lat="44.13229" lon="1.89377">
        <ele>213</ele>
        <time>2024-04-07T08:52:57Z</time>
      </trkpt>
      <trkpt lat="44.13227" lon="1.89383">
        <ele>213.2</ele>
        <time>2024-04-07T08:52:58Z</time>
      </trkpt>
      <trkpt lat="44.13225" lon="1.89389">
        <ele>213.2</ele>
        <time>2024-04-07T08:52:59Z</time>
      </trkpt>
      <trkpt lat="44.13223" lon="1.89394">
        <ele>213.4</ele>
        <time>2024-04-07T08:53:00Z</time>
      </trkpt>
      <trkpt lat="44.13221" lon="1.894">
        <ele>213.8</ele>
        <time>2024-04-07T08:53:01Z</time>
      </trkpt>
      <trkpt lat="44.13219" lon="1.89406">
        <ele>214</ele>
        <time>2024-04-07T08:53:02Z</time>
      </trkpt>
      <trkpt lat="44.13217" lon="1.89412">
        <ele>214.6</ele>
        <time>2024-04-07T08:53:03Z</time>
      </trkpt>
      <trkpt lat="44.13215" lon="1.89418">
        <ele>214.8</ele>
        <time>2024-04-07T08:53:04Z</time>
      </trkpt>
      <trkpt lat="44.13213" lon="1.89424">
        <ele>215.2</ele>
        <time>2024-04-07T08:53:05Z</time>
      </trkpt>
      <trkpt lat="44.13211" lon="1.8943">
        <ele>215.2</ele>
        <time>2024-04-07T08:53:06Z</time>
      </trkpt>
      <trkpt lat="44.13209" lon="1.89436">
        <ele>215.4</ele>
        <time>2024-04-07T08:53:07Z</time>
      </trkpt>
      <trkpt lat="44.13207" lon="1.89442">
        <ele>215.6</ele>
        <time>2024-04-07T08:53:08Z</time>
      </trkpt>
      <trkpt lat="44.13205" lon="1.89448">
        <ele>215.8</ele>
        <time>2024-04-07T08:53:09Z</time>
      </trkpt>
      <trkpt lat="44.13203" lon="1.89454">
        <ele>216</ele>
        <time>2024-04-07T08:53:10Z</time>
      </trkpt>
      <trkpt lat="44.13202" lon="1.8946">
        <ele>216</ele>
        <time>2024-04-07T08:53:11Z</time>
      </trkpt>
      <trkpt lat="44.13201" lon="1.89467">
        <ele>216.2</ele>
        <time>2024-04-07T08:53:12Z</time>
      </trkpt>
      <trkpt lat="44.13199" lon="1.89473">
        <ele>216.4</ele>
        <time>2024-04-07T08:53:13Z</time>
      </trkpt>
      <trkpt lat="44.13198" lon="1.89479">
        <ele>216.6</ele>
        <time>2024-04-07T08:53:14Z</time>
      </trkpt>
      <trkpt lat="44.13196" lon="1.89486">
        <ele>216.8</ele>
        <time>2024-04-07T08:53:15Z</time>
      </trkpt>
      <trkpt lat="44.13195" lon="1.89493">
        <ele>217</ele>
        <time>2024-04-07T08:53:16Z</time>
      </trkpt>
      <trkpt lat="44.13194" lon="1.895">
        <ele>217.2</ele>
        <time>2024-04-07T08:53:17Z</time>
      </trkpt>
      <trkpt lat="44.13192" lon="1.89507">
        <ele>217.4</ele>
        <time>2024-04-07T08:53:18Z</time>
      </trkpt>
      <trkpt lat="44.1319" lon="1.89514">
        <ele>217.8</ele>
        <time>2024-04-07T08:53:19Z</time>
      </trkpt>
      <trkpt lat="44.13189" lon="1.8952">
        <ele>217.8</ele>
        <time>2024-04-07T08:53:20Z</time>
      </trkpt>
      <trkpt lat="44.13187" lon="1.89526">
        <ele>218</ele>
        <time>2024-04-07T08:53:21Z</time>
      </trkpt>
      <trkpt lat="44.13184" lon="1.89532">
        <ele>218.2</ele>
        <time>2024-04-07T08:53:22Z</time>
      </trkpt>
      <trkpt lat="44.13182" lon="1.89537">
        <ele>218.6</ele>
        <time>2024-04-07T08:53:23Z</time>
      </trkpt>
      <trkpt lat="44.13179" lon="1.89542">
        <ele>218.8</ele>
        <time>2024-04-07T08:53:24Z</time>
      </trkpt>
      <trkpt lat="44.13177" lon="1.89547">
        <ele>219</ele>
        <time>2024-04-07T08:53:25Z</time>
      </trkpt>
      <trkpt lat="44.13174" lon="1.89553">
        <ele>219.2</ele>
        <time>2024-04-07T08:53:26Z</time>
      </trkpt>
      <trkpt lat="44.13171" lon="1.89558">
        <ele>219.4</ele>
        <time>2024-04-07T08:53:27Z</time>
      </trkpt>
      <trkpt lat="44.13168" lon="1.89563">
        <ele>219.6</ele>
        <time>2024-04-07T08:53:28Z</time>
      </trkpt>
      <trkpt lat="44.13165" lon="1.89568">
        <ele>219.6</ele>
        <time>2024-04-07T08:53:29Z</time>
      </trkpt>
      <trkpt lat="44.13162" lon="1.89573">
        <ele>220</ele>
        <time>2024-04-07T08:53:30Z</time>
      </trkpt>
      <trkpt lat="44.1316" lon="1.89578">
        <ele>220.2</ele>
        <time>2024-04-07T08:53:31Z</time>
      </trkpt>
      <trkpt lat="44.13157" lon="1.89583">
        <ele>220.8</ele>
        <time>2024-04-07T08:53:32Z</time>
      </trkpt>
      <trkpt lat="44.13155" lon="1.89588">
        <ele>221.2</ele>
        <time>2024-04-07T08:53:33Z</time>
      </trkpt>
      <trkpt lat="44.13152" lon="1.89594">
        <ele>221.4</ele>
        <time>2024-04-07T08:53:34Z</time>
      </trkpt>
      <trkpt lat="44.1315" lon="1.89599">
        <ele>222</ele>
        <time>2024-04-07T08:53:35Z</time>
      </trkpt>
      <trkpt lat="44.13147" lon="1.89604">
        <ele>222.2</ele>
        <time>2024-04-07T08:53:36Z</time>
      </trkpt>
      <trkpt lat="44.13144" lon="1.89609">
        <ele>222.8</ele>
        <time>2024-04-07T08:53:37Z</time>
      </trkpt>
      <trkpt lat="44.13142" lon="1.89614">
        <ele>222.8</ele>
        <time>2024-04-07T08:53:38Z</time>
      </trkpt>
      <trkpt lat="44.13139" lon="1.8962">
        <ele>223.2</ele>
        <time>2024-04-07T08:53:39Z</time>
      </trkpt>
      <trkpt lat="44.13136" lon="1.89625">
        <ele>223.4</ele>
        <time>2024-04-07T08:53:40Z</time>
      </trkpt>
      <trkpt lat="44.13133" lon="1.89631">
        <ele>223.6</ele>
        <time>2024-04-07T08:53:41Z</time>
      </trkpt>
      <trkpt lat="44.13131" lon="1.89636">
        <ele>223.8</ele>
        <time>2024-04-07T08:53:42Z</time>
      </trkpt>
      <trkpt lat="44.13129" lon="1.89642">
        <ele>223.8</ele>
        <time>2024-04-07T08:53:43Z</time>
      </trkpt>
      <trkpt lat="44.13126" lon="1.89647">
        <ele>223.8</ele>
        <time>2024-04-07T08:53:44Z</time>
      </trkpt>
      <trkpt lat="44.13124" lon="1.89653">
        <ele>224</ele>
        <time>2024-04-07T08:53:45Z</time>
      </trkpt>
      <trkpt lat="44.13121" lon="1.89659">
        <ele>224.2</ele>
        <time>2024-04-07T08:53:46Z</time>
      </trkpt>
      <trkpt lat="44.13119" lon="1.89666">
        <ele>224.2</ele>
        <time>2024-04-07T08:53:47Z</time>
      </trkpt>
      <trkpt lat="44.13117" lon="1.89672">
        <ele>224.4</ele>
        <time>2024-04-07T08:53:48Z</time>
      </trkpt>
      <trkpt lat="44.13115" lon="1.89679">
        <ele>224.6</ele>
        <time>2024-04-07T08:53:49Z</time>
      </trkpt>
      <trkpt lat="44.13112" lon="1.89686">
        <ele>224.8</ele>
        <time>2024-04-07T08:53:50Z</time>
      </trkpt>
      <trkpt lat="44.1311" lon="1.89692">
        <ele>225</ele>
        <time>2024-04-07T08:53:51Z</time>
      </trkpt>
      <trkpt lat="44.13108" lon="1.89698">
        <ele>225</ele>
        <time>2024-04-07T08:53:52Z</time>
      </trkpt>
      <trkpt lat="44.13106" lon="1.89704">
        <ele>225</ele>
        <time>2024-04-07T08:53:53Z</time>
      </trkpt>
      <trkpt lat="44.13103" lon="1.8971">
        <ele>225</ele>
        <time>2024-04-07T08:53:54Z</time>
      </trkpt>
      <trkpt lat="44.13101" lon="1.89715">
        <ele>225</ele>
        <time>2024-04-07T08:53:55Z</time>
      </trkpt>
      <trkpt lat="44.13098" lon="1.89721">
        <ele>225</ele>
        <time>2024-04-07T08:53:56Z</time>
      </trkpt>
      <trkpt lat="44.13096" lon="1.89726">
        <ele>225</ele>
        <time>2024-04-07T08:53:57Z</time>
      </trkpt>
      <trkpt lat="44.13093" lon="1.89732">
        <ele>225</ele>
        <time>2024-04-07T08:53:58Z</time>
      </trkpt>
      <trkpt lat="44.1309" lon="1.89738">
        <ele>225</ele>
        <time>2024-04-07T08:53:59Z</time>
      </trkpt>
      <trkpt lat="44.13087" lon="1.89743">
        <ele>225.4</ele>
        <time>2024-04-07T08:54:00Z</time>
      </trkpt>
      <trkpt lat="44.13084" lon="1.89749">
        <ele>225.6</ele>
        <time>2024-04-07T08:54:01Z</time>
      </trkpt>
      <trkpt lat="44.13081" lon="1.89754">
        <ele>225.8</ele>
        <time>2024-04-07T08:54:02Z</time>
      </trkpt>
      <trkpt lat="44.13078" lon="1.89759">
        <ele>225.8</ele>
        <time>2024-04-07T08:54:03Z</time>
      </trkpt>
      <trkpt lat="44.13075" lon="1.89763">
        <ele>226</ele>
        <time>2024-04-07T08:54:04Z</time>
      </trkpt>
      <trkpt lat="44.13072" lon="1.89768">
        <ele>226.2</ele>
        <time>2024-04-07T08:54:05Z</time>
      </trkpt>
      <trkpt lat="44.13069" lon="1.89772">
        <ele>226.2</ele>
        <time>2024-04-07T08:54:06Z</time>
      </trkpt>
      <trkpt lat="44.13066" lon="1.89777">
        <ele>226.4</ele>
        <time>2024-04-07T08:54:07Z</time>
      </trkpt>
      <trkpt lat="44.13064" lon="1.89781">
        <ele>226.6</ele>
        <time>2024-04-07T08:54:08Z</time>
      </trkpt>
      <trkpt lat="44.13061" lon="1.89786">
        <ele>226.8</ele>
        <time>2024-04-07T08:54:09Z</time>
      </trkpt>
      <trkpt lat="44.13059" lon="1.89791">
        <ele>227</ele>
        <time>2024-04-07T08:54:10Z</time>
      </trkpt>
      <trkpt lat="44.13057" lon="1.89796">
        <ele>227.4</ele>
        <time>2024-04-07T08:54:11Z</time>
      </trkpt>
      <trkpt lat="44.13055" lon="1.89801">
        <ele>227.8</ele>
        <time>2024-04-07T08:54:12Z</time>
      </trkpt>
      <trkpt lat="44.13054" lon="1.89807">
        <ele>227.8</ele>
        <time>2024-04-07T08:54:13Z</time>
      </trkpt>
      <trkpt lat="44.13052" lon="1.89813">
        <ele>228.2</ele>
        <time>2024-04-07T08:54:14Z</time>
      </trkpt>
      <trkpt lat="44.1305" lon="1.89818">
        <ele>228.2</ele>
        <time>2024-04-07T08:54:15Z</time>
      </trkpt>
      <trkpt lat="44.13048" lon="1.89824">
        <ele>228.6</ele>
        <time>2024-04-07T08:54:16Z</time>
      </trkpt>
      <trkpt lat="44.13047" lon="1.8983">
        <ele>229</ele>
        <time>2024-04-07T08:54:17Z</time>
      </trkpt>
      <trkpt lat="44.13045" lon="1.89836">
        <ele>229.4</ele>
        <time>2024-04-07T08:54:18Z</time>
      </trkpt>
      <trkpt lat="44.13043" lon="1.89842">
        <ele>229.4</ele>
        <time>2024-04-07T08:54:19Z</time>
      </trkpt>
      <trkpt lat="44.13041" lon="1.89848">
        <ele>229.8</ele>
        <time>2024-04-07T08:54:20Z</time>
      </trkpt>
      <trkpt lat="44.1304" lon="1.89854">
        <ele>230</ele>
        <time>2024-04-07T08:54:21Z</time>
      </trkpt>
      <trkpt lat="44.13038" lon="1.8986">
        <ele>230.8</ele>
        <time>2024-04-07T08:54:22Z</time>
      </trkpt>
      <trkpt lat="44.13036" lon="1.89865">
        <ele>231.4</ele>
        <time>2024-04-07T08:54:23Z</time>
      </trkpt>
      <trkpt lat="44.13035" lon="1.89871">
        <ele>231.6</ele>
        <time>2024-04-07T08:54:24Z</time>
      </trkpt>
      <trkpt lat="44.13033" lon="1.89876">
        <ele>232.2</ele>
        <time>2024-04-07T08:54:25Z</time>
      </trkpt>
      <trkpt lat="44.13031" lon="1.89882">
        <ele>232.4</ele>
        <time>2024-04-07T08:54:26Z</time>
      </trkpt>
      <trkpt lat="44.13029" lon="1.89888">
        <ele>232.6</ele>
        <time>2024-04-07T08:54:27Z</time>
      </trkpt>
      <trkpt lat="44.13027" lon="1.89893">
        <ele>233</ele>
        <time>2024-04-07T08:54:28Z</time>
      </trkpt>
      <trkpt lat="44.13025" lon="1.89898">
        <ele>233</ele>
        <time>2024-04-07T08:54:29Z</time>
      </trkpt>
      <trkpt lat="44.13023" lon="1.89903">
        <ele>233.2</ele>
        <time>2024-04-07T08:54:30Z</time>
      </trkpt>
      <trkpt lat="44.1302" lon="1.89907">
        <ele>233.4</ele>
        <time>2024-04-07T08:54:31Z</time>
      </trkpt>
      <trkpt lat="44.13018" lon="1.89912">
        <ele>233.8</ele>
        <time>2024-04-07T08:54:32Z</time>
      </trkpt>
      <trkpt lat="44.13015" lon="1.89916">
        <ele>234</ele>
        <time>2024-04-07T08:54:33Z</time>
      </trkpt>
      <trkpt lat="44.13012" lon="1.8992">
        <ele>234.4</ele>
        <time>2024-04-07T08:54:34Z</time>
      </trkpt>
      <trkpt lat="44.13008" lon="1.89924">
        <ele>234.6</ele>
        <time>2024-04-07T08:54:35Z</time>
      </trkpt>
      <trkpt lat="44.13005" lon="1.89929">
        <ele>235</ele>
        <time>2024-04-07T08:54:36Z</time>
      </trkpt>
      <trkpt lat="44.13001" lon="1.89933">
        <ele>235.4</ele>
        <time>2024-04-07T08:54:37Z</time>
      </trkpt>
      <trkpt lat="44.12997" lon="1.89937">
        <ele>235.6</ele>
        <time>2024-04-07T08:54:38Z</time>
      </trkpt>
      <trkpt lat="44.12993" lon="1.89941">
        <ele>235.6</ele>
        <time>2024-04-07T08:54:39Z</time>
      </trkpt>
      <trkpt lat="44.12988" lon="1.89945">
        <ele>235.8</ele>
        <time>2024-04-07T08:54:40Z</time>
      </trkpt>
      <trkpt lat="44.12984" lon="1.8995">
        <ele>236</ele>
        <time>2024-04-07T08:54:41Z</time>
      </trkpt>
      <trkpt lat="44.12979" lon="1.89955">
        <ele>236</ele>
        <time>2024-04-07T08:54:42Z</time>
      </trkpt>
      <trkpt lat="44.12974" lon="1.8996">
        <ele>236.2</ele>
        <time>2024-04-07T08:54:43Z</time>
      </trkpt>
      <trkpt lat="44.1297" lon="1.89965">
        <ele>236.4</ele>
        <time>2024-04-07T08:54:44Z</time>
      </trkpt>
      <trkpt lat="44.12966" lon="1.8997">
        <ele>236.4</ele>
        <time>2024-04-07T08:54:45Z</time>
      </trkpt>
      <trkpt lat="44.12962" lon="1.89975">
        <ele>236.4</ele>
        <time>2024-04-07T08:54:46Z</time>
      </trkpt>
      <trkpt lat="44.12958" lon="1.89981">
        <ele>236.4</ele>
        <time>2024-04-07T08:54:47Z</time>
      </trkpt>
      <trkpt lat="44.12954" lon="1.89986">
        <ele>236.4</ele>
        <time>2024-04-07T08:54:48Z</time>
      </trkpt>
      <trkpt lat="44.1295" lon="1.89991">
        <ele>236.4</ele>
        <time>2024-04-07T08:54:49Z</time>
      </trkpt>
      <trkpt lat="44.12946" lon="1.89996">
        <ele>236.4</ele>
        <time>2024-04-07T08:54:50Z</time>
      </trkpt>
      <trkpt lat="44.12941" lon="1.90001">
        <ele>236.4</ele>
        <time>2024-04-07T08:54:51Z</time>
      </trkpt>
      <trkpt lat="44.12936" lon="1.90007">
        <ele>236.4</ele>
        <time>2024-04-07T08:54:52Z</time>
      </trkpt>
      <trkpt lat="44.12931" lon="1.90012">
        <ele>236.4</ele>
        <time>2024-04-07T08:54:53Z</time>
      </trkpt>
      <trkpt lat="44.12926" lon="1.90018">
        <ele>236.4</ele>
        <time>2024-04-07T08:54:54Z</time>
      </trkpt>
      <trkpt lat="44.12921" lon="1.90024">
        <ele>236.4</ele>
        <time>2024-04-07T08:54:55Z</time>
      </trkpt>
      <trkpt lat="44.12916" lon="1.90029">
        <ele>236.4</ele>
        <time>2024-04-07T08:54:56Z</time>
      </trkpt>
      <trkpt lat="44.12911" lon="1.90034">
        <ele>236.4</ele>
        <time>2024-04-07T08:54:57Z</time>
      </trkpt>
      <trkpt lat="44.12905" lon="1.9004">
        <ele>236.2</ele>
        <time>2024-04-07T08:54:58Z</time>
      </trkpt>
      <trkpt lat="44.129" lon="1.90046">
        <ele>236.2</ele>
        <time>2024-04-07T08:54:59Z</time>
      </trkpt>
      <trkpt lat="44.12895" lon="1.90051">
        <ele>236.2</ele>
        <time>2024-04-07T08:55:00Z</time>
      </trkpt>
      <trkpt lat="44.1289" lon="1.90056">
        <ele>236.4</ele>
        <time>2024-04-07T08:55:01Z</time>
      </trkpt>
      <trkpt lat="44.12885" lon="1.9006">
        <ele>236.4</ele>
        <time>2024-04-07T08:55:02Z</time>
      </trkpt>
      <trkpt lat="44.12881" lon="1.90065">
        <ele>236.2</ele>
        <time>2024-04-07T08:55:03Z</time>
      </trkpt>
      <trkpt lat="44.12878" lon="1.90069">
        <ele>236.2</ele>
        <time>2024-04-07T08:55:04Z</time>
      </trkpt>
      <trkpt lat="44.12875" lon="1.90073">
        <ele>236.2</ele>
        <time>2024-04-07T08:55:05Z</time>
      </trkpt>
      <trkpt lat="44.12871" lon="1.90076">
        <ele>236.4</ele>
        <time>2024-04-07T08:55:06Z</time>
      </trkpt>
      <trkpt lat="44.12867" lon="1.90081">
        <ele>236.4</ele>
        <time>2024-04-07T08:55:07Z</time>
      </trkpt>
      <trkpt lat="44.12863" lon="1.90085">
        <ele>236.6</ele>
        <time>2024-04-07T08:55:08Z</time>
      </trkpt>
      <trkpt lat="44.12859" lon="1.90089">
        <ele>236.6</ele>
        <time>2024-04-07T08:55:09Z</time>
      </trkpt>
      <trkpt lat="44.12851" lon="1.90097">
        <ele>236.6</ele>
        <time>2024-04-07T08:55:11Z</time>
      </trkpt>
      <trkpt lat="44.12847" lon="1.90101">
        <ele>236.6</ele>
        <time>2024-04-07T08:55:12Z</time>
      </trkpt>
      <trkpt lat="44.12842" lon="1.90104">
        <ele>236.8</ele>
        <time>2024-04-07T08:55:13Z</time>
      </trkpt>
      <trkpt lat="44.12838" lon="1.90106">
        <ele>237</ele>
        <time>2024-04-07T08:55:14Z</time>
      </trkpt>
      <trkpt lat="44.12834" lon="1.90108">
        <ele>237.2</ele>
        <time>2024-04-07T08:55:15Z</time>
      </trkpt>
      <trkpt lat="44.1283" lon="1.90109">
        <ele>237.2</ele>
        <time>2024-04-07T08:55:16Z</time>
      </trkpt>
      <trkpt lat="44.12827" lon="1.9011">
        <ele>237.4</ele>
        <time>2024-04-07T08:55:17Z</time>
      </trkpt>
      <trkpt lat="44.12823" lon="1.9011">
        <ele>237.4</ele>
        <time>2024-04-07T08:55:18Z</time>
      </trkpt>
      <trkpt lat="44.12817" lon="1.90111">
        <ele>237.6</ele>
        <time>2024-04-07T08:55:19Z</time>
      </trkpt>
      <trkpt lat="44.12813" lon="1.9011">
        <ele>237.8</ele>
        <time>2024-04-07T08:55:20Z</time>
      </trkpt>
      <trkpt lat="44.12808" lon="1.9011">
        <ele>238</ele>
        <time>2024-04-07T08:55:21Z</time>
      </trkpt>
      <trkpt lat="44.12802" lon="1.90112">
        <ele>238.4</ele>
        <time>2024-04-07T08:55:22Z</time>
      </trkpt>
      <trkpt lat="44.12798" lon="1.90112">
        <ele>238.8</ele>
        <time>2024-04-07T08:55:23Z</time>
      </trkpt>
      <trkpt lat="44.12795" lon="1.90112">
        <ele>239.4</ele>
        <time>2024-04-07T08:55:24Z</time>
      </trkpt>
      <trkpt lat="44.12792" lon="1.90112">
        <ele>240.4</ele>
        <time>2024-04-07T08:55:25Z</time>
      </trkpt>
      <trkpt lat="44.12788" lon="1.90113">
        <ele>240.8</ele>
        <time>2024-04-07T08:55:26Z</time>
      </trkpt>
      <trkpt lat="44.12786" lon="1.90113">
        <ele>241.6</ele>
        <time>2024-04-07T08:55:27Z</time>
      </trkpt>
      <trkpt lat="44.12782" lon="1.90114">
        <ele>242</ele>
        <time>2024-04-07T08:55:28Z</time>
      </trkpt>
      <trkpt lat="44.12778" lon="1.90115">
        <ele>242.6</ele>
        <time>2024-04-07T08:55:29Z</time>
      </trkpt>
      <trkpt lat="44.12773" lon="1.90116">
        <ele>242.8</ele>
        <time>2024-04-07T08:55:30Z</time>
      </trkpt>
      <trkpt lat="44.12769" lon="1.90116">
        <ele>243.4</ele>
        <time>2024-04-07T08:55:31Z</time>
      </trkpt>
      <trkpt lat="44.12764" lon="1.90117">
        <ele>244</ele>
        <time>2024-04-07T08:55:32Z</time>
      </trkpt>
      <trkpt lat="44.12759" lon="1.90117">
        <ele>244.6</ele>
        <time>2024-04-07T08:55:33Z</time>
      </trkpt>
      <trkpt lat="44.12754" lon="1.90117">
        <ele>245</ele>
        <time>2024-04-07T08:55:34Z</time>
      </trkpt>
      <trkpt lat="44.1275" lon="1.90117">
        <ele>245.2</ele>
        <time>2024-04-07T08:55:35Z</time>
      </trkpt>
      <trkpt lat="44.12745" lon="1.90118">
        <ele>245.6</ele>
        <time>2024-04-07T08:55:36Z</time>
      </trkpt>
      <trkpt lat="44.1274" lon="1.90118">
        <ele>245.8</ele>
        <time>2024-04-07T08:55:37Z</time>
      </trkpt>
      <trkpt lat="44.12736" lon="1.90118">
        <ele>246.6</ele>
        <time>2024-04-07T08:55:38Z</time>
      </trkpt>
      <trkpt lat="44.12732" lon="1.90118">
        <ele>247</ele>
        <time>2024-04-07T08:55:39Z</time>
      </trkpt>
      <trkpt lat="44.12727" lon="1.90117">
        <ele>247.6</ele>
        <time>2024-04-07T08:55:40Z</time>
      </trkpt>
      <trkpt lat="44.12723" lon="1.90117">
        <ele>248.6</ele>
        <time>2024-04-07T08:55:41Z</time>
      </trkpt>
      <trkpt lat="44.12719" lon="1.90117">
        <ele>249</ele>
        <time>2024-04-07T08:55:42Z</time>
      </trkpt>
      <trkpt lat="44.12714" lon="1.90117">
        <ele>249.8</ele>
        <time>2024-04-07T08:55:43Z</time>
      </trkpt>
      <trkpt lat="44.1271" lon="1.90117">
        <ele>250.2</ele>
        <time>2024-04-07T08:55:44Z</time>
      </trkpt>
      <trkpt lat="44.12705" lon="1.90117">
        <ele>250.8</ele>
        <time>2024-04-07T08:55:45Z</time>
      </trkpt>
      <trkpt lat="44.12702" lon="1.90117">
        <ele>251</ele>
        <time>2024-04-07T08:55:46Z</time>
      </trkpt>
      <trkpt lat="44.12698" lon="1.90117">
        <ele>251.4</ele>
        <time>2024-04-07T08:55:47Z</time>
      </trkpt>
      <trkpt lat="44.12694" lon="1.90117">
        <ele>251.8</ele>
        <time>2024-04-07T08:55:48Z</time>
      </trkpt>
      <trkpt lat="44.1269" lon="1.90118">
        <ele>252</ele>
        <time>2024-04-07T08:55:49Z</time>
      </trkpt>
      <trkpt lat="44.12687" lon="1.90117">
        <ele>252.6</ele>
        <time>2024-04-07T08:55:50Z</time>
      </trkpt>
      <trkpt lat="44.12683" lon="1.90117">
        <ele>252.8</ele>
        <time>2024-04-07T08:55:51Z</time>
      </trkpt>
      <trkpt lat="44.12679" lon="1.90117">
        <ele>253.2</ele>
        <time>2024-04-07T08:55:52Z</time>
      </trkpt>
      <trkpt lat="44.12676" lon="1.90118">
        <ele>253.2</ele>
        <time>2024-04-07T08:55:53Z</time>
      </trkpt>
      <trkpt lat="44.12673" lon="1.90118">
        <ele>253.4</ele>
        <time>2024-04-07T08:55:54Z</time>
      </trkpt>
      <trkpt lat="44.1267" lon="1.90118">
        <ele>253.6</ele>
        <time>2024-04-07T08:55:55Z</time>
      </trkpt>
      <trkpt lat="44.12666" lon="1.90118">
        <ele>254.2</ele>
        <time>2024-04-07T08:55:56Z</time>
      </trkpt>
      <trkpt lat="44.12663" lon="1.90119">
        <ele>254.6</ele>
        <time>2024-04-07T08:55:57Z</time>
      </trkpt>
      <trkpt lat="44.12659" lon="1.90119">
        <ele>254.8</ele>
        <time>2024-04-07T08:55:58Z</time>
      </trkpt>
      <trkpt lat="44.12656" lon="1.90119">
        <ele>255.6</ele>
        <time>2024-04-07T08:55:59Z</time>
      </trkpt>
      <trkpt lat="44.12652" lon="1.90119">
        <ele>256</ele>
        <time>2024-04-07T08:56:00Z</time>
      </trkpt>
      <trkpt lat="44.12648" lon="1.9012">
        <ele>256.6</ele>
        <time>2024-04-07T08:56:01Z</time>
      </trkpt>
      <trkpt lat="44.12644" lon="1.90121">
        <ele>256.6</ele>
        <time>2024-04-07T08:56:02Z</time>
      </trkpt>
      <trkpt lat="44.1264" lon="1.90121">
        <ele>257.2</ele>
        <time>2024-04-07T08:56:03Z</time>
      </trkpt>
      <trkpt lat="44.12636" lon="1.90121">
        <ele>257.4</ele>
        <time>2024-04-07T08:56:04Z</time>
      </trkpt>
      <trkpt lat="44.12633" lon="1.9012">
        <ele>258</ele>
        <time>2024-04-07T08:56:05Z</time>
      </trkpt>
      <trkpt lat="44.12629" lon="1.9012">
        <ele>258.8</ele>
        <time>2024-04-07T08:56:06Z</time>
      </trkpt>
      <trkpt lat="44.12625" lon="1.90121">
        <ele>259</ele>
        <time>2024-04-07T08:56:07Z</time>
      </trkpt>
      <trkpt lat="44.12621" lon="1.90121">
        <ele>259.6</ele>
        <time>2024-04-07T08:56:08Z</time>
      </trkpt>
      <trkpt lat="44.12618" lon="1.9012">
        <ele>260</ele>
        <time>2024-04-07T08:56:09Z</time>
      </trkpt>
      <trkpt lat="44.12614" lon="1.9012">
        <ele>260.4</ele>
        <time>2024-04-07T08:56:10Z</time>
      </trkpt>
      <trkpt lat="44.12611" lon="1.9012">
        <ele>260.6</ele>
        <time>2024-04-07T08:56:11Z</time>
      </trkpt>
      <trkpt lat="44.12608" lon="1.9012">
        <ele>261</ele>
        <time>2024-04-07T08:56:12Z</time>
      </trkpt>
      <trkpt lat="44.12604" lon="1.9012">
        <ele>261.2</ele>
        <time>2024-04-07T08:56:13Z</time>
      </trkpt>
      <trkpt lat="44.12601" lon="1.90119">
        <ele>261.4</ele>
        <time>2024-04-07T08:56:14Z</time>
      </trkpt>
      <trkpt lat="44.12598" lon="1.90119">
        <ele>261.6</ele>
        <time>2024-04-07T08:56:15Z</time>
      </trkpt>
      <trkpt lat="44.12595" lon="1.90118">
        <ele>261.8</ele>
        <time>2024-04-07T08:56:16Z</time>
      </trkpt>
      <trkpt lat="44.12591" lon="1.90118">
        <ele>262.2</ele>
        <time>2024-04-07T08:56:17Z</time>
      </trkpt>
      <trkpt lat="44.12588" lon="1.90118">
        <ele>262.4</ele>
        <time>2024-04-07T08:56:18Z</time>
      </trkpt>
      <trkpt lat="44.12584" lon="1.90118">
        <ele>262.8</ele>
        <time>2024-04-07T08:56:19Z</time>
      </trkpt>
      <trkpt lat="44.12581" lon="1.90118">
        <ele>263.2</ele>
        <time>2024-04-07T08:56:20Z</time>
      </trkpt>
      <trkpt lat="44.12577" lon="1.90118">
        <ele>263.6</ele>
        <time>2024-04-07T08:56:21Z</time>
      </trkpt>
      <trkpt lat="44.12574" lon="1.90118">
        <ele>264</ele>
        <time>2024-04-07T08:56:22Z</time>
      </trkpt>
      <trkpt lat="44.1257" lon="1.90118">
        <ele>264.2</ele>
        <time>2024-04-07T08:56:23Z</time>
      </trkpt>
      <trkpt lat="44.12567" lon="1.90119">
        <ele>264.8</ele>
        <time>2024-04-07T08:56:24Z</time>
      </trkpt>
      <trkpt lat="44.12563" lon="1.90119">
        <ele>265</ele>
        <time>2024-04-07T08:56:25Z</time>
      </trkpt>
      <trkpt lat="44.1256" lon="1.9012">
        <ele>265.4</ele>
        <time>2024-04-07T08:56:26Z</time>
      </trkpt>
      <trkpt lat="44.12556" lon="1.90121">
        <ele>265.6</ele>
        <time>2024-04-07T08:56:27Z</time>
      </trkpt>
      <trkpt lat="44.12553" lon="1.90121">
        <ele>265.8</ele>
        <time>2024-04-07T08:56:28Z</time>
      </trkpt>
      <trkpt lat="44.1255" lon="1.90121">
        <ele>266.2</ele>
        <time>2024-04-07T08:56:29Z</time>
      </trkpt>
      <trkpt lat="44.12547" lon="1.90122">
        <ele>266.2</ele>
        <time>2024-04-07T08:56:30Z</time>
      </trkpt>
      <trkpt lat="44.12543" lon="1.90122">
        <ele>266.8</ele>
        <time>2024-04-07T08:56:31Z</time>
      </trkpt>
      <trkpt lat="44.1254" lon="1.90123">
        <ele>267.2</ele>
        <time>2024-04-07T08:56:32Z</time>
      </trkpt>
      <trkpt lat="44.12537" lon="1.90123">
        <ele>267.6</ele>
        <time>2024-04-07T08:56:33Z</time>
      </trkpt>
      <trkpt lat="44.12533" lon="1.90123">
        <ele>267.8</ele>
        <time>2024-04-07T08:56:34Z</time>
      </trkpt>
      <trkpt lat="44.1253" lon="1.90124">
        <ele>268.8</ele>
        <time>2024-04-07T08:56:35Z</time>
      </trkpt>
      <trkpt lat="44.12527" lon="1.90124">
        <ele>269.2</ele>
        <time>2024-04-07T08:56:36Z</time>
      </trkpt>
      <trkpt lat="44.12523" lon="1.90124">
        <ele>269.6</ele>
        <time>2024-04-07T08:56:37Z</time>
      </trkpt>
      <trkpt lat="44.12519" lon="1.90123">
        <ele>270</ele>
        <time>2024-04-07T08:56:38Z</time>
      </trkpt>
      <trkpt lat="44.12516" lon="1.90123">
        <ele>270.2</ele>
        <time>2024-04-07T08:56:39Z</time>
      </trkpt>
      <trkpt lat="44.12511" lon="1.90123">
        <ele>270.6</ele>
        <time>2024-04-07T08:56:40Z</time>
      </trkpt>
      <trkpt lat="44.12508" lon="1.90123">
        <ele>270.6</ele>
        <time>2024-04-07T08:56:41Z</time>
      </trkpt>
      <trkpt lat="44.12505" lon="1.90124">
        <ele>271.2</ele>
        <time>2024-04-07T08:56:42Z</time>
      </trkpt>
      <trkpt lat="44.12501" lon="1.90126">
        <ele>271.8</ele>
        <time>2024-04-07T08:56:43Z</time>
      </trkpt>
      <trkpt lat="44.12498" lon="1.90128">
        <ele>272.4</ele>
        <time>2024-04-07T08:56:44Z</time>
      </trkpt>
      <trkpt lat="44.12495" lon="1.90131">
        <ele>273</ele>
        <time>2024-04-07T08:56:45Z</time>
      </trkpt>
      <trkpt lat="44.12492" lon="1.90133">
        <ele>273.4</ele>
        <time>2024-04-07T08:56:46Z</time>
      </trkpt>
      <trkpt lat="44.12489" lon="1.90135">
        <ele>273.8</ele>
        <time>2024-04-07T08:56:47Z</time>
      </trkpt>
      <trkpt lat="44.12486" lon="1.90137">
        <ele>273.8</ele>
        <time>2024-04-07T08:56:48Z</time>
      </trkpt>
      <trkpt lat="44.12483" lon="1.9014">
        <ele>274.6</ele>
        <time>2024-04-07T08:56:49Z</time>
      </trkpt>
      <trkpt lat="44.1248" lon="1.90141">
        <ele>274.8</ele>
        <time>2024-04-07T08:56:50Z</time>
      </trkpt>
      <trkpt lat="44.12476" lon="1.90142">
        <ele>275.2</ele>
        <time>2024-04-07T08:56:51Z</time>
      </trkpt>
      <trkpt lat="44.12472" lon="1.90143">
        <ele>275.4</ele>
        <time>2024-04-07T08:56:52Z</time>
      </trkpt>
      <trkpt lat="44.12468" lon="1.90143">
        <ele>275.8</ele>
        <time>2024-04-07T08:56:53Z</time>
      </trkpt>
      <trkpt lat="44.12464" lon="1.90143">
        <ele>276.2</ele>
        <time>2024-04-07T08:56:54Z</time>
      </trkpt>
      <trkpt lat="44.1246" lon="1.90143">
        <ele>276.4</ele>
        <time>2024-04-07T08:56:55Z</time>
      </trkpt>
      <trkpt lat="44.12456" lon="1.90143">
        <ele>276.8</ele>
        <time>2024-04-07T08:56:56Z</time>
      </trkpt>
      <trkpt lat="44.12453" lon="1.90142">
        <ele>276.8</ele>
        <time>2024-04-07T08:56:57Z</time>
      </trkpt>
      <trkpt lat="44.12449" lon="1.90142">
        <ele>277.2</ele>
        <time>2024-04-07T08:56:58Z</time>
      </trkpt>
      <trkpt lat="44.12445" lon="1.90142">
        <ele>277.2</ele>
        <time>2024-04-07T08:56:59Z</time>
      </trkpt>
      <trkpt lat="44.12441" lon="1.90143">
        <ele>277.4</ele>
        <time>2024-04-07T08:57:00Z</time>
      </trkpt>
      <trkpt lat="44.12437" lon="1.90143">
        <ele>277.6</ele>
        <time>2024-04-07T08:57:01Z</time>
      </trkpt>
      <trkpt lat="44.12433" lon="1.90143">
        <ele>277.6</ele>
        <time>2024-04-07T08:57:02Z</time>
      </trkpt>
      <trkpt lat="44.12429" lon="1.90144">
        <ele>277.8</ele>
        <time>2024-04-07T08:57:03Z</time>
      </trkpt>
      <trkpt lat="44.12425" lon="1.90145">
        <ele>277.8</ele>
        <time>2024-04-07T08:57:04Z</time>
      </trkpt>
      <trkpt lat="44.12422" lon="1.90145">
        <ele>277.8</ele>
        <time>2024-04-07T08:57:05Z</time>
      </trkpt>
      <trkpt lat="44.12417" lon="1.90146">
        <ele>277.8</ele>
        <time>2024-04-07T08:57:06Z</time>
      </trkpt>
      <trkpt lat="44.12413" lon="1.90147">
        <ele>277.8</ele>
        <time>2024-04-07T08:57:07Z</time>
      </trkpt>
      <trkpt lat="44.12407" lon="1.90148">
        <ele>277.8</ele>
        <time>2024-04-07T08:57:08Z</time>
      </trkpt>
      <trkpt lat="44.12401" lon="1.9015">
        <ele>277.8</ele>
        <time>2024-04-07T08:57:09Z</time>
      </trkpt>
      <trkpt lat="44.12401" lon="1.9015">
        <ele>277.8</ele>
        <time>2024-04-07T08:57:10Z</time>
      </trkpt>
      <trkpt lat="44.12392" lon="1.90154">
        <ele>277.8</ele>
        <time>2024-04-07T08:57:11Z</time>
      </trkpt>
      <trkpt lat="44.12387" lon="1.90158">
        <ele>277.4</ele>
        <time>2024-04-07T08:57:12Z</time>
      </trkpt>
      <trkpt lat="44.12387" lon="1.90158">
        <ele>277.4</ele>
        <time>2024-04-07T08:57:13Z</time>
      </trkpt>
      <trkpt lat="44.12375" lon="1.90168">
        <ele>276.8</ele>
        <time>2024-04-07T08:57:14Z</time>
      </trkpt>
      <trkpt lat="44.12375" lon="1.90168">
        <ele>276.4</ele>
        <time>2024-04-07T08:57:15Z</time>
      </trkpt>
      <trkpt lat="44.12366" lon="1.90179">
        <ele>276</ele>
        <time>2024-04-07T08:57:16Z</time>
      </trkpt>
      <trkpt lat="44.12362" lon="1.90186">
        <ele>275.8</ele>
        <time>2024-04-07T08:57:17Z</time>
      </trkpt>
      <trkpt lat="44.12359" lon="1.90194">
        <ele>275.2</ele>
        <time>2024-04-07T08:57:18Z</time>
      </trkpt>
      <trkpt lat="44.12358" lon="1.90205">
        <ele>274.8</ele>
        <time>2024-04-07T08:57:19Z</time>
      </trkpt>
      <trkpt lat="44.12359" lon="1.90214">
        <ele>274.6</ele>
        <time>2024-04-07T08:57:20Z</time>
      </trkpt>
      <trkpt lat="44.12359" lon="1.90221">
        <ele>274.2</ele>
        <time>2024-04-07T08:57:21Z</time>
      </trkpt>
      <trkpt lat="44.12359" lon="1.9023">
        <ele>274.2</ele>
        <time>2024-04-07T08:57:22Z</time>
      </trkpt>
      <trkpt lat="44.12359" lon="1.90239">
        <ele>273.6</ele>
        <time>2024-04-07T08:57:23Z</time>
      </trkpt>
      <trkpt lat="44.1236" lon="1.90251">
        <ele>273.4</ele>
        <time>2024-04-07T08:57:24Z</time>
      </trkpt>
      <trkpt lat="44.1236" lon="1.9026">
        <ele>272.8</ele>
        <time>2024-04-07T08:57:25Z</time>
      </trkpt>
      <trkpt lat="44.12361" lon="1.90268">
        <ele>272.4</ele>
        <time>2024-04-07T08:57:26Z</time>
      </trkpt>
      <trkpt lat="44.12361" lon="1.90268">
        <ele>272</ele>
        <time>2024-04-07T08:57:27Z</time>
      </trkpt>
      <trkpt lat="44.12365" lon="1.90287">
        <ele>270.8</ele>
        <time>2024-04-07T08:57:28Z</time>
      </trkpt>
      <trkpt lat="44.12368" lon="1.90299">
        <ele>270.4</ele>
        <time>2024-04-07T08:57:29Z</time>
      </trkpt>
      <trkpt lat="44.12369" lon="1.90306">
        <ele>270</ele>
        <time>2024-04-07T08:57:30Z</time>
      </trkpt>
      <trkpt lat="44.12372" lon="1.90314">
        <ele>269.8</ele>
        <time>2024-04-07T08:57:31Z</time>
      </trkpt>
      <trkpt lat="44.12374" lon="1.90323">
        <ele>269.6</ele>
        <time>2024-04-07T08:57:32Z</time>
      </trkpt>
      <trkpt lat="44.12375" lon="1.90332">
        <ele>269.6</ele>
        <time>2024-04-07T08:57:33Z</time>
      </trkpt>
      <trkpt lat="44.12378" lon="1.90342">
        <ele>269.4</ele>
        <time>2024-04-07T08:57:34Z</time>
      </trkpt>
      <trkpt lat="44.1238" lon="1.90351">
        <ele>269</ele>
        <time>2024-04-07T08:57:35Z</time>
      </trkpt>
      <trkpt lat="44.12381" lon="1.90359">
        <ele>269</ele>
        <time>2024-04-07T08:57:36Z</time>
      </trkpt>
      <trkpt lat="44.12384" lon="1.90375">
        <ele>268.6</ele>
        <time>2024-04-07T08:57:38Z</time>
      </trkpt>
      <trkpt lat="44.12386" lon="1.90383">
        <ele>268.6</ele>
        <time>2024-04-07T08:57:39Z</time>
      </trkpt>
      <trkpt lat="44.12389" lon="1.90392">
        <ele>268.4</ele>
        <time>2024-04-07T08:57:40Z</time>
      </trkpt>
      <trkpt lat="44.12391" lon="1.90398">
        <ele>268.4</ele>
        <time>2024-04-07T08:57:41Z</time>
      </trkpt>
      <trkpt lat="44.12395" lon="1.90403">
        <ele>268.4</ele>
        <time>2024-04-07T08:57:42Z</time>
      </trkpt>
      <trkpt lat="44.12399" lon="1.90409">
        <ele>268.4</ele>
        <time>2024-04-07T08:57:43Z</time>
      </trkpt>
      <trkpt lat="44.12403" lon="1.90413">
        <ele>268.4</ele>
        <time>2024-04-07T08:57:44Z</time>
      </trkpt>
      <trkpt lat="44.12407" lon="1.90417">
        <ele>268.6</ele>
        <time>2024-04-07T08:57:45Z</time>
      </trkpt>
      <trkpt lat="44.12407" lon="1.90417">
        <ele>268.8</ele>
        <time>2024-04-07T08:57:46Z</time>
      </trkpt>
      <trkpt lat="44.12411" lon="1.9042">
        <ele>269</ele>
        <time>2024-04-07T08:57:47Z</time>
      </trkpt>
      <trkpt lat="44.12417" lon="1.90426">
        <ele>269.4</ele>
        <time>2024-04-07T08:57:48Z</time>
      </trkpt>
      <trkpt lat="44.12421" lon="1.90429">
        <ele>269.6</ele>
        <time>2024-04-07T08:57:49Z</time>
      </trkpt>
      <trkpt lat="44.12425" lon="1.90432">
        <ele>269.8</ele>
        <time>2024-04-07T08:57:50Z</time>
      </trkpt>
      <trkpt lat="44.12429" lon="1.90435">
        <ele>270</ele>
        <time>2024-04-07T08:57:51Z</time>
      </trkpt>
      <trkpt lat="44.12432" lon="1.90438">
        <ele>270</ele>
        <time>2024-04-07T08:57:52Z</time>
      </trkpt>
      <trkpt lat="44.12435" lon="1.90443">
        <ele>270.2</ele>
        <time>2024-04-07T08:57:53Z</time>
      </trkpt>
      <trkpt lat="44.12438" lon="1.9045">
        <ele>270.2</ele>
        <time>2024-04-07T08:57:54Z</time>
      </trkpt>
      <trkpt lat="44.12442" lon="1.90456">
        <ele>270.6</ele>
        <time>2024-04-07T08:57:55Z</time>
      </trkpt>
      <trkpt lat="44.12447" lon="1.90467">
        <ele>271.2</ele>
        <time>2024-04-07T08:57:57Z</time>
      </trkpt>
      <trkpt lat="44.12448" lon="1.90473">
        <ele>271.6</ele>
        <time>2024-04-07T08:57:58Z</time>
      </trkpt>
      <trkpt lat="44.1245" lon="1.9048">
        <ele>271.8</ele>
        <time>2024-04-07T08:57:59Z</time>
      </trkpt>
      <trkpt lat="44.12453" lon="1.90489">
        <ele>272.4</ele>
        <time>2024-04-07T08:58:00Z</time>
      </trkpt>
      <trkpt lat="44.12453" lon="1.90489">
        <ele>272.8</ele>
        <time>2024-04-07T08:58:01Z</time>
      </trkpt>
      <trkpt lat="44.1246" lon="1.90502">
        <ele>273.2</ele>
        <time>2024-04-07T08:58:02Z</time>
      </trkpt>
      <trkpt lat="44.12463" lon="1.90509">
        <ele>273.4</ele>
        <time>2024-04-07T08:58:03Z</time>
      </trkpt>
      <trkpt lat="44.12464" lon="1.90516">
        <ele>273.8</ele>
        <time>2024-04-07T08:58:04Z</time>
      </trkpt>
      <trkpt lat="44.12466" lon="1.90523">
        <ele>274</ele>
        <time>2024-04-07T08:58:05Z</time>
      </trkpt>
      <trkpt lat="44.12468" lon="1.9053">
        <ele>274</ele>
        <time>2024-04-07T08:58:06Z</time>
      </trkpt>
      <trkpt lat="44.1247" lon="1.90536">
        <ele>274.2</ele>
        <time>2024-04-07T08:58:07Z</time>
      </trkpt>
      <trkpt lat="44.12473" lon="1.90543">
        <ele>274.2</ele>
        <time>2024-04-07T08:58:08Z</time>
      </trkpt>
      <trkpt lat="44.12476" lon="1.90551">
        <ele>274.2</ele>
        <time>2024-04-07T08:58:09Z</time>
      </trkpt>
      <trkpt lat="44.12479" lon="1.90556">
        <ele>274.2</ele>
        <time>2024-04-07T08:58:10Z</time>
      </trkpt>
      <trkpt lat="44.12483" lon="1.90564">
        <ele>274.2</ele>
        <time>2024-04-07T08:58:11Z</time>
      </trkpt>
      <trkpt lat="44.12487" lon="1.90571">
        <ele>274</ele>
        <time>2024-04-07T08:58:12Z</time>
      </trkpt>
      <trkpt lat="44.12492" lon="1.90578">
        <ele>273.8</ele>
        <time>2024-04-07T08:58:13Z</time>
      </trkpt>
      <trkpt lat="44.12498" lon="1.90586">
        <ele>273.8</ele>
        <time>2024-04-07T08:58:14Z</time>
      </trkpt>
      <trkpt lat="44.12505" lon="1.90593">
        <ele>273.2</ele>
        <time>2024-04-07T08:58:15Z</time>
      </trkpt>
      <trkpt lat="44.12513" lon="1.906">
        <ele>272.6</ele>
        <time>2024-04-07T08:58:16Z</time>
      </trkpt>
      <trkpt lat="44.12521" lon="1.90607">
        <ele>272.2</ele>
        <time>2024-04-07T08:58:17Z</time>
      </trkpt>
      <trkpt lat="44.12528" lon="1.90612">
        <ele>271.6</ele>
        <time>2024-04-07T08:58:18Z</time>
      </trkpt>
      <trkpt lat="44.12539" lon="1.90619">
        <ele>271.2</ele>
        <time>2024-04-07T08:58:19Z</time>
      </trkpt>
      <trkpt lat="44.12547" lon="1.90624">
        <ele>270</ele>
        <time>2024-04-07T08:58:20Z</time>
      </trkpt>
      <trkpt lat="44.12557" lon="1.90633">
        <ele>269.6</ele>
        <time>2024-04-07T08:58:21Z</time>
      </trkpt>
      <trkpt lat="44.12566" lon="1.90642">
        <ele>268.2</ele>
        <time>2024-04-07T08:58:22Z</time>
      </trkpt>
      <trkpt lat="44.12574" lon="1.90651">
        <ele>267.2</ele>
        <time>2024-04-07T08:58:23Z</time>
      </trkpt>
      <trkpt lat="44.1258" lon="1.90659">
        <ele>266.8</ele>
        <time>2024-04-07T08:58:24Z</time>
      </trkpt>
      <trkpt lat="44.12586" lon="1.90668">
        <ele>265.6</ele>
        <time>2024-04-07T08:58:25Z</time>
      </trkpt>
      <trkpt lat="44.12591" lon="1.90681">
        <ele>265</ele>
        <time>2024-04-07T08:58:26Z</time>
      </trkpt>
      <trkpt lat="44.12595" lon="1.90691">
        <ele>264.2</ele>
        <time>2024-04-07T08:58:27Z</time>
      </trkpt>
      <trkpt lat="44.12599" lon="1.90702">
        <ele>264</ele>
        <time>2024-04-07T08:58:28Z</time>
      </trkpt>
      <trkpt lat="44.12601" lon="1.9071">
        <ele>263.8</ele>
        <time>2024-04-07T08:58:29Z</time>
      </trkpt>
      <trkpt lat="44.12604" lon="1.9072">
        <ele>263.8</ele>
        <time>2024-04-07T08:58:30Z</time>
      </trkpt>
      <trkpt lat="44.12608" lon="1.9073">
        <ele>263.6</ele>
        <time>2024-04-07T08:58:31Z</time>
      </trkpt>
      <trkpt lat="44.12611" lon="1.90739">
        <ele>263.4</ele>
        <time>2024-04-07T08:58:32Z</time>
      </trkpt>
      <trkpt lat="44.12614" lon="1.90747">
        <ele>263.4</ele>
        <time>2024-04-07T08:58:33Z</time>
      </trkpt>
      <trkpt lat="44.12616" lon="1.90755">
        <ele>263.6</ele>
        <time>2024-04-07T08:58:34Z</time>
      </trkpt>
      <trkpt lat="44.12618" lon="1.90761">
        <ele>263.6</ele>
        <time>2024-04-07T08:58:35Z</time>
      </trkpt>
      <trkpt lat="44.1262" lon="1.90769">
        <ele>264</ele>
        <time>2024-04-07T08:58:36Z</time>
      </trkpt>
      <trkpt lat="44.12621" lon="1.90777">
        <ele>264.2</ele>
        <time>2024-04-07T08:58:37Z</time>
      </trkpt>
      <trkpt lat="44.12622" lon="1.90784">
        <ele>264.4</ele>
        <time>2024-04-07T08:58:38Z</time>
      </trkpt>
      <trkpt lat="44.12622" lon="1.90789">
        <ele>264.8</ele>
        <time>2024-04-07T08:58:39Z</time>
      </trkpt>
      <trkpt lat="44.12621" lon="1.90798">
        <ele>265</ele>
        <time>2024-04-07T08:58:40Z</time>
      </trkpt>
      <trkpt lat="44.12619" lon="1.90805">
        <ele>265.6</ele>
        <time>2024-04-07T08:58:41Z</time>
      </trkpt>
      <trkpt lat="44.12618" lon="1.90812">
        <ele>266</ele>
        <time>2024-04-07T08:58:42Z</time>
      </trkpt>
      <trkpt lat="44.12616" lon="1.90819">
        <ele>266.6</ele>
        <time>2024-04-07T08:58:43Z</time>
      </trkpt>
      <trkpt lat="44.12615" lon="1.90826">
        <ele>266.8</ele>
        <time>2024-04-07T08:58:44Z</time>
      </trkpt>
      <trkpt lat="44.12612" lon="1.90833">
        <ele>267.4</ele>
        <time>2024-04-07T08:58:45Z</time>
      </trkpt>
      <trkpt lat="44.1261" lon="1.9084">
        <ele>267.6</ele>
        <time>2024-04-07T08:58:46Z</time>
      </trkpt>
      <trkpt lat="44.12609" lon="1.90846">
        <ele>268.2</ele>
        <time>2024-04-07T08:58:47Z</time>
      </trkpt>
      <trkpt lat="44.12607" lon="1.90852">
        <ele>268.6</ele>
        <time>2024-04-07T08:58:48Z</time>
      </trkpt>
      <trkpt lat="44.12606" lon="1.90859">
        <ele>269</ele>
        <time>2024-04-07T08:58:49Z</time>
      </trkpt>
      <trkpt lat="44.12605" lon="1.90864">
        <ele>269.6</ele>
        <time>2024-04-07T08:58:50Z</time>
      </trkpt>
      <trkpt lat="44.12604" lon="1.90871">
        <ele>270</ele>
        <time>2024-04-07T08:58:51Z</time>
      </trkpt>
      <trkpt lat="44.12603" lon="1.9088">
        <ele>270.2</ele>
        <time>2024-04-07T08:58:52Z</time>
      </trkpt>
      <trkpt lat="44.12602" lon="1.90887">
        <ele>270.4</ele>
        <time>2024-04-07T08:58:53Z</time>
      </trkpt>
      <trkpt lat="44.12601" lon="1.90895">
        <ele>270.6</ele>
        <time>2024-04-07T08:58:54Z</time>
      </trkpt>
      <trkpt lat="44.12601" lon="1.90903">
        <ele>271</ele>
        <time>2024-04-07T08:58:55Z</time>
      </trkpt>
      <trkpt lat="44.12601" lon="1.90909">
        <ele>271.2</ele>
        <time>2024-04-07T08:58:56Z</time>
      </trkpt>
      <trkpt lat="44.12601" lon="1.90918">
        <ele>271.4</ele>
        <time>2024-04-07T08:58:57Z</time>
      </trkpt>
      <trkpt lat="44.12603" lon="1.90925">
        <ele>271.4</ele>
        <time>2024-04-07T08:58:58Z</time>
      </trkpt>
      <trkpt lat="44.12604" lon="1.90932">
        <ele>271.6</ele>
        <time>2024-04-07T08:58:59Z</time>
      </trkpt>
      <trkpt lat="44.12605" lon="1.90937">
        <ele>271.6</ele>
        <time>2024-04-07T08:59:00Z</time>
      </trkpt>
      <trkpt lat="44.12607" lon="1.90945">
        <ele>271.8</ele>
        <time>2024-04-07T08:59:01Z</time>
      </trkpt>
      <trkpt lat="44.12611" lon="1.90954">
        <ele>272</ele>
        <time>2024-04-07T08:59:02Z</time>
      </trkpt>
      <trkpt lat="44.12614" lon="1.90961">
        <ele>272.2</ele>
        <time>2024-04-07T08:59:03Z</time>
      </trkpt>
      <trkpt lat="44.12617" lon="1.90967">
        <ele>272.4</ele>
        <time>2024-04-07T08:59:04Z</time>
      </trkpt>
      <trkpt lat="44.1262" lon="1.90975">
        <ele>272.4</ele>
        <time>2024-04-07T08:59:05Z</time>
      </trkpt>
      <trkpt lat="44.12623" lon="1.90983">
        <ele>272.4</ele>
        <time>2024-04-07T08:59:06Z</time>
      </trkpt>
      <trkpt lat="44.12628" lon="1.90993">
        <ele>272.4</ele>
        <time>2024-04-07T08:59:07Z</time>
      </trkpt>
      <trkpt lat="44.12631" lon="1.91002">
        <ele>272.2</ele>
        <time>2024-04-07T08:59:08Z</time>
      </trkpt>
      <trkpt lat="44.12635" lon="1.91012">
        <ele>272.2</ele>
        <time>2024-04-07T08:59:09Z</time>
      </trkpt>
      <trkpt lat="44.12638" lon="1.91019">
        <ele>271.8</ele>
        <time>2024-04-07T08:59:10Z</time>
      </trkpt>
      <trkpt lat="44.12641" lon="1.91028">
        <ele>271.6</ele>
        <time>2024-04-07T08:59:11Z</time>
      </trkpt>
      <trkpt lat="44.12645" lon="1.9104">
        <ele>271.4</ele>
        <time>2024-04-07T08:59:12Z</time>
      </trkpt>
      <trkpt lat="44.12648" lon="1.91049">
        <ele>271.2</ele>
        <time>2024-04-07T08:59:13Z</time>
      </trkpt>
      <trkpt lat="44.12651" lon="1.91059">
        <ele>271</ele>
        <time>2024-04-07T08:59:14Z</time>
      </trkpt>
      <trkpt lat="44.12653" lon="1.91065">
        <ele>270.4</ele>
        <time>2024-04-07T08:59:15Z</time>
      </trkpt>
      <trkpt lat="44.12655" lon="1.91075">
        <ele>270.2</ele>
        <time>2024-04-07T08:59:16Z</time>
      </trkpt>
      <trkpt lat="44.12657" lon="1.91083">
        <ele>270</ele>
        <time>2024-04-07T08:59:17Z</time>
      </trkpt>
      <trkpt lat="44.12659" lon="1.91093">
        <ele>269.8</ele>
        <time>2024-04-07T08:59:18Z</time>
      </trkpt>
      <trkpt lat="44.12661" lon="1.91101">
        <ele>269.8</ele>
        <time>2024-04-07T08:59:19Z</time>
      </trkpt>
      <trkpt lat="44.12662" lon="1.91108">
        <ele>269.6</ele>
        <time>2024-04-07T08:59:20Z</time>
      </trkpt>
      <trkpt lat="44.12664" lon="1.91115">
        <ele>269.6</ele>
        <time>2024-04-07T08:59:21Z</time>
      </trkpt>
      <trkpt lat="44.12665" lon="1.91122">
        <ele>269.6</ele>
        <time>2024-04-07T08:59:22Z</time>
      </trkpt>
      <trkpt lat="44.12666" lon="1.9113">
        <ele>269.6</ele>
        <time>2024-04-07T08:59:23Z</time>
      </trkpt>
      <trkpt lat="44.12668" lon="1.91137">
        <ele>269.6</ele>
        <time>2024-04-07T08:59:24Z</time>
      </trkpt>
      <trkpt lat="44.12669" lon="1.91143">
        <ele>269.6</ele>
        <time>2024-04-07T08:59:25Z</time>
      </trkpt>
      <trkpt lat="44.1267" lon="1.91149">
        <ele>269.8</ele>
        <time>2024-04-07T08:59:26Z</time>
      </trkpt>
      <trkpt lat="44.12671" lon="1.91156">
        <ele>270</ele>
        <time>2024-04-07T08:59:27Z</time>
      </trkpt>
      <trkpt lat="44.12673" lon="1.91163">
        <ele>270</ele>
        <time>2024-04-07T08:59:28Z</time>
      </trkpt>
      <trkpt lat="44.12673" lon="1.91163">
        <ele>270</ele>
        <time>2024-04-07T08:59:29Z</time>
      </trkpt>
      <trkpt lat="44.12676" lon="1.91177">
        <ele>270.2</ele>
        <time>2024-04-07T08:59:30Z</time>
      </trkpt>
      <trkpt lat="44.12677" lon="1.91184">
        <ele>270.4</ele>
        <time>2024-04-07T08:59:31Z</time>
      </trkpt>
      <trkpt lat="44.12678" lon="1.9119">
        <ele>270.8</ele>
        <time>2024-04-07T08:59:33Z</time>
      </trkpt>
      <trkpt lat="44.12681" lon="1.91204">
        <ele>271</ele>
        <time>2024-04-07T08:59:34Z</time>
      </trkpt>
      <trkpt lat="44.12681" lon="1.91211">
        <ele>271.6</ele>
        <time>2024-04-07T08:59:35Z</time>
      </trkpt>
      <trkpt lat="44.12682" lon="1.91217">
        <ele>272</ele>
        <time>2024-04-07T08:59:36Z</time>
      </trkpt>
      <trkpt lat="44.12684" lon="1.91224">
        <ele>272.2</ele>
        <time>2024-04-07T08:59:37Z</time>
      </trkpt>
      <trkpt lat="44.12684" lon="1.9123">
        <ele>272.6</ele>
        <time>2024-04-07T08:59:38Z</time>
      </trkpt>
      <trkpt lat="44.12685" lon="1.91239">
        <ele>272.8</ele>
        <time>2024-04-07T08:59:39Z</time>
      </trkpt>
      <trkpt lat="44.12685" lon="1.91239">
        <ele>273.2</ele>
        <time>2024-04-07T08:59:40Z</time>
      </trkpt>
      <trkpt lat="44.12685" lon="1.91252">
        <ele>273.2</ele>
        <time>2024-04-07T08:59:41Z</time>
      </trkpt>
      <trkpt lat="44.12687" lon="1.91259">
        <ele>273.6</ele>
        <time>2024-04-07T08:59:42Z</time>
      </trkpt>
      <trkpt lat="44.12688" lon="1.91267">
        <ele>273.8</ele>
        <time>2024-04-07T08:59:43Z</time>
      </trkpt>
      <trkpt lat="44.12689" lon="1.91275">
        <ele>274.2</ele>
        <time>2024-04-07T08:59:44Z</time>
      </trkpt>
      <trkpt lat="44.12689" lon="1.91275">
        <ele>274.4</ele>
        <time>2024-04-07T08:59:45Z</time>
      </trkpt>
      <trkpt lat="44.12689" lon="1.91291">
        <ele>274.4</ele>
        <time>2024-04-07T08:59:46Z</time>
      </trkpt>
      <trkpt lat="44.12689" lon="1.91298">
        <ele>274.8</ele>
        <time>2024-04-07T08:59:47Z</time>
      </trkpt>
      <trkpt lat="44.12689" lon="1.91305">
        <ele>275.4</ele>
        <time>2024-04-07T08:59:48Z</time>
      </trkpt>
      <trkpt lat="44.12688" lon="1.91313">
        <ele>276.2</ele>
        <time>2024-04-07T08:59:49Z</time>
      </trkpt>
      <trkpt lat="44.12688" lon="1.91319">
        <ele>276.6</ele>
        <time>2024-04-07T08:59:50Z</time>
      </trkpt>
      <trkpt lat="44.12687" lon="1.91326">
        <ele>277.2</ele>
        <time>2024-04-07T08:59:51Z</time>
      </trkpt>
      <trkpt lat="44.12687" lon="1.91332">
        <ele>277.8</ele>
        <time>2024-04-07T08:59:52Z</time>
      </trkpt>
      <trkpt lat="44.12686" lon="1.9134">
        <ele>278</ele>
        <time>2024-04-07T08:59:53Z</time>
      </trkpt>
      <trkpt lat="44.12685" lon="1.91349">
        <ele>278.4</ele>
        <time>2024-04-07T08:59:54Z</time>
      </trkpt>
      <trkpt lat="44.12683" lon="1.91355">
        <ele>278.8</ele>
        <time>2024-04-07T08:59:55Z</time>
      </trkpt>
      <trkpt lat="44.12682" lon="1.91362">
        <ele>279.4</ele>
        <time>2024-04-07T08:59:56Z</time>
      </trkpt>
      <trkpt lat="44.1268" lon="1.91369">
        <ele>279.6</ele>
        <time>2024-04-07T08:59:57Z</time>
      </trkpt>
      <trkpt lat="44.12678" lon="1.91376">
        <ele>280.4</ele>
        <time>2024-04-07T08:59:58Z</time>
      </trkpt>
      <trkpt lat="44.12678" lon="1.91376">
        <ele>280.8</ele>
        <time>2024-04-07T08:59:59Z</time>
      </trkpt>
      <trkpt lat="44.12675" lon="1.9139">
        <ele>281.2</ele>
        <time>2024-04-07T09:00:00Z</time>
      </trkpt>
      <trkpt lat="44.12673" lon="1.91397">
        <ele>281.6</ele>
        <time>2024-04-07T09:00:01Z</time>
      </trkpt>
      <trkpt lat="44.12671" lon="1.91404">
        <ele>282</ele>
        <time>2024-04-07T09:00:02Z</time>
      </trkpt>
      <trkpt lat="44.12669" lon="1.91411">
        <ele>282.6</ele>
        <time>2024-04-07T09:00:03Z</time>
      </trkpt>
      <trkpt lat="44.12667" lon="1.91418">
        <ele>282.8</ele>
        <time>2024-04-07T09:00:04Z</time>
      </trkpt>
      <trkpt lat="44.12664" lon="1.91426">
        <ele>283.2</ele>
        <time>2024-04-07T09:00:05Z</time>
      </trkpt>
      <trkpt lat="44.12661" lon="1.91432">
        <ele>283.2</ele>
        <time>2024-04-07T09:00:06Z</time>
      </trkpt>
      <trkpt lat="44.12659" lon="1.91438">
        <ele>283.4</ele>
        <time>2024-04-07T09:00:07Z</time>
      </trkpt>
      <trkpt lat="44.12657" lon="1.91444">
        <ele>283.8</ele>
        <time>2024-04-07T09:00:08Z</time>
      </trkpt>
      <trkpt lat="44.12654" lon="1.9145">
        <ele>284</ele>
        <time>2024-04-07T09:00:09Z</time>
      </trkpt>
      <trkpt lat="44.12652" lon="1.91457">
        <ele>284.4</ele>
        <time>2024-04-07T09:00:10Z</time>
      </trkpt>
      <trkpt lat="44.12649" lon="1.91463">
        <ele>284.4</ele>
        <time>2024-04-07T09:00:11Z</time>
      </trkpt>
      <trkpt lat="44.12647" lon="1.9147">
        <ele>284.6</ele>
        <time>2024-04-07T09:00:12Z</time>
      </trkpt>
      <trkpt lat="44.12645" lon="1.91476">
        <ele>284.8</ele>
        <time>2024-04-07T09:00:13Z</time>
      </trkpt>
      <trkpt lat="44.12643" lon="1.91483">
        <ele>284.8</ele>
        <time>2024-04-07T09:00:14Z</time>
      </trkpt>
      <trkpt lat="44.1264" lon="1.91491">
        <ele>284.8</ele>
        <time>2024-04-07T09:00:15Z</time>
      </trkpt>
      <trkpt lat="44.12638" lon="1.91498">
        <ele>285</ele>
        <time>2024-04-07T09:00:16Z</time>
      </trkpt>
      <trkpt lat="44.12637" lon="1.91504">
        <ele>285</ele>
        <time>2024-04-07T09:00:17Z</time>
      </trkpt>
      <trkpt lat="44.12634" lon="1.91511">
        <ele>285</ele>
        <time>2024-04-07T09:00:18Z</time>
      </trkpt>
      <trkpt lat="44.12631" lon="1.91518">
        <ele>285.2</ele>
        <time>2024-04-07T09:00:19Z</time>
      </trkpt>
      <trkpt lat="44.12628" lon="1.91525">
        <ele>285.2</ele>
        <time>2024-04-07T09:00:20Z</time>
      </trkpt>
      <trkpt lat="44.12625" lon="1.91532">
        <ele>285.2</ele>
        <time>2024-04-07T09:00:21Z</time>
      </trkpt>
      <trkpt lat="44.12622" lon="1.91539">
        <ele>285.2</ele>
        <time>2024-04-07T09:00:22Z</time>
      </trkpt>
      <trkpt lat="44.12619" lon="1.91547">
        <ele>285.2</ele>
        <time>2024-04-07T09:00:23Z</time>
      </trkpt>
      <trkpt lat="44.12617" lon="1.91554">
        <ele>285.2</ele>
        <time>2024-04-07T09:00:24Z</time>
      </trkpt>
      <trkpt lat="44.12614" lon="1.91562">
        <ele>285.2</ele>
        <time>2024-04-07T09:00:25Z</time>
      </trkpt>
      <trkpt lat="44.12612" lon="1.9157">
        <ele>285.2</ele>
        <time>2024-04-07T09:00:26Z</time>
      </trkpt>
      <trkpt lat="44.12608" lon="1.91579">
        <ele>285.2</ele>
        <time>2024-04-07T09:00:27Z</time>
      </trkpt>
      <trkpt lat="44.12605" lon="1.91584">
        <ele>285.2</ele>
        <time>2024-04-07T09:00:28Z</time>
      </trkpt>
      <trkpt lat="44.12602" lon="1.91591">
        <ele>285</ele>
        <time>2024-04-07T09:00:29Z</time>
      </trkpt>
      <trkpt lat="44.12598" lon="1.91598">
        <ele>285</ele>
        <time>2024-04-07T09:00:30Z</time>
      </trkpt>
      <trkpt lat="44.12595" lon="1.91606">
        <ele>285</ele>
        <time>2024-04-07T09:00:31Z</time>
      </trkpt>
      <trkpt lat="44.12592" lon="1.91613">
        <ele>285</ele>
        <time>2024-04-07T09:00:32Z</time>
      </trkpt>
      <trkpt lat="44.1259" lon="1.91619">
        <ele>285</ele>
        <time>2024-04-07T09:00:33Z</time>
      </trkpt>
      <trkpt lat="44.12587" lon="1.91627">
        <ele>284.8</ele>
        <time>2024-04-07T09:00:34Z</time>
      </trkpt>
      <trkpt lat="44.12584" lon="1.91634">
        <ele>284.8</ele>
        <time>2024-04-07T09:00:35Z</time>
      </trkpt>
      <trkpt lat="44.12581" lon="1.91641">
        <ele>284.8</ele>
        <time>2024-04-07T09:00:36Z</time>
      </trkpt>
      <trkpt lat="44.12578" lon="1.9165">
        <ele>284.8</ele>
        <time>2024-04-07T09:00:37Z</time>
      </trkpt>
      <trkpt lat="44.12573" lon="1.91663">
        <ele>284.8</ele>
        <time>2024-04-07T09:00:39Z</time>
      </trkpt>
      <trkpt lat="44.12571" lon="1.9167">
        <ele>284.8</ele>
        <time>2024-04-07T09:00:40Z</time>
      </trkpt>
      <trkpt lat="44.12568" lon="1.91677">
        <ele>285</ele>
        <time>2024-04-07T09:00:41Z</time>
      </trkpt>
      <trkpt lat="44.12565" lon="1.91686">
        <ele>285</ele>
        <time>2024-04-07T09:00:42Z</time>
      </trkpt>
      <trkpt lat="44.12563" lon="1.91699">
        <ele>285.2</ele>
        <time>2024-04-07T09:00:44Z</time>
      </trkpt>
      <trkpt lat="44.12563" lon="1.91707">
        <ele>285.2</ele>
        <time>2024-04-07T09:00:45Z</time>
      </trkpt>
      <trkpt lat="44.12564" lon="1.91716">
        <ele>285.4</ele>
        <time>2024-04-07T09:00:46Z</time>
      </trkpt>
      <trkpt lat="44.12565" lon="1.91724">
        <ele>285.4</ele>
        <time>2024-04-07T09:00:47Z</time>
      </trkpt>
      <trkpt lat="44.12567" lon="1.9174">
        <ele>285.6</ele>
        <time>2024-04-07T09:00:49Z</time>
      </trkpt>
      <trkpt lat="44.12568" lon="1.91748">
        <ele>285.6</ele>
        <time>2024-04-07T09:00:50Z</time>
      </trkpt>
      <trkpt lat="44.1257" lon="1.91765">
        <ele>285.8</ele>
        <time>2024-04-07T09:00:52Z</time>
      </trkpt>
      <trkpt lat="44.12571" lon="1.91774">
        <ele>286</ele>
        <time>2024-04-07T09:00:53Z</time>
      </trkpt>
      <trkpt lat="44.12572" lon="1.91792">
        <ele>285.6</ele>
        <time>2024-04-07T09:00:55Z</time>
      </trkpt>
      <trkpt lat="44.12573" lon="1.91802">
        <ele>285.6</ele>
        <time>2024-04-07T09:00:56Z</time>
      </trkpt>
      <trkpt lat="44.12573" lon="1.91821">
        <ele>285.6</ele>
        <time>2024-04-07T09:00:58Z</time>
      </trkpt>
      <trkpt lat="44.12574" lon="1.91831">
        <ele>285.4</ele>
        <time>2024-04-07T09:00:59Z</time>
      </trkpt>
      <trkpt lat="44.12574" lon="1.91852">
        <ele>284.6</ele>
        <time>2024-04-07T09:01:01Z</time>
      </trkpt>
      <trkpt lat="44.12574" lon="1.91863">
        <ele>284</ele>
        <time>2024-04-07T09:01:02Z</time>
      </trkpt>
      <trkpt lat="44.12575" lon="1.91873">
        <ele>283.6</ele>
        <time>2024-04-07T09:01:03Z</time>
      </trkpt>
      <trkpt lat="44.12575" lon="1.91882">
        <ele>283</ele>
        <time>2024-04-07T09:01:04Z</time>
      </trkpt>
      <trkpt lat="44.12575" lon="1.91893">
        <ele>282.6</ele>
        <time>2024-04-07T09:01:05Z</time>
      </trkpt>
      <trkpt lat="44.12576" lon="1.91918">
        <ele>281.2</ele>
        <time>2024-04-07T09:01:07Z</time>
      </trkpt>
      <trkpt lat="44.12577" lon="1.9194">
        <ele>280</ele>
        <time>2024-04-07T09:01:09Z</time>
      </trkpt>
      <trkpt lat="44.12577" lon="1.91952">
        <ele>279.6</ele>
        <time>2024-04-07T09:01:10Z</time>
      </trkpt>
      <trkpt lat="44.12578" lon="1.9198">
        <ele>278.8</ele>
        <time>2024-04-07T09:01:12Z</time>
      </trkpt>
      <trkpt lat="44.12579" lon="1.92003">
        <ele>277.4</ele>
        <time>2024-04-07T09:01:14Z</time>
      </trkpt>
      <trkpt lat="44.12579" lon="1.92016">
        <ele>276.2</ele>
        <time>2024-04-07T09:01:16Z</time>
      </trkpt>
      <trkpt lat="44.12581" lon="1.92044">
        <ele>275.6</ele>
        <time>2024-04-07T09:01:17Z</time>
      </trkpt>
      <trkpt lat="44.12581" lon="1.92044">
        <ele>275</ele>
        <time>2024-04-07T09:01:18Z</time>
      </trkpt>
      <trkpt lat="44.12584" lon="1.92068">
        <ele>274.6</ele>
        <time>2024-04-07T09:01:19Z</time>
      </trkpt>
      <trkpt lat="44.12586" lon="1.92081">
        <ele>274</ele>
        <time>2024-04-07T09:01:20Z</time>
      </trkpt>
      <trkpt lat="44.12594" lon="1.92109">
        <ele>273</ele>
        <time>2024-04-07T09:01:22Z</time>
      </trkpt>
      <trkpt lat="44.12594" lon="1.92109">
        <ele>272.2</ele>
        <time>2024-04-07T09:01:23Z</time>
      </trkpt>
      <trkpt lat="44.12601" lon="1.92131">
        <ele>272</ele>
        <time>2024-04-07T09:01:24Z</time>
      </trkpt>
      <trkpt lat="44.12606" lon="1.92143">
        <ele>271.6</ele>
        <time>2024-04-07T09:01:25Z</time>
      </trkpt>
      <trkpt lat="44.1261" lon="1.92154">
        <ele>271.4</ele>
        <time>2024-04-07T09:01:26Z</time>
      </trkpt>
      <trkpt lat="44.12616" lon="1.92168">
        <ele>270.6</ele>
        <time>2024-04-07T09:01:27Z</time>
      </trkpt>
      <trkpt lat="44.12621" lon="1.92177">
        <ele>270.2</ele>
        <time>2024-04-07T09:01:28Z</time>
      </trkpt>
      <trkpt lat="44.12635" lon="1.92198">
        <ele>268.6</ele>
        <time>2024-04-07T09:01:30Z</time>
      </trkpt>
      <trkpt lat="44.12647" lon="1.9222">
        <ele>267</ele>
        <time>2024-04-07T09:01:32Z</time>
      </trkpt>
      <trkpt lat="44.12647" lon="1.9222">
        <ele>266.6</ele>
        <time>2024-04-07T09:01:33Z</time>
      </trkpt>
      <trkpt lat="44.12652" lon="1.92246">
        <ele>265.2</ele>
        <time>2024-04-07T09:01:34Z</time>
      </trkpt>
      <trkpt lat="44.12652" lon="1.9226">
        <ele>264.6</ele>
        <time>2024-04-07T09:01:35Z</time>
      </trkpt>
      <trkpt lat="44.12652" lon="1.92272">
        <ele>263.6</ele>
        <time>2024-04-07T09:01:36Z</time>
      </trkpt>
      <trkpt lat="44.12651" lon="1.92287">
        <ele>262.6</ele>
        <time>2024-04-07T09:01:37Z</time>
      </trkpt>
      <trkpt lat="44.1265" lon="1.92299">
        <ele>262</ele>
        <time>2024-04-07T09:01:38Z</time>
      </trkpt>
      <trkpt lat="44.12649" lon="1.92308">
        <ele>261.4</ele>
        <time>2024-04-07T09:01:39Z</time>
      </trkpt>
      <trkpt lat="44.12649" lon="1.92319">
        <ele>261</ele>
        <time>2024-04-07T09:01:40Z</time>
      </trkpt>
      <trkpt lat="44.12648" lon="1.92329">
        <ele>260.8</ele>
        <time>2024-04-07T09:01:41Z</time>
      </trkpt>
      <trkpt lat="44.12646" lon="1.92339">
        <ele>260.6</ele>
        <time>2024-04-07T09:01:42Z</time>
      </trkpt>
      <trkpt lat="44.12646" lon="1.92339">
        <ele>260.4</ele>
        <time>2024-04-07T09:01:43Z</time>
      </trkpt>
      <trkpt lat="44.12644" lon="1.92346">
        <ele>260.2</ele>
        <time>2024-04-07T09:01:44Z</time>
      </trkpt>
      <trkpt lat="44.12638" lon="1.92356">
        <ele>260</ele>
        <time>2024-04-07T09:01:45Z</time>
      </trkpt>
      <trkpt lat="44.12634" lon="1.92361">
        <ele>260</ele>
        <time>2024-04-07T09:01:46Z</time>
      </trkpt>
      <trkpt lat="44.1263" lon="1.92366">
        <ele>259.8</ele>
        <time>2024-04-07T09:01:47Z</time>
      </trkpt>
      <trkpt lat="44.1263" lon="1.92366">
        <ele>259.8</ele>
        <time>2024-04-07T09:01:48Z</time>
      </trkpt>
      <trkpt lat="44.12625" lon="1.92373">
        <ele>259.8</ele>
        <time>2024-04-07T09:01:49Z</time>
      </trkpt>
      <trkpt lat="44.12619" lon="1.92383">
        <ele>260</ele>
        <time>2024-04-07T09:01:50Z</time>
      </trkpt>
      <trkpt lat="44.12616" lon="1.92389">
        <ele>260.2</ele>
        <time>2024-04-07T09:01:51Z</time>
      </trkpt>
      <trkpt lat="44.12613" lon="1.92396">
        <ele>260.4</ele>
        <time>2024-04-07T09:01:52Z</time>
      </trkpt>
      <trkpt lat="44.1261" lon="1.92402">
        <ele>260.4</ele>
        <time>2024-04-07T09:01:53Z</time>
      </trkpt>
      <trkpt lat="44.12607" lon="1.9241">
        <ele>260.6</ele>
        <time>2024-04-07T09:01:54Z</time>
      </trkpt>
      <trkpt lat="44.12605" lon="1.92417">
        <ele>260.8</ele>
        <time>2024-04-07T09:01:55Z</time>
      </trkpt>
      <trkpt lat="44.12602" lon="1.92423">
        <ele>260.8</ele>
        <time>2024-04-07T09:01:56Z</time>
      </trkpt>
      <trkpt lat="44.12597" lon="1.92437">
        <ele>261.2</ele>
        <time>2024-04-07T09:01:58Z</time>
      </trkpt>
      <trkpt lat="44.12594" lon="1.92444">
        <ele>261.8</ele>
        <time>2024-04-07T09:01:59Z</time>
      </trkpt>
      <trkpt lat="44.12594" lon="1.92444">
        <ele>261.8</ele>
        <time>2024-04-07T09:02:00Z</time>
      </trkpt>
      <trkpt lat="44.12588" lon="1.92458">
        <ele>262</ele>
        <time>2024-04-07T09:02:01Z</time>
      </trkpt>
      <trkpt lat="44.12586" lon="1.92464">
        <ele>262.4</ele>
        <time>2024-04-07T09:02:02Z</time>
      </trkpt>
      <trkpt lat="44.12583" lon="1.92471">
        <ele>262.4</ele>
        <time>2024-04-07T09:02:03Z</time>
      </trkpt>
      <trkpt lat="44.1258" lon="1.92477">
        <ele>262.8</ele>
        <time>2024-04-07T09:02:04Z</time>
      </trkpt>
      <trkpt lat="44.12578" lon="1.92484">
        <ele>263</ele>
        <time>2024-04-07T09:02:05Z</time>
      </trkpt>
      <trkpt lat="44.12575" lon="1.9249">
        <ele>263.2</ele>
        <time>2024-04-07T09:02:06Z</time>
      </trkpt>
      <trkpt lat="44.12573" lon="1.92497">
        <ele>263.4</ele>
        <time>2024-04-07T09:02:07Z</time>
      </trkpt>
      <trkpt lat="44.12573" lon="1.92497">
        <ele>263.6</ele>
        <time>2024-04-07T09:02:08Z</time>
      </trkpt>
      <trkpt lat="44.12569" lon="1.92511">
        <ele>263.6</ele>
        <time>2024-04-07T09:02:09Z</time>
      </trkpt>
      <trkpt lat="44.12567" lon="1.92518">
        <ele>264</ele>
        <time>2024-04-07T09:02:10Z</time>
      </trkpt>
      <trkpt lat="44.12566" lon="1.92525">
        <ele>264.4</ele>
        <time>2024-04-07T09:02:11Z</time>
      </trkpt>
      <trkpt lat="44.12563" lon="1.9254">
        <ele>264.8</ele>
        <time>2024-04-07T09:02:13Z</time>
      </trkpt>
      <trkpt lat="44.12563" lon="1.92548">
        <ele>264.8</ele>
        <time>2024-04-07T09:02:14Z</time>
      </trkpt>
      <trkpt lat="44.12563" lon="1.92548">
        <ele>265.2</ele>
        <time>2024-04-07T09:02:15Z</time>
      </trkpt>
      <trkpt lat="44.12562" lon="1.92564">
        <ele>265.4</ele>
        <time>2024-04-07T09:02:16Z</time>
      </trkpt>
      <trkpt lat="44.12563" lon="1.92572">
        <ele>265.6</ele>
        <time>2024-04-07T09:02:17Z</time>
      </trkpt>
      <trkpt lat="44.12563" lon="1.9258">
        <ele>266</ele>
        <time>2024-04-07T09:02:18Z</time>
      </trkpt>
      <trkpt lat="44.12564" lon="1.92588">
        <ele>266</ele>
        <time>2024-04-07T09:02:19Z</time>
      </trkpt>
      <trkpt lat="44.12565" lon="1.92596">
        <ele>266.4</ele>
        <time>2024-04-07T09:02:20Z</time>
      </trkpt>
      <trkpt lat="44.12567" lon="1.92605">
        <ele>266.4</ele>
        <time>2024-04-07T09:02:21Z</time>
      </trkpt>
      <trkpt lat="44.12569" lon="1.92613">
        <ele>266.8</ele>
        <time>2024-04-07T09:02:22Z</time>
      </trkpt>
      <trkpt lat="44.12572" lon="1.92622">
        <ele>267</ele>
        <time>2024-04-07T09:02:23Z</time>
      </trkpt>
      <trkpt lat="44.12575" lon="1.92628">
        <ele>267.2</ele>
        <time>2024-04-07T09:02:24Z</time>
      </trkpt>
      <trkpt lat="44.12578" lon="1.92635">
        <ele>267.4</ele>
        <time>2024-04-07T09:02:25Z</time>
      </trkpt>
      <trkpt lat="44.12581" lon="1.92643">
        <ele>267.6</ele>
        <time>2024-04-07T09:02:26Z</time>
      </trkpt>
      <trkpt lat="44.12584" lon="1.9265">
        <ele>267.8</ele>
        <time>2024-04-07T09:02:27Z</time>
      </trkpt>
      <trkpt lat="44.12587" lon="1.92657">
        <ele>267.8</ele>
        <time>2024-04-07T09:02:28Z</time>
      </trkpt>
      <trkpt lat="44.12591" lon="1.92666">
        <ele>268</ele>
        <time>2024-04-07T09:02:29Z</time>
      </trkpt>
      <trkpt lat="44.12593" lon="1.92671">
        <ele>268</ele>
        <time>2024-04-07T09:02:30Z</time>
      </trkpt>
      <trkpt lat="44.12597" lon="1.92678">
        <ele>268.2</ele>
        <time>2024-04-07T09:02:31Z</time>
      </trkpt>
      <trkpt lat="44.126" lon="1.92685">
        <ele>268.2</ele>
        <time>2024-04-07T09:02:32Z</time>
      </trkpt>
      <trkpt lat="44.12603" lon="1.92692">
        <ele>268.2</ele>
        <time>2024-04-07T09:02:33Z</time>
      </trkpt>
      <trkpt lat="44.12607" lon="1.92701">
        <ele>268.2</ele>
        <time>2024-04-07T09:02:34Z</time>
      </trkpt>
      <trkpt lat="44.12609" lon="1.92707">
        <ele>268.4</ele>
        <time>2024-04-07T09:02:35Z</time>
      </trkpt>
      <trkpt lat="44.12609" lon="1.92707">
        <ele>268.4</ele>
        <time>2024-04-07T09:02:36Z</time>
      </trkpt>
      <trkpt lat="44.12616" lon="1.92721">
        <ele>268.4</ele>
        <time>2024-04-07T09:02:37Z</time>
      </trkpt>
      <trkpt lat="44.12619" lon="1.92728">
        <ele>268.6</ele>
        <time>2024-04-07T09:02:38Z</time>
      </trkpt>
      <trkpt lat="44.12623" lon="1.92736">
        <ele>268.6</ele>
        <time>2024-04-07T09:02:39Z</time>
      </trkpt>
      <trkpt lat="44.12625" lon="1.92741">
        <ele>268.8</ele>
        <time>2024-04-07T09:02:40Z</time>
      </trkpt>
      <trkpt lat="44.12625" lon="1.92741">
        <ele>268.8</ele>
        <time>2024-04-07T09:02:41Z</time>
      </trkpt>
      <trkpt lat="44.12633" lon="1.92754">
        <ele>269</ele>
        <time>2024-04-07T09:02:42Z</time>
      </trkpt>
      <trkpt lat="44.12637" lon="1.92762">
        <ele>269</ele>
        <time>2024-04-07T09:02:43Z</time>
      </trkpt>
      <trkpt lat="44.12642" lon="1.92767">
        <ele>269</ele>
        <time>2024-04-07T09:02:44Z</time>
      </trkpt>
      <trkpt lat="44.12645" lon="1.92772">
        <ele>269.2</ele>
        <time>2024-04-07T09:02:45Z</time>
      </trkpt>
      <trkpt lat="44.1265" lon="1.92777">
        <ele>269.2</ele>
        <time>2024-04-07T09:02:46Z</time>
      </trkpt>
      <trkpt lat="44.12654" lon="1.92782">
        <ele>269.4</ele>
        <time>2024-04-07T09:02:47Z</time>
      </trkpt>
      <trkpt lat="44.12659" lon="1.92789">
        <ele>269.4</ele>
        <time>2024-04-07T09:02:48Z</time>
      </trkpt>
      <trkpt lat="44.12663" lon="1.92795">
        <ele>269.4</ele>
        <time>2024-04-07T09:02:49Z</time>
      </trkpt>
      <trkpt lat="44.12663" lon="1.92795">
        <ele>269.4</ele>
        <time>2024-04-07T09:02:50Z</time>
      </trkpt>
      <trkpt lat="44.12668" lon="1.92807">
        <ele>269.6</ele>
        <time>2024-04-07T09:02:51Z</time>
      </trkpt>
      <trkpt lat="44.1267" lon="1.92814">
        <ele>269.6</ele>
        <time>2024-04-07T09:02:52Z</time>
      </trkpt>
      <trkpt lat="44.12672" lon="1.92823">
        <ele>269.6</ele>
        <time>2024-04-07T09:02:53Z</time>
      </trkpt>
      <trkpt lat="44.12672" lon="1.92829">
        <ele>269.6</ele>
        <time>2024-04-07T09:02:54Z</time>
      </trkpt>
      <trkpt lat="44.12673" lon="1.92836">
        <ele>269.6</ele>
        <time>2024-04-07T09:02:55Z</time>
      </trkpt>
      <trkpt lat="44.12673" lon="1.92844">
        <ele>269.8</ele>
        <time>2024-04-07T09:02:56Z</time>
      </trkpt>
      <trkpt lat="44.12674" lon="1.92851">
        <ele>270</ele>
        <time>2024-04-07T09:02:57Z</time>
      </trkpt>
      <trkpt lat="44.12674" lon="1.92858">
        <ele>270.2</ele>
        <time>2024-04-07T09:02:58Z</time>
      </trkpt>
      <trkpt lat="44.12675" lon="1.92865">
        <ele>270.4</ele>
        <time>2024-04-07T09:02:59Z</time>
      </trkpt>
      <trkpt lat="44.12676" lon="1.92874">
        <ele>270.6</ele>
        <time>2024-04-07T09:03:00Z</time>
      </trkpt>
      <trkpt lat="44.12677" lon="1.92879">
        <ele>271</ele>
        <time>2024-04-07T09:03:01Z</time>
      </trkpt>
      <trkpt lat="44.12678" lon="1.92886">
        <ele>271</ele>
        <time>2024-04-07T09:03:02Z</time>
      </trkpt>
      <trkpt lat="44.1268" lon="1.92893">
        <ele>271.2</ele>
        <time>2024-04-07T09:03:03Z</time>
      </trkpt>
      <trkpt lat="44.12681" lon="1.92899">
        <ele>271.2</ele>
        <time>2024-04-07T09:03:04Z</time>
      </trkpt>
      <trkpt lat="44.12684" lon="1.92907">
        <ele>271.6</ele>
        <time>2024-04-07T09:03:05Z</time>
      </trkpt>
      <trkpt lat="44.12687" lon="1.92913">
        <ele>271.8</ele>
        <time>2024-04-07T09:03:06Z</time>
      </trkpt>
      <trkpt lat="44.12691" lon="1.92919">
        <ele>272.2</ele>
        <time>2024-04-07T09:03:07Z</time>
      </trkpt>
      <trkpt lat="44.12695" lon="1.92924">
        <ele>272.4</ele>
        <time>2024-04-07T09:03:08Z</time>
      </trkpt>
      <trkpt lat="44.12699" lon="1.92929">
        <ele>272.6</ele>
        <time>2024-04-07T09:03:09Z</time>
      </trkpt>
      <trkpt lat="44.12702" lon="1.92934">
        <ele>272.8</ele>
        <time>2024-04-07T09:03:10Z</time>
      </trkpt>
      <trkpt lat="44.12706" lon="1.92939">
        <ele>272.8</ele>
        <time>2024-04-07T09:03:11Z</time>
      </trkpt>
      <trkpt lat="44.1271" lon="1.92943">
        <ele>273.2</ele>
        <time>2024-04-07T09:03:12Z</time>
      </trkpt>
      <trkpt lat="44.12714" lon="1.92948">
        <ele>273.2</ele>
        <time>2024-04-07T09:03:13Z</time>
      </trkpt>
      <trkpt lat="44.12718" lon="1.92953">
        <ele>273.6</ele>
        <time>2024-04-07T09:03:14Z</time>
      </trkpt>
      <trkpt lat="44.12722" lon="1.92957">
        <ele>273.8</ele>
        <time>2024-04-07T09:03:15Z</time>
      </trkpt>
      <trkpt lat="44.12726" lon="1.92961">
        <ele>274.2</ele>
        <time>2024-04-07T09:03:16Z</time>
      </trkpt>
      <trkpt lat="44.12731" lon="1.92965">
        <ele>274.4</ele>
        <time>2024-04-07T09:03:17Z</time>
      </trkpt>
      <trkpt lat="44.12735" lon="1.92969">
        <ele>274.6</ele>
        <time>2024-04-07T09:03:18Z</time>
      </trkpt>
      <trkpt lat="44.1274" lon="1.92972">
        <ele>274.6</ele>
        <time>2024-04-07T09:03:19Z</time>
      </trkpt>
      <trkpt lat="44.12745" lon="1.92975">
        <ele>274.8</ele>
        <time>2024-04-07T09:03:20Z</time>
      </trkpt>
      <trkpt lat="44.1275" lon="1.92978">
        <ele>275.4</ele>
        <time>2024-04-07T09:03:21Z</time>
      </trkpt>
      <trkpt lat="44.12755" lon="1.92981">
        <ele>275.4</ele>
        <time>2024-04-07T09:03:22Z</time>
      </trkpt>
      <trkpt lat="44.12761" lon="1.92984">
        <ele>275.8</ele>
        <time>2024-04-07T09:03:23Z</time>
      </trkpt>
      <trkpt lat="44.12766" lon="1.92987">
        <ele>276</ele>
        <time>2024-04-07T09:03:24Z</time>
      </trkpt>
      <trkpt lat="44.12771" lon="1.92991">
        <ele>276.2</ele>
        <time>2024-04-07T09:03:25Z</time>
      </trkpt>
      <trkpt lat="44.12775" lon="1.92995">
        <ele>276.4</ele>
        <time>2024-04-07T09:03:26Z</time>
      </trkpt>
      <trkpt lat="44.1278" lon="1.92999">
        <ele>276.4</ele>
        <time>2024-04-07T09:03:27Z</time>
      </trkpt>
      <trkpt lat="44.12785" lon="1.93003">
        <ele>276.4</ele>
        <time>2024-04-07T09:03:28Z</time>
      </trkpt>
      <trkpt lat="44.12789" lon="1.93008">
        <ele>276.4</ele>
        <time>2024-04-07T09:03:29Z</time>
      </trkpt>
      <trkpt lat="44.12793" lon="1.93013">
        <ele>276.4</ele>
        <time>2024-04-07T09:03:30Z</time>
      </trkpt>
      <trkpt lat="44.12797" lon="1.93019">
        <ele>276.6</ele>
        <time>2024-04-07T09:03:31Z</time>
      </trkpt>
      <trkpt lat="44.12801" lon="1.93026">
        <ele>276.6</ele>
        <time>2024-04-07T09:03:32Z</time>
      </trkpt>
      <trkpt lat="44.12804" lon="1.93034">
        <ele>276.8</ele>
        <time>2024-04-07T09:03:33Z</time>
      </trkpt>
      <trkpt lat="44.12805" lon="1.93041">
        <ele>276.8</ele>
        <time>2024-04-07T09:03:34Z</time>
      </trkpt>
      <trkpt lat="44.12805" lon="1.9305">
        <ele>276.8</ele>
        <time>2024-04-07T09:03:35Z</time>
      </trkpt>
      <trkpt lat="44.12805" lon="1.93058">
        <ele>277</ele>
        <time>2024-04-07T09:03:36Z</time>
      </trkpt>
      <trkpt lat="44.12804" lon="1.93066">
        <ele>277</ele>
        <time>2024-04-07T09:03:37Z</time>
      </trkpt>
      <trkpt lat="44.12804" lon="1.93074">
        <ele>277</ele>
        <time>2024-04-07T09:03:38Z</time>
      </trkpt>
      <trkpt lat="44.12804" lon="1.93082">
        <ele>277</ele>
        <time>2024-04-07T09:03:39Z</time>
      </trkpt>
      <trkpt lat="44.12803" lon="1.9309">
        <ele>277</ele>
        <time>2024-04-07T09:03:40Z</time>
      </trkpt>
      <trkpt lat="44.12803" lon="1.93098">
        <ele>277.2</ele>
        <time>2024-04-07T09:03:41Z</time>
      </trkpt>
      <trkpt lat="44.12803" lon="1.93106">
        <ele>277</ele>
        <time>2024-04-07T09:03:42Z</time>
      </trkpt>
      <trkpt lat="44.12802" lon="1.93114">
        <ele>277</ele>
        <time>2024-04-07T09:03:43Z</time>
      </trkpt>
      <trkpt lat="44.12802" lon="1.93122">
        <ele>277.4</ele>
        <time>2024-04-07T09:03:44Z</time>
      </trkpt>
      <trkpt lat="44.12802" lon="1.9313">
        <ele>277.4</ele>
        <time>2024-04-07T09:03:45Z</time>
      </trkpt>
      <trkpt lat="44.12802" lon="1.93138">
        <ele>277.6</ele>
        <time>2024-04-07T09:03:46Z</time>
      </trkpt>
      <trkpt lat="44.12802" lon="1.93145">
        <ele>277.6</ele>
        <time>2024-04-07T09:03:47Z</time>
      </trkpt>
      <trkpt lat="44.12802" lon="1.93151">
        <ele>277.8</ele>
        <time>2024-04-07T09:03:48Z</time>
      </trkpt>
      <trkpt lat="44.128" lon="1.93156">
        <ele>277.8</ele>
        <time>2024-04-07T09:03:49Z</time>
      </trkpt>
      <trkpt lat="44.12799" lon="1.9316">
        <ele>277.8</ele>
        <time>2024-04-07T09:03:50Z</time>
      </trkpt>
      <trkpt lat="44.12799" lon="1.93163">
        <ele>277.8</ele>
        <time>2024-04-07T09:03:51Z</time>
      </trkpt>
      <trkpt lat="44.12798" lon="1.93166">
        <ele>278</ele>
        <time>2024-04-07T09:03:52Z</time>
      </trkpt>
      <trkpt lat="44.12797" lon="1.93168">
        <ele>278</ele>
        <time>2024-04-07T09:03:53Z</time>
      </trkpt>
      <trkpt lat="44.12797" lon="1.9317">
        <ele>278</ele>
        <time>2024-04-07T09:03:54Z</time>
      </trkpt>
      <trkpt lat="44.12797" lon="1.93171">
        <ele>278.2</ele>
        <time>2024-04-07T09:03:55Z</time>
      </trkpt>
      <trkpt lat="44.12797" lon="1.93173">
        <ele>278.2</ele>
        <time>2024-04-07T09:03:56Z</time>
      </trkpt>
      <trkpt lat="44.12797" lon="1.93173">
        <ele>278.4</ele>
        <time>2024-04-07T09:03:57Z</time>
      </trkpt>
      <trkpt lat="44.12797" lon="1.93173">
        <ele>278.4</ele>
        <time>2024-04-07T09:03:58Z</time>
      </trkpt>
      <trkpt lat="44.12797" lon="1.93174">
        <ele>278.4</ele>
        <time>2024-04-07T09:03:59Z</time>
      </trkpt>
      <trkpt lat="44.12797" lon="1.93175">
        <ele>278.6</ele>
        <time>2024-04-07T09:04:00Z</time>
      </trkpt>
      <trkpt lat="44.12797" lon="1.93175">
        <ele>278.6</ele>
        <time>2024-04-07T09:04:01Z</time>
      </trkpt>
      <trkpt lat="44.12797" lon="1.93175">
        <ele>278.6</ele>
        <time>2024-04-07T09:04:02Z</time>
      </trkpt>
      <trkpt lat="44.12795" lon="1.93192">
        <ele>279.6</ele>
        <time>2024-04-07T09:04:31Z</time>
      </trkpt>
      <trkpt lat="44.12795" lon="1.93195">
        <ele>279.6</ele>
        <time>2024-04-07T09:04:32Z</time>
      </trkpt>
      <trkpt lat="44.12795" lon="1.93198">
        <ele>279.6</ele>
        <time>2024-04-07T09:04:33Z</time>
      </trkpt>
      <trkpt lat="44.12795" lon="1.93202">
        <ele>279.6</ele>
        <time>2024-04-07T09:04:34Z</time>
      </trkpt>
      <trkpt lat="44.12795" lon="1.93205">
        <ele>279.6</ele>
        <time>2024-04-07T09:04:35Z</time>
      </trkpt>
      <trkpt lat="44.12795" lon="1.93208">
        <ele>279.8</ele>
        <time>2024-04-07T09:04:36Z</time>
      </trkpt>
      <trkpt lat="44.12794" lon="1.93211">
        <ele>279.8</ele>
        <time>2024-04-07T09:04:37Z</time>
      </trkpt>
      <trkpt lat="44.12794" lon="1.93214">
        <ele>279.8</ele>
        <time>2024-04-07T09:04:38Z</time>
      </trkpt>
      <trkpt lat="44.12794" lon="1.93217">
        <ele>280</ele>
        <time>2024-04-07T09:04:39Z</time>
      </trkpt>
      <trkpt lat="44.12793" lon="1.9322">
        <ele>280</ele>
        <time>2024-04-07T09:04:40Z</time>
      </trkpt>
      <trkpt lat="44.12793" lon="1.93227">
        <ele>280</ele>
        <time>2024-04-07T09:04:42Z</time>
      </trkpt>
      <trkpt lat="44.12793" lon="1.93231">
        <ele>280.2</ele>
        <time>2024-04-07T09:04:43Z</time>
      </trkpt>
      <trkpt lat="44.12793" lon="1.93234">
        <ele>280.2</ele>
        <time>2024-04-07T09:04:44Z</time>
      </trkpt>
      <trkpt lat="44.12794" lon="1.93243">
        <ele>280.4</ele>
        <time>2024-04-07T09:04:46Z</time>
      </trkpt>
      <trkpt lat="44.12794" lon="1.93247">
        <ele>280.6</ele>
        <time>2024-04-07T09:04:47Z</time>
      </trkpt>
      <trkpt lat="44.12795" lon="1.93252">
        <ele>280.8</ele>
        <time>2024-04-07T09:04:48Z</time>
      </trkpt>
      <trkpt lat="44.12795" lon="1.93261">
        <ele>281</ele>
        <time>2024-04-07T09:04:50Z</time>
      </trkpt>
      <trkpt lat="44.12794" lon="1.93265">
        <ele>281</ele>
        <time>2024-04-07T09:04:51Z</time>
      </trkpt>
      <trkpt lat="44.12794" lon="1.93269">
        <ele>281</ele>
        <time>2024-04-07T09:04:52Z</time>
      </trkpt>
      <trkpt lat="44.12795" lon="1.93277">
        <ele>281.4</ele>
        <time>2024-04-07T09:04:54Z</time>
      </trkpt>
      <trkpt lat="44.12795" lon="1.93282">
        <ele>281.6</ele>
        <time>2024-04-07T09:04:55Z</time>
      </trkpt>
      <trkpt lat="44.12797" lon="1.9329">
        <ele>281.8</ele>
        <time>2024-04-07T09:04:57Z</time>
      </trkpt>
      <trkpt lat="44.12797" lon="1.93295">
        <ele>281.8</ele>
        <time>2024-04-07T09:04:58Z</time>
      </trkpt>
      <trkpt lat="44.12797" lon="1.93299">
        <ele>282</ele>
        <time>2024-04-07T09:04:59Z</time>
      </trkpt>
      <trkpt lat="44.12796" lon="1.93303">
        <ele>282.2</ele>
        <time>2024-04-07T09:05:00Z</time>
      </trkpt>
      <trkpt lat="44.12795" lon="1.93308">
        <ele>282.4</ele>
        <time>2024-04-07T09:05:01Z</time>
      </trkpt>
      <trkpt lat="44.12794" lon="1.93312">
        <ele>282.6</ele>
        <time>2024-04-07T09:05:02Z</time>
      </trkpt>
      <trkpt lat="44.12791" lon="1.93317">
        <ele>282.8</ele>
        <time>2024-04-07T09:05:03Z</time>
      </trkpt>
      <trkpt lat="44.12789" lon="1.9332">
        <ele>283.2</ele>
        <time>2024-04-07T09:05:04Z</time>
      </trkpt>
      <trkpt lat="44.12786" lon="1.93323">
        <ele>283.4</ele>
        <time>2024-04-07T09:05:05Z</time>
      </trkpt>
      <trkpt lat="44.12784" lon="1.93327">
        <ele>283.6</ele>
        <time>2024-04-07T09:05:06Z</time>
      </trkpt>
      <trkpt lat="44.12781" lon="1.9333">
        <ele>283.8</ele>
        <time>2024-04-07T09:05:07Z</time>
      </trkpt>
      <trkpt lat="44.12779" lon="1.93334">
        <ele>284</ele>
        <time>2024-04-07T09:05:08Z</time>
      </trkpt>
      <trkpt lat="44.12777" lon="1.93337">
        <ele>284.2</ele>
        <time>2024-04-07T09:05:09Z</time>
      </trkpt>
      <trkpt lat="44.12775" lon="1.93341">
        <ele>284.4</ele>
        <time>2024-04-07T09:05:10Z</time>
      </trkpt>
      <trkpt lat="44.12773" lon="1.93345">
        <ele>284.6</ele>
        <time>2024-04-07T09:05:11Z</time>
      </trkpt>
      <trkpt lat="44.12771" lon="1.93349">
        <ele>284.8</ele>
        <time>2024-04-07T09:05:12Z</time>
      </trkpt>
      <trkpt lat="44.12769" lon="1.93353">
        <ele>285</ele>
        <time>2024-04-07T09:05:13Z</time>
      </trkpt>
      <trkpt lat="44.12767" lon="1.93357">
        <ele>285</ele>
        <time>2024-04-07T09:05:14Z</time>
      </trkpt>
      <trkpt lat="44.12765" lon="1.93361">
        <ele>285.6</ele>
        <time>2024-04-07T09:05:15Z</time>
      </trkpt>
      <trkpt lat="44.12763" lon="1.93365">
        <ele>285.8</ele>
        <time>2024-04-07T09:05:16Z</time>
      </trkpt>
      <trkpt lat="44.12761" lon="1.93369">
        <ele>286</ele>
        <time>2024-04-07T09:05:17Z</time>
      </trkpt>
      <trkpt lat="44.12759" lon="1.93373">
        <ele>286.2</ele>
        <time>2024-04-07T09:05:18Z</time>
      </trkpt>
      <trkpt lat="44.12757" lon="1.93378">
        <ele>286.4</ele>
        <time>2024-04-07T09:05:19Z</time>
      </trkpt>
      <trkpt lat="44.12755" lon="1.93382">
        <ele>286.4</ele>
        <time>2024-04-07T09:05:20Z</time>
      </trkpt>
      <trkpt lat="44.12752" lon="1.93386">
        <ele>286.6</ele>
        <time>2024-04-07T09:05:21Z</time>
      </trkpt>
      <trkpt lat="44.1275" lon="1.9339">
        <ele>286.8</ele>
        <time>2024-04-07T09:05:22Z</time>
      </trkpt>
      <trkpt lat="44.12748" lon="1.93394">
        <ele>287</ele>
        <time>2024-04-07T09:05:23Z</time>
      </trkpt>
      <trkpt lat="44.12745" lon="1.93399">
        <ele>287.4</ele>
        <time>2024-04-07T09:05:24Z</time>
      </trkpt>
      <trkpt lat="44.12743" lon="1.93403">
        <ele>287.6</ele>
        <time>2024-04-07T09:05:25Z</time>
      </trkpt>
      <trkpt lat="44.12741" lon="1.93408">
        <ele>288</ele>
        <time>2024-04-07T09:05:26Z</time>
      </trkpt>
      <trkpt lat="44.12739" lon="1.93412">
        <ele>288.6</ele>
        <time>2024-04-07T09:05:27Z</time>
      </trkpt>
      <trkpt lat="44.12737" lon="1.93416">
        <ele>288.8</ele>
        <time>2024-04-07T09:05:28Z</time>
      </trkpt>
      <trkpt lat="44.12735" lon="1.9342">
        <ele>289.2</ele>
        <time>2024-04-07T09:05:29Z</time>
      </trkpt>
      <trkpt lat="44.12733" lon="1.93424">
        <ele>289.2</ele>
        <time>2024-04-07T09:05:30Z</time>
      </trkpt>
      <trkpt lat="44.1273" lon="1.93428">
        <ele>289.4</ele>
        <time>2024-04-07T09:05:31Z</time>
      </trkpt>
      <trkpt lat="44.12727" lon="1.93432">
        <ele>289.6</ele>
        <time>2024-04-07T09:05:32Z</time>
      </trkpt>
      <trkpt lat="44.12725" lon="1.93436">
        <ele>290</ele>
        <time>2024-04-07T09:05:33Z</time>
      </trkpt>
      <trkpt lat="44.12722" lon="1.93439">
        <ele>290.2</ele>
        <time>2024-04-07T09:05:34Z</time>
      </trkpt>
      <trkpt lat="44.12719" lon="1.93443">
        <ele>290.4</ele>
        <time>2024-04-07T09:05:35Z</time>
      </trkpt>
      <trkpt lat="44.12715" lon="1.93445">
        <ele>290.6</ele>
        <time>2024-04-07T09:05:36Z</time>
      </trkpt>
      <trkpt lat="44.12712" lon="1.93447">
        <ele>290.8</ele>
        <time>2024-04-07T09:05:37Z</time>
      </trkpt>
      <trkpt lat="44.12709" lon="1.93448">
        <ele>291.2</ele>
        <time>2024-04-07T09:05:38Z</time>
      </trkpt>
      <trkpt lat="44.12704" lon="1.93449">
        <ele>291.2</ele>
        <time>2024-04-07T09:05:39Z</time>
      </trkpt>
      <trkpt lat="44.127" lon="1.93448">
        <ele>291.6</ele>
        <time>2024-04-07T09:05:40Z</time>
      </trkpt>
      <trkpt lat="44.12697" lon="1.93447">
        <ele>291.6</ele>
        <time>2024-04-07T09:05:41Z</time>
      </trkpt>
      <trkpt lat="44.12693" lon="1.93446">
        <ele>292</ele>
        <time>2024-04-07T09:05:42Z</time>
      </trkpt>
      <trkpt lat="44.12688" lon="1.93444">
        <ele>292.2</ele>
        <time>2024-04-07T09:05:43Z</time>
      </trkpt>
      <trkpt lat="44.12685" lon="1.93442">
        <ele>292.4</ele>
        <time>2024-04-07T09:05:44Z</time>
      </trkpt>
      <trkpt lat="44.12681" lon="1.9344">
        <ele>292.6</ele>
        <time>2024-04-07T09:05:45Z</time>
      </trkpt>
      <trkpt lat="44.12677" lon="1.93438">
        <ele>292.6</ele>
        <time>2024-04-07T09:05:46Z</time>
      </trkpt>
      <trkpt lat="44.12674" lon="1.93437">
        <ele>292.8</ele>
        <time>2024-04-07T09:05:47Z</time>
      </trkpt>
      <trkpt lat="44.12669" lon="1.93438">
        <ele>292.8</ele>
        <time>2024-04-07T09:05:48Z</time>
      </trkpt>
      <trkpt lat="44.12665" lon="1.9344">
        <ele>292.8</ele>
        <time>2024-04-07T09:05:49Z</time>
      </trkpt>
      <trkpt lat="44.12661" lon="1.93444">
        <ele>292.8</ele>
        <time>2024-04-07T09:05:50Z</time>
      </trkpt>
      <trkpt lat="44.12659" lon="1.93449">
        <ele>292.8</ele>
        <time>2024-04-07T09:05:51Z</time>
      </trkpt>
      <trkpt lat="44.12657" lon="1.93453">
        <ele>292.8</ele>
        <time>2024-04-07T09:05:52Z</time>
      </trkpt>
      <trkpt lat="44.12655" lon="1.9346">
        <ele>293</ele>
        <time>2024-04-07T09:05:53Z</time>
      </trkpt>
      <trkpt lat="44.12655" lon="1.93466">
        <ele>292.8</ele>
        <time>2024-04-07T09:05:54Z</time>
      </trkpt>
      <trkpt lat="44.12654" lon="1.93473">
        <ele>292.8</ele>
        <time>2024-04-07T09:05:55Z</time>
      </trkpt>
      <trkpt lat="44.12654" lon="1.93479">
        <ele>292.6</ele>
        <time>2024-04-07T09:05:56Z</time>
      </trkpt>
      <trkpt lat="44.12653" lon="1.93484">
        <ele>292.6</ele>
        <time>2024-04-07T09:05:57Z</time>
      </trkpt>
      <trkpt lat="44.12653" lon="1.93491">
        <ele>292.6</ele>
        <time>2024-04-07T09:05:58Z</time>
      </trkpt>
      <trkpt lat="44.12652" lon="1.93498">
        <ele>293</ele>
        <time>2024-04-07T09:05:59Z</time>
      </trkpt>
      <trkpt lat="44.12651" lon="1.93503">
        <ele>293</ele>
        <time>2024-04-07T09:06:00Z</time>
      </trkpt>
      <trkpt lat="44.12649" lon="1.9351">
        <ele>293.2</ele>
        <time>2024-04-07T09:06:01Z</time>
      </trkpt>
      <trkpt lat="44.12648" lon="1.93516">
        <ele>293.2</ele>
        <time>2024-04-07T09:06:02Z</time>
      </trkpt>
      <trkpt lat="44.12647" lon="1.93523">
        <ele>293.2</ele>
        <time>2024-04-07T09:06:03Z</time>
      </trkpt>
      <trkpt lat="44.12646" lon="1.9353">
        <ele>293.4</ele>
        <time>2024-04-07T09:06:04Z</time>
      </trkpt>
      <trkpt lat="44.12645" lon="1.93536">
        <ele>293.4</ele>
        <time>2024-04-07T09:06:05Z</time>
      </trkpt>
      <trkpt lat="44.12645" lon="1.93541">
        <ele>293.4</ele>
        <time>2024-04-07T09:06:06Z</time>
      </trkpt>
      <trkpt lat="44.12645" lon="1.93549">
        <ele>293.4</ele>
        <time>2024-04-07T09:06:07Z</time>
      </trkpt>
      <trkpt lat="44.12644" lon="1.93558">
        <ele>293.4</ele>
        <time>2024-04-07T09:06:08Z</time>
      </trkpt>
      <trkpt lat="44.12645" lon="1.93565">
        <ele>293.4</ele>
        <time>2024-04-07T09:06:09Z</time>
      </trkpt>
      <trkpt lat="44.12646" lon="1.93573">
        <ele>293.4</ele>
        <time>2024-04-07T09:06:10Z</time>
      </trkpt>
      <trkpt lat="44.12647" lon="1.9358">
        <ele>293.2</ele>
        <time>2024-04-07T09:06:11Z</time>
      </trkpt>
      <trkpt lat="44.1265" lon="1.93586">
        <ele>292.8</ele>
        <time>2024-04-07T09:06:12Z</time>
      </trkpt>
      <trkpt lat="44.12653" lon="1.93592">
        <ele>292.6</ele>
        <time>2024-04-07T09:06:13Z</time>
      </trkpt>
      <trkpt lat="44.12657" lon="1.93597">
        <ele>292.4</ele>
        <time>2024-04-07T09:06:14Z</time>
      </trkpt>
      <trkpt lat="44.12661" lon="1.93601">
        <ele>291.8</ele>
        <time>2024-04-07T09:06:15Z</time>
      </trkpt>
      <trkpt lat="44.12665" lon="1.93605">
        <ele>291.6</ele>
        <time>2024-04-07T09:06:16Z</time>
      </trkpt>
      <trkpt lat="44.12669" lon="1.93611">
        <ele>291.2</ele>
        <time>2024-04-07T09:06:17Z</time>
      </trkpt>
      <trkpt lat="44.12675" lon="1.93624">
        <ele>291</ele>
        <time>2024-04-07T09:06:19Z</time>
      </trkpt>
      <trkpt lat="44.12677" lon="1.9363">
        <ele>291</ele>
        <time>2024-04-07T09:06:20Z</time>
      </trkpt>
      <trkpt lat="44.12679" lon="1.93639">
        <ele>291</ele>
        <time>2024-04-07T09:06:21Z</time>
      </trkpt>
      <trkpt lat="44.1268" lon="1.93648">
        <ele>291</ele>
        <time>2024-04-07T09:06:22Z</time>
      </trkpt>
      <trkpt lat="44.1268" lon="1.93655">
        <ele>290.8</ele>
        <time>2024-04-07T09:06:23Z</time>
      </trkpt>
      <trkpt lat="44.12679" lon="1.93663">
        <ele>290.8</ele>
        <time>2024-04-07T09:06:24Z</time>
      </trkpt>
      <trkpt lat="44.12678" lon="1.93672">
        <ele>290.8</ele>
        <time>2024-04-07T09:06:25Z</time>
      </trkpt>
      <trkpt lat="44.12678" lon="1.9368">
        <ele>290.8</ele>
        <time>2024-04-07T09:06:26Z</time>
      </trkpt>
      <trkpt lat="44.12676" lon="1.93691">
        <ele>290.8</ele>
        <time>2024-04-07T09:06:27Z</time>
      </trkpt>
      <trkpt lat="44.12675" lon="1.937">
        <ele>290.6</ele>
        <time>2024-04-07T09:06:28Z</time>
      </trkpt>
      <trkpt lat="44.12672" lon="1.93718">
        <ele>290.2</ele>
        <time>2024-04-07T09:06:30Z</time>
      </trkpt>
      <trkpt lat="44.1267" lon="1.93729">
        <ele>289.8</ele>
        <time>2024-04-07T09:06:31Z</time>
      </trkpt>
      <trkpt lat="44.12669" lon="1.93736">
        <ele>289.6</ele>
        <time>2024-04-07T09:06:32Z</time>
      </trkpt>
      <trkpt lat="44.12666" lon="1.93755">
        <ele>288.2</ele>
        <time>2024-04-07T09:06:34Z</time>
      </trkpt>
      <trkpt lat="44.12663" lon="1.93761">
        <ele>287</ele>
        <time>2024-04-07T09:06:35Z</time>
      </trkpt>
      <trkpt lat="44.12657" lon="1.93768">
        <ele>286.6</ele>
        <time>2024-04-07T09:06:36Z</time>
      </trkpt>
      <trkpt lat="44.12653" lon="1.93772">
        <ele>285.8</ele>
        <time>2024-04-07T09:06:37Z</time>
      </trkpt>
      <trkpt lat="44.12647" lon="1.93779">
        <ele>285.4</ele>
        <time>2024-04-07T09:06:38Z</time>
      </trkpt>
      <trkpt lat="44.12641" lon="1.93786">
        <ele>284.8</ele>
        <time>2024-04-07T09:06:39Z</time>
      </trkpt>
      <trkpt lat="44.12634" lon="1.93792">
        <ele>284.6</ele>
        <time>2024-04-07T09:06:40Z</time>
      </trkpt>
      <trkpt lat="44.12627" lon="1.93798">
        <ele>284.4</ele>
        <time>2024-04-07T09:06:41Z</time>
      </trkpt>
      <trkpt lat="44.12621" lon="1.93802">
        <ele>284.2</ele>
        <time>2024-04-07T09:06:42Z</time>
      </trkpt>
      <trkpt lat="44.12611" lon="1.9381">
        <ele>284</ele>
        <time>2024-04-07T09:06:43Z</time>
      </trkpt>
      <trkpt lat="44.12604" lon="1.93817">
        <ele>283.6</ele>
        <time>2024-04-07T09:06:44Z</time>
      </trkpt>
      <trkpt lat="44.12599" lon="1.93823">
        <ele>283</ele>
        <time>2024-04-07T09:06:45Z</time>
      </trkpt>
      <trkpt lat="44.12592" lon="1.93829">
        <ele>282</ele>
        <time>2024-04-07T09:06:46Z</time>
      </trkpt>
      <trkpt lat="44.12583" lon="1.93839">
        <ele>281.4</ele>
        <time>2024-04-07T09:06:47Z</time>
      </trkpt>
      <trkpt lat="44.12577" lon="1.93847">
        <ele>281.2</ele>
        <time>2024-04-07T09:06:48Z</time>
      </trkpt>
      <trkpt lat="44.12572" lon="1.93857">
        <ele>280.2</ele>
        <time>2024-04-07T09:06:49Z</time>
      </trkpt>
      <trkpt lat="44.12567" lon="1.93868">
        <ele>279.8</ele>
        <time>2024-04-07T09:06:50Z</time>
      </trkpt>
      <trkpt lat="44.12562" lon="1.93879">
        <ele>279</ele>
        <time>2024-04-07T09:06:51Z</time>
      </trkpt>
      <trkpt lat="44.12555" lon="1.93889">
        <ele>278.8</ele>
        <time>2024-04-07T09:06:52Z</time>
      </trkpt>
      <trkpt lat="44.1255" lon="1.93897">
        <ele>278.2</ele>
        <time>2024-04-07T09:06:53Z</time>
      </trkpt>
      <trkpt lat="44.12545" lon="1.93904">
        <ele>277.8</ele>
        <time>2024-04-07T09:06:54Z</time>
      </trkpt>
      <trkpt lat="44.1254" lon="1.9391">
        <ele>276.6</ele>
        <time>2024-04-07T09:06:55Z</time>
      </trkpt>
      <trkpt lat="44.12535" lon="1.93917">
        <ele>275.6</ele>
        <time>2024-04-07T09:06:56Z</time>
      </trkpt>
      <trkpt lat="44.12528" lon="1.93925">
        <ele>275.2</ele>
        <time>2024-04-07T09:06:57Z</time>
      </trkpt>
      <trkpt lat="44.12517" lon="1.93941">
        <ele>274.4</ele>
        <time>2024-04-07T09:06:59Z</time>
      </trkpt>
      <trkpt lat="44.12511" lon="1.93948">
        <ele>274.2</ele>
        <time>2024-04-07T09:07:00Z</time>
      </trkpt>
      <trkpt lat="44.12506" lon="1.93956">
        <ele>274</ele>
        <time>2024-04-07T09:07:01Z</time>
      </trkpt>
      <trkpt lat="44.125" lon="1.93965">
        <ele>273</ele>
        <time>2024-04-07T09:07:02Z</time>
      </trkpt>
      <trkpt lat="44.12491" lon="1.93985">
        <ele>272</ele>
        <time>2024-04-07T09:07:04Z</time>
      </trkpt>
      <trkpt lat="44.12486" lon="1.93995">
        <ele>271.2</ele>
        <time>2024-04-07T09:07:05Z</time>
      </trkpt>
      <trkpt lat="44.12481" lon="1.94004">
        <ele>270.8</ele>
        <time>2024-04-07T09:07:06Z</time>
      </trkpt>
      <trkpt lat="44.12476" lon="1.94014">
        <ele>268.6</ele>
        <time>2024-04-07T09:07:07Z</time>
      </trkpt>
      <trkpt lat="44.12467" lon="1.94032">
        <ele>266.6</ele>
        <time>2024-04-07T09:07:09Z</time>
      </trkpt>
      <trkpt lat="44.12464" lon="1.94039">
        <ele>266.2</ele>
        <time>2024-04-07T09:07:10Z</time>
      </trkpt>
      <trkpt lat="44.12461" lon="1.94051">
        <ele>265.6</ele>
        <time>2024-04-07T09:07:11Z</time>
      </trkpt>
      <trkpt lat="44.12458" lon="1.94062">
        <ele>265.2</ele>
        <time>2024-04-07T09:07:12Z</time>
      </trkpt>
      <trkpt lat="44.12457" lon="1.94073">
        <ele>265</ele>
        <time>2024-04-07T09:07:13Z</time>
      </trkpt>
      <trkpt lat="44.12455" lon="1.94084">
        <ele>264.8</ele>
        <time>2024-04-07T09:07:14Z</time>
      </trkpt>
      <trkpt lat="44.12455" lon="1.94093">
        <ele>264.6</ele>
        <time>2024-04-07T09:07:15Z</time>
      </trkpt>
      <trkpt lat="44.12455" lon="1.94106">
        <ele>264</ele>
        <time>2024-04-07T09:07:16Z</time>
      </trkpt>
      <trkpt lat="44.12456" lon="1.94116">
        <ele>263.6</ele>
        <time>2024-04-07T09:07:17Z</time>
      </trkpt>
      <trkpt lat="44.12456" lon="1.94126">
        <ele>263</ele>
        <time>2024-04-07T09:07:18Z</time>
      </trkpt>
      <trkpt lat="44.12455" lon="1.94134">
        <ele>262</ele>
        <time>2024-04-07T09:07:19Z</time>
      </trkpt>
      <trkpt lat="44.12454" lon="1.94141">
        <ele>261.6</ele>
        <time>2024-04-07T09:07:20Z</time>
      </trkpt>
      <trkpt lat="44.12451" lon="1.94145">
        <ele>261.2</ele>
        <time>2024-04-07T09:07:21Z</time>
      </trkpt>
      <trkpt lat="44.12448" lon="1.9415">
        <ele>261</ele>
        <time>2024-04-07T09:07:22Z</time>
      </trkpt>
      <trkpt lat="44.12446" lon="1.94155">
        <ele>260.4</ele>
        <time>2024-04-07T09:07:23Z</time>
      </trkpt>
      <trkpt lat="44.12441" lon="1.94161">
        <ele>260.2</ele>
        <time>2024-04-07T09:07:24Z</time>
      </trkpt>
      <trkpt lat="44.12437" lon="1.94166">
        <ele>259.6</ele>
        <time>2024-04-07T09:07:25Z</time>
      </trkpt>
      <trkpt lat="44.12433" lon="1.94171">
        <ele>259.6</ele>
        <time>2024-04-07T09:07:26Z</time>
      </trkpt>
      <trkpt lat="44.12429" lon="1.94177">
        <ele>259.2</ele>
        <time>2024-04-07T09:07:27Z</time>
      </trkpt>
      <trkpt lat="44.12425" lon="1.94181">
        <ele>258.8</ele>
        <time>2024-04-07T09:07:28Z</time>
      </trkpt>
      <trkpt lat="44.1242" lon="1.94186">
        <ele>258.6</ele>
        <time>2024-04-07T09:07:29Z</time>
      </trkpt>
      <trkpt lat="44.12413" lon="1.94192">
        <ele>258.2</ele>
        <time>2024-04-07T09:07:30Z</time>
      </trkpt>
      <trkpt lat="44.12408" lon="1.94198">
        <ele>257.8</ele>
        <time>2024-04-07T09:07:31Z</time>
      </trkpt>
      <trkpt lat="44.12402" lon="1.94204">
        <ele>257.2</ele>
        <time>2024-04-07T09:07:32Z</time>
      </trkpt>
      <trkpt lat="44.12397" lon="1.94211">
        <ele>256.8</ele>
        <time>2024-04-07T09:07:33Z</time>
      </trkpt>
      <trkpt lat="44.12391" lon="1.94218">
        <ele>256</ele>
        <time>2024-04-07T09:07:34Z</time>
      </trkpt>
      <trkpt lat="44.12387" lon="1.94223">
        <ele>255.8</ele>
        <time>2024-04-07T09:07:35Z</time>
      </trkpt>
      <trkpt lat="44.12383" lon="1.94229">
        <ele>255.2</ele>
        <time>2024-04-07T09:07:36Z</time>
      </trkpt>
      <trkpt lat="44.12379" lon="1.94237">
        <ele>254</ele>
        <time>2024-04-07T09:07:37Z</time>
      </trkpt>
      <trkpt lat="44.12374" lon="1.94245">
        <ele>253.6</ele>
        <time>2024-04-07T09:07:38Z</time>
      </trkpt>
      <trkpt lat="44.12371" lon="1.94253">
        <ele>253</ele>
        <time>2024-04-07T09:07:39Z</time>
      </trkpt>
      <trkpt lat="44.12368" lon="1.94263">
        <ele>252.6</ele>
        <time>2024-04-07T09:07:40Z</time>
      </trkpt>
      <trkpt lat="44.12366" lon="1.94274">
        <ele>252.2</ele>
        <time>2024-04-07T09:07:41Z</time>
      </trkpt>
      <trkpt lat="44.12363" lon="1.94286">
        <ele>251.8</ele>
        <time>2024-04-07T09:07:42Z</time>
      </trkpt>
      <trkpt lat="44.1236" lon="1.94298">
        <ele>251.2</ele>
        <time>2024-04-07T09:07:43Z</time>
      </trkpt>
      <trkpt lat="44.12357" lon="1.9431">
        <ele>250</ele>
        <time>2024-04-07T09:07:44Z</time>
      </trkpt>
      <trkpt lat="44.12353" lon="1.94324">
        <ele>249.4</ele>
        <time>2024-04-07T09:07:45Z</time>
      </trkpt>
      <trkpt lat="44.12351" lon="1.94336">
        <ele>248</ele>
        <time>2024-04-07T09:07:46Z</time>
      </trkpt>
      <trkpt lat="44.12349" lon="1.94347">
        <ele>247.6</ele>
        <time>2024-04-07T09:07:47Z</time>
      </trkpt>
      <trkpt lat="44.12346" lon="1.9436">
        <ele>245.6</ele>
        <time>2024-04-07T09:07:48Z</time>
      </trkpt>
      <trkpt lat="44.12343" lon="1.94373">
        <ele>245</ele>
        <time>2024-04-07T09:07:49Z</time>
      </trkpt>
      <trkpt lat="44.12341" lon="1.94385">
        <ele>243.8</ele>
        <time>2024-04-07T09:07:50Z</time>
      </trkpt>
      <trkpt lat="44.12338" lon="1.94396">
        <ele>242.8</ele>
        <time>2024-04-07T09:07:51Z</time>
      </trkpt>
      <trkpt lat="44.12334" lon="1.94408">
        <ele>241</ele>
        <time>2024-04-07T09:07:52Z</time>
      </trkpt>
      <trkpt lat="44.12329" lon="1.9442">
        <ele>237.6</ele>
        <time>2024-04-07T09:07:53Z</time>
      </trkpt>
      <trkpt lat="44.12327" lon="1.9443">
        <ele>236.6</ele>
        <time>2024-04-07T09:07:54Z</time>
      </trkpt>
      <trkpt lat="44.12325" lon="1.94439">
        <ele>234.8</ele>
        <time>2024-04-07T09:07:55Z</time>
      </trkpt>
      <trkpt lat="44.12323" lon="1.94448">
        <ele>233.8</ele>
        <time>2024-04-07T09:07:56Z</time>
      </trkpt>
      <trkpt lat="44.12321" lon="1.94458">
        <ele>232</ele>
        <time>2024-04-07T09:07:57Z</time>
      </trkpt>
      <trkpt lat="44.12318" lon="1.94467">
        <ele>231.2</ele>
        <time>2024-04-07T09:07:58Z</time>
      </trkpt>
      <trkpt lat="44.12317" lon="1.94475">
        <ele>229</ele>
        <time>2024-04-07T09:07:59Z</time>
      </trkpt>
      <trkpt lat="44.12316" lon="1.94482">
        <ele>227.2</ele>
        <time>2024-04-07T09:08:00Z</time>
      </trkpt>
      <trkpt lat="44.12313" lon="1.9449">
        <ele>225.6</ele>
        <time>2024-04-07T09:08:01Z</time>
      </trkpt>
      <trkpt lat="44.1231" lon="1.945">
        <ele>223.6</ele>
        <time>2024-04-07T09:08:02Z</time>
      </trkpt>
      <trkpt lat="44.12309" lon="1.94509">
        <ele>223</ele>
        <time>2024-04-07T09:08:03Z</time>
      </trkpt>
      <trkpt lat="44.12313" lon="1.94515">
        <ele>221.8</ele>
        <time>2024-04-07T09:08:04Z</time>
      </trkpt>
      <trkpt lat="44.12319" lon="1.94528">
        <ele>217.4</ele>
        <time>2024-04-07T09:08:06Z</time>
      </trkpt>
      <trkpt lat="44.1232" lon="1.94534">
        <ele>216.2</ele>
        <time>2024-04-07T09:08:07Z</time>
      </trkpt>
      <trkpt lat="44.1232" lon="1.94539">
        <ele>214.2</ele>
        <time>2024-04-07T09:08:08Z</time>
      </trkpt>
      <trkpt lat="44.12319" lon="1.94544">
        <ele>213.2</ele>
        <time>2024-04-07T09:08:09Z</time>
      </trkpt>
      <trkpt lat="44.12318" lon="1.94548">
        <ele>212.4</ele>
        <time>2024-04-07T09:08:10Z</time>
      </trkpt>
      <trkpt lat="44.12316" lon="1.94552">
        <ele>211</ele>
        <time>2024-04-07T09:08:11Z</time>
      </trkpt>
      <trkpt lat="44.12314" lon="1.94557">
        <ele>210.8</ele>
        <time>2024-04-07T09:08:12Z</time>
      </trkpt>
      <trkpt lat="44.12313" lon="1.9456">
        <ele>209.8</ele>
        <time>2024-04-07T09:08:13Z</time>
      </trkpt>
      <trkpt lat="44.12311" lon="1.94561">
        <ele>209</ele>
        <time>2024-04-07T09:08:14Z</time>
      </trkpt>
      <trkpt lat="44.12309" lon="1.9456">
        <ele>207.2</ele>
        <time>2024-04-07T09:08:15Z</time>
      </trkpt>
      <trkpt lat="44.12307" lon="1.94559">
        <ele>205.8</ele>
        <time>2024-04-07T09:08:16Z</time>
      </trkpt>
      <trkpt lat="44.12304" lon="1.94558">
        <ele>205.4</ele>
        <time>2024-04-07T09:08:17Z</time>
      </trkpt>
      <trkpt lat="44.12301" lon="1.94557">
        <ele>204.4</ele>
        <time>2024-04-07T09:08:18Z</time>
      </trkpt>
      <trkpt lat="44.12295" lon="1.94555">
        <ele>203.8</ele>
        <time>2024-04-07T09:08:20Z</time>
      </trkpt>
      <trkpt lat="44.12292" lon="1.94553">
        <ele>203.6</ele>
        <time>2024-04-07T09:08:21Z</time>
      </trkpt>
      <trkpt lat="44.12289" lon="1.9455">
        <ele>203.2</ele>
        <time>2024-04-07T09:08:22Z</time>
      </trkpt>
      <trkpt lat="44.12286" lon="1.94546">
        <ele>203</ele>
        <time>2024-04-07T09:08:23Z</time>
      </trkpt>
      <trkpt lat="44.12283" lon="1.94542">
        <ele>202.6</ele>
        <time>2024-04-07T09:08:24Z</time>
      </trkpt>
      <trkpt lat="44.12281" lon="1.9454">
        <ele>202.2</ele>
        <time>2024-04-07T09:08:25Z</time>
      </trkpt>
      <trkpt lat="44.12279" lon="1.94538">
        <ele>202</ele>
        <time>2024-04-07T09:08:26Z</time>
      </trkpt>
      <trkpt lat="44.12276" lon="1.94536">
        <ele>201.4</ele>
        <time>2024-04-07T09:08:27Z</time>
      </trkpt>
      <trkpt lat="44.12274" lon="1.94533">
        <ele>201.2</ele>
        <time>2024-04-07T09:08:28Z</time>
      </trkpt>
      <trkpt lat="44.12269" lon="1.94528">
        <ele>200.2</ele>
        <time>2024-04-07T09:08:30Z</time>
      </trkpt>
      <trkpt lat="44.12267" lon="1.94525">
        <ele>199.6</ele>
        <time>2024-04-07T09:08:31Z</time>
      </trkpt>
      <trkpt lat="44.12264" lon="1.94522">
        <ele>199</ele>
        <time>2024-04-07T09:08:32Z</time>
      </trkpt>
      <trkpt lat="44.1226" lon="1.9452">
        <ele>198</ele>
        <time>2024-04-07T09:08:33Z</time>
      </trkpt>
      <trkpt lat="44.12258" lon="1.94517">
        <ele>197.2</ele>
        <time>2024-04-07T09:08:34Z</time>
      </trkpt>
      <trkpt lat="44.12256" lon="1.94514">
        <ele>197</ele>
        <time>2024-04-07T09:08:35Z</time>
      </trkpt>
      <trkpt lat="44.12255" lon="1.94512">
        <ele>196.6</ele>
        <time>2024-04-07T09:08:36Z</time>
      </trkpt>
      <trkpt lat="44.12253" lon="1.9451">
        <ele>196.4</ele>
        <time>2024-04-07T09:08:37Z</time>
      </trkpt>
      <trkpt lat="44.12251" lon="1.94508">
        <ele>196.2</ele>
        <time>2024-04-07T09:08:38Z</time>
      </trkpt>
      <trkpt lat="44.12249" lon="1.94506">
        <ele>196</ele>
        <time>2024-04-07T09:08:39Z</time>
      </trkpt>
      <trkpt lat="44.12247" lon="1.94502">
        <ele>195.6</ele>
        <time>2024-04-07T09:08:40Z</time>
      </trkpt>
      <trkpt lat="44.12244" lon="1.94498">
        <ele>195.4</ele>
        <time>2024-04-07T09:08:41Z</time>
      </trkpt>
      <trkpt lat="44.12242" lon="1.94495">
        <ele>195.2</ele>
        <time>2024-04-07T09:08:42Z</time>
      </trkpt>
      <trkpt lat="44.12239" lon="1.94493">
        <ele>195</ele>
        <time>2024-04-07T09:08:43Z</time>
      </trkpt>
      <trkpt lat="44.12236" lon="1.9449">
        <ele>194.8</ele>
        <time>2024-04-07T09:08:44Z</time>
      </trkpt>
      <trkpt lat="44.12233" lon="1.94487">
        <ele>194.6</ele>
        <time>2024-04-07T09:08:45Z</time>
      </trkpt>
      <trkpt lat="44.12231" lon="1.94485">
        <ele>194.4</ele>
        <time>2024-04-07T09:08:46Z</time>
      </trkpt>
      <trkpt lat="44.12228" lon="1.94483">
        <ele>194.2</ele>
        <time>2024-04-07T09:08:47Z</time>
      </trkpt>
      <trkpt lat="44.12225" lon="1.9448">
        <ele>194.2</ele>
        <time>2024-04-07T09:08:48Z</time>
      </trkpt>
      <trkpt lat="44.12222" lon="1.94477">
        <ele>194</ele>
        <time>2024-04-07T09:08:49Z</time>
      </trkpt>
      <trkpt lat="44.12218" lon="1.94474">
        <ele>193.8</ele>
        <time>2024-04-07T09:08:50Z</time>
      </trkpt>
      <trkpt lat="44.12215" lon="1.94472">
        <ele>193.6</ele>
        <time>2024-04-07T09:08:51Z</time>
      </trkpt>
      <trkpt lat="44.12212" lon="1.94469">
        <ele>193.6</ele>
        <time>2024-04-07T09:08:52Z</time>
      </trkpt>
      <trkpt lat="44.1221" lon="1.94467">
        <ele>193.4</ele>
        <time>2024-04-07T09:08:53Z</time>
      </trkpt>
      <trkpt lat="44.12208" lon="1.94461">
        <ele>193.2</ele>
        <time>2024-04-07T09:08:54Z</time>
      </trkpt>
      <trkpt lat="44.12205" lon="1.94457">
        <ele>193.2</ele>
        <time>2024-04-07T09:08:55Z</time>
      </trkpt>
      <trkpt lat="44.12202" lon="1.94454">
        <ele>193.2</ele>
        <time>2024-04-07T09:08:56Z</time>
      </trkpt>
      <trkpt lat="44.12198" lon="1.94451">
        <ele>193.2</ele>
        <time>2024-04-07T09:08:57Z</time>
      </trkpt>
      <trkpt lat="44.12194" lon="1.94448">
        <ele>193</ele>
        <time>2024-04-07T09:08:58Z</time>
      </trkpt>
      <trkpt lat="44.1219" lon="1.94445">
        <ele>193</ele>
        <time>2024-04-07T09:08:59Z</time>
      </trkpt>
      <trkpt lat="44.12187" lon="1.9444">
        <ele>192.8</ele>
        <time>2024-04-07T09:09:00Z</time>
      </trkpt>
      <trkpt lat="44.12184" lon="1.94435">
        <ele>192.8</ele>
        <time>2024-04-07T09:09:01Z</time>
      </trkpt>
      <trkpt lat="44.12182" lon="1.9443">
        <ele>192.8</ele>
        <time>2024-04-07T09:09:02Z</time>
      </trkpt>
      <trkpt lat="44.1218" lon="1.94425">
        <ele>192.6</ele>
        <time>2024-04-07T09:09:03Z</time>
      </trkpt>
      <trkpt lat="44.12179" lon="1.94418">
        <ele>192.6</ele>
        <time>2024-04-07T09:09:04Z</time>
      </trkpt>
      <trkpt lat="44.12177" lon="1.94412">
        <ele>192.6</ele>
        <time>2024-04-07T09:09:05Z</time>
      </trkpt>
      <trkpt lat="44.12175" lon="1.94405">
        <ele>192.6</ele>
        <time>2024-04-07T09:09:06Z</time>
      </trkpt>
      <trkpt lat="44.12174" lon="1.94397">
        <ele>192.6</ele>
        <time>2024-04-07T09:09:07Z</time>
      </trkpt>
      <trkpt lat="44.12172" lon="1.9439">
        <ele>192.4</ele>
        <time>2024-04-07T09:09:08Z</time>
      </trkpt>
      <trkpt lat="44.12169" lon="1.94383">
        <ele>192.2</ele>
        <time>2024-04-07T09:09:09Z</time>
      </trkpt>
      <trkpt lat="44.12167" lon="1.94375">
        <ele>192</ele>
        <time>2024-04-07T09:09:10Z</time>
      </trkpt>
      <trkpt lat="44.12165" lon="1.94368">
        <ele>192</ele>
        <time>2024-04-07T09:09:11Z</time>
      </trkpt>
      <trkpt lat="44.12164" lon="1.94361">
        <ele>191.6</ele>
        <time>2024-04-07T09:09:12Z</time>
      </trkpt>
      <trkpt lat="44.12162" lon="1.94353">
        <ele>191.4</ele>
        <time>2024-04-07T09:09:13Z</time>
      </trkpt>
      <trkpt lat="44.1216" lon="1.94345">
        <ele>191.4</ele>
        <time>2024-04-07T09:09:14Z</time>
      </trkpt>
      <trkpt lat="44.12159" lon="1.94336">
        <ele>191.2</ele>
        <time>2024-04-07T09:09:15Z</time>
      </trkpt>
      <trkpt lat="44.12157" lon="1.94329">
        <ele>191.2</ele>
        <time>2024-04-07T09:09:16Z</time>
      </trkpt>
      <trkpt lat="44.12156" lon="1.94323">
        <ele>191.2</ele>
        <time>2024-04-07T09:09:17Z</time>
      </trkpt>
      <trkpt lat="44.12154" lon="1.94316">
        <ele>191</ele>
        <time>2024-04-07T09:09:18Z</time>
      </trkpt>
      <trkpt lat="44.12152" lon="1.94309">
        <ele>190.6</ele>
        <time>2024-04-07T09:09:19Z</time>
      </trkpt>
      <trkpt lat="44.1215" lon="1.94302">
        <ele>190.6</ele>
        <time>2024-04-07T09:09:20Z</time>
      </trkpt>
      <trkpt lat="44.12147" lon="1.94296">
        <ele>190.4</ele>
        <time>2024-04-07T09:09:21Z</time>
      </trkpt>
      <trkpt lat="44.12145" lon="1.94289">
        <ele>190.4</ele>
        <time>2024-04-07T09:09:22Z</time>
      </trkpt>
      <trkpt lat="44.12142" lon="1.94283">
        <ele>190.4</ele>
        <time>2024-04-07T09:09:23Z</time>
      </trkpt>
      <trkpt lat="44.12142" lon="1.94276">
        <ele>190.4</ele>
        <time>2024-04-07T09:09:24Z</time>
      </trkpt>
      <trkpt lat="44.12142" lon="1.94268">
        <ele>190.4</ele>
        <time>2024-04-07T09:09:25Z</time>
      </trkpt>
      <trkpt lat="44.12142" lon="1.94258">
        <ele>190.2</ele>
        <time>2024-04-07T09:09:26Z</time>
      </trkpt>
      <trkpt lat="44.12141" lon="1.94247">
        <ele>190.2</ele>
        <time>2024-04-07T09:09:27Z</time>
      </trkpt>
      <trkpt lat="44.12139" lon="1.94238">
        <ele>190</ele>
        <time>2024-04-07T09:09:28Z</time>
      </trkpt>
      <trkpt lat="44.12138" lon="1.94229">
        <ele>190</ele>
        <time>2024-04-07T09:09:29Z</time>
      </trkpt>
      <trkpt lat="44.12136" lon="1.94221">
        <ele>189.6</ele>
        <time>2024-04-07T09:09:30Z</time>
      </trkpt>
      <trkpt lat="44.12134" lon="1.94214">
        <ele>189.6</ele>
        <time>2024-04-07T09:09:31Z</time>
      </trkpt>
      <trkpt lat="44.12131" lon="1.94207">
        <ele>189.4</ele>
        <time>2024-04-07T09:09:32Z</time>
      </trkpt>
      <trkpt lat="44.1213" lon="1.94198">
        <ele>189.4</ele>
        <time>2024-04-07T09:09:33Z</time>
      </trkpt>
      <trkpt lat="44.12131" lon="1.9419">
        <ele>189.4</ele>
        <time>2024-04-07T09:09:34Z</time>
      </trkpt>
      <trkpt lat="44.12132" lon="1.94184">
        <ele>189.2</ele>
        <time>2024-04-07T09:09:35Z</time>
      </trkpt>
      <trkpt lat="44.12133" lon="1.94178">
        <ele>189.2</ele>
        <time>2024-04-07T09:09:36Z</time>
      </trkpt>
      <trkpt lat="44.12133" lon="1.94172">
        <ele>189.2</ele>
        <time>2024-04-07T09:09:37Z</time>
      </trkpt>
      <trkpt lat="44.12132" lon="1.94168">
        <ele>189.2</ele>
        <time>2024-04-07T09:09:38Z</time>
      </trkpt>
      <trkpt lat="44.1213" lon="1.94163">
        <ele>189.2</ele>
        <time>2024-04-07T09:09:39Z</time>
      </trkpt>
      <trkpt lat="44.12127" lon="1.94157">
        <ele>189.2</ele>
        <time>2024-04-07T09:09:40Z</time>
      </trkpt>
      <trkpt lat="44.12126" lon="1.94151">
        <ele>189.2</ele>
        <time>2024-04-07T09:09:41Z</time>
      </trkpt>
      <trkpt lat="44.12124" lon="1.94144">
        <ele>189.2</ele>
        <time>2024-04-07T09:09:42Z</time>
      </trkpt>
      <trkpt lat="44.12122" lon="1.94137">
        <ele>189.2</ele>
        <time>2024-04-07T09:09:43Z</time>
      </trkpt>
      <trkpt lat="44.1212" lon="1.9413">
        <ele>189.2</ele>
        <time>2024-04-07T09:09:44Z</time>
      </trkpt>
      <trkpt lat="44.12118" lon="1.94123">
        <ele>189.4</ele>
        <time>2024-04-07T09:09:45Z</time>
      </trkpt>
      <trkpt lat="44.12117" lon="1.94116">
        <ele>189.4</ele>
        <time>2024-04-07T09:09:46Z</time>
      </trkpt>
      <trkpt lat="44.12115" lon="1.94111">
        <ele>189.2</ele>
        <time>2024-04-07T09:09:47Z</time>
      </trkpt>
      <trkpt lat="44.12114" lon="1.94108">
        <ele>189.2</ele>
        <time>2024-04-07T09:09:48Z</time>
      </trkpt>
      <trkpt lat="44.12113" lon="1.94106">
        <ele>189.2</ele>
        <time>2024-04-07T09:09:49Z</time>
      </trkpt>
      <trkpt lat="44.12113" lon="1.94103">
        <ele>189.2</ele>
        <time>2024-04-07T09:09:50Z</time>
      </trkpt>
      <trkpt lat="44.12112" lon="1.941">
        <ele>189</ele>
        <time>2024-04-07T09:09:51Z</time>
      </trkpt>
      <trkpt lat="44.1211" lon="1.94096">
        <ele>188.8</ele>
        <time>2024-04-07T09:09:52Z</time>
      </trkpt>
      <trkpt lat="44.12109" lon="1.94091">
        <ele>188.6</ele>
        <time>2024-04-07T09:09:53Z</time>
      </trkpt>
      <trkpt lat="44.12107" lon="1.94087">
        <ele>188.6</ele>
        <time>2024-04-07T09:09:54Z</time>
      </trkpt>
      <trkpt lat="44.12105" lon="1.94082">
        <ele>188.4</ele>
        <time>2024-04-07T09:09:55Z</time>
      </trkpt>
      <trkpt lat="44.12104" lon="1.94077">
        <ele>188.2</ele>
        <time>2024-04-07T09:09:56Z</time>
      </trkpt>
      <trkpt lat="44.12102" lon="1.94072">
        <ele>188.2</ele>
        <time>2024-04-07T09:09:57Z</time>
      </trkpt>
      <trkpt lat="44.12101" lon="1.94068">
        <ele>188</ele>
        <time>2024-04-07T09:09:58Z</time>
      </trkpt>
      <trkpt lat="44.12099" lon="1.94063">
        <ele>188</ele>
        <time>2024-04-07T09:09:59Z</time>
      </trkpt>
      <trkpt lat="44.12099" lon="1.9406">
        <ele>188</ele>
        <time>2024-04-07T09:10:00Z</time>
      </trkpt>
      <trkpt lat="44.12098" lon="1.94058">
        <ele>188</ele>
        <time>2024-04-07T09:10:01Z</time>
      </trkpt>
      <trkpt lat="44.12097" lon="1.94055">
        <ele>187.6</ele>
        <time>2024-04-07T09:10:02Z</time>
      </trkpt>
      <trkpt lat="44.12096" lon="1.94051">
        <ele>187.6</ele>
        <time>2024-04-07T09:10:03Z</time>
      </trkpt>
      <trkpt lat="44.12095" lon="1.94048">
        <ele>187.4</ele>
        <time>2024-04-07T09:10:04Z</time>
      </trkpt>
      <trkpt lat="44.12093" lon="1.94043">
        <ele>187.4</ele>
        <time>2024-04-07T09:10:05Z</time>
      </trkpt>
      <trkpt lat="44.12091" lon="1.94039">
        <ele>187.4</ele>
        <time>2024-04-07T09:10:06Z</time>
      </trkpt>
      <trkpt lat="44.12089" lon="1.94032">
        <ele>187.4</ele>
        <time>2024-04-07T09:10:07Z</time>
      </trkpt>
      <trkpt lat="44.12089" lon="1.94026">
        <ele>187.2</ele>
        <time>2024-04-07T09:10:08Z</time>
      </trkpt>
      <trkpt lat="44.12087" lon="1.94023">
        <ele>187.2</ele>
        <time>2024-04-07T09:10:09Z</time>
      </trkpt>
      <trkpt lat="44.12085" lon="1.94021">
        <ele>187</ele>
        <time>2024-04-07T09:10:10Z</time>
      </trkpt>
      <trkpt lat="44.12084" lon="1.94018">
        <ele>187</ele>
        <time>2024-04-07T09:10:11Z</time>
      </trkpt>
      <trkpt lat="44.12082" lon="1.94016">
        <ele>187</ele>
        <time>2024-04-07T09:10:12Z</time>
      </trkpt>
      <trkpt lat="44.12081" lon="1.94014">
        <ele>186.8</ele>
        <time>2024-04-07T09:10:13Z</time>
      </trkpt>
      <trkpt lat="44.12079" lon="1.94011">
        <ele>186.8</ele>
        <time>2024-04-07T09:10:14Z</time>
      </trkpt>
      <trkpt lat="44.12078" lon="1.94009">
        <ele>186.8</ele>
        <time>2024-04-07T09:10:15Z</time>
      </trkpt>
      <trkpt lat="44.12076" lon="1.94006">
        <ele>186.6</ele>
        <time>2024-04-07T09:10:16Z</time>
      </trkpt>
      <trkpt lat="44.12074" lon="1.94004">
        <ele>186.4</ele>
        <time>2024-04-07T09:10:17Z</time>
      </trkpt>
      <trkpt lat="44.12072" lon="1.94001">
        <ele>186.4</ele>
        <time>2024-04-07T09:10:18Z</time>
      </trkpt>
      <trkpt lat="44.12069" lon="1.93998">
        <ele>186.4</ele>
        <time>2024-04-07T09:10:19Z</time>
      </trkpt>
      <trkpt lat="44.12067" lon="1.93995">
        <ele>186.4</ele>
        <time>2024-04-07T09:10:20Z</time>
      </trkpt>
      <trkpt lat="44.12063" lon="1.93992">
        <ele>186.4</ele>
        <time>2024-04-07T09:10:21Z</time>
      </trkpt>
      <trkpt lat="44.12061" lon="1.93989">
        <ele>186.2</ele>
        <time>2024-04-07T09:10:22Z</time>
      </trkpt>
      <trkpt lat="44.12057" lon="1.93985">
        <ele>186.2</ele>
        <time>2024-04-07T09:10:23Z</time>
      </trkpt>
      <trkpt lat="44.12053" lon="1.93981">
        <ele>186.2</ele>
        <time>2024-04-07T09:10:24Z</time>
      </trkpt>
      <trkpt lat="44.12049" lon="1.93976">
        <ele>186.2</ele>
        <time>2024-04-07T09:10:25Z</time>
      </trkpt>
      <trkpt lat="44.12046" lon="1.93969">
        <ele>186.2</ele>
        <time>2024-04-07T09:10:26Z</time>
      </trkpt>
      <trkpt lat="44.12043" lon="1.93965">
        <ele>186</ele>
        <time>2024-04-07T09:10:27Z</time>
      </trkpt>
      <trkpt lat="44.1204" lon="1.93962">
        <ele>186</ele>
        <time>2024-04-07T09:10:28Z</time>
      </trkpt>
      <trkpt lat="44.12039" lon="1.93961">
        <ele>186</ele>
        <time>2024-04-07T09:10:29Z</time>
      </trkpt>
      <trkpt lat="44.12037" lon="1.93959">
        <ele>185.8</ele>
        <time>2024-04-07T09:10:30Z</time>
      </trkpt>
      <trkpt lat="44.12035" lon="1.93958">
        <ele>185.6</ele>
        <time>2024-04-07T09:10:31Z</time>
      </trkpt>
      <trkpt lat="44.12032" lon="1.93956">
        <ele>185.4</ele>
        <time>2024-04-07T09:10:32Z</time>
      </trkpt>
      <trkpt lat="44.12031" lon="1.93952">
        <ele>185.2</ele>
        <time>2024-04-07T09:10:33Z</time>
      </trkpt>
      <trkpt lat="44.12028" lon="1.93951">
        <ele>185</ele>
        <time>2024-04-07T09:10:34Z</time>
      </trkpt>
      <trkpt lat="44.12026" lon="1.93949">
        <ele>185</ele>
        <time>2024-04-07T09:10:35Z</time>
      </trkpt>
      <trkpt lat="44.12024" lon="1.93948">
        <ele>185</ele>
        <time>2024-04-07T09:10:36Z</time>
      </trkpt>
      <trkpt lat="44.12023" lon="1.93946">
        <ele>184.8</ele>
        <time>2024-04-07T09:10:37Z</time>
      </trkpt>
      <trkpt lat="44.12021" lon="1.93944">
        <ele>184.8</ele>
        <time>2024-04-07T09:10:38Z</time>
      </trkpt>
      <trkpt lat="44.12019" lon="1.93942">
        <ele>184.8</ele>
        <time>2024-04-07T09:10:39Z</time>
      </trkpt>
      <trkpt lat="44.12018" lon="1.93941">
        <ele>184.8</ele>
        <time>2024-04-07T09:10:40Z</time>
      </trkpt>
      <trkpt lat="44.12017" lon="1.9394">
        <ele>184.8</ele>
        <time>2024-04-07T09:10:41Z</time>
      </trkpt>
      <trkpt lat="44.12015" lon="1.93937">
        <ele>184.8</ele>
        <time>2024-04-07T09:10:42Z</time>
      </trkpt>
      <trkpt lat="44.12013" lon="1.93935">
        <ele>184.8</ele>
        <time>2024-04-07T09:10:43Z</time>
      </trkpt>
      <trkpt lat="44.12012" lon="1.93931">
        <ele>184.8</ele>
        <time>2024-04-07T09:10:44Z</time>
      </trkpt>
      <trkpt lat="44.12011" lon="1.93928">
        <ele>184.8</ele>
        <time>2024-04-07T09:10:45Z</time>
      </trkpt>
      <trkpt lat="44.1201" lon="1.93925">
        <ele>184.8</ele>
        <time>2024-04-07T09:10:46Z</time>
      </trkpt>
      <trkpt lat="44.1201" lon="1.93921">
        <ele>184.8</ele>
        <time>2024-04-07T09:10:47Z</time>
      </trkpt>
      <trkpt lat="44.1201" lon="1.93917">
        <ele>184.8</ele>
        <time>2024-04-07T09:10:48Z</time>
      </trkpt>
      <trkpt lat="44.12012" lon="1.93913">
        <ele>184.8</ele>
        <time>2024-04-07T09:10:49Z</time>
      </trkpt>
      <trkpt lat="44.12013" lon="1.93908">
        <ele>185</ele>
        <time>2024-04-07T09:10:50Z</time>
      </trkpt>
      <trkpt lat="44.12014" lon="1.93904">
        <ele>185</ele>
        <time>2024-04-07T09:10:51Z</time>
      </trkpt>
      <trkpt lat="44.12014" lon="1.939">
        <ele>185.2</ele>
        <time>2024-04-07T09:10:52Z</time>
      </trkpt>
      <trkpt lat="44.12016" lon="1.93896">
        <ele>185.2</ele>
        <time>2024-04-07T09:10:53Z</time>
      </trkpt>
      <trkpt lat="44.12018" lon="1.93892">
        <ele>185.4</ele>
        <time>2024-04-07T09:10:54Z</time>
      </trkpt>
      <trkpt lat="44.12018" lon="1.93887">
        <ele>185.8</ele>
        <time>2024-04-07T09:10:55Z</time>
      </trkpt>
      <trkpt lat="44.12021" lon="1.9388">
        <ele>186</ele>
        <time>2024-04-07T09:10:56Z</time>
      </trkpt>
      <trkpt lat="44.12022" lon="1.93874">
        <ele>186.2</ele>
        <time>2024-04-07T09:10:57Z</time>
      </trkpt>
      <trkpt lat="44.12023" lon="1.93867">
        <ele>186.2</ele>
        <time>2024-04-07T09:10:58Z</time>
      </trkpt>
      <trkpt lat="44.12025" lon="1.93859">
        <ele>186.4</ele>
        <time>2024-04-07T09:10:59Z</time>
      </trkpt>
      <trkpt lat="44.12026" lon="1.93853">
        <ele>186.4</ele>
        <time>2024-04-07T09:11:00Z</time>
      </trkpt>
      <trkpt lat="44.12028" lon="1.93846">
        <ele>186.4</ele>
        <time>2024-04-07T09:11:01Z</time>
      </trkpt>
      <trkpt lat="44.12029" lon="1.93841">
        <ele>186</ele>
        <time>2024-04-07T09:11:02Z</time>
      </trkpt>
      <trkpt lat="44.12031" lon="1.93838">
        <ele>185.8</ele>
        <time>2024-04-07T09:11:03Z</time>
      </trkpt>
      <trkpt lat="44.12031" lon="1.93833">
        <ele>185.4</ele>
        <time>2024-04-07T09:11:04Z</time>
      </trkpt>
      <trkpt lat="44.12033" lon="1.93828">
        <ele>185.4</ele>
        <time>2024-04-07T09:11:05Z</time>
      </trkpt>
      <trkpt lat="44.12035" lon="1.93825">
        <ele>185</ele>
        <time>2024-04-07T09:11:06Z</time>
      </trkpt>
      <trkpt lat="44.12036" lon="1.93821">
        <ele>185</ele>
        <time>2024-04-07T09:11:07Z</time>
      </trkpt>
      <trkpt lat="44.12039" lon="1.93817">
        <ele>184.6</ele>
        <time>2024-04-07T09:11:08Z</time>
      </trkpt>
      <trkpt lat="44.1204" lon="1.93813">
        <ele>184.6</ele>
        <time>2024-04-07T09:11:09Z</time>
      </trkpt>
      <trkpt lat="44.12042" lon="1.93808">
        <ele>184.6</ele>
        <time>2024-04-07T09:11:10Z</time>
      </trkpt>
      <trkpt lat="44.12041" lon="1.93804">
        <ele>184.4</ele>
        <time>2024-04-07T09:11:11Z</time>
      </trkpt>
      <trkpt lat="44.12041" lon="1.938">
        <ele>184.4</ele>
        <time>2024-04-07T09:11:12Z</time>
      </trkpt>
      <trkpt lat="44.1204" lon="1.93794">
        <ele>184.2</ele>
        <time>2024-04-07T09:11:13Z</time>
      </trkpt>
      <trkpt lat="44.1204" lon="1.93788">
        <ele>184.2</ele>
        <time>2024-04-07T09:11:14Z</time>
      </trkpt>
      <trkpt lat="44.12039" lon="1.93782">
        <ele>184.2</ele>
        <time>2024-04-07T09:11:15Z</time>
      </trkpt>
      <trkpt lat="44.12038" lon="1.93776">
        <ele>184.2</ele>
        <time>2024-04-07T09:11:16Z</time>
      </trkpt>
      <trkpt lat="44.12036" lon="1.93771">
        <ele>184.2</ele>
        <time>2024-04-07T09:11:17Z</time>
      </trkpt>
      <trkpt lat="44.12036" lon="1.93765">
        <ele>184.2</ele>
        <time>2024-04-07T09:11:18Z</time>
      </trkpt>
      <trkpt lat="44.12035" lon="1.9376">
        <ele>184</ele>
        <time>2024-04-07T09:11:19Z</time>
      </trkpt>
      <trkpt lat="44.12035" lon="1.93755">
        <ele>184</ele>
        <time>2024-04-07T09:11:20Z</time>
      </trkpt>
      <trkpt lat="44.12035" lon="1.93749">
        <ele>184</ele>
        <time>2024-04-07T09:11:21Z</time>
      </trkpt>
      <trkpt lat="44.12035" lon="1.93743">
        <ele>183.8</ele>
        <time>2024-04-07T09:11:22Z</time>
      </trkpt>
      <trkpt lat="44.12035" lon="1.93736">
        <ele>183.8</ele>
        <time>2024-04-07T09:11:23Z</time>
      </trkpt>
      <trkpt lat="44.12035" lon="1.93728">
        <ele>183.8</ele>
        <time>2024-04-07T09:11:24Z</time>
      </trkpt>
      <trkpt lat="44.12034" lon="1.9372">
        <ele>183.8</ele>
        <time>2024-04-07T09:11:25Z</time>
      </trkpt>
      <trkpt lat="44.12032" lon="1.93713">
        <ele>183.8</ele>
        <time>2024-04-07T09:11:26Z</time>
      </trkpt>
      <trkpt lat="44.12029" lon="1.93706">
        <ele>183.8</ele>
        <time>2024-04-07T09:11:27Z</time>
      </trkpt>
      <trkpt lat="44.12026" lon="1.93701">
        <ele>183.8</ele>
        <time>2024-04-07T09:11:28Z</time>
      </trkpt>
      <trkpt lat="44.12023" lon="1.93696">
        <ele>183.6</ele>
        <time>2024-04-07T09:11:29Z</time>
      </trkpt>
      <trkpt lat="44.1202" lon="1.9369">
        <ele>183.6</ele>
        <time>2024-04-07T09:11:30Z</time>
      </trkpt>
      <trkpt lat="44.12017" lon="1.93684">
        <ele>183.6</ele>
        <time>2024-04-07T09:11:31Z</time>
      </trkpt>
      <trkpt lat="44.12011" lon="1.93673">
        <ele>183.4</ele>
        <time>2024-04-07T09:11:33Z</time>
      </trkpt>
      <trkpt lat="44.12007" lon="1.93667">
        <ele>183.4</ele>
        <time>2024-04-07T09:11:34Z</time>
      </trkpt>
      <trkpt lat="44.11999" lon="1.93653">
        <ele>183.4</ele>
        <time>2024-04-07T09:11:36Z</time>
      </trkpt>
      <trkpt lat="44.11996" lon="1.93646">
        <ele>183.4</ele>
        <time>2024-04-07T09:11:37Z</time>
      </trkpt>
      <trkpt lat="44.11992" lon="1.93641">
        <ele>183.2</ele>
        <time>2024-04-07T09:11:38Z</time>
      </trkpt>
      <trkpt lat="44.11988" lon="1.93638">
        <ele>183.2</ele>
        <time>2024-04-07T09:11:39Z</time>
      </trkpt>
      <trkpt lat="44.11982" lon="1.93634">
        <ele>183.2</ele>
        <time>2024-04-07T09:11:40Z</time>
      </trkpt>
      <trkpt lat="44.11978" lon="1.93629">
        <ele>183</ele>
        <time>2024-04-07T09:11:41Z</time>
      </trkpt>
      <trkpt lat="44.11973" lon="1.93625">
        <ele>183</ele>
        <time>2024-04-07T09:11:42Z</time>
      </trkpt>
      <trkpt lat="44.11968" lon="1.93622">
        <ele>183</ele>
        <time>2024-04-07T09:11:43Z</time>
      </trkpt>
      <trkpt lat="44.11965" lon="1.93617">
        <ele>183</ele>
        <time>2024-04-07T09:11:44Z</time>
      </trkpt>
      <trkpt lat="44.11959" lon="1.93613">
        <ele>183</ele>
        <time>2024-04-07T09:11:45Z</time>
      </trkpt>
      <trkpt lat="44.11952" lon="1.93607">
        <ele>183</ele>
        <time>2024-04-07T09:11:46Z</time>
      </trkpt>
      <trkpt lat="44.11948" lon="1.93601">
        <ele>182.8</ele>
        <time>2024-04-07T09:11:47Z</time>
      </trkpt>
      <trkpt lat="44.11944" lon="1.93595">
        <ele>182.8</ele>
        <time>2024-04-07T09:11:48Z</time>
      </trkpt>
      <trkpt lat="44.11941" lon="1.93587">
        <ele>182.6</ele>
        <time>2024-04-07T09:11:49Z</time>
      </trkpt>
      <trkpt lat="44.11938" lon="1.93581">
        <ele>182.4</ele>
        <time>2024-04-07T09:11:50Z</time>
      </trkpt>
      <trkpt lat="44.11937" lon="1.93573">
        <ele>182.4</ele>
        <time>2024-04-07T09:11:51Z</time>
      </trkpt>
      <trkpt lat="44.11935" lon="1.93564">
        <ele>182.2</ele>
        <time>2024-04-07T09:11:52Z</time>
      </trkpt>
      <trkpt lat="44.11935" lon="1.93556">
        <ele>182</ele>
        <time>2024-04-07T09:11:53Z</time>
      </trkpt>
      <trkpt lat="44.11936" lon="1.93547">
        <ele>182</ele>
        <time>2024-04-07T09:11:54Z</time>
      </trkpt>
      <trkpt lat="44.11936" lon="1.93539">
        <ele>182</ele>
        <time>2024-04-07T09:11:55Z</time>
      </trkpt>
      <trkpt lat="44.11935" lon="1.93532">
        <ele>182</ele>
        <time>2024-04-07T09:11:56Z</time>
      </trkpt>
      <trkpt lat="44.11933" lon="1.93525">
        <ele>182</ele>
        <time>2024-04-07T09:11:57Z</time>
      </trkpt>
      <trkpt lat="44.11933" lon="1.93519">
        <ele>182.2</ele>
        <time>2024-04-07T09:11:58Z</time>
      </trkpt>
      <trkpt lat="44.11933" lon="1.93514">
        <ele>182.4</ele>
        <time>2024-04-07T09:11:59Z</time>
      </trkpt>
      <trkpt lat="44.11932" lon="1.93513">
        <ele>182.6</ele>
        <time>2024-04-07T09:12:00Z</time>
      </trkpt>
      <trkpt lat="44.1193" lon="1.93513">
        <ele>182.8</ele>
        <time>2024-04-07T09:12:01Z</time>
      </trkpt>
      <trkpt lat="44.11928" lon="1.93515">
        <ele>183.2</ele>
        <time>2024-04-07T09:12:02Z</time>
      </trkpt>
      <trkpt lat="44.11925" lon="1.93518">
        <ele>183.6</ele>
        <time>2024-04-07T09:12:03Z</time>
      </trkpt>
      <trkpt lat="44.11922" lon="1.9352">
        <ele>183.8</ele>
        <time>2024-04-07T09:12:04Z</time>
      </trkpt>
      <trkpt lat="44.11919" lon="1.93523">
        <ele>184</ele>
        <time>2024-04-07T09:12:05Z</time>
      </trkpt>
      <trkpt lat="44.11914" lon="1.93526">
        <ele>184</ele>
        <time>2024-04-07T09:12:06Z</time>
      </trkpt>
      <trkpt lat="44.1191" lon="1.93528">
        <ele>184</ele>
        <time>2024-04-07T09:12:07Z</time>
      </trkpt>
      <trkpt lat="44.11904" lon="1.9353">
        <ele>184</ele>
        <time>2024-04-07T09:12:08Z</time>
      </trkpt>
      <trkpt lat="44.11899" lon="1.93531">
        <ele>184</ele>
        <time>2024-04-07T09:12:09Z</time>
      </trkpt>
      <trkpt lat="44.11888" lon="1.93532">
        <ele>184</ele>
        <time>2024-04-07T09:12:11Z</time>
      </trkpt>
      <trkpt lat="44.11883" lon="1.93531">
        <ele>184</ele>
        <time>2024-04-07T09:12:12Z</time>
      </trkpt>
      <trkpt lat="44.11877" lon="1.93528">
        <ele>183.8</ele>
        <time>2024-04-07T09:12:13Z</time>
      </trkpt>
      <trkpt lat="44.11872" lon="1.93526">
        <ele>183.8</ele>
        <time>2024-04-07T09:12:14Z</time>
      </trkpt>
      <trkpt lat="44.11867" lon="1.93523">
        <ele>183.6</ele>
        <time>2024-04-07T09:12:15Z</time>
      </trkpt>
      <trkpt lat="44.11863" lon="1.9352">
        <ele>183.6</ele>
        <time>2024-04-07T09:12:16Z</time>
      </trkpt>
      <trkpt lat="44.11858" lon="1.93518">
        <ele>183.4</ele>
        <time>2024-04-07T09:12:17Z</time>
      </trkpt>
      <trkpt lat="44.11855" lon="1.93519">
        <ele>183.4</ele>
        <time>2024-04-07T09:12:18Z</time>
      </trkpt>
      <trkpt lat="44.11854" lon="1.93523">
        <ele>183.4</ele>
        <time>2024-04-07T09:12:19Z</time>
      </trkpt>
      <trkpt lat="44.11853" lon="1.93528">
        <ele>183.2</ele>
        <time>2024-04-07T09:12:20Z</time>
      </trkpt>
      <trkpt lat="44.11854" lon="1.93537">
        <ele>183.2</ele>
        <time>2024-04-07T09:12:21Z</time>
      </trkpt>
      <trkpt lat="44.11854" lon="1.93544">
        <ele>183.2</ele>
        <time>2024-04-07T09:12:22Z</time>
      </trkpt>
      <trkpt lat="44.11855" lon="1.93551">
        <ele>183.2</ele>
        <time>2024-04-07T09:12:23Z</time>
      </trkpt>
      <trkpt lat="44.11856" lon="1.93558">
        <ele>183.2</ele>
        <time>2024-04-07T09:12:24Z</time>
      </trkpt>
      <trkpt lat="44.11857" lon="1.93565">
        <ele>183.2</ele>
        <time>2024-04-07T09:12:25Z</time>
      </trkpt>
      <trkpt lat="44.11858" lon="1.93572">
        <ele>183.2</ele>
        <time>2024-04-07T09:12:26Z</time>
      </trkpt>
      <trkpt lat="44.11859" lon="1.93579">
        <ele>183.2</ele>
        <time>2024-04-07T09:12:27Z</time>
      </trkpt>
      <trkpt lat="44.11861" lon="1.93587">
        <ele>183.2</ele>
        <time>2024-04-07T09:12:28Z</time>
      </trkpt>
      <trkpt lat="44.11862" lon="1.93593">
        <ele>183.2</ele>
        <time>2024-04-07T09:12:29Z</time>
      </trkpt>
      <trkpt lat="44.11863" lon="1.93601">
        <ele>183.2</ele>
        <time>2024-04-07T09:12:30Z</time>
      </trkpt>
      <trkpt lat="44.11865" lon="1.93608">
        <ele>183.4</ele>
        <time>2024-04-07T09:12:31Z</time>
      </trkpt>
      <trkpt lat="44.11866" lon="1.93614">
        <ele>183.4</ele>
        <time>2024-04-07T09:12:32Z</time>
      </trkpt>
      <trkpt lat="44.11868" lon="1.9362">
        <ele>183.6</ele>
        <time>2024-04-07T09:12:33Z</time>
      </trkpt>
      <trkpt lat="44.11871" lon="1.93627">
        <ele>183.8</ele>
        <time>2024-04-07T09:12:34Z</time>
      </trkpt>
      <trkpt lat="44.11877" lon="1.9364">
        <ele>184.2</ele>
        <time>2024-04-07T09:12:36Z</time>
      </trkpt>
      <trkpt lat="44.1188" lon="1.93645">
        <ele>184.6</ele>
        <time>2024-04-07T09:12:37Z</time>
      </trkpt>
      <trkpt lat="44.11883" lon="1.93651">
        <ele>185</ele>
        <time>2024-04-07T09:12:38Z</time>
      </trkpt>
      <trkpt lat="44.11887" lon="1.93657">
        <ele>185</ele>
        <time>2024-04-07T09:12:39Z</time>
      </trkpt>
      <trkpt lat="44.1189" lon="1.93663">
        <ele>185.2</ele>
        <time>2024-04-07T09:12:40Z</time>
      </trkpt>
      <trkpt lat="44.11893" lon="1.93669">
        <ele>185.6</ele>
        <time>2024-04-07T09:12:41Z</time>
      </trkpt>
      <trkpt lat="44.11899" lon="1.93685">
        <ele>186.2</ele>
        <time>2024-04-07T09:12:43Z</time>
      </trkpt>
      <trkpt lat="44.11902" lon="1.93693">
        <ele>186.6</ele>
        <time>2024-04-07T09:12:44Z</time>
      </trkpt>
      <trkpt lat="44.11904" lon="1.93701">
        <ele>186.8</ele>
        <time>2024-04-07T09:12:45Z</time>
      </trkpt>
      <trkpt lat="44.11907" lon="1.93708">
        <ele>187</ele>
        <time>2024-04-07T09:12:46Z</time>
      </trkpt>
      <trkpt lat="44.11907" lon="1.93713">
        <ele>187.2</ele>
        <time>2024-04-07T09:12:47Z</time>
      </trkpt>
      <trkpt lat="44.11907" lon="1.9372">
        <ele>187.2</ele>
        <time>2024-04-07T09:12:48Z</time>
      </trkpt>
      <trkpt lat="44.11905" lon="1.93725">
        <ele>187.2</ele>
        <time>2024-04-07T09:12:49Z</time>
      </trkpt>
      <trkpt lat="44.11903" lon="1.93728">
        <ele>187.4</ele>
        <time>2024-04-07T09:12:50Z</time>
      </trkpt>
      <trkpt lat="44.11901" lon="1.93732">
        <ele>187.4</ele>
        <time>2024-04-07T09:12:51Z</time>
      </trkpt>
      <trkpt lat="44.11901" lon="1.93734">
        <ele>187.4</ele>
        <time>2024-04-07T09:12:52Z</time>
      </trkpt>
      <trkpt lat="44.119" lon="1.93737">
        <ele>187.4</ele>
        <time>2024-04-07T09:12:53Z</time>
      </trkpt>
      <trkpt lat="44.11899" lon="1.93741">
        <ele>187.2</ele>
        <time>2024-04-07T09:12:54Z</time>
      </trkpt>
      <trkpt lat="44.11897" lon="1.93747">
        <ele>187.2</ele>
        <time>2024-04-07T09:12:55Z</time>
      </trkpt>
      <trkpt lat="44.11894" lon="1.9375">
        <ele>187.4</ele>
        <time>2024-04-07T09:12:56Z</time>
      </trkpt>
      <trkpt lat="44.11893" lon="1.93754">
        <ele>187.2</ele>
        <time>2024-04-07T09:12:57Z</time>
      </trkpt>
      <trkpt lat="44.11888" lon="1.93762">
        <ele>187.2</ele>
        <time>2024-04-07T09:12:58Z</time>
      </trkpt>
      <trkpt lat="44.11885" lon="1.93767">
        <ele>187.4</ele>
        <time>2024-04-07T09:12:59Z</time>
      </trkpt>
      <trkpt lat="44.11882" lon="1.93773">
        <ele>187.4</ele>
        <time>2024-04-07T09:13:00Z</time>
      </trkpt>
      <trkpt lat="44.11879" lon="1.93777">
        <ele>187.6</ele>
        <time>2024-04-07T09:13:01Z</time>
      </trkpt>
      <trkpt lat="44.11876" lon="1.93782">
        <ele>187.6</ele>
        <time>2024-04-07T09:13:02Z</time>
      </trkpt>
      <trkpt lat="44.11873" lon="1.93787">
        <ele>187.6</ele>
        <time>2024-04-07T09:13:03Z</time>
      </trkpt>
      <trkpt lat="44.11869" lon="1.93793">
        <ele>187.6</ele>
        <time>2024-04-07T09:13:04Z</time>
      </trkpt>
      <trkpt lat="44.11866" lon="1.93798">
        <ele>187.8</ele>
        <time>2024-04-07T09:13:05Z</time>
      </trkpt>
      <trkpt lat="44.11863" lon="1.93803">
        <ele>187.8</ele>
        <time>2024-04-07T09:13:06Z</time>
      </trkpt>
      <trkpt lat="44.1186" lon="1.93808">
        <ele>188</ele>
        <time>2024-04-07T09:13:07Z</time>
      </trkpt>
      <trkpt lat="44.11859" lon="1.93813">
        <ele>188.2</ele>
        <time>2024-04-07T09:13:08Z</time>
      </trkpt>
      <trkpt lat="44.11857" lon="1.93816">
        <ele>188.4</ele>
        <time>2024-04-07T09:13:09Z</time>
      </trkpt>
      <trkpt lat="44.11854" lon="1.9382">
        <ele>188.4</ele>
        <time>2024-04-07T09:13:10Z</time>
      </trkpt>
      <trkpt lat="44.11852" lon="1.93822">
        <ele>188.6</ele>
        <time>2024-04-07T09:13:11Z</time>
      </trkpt>
      <trkpt lat="44.11849" lon="1.93823">
        <ele>188.8</ele>
        <time>2024-04-07T09:13:12Z</time>
      </trkpt>
      <trkpt lat="44.11848" lon="1.93824">
        <ele>189</ele>
        <time>2024-04-07T09:13:13Z</time>
      </trkpt>
      <trkpt lat="44.11847" lon="1.93825">
        <ele>189.2</ele>
        <time>2024-04-07T09:13:14Z</time>
      </trkpt>
      <trkpt lat="44.11844" lon="1.93826">
        <ele>189.4</ele>
        <time>2024-04-07T09:13:15Z</time>
      </trkpt>
      <trkpt lat="44.11842" lon="1.93826">
        <ele>189.4</ele>
        <time>2024-04-07T09:13:16Z</time>
      </trkpt>
      <trkpt lat="44.11838" lon="1.93827">
        <ele>189.6</ele>
        <time>2024-04-07T09:13:17Z</time>
      </trkpt>
      <trkpt lat="44.11835" lon="1.93828">
        <ele>190</ele>
        <time>2024-04-07T09:13:18Z</time>
      </trkpt>
      <trkpt lat="44.11831" lon="1.9383">
        <ele>190.2</ele>
        <time>2024-04-07T09:13:19Z</time>
      </trkpt>
      <trkpt lat="44.11828" lon="1.93831">
        <ele>190.4</ele>
        <time>2024-04-07T09:13:20Z</time>
      </trkpt>
      <trkpt lat="44.11825" lon="1.93832">
        <ele>191</ele>
        <time>2024-04-07T09:13:21Z</time>
      </trkpt>
      <trkpt lat="44.11823" lon="1.93833">
        <ele>191.4</ele>
        <time>2024-04-07T09:13:22Z</time>
      </trkpt>
      <trkpt lat="44.11821" lon="1.93833">
        <ele>192.2</ele>
        <time>2024-04-07T09:13:23Z</time>
      </trkpt>
      <trkpt lat="44.11819" lon="1.93834">
        <ele>192.6</ele>
        <time>2024-04-07T09:13:24Z</time>
      </trkpt>
      <trkpt lat="44.11816" lon="1.93836">
        <ele>193.6</ele>
        <time>2024-04-07T09:13:25Z</time>
      </trkpt>
      <trkpt lat="44.11813" lon="1.93838">
        <ele>193.8</ele>
        <time>2024-04-07T09:13:26Z</time>
      </trkpt>
      <trkpt lat="44.11811" lon="1.9384">
        <ele>194.2</ele>
        <time>2024-04-07T09:13:27Z</time>
      </trkpt>
      <trkpt lat="44.11808" lon="1.93842">
        <ele>194.8</ele>
        <time>2024-04-07T09:13:28Z</time>
      </trkpt>
      <trkpt lat="44.11805" lon="1.93844">
        <ele>195</ele>
        <time>2024-04-07T09:13:29Z</time>
      </trkpt>
      <trkpt lat="44.11801" lon="1.93846">
        <ele>195.2</ele>
        <time>2024-04-07T09:13:30Z</time>
      </trkpt>
      <trkpt lat="44.11797" lon="1.9385">
        <ele>195.4</ele>
        <time>2024-04-07T09:13:31Z</time>
      </trkpt>
      <trkpt lat="44.11794" lon="1.93851">
        <ele>195.6</ele>
        <time>2024-04-07T09:13:32Z</time>
      </trkpt>
      <trkpt lat="44.11791" lon="1.93853">
        <ele>195.8</ele>
        <time>2024-04-07T09:13:33Z</time>
      </trkpt>
      <trkpt lat="44.11788" lon="1.93854">
        <ele>196</ele>
        <time>2024-04-07T09:13:34Z</time>
      </trkpt>
      <trkpt lat="44.11785" lon="1.93858">
        <ele>196.2</ele>
        <time>2024-04-07T09:13:35Z</time>
      </trkpt>
      <trkpt lat="44.11782" lon="1.93861">
        <ele>196.4</ele>
        <time>2024-04-07T09:13:36Z</time>
      </trkpt>
      <trkpt lat="44.11779" lon="1.93863">
        <ele>197</ele>
        <time>2024-04-07T09:13:37Z</time>
      </trkpt>
      <trkpt lat="44.11777" lon="1.93866">
        <ele>197.4</ele>
        <time>2024-04-07T09:13:38Z</time>
      </trkpt>
      <trkpt lat="44.11775" lon="1.93868">
        <ele>197.6</ele>
        <time>2024-04-07T09:13:39Z</time>
      </trkpt>
      <trkpt lat="44.11773" lon="1.9387">
        <ele>197.6</ele>
        <time>2024-04-07T09:13:40Z</time>
      </trkpt>
      <trkpt lat="44.11771" lon="1.93872">
        <ele>197.8</ele>
        <time>2024-04-07T09:13:41Z</time>
      </trkpt>
      <trkpt lat="44.1177" lon="1.93873">
        <ele>198</ele>
        <time>2024-04-07T09:13:42Z</time>
      </trkpt>
      <trkpt lat="44.11768" lon="1.93874">
        <ele>198.2</ele>
        <time>2024-04-07T09:13:43Z</time>
      </trkpt>
      <trkpt lat="44.11767" lon="1.93875">
        <ele>198.2</ele>
        <time>2024-04-07T09:13:44Z</time>
      </trkpt>
      <trkpt lat="44.11766" lon="1.93877">
        <ele>198.2</ele>
        <time>2024-04-07T09:13:45Z</time>
      </trkpt>
      <trkpt lat="44.11766" lon="1.93877">
        <ele>198</ele>
        <time>2024-04-07T09:13:46Z</time>
      </trkpt>
      <trkpt lat="44.11766" lon="1.93878">
        <ele>198</ele>
        <time>2024-04-07T09:13:47Z</time>
      </trkpt>
      <trkpt lat="44.11765" lon="1.93878">
        <ele>198</ele>
        <time>2024-04-07T09:13:48Z</time>
      </trkpt>
      <trkpt lat="44.11765" lon="1.93878">
        <ele>198</ele>
        <time>2024-04-07T09:13:49Z</time>
      </trkpt>
      <trkpt lat="44.11764" lon="1.93879">
        <ele>198</ele>
        <time>2024-04-07T09:13:50Z</time>
      </trkpt>
      <trkpt lat="44.11762" lon="1.93881">
        <ele>198</ele>
        <time>2024-04-07T09:13:51Z</time>
      </trkpt>
      <trkpt lat="44.1176" lon="1.93882">
        <ele>198</ele>
        <time>2024-04-07T09:13:52Z</time>
      </trkpt>
      <trkpt lat="44.11759" lon="1.93884">
        <ele>198</ele>
        <time>2024-04-07T09:13:53Z</time>
      </trkpt>
      <trkpt lat="44.11757" lon="1.93886">
        <ele>198</ele>
        <time>2024-04-07T09:13:54Z</time>
      </trkpt>
      <trkpt lat="44.11756" lon="1.93888">
        <ele>198</ele>
        <time>2024-04-07T09:13:55Z</time>
      </trkpt>
      <trkpt lat="44.11755" lon="1.9389">
        <ele>198</ele>
        <time>2024-04-07T09:13:56Z</time>
      </trkpt>
      <trkpt lat="44.11754" lon="1.93891">
        <ele>198</ele>
        <time>2024-04-07T09:13:57Z</time>
      </trkpt>
      <trkpt lat="44.11754" lon="1.93894">
        <ele>198</ele>
        <time>2024-04-07T09:13:58Z</time>
      </trkpt>
      <trkpt lat="44.11753" lon="1.93896">
        <ele>198</ele>
        <time>2024-04-07T09:13:59Z</time>
      </trkpt>
      <trkpt lat="44.11751" lon="1.93898">
        <ele>197.8</ele>
        <time>2024-04-07T09:14:00Z</time>
      </trkpt>
      <trkpt lat="44.1175" lon="1.939">
        <ele>197.8</ele>
        <time>2024-04-07T09:14:01Z</time>
      </trkpt>
      <trkpt lat="44.11749" lon="1.93902">
        <ele>197.8</ele>
        <time>2024-04-07T09:14:02Z</time>
      </trkpt>
      <trkpt lat="44.11748" lon="1.93904">
        <ele>197.8</ele>
        <time>2024-04-07T09:14:03Z</time>
      </trkpt>
      <trkpt lat="44.11748" lon="1.93906">
        <ele>197.8</ele>
        <time>2024-04-07T09:14:04Z</time>
      </trkpt>
      <trkpt lat="44.11747" lon="1.93909">
        <ele>197.8</ele>
        <time>2024-04-07T09:14:05Z</time>
      </trkpt>
      <trkpt lat="44.11744" lon="1.93916">
        <ele>197.8</ele>
        <time>2024-04-07T09:14:07Z</time>
      </trkpt>
      <trkpt lat="44.11742" lon="1.93919">
        <ele>197.6</ele>
        <time>2024-04-07T09:14:08Z</time>
      </trkpt>
      <trkpt lat="44.1174" lon="1.93923">
        <ele>197.6</ele>
        <time>2024-04-07T09:14:09Z</time>
      </trkpt>
      <trkpt lat="44.11738" lon="1.93927">
        <ele>197.6</ele>
        <time>2024-04-07T09:14:10Z</time>
      </trkpt>
      <trkpt lat="44.11737" lon="1.9393">
        <ele>197.6</ele>
        <time>2024-04-07T09:14:11Z</time>
      </trkpt>
      <trkpt lat="44.11734" lon="1.93933">
        <ele>197.6</ele>
        <time>2024-04-07T09:14:12Z</time>
      </trkpt>
      <trkpt lat="44.11732" lon="1.93934">
        <ele>197.8</ele>
        <time>2024-04-07T09:14:13Z</time>
      </trkpt>
      <trkpt lat="44.11729" lon="1.93936">
        <ele>197.8</ele>
        <time>2024-04-07T09:14:14Z</time>
      </trkpt>
      <trkpt lat="44.11728" lon="1.93936">
        <ele>197.8</ele>
        <time>2024-04-07T09:14:15Z</time>
      </trkpt>
      <trkpt lat="44.11727" lon="1.93936">
        <ele>197.8</ele>
        <time>2024-04-07T09:14:16Z</time>
      </trkpt>
      <trkpt lat="44.11726" lon="1.93936">
        <ele>197.8</ele>
        <time>2024-04-07T09:14:17Z</time>
      </trkpt>
      <trkpt lat="44.11724" lon="1.93935">
        <ele>198</ele>
        <time>2024-04-07T09:14:18Z</time>
      </trkpt>
      <trkpt lat="44.11722" lon="1.93935">
        <ele>198</ele>
        <time>2024-04-07T09:14:19Z</time>
      </trkpt>
      <trkpt lat="44.1172" lon="1.93935">
        <ele>198.4</ele>
        <time>2024-04-07T09:14:20Z</time>
      </trkpt>
      <trkpt lat="44.11719" lon="1.93935">
        <ele>198.6</ele>
        <time>2024-04-07T09:14:21Z</time>
      </trkpt>
      <trkpt lat="44.11716" lon="1.93936">
        <ele>199.4</ele>
        <time>2024-04-07T09:14:22Z</time>
      </trkpt>
      <trkpt lat="44.11714" lon="1.93936">
        <ele>199.8</ele>
        <time>2024-04-07T09:14:23Z</time>
      </trkpt>
      <trkpt lat="44.11712" lon="1.93936">
        <ele>200.2</ele>
        <time>2024-04-07T09:14:24Z</time>
      </trkpt>
      <trkpt lat="44.11712" lon="1.93935">
        <ele>200.8</ele>
        <time>2024-04-07T09:14:25Z</time>
      </trkpt>
      <trkpt lat="44.11711" lon="1.93934">
        <ele>201</ele>
        <time>2024-04-07T09:14:26Z</time>
      </trkpt>
      <trkpt lat="44.11708" lon="1.93932">
        <ele>201.6</ele>
        <time>2024-04-07T09:14:27Z</time>
      </trkpt>
      <trkpt lat="44.11706" lon="1.93932">
        <ele>201.8</ele>
        <time>2024-04-07T09:14:28Z</time>
      </trkpt>
      <trkpt lat="44.11703" lon="1.9393">
        <ele>202.6</ele>
        <time>2024-04-07T09:14:29Z</time>
      </trkpt>
      <trkpt lat="44.11701" lon="1.93928">
        <ele>203</ele>
        <time>2024-04-07T09:14:30Z</time>
      </trkpt>
      <trkpt lat="44.11698" lon="1.93926">
        <ele>203.6</ele>
        <time>2024-04-07T09:14:31Z</time>
      </trkpt>
      <trkpt lat="44.11695" lon="1.93925">
        <ele>204</ele>
        <time>2024-04-07T09:14:32Z</time>
      </trkpt>
      <trkpt lat="44.11692" lon="1.93922">
        <ele>204.4</ele>
        <time>2024-04-07T09:14:33Z</time>
      </trkpt>
      <trkpt lat="44.1169" lon="1.9392">
        <ele>205</ele>
        <time>2024-04-07T09:14:34Z</time>
      </trkpt>
      <trkpt lat="44.11689" lon="1.93917">
        <ele>205.2</ele>
        <time>2024-04-07T09:14:35Z</time>
      </trkpt>
      <trkpt lat="44.11687" lon="1.93915">
        <ele>205.8</ele>
        <time>2024-04-07T09:14:36Z</time>
      </trkpt>
      <trkpt lat="44.11685" lon="1.93915">
        <ele>206.2</ele>
        <time>2024-04-07T09:14:37Z</time>
      </trkpt>
      <trkpt lat="44.11684" lon="1.93914">
        <ele>206.6</ele>
        <time>2024-04-07T09:14:38Z</time>
      </trkpt>
      <trkpt lat="44.11682" lon="1.93913">
        <ele>207</ele>
        <time>2024-04-07T09:14:39Z</time>
      </trkpt>
      <trkpt lat="44.1168" lon="1.93912">
        <ele>207.4</ele>
        <time>2024-04-07T09:14:40Z</time>
      </trkpt>
      <trkpt lat="44.11678" lon="1.9391">
        <ele>208</ele>
        <time>2024-04-07T09:14:41Z</time>
      </trkpt>
      <trkpt lat="44.11676" lon="1.93909">
        <ele>208.2</ele>
        <time>2024-04-07T09:14:42Z</time>
      </trkpt>
      <trkpt lat="44.11674" lon="1.93909">
        <ele>208.8</ele>
        <time>2024-04-07T09:14:43Z</time>
      </trkpt>
      <trkpt lat="44.11673" lon="1.93908">
        <ele>209</ele>
        <time>2024-04-07T09:14:44Z</time>
      </trkpt>
      <trkpt lat="44.11671" lon="1.93907">
        <ele>209.6</ele>
        <time>2024-04-07T09:14:45Z</time>
      </trkpt>
      <trkpt lat="44.1167" lon="1.93907">
        <ele>210</ele>
        <time>2024-04-07T09:14:46Z</time>
      </trkpt>
      <trkpt lat="44.11669" lon="1.93906">
        <ele>210.8</ele>
        <time>2024-04-07T09:14:47Z</time>
      </trkpt>
      <trkpt lat="44.11668" lon="1.93906">
        <ele>211</ele>
        <time>2024-04-07T09:14:48Z</time>
      </trkpt>
      <trkpt lat="44.11667" lon="1.93905">
        <ele>211.4</ele>
        <time>2024-04-07T09:14:49Z</time>
      </trkpt>
      <trkpt lat="44.11665" lon="1.93904">
        <ele>211.8</ele>
        <time>2024-04-07T09:14:50Z</time>
      </trkpt>
      <trkpt lat="44.11664" lon="1.93903">
        <ele>212.2</ele>
        <time>2024-04-07T09:14:51Z</time>
      </trkpt>
      <trkpt lat="44.11662" lon="1.93903">
        <ele>212.6</ele>
        <time>2024-04-07T09:14:52Z</time>
      </trkpt>
      <trkpt lat="44.1166" lon="1.93903">
        <ele>213</ele>
        <time>2024-04-07T09:14:53Z</time>
      </trkpt>
      <trkpt lat="44.11658" lon="1.93902">
        <ele>213.4</ele>
        <time>2024-04-07T09:14:54Z</time>
      </trkpt>
      <trkpt lat="44.11657" lon="1.93902">
        <ele>213.6</ele>
        <time>2024-04-07T09:14:55Z</time>
      </trkpt>
      <trkpt lat="44.11656" lon="1.93903">
        <ele>214.2</ele>
        <time>2024-04-07T09:14:56Z</time>
      </trkpt>
      <trkpt lat="44.11654" lon="1.93903">
        <ele>214.8</ele>
        <time>2024-04-07T09:14:57Z</time>
      </trkpt>
      <trkpt lat="44.11652" lon="1.93903">
        <ele>215</ele>
        <time>2024-04-07T09:14:58Z</time>
      </trkpt>
      <trkpt lat="44.11649" lon="1.93904">
        <ele>215.6</ele>
        <time>2024-04-07T09:14:59Z</time>
      </trkpt>
      <trkpt lat="44.11647" lon="1.93903">
        <ele>215.8</ele>
        <time>2024-04-07T09:15:00Z</time>
      </trkpt>
      <trkpt lat="44.11644" lon="1.93903">
        <ele>216.6</ele>
        <time>2024-04-07T09:15:01Z</time>
      </trkpt>
      <trkpt lat="44.11642" lon="1.93901">
        <ele>216.8</ele>
        <time>2024-04-07T09:15:02Z</time>
      </trkpt>
      <trkpt lat="44.11639" lon="1.939">
        <ele>217.4</ele>
        <time>2024-04-07T09:15:03Z</time>
      </trkpt>
      <trkpt lat="44.11637" lon="1.939">
        <ele>217.4</ele>
        <time>2024-04-07T09:15:04Z</time>
      </trkpt>
      <trkpt lat="44.11635" lon="1.939">
        <ele>217.6</ele>
        <time>2024-04-07T09:15:05Z</time>
      </trkpt>
      <trkpt lat="44.11633" lon="1.93899">
        <ele>218.2</ele>
        <time>2024-04-07T09:15:06Z</time>
      </trkpt>
      <trkpt lat="44.11631" lon="1.93898">
        <ele>218.4</ele>
        <time>2024-04-07T09:15:07Z</time>
      </trkpt>
      <trkpt lat="44.11629" lon="1.93897">
        <ele>219</ele>
        <time>2024-04-07T09:15:08Z</time>
      </trkpt>
      <trkpt lat="44.11625" lon="1.93896">
        <ele>219.2</ele>
        <time>2024-04-07T09:15:09Z</time>
      </trkpt>
      <trkpt lat="44.11622" lon="1.93896">
        <ele>219.8</ele>
        <time>2024-04-07T09:15:10Z</time>
      </trkpt>
      <trkpt lat="44.11619" lon="1.93895">
        <ele>220</ele>
        <time>2024-04-07T09:15:11Z</time>
      </trkpt>
      <trkpt lat="44.11617" lon="1.93894">
        <ele>220.6</ele>
        <time>2024-04-07T09:15:12Z</time>
      </trkpt>
      <trkpt lat="44.11614" lon="1.93893">
        <ele>220.8</ele>
        <time>2024-04-07T09:15:13Z</time>
      </trkpt>
      <trkpt lat="44.11611" lon="1.93892">
        <ele>221.2</ele>
        <time>2024-04-07T09:15:14Z</time>
      </trkpt>
      <trkpt lat="44.11607" lon="1.93891">
        <ele>221.8</ele>
        <time>2024-04-07T09:15:15Z</time>
      </trkpt>
      <trkpt lat="44.11603" lon="1.9389">
        <ele>222</ele>
        <time>2024-04-07T09:15:16Z</time>
      </trkpt>
      <trkpt lat="44.116" lon="1.9389">
        <ele>222.4</ele>
        <time>2024-04-07T09:15:17Z</time>
      </trkpt>
      <trkpt lat="44.11596" lon="1.93889">
        <ele>222.6</ele>
        <time>2024-04-07T09:15:18Z</time>
      </trkpt>
      <trkpt lat="44.11595" lon="1.93888">
        <ele>222.8</ele>
        <time>2024-04-07T09:15:19Z</time>
      </trkpt>
      <trkpt lat="44.11592" lon="1.93888">
        <ele>223.2</ele>
        <time>2024-04-07T09:15:20Z</time>
      </trkpt>
      <trkpt lat="44.11589" lon="1.93889">
        <ele>223.6</ele>
        <time>2024-04-07T09:15:21Z</time>
      </trkpt>
      <trkpt lat="44.11586" lon="1.93889">
        <ele>224</ele>
        <time>2024-04-07T09:15:22Z</time>
      </trkpt>
      <trkpt lat="44.11584" lon="1.93888">
        <ele>224</ele>
        <time>2024-04-07T09:15:23Z</time>
      </trkpt>
      <trkpt lat="44.11581" lon="1.93888">
        <ele>224.6</ele>
        <time>2024-04-07T09:15:24Z</time>
      </trkpt>
      <trkpt lat="44.11579" lon="1.93888">
        <ele>224.8</ele>
        <time>2024-04-07T09:15:25Z</time>
      </trkpt>
      <trkpt lat="44.11576" lon="1.93888">
        <ele>225.2</ele>
        <time>2024-04-07T09:15:26Z</time>
      </trkpt>
      <trkpt lat="44.11574" lon="1.93887">
        <ele>225.4</ele>
        <time>2024-04-07T09:15:27Z</time>
      </trkpt>
      <trkpt lat="44.11572" lon="1.93885">
        <ele>225.8</ele>
        <time>2024-04-07T09:15:28Z</time>
      </trkpt>
      <trkpt lat="44.11569" lon="1.93884">
        <ele>226</ele>
        <time>2024-04-07T09:15:29Z</time>
      </trkpt>
      <trkpt lat="44.11568" lon="1.93881">
        <ele>226.4</ele>
        <time>2024-04-07T09:15:30Z</time>
      </trkpt>
      <trkpt lat="44.11565" lon="1.93879">
        <ele>226.8</ele>
        <time>2024-04-07T09:15:31Z</time>
      </trkpt>
      <trkpt lat="44.11564" lon="1.93877">
        <ele>227</ele>
        <time>2024-04-07T09:15:32Z</time>
      </trkpt>
      <trkpt lat="44.11563" lon="1.93875">
        <ele>227.4</ele>
        <time>2024-04-07T09:15:33Z</time>
      </trkpt>
      <trkpt lat="44.11561" lon="1.93873">
        <ele>227.6</ele>
        <time>2024-04-07T09:15:34Z</time>
      </trkpt>
      <trkpt lat="44.11559" lon="1.93871">
        <ele>227.8</ele>
        <time>2024-04-07T09:15:35Z</time>
      </trkpt>
      <trkpt lat="44.11558" lon="1.93869">
        <ele>228</ele>
        <time>2024-04-07T09:15:36Z</time>
      </trkpt>
      <trkpt lat="44.11557" lon="1.93867">
        <ele>228.6</ele>
        <time>2024-04-07T09:15:37Z</time>
      </trkpt>
      <trkpt lat="44.11555" lon="1.93866">
        <ele>229</ele>
        <time>2024-04-07T09:15:38Z</time>
      </trkpt>
      <trkpt lat="44.11553" lon="1.93863">
        <ele>229</ele>
        <time>2024-04-07T09:15:39Z</time>
      </trkpt>
      <trkpt lat="44.11551" lon="1.93861">
        <ele>229.4</ele>
        <time>2024-04-07T09:15:40Z</time>
      </trkpt>
      <trkpt lat="44.1155" lon="1.93859">
        <ele>229.6</ele>
        <time>2024-04-07T09:15:41Z</time>
      </trkpt>
      <trkpt lat="44.11548" lon="1.93857">
        <ele>230</ele>
        <time>2024-04-07T09:15:42Z</time>
      </trkpt>
      <trkpt lat="44.11546" lon="1.93854">
        <ele>230.2</ele>
        <time>2024-04-07T09:15:43Z</time>
      </trkpt>
      <trkpt lat="44.11545" lon="1.93852">
        <ele>231</ele>
        <time>2024-04-07T09:15:44Z</time>
      </trkpt>
      <trkpt lat="44.11543" lon="1.9385">
        <ele>231.2</ele>
        <time>2024-04-07T09:15:45Z</time>
      </trkpt>
      <trkpt lat="44.1154" lon="1.9385">
        <ele>231.6</ele>
        <time>2024-04-07T09:15:46Z</time>
      </trkpt>
      <trkpt lat="44.11538" lon="1.93849">
        <ele>232</ele>
        <time>2024-04-07T09:15:47Z</time>
      </trkpt>
      <trkpt lat="44.11536" lon="1.93849">
        <ele>232.2</ele>
        <time>2024-04-07T09:15:48Z</time>
      </trkpt>
      <trkpt lat="44.11533" lon="1.93849">
        <ele>232.4</ele>
        <time>2024-04-07T09:15:49Z</time>
      </trkpt>
      <trkpt lat="44.11531" lon="1.9385">
        <ele>232.6</ele>
        <time>2024-04-07T09:15:50Z</time>
      </trkpt>
      <trkpt lat="44.11528" lon="1.9385">
        <ele>232.8</ele>
        <time>2024-04-07T09:15:51Z</time>
      </trkpt>
      <trkpt lat="44.11525" lon="1.9385">
        <ele>232.8</ele>
        <time>2024-04-07T09:15:52Z</time>
      </trkpt>
      <trkpt lat="44.11522" lon="1.9385">
        <ele>232.8</ele>
        <time>2024-04-07T09:15:53Z</time>
      </trkpt>
      <trkpt lat="44.1152" lon="1.93851">
        <ele>233</ele>
        <time>2024-04-07T09:15:54Z</time>
      </trkpt>
      <trkpt lat="44.11517" lon="1.93852">
        <ele>233</ele>
        <time>2024-04-07T09:15:55Z</time>
      </trkpt>
      <trkpt lat="44.11514" lon="1.93853">
        <ele>233.2</ele>
        <time>2024-04-07T09:15:56Z</time>
      </trkpt>
      <trkpt lat="44.11511" lon="1.93853">
        <ele>233.2</ele>
        <time>2024-04-07T09:15:57Z</time>
      </trkpt>
      <trkpt lat="44.11509" lon="1.93854">
        <ele>233.6</ele>
        <time>2024-04-07T09:15:58Z</time>
      </trkpt>
      <trkpt lat="44.11506" lon="1.93854">
        <ele>233.6</ele>
        <time>2024-04-07T09:15:59Z</time>
      </trkpt>
      <trkpt lat="44.11504" lon="1.93854">
        <ele>233.8</ele>
        <time>2024-04-07T09:16:00Z</time>
      </trkpt>
      <trkpt lat="44.11502" lon="1.93855">
        <ele>234</ele>
        <time>2024-04-07T09:16:01Z</time>
      </trkpt>
      <trkpt lat="44.115" lon="1.93856">
        <ele>234</ele>
        <time>2024-04-07T09:16:02Z</time>
      </trkpt>
      <trkpt lat="44.11497" lon="1.93857">
        <ele>234.2</ele>
        <time>2024-04-07T09:16:03Z</time>
      </trkpt>
      <trkpt lat="44.11494" lon="1.93858">
        <ele>234.4</ele>
        <time>2024-04-07T09:16:04Z</time>
      </trkpt>
      <trkpt lat="44.11493" lon="1.93859">
        <ele>234.6</ele>
        <time>2024-04-07T09:16:05Z</time>
      </trkpt>
      <trkpt lat="44.1149" lon="1.93859">
        <ele>234.6</ele>
        <time>2024-04-07T09:16:06Z</time>
      </trkpt>
      <trkpt lat="44.11487" lon="1.93859">
        <ele>234.8</ele>
        <time>2024-04-07T09:16:07Z</time>
      </trkpt>
      <trkpt lat="44.11485" lon="1.93859">
        <ele>235</ele>
        <time>2024-04-07T09:16:08Z</time>
      </trkpt>
      <trkpt lat="44.11482" lon="1.93859">
        <ele>235</ele>
        <time>2024-04-07T09:16:09Z</time>
      </trkpt>
      <trkpt lat="44.11478" lon="1.93859">
        <ele>235</ele>
        <time>2024-04-07T09:16:10Z</time>
      </trkpt>
      <trkpt lat="44.11473" lon="1.93859">
        <ele>235.2</ele>
        <time>2024-04-07T09:16:11Z</time>
      </trkpt>
      <trkpt lat="44.1147" lon="1.93859">
        <ele>235.6</ele>
        <time>2024-04-07T09:16:12Z</time>
      </trkpt>
      <trkpt lat="44.11467" lon="1.93859">
        <ele>235.8</ele>
        <time>2024-04-07T09:16:13Z</time>
      </trkpt>
      <trkpt lat="44.11464" lon="1.9386">
        <ele>235.8</ele>
        <time>2024-04-07T09:16:14Z</time>
      </trkpt>
      <trkpt lat="44.11461" lon="1.9386">
        <ele>236</ele>
        <time>2024-04-07T09:16:15Z</time>
      </trkpt>
      <trkpt lat="44.11457" lon="1.93859">
        <ele>236.2</ele>
        <time>2024-04-07T09:16:16Z</time>
      </trkpt>
      <trkpt lat="44.11454" lon="1.93859">
        <ele>236.2</ele>
        <time>2024-04-07T09:16:17Z</time>
      </trkpt>
      <trkpt lat="44.11452" lon="1.93859">
        <ele>236.4</ele>
        <time>2024-04-07T09:16:18Z</time>
      </trkpt>
      <trkpt lat="44.1145" lon="1.93859">
        <ele>236.8</ele>
        <time>2024-04-07T09:16:19Z</time>
      </trkpt>
      <trkpt lat="44.11447" lon="1.93859">
        <ele>236.8</ele>
        <time>2024-04-07T09:16:20Z</time>
      </trkpt>
      <trkpt lat="44.11445" lon="1.93859">
        <ele>237</ele>
        <time>2024-04-07T09:16:21Z</time>
      </trkpt>
      <trkpt lat="44.11443" lon="1.93859">
        <ele>237.2</ele>
        <time>2024-04-07T09:16:22Z</time>
      </trkpt>
      <trkpt lat="44.11442" lon="1.93859">
        <ele>237.4</ele>
        <time>2024-04-07T09:16:23Z</time>
      </trkpt>
      <trkpt lat="44.11439" lon="1.93859">
        <ele>237.4</ele>
        <time>2024-04-07T09:16:24Z</time>
      </trkpt>
      <trkpt lat="44.11436" lon="1.93859">
        <ele>237.6</ele>
        <time>2024-04-07T09:16:25Z</time>
      </trkpt>
      <trkpt lat="44.11432" lon="1.9386">
        <ele>237.6</ele>
        <time>2024-04-07T09:16:26Z</time>
      </trkpt>
      <trkpt lat="44.11429" lon="1.9386">
        <ele>237.8</ele>
        <time>2024-04-07T09:16:27Z</time>
      </trkpt>
      <trkpt lat="44.11426" lon="1.93861">
        <ele>237.8</ele>
        <time>2024-04-07T09:16:28Z</time>
      </trkpt>
      <trkpt lat="44.11423" lon="1.93861">
        <ele>237.8</ele>
        <time>2024-04-07T09:16:29Z</time>
      </trkpt>
      <trkpt lat="44.11421" lon="1.9386">
        <ele>238</ele>
        <time>2024-04-07T09:16:30Z</time>
      </trkpt>
      <trkpt lat="44.11418" lon="1.93861">
        <ele>238.2</ele>
        <time>2024-04-07T09:16:31Z</time>
      </trkpt>
      <trkpt lat="44.11416" lon="1.93862">
        <ele>238.4</ele>
        <time>2024-04-07T09:16:32Z</time>
      </trkpt>
      <trkpt lat="44.11413" lon="1.93863">
        <ele>238.6</ele>
        <time>2024-04-07T09:16:33Z</time>
      </trkpt>
      <trkpt lat="44.11411" lon="1.93863">
        <ele>238.8</ele>
        <time>2024-04-07T09:16:34Z</time>
      </trkpt>
      <trkpt lat="44.11409" lon="1.93864">
        <ele>239</ele>
        <time>2024-04-07T09:16:35Z</time>
      </trkpt>
      <trkpt lat="44.11406" lon="1.93865">
        <ele>239.2</ele>
        <time>2024-04-07T09:16:36Z</time>
      </trkpt>
      <trkpt lat="44.11402" lon="1.93868">
        <ele>239.2</ele>
        <time>2024-04-07T09:16:37Z</time>
      </trkpt>
      <trkpt lat="44.11399" lon="1.9387">
        <ele>239.2</ele>
        <time>2024-04-07T09:16:38Z</time>
      </trkpt>
      <trkpt lat="44.11397" lon="1.93871">
        <ele>239.4</ele>
        <time>2024-04-07T09:16:39Z</time>
      </trkpt>
      <trkpt lat="44.11395" lon="1.93872">
        <ele>239.8</ele>
        <time>2024-04-07T09:16:40Z</time>
      </trkpt>
      <trkpt lat="44.11392" lon="1.93875">
        <ele>240</ele>
        <time>2024-04-07T09:16:41Z</time>
      </trkpt>
      <trkpt lat="44.1139" lon="1.93877">
        <ele>240.2</ele>
        <time>2024-04-07T09:16:42Z</time>
      </trkpt>
      <trkpt lat="44.11388" lon="1.93878">
        <ele>240.4</ele>
        <time>2024-04-07T09:16:43Z</time>
      </trkpt>
      <trkpt lat="44.11386" lon="1.93879">
        <ele>240.8</ele>
        <time>2024-04-07T09:16:44Z</time>
      </trkpt>
      <trkpt lat="44.11385" lon="1.9388">
        <ele>241</ele>
        <time>2024-04-07T09:16:45Z</time>
      </trkpt>
      <trkpt lat="44.11382" lon="1.93881">
        <ele>241.4</ele>
        <time>2024-04-07T09:16:46Z</time>
      </trkpt>
      <trkpt lat="44.1138" lon="1.93882">
        <ele>241.6</ele>
        <time>2024-04-07T09:16:47Z</time>
      </trkpt>
      <trkpt lat="44.11377" lon="1.93882">
        <ele>241.8</ele>
        <time>2024-04-07T09:16:48Z</time>
      </trkpt>
      <trkpt lat="44.11374" lon="1.93881">
        <ele>242</ele>
        <time>2024-04-07T09:16:49Z</time>
      </trkpt>
      <trkpt lat="44.11372" lon="1.93879">
        <ele>242.4</ele>
        <time>2024-04-07T09:16:50Z</time>
      </trkpt>
      <trkpt lat="44.1137" lon="1.93878">
        <ele>242.8</ele>
        <time>2024-04-07T09:16:51Z</time>
      </trkpt>
      <trkpt lat="44.11368" lon="1.93875">
        <ele>243</ele>
        <time>2024-04-07T09:16:52Z</time>
      </trkpt>
      <trkpt lat="44.11367" lon="1.93872">
        <ele>243.2</ele>
        <time>2024-04-07T09:16:53Z</time>
      </trkpt>
      <trkpt lat="44.11366" lon="1.93869">
        <ele>243.2</ele>
        <time>2024-04-07T09:16:54Z</time>
      </trkpt>
      <trkpt lat="44.11365" lon="1.93866">
        <ele>243.6</ele>
        <time>2024-04-07T09:16:55Z</time>
      </trkpt>
      <trkpt lat="44.11364" lon="1.93862">
        <ele>243.6</ele>
        <time>2024-04-07T09:16:56Z</time>
      </trkpt>
      <trkpt lat="44.11363" lon="1.93859">
        <ele>244</ele>
        <time>2024-04-07T09:16:57Z</time>
      </trkpt>
      <trkpt lat="44.11362" lon="1.93855">
        <ele>244.2</ele>
        <time>2024-04-07T09:16:58Z</time>
      </trkpt>
      <trkpt lat="44.11362" lon="1.93851">
        <ele>244.8</ele>
        <time>2024-04-07T09:16:59Z</time>
      </trkpt>
      <trkpt lat="44.11361" lon="1.93847">
        <ele>245.6</ele>
        <time>2024-04-07T09:17:00Z</time>
      </trkpt>
      <trkpt lat="44.1136" lon="1.93843">
        <ele>245.8</ele>
        <time>2024-04-07T09:17:01Z</time>
      </trkpt>
      <trkpt lat="44.1136" lon="1.93839">
        <ele>246</ele>
        <time>2024-04-07T09:17:02Z</time>
      </trkpt>
      <trkpt lat="44.11358" lon="1.93834">
        <ele>246.2</ele>
        <time>2024-04-07T09:17:03Z</time>
      </trkpt>
      <trkpt lat="44.11357" lon="1.9383">
        <ele>246.2</ele>
        <time>2024-04-07T09:17:04Z</time>
      </trkpt>
      <trkpt lat="44.11355" lon="1.93825">
        <ele>246.4</ele>
        <time>2024-04-07T09:17:05Z</time>
      </trkpt>
      <trkpt lat="44.11354" lon="1.93821">
        <ele>246.6</ele>
        <time>2024-04-07T09:17:06Z</time>
      </trkpt>
      <trkpt lat="44.11352" lon="1.93817">
        <ele>247</ele>
        <time>2024-04-07T09:17:07Z</time>
      </trkpt>
      <trkpt lat="44.1135" lon="1.93813">
        <ele>247</ele>
        <time>2024-04-07T09:17:08Z</time>
      </trkpt>
      <trkpt lat="44.11347" lon="1.93809">
        <ele>247.2</ele>
        <time>2024-04-07T09:17:09Z</time>
      </trkpt>
      <trkpt lat="44.11345" lon="1.93807">
        <ele>247.4</ele>
        <time>2024-04-07T09:17:10Z</time>
      </trkpt>
      <trkpt lat="44.11342" lon="1.93803">
        <ele>247.6</ele>
        <time>2024-04-07T09:17:11Z</time>
      </trkpt>
      <trkpt lat="44.11339" lon="1.93801">
        <ele>247.8</ele>
        <time>2024-04-07T09:17:12Z</time>
      </trkpt>
      <trkpt lat="44.11336" lon="1.93798">
        <ele>248</ele>
        <time>2024-04-07T09:17:13Z</time>
      </trkpt>
      <trkpt lat="44.11332" lon="1.93796">
        <ele>248.4</ele>
        <time>2024-04-07T09:17:14Z</time>
      </trkpt>
      <trkpt lat="44.1133" lon="1.93794">
        <ele>248.6</ele>
        <time>2024-04-07T09:17:15Z</time>
      </trkpt>
      <trkpt lat="44.11326" lon="1.93792">
        <ele>248.8</ele>
        <time>2024-04-07T09:17:16Z</time>
      </trkpt>
      <trkpt lat="44.11323" lon="1.93791">
        <ele>249</ele>
        <time>2024-04-07T09:17:17Z</time>
      </trkpt>
      <trkpt lat="44.11319" lon="1.93791">
        <ele>249.2</ele>
        <time>2024-04-07T09:17:18Z</time>
      </trkpt>
      <trkpt lat="44.11315" lon="1.93791">
        <ele>249.2</ele>
        <time>2024-04-07T09:17:19Z</time>
      </trkpt>
      <trkpt lat="44.11312" lon="1.93791">
        <ele>249.4</ele>
        <time>2024-04-07T09:17:20Z</time>
      </trkpt>
      <trkpt lat="44.11308" lon="1.93792">
        <ele>249.6</ele>
        <time>2024-04-07T09:17:21Z</time>
      </trkpt>
      <trkpt lat="44.11304" lon="1.93793">
        <ele>250</ele>
        <time>2024-04-07T09:17:22Z</time>
      </trkpt>
      <trkpt lat="44.11301" lon="1.93795">
        <ele>250.2</ele>
        <time>2024-04-07T09:17:23Z</time>
      </trkpt>
      <trkpt lat="44.11297" lon="1.93797">
        <ele>250.4</ele>
        <time>2024-04-07T09:17:24Z</time>
      </trkpt>
      <trkpt lat="44.11294" lon="1.93799">
        <ele>250.8</ele>
        <time>2024-04-07T09:17:25Z</time>
      </trkpt>
      <trkpt lat="44.11291" lon="1.93801">
        <ele>251</ele>
        <time>2024-04-07T09:17:26Z</time>
      </trkpt>
      <trkpt lat="44.11288" lon="1.93804">
        <ele>252</ele>
        <time>2024-04-07T09:17:27Z</time>
      </trkpt>
      <trkpt lat="44.11284" lon="1.93806">
        <ele>252.2</ele>
        <time>2024-04-07T09:17:28Z</time>
      </trkpt>
      <trkpt lat="44.11282" lon="1.93807">
        <ele>252.6</ele>
        <time>2024-04-07T09:17:29Z</time>
      </trkpt>
      <trkpt lat="44.11279" lon="1.93809">
        <ele>253</ele>
        <time>2024-04-07T09:17:30Z</time>
      </trkpt>
      <trkpt lat="44.11277" lon="1.9381">
        <ele>253.4</ele>
        <time>2024-04-07T09:17:31Z</time>
      </trkpt>
      <trkpt lat="44.11274" lon="1.93812">
        <ele>254</ele>
        <time>2024-04-07T09:17:32Z</time>
      </trkpt>
      <trkpt lat="44.11271" lon="1.93814">
        <ele>254.2</ele>
        <time>2024-04-07T09:17:33Z</time>
      </trkpt>
      <trkpt lat="44.11268" lon="1.93815">
        <ele>254.4</ele>
        <time>2024-04-07T09:17:34Z</time>
      </trkpt>
      <trkpt lat="44.11264" lon="1.93816">
        <ele>254.8</ele>
        <time>2024-04-07T09:17:35Z</time>
      </trkpt>
      <trkpt lat="44.11261" lon="1.93817">
        <ele>255.2</ele>
        <time>2024-04-07T09:17:36Z</time>
      </trkpt>
      <trkpt lat="44.11258" lon="1.93818">
        <ele>255.8</ele>
        <time>2024-04-07T09:17:37Z</time>
      </trkpt>
      <trkpt lat="44.11254" lon="1.9382">
        <ele>256.2</ele>
        <time>2024-04-07T09:17:38Z</time>
      </trkpt>
      <trkpt lat="44.11251" lon="1.93821">
        <ele>256.4</ele>
        <time>2024-04-07T09:17:39Z</time>
      </trkpt>
      <trkpt lat="44.11247" lon="1.93822">
        <ele>256.6</ele>
        <time>2024-04-07T09:17:40Z</time>
      </trkpt>
      <trkpt lat="44.11243" lon="1.93823">
        <ele>256.6</ele>
        <time>2024-04-07T09:17:41Z</time>
      </trkpt>
      <trkpt lat="44.1124" lon="1.93824">
        <ele>256.8</ele>
        <time>2024-04-07T09:17:42Z</time>
      </trkpt>
      <trkpt lat="44.11237" lon="1.93825">
        <ele>257.2</ele>
        <time>2024-04-07T09:17:43Z</time>
      </trkpt>
      <trkpt lat="44.11234" lon="1.93826">
        <ele>257.4</ele>
        <time>2024-04-07T09:17:44Z</time>
      </trkpt>
      <trkpt lat="44.11232" lon="1.93827">
        <ele>257.6</ele>
        <time>2024-04-07T09:17:45Z</time>
      </trkpt>
      <trkpt lat="44.11229" lon="1.93828">
        <ele>257.6</ele>
        <time>2024-04-07T09:17:46Z</time>
      </trkpt>
      <trkpt lat="44.11226" lon="1.93829">
        <ele>258</ele>
        <time>2024-04-07T09:17:47Z</time>
      </trkpt>
      <trkpt lat="44.11223" lon="1.93831">
        <ele>258.2</ele>
        <time>2024-04-07T09:17:48Z</time>
      </trkpt>
      <trkpt lat="44.11219" lon="1.93832">
        <ele>258.4</ele>
        <time>2024-04-07T09:17:49Z</time>
      </trkpt>
      <trkpt lat="44.11215" lon="1.93834">
        <ele>258.6</ele>
        <time>2024-04-07T09:17:50Z</time>
      </trkpt>
      <trkpt lat="44.11211" lon="1.93837">
        <ele>258.6</ele>
        <time>2024-04-07T09:17:51Z</time>
      </trkpt>
      <trkpt lat="44.11207" lon="1.93839">
        <ele>258.8</ele>
        <time>2024-04-07T09:17:52Z</time>
      </trkpt>
      <trkpt lat="44.11203" lon="1.93842">
        <ele>259</ele>
        <time>2024-04-07T09:17:53Z</time>
      </trkpt>
      <trkpt lat="44.11198" lon="1.93845">
        <ele>259.4</ele>
        <time>2024-04-07T09:17:54Z</time>
      </trkpt>
      <trkpt lat="44.11194" lon="1.93846">
        <ele>259.6</ele>
        <time>2024-04-07T09:17:55Z</time>
      </trkpt>
      <trkpt lat="44.1119" lon="1.93847">
        <ele>260.4</ele>
        <time>2024-04-07T09:17:56Z</time>
      </trkpt>
      <trkpt lat="44.11187" lon="1.93848">
        <ele>260.8</ele>
        <time>2024-04-07T09:17:57Z</time>
      </trkpt>
      <trkpt lat="44.11183" lon="1.9385">
        <ele>261</ele>
        <time>2024-04-07T09:17:58Z</time>
      </trkpt>
      <trkpt lat="44.11179" lon="1.93852">
        <ele>261.2</ele>
        <time>2024-04-07T09:17:59Z</time>
      </trkpt>
      <trkpt lat="44.11175" lon="1.93856">
        <ele>261.4</ele>
        <time>2024-04-07T09:18:00Z</time>
      </trkpt>
      <trkpt lat="44.11171" lon="1.93859">
        <ele>261.4</ele>
        <time>2024-04-07T09:18:01Z</time>
      </trkpt>
      <trkpt lat="44.11167" lon="1.93862">
        <ele>261.4</ele>
        <time>2024-04-07T09:18:02Z</time>
      </trkpt>
      <trkpt lat="44.11163" lon="1.93866">
        <ele>261.6</ele>
        <time>2024-04-07T09:18:03Z</time>
      </trkpt>
      <trkpt lat="44.11159" lon="1.93871">
        <ele>261.6</ele>
        <time>2024-04-07T09:18:04Z</time>
      </trkpt>
      <trkpt lat="44.11156" lon="1.93876">
        <ele>261.6</ele>
        <time>2024-04-07T09:18:05Z</time>
      </trkpt>
      <trkpt lat="44.11153" lon="1.9388">
        <ele>262</ele>
        <time>2024-04-07T09:18:06Z</time>
      </trkpt>
      <trkpt lat="44.11151" lon="1.93883">
        <ele>262</ele>
        <time>2024-04-07T09:18:07Z</time>
      </trkpt>
      <trkpt lat="44.11148" lon="1.93887">
        <ele>263</ele>
        <time>2024-04-07T09:18:08Z</time>
      </trkpt>
      <trkpt lat="44.11145" lon="1.93891">
        <ele>263.2</ele>
        <time>2024-04-07T09:18:09Z</time>
      </trkpt>
      <trkpt lat="44.11142" lon="1.93896">
        <ele>263.6</ele>
        <time>2024-04-07T09:18:10Z</time>
      </trkpt>
      <trkpt lat="44.11139" lon="1.93899">
        <ele>263.8</ele>
        <time>2024-04-07T09:18:11Z</time>
      </trkpt>
      <trkpt lat="44.11137" lon="1.93902">
        <ele>264.2</ele>
        <time>2024-04-07T09:18:12Z</time>
      </trkpt>
      <trkpt lat="44.11135" lon="1.93904">
        <ele>264.6</ele>
        <time>2024-04-07T09:18:13Z</time>
      </trkpt>
      <trkpt lat="44.11132" lon="1.93907">
        <ele>264.8</ele>
        <time>2024-04-07T09:18:14Z</time>
      </trkpt>
      <trkpt lat="44.11128" lon="1.93909">
        <ele>265.4</ele>
        <time>2024-04-07T09:18:15Z</time>
      </trkpt>
      <trkpt lat="44.11125" lon="1.93911">
        <ele>265.6</ele>
        <time>2024-04-07T09:18:16Z</time>
      </trkpt>
      <trkpt lat="44.11121" lon="1.93912">
        <ele>266.6</ele>
        <time>2024-04-07T09:18:17Z</time>
      </trkpt>
      <trkpt lat="44.11118" lon="1.93913">
        <ele>267</ele>
        <time>2024-04-07T09:18:18Z</time>
      </trkpt>
      <trkpt lat="44.11114" lon="1.93914">
        <ele>267.4</ele>
        <time>2024-04-07T09:18:19Z</time>
      </trkpt>
      <trkpt lat="44.1111" lon="1.93915">
        <ele>267.6</ele>
        <time>2024-04-07T09:18:20Z</time>
      </trkpt>
      <trkpt lat="44.11106" lon="1.93916">
        <ele>267.8</ele>
        <time>2024-04-07T09:18:21Z</time>
      </trkpt>
      <trkpt lat="44.11102" lon="1.93917">
        <ele>268</ele>
        <time>2024-04-07T09:18:22Z</time>
      </trkpt>
      <trkpt lat="44.11098" lon="1.93917">
        <ele>268</ele>
        <time>2024-04-07T09:18:23Z</time>
      </trkpt>
      <trkpt lat="44.11095" lon="1.93918">
        <ele>268</ele>
        <time>2024-04-07T09:18:24Z</time>
      </trkpt>
      <trkpt lat="44.11091" lon="1.93918">
        <ele>268.2</ele>
        <time>2024-04-07T09:18:25Z</time>
      </trkpt>
      <trkpt lat="44.11087" lon="1.93919">
        <ele>268.4</ele>
        <time>2024-04-07T09:18:26Z</time>
      </trkpt>
      <trkpt lat="44.11083" lon="1.93921">
        <ele>268.6</ele>
        <time>2024-04-07T09:18:27Z</time>
      </trkpt>
      <trkpt lat="44.11079" lon="1.93922">
        <ele>269</ele>
        <time>2024-04-07T09:18:28Z</time>
      </trkpt>
      <trkpt lat="44.11075" lon="1.93923">
        <ele>269.4</ele>
        <time>2024-04-07T09:18:29Z</time>
      </trkpt>
      <trkpt lat="44.11071" lon="1.93924">
        <ele>269.4</ele>
        <time>2024-04-07T09:18:30Z</time>
      </trkpt>
      <trkpt lat="44.11066" lon="1.93925">
        <ele>269.6</ele>
        <time>2024-04-07T09:18:31Z</time>
      </trkpt>
      <trkpt lat="44.11061" lon="1.93927">
        <ele>269.6</ele>
        <time>2024-04-07T09:18:32Z</time>
      </trkpt>
      <trkpt lat="44.11058" lon="1.93927">
        <ele>270.2</ele>
        <time>2024-04-07T09:18:33Z</time>
      </trkpt>
      <trkpt lat="44.11053" lon="1.93928">
        <ele>270.4</ele>
        <time>2024-04-07T09:18:34Z</time>
      </trkpt>
      <trkpt lat="44.11049" lon="1.93929">
        <ele>270.6</ele>
        <time>2024-04-07T09:18:35Z</time>
      </trkpt>
      <trkpt lat="44.11045" lon="1.9393">
        <ele>271</ele>
        <time>2024-04-07T09:18:36Z</time>
      </trkpt>
      <trkpt lat="44.11041" lon="1.93931">
        <ele>271</ele>
        <time>2024-04-07T09:18:37Z</time>
      </trkpt>
      <trkpt lat="44.11036" lon="1.93932">
        <ele>271.2</ele>
        <time>2024-04-07T09:18:38Z</time>
      </trkpt>
      <trkpt lat="44.11033" lon="1.93933">
        <ele>271.4</ele>
        <time>2024-04-07T09:18:39Z</time>
      </trkpt>
      <trkpt lat="44.11029" lon="1.93934">
        <ele>271.4</ele>
        <time>2024-04-07T09:18:40Z</time>
      </trkpt>
      <trkpt lat="44.11024" lon="1.93934">
        <ele>271.6</ele>
        <time>2024-04-07T09:18:41Z</time>
      </trkpt>
      <trkpt lat="44.1102" lon="1.93935">
        <ele>272</ele>
        <time>2024-04-07T09:18:42Z</time>
      </trkpt>
      <trkpt lat="44.11016" lon="1.93935">
        <ele>272</ele>
        <time>2024-04-07T09:18:43Z</time>
      </trkpt>
      <trkpt lat="44.11012" lon="1.93936">
        <ele>272.4</ele>
        <time>2024-04-07T09:18:44Z</time>
      </trkpt>
      <trkpt lat="44.11008" lon="1.93938">
        <ele>272.8</ele>
        <time>2024-04-07T09:18:45Z</time>
      </trkpt>
      <trkpt lat="44.11004" lon="1.93939">
        <ele>272.8</ele>
        <time>2024-04-07T09:18:46Z</time>
      </trkpt>
      <trkpt lat="44.11" lon="1.93941">
        <ele>273</ele>
        <time>2024-04-07T09:18:47Z</time>
      </trkpt>
      <trkpt lat="44.10996" lon="1.93943">
        <ele>273.2</ele>
        <time>2024-04-07T09:18:48Z</time>
      </trkpt>
      <trkpt lat="44.10991" lon="1.93946">
        <ele>273.2</ele>
        <time>2024-04-07T09:18:49Z</time>
      </trkpt>
      <trkpt lat="44.10987" lon="1.9395">
        <ele>273.2</ele>
        <time>2024-04-07T09:18:50Z</time>
      </trkpt>
      <trkpt lat="44.10982" lon="1.93954">
        <ele>273.2</ele>
        <time>2024-04-07T09:18:51Z</time>
      </trkpt>
      <trkpt lat="44.10977" lon="1.93959">
        <ele>273.2</ele>
        <time>2024-04-07T09:18:52Z</time>
      </trkpt>
      <trkpt lat="44.10972" lon="1.93965">
        <ele>273.2</ele>
        <time>2024-04-07T09:18:53Z</time>
      </trkpt>
      <trkpt lat="44.10968" lon="1.93969">
        <ele>273</ele>
        <time>2024-04-07T09:18:54Z</time>
      </trkpt>
      <trkpt lat="44.10963" lon="1.93974">
        <ele>272.8</ele>
        <time>2024-04-07T09:18:55Z</time>
      </trkpt>
      <trkpt lat="44.1096" lon="1.93979">
        <ele>272.6</ele>
        <time>2024-04-07T09:18:56Z</time>
      </trkpt>
      <trkpt lat="44.10956" lon="1.93984">
        <ele>272.4</ele>
        <time>2024-04-07T09:18:57Z</time>
      </trkpt>
      <trkpt lat="44.10952" lon="1.93991">
        <ele>272</ele>
        <time>2024-04-07T09:18:58Z</time>
      </trkpt>
      <trkpt lat="44.10949" lon="1.93995">
        <ele>272</ele>
        <time>2024-04-07T09:18:59Z</time>
      </trkpt>
      <trkpt lat="44.10945" lon="1.94001">
        <ele>271.8</ele>
        <time>2024-04-07T09:19:00Z</time>
      </trkpt>
      <trkpt lat="44.10941" lon="1.94006">
        <ele>271.8</ele>
        <time>2024-04-07T09:19:01Z</time>
      </trkpt>
      <trkpt lat="44.10934" lon="1.94017">
        <ele>271.8</ele>
        <time>2024-04-07T09:19:03Z</time>
      </trkpt>
      <trkpt lat="44.10931" lon="1.94022">
        <ele>272</ele>
        <time>2024-04-07T09:19:04Z</time>
      </trkpt>
      <trkpt lat="44.10928" lon="1.94027">
        <ele>272.2</ele>
        <time>2024-04-07T09:19:05Z</time>
      </trkpt>
      <trkpt lat="44.10925" lon="1.94032">
        <ele>272.4</ele>
        <time>2024-04-07T09:19:06Z</time>
      </trkpt>
      <trkpt lat="44.10922" lon="1.94037">
        <ele>272.8</ele>
        <time>2024-04-07T09:19:07Z</time>
      </trkpt>
      <trkpt lat="44.1092" lon="1.94041">
        <ele>273.2</ele>
        <time>2024-04-07T09:19:08Z</time>
      </trkpt>
      <trkpt lat="44.10917" lon="1.94046">
        <ele>273.4</ele>
        <time>2024-04-07T09:19:09Z</time>
      </trkpt>
      <trkpt lat="44.10915" lon="1.94049">
        <ele>273.6</ele>
        <time>2024-04-07T09:19:10Z</time>
      </trkpt>
      <trkpt lat="44.10914" lon="1.94053">
        <ele>273.6</ele>
        <time>2024-04-07T09:19:11Z</time>
      </trkpt>
      <trkpt lat="44.10911" lon="1.94057">
        <ele>274</ele>
        <time>2024-04-07T09:19:12Z</time>
      </trkpt>
      <trkpt lat="44.10909" lon="1.94061">
        <ele>274.2</ele>
        <time>2024-04-07T09:19:13Z</time>
      </trkpt>
      <trkpt lat="44.10906" lon="1.94067">
        <ele>274.4</ele>
        <time>2024-04-07T09:19:14Z</time>
      </trkpt>
      <trkpt lat="44.10902" lon="1.9407">
        <ele>274.4</ele>
        <time>2024-04-07T09:19:15Z</time>
      </trkpt>
      <trkpt lat="44.10896" lon="1.94075">
        <ele>274.6</ele>
        <time>2024-04-07T09:19:16Z</time>
      </trkpt>
      <trkpt lat="44.10892" lon="1.94078">
        <ele>274.6</ele>
        <time>2024-04-07T09:19:17Z</time>
      </trkpt>
      <trkpt lat="44.10889" lon="1.9408">
        <ele>274.8</ele>
        <time>2024-04-07T09:19:18Z</time>
      </trkpt>
      <trkpt lat="44.10883" lon="1.94081">
        <ele>275.2</ele>
        <time>2024-04-07T09:19:20Z</time>
      </trkpt>
      <trkpt lat="44.10879" lon="1.9408">
        <ele>275.2</ele>
        <time>2024-04-07T09:19:21Z</time>
      </trkpt>
      <trkpt lat="44.10875" lon="1.94077">
        <ele>275.2</ele>
        <time>2024-04-07T09:19:22Z</time>
      </trkpt>
      <trkpt lat="44.1087" lon="1.94074">
        <ele>275.2</ele>
        <time>2024-04-07T09:19:23Z</time>
      </trkpt>
      <trkpt lat="44.10865" lon="1.94072">
        <ele>275.2</ele>
        <time>2024-04-07T09:19:24Z</time>
      </trkpt>
      <trkpt lat="44.10861" lon="1.9407">
        <ele>275.2</ele>
        <time>2024-04-07T09:19:25Z</time>
      </trkpt>
      <trkpt lat="44.10855" lon="1.94069">
        <ele>275.2</ele>
        <time>2024-04-07T09:19:26Z</time>
      </trkpt>
      <trkpt lat="44.10849" lon="1.94067">
        <ele>275.2</ele>
        <time>2024-04-07T09:19:27Z</time>
      </trkpt>
      <trkpt lat="44.10843" lon="1.94064">
        <ele>275.2</ele>
        <time>2024-04-07T09:19:28Z</time>
      </trkpt>
      <trkpt lat="44.10836" lon="1.9406">
        <ele>275</ele>
        <time>2024-04-07T09:19:29Z</time>
      </trkpt>
      <trkpt lat="44.1083" lon="1.94054">
        <ele>274.6</ele>
        <time>2024-04-07T09:19:30Z</time>
      </trkpt>
      <trkpt lat="44.10825" lon="1.94047">
        <ele>274.4</ele>
        <time>2024-04-07T09:19:31Z</time>
      </trkpt>
      <trkpt lat="44.1082" lon="1.9404">
        <ele>274</ele>
        <time>2024-04-07T09:19:32Z</time>
      </trkpt>
      <trkpt lat="44.10815" lon="1.94031">
        <ele>273.6</ele>
        <time>2024-04-07T09:19:33Z</time>
      </trkpt>
      <trkpt lat="44.1081" lon="1.94024">
        <ele>273.4</ele>
        <time>2024-04-07T09:19:34Z</time>
      </trkpt>
      <trkpt lat="44.10802" lon="1.94011">
        <ele>272.8</ele>
        <time>2024-04-07T09:19:36Z</time>
      </trkpt>
      <trkpt lat="44.10798" lon="1.94004">
        <ele>272.6</ele>
        <time>2024-04-07T09:19:37Z</time>
      </trkpt>
      <trkpt lat="44.10791" lon="1.93998">
        <ele>272.4</ele>
        <time>2024-04-07T09:19:38Z</time>
      </trkpt>
      <trkpt lat="44.10787" lon="1.93994">
        <ele>272</ele>
        <time>2024-04-07T09:19:39Z</time>
      </trkpt>
      <trkpt lat="44.1078" lon="1.9399">
        <ele>271.8</ele>
        <time>2024-04-07T09:19:40Z</time>
      </trkpt>
      <trkpt lat="44.10775" lon="1.93989">
        <ele>271.6</ele>
        <time>2024-04-07T09:19:41Z</time>
      </trkpt>
      <trkpt lat="44.10769" lon="1.93987">
        <ele>271.6</ele>
        <time>2024-04-07T09:19:42Z</time>
      </trkpt>
      <trkpt lat="44.10761" lon="1.93987">
        <ele>271.6</ele>
        <time>2024-04-07T09:19:43Z</time>
      </trkpt>
      <trkpt lat="44.10756" lon="1.93988">
        <ele>271.4</ele>
        <time>2024-04-07T09:19:44Z</time>
      </trkpt>
      <trkpt lat="44.10748" lon="1.9399">
        <ele>271.4</ele>
        <time>2024-04-07T09:19:45Z</time>
      </trkpt>
      <trkpt lat="44.10743" lon="1.93991">
        <ele>271.4</ele>
        <time>2024-04-07T09:19:46Z</time>
      </trkpt>
      <trkpt lat="44.10728" lon="1.93994">
        <ele>271.2</ele>
        <time>2024-04-07T09:19:48Z</time>
      </trkpt>
      <trkpt lat="44.10721" lon="1.93994">
        <ele>271.2</ele>
        <time>2024-04-07T09:19:49Z</time>
      </trkpt>
      <trkpt lat="44.10715" lon="1.93994">
        <ele>271.2</ele>
        <time>2024-04-07T09:19:50Z</time>
      </trkpt>
      <trkpt lat="44.1071" lon="1.93992">
        <ele>271.2</ele>
        <time>2024-04-07T09:19:51Z</time>
      </trkpt>
      <trkpt lat="44.10703" lon="1.93988">
        <ele>271.2</ele>
        <time>2024-04-07T09:19:52Z</time>
      </trkpt>
      <trkpt lat="44.10697" lon="1.93984">
        <ele>271.2</ele>
        <time>2024-04-07T09:19:53Z</time>
      </trkpt>
      <trkpt lat="44.10691" lon="1.93978">
        <ele>271</ele>
        <time>2024-04-07T09:19:54Z</time>
      </trkpt>
      <trkpt lat="44.10685" lon="1.93973">
        <ele>270.8</ele>
        <time>2024-04-07T09:19:55Z</time>
      </trkpt>
      <trkpt lat="44.10676" lon="1.93964">
        <ele>270.6</ele>
        <time>2024-04-07T09:19:57Z</time>
      </trkpt>
      <trkpt lat="44.1067" lon="1.9396">
        <ele>270.6</ele>
        <time>2024-04-07T09:19:58Z</time>
      </trkpt>
      <trkpt lat="44.10663" lon="1.93955">
        <ele>270.4</ele>
        <time>2024-04-07T09:19:59Z</time>
      </trkpt>
      <trkpt lat="44.10657" lon="1.93952">
        <ele>270.4</ele>
        <time>2024-04-07T09:20:00Z</time>
      </trkpt>
      <trkpt lat="44.10651" lon="1.9395">
        <ele>270.4</ele>
        <time>2024-04-07T09:20:01Z</time>
      </trkpt>
      <trkpt lat="44.10647" lon="1.93948">
        <ele>270.2</ele>
        <time>2024-04-07T09:20:02Z</time>
      </trkpt>
      <trkpt lat="44.10641" lon="1.93945">
        <ele>270.4</ele>
        <time>2024-04-07T09:20:03Z</time>
      </trkpt>
      <trkpt lat="44.10634" lon="1.93943">
        <ele>270.4</ele>
        <time>2024-04-07T09:20:04Z</time>
      </trkpt>
      <trkpt lat="44.10622" lon="1.93939">
        <ele>270.4</ele>
        <time>2024-04-07T09:20:06Z</time>
      </trkpt>
      <trkpt lat="44.10616" lon="1.93938">
        <ele>270.4</ele>
        <time>2024-04-07T09:20:07Z</time>
      </trkpt>
      <trkpt lat="44.10611" lon="1.93938">
        <ele>270.4</ele>
        <time>2024-04-07T09:20:08Z</time>
      </trkpt>
      <trkpt lat="44.10604" lon="1.93937">
        <ele>270.6</ele>
        <time>2024-04-07T09:20:09Z</time>
      </trkpt>
      <trkpt lat="44.10598" lon="1.93937">
        <ele>270.6</ele>
        <time>2024-04-07T09:20:10Z</time>
      </trkpt>
      <trkpt lat="44.10586" lon="1.93939">
        <ele>270.8</ele>
        <time>2024-04-07T09:20:12Z</time>
      </trkpt>
      <trkpt lat="44.10581" lon="1.9394">
        <ele>270.8</ele>
        <time>2024-04-07T09:20:13Z</time>
      </trkpt>
      <trkpt lat="44.10574" lon="1.93942">
        <ele>270.8</ele>
        <time>2024-04-07T09:20:14Z</time>
      </trkpt>
      <trkpt lat="44.10568" lon="1.93943">
        <ele>270.8</ele>
        <time>2024-04-07T09:20:15Z</time>
      </trkpt>
      <trkpt lat="44.10562" lon="1.93945">
        <ele>271</ele>
        <time>2024-04-07T09:20:16Z</time>
      </trkpt>
      <trkpt lat="44.1055" lon="1.93949">
        <ele>271</ele>
        <time>2024-04-07T09:20:18Z</time>
      </trkpt>
      <trkpt lat="44.10545" lon="1.93952">
        <ele>271.2</ele>
        <time>2024-04-07T09:20:19Z</time>
      </trkpt>
      <trkpt lat="44.10534" lon="1.93958">
        <ele>271.2</ele>
        <time>2024-04-07T09:20:21Z</time>
      </trkpt>
      <trkpt lat="44.10529" lon="1.93961">
        <ele>271.2</ele>
        <time>2024-04-07T09:20:22Z</time>
      </trkpt>
      <trkpt lat="44.10524" lon="1.93965">
        <ele>271.2</ele>
        <time>2024-04-07T09:20:23Z</time>
      </trkpt>
      <trkpt lat="44.10519" lon="1.93969">
        <ele>271.2</ele>
        <time>2024-04-07T09:20:24Z</time>
      </trkpt>
      <trkpt lat="44.10515" lon="1.93973">
        <ele>271.6</ele>
        <time>2024-04-07T09:20:25Z</time>
      </trkpt>
      <trkpt lat="44.1051" lon="1.93977">
        <ele>271.8</ele>
        <time>2024-04-07T09:20:26Z</time>
      </trkpt>
      <trkpt lat="44.10506" lon="1.93981">
        <ele>272</ele>
        <time>2024-04-07T09:20:27Z</time>
      </trkpt>
      <trkpt lat="44.10502" lon="1.93984">
        <ele>272.2</ele>
        <time>2024-04-07T09:20:28Z</time>
      </trkpt>
      <trkpt lat="44.10497" lon="1.93987">
        <ele>272.4</ele>
        <time>2024-04-07T09:20:29Z</time>
      </trkpt>
      <trkpt lat="44.10491" lon="1.93991">
        <ele>272.6</ele>
        <time>2024-04-07T09:20:30Z</time>
      </trkpt>
      <trkpt lat="44.10487" lon="1.93994">
        <ele>272.6</ele>
        <time>2024-04-07T09:20:31Z</time>
      </trkpt>
      <trkpt lat="44.10482" lon="1.93997">
        <ele>273</ele>
        <time>2024-04-07T09:20:32Z</time>
      </trkpt>
      <trkpt lat="44.10477" lon="1.94001">
        <ele>273.2</ele>
        <time>2024-04-07T09:20:33Z</time>
      </trkpt>
      <trkpt lat="44.10473" lon="1.94004">
        <ele>273.6</ele>
        <time>2024-04-07T09:20:34Z</time>
      </trkpt>
      <trkpt lat="44.10468" lon="1.94007">
        <ele>273.8</ele>
        <time>2024-04-07T09:20:35Z</time>
      </trkpt>
      <trkpt lat="44.10463" lon="1.9401">
        <ele>274</ele>
        <time>2024-04-07T09:20:36Z</time>
      </trkpt>
      <trkpt lat="44.10459" lon="1.94013">
        <ele>274.4</ele>
        <time>2024-04-07T09:20:37Z</time>
      </trkpt>
      <trkpt lat="44.10454" lon="1.94017">
        <ele>274.4</ele>
        <time>2024-04-07T09:20:38Z</time>
      </trkpt>
      <trkpt lat="44.1045" lon="1.94019">
        <ele>274.8</ele>
        <time>2024-04-07T09:20:39Z</time>
      </trkpt>
      <trkpt lat="44.10444" lon="1.94023">
        <ele>275</ele>
        <time>2024-04-07T09:20:40Z</time>
      </trkpt>
      <trkpt lat="44.10439" lon="1.94027">
        <ele>275.2</ele>
        <time>2024-04-07T09:20:41Z</time>
      </trkpt>
      <trkpt lat="44.10433" lon="1.9403">
        <ele>275.2</ele>
        <time>2024-04-07T09:20:42Z</time>
      </trkpt>
      <trkpt lat="44.10429" lon="1.94032">
        <ele>275.4</ele>
        <time>2024-04-07T09:20:43Z</time>
      </trkpt>
      <trkpt lat="44.10422" lon="1.94034">
        <ele>275.6</ele>
        <time>2024-04-07T09:20:44Z</time>
      </trkpt>
      <trkpt lat="44.10418" lon="1.94036">
        <ele>275.8</ele>
        <time>2024-04-07T09:20:45Z</time>
      </trkpt>
      <trkpt lat="44.10411" lon="1.94037">
        <ele>275.8</ele>
        <time>2024-04-07T09:20:46Z</time>
      </trkpt>
      <trkpt lat="44.10405" lon="1.94038">
        <ele>276</ele>
        <time>2024-04-07T09:20:47Z</time>
      </trkpt>
      <trkpt lat="44.104" lon="1.94039">
        <ele>276</ele>
        <time>2024-04-07T09:20:48Z</time>
      </trkpt>
      <trkpt lat="44.10394" lon="1.94038">
        <ele>276</ele>
        <time>2024-04-07T09:20:49Z</time>
      </trkpt>
      <trkpt lat="44.1039" lon="1.94038">
        <ele>276</ele>
        <time>2024-04-07T09:20:50Z</time>
      </trkpt>
      <trkpt lat="44.10383" lon="1.94037">
        <ele>276</ele>
        <time>2024-04-07T09:20:51Z</time>
      </trkpt>
      <trkpt lat="44.10378" lon="1.94036">
        <ele>276.2</ele>
        <time>2024-04-07T09:20:52Z</time>
      </trkpt>
      <trkpt lat="44.10373" lon="1.94034">
        <ele>276.2</ele>
        <time>2024-04-07T09:20:53Z</time>
      </trkpt>
      <trkpt lat="44.10368" lon="1.94033">
        <ele>276.4</ele>
        <time>2024-04-07T09:20:54Z</time>
      </trkpt>
      <trkpt lat="44.10363" lon="1.94032">
        <ele>276.6</ele>
        <time>2024-04-07T09:20:55Z</time>
      </trkpt>
      <trkpt lat="44.10358" lon="1.9403">
        <ele>276.8</ele>
        <time>2024-04-07T09:20:56Z</time>
      </trkpt>
      <trkpt lat="44.10352" lon="1.94029">
        <ele>277</ele>
        <time>2024-04-07T09:20:57Z</time>
      </trkpt>
      <trkpt lat="44.10347" lon="1.94027">
        <ele>277.2</ele>
        <time>2024-04-07T09:20:58Z</time>
      </trkpt>
      <trkpt lat="44.10343" lon="1.94025">
        <ele>277.6</ele>
        <time>2024-04-07T09:20:59Z</time>
      </trkpt>
      <trkpt lat="44.10338" lon="1.94024">
        <ele>277.8</ele>
        <time>2024-04-07T09:21:00Z</time>
      </trkpt>
      <trkpt lat="44.10333" lon="1.94022">
        <ele>278</ele>
        <time>2024-04-07T09:21:01Z</time>
      </trkpt>
      <trkpt lat="44.10328" lon="1.9402">
        <ele>278.2</ele>
        <time>2024-04-07T09:21:02Z</time>
      </trkpt>
      <trkpt lat="44.10323" lon="1.94019">
        <ele>278.4</ele>
        <time>2024-04-07T09:21:03Z</time>
      </trkpt>
      <trkpt lat="44.10318" lon="1.94017">
        <ele>279</ele>
        <time>2024-04-07T09:21:04Z</time>
      </trkpt>
      <trkpt lat="44.10313" lon="1.94016">
        <ele>279.2</ele>
        <time>2024-04-07T09:21:05Z</time>
      </trkpt>
      <trkpt lat="44.10308" lon="1.94014">
        <ele>280</ele>
        <time>2024-04-07T09:21:06Z</time>
      </trkpt>
      <trkpt lat="44.10304" lon="1.94012">
        <ele>280.2</ele>
        <time>2024-04-07T09:21:07Z</time>
      </trkpt>
      <trkpt lat="44.10299" lon="1.9401">
        <ele>280.6</ele>
        <time>2024-04-07T09:21:08Z</time>
      </trkpt>
      <trkpt lat="44.10294" lon="1.94007">
        <ele>281.2</ele>
        <time>2024-04-07T09:21:09Z</time>
      </trkpt>
      <trkpt lat="44.1029" lon="1.94004">
        <ele>281.6</ele>
        <time>2024-04-07T09:21:10Z</time>
      </trkpt>
      <trkpt lat="44.10285" lon="1.94">
        <ele>282.2</ele>
        <time>2024-04-07T09:21:11Z</time>
      </trkpt>
      <trkpt lat="44.10281" lon="1.93996">
        <ele>282.2</ele>
        <time>2024-04-07T09:21:12Z</time>
      </trkpt>
      <trkpt lat="44.10278" lon="1.93992">
        <ele>282.8</ele>
        <time>2024-04-07T09:21:13Z</time>
      </trkpt>
      <trkpt lat="44.10275" lon="1.93986">
        <ele>282.8</ele>
        <time>2024-04-07T09:21:14Z</time>
      </trkpt>
      <trkpt lat="44.10272" lon="1.9398">
        <ele>283.2</ele>
        <time>2024-04-07T09:21:15Z</time>
      </trkpt>
      <trkpt lat="44.1027" lon="1.93974">
        <ele>283.4</ele>
        <time>2024-04-07T09:21:16Z</time>
      </trkpt>
      <trkpt lat="44.10267" lon="1.93967">
        <ele>284</ele>
        <time>2024-04-07T09:21:17Z</time>
      </trkpt>
      <trkpt lat="44.10265" lon="1.93961">
        <ele>284.6</ele>
        <time>2024-04-07T09:21:18Z</time>
      </trkpt>
      <trkpt lat="44.10262" lon="1.93955">
        <ele>285</ele>
        <time>2024-04-07T09:21:19Z</time>
      </trkpt>
      <trkpt lat="44.1026" lon="1.93949">
        <ele>285.4</ele>
        <time>2024-04-07T09:21:20Z</time>
      </trkpt>
      <trkpt lat="44.10257" lon="1.93942">
        <ele>285.6</ele>
        <time>2024-04-07T09:21:21Z</time>
      </trkpt>
      <trkpt lat="44.10255" lon="1.93936">
        <ele>286.4</ele>
        <time>2024-04-07T09:21:22Z</time>
      </trkpt>
      <trkpt lat="44.10253" lon="1.93929">
        <ele>286.8</ele>
        <time>2024-04-07T09:21:23Z</time>
      </trkpt>
      <trkpt lat="44.1025" lon="1.93923">
        <ele>287.4</ele>
        <time>2024-04-07T09:21:24Z</time>
      </trkpt>
      <trkpt lat="44.10248" lon="1.93916">
        <ele>288</ele>
        <time>2024-04-07T09:21:25Z</time>
      </trkpt>
      <trkpt lat="44.10246" lon="1.93911">
        <ele>288.4</ele>
        <time>2024-04-07T09:21:26Z</time>
      </trkpt>
      <trkpt lat="44.10244" lon="1.93904">
        <ele>288.8</ele>
        <time>2024-04-07T09:21:27Z</time>
      </trkpt>
      <trkpt lat="44.10242" lon="1.93899">
        <ele>289.2</ele>
        <time>2024-04-07T09:21:28Z</time>
      </trkpt>
      <trkpt lat="44.10239" lon="1.93894">
        <ele>289.6</ele>
        <time>2024-04-07T09:21:29Z</time>
      </trkpt>
      <trkpt lat="44.10236" lon="1.93888">
        <ele>289.8</ele>
        <time>2024-04-07T09:21:30Z</time>
      </trkpt>
      <trkpt lat="44.10234" lon="1.93883">
        <ele>290.2</ele>
        <time>2024-04-07T09:21:31Z</time>
      </trkpt>
      <trkpt lat="44.10231" lon="1.93877">
        <ele>290.4</ele>
        <time>2024-04-07T09:21:32Z</time>
      </trkpt>
      <trkpt lat="44.10229" lon="1.9387">
        <ele>291</ele>
        <time>2024-04-07T09:21:33Z</time>
      </trkpt>
      <trkpt lat="44.10227" lon="1.93864">
        <ele>291.4</ele>
        <time>2024-04-07T09:21:34Z</time>
      </trkpt>
      <trkpt lat="44.10225" lon="1.93857">
        <ele>291.6</ele>
        <time>2024-04-07T09:21:35Z</time>
      </trkpt>
      <trkpt lat="44.10223" lon="1.93851">
        <ele>292.4</ele>
        <time>2024-04-07T09:21:36Z</time>
      </trkpt>
      <trkpt lat="44.10221" lon="1.93845">
        <ele>292.6</ele>
        <time>2024-04-07T09:21:37Z</time>
      </trkpt>
      <trkpt lat="44.10218" lon="1.93838">
        <ele>293</ele>
        <time>2024-04-07T09:21:38Z</time>
      </trkpt>
      <trkpt lat="44.10216" lon="1.93831">
        <ele>293.2</ele>
        <time>2024-04-07T09:21:39Z</time>
      </trkpt>
      <trkpt lat="44.10214" lon="1.93825">
        <ele>293.4</ele>
        <time>2024-04-07T09:21:40Z</time>
      </trkpt>
      <trkpt lat="44.10211" lon="1.9382">
        <ele>293.6</ele>
        <time>2024-04-07T09:21:41Z</time>
      </trkpt>
      <trkpt lat="44.10208" lon="1.93814">
        <ele>293.8</ele>
        <time>2024-04-07T09:21:42Z</time>
      </trkpt>
      <trkpt lat="44.10204" lon="1.93808">
        <ele>294.2</ele>
        <time>2024-04-07T09:21:43Z</time>
      </trkpt>
      <trkpt lat="44.102" lon="1.93804">
        <ele>294.4</ele>
        <time>2024-04-07T09:21:44Z</time>
      </trkpt>
      <trkpt lat="44.10197" lon="1.93804">
        <ele>294.4</ele>
        <time>2024-04-07T09:21:45Z</time>
      </trkpt>
      <trkpt lat="44.10195" lon="1.93805">
        <ele>294.6</ele>
        <time>2024-04-07T09:21:46Z</time>
      </trkpt>
      <trkpt lat="44.10196" lon="1.93808">
        <ele>294.6</ele>
        <time>2024-04-07T09:21:47Z</time>
      </trkpt>
      <trkpt lat="44.10197" lon="1.93811">
        <ele>294.6</ele>
        <time>2024-04-07T09:21:48Z</time>
      </trkpt>
      <trkpt lat="44.102" lon="1.93815">
        <ele>294.8</ele>
        <time>2024-04-07T09:21:49Z</time>
      </trkpt>
      <trkpt lat="44.10201" lon="1.93817">
        <ele>295</ele>
        <time>2024-04-07T09:21:50Z</time>
      </trkpt>
      <trkpt lat="44.10202" lon="1.9382">
        <ele>295</ele>
        <time>2024-04-07T09:21:51Z</time>
      </trkpt>
      <trkpt lat="44.10202" lon="1.93824">
        <ele>295</ele>
        <time>2024-04-07T09:21:52Z</time>
      </trkpt>
      <trkpt lat="44.10203" lon="1.93828">
        <ele>295</ele>
        <time>2024-04-07T09:21:53Z</time>
      </trkpt>
      <trkpt lat="44.10202" lon="1.93833">
        <ele>295.2</ele>
        <time>2024-04-07T09:21:54Z</time>
      </trkpt>
      <trkpt lat="44.10201" lon="1.93838">
        <ele>295.2</ele>
        <time>2024-04-07T09:21:55Z</time>
      </trkpt>
      <trkpt lat="44.10201" lon="1.93842">
        <ele>295.6</ele>
        <time>2024-04-07T09:21:56Z</time>
      </trkpt>
      <trkpt lat="44.102" lon="1.93846">
        <ele>296.4</ele>
        <time>2024-04-07T09:21:57Z</time>
      </trkpt>
      <trkpt lat="44.102" lon="1.9385">
        <ele>296.8</ele>
        <time>2024-04-07T09:21:58Z</time>
      </trkpt>
      <trkpt lat="44.10199" lon="1.93856">
        <ele>297.4</ele>
        <time>2024-04-07T09:21:59Z</time>
      </trkpt>
      <trkpt lat="44.10199" lon="1.93861">
        <ele>297.8</ele>
        <time>2024-04-07T09:22:00Z</time>
      </trkpt>
      <trkpt lat="44.10199" lon="1.93864">
        <ele>298.4</ele>
        <time>2024-04-07T09:22:01Z</time>
      </trkpt>
      <trkpt lat="44.10199" lon="1.93869">
        <ele>298.6</ele>
        <time>2024-04-07T09:22:02Z</time>
      </trkpt>
      <trkpt lat="44.10199" lon="1.93873">
        <ele>299.2</ele>
        <time>2024-04-07T09:22:03Z</time>
      </trkpt>
      <trkpt lat="44.10199" lon="1.93878">
        <ele>299.6</ele>
        <time>2024-04-07T09:22:04Z</time>
      </trkpt>
      <trkpt lat="44.10199" lon="1.93882">
        <ele>300.2</ele>
        <time>2024-04-07T09:22:05Z</time>
      </trkpt>
      <trkpt lat="44.102" lon="1.93885">
        <ele>300.8</ele>
        <time>2024-04-07T09:22:06Z</time>
      </trkpt>
      <trkpt lat="44.102" lon="1.93889">
        <ele>301</ele>
        <time>2024-04-07T09:22:07Z</time>
      </trkpt>
      <trkpt lat="44.102" lon="1.93893">
        <ele>301.2</ele>
        <time>2024-04-07T09:22:08Z</time>
      </trkpt>
      <trkpt lat="44.10201" lon="1.93898">
        <ele>301.4</ele>
        <time>2024-04-07T09:22:09Z</time>
      </trkpt>
      <trkpt lat="44.10201" lon="1.93902">
        <ele>301.6</ele>
        <time>2024-04-07T09:22:10Z</time>
      </trkpt>
      <trkpt lat="44.10202" lon="1.93904">
        <ele>301.8</ele>
        <time>2024-04-07T09:22:11Z</time>
      </trkpt>
      <trkpt lat="44.10202" lon="1.93908">
        <ele>302.2</ele>
        <time>2024-04-07T09:22:12Z</time>
      </trkpt>
      <trkpt lat="44.10202" lon="1.93912">
        <ele>302.4</ele>
        <time>2024-04-07T09:22:13Z</time>
      </trkpt>
      <trkpt lat="44.10202" lon="1.93918">
        <ele>302.8</ele>
        <time>2024-04-07T09:22:14Z</time>
      </trkpt>
      <trkpt lat="44.10202" lon="1.93922">
        <ele>303.8</ele>
        <time>2024-04-07T09:22:15Z</time>
      </trkpt>
      <trkpt lat="44.10202" lon="1.93926">
        <ele>304</ele>
        <time>2024-04-07T09:22:16Z</time>
      </trkpt>
      <trkpt lat="44.10202" lon="1.93929">
        <ele>304.8</ele>
        <time>2024-04-07T09:22:17Z</time>
      </trkpt>
      <trkpt lat="44.10201" lon="1.93933">
        <ele>305</ele>
        <time>2024-04-07T09:22:18Z</time>
      </trkpt>
      <trkpt lat="44.102" lon="1.93938">
        <ele>305.4</ele>
        <time>2024-04-07T09:22:19Z</time>
      </trkpt>
      <trkpt lat="44.10198" lon="1.93942">
        <ele>305.4</ele>
        <time>2024-04-07T09:22:20Z</time>
      </trkpt>
      <trkpt lat="44.10196" lon="1.93944">
        <ele>306</ele>
        <time>2024-04-07T09:22:21Z</time>
      </trkpt>
      <trkpt lat="44.10193" lon="1.93944">
        <ele>306.6</ele>
        <time>2024-04-07T09:22:22Z</time>
      </trkpt>
      <trkpt lat="44.10192" lon="1.93943">
        <ele>307</ele>
        <time>2024-04-07T09:22:23Z</time>
      </trkpt>
      <trkpt lat="44.1019" lon="1.93941">
        <ele>307.2</ele>
        <time>2024-04-07T09:22:24Z</time>
      </trkpt>
      <trkpt lat="44.10189" lon="1.93937">
        <ele>307.6</ele>
        <time>2024-04-07T09:22:25Z</time>
      </trkpt>
      <trkpt lat="44.10188" lon="1.93934">
        <ele>308.6</ele>
        <time>2024-04-07T09:22:26Z</time>
      </trkpt>
      <trkpt lat="44.10187" lon="1.93931">
        <ele>308.8</ele>
        <time>2024-04-07T09:22:27Z</time>
      </trkpt>
      <trkpt lat="44.10185" lon="1.93928">
        <ele>309.4</ele>
        <time>2024-04-07T09:22:28Z</time>
      </trkpt>
      <trkpt lat="44.10183" lon="1.93925">
        <ele>309.6</ele>
        <time>2024-04-07T09:22:29Z</time>
      </trkpt>
      <trkpt lat="44.10181" lon="1.93921">
        <ele>309.8</ele>
        <time>2024-04-07T09:22:30Z</time>
      </trkpt>
      <trkpt lat="44.10178" lon="1.93918">
        <ele>310</ele>
        <time>2024-04-07T09:22:31Z</time>
      </trkpt>
      <trkpt lat="44.10176" lon="1.93916">
        <ele>310.4</ele>
        <time>2024-04-07T09:22:32Z</time>
      </trkpt>
      <trkpt lat="44.10174" lon="1.93914">
        <ele>311</ele>
        <time>2024-04-07T09:22:33Z</time>
      </trkpt>
      <trkpt lat="44.10172" lon="1.93912">
        <ele>311.2</ele>
        <time>2024-04-07T09:22:34Z</time>
      </trkpt>
      <trkpt lat="44.10168" lon="1.9391">
        <ele>311.6</ele>
        <time>2024-04-07T09:22:35Z</time>
      </trkpt>
      <trkpt lat="44.10164" lon="1.93909">
        <ele>311.8</ele>
        <time>2024-04-07T09:22:36Z</time>
      </trkpt>
      <trkpt lat="44.10161" lon="1.9391">
        <ele>312</ele>
        <time>2024-04-07T09:22:37Z</time>
      </trkpt>
      <trkpt lat="44.10158" lon="1.9391">
        <ele>312.4</ele>
        <time>2024-04-07T09:22:38Z</time>
      </trkpt>
      <trkpt lat="44.10154" lon="1.9391">
        <ele>312.8</ele>
        <time>2024-04-07T09:22:39Z</time>
      </trkpt>
      <trkpt lat="44.1015" lon="1.9391">
        <ele>313.4</ele>
        <time>2024-04-07T09:22:40Z</time>
      </trkpt>
      <trkpt lat="44.10146" lon="1.9391">
        <ele>313.6</ele>
        <time>2024-04-07T09:22:41Z</time>
      </trkpt>
      <trkpt lat="44.10143" lon="1.9391">
        <ele>314</ele>
        <time>2024-04-07T09:22:42Z</time>
      </trkpt>
      <trkpt lat="44.1014" lon="1.93911">
        <ele>314.2</ele>
        <time>2024-04-07T09:22:43Z</time>
      </trkpt>
      <trkpt lat="44.10136" lon="1.93912">
        <ele>314.8</ele>
        <time>2024-04-07T09:22:44Z</time>
      </trkpt>
      <trkpt lat="44.10133" lon="1.93915">
        <ele>314.8</ele>
        <time>2024-04-07T09:22:45Z</time>
      </trkpt>
      <trkpt lat="44.10129" lon="1.93917">
        <ele>315.2</ele>
        <time>2024-04-07T09:22:46Z</time>
      </trkpt>
      <trkpt lat="44.10126" lon="1.93921">
        <ele>315.6</ele>
        <time>2024-04-07T09:22:47Z</time>
      </trkpt>
      <trkpt lat="44.10125" lon="1.93924">
        <ele>315.6</ele>
        <time>2024-04-07T09:22:48Z</time>
      </trkpt>
      <trkpt lat="44.10123" lon="1.93928">
        <ele>316</ele>
        <time>2024-04-07T09:22:49Z</time>
      </trkpt>
      <trkpt lat="44.10121" lon="1.93932">
        <ele>316.2</ele>
        <time>2024-04-07T09:22:50Z</time>
      </trkpt>
      <trkpt lat="44.10118" lon="1.93936">
        <ele>316.6</ele>
        <time>2024-04-07T09:22:51Z</time>
      </trkpt>
      <trkpt lat="44.10116" lon="1.9394">
        <ele>316.8</ele>
        <time>2024-04-07T09:22:52Z</time>
      </trkpt>
      <trkpt lat="44.10115" lon="1.93943">
        <ele>317</ele>
        <time>2024-04-07T09:22:53Z</time>
      </trkpt>
      <trkpt lat="44.10113" lon="1.93947">
        <ele>317.8</ele>
        <time>2024-04-07T09:22:54Z</time>
      </trkpt>
      <trkpt lat="44.10112" lon="1.93951">
        <ele>318.2</ele>
        <time>2024-04-07T09:22:55Z</time>
      </trkpt>
      <trkpt lat="44.1011" lon="1.93955">
        <ele>318.6</ele>
        <time>2024-04-07T09:22:56Z</time>
      </trkpt>
      <trkpt lat="44.10109" lon="1.93958">
        <ele>319</ele>
        <time>2024-04-07T09:22:57Z</time>
      </trkpt>
      <trkpt lat="44.10108" lon="1.93961">
        <ele>319.6</ele>
        <time>2024-04-07T09:22:58Z</time>
      </trkpt>
      <trkpt lat="44.10107" lon="1.93964">
        <ele>320</ele>
        <time>2024-04-07T09:22:59Z</time>
      </trkpt>
      <trkpt lat="44.10105" lon="1.93968">
        <ele>320.4</ele>
        <time>2024-04-07T09:23:00Z</time>
      </trkpt>
      <trkpt lat="44.10103" lon="1.93972">
        <ele>320.6</ele>
        <time>2024-04-07T09:23:01Z</time>
      </trkpt>
      <trkpt lat="44.101" lon="1.93977">
        <ele>321.6</ele>
        <time>2024-04-07T09:23:02Z</time>
      </trkpt>
      <trkpt lat="44.10098" lon="1.9398">
        <ele>322.2</ele>
        <time>2024-04-07T09:23:03Z</time>
      </trkpt>
      <trkpt lat="44.10097" lon="1.93983">
        <ele>322.4</ele>
        <time>2024-04-07T09:23:04Z</time>
      </trkpt>
      <trkpt lat="44.10095" lon="1.93987">
        <ele>323</ele>
        <time>2024-04-07T09:23:05Z</time>
      </trkpt>
      <trkpt lat="44.10094" lon="1.93992">
        <ele>323.2</ele>
        <time>2024-04-07T09:23:06Z</time>
      </trkpt>
      <trkpt lat="44.10094" lon="1.93995">
        <ele>323.6</ele>
        <time>2024-04-07T09:23:07Z</time>
      </trkpt>
      <trkpt lat="44.10094" lon="1.94">
        <ele>323.8</ele>
        <time>2024-04-07T09:23:08Z</time>
      </trkpt>
      <trkpt lat="44.10093" lon="1.94004">
        <ele>324.2</ele>
        <time>2024-04-07T09:23:09Z</time>
      </trkpt>
      <trkpt lat="44.10093" lon="1.94008">
        <ele>324.4</ele>
        <time>2024-04-07T09:23:10Z</time>
      </trkpt>
      <trkpt lat="44.10092" lon="1.94011">
        <ele>324.4</ele>
        <time>2024-04-07T09:23:11Z</time>
      </trkpt>
      <trkpt lat="44.10092" lon="1.94015">
        <ele>325</ele>
        <time>2024-04-07T09:23:12Z</time>
      </trkpt>
      <trkpt lat="44.10091" lon="1.94019">
        <ele>325.4</ele>
        <time>2024-04-07T09:23:13Z</time>
      </trkpt>
      <trkpt lat="44.1009" lon="1.94023">
        <ele>326</ele>
        <time>2024-04-07T09:23:14Z</time>
      </trkpt>
      <trkpt lat="44.10088" lon="1.94026">
        <ele>326.2</ele>
        <time>2024-04-07T09:23:15Z</time>
      </trkpt>
      <trkpt lat="44.10087" lon="1.9403">
        <ele>326.8</ele>
        <time>2024-04-07T09:23:16Z</time>
      </trkpt>
      <trkpt lat="44.10086" lon="1.94035">
        <ele>327.2</ele>
        <time>2024-04-07T09:23:17Z</time>
      </trkpt>
      <trkpt lat="44.10084" lon="1.94039">
        <ele>328.2</ele>
        <time>2024-04-07T09:23:18Z</time>
      </trkpt>
      <trkpt lat="44.10083" lon="1.94043">
        <ele>329.2</ele>
        <time>2024-04-07T09:23:19Z</time>
      </trkpt>
      <trkpt lat="44.10082" lon="1.94047">
        <ele>329.4</ele>
        <time>2024-04-07T09:23:20Z</time>
      </trkpt>
      <trkpt lat="44.1008" lon="1.94051">
        <ele>329.6</ele>
        <time>2024-04-07T09:23:21Z</time>
      </trkpt>
      <trkpt lat="44.10078" lon="1.94055">
        <ele>329.8</ele>
        <time>2024-04-07T09:23:22Z</time>
      </trkpt>
      <trkpt lat="44.10076" lon="1.94059">
        <ele>330.2</ele>
        <time>2024-04-07T09:23:23Z</time>
      </trkpt>
      <trkpt lat="44.10074" lon="1.94063">
        <ele>330.2</ele>
        <time>2024-04-07T09:23:24Z</time>
      </trkpt>
      <trkpt lat="44.10072" lon="1.94067">
        <ele>330.4</ele>
        <time>2024-04-07T09:23:25Z</time>
      </trkpt>
      <trkpt lat="44.1007" lon="1.94072">
        <ele>330.8</ele>
        <time>2024-04-07T09:23:26Z</time>
      </trkpt>
      <trkpt lat="44.10067" lon="1.94076">
        <ele>331</ele>
        <time>2024-04-07T09:23:27Z</time>
      </trkpt>
      <trkpt lat="44.10065" lon="1.94081">
        <ele>331.4</ele>
        <time>2024-04-07T09:23:28Z</time>
      </trkpt>
      <trkpt lat="44.10062" lon="1.94085">
        <ele>331.4</ele>
        <time>2024-04-07T09:23:29Z</time>
      </trkpt>
      <trkpt lat="44.1006" lon="1.94089">
        <ele>331.8</ele>
        <time>2024-04-07T09:23:30Z</time>
      </trkpt>
      <trkpt lat="44.10058" lon="1.94093">
        <ele>332</ele>
        <time>2024-04-07T09:23:31Z</time>
      </trkpt>
      <trkpt lat="44.10056" lon="1.94098">
        <ele>332.2</ele>
        <time>2024-04-07T09:23:32Z</time>
      </trkpt>
      <trkpt lat="44.10053" lon="1.94102">
        <ele>332.4</ele>
        <time>2024-04-07T09:23:33Z</time>
      </trkpt>
      <trkpt lat="44.10051" lon="1.94106">
        <ele>332.4</ele>
        <time>2024-04-07T09:23:34Z</time>
      </trkpt>
      <trkpt lat="44.10048" lon="1.9411">
        <ele>332.4</ele>
        <time>2024-04-07T09:23:35Z</time>
      </trkpt>
      <trkpt lat="44.10045" lon="1.94114">
        <ele>332.6</ele>
        <time>2024-04-07T09:23:36Z</time>
      </trkpt>
      <trkpt lat="44.10043" lon="1.94119">
        <ele>332.6</ele>
        <time>2024-04-07T09:23:37Z</time>
      </trkpt>
      <trkpt lat="44.1004" lon="1.94123">
        <ele>332.6</ele>
        <time>2024-04-07T09:23:38Z</time>
      </trkpt>
      <trkpt lat="44.10038" lon="1.94128">
        <ele>332.8</ele>
        <time>2024-04-07T09:23:39Z</time>
      </trkpt>
      <trkpt lat="44.10036" lon="1.94132">
        <ele>332.8</ele>
        <time>2024-04-07T09:23:40Z</time>
      </trkpt>
      <trkpt lat="44.10033" lon="1.94137">
        <ele>332.8</ele>
        <time>2024-04-07T09:23:41Z</time>
      </trkpt>
      <trkpt lat="44.10031" lon="1.94142">
        <ele>332.8</ele>
        <time>2024-04-07T09:23:42Z</time>
      </trkpt>
      <trkpt lat="44.10029" lon="1.94146">
        <ele>333</ele>
        <time>2024-04-07T09:23:43Z</time>
      </trkpt>
      <trkpt lat="44.10026" lon="1.94152">
        <ele>333.2</ele>
        <time>2024-04-07T09:23:44Z</time>
      </trkpt>
      <trkpt lat="44.10024" lon="1.94156">
        <ele>333.2</ele>
        <time>2024-04-07T09:23:45Z</time>
      </trkpt>
      <trkpt lat="44.10021" lon="1.94161">
        <ele>333.2</ele>
        <time>2024-04-07T09:23:46Z</time>
      </trkpt>
      <trkpt lat="44.10019" lon="1.94167">
        <ele>333.4</ele>
        <time>2024-04-07T09:23:47Z</time>
      </trkpt>
      <trkpt lat="44.10017" lon="1.94173">
        <ele>333.4</ele>
        <time>2024-04-07T09:23:48Z</time>
      </trkpt>
      <trkpt lat="44.10015" lon="1.94179">
        <ele>333.4</ele>
        <time>2024-04-07T09:23:49Z</time>
      </trkpt>
      <trkpt lat="44.10013" lon="1.94186">
        <ele>333.6</ele>
        <time>2024-04-07T09:23:50Z</time>
      </trkpt>
      <trkpt lat="44.10011" lon="1.94192">
        <ele>333.6</ele>
        <time>2024-04-07T09:23:51Z</time>
      </trkpt>
      <trkpt lat="44.10009" lon="1.94198">
        <ele>333.8</ele>
        <time>2024-04-07T09:23:52Z</time>
      </trkpt>
      <trkpt lat="44.10007" lon="1.94204">
        <ele>333.8</ele>
        <time>2024-04-07T09:23:53Z</time>
      </trkpt>
      <trkpt lat="44.10006" lon="1.9421">
        <ele>334</ele>
        <time>2024-04-07T09:23:54Z</time>
      </trkpt>
      <trkpt lat="44.10004" lon="1.94216">
        <ele>334</ele>
        <time>2024-04-07T09:23:55Z</time>
      </trkpt>
      <trkpt lat="44.10003" lon="1.94222">
        <ele>334</ele>
        <time>2024-04-07T09:23:56Z</time>
      </trkpt>
      <trkpt lat="44.10001" lon="1.94228">
        <ele>334</ele>
        <time>2024-04-07T09:23:57Z</time>
      </trkpt>
      <trkpt lat="44.1" lon="1.94234">
        <ele>334</ele>
        <time>2024-04-07T09:23:58Z</time>
      </trkpt>
      <trkpt lat="44.09998" lon="1.9424">
        <ele>334</ele>
        <time>2024-04-07T09:23:59Z</time>
      </trkpt>
      <trkpt lat="44.09997" lon="1.94247">
        <ele>334</ele>
        <time>2024-04-07T09:24:00Z</time>
      </trkpt>
      <trkpt lat="44.09996" lon="1.94254">
        <ele>334</ele>
        <time>2024-04-07T09:24:01Z</time>
      </trkpt>
      <trkpt lat="44.09994" lon="1.94267">
        <ele>334</ele>
        <time>2024-04-07T09:24:03Z</time>
      </trkpt>
      <trkpt lat="44.09993" lon="1.94274">
        <ele>334</ele>
        <time>2024-04-07T09:24:04Z</time>
      </trkpt>
      <trkpt lat="44.09992" lon="1.9428">
        <ele>334</ele>
        <time>2024-04-07T09:24:05Z</time>
      </trkpt>
      <trkpt lat="44.09992" lon="1.94287">
        <ele>334.2</ele>
        <time>2024-04-07T09:24:06Z</time>
      </trkpt>
      <trkpt lat="44.09992" lon="1.94291">
        <ele>334.2</ele>
        <time>2024-04-07T09:24:07Z</time>
      </trkpt>
      <trkpt lat="44.09995" lon="1.94295">
        <ele>334.4</ele>
        <time>2024-04-07T09:24:08Z</time>
      </trkpt>
      <trkpt lat="44.09998" lon="1.94296">
        <ele>334.4</ele>
        <time>2024-04-07T09:24:09Z</time>
      </trkpt>
      <trkpt lat="44.10001" lon="1.94297">
        <ele>334.4</ele>
        <time>2024-04-07T09:24:10Z</time>
      </trkpt>
      <trkpt lat="44.10004" lon="1.94296">
        <ele>334.6</ele>
        <time>2024-04-07T09:24:11Z</time>
      </trkpt>
      <trkpt lat="44.10008" lon="1.94295">
        <ele>334.8</ele>
        <time>2024-04-07T09:24:12Z</time>
      </trkpt>
      <trkpt lat="44.10011" lon="1.94295">
        <ele>335.2</ele>
        <time>2024-04-07T09:24:13Z</time>
      </trkpt>
      <trkpt lat="44.10019" lon="1.94294">
        <ele>335.6</ele>
        <time>2024-04-07T09:24:15Z</time>
      </trkpt>
      <trkpt lat="44.10022" lon="1.94293">
        <ele>335.8</ele>
        <time>2024-04-07T09:24:16Z</time>
      </trkpt>
      <trkpt lat="44.10026" lon="1.94292">
        <ele>335.8</ele>
        <time>2024-04-07T09:24:17Z</time>
      </trkpt>
      <trkpt lat="44.1003" lon="1.94291">
        <ele>336.2</ele>
        <time>2024-04-07T09:24:18Z</time>
      </trkpt>
      <trkpt lat="44.10039" lon="1.9429">
        <ele>336.6</ele>
        <time>2024-04-07T09:24:20Z</time>
      </trkpt>
      <trkpt lat="44.10042" lon="1.9429">
        <ele>336.6</ele>
        <time>2024-04-07T09:24:21Z</time>
      </trkpt>
      <trkpt lat="44.10045" lon="1.94293">
        <ele>336.8</ele>
        <time>2024-04-07T09:24:22Z</time>
      </trkpt>
      <trkpt lat="44.10047" lon="1.94297">
        <ele>336.8</ele>
        <time>2024-04-07T09:24:23Z</time>
      </trkpt>
      <trkpt lat="44.10048" lon="1.94303">
        <ele>336.8</ele>
        <time>2024-04-07T09:24:24Z</time>
      </trkpt>
      <trkpt lat="44.10047" lon="1.94309">
        <ele>337</ele>
        <time>2024-04-07T09:24:25Z</time>
      </trkpt>
      <trkpt lat="44.10047" lon="1.94315">
        <ele>337</ele>
        <time>2024-04-07T09:24:26Z</time>
      </trkpt>
      <trkpt lat="44.10046" lon="1.94321">
        <ele>337</ele>
        <time>2024-04-07T09:24:27Z</time>
      </trkpt>
      <trkpt lat="44.10046" lon="1.94327">
        <ele>337</ele>
        <time>2024-04-07T09:24:28Z</time>
      </trkpt>
      <trkpt lat="44.10045" lon="1.94333">
        <ele>337</ele>
        <time>2024-04-07T09:24:29Z</time>
      </trkpt>
      <trkpt lat="44.10045" lon="1.94341">
        <ele>337</ele>
        <time>2024-04-07T09:24:30Z</time>
      </trkpt>
      <trkpt lat="44.10044" lon="1.94346">
        <ele>337</ele>
        <time>2024-04-07T09:24:31Z</time>
      </trkpt>
      <trkpt lat="44.10044" lon="1.94352">
        <ele>337</ele>
        <time>2024-04-07T09:24:32Z</time>
      </trkpt>
      <trkpt lat="44.10043" lon="1.94358">
        <ele>337</ele>
        <time>2024-04-07T09:24:33Z</time>
      </trkpt>
      <trkpt lat="44.10042" lon="1.94364">
        <ele>337</ele>
        <time>2024-04-07T09:24:34Z</time>
      </trkpt>
      <trkpt lat="44.10042" lon="1.94372">
        <ele>337</ele>
        <time>2024-04-07T09:24:35Z</time>
      </trkpt>
      <trkpt lat="44.10041" lon="1.94383">
        <ele>337.2</ele>
        <time>2024-04-07T09:24:37Z</time>
      </trkpt>
      <trkpt lat="44.1004" lon="1.94389">
        <ele>337.2</ele>
        <time>2024-04-07T09:24:38Z</time>
      </trkpt>
      <trkpt lat="44.1004" lon="1.94396">
        <ele>337.2</ele>
        <time>2024-04-07T09:24:39Z</time>
      </trkpt>
      <trkpt lat="44.10039" lon="1.94402">
        <ele>337.4</ele>
        <time>2024-04-07T09:24:40Z</time>
      </trkpt>
      <trkpt lat="44.10038" lon="1.94408">
        <ele>337.6</ele>
        <time>2024-04-07T09:24:41Z</time>
      </trkpt>
      <trkpt lat="44.10038" lon="1.94414">
        <ele>337.6</ele>
        <time>2024-04-07T09:24:42Z</time>
      </trkpt>
      <trkpt lat="44.10038" lon="1.9442">
        <ele>337.8</ele>
        <time>2024-04-07T09:24:43Z</time>
      </trkpt>
      <trkpt lat="44.10037" lon="1.94434">
        <ele>337.8</ele>
        <time>2024-04-07T09:24:45Z</time>
      </trkpt>
      <trkpt lat="44.10037" lon="1.94439">
        <ele>337.8</ele>
        <time>2024-04-07T09:24:46Z</time>
      </trkpt>
      <trkpt lat="44.10036" lon="1.94446">
        <ele>338</ele>
        <time>2024-04-07T09:24:47Z</time>
      </trkpt>
      <trkpt lat="44.10036" lon="1.94452">
        <ele>338</ele>
        <time>2024-04-07T09:24:48Z</time>
      </trkpt>
      <trkpt lat="44.10035" lon="1.94458">
        <ele>338.2</ele>
        <time>2024-04-07T09:24:49Z</time>
      </trkpt>
      <trkpt lat="44.10035" lon="1.94465">
        <ele>338.2</ele>
        <time>2024-04-07T09:24:50Z</time>
      </trkpt>
      <trkpt lat="44.10034" lon="1.9447">
        <ele>338.4</ele>
        <time>2024-04-07T09:24:51Z</time>
      </trkpt>
      <trkpt lat="44.10034" lon="1.94475">
        <ele>338.4</ele>
        <time>2024-04-07T09:24:52Z</time>
      </trkpt>
      <trkpt lat="44.10033" lon="1.94487">
        <ele>338.8</ele>
        <time>2024-04-07T09:24:54Z</time>
      </trkpt>
      <trkpt lat="44.10032" lon="1.94492">
        <ele>338.8</ele>
        <time>2024-04-07T09:24:55Z</time>
      </trkpt>
      <trkpt lat="44.10032" lon="1.94498">
        <ele>338.8</ele>
        <time>2024-04-07T09:24:56Z</time>
      </trkpt>
      <trkpt lat="44.10031" lon="1.94504">
        <ele>339</ele>
        <time>2024-04-07T09:24:57Z</time>
      </trkpt>
      <trkpt lat="44.10031" lon="1.9451">
        <ele>339.2</ele>
        <time>2024-04-07T09:24:58Z</time>
      </trkpt>
      <trkpt lat="44.1003" lon="1.94516">
        <ele>339.4</ele>
        <time>2024-04-07T09:24:59Z</time>
      </trkpt>
      <trkpt lat="44.1003" lon="1.94523">
        <ele>339.4</ele>
        <time>2024-04-07T09:25:00Z</time>
      </trkpt>
      <trkpt lat="44.10029" lon="1.94529">
        <ele>339.8</ele>
        <time>2024-04-07T09:25:01Z</time>
      </trkpt>
      <trkpt lat="44.10029" lon="1.94535">
        <ele>340</ele>
        <time>2024-04-07T09:25:02Z</time>
      </trkpt>
      <trkpt lat="44.10028" lon="1.94541">
        <ele>340</ele>
        <time>2024-04-07T09:25:03Z</time>
      </trkpt>
      <trkpt lat="44.10028" lon="1.94547">
        <ele>340.2</ele>
        <time>2024-04-07T09:25:04Z</time>
      </trkpt>
      <trkpt lat="44.10027" lon="1.94554">
        <ele>340.4</ele>
        <time>2024-04-07T09:25:05Z</time>
      </trkpt>
      <trkpt lat="44.10027" lon="1.94558">
        <ele>340.4</ele>
        <time>2024-04-07T09:25:06Z</time>
      </trkpt>
      <trkpt lat="44.10026" lon="1.94564">
        <ele>340.6</ele>
        <time>2024-04-07T09:25:07Z</time>
      </trkpt>
      <trkpt lat="44.10026" lon="1.94571">
        <ele>340.6</ele>
        <time>2024-04-07T09:25:08Z</time>
      </trkpt>
      <trkpt lat="44.10025" lon="1.94577">
        <ele>340.6</ele>
        <time>2024-04-07T09:25:09Z</time>
      </trkpt>
      <trkpt lat="44.10024" lon="1.94584">
        <ele>340.6</ele>
        <time>2024-04-07T09:25:10Z</time>
      </trkpt>
      <trkpt lat="44.10023" lon="1.94589">
        <ele>340.6</ele>
        <time>2024-04-07T09:25:11Z</time>
      </trkpt>
      <trkpt lat="44.10023" lon="1.94595">
        <ele>340.6</ele>
        <time>2024-04-07T09:25:12Z</time>
      </trkpt>
      <trkpt lat="44.10022" lon="1.94601">
        <ele>340.6</ele>
        <time>2024-04-07T09:25:13Z</time>
      </trkpt>
      <trkpt lat="44.10022" lon="1.94608">
        <ele>340.6</ele>
        <time>2024-04-07T09:25:14Z</time>
      </trkpt>
      <trkpt lat="44.10021" lon="1.94614">
        <ele>340.6</ele>
        <time>2024-04-07T09:25:15Z</time>
      </trkpt>
      <trkpt lat="44.1002" lon="1.94619">
        <ele>340.8</ele>
        <time>2024-04-07T09:25:16Z</time>
      </trkpt>
      <trkpt lat="44.1002" lon="1.94625">
        <ele>340.8</ele>
        <time>2024-04-07T09:25:17Z</time>
      </trkpt>
      <trkpt lat="44.10019" lon="1.94637">
        <ele>341</ele>
        <time>2024-04-07T09:25:19Z</time>
      </trkpt>
      <trkpt lat="44.10018" lon="1.94645">
        <ele>341.2</ele>
        <time>2024-04-07T09:25:20Z</time>
      </trkpt>
      <trkpt lat="44.10017" lon="1.9465">
        <ele>341.4</ele>
        <time>2024-04-07T09:25:21Z</time>
      </trkpt>
      <trkpt lat="44.10016" lon="1.94662">
        <ele>341.8</ele>
        <time>2024-04-07T09:25:23Z</time>
      </trkpt>
      <trkpt lat="44.10016" lon="1.94669">
        <ele>342</ele>
        <time>2024-04-07T09:25:24Z</time>
      </trkpt>
      <trkpt lat="44.10015" lon="1.94676">
        <ele>342.2</ele>
        <time>2024-04-07T09:25:25Z</time>
      </trkpt>
      <trkpt lat="44.10014" lon="1.94682">
        <ele>342.2</ele>
        <time>2024-04-07T09:25:26Z</time>
      </trkpt>
      <trkpt lat="44.10014" lon="1.94688">
        <ele>342.2</ele>
        <time>2024-04-07T09:25:27Z</time>
      </trkpt>
      <trkpt lat="44.10013" lon="1.94695">
        <ele>342.2</ele>
        <time>2024-04-07T09:25:28Z</time>
      </trkpt>
      <trkpt lat="44.10012" lon="1.94709">
        <ele>342.2</ele>
        <time>2024-04-07T09:25:30Z</time>
      </trkpt>
      <trkpt lat="44.10011" lon="1.94715">
        <ele>342.2</ele>
        <time>2024-04-07T09:25:31Z</time>
      </trkpt>
      <trkpt lat="44.10011" lon="1.94721">
        <ele>342.2</ele>
        <time>2024-04-07T09:25:32Z</time>
      </trkpt>
      <trkpt lat="44.1001" lon="1.94728">
        <ele>342</ele>
        <time>2024-04-07T09:25:33Z</time>
      </trkpt>
      <trkpt lat="44.10009" lon="1.94741">
        <ele>342.2</ele>
        <time>2024-04-07T09:25:35Z</time>
      </trkpt>
      <trkpt lat="44.10009" lon="1.94747">
        <ele>342</ele>
        <time>2024-04-07T09:25:36Z</time>
      </trkpt>
      <trkpt lat="44.10008" lon="1.94754">
        <ele>342</ele>
        <time>2024-04-07T09:25:37Z</time>
      </trkpt>
      <trkpt lat="44.10007" lon="1.94771">
        <ele>341.8</ele>
        <time>2024-04-07T09:25:39Z</time>
      </trkpt>
      <trkpt lat="44.10006" lon="1.9478">
        <ele>341.8</ele>
        <time>2024-04-07T09:25:40Z</time>
      </trkpt>
      <trkpt lat="44.10004" lon="1.94797">
        <ele>341.4</ele>
        <time>2024-04-07T09:25:42Z</time>
      </trkpt>
      <trkpt lat="44.10003" lon="1.94807">
        <ele>341.2</ele>
        <time>2024-04-07T09:25:43Z</time>
      </trkpt>
      <trkpt lat="44.10001" lon="1.94827">
        <ele>340.6</ele>
        <time>2024-04-07T09:25:45Z</time>
      </trkpt>
      <trkpt lat="44.1" lon="1.94837">
        <ele>340.4</ele>
        <time>2024-04-07T09:25:46Z</time>
      </trkpt>
      <trkpt lat="44.09999" lon="1.94846">
        <ele>340.4</ele>
        <time>2024-04-07T09:25:47Z</time>
      </trkpt>
      <trkpt lat="44.09998" lon="1.94855">
        <ele>340.2</ele>
        <time>2024-04-07T09:25:48Z</time>
      </trkpt>
      <trkpt lat="44.09997" lon="1.94864">
        <ele>340.2</ele>
        <time>2024-04-07T09:25:49Z</time>
      </trkpt>
      <trkpt lat="44.09995" lon="1.94883">
        <ele>339.8</ele>
        <time>2024-04-07T09:25:51Z</time>
      </trkpt>
      <trkpt lat="44.09993" lon="1.94889">
        <ele>339.6</ele>
        <time>2024-04-07T09:25:52Z</time>
      </trkpt>
      <trkpt lat="44.09991" lon="1.94897">
        <ele>339.2</ele>
        <time>2024-04-07T09:25:53Z</time>
      </trkpt>
      <trkpt lat="44.0999" lon="1.94906">
        <ele>339.2</ele>
        <time>2024-04-07T09:25:54Z</time>
      </trkpt>
      <trkpt lat="44.0999" lon="1.94914">
        <ele>339</ele>
        <time>2024-04-07T09:25:55Z</time>
      </trkpt>
      <trkpt lat="44.09992" lon="1.94924">
        <ele>339</ele>
        <time>2024-04-07T09:25:56Z</time>
      </trkpt>
      <trkpt lat="44.09994" lon="1.94932">
        <ele>339</ele>
        <time>2024-04-07T09:25:57Z</time>
      </trkpt>
      <trkpt lat="44.09996" lon="1.94938">
        <ele>338.8</ele>
        <time>2024-04-07T09:25:58Z</time>
      </trkpt>
      <trkpt lat="44.09998" lon="1.94946">
        <ele>338.8</ele>
        <time>2024-04-07T09:25:59Z</time>
      </trkpt>
      <trkpt lat="44.10001" lon="1.94955">
        <ele>338.8</ele>
        <time>2024-04-07T09:26:00Z</time>
      </trkpt>
      <trkpt lat="44.10004" lon="1.94963">
        <ele>338.8</ele>
        <time>2024-04-07T09:26:01Z</time>
      </trkpt>
      <trkpt lat="44.10006" lon="1.9497">
        <ele>338.6</ele>
        <time>2024-04-07T09:26:02Z</time>
      </trkpt>
      <trkpt lat="44.10011" lon="1.94984">
        <ele>338.6</ele>
        <time>2024-04-07T09:26:04Z</time>
      </trkpt>
      <trkpt lat="44.10013" lon="1.94991">
        <ele>338.4</ele>
        <time>2024-04-07T09:26:05Z</time>
      </trkpt>
      <trkpt lat="44.10015" lon="1.94998">
        <ele>338.4</ele>
        <time>2024-04-07T09:26:06Z</time>
      </trkpt>
      <trkpt lat="44.10018" lon="1.95003">
        <ele>338.4</ele>
        <time>2024-04-07T09:26:07Z</time>
      </trkpt>
      <trkpt lat="44.1002" lon="1.95006">
        <ele>338.4</ele>
        <time>2024-04-07T09:26:08Z</time>
      </trkpt>
      <trkpt lat="44.10024" lon="1.95007">
        <ele>338.4</ele>
        <time>2024-04-07T09:26:09Z</time>
      </trkpt>
      <trkpt lat="44.10026" lon="1.95005">
        <ele>338.4</ele>
        <time>2024-04-07T09:26:10Z</time>
      </trkpt>
      <trkpt lat="44.1003" lon="1.95001">
        <ele>338.2</ele>
        <time>2024-04-07T09:26:11Z</time>
      </trkpt>
      <trkpt lat="44.10033" lon="1.94998">
        <ele>338.2</ele>
        <time>2024-04-07T09:26:12Z</time>
      </trkpt>
      <trkpt lat="44.10036" lon="1.94994">
        <ele>338.2</ele>
        <time>2024-04-07T09:26:13Z</time>
      </trkpt>
      <trkpt lat="44.10039" lon="1.94991">
        <ele>338</ele>
        <time>2024-04-07T09:26:14Z</time>
      </trkpt>
      <trkpt lat="44.10043" lon="1.94987">
        <ele>338</ele>
        <time>2024-04-07T09:26:15Z</time>
      </trkpt>
      <trkpt lat="44.10047" lon="1.94983">
        <ele>338</ele>
        <time>2024-04-07T09:26:16Z</time>
      </trkpt>
      <trkpt lat="44.10051" lon="1.94979">
        <ele>338</ele>
        <time>2024-04-07T09:26:17Z</time>
      </trkpt>
      <trkpt lat="44.10055" lon="1.94975">
        <ele>338</ele>
        <time>2024-04-07T09:26:18Z</time>
      </trkpt>
      <trkpt lat="44.10059" lon="1.94972">
        <ele>338</ele>
        <time>2024-04-07T09:26:19Z</time>
      </trkpt>
      <trkpt lat="44.10063" lon="1.94969">
        <ele>338.2</ele>
        <time>2024-04-07T09:26:20Z</time>
      </trkpt>
      <trkpt lat="44.10068" lon="1.94966">
        <ele>338.2</ele>
        <time>2024-04-07T09:26:21Z</time>
      </trkpt>
      <trkpt lat="44.10074" lon="1.94964">
        <ele>338.4</ele>
        <time>2024-04-07T09:26:22Z</time>
      </trkpt>
      <trkpt lat="44.1008" lon="1.94963">
        <ele>338.8</ele>
        <time>2024-04-07T09:26:23Z</time>
      </trkpt>
      <trkpt lat="44.10086" lon="1.94963">
        <ele>338.8</ele>
        <time>2024-04-07T09:26:24Z</time>
      </trkpt>
      <trkpt lat="44.1009" lon="1.94964">
        <ele>338.8</ele>
        <time>2024-04-07T09:26:25Z</time>
      </trkpt>
      <trkpt lat="44.10097" lon="1.94965">
        <ele>338.8</ele>
        <time>2024-04-07T09:26:26Z</time>
      </trkpt>
      <trkpt lat="44.10104" lon="1.94967">
        <ele>338.8</ele>
        <time>2024-04-07T09:26:27Z</time>
      </trkpt>
      <trkpt lat="44.1011" lon="1.94968">
        <ele>338.8</ele>
        <time>2024-04-07T09:26:28Z</time>
      </trkpt>
      <trkpt lat="44.10121" lon="1.94971">
        <ele>338.4</ele>
        <time>2024-04-07T09:26:30Z</time>
      </trkpt>
      <trkpt lat="44.10129" lon="1.94973">
        <ele>338.4</ele>
        <time>2024-04-07T09:26:31Z</time>
      </trkpt>
      <trkpt lat="44.10143" lon="1.94976">
        <ele>338</ele>
        <time>2024-04-07T09:26:33Z</time>
      </trkpt>
      <trkpt lat="44.10151" lon="1.94977">
        <ele>337.6</ele>
        <time>2024-04-07T09:26:34Z</time>
      </trkpt>
      <trkpt lat="44.10164" lon="1.94978">
        <ele>337</ele>
        <time>2024-04-07T09:26:36Z</time>
      </trkpt>
      <trkpt lat="44.10172" lon="1.94978">
        <ele>336.6</ele>
        <time>2024-04-07T09:26:37Z</time>
      </trkpt>
      <trkpt lat="44.1018" lon="1.94977">
        <ele>336</ele>
        <time>2024-04-07T09:26:38Z</time>
      </trkpt>
      <trkpt lat="44.10186" lon="1.94976">
        <ele>335.6</ele>
        <time>2024-04-07T09:26:39Z</time>
      </trkpt>
      <trkpt lat="44.1019" lon="1.94976">
        <ele>335.4</ele>
        <time>2024-04-07T09:26:40Z</time>
      </trkpt>
      <trkpt lat="44.10192" lon="1.94977">
        <ele>334.6</ele>
        <time>2024-04-07T09:26:41Z</time>
      </trkpt>
      <trkpt lat="44.10194" lon="1.94979">
        <ele>334.4</ele>
        <time>2024-04-07T09:26:42Z</time>
      </trkpt>
      <trkpt lat="44.10194" lon="1.94983">
        <ele>334</ele>
        <time>2024-04-07T09:26:43Z</time>
      </trkpt>
      <trkpt lat="44.10193" lon="1.94988">
        <ele>334</ele>
        <time>2024-04-07T09:26:44Z</time>
      </trkpt>
      <trkpt lat="44.10192" lon="1.94995">
        <ele>333.6</ele>
        <time>2024-04-07T09:26:45Z</time>
      </trkpt>
      <trkpt lat="44.10191" lon="1.95">
        <ele>333</ele>
        <time>2024-04-07T09:26:46Z</time>
      </trkpt>
      <trkpt lat="44.10189" lon="1.95015">
        <ele>332.2</ele>
        <time>2024-04-07T09:26:48Z</time>
      </trkpt>
      <trkpt lat="44.10187" lon="1.95025">
        <ele>332</ele>
        <time>2024-04-07T09:26:49Z</time>
      </trkpt>
      <trkpt lat="44.10185" lon="1.95034">
        <ele>331.8</ele>
        <time>2024-04-07T09:26:50Z</time>
      </trkpt>
      <trkpt lat="44.10184" lon="1.95041">
        <ele>331.6</ele>
        <time>2024-04-07T09:26:51Z</time>
      </trkpt>
      <trkpt lat="44.10183" lon="1.9505">
        <ele>331.6</ele>
        <time>2024-04-07T09:26:52Z</time>
      </trkpt>
      <trkpt lat="44.10182" lon="1.95061">
        <ele>331.4</ele>
        <time>2024-04-07T09:26:53Z</time>
      </trkpt>
      <trkpt lat="44.1018" lon="1.9507">
        <ele>331.4</ele>
        <time>2024-04-07T09:26:54Z</time>
      </trkpt>
      <trkpt lat="44.10179" lon="1.95079">
        <ele>331.4</ele>
        <time>2024-04-07T09:26:55Z</time>
      </trkpt>
      <trkpt lat="44.10176" lon="1.95096">
        <ele>331.2</ele>
        <time>2024-04-07T09:26:57Z</time>
      </trkpt>
      <trkpt lat="44.10175" lon="1.95105">
        <ele>331.2</ele>
        <time>2024-04-07T09:26:58Z</time>
      </trkpt>
      <trkpt lat="44.10174" lon="1.95115">
        <ele>331.2</ele>
        <time>2024-04-07T09:26:59Z</time>
      </trkpt>
      <trkpt lat="44.10172" lon="1.95125">
        <ele>331</ele>
        <time>2024-04-07T09:27:00Z</time>
      </trkpt>
      <trkpt lat="44.10172" lon="1.95134">
        <ele>331</ele>
        <time>2024-04-07T09:27:01Z</time>
      </trkpt>
      <trkpt lat="44.1017" lon="1.9515">
        <ele>330.6</ele>
        <time>2024-04-07T09:27:03Z</time>
      </trkpt>
      <trkpt lat="44.10168" lon="1.95161">
        <ele>330.6</ele>
        <time>2024-04-07T09:27:04Z</time>
      </trkpt>
      <trkpt lat="44.10167" lon="1.95172">
        <ele>330.6</ele>
        <time>2024-04-07T09:27:05Z</time>
      </trkpt>
      <trkpt lat="44.10168" lon="1.95185">
        <ele>330.2</ele>
        <time>2024-04-07T09:27:06Z</time>
      </trkpt>
      <trkpt lat="44.10166" lon="1.95209">
        <ele>329.2</ele>
        <time>2024-04-07T09:27:08Z</time>
      </trkpt>
      <trkpt lat="44.10163" lon="1.95218">
        <ele>328.8</ele>
        <time>2024-04-07T09:27:09Z</time>
      </trkpt>
      <trkpt lat="44.10159" lon="1.95227">
        <ele>328.4</ele>
        <time>2024-04-07T09:27:10Z</time>
      </trkpt>
      <trkpt lat="44.10155" lon="1.95234">
        <ele>327.6</ele>
        <time>2024-04-07T09:27:11Z</time>
      </trkpt>
      <trkpt lat="44.10152" lon="1.9524">
        <ele>327.6</ele>
        <time>2024-04-07T09:27:12Z</time>
      </trkpt>
      <trkpt lat="44.1015" lon="1.95245">
        <ele>327.4</ele>
        <time>2024-04-07T09:27:13Z</time>
      </trkpt>
      <trkpt lat="44.10147" lon="1.95249">
        <ele>327.4</ele>
        <time>2024-04-07T09:27:14Z</time>
      </trkpt>
      <trkpt lat="44.10144" lon="1.95253">
        <ele>327.2</ele>
        <time>2024-04-07T09:27:15Z</time>
      </trkpt>
      <trkpt lat="44.10141" lon="1.95257">
        <ele>327.2</ele>
        <time>2024-04-07T09:27:16Z</time>
      </trkpt>
      <trkpt lat="44.10138" lon="1.95261">
        <ele>327.4</ele>
        <time>2024-04-07T09:27:17Z</time>
      </trkpt>
      <trkpt lat="44.10136" lon="1.95264">
        <ele>327.4</ele>
        <time>2024-04-07T09:27:18Z</time>
      </trkpt>
      <trkpt lat="44.10134" lon="1.95267">
        <ele>328</ele>
        <time>2024-04-07T09:27:19Z</time>
      </trkpt>
      <trkpt lat="44.10132" lon="1.95272">
        <ele>328.6</ele>
        <time>2024-04-07T09:27:20Z</time>
      </trkpt>
      <trkpt lat="44.10131" lon="1.95275">
        <ele>329</ele>
        <time>2024-04-07T09:27:21Z</time>
      </trkpt>
      <trkpt lat="44.1013" lon="1.95279">
        <ele>329.6</ele>
        <time>2024-04-07T09:27:22Z</time>
      </trkpt>
      <trkpt lat="44.10129" lon="1.95283">
        <ele>330.2</ele>
        <time>2024-04-07T09:27:23Z</time>
      </trkpt>
      <trkpt lat="44.10128" lon="1.95287">
        <ele>330.6</ele>
        <time>2024-04-07T09:27:24Z</time>
      </trkpt>
      <trkpt lat="44.10126" lon="1.95292">
        <ele>330.8</ele>
        <time>2024-04-07T09:27:25Z</time>
      </trkpt>
      <trkpt lat="44.10124" lon="1.95298">
        <ele>331.2</ele>
        <time>2024-04-07T09:27:26Z</time>
      </trkpt>
      <trkpt lat="44.10122" lon="1.95303">
        <ele>331.4</ele>
        <time>2024-04-07T09:27:27Z</time>
      </trkpt>
      <trkpt lat="44.10121" lon="1.9531">
        <ele>331.6</ele>
        <time>2024-04-07T09:27:28Z</time>
      </trkpt>
      <trkpt lat="44.10119" lon="1.95324">
        <ele>331.6</ele>
        <time>2024-04-07T09:27:30Z</time>
      </trkpt>
      <trkpt lat="44.10117" lon="1.95332">
        <ele>331.8</ele>
        <time>2024-04-07T09:27:31Z</time>
      </trkpt>
      <trkpt lat="44.10115" lon="1.95338">
        <ele>331.8</ele>
        <time>2024-04-07T09:27:32Z</time>
      </trkpt>
      <trkpt lat="44.10113" lon="1.95345">
        <ele>331.8</ele>
        <time>2024-04-07T09:27:33Z</time>
      </trkpt>
      <trkpt lat="44.10111" lon="1.95352">
        <ele>331.8</ele>
        <time>2024-04-07T09:27:34Z</time>
      </trkpt>
      <trkpt lat="44.1011" lon="1.95357">
        <ele>331.6</ele>
        <time>2024-04-07T09:27:35Z</time>
      </trkpt>
      <trkpt lat="44.10108" lon="1.95364">
        <ele>331.4</ele>
        <time>2024-04-07T09:27:36Z</time>
      </trkpt>
      <trkpt lat="44.10106" lon="1.95371">
        <ele>331.4</ele>
        <time>2024-04-07T09:27:37Z</time>
      </trkpt>
      <trkpt lat="44.10103" lon="1.95378">
        <ele>331.2</ele>
        <time>2024-04-07T09:27:38Z</time>
      </trkpt>
      <trkpt lat="44.10102" lon="1.95383">
        <ele>331</ele>
        <time>2024-04-07T09:27:39Z</time>
      </trkpt>
      <trkpt lat="44.101" lon="1.95389">
        <ele>331</ele>
        <time>2024-04-07T09:27:40Z</time>
      </trkpt>
      <trkpt lat="44.10098" lon="1.95396">
        <ele>331</ele>
        <time>2024-04-07T09:27:41Z</time>
      </trkpt>
      <trkpt lat="44.10096" lon="1.95403">
        <ele>331</ele>
        <time>2024-04-07T09:27:42Z</time>
      </trkpt>
      <trkpt lat="44.10094" lon="1.95409">
        <ele>330.8</ele>
        <time>2024-04-07T09:27:43Z</time>
      </trkpt>
      <trkpt lat="44.10093" lon="1.95414">
        <ele>330.8</ele>
        <time>2024-04-07T09:27:44Z</time>
      </trkpt>
      <trkpt lat="44.10091" lon="1.95419">
        <ele>330.8</ele>
        <time>2024-04-07T09:27:45Z</time>
      </trkpt>
      <trkpt lat="44.10089" lon="1.95424">
        <ele>330.8</ele>
        <time>2024-04-07T09:27:46Z</time>
      </trkpt>
      <trkpt lat="44.10088" lon="1.9543">
        <ele>330.8</ele>
        <time>2024-04-07T09:27:47Z</time>
      </trkpt>
      <trkpt lat="44.10087" lon="1.95436">
        <ele>330.8</ele>
        <time>2024-04-07T09:27:48Z</time>
      </trkpt>
      <trkpt lat="44.10086" lon="1.95442">
        <ele>330.8</ele>
        <time>2024-04-07T09:27:49Z</time>
      </trkpt>
      <trkpt lat="44.10086" lon="1.95447">
        <ele>331</ele>
        <time>2024-04-07T09:27:50Z</time>
      </trkpt>
      <trkpt lat="44.10084" lon="1.95454">
        <ele>331</ele>
        <time>2024-04-07T09:27:51Z</time>
      </trkpt>
      <trkpt lat="44.10085" lon="1.95461">
        <ele>331</ele>
        <time>2024-04-07T09:27:52Z</time>
      </trkpt>
      <trkpt lat="44.10084" lon="1.95467">
        <ele>331.2</ele>
        <time>2024-04-07T09:27:53Z</time>
      </trkpt>
      <trkpt lat="44.10083" lon="1.95473">
        <ele>331.4</ele>
        <time>2024-04-07T09:27:54Z</time>
      </trkpt>
      <trkpt lat="44.10081" lon="1.95479">
        <ele>331.4</ele>
        <time>2024-04-07T09:27:55Z</time>
      </trkpt>
      <trkpt lat="44.1008" lon="1.95483">
        <ele>331.6</ele>
        <time>2024-04-07T09:27:56Z</time>
      </trkpt>
      <trkpt lat="44.10077" lon="1.9549">
        <ele>331.6</ele>
        <time>2024-04-07T09:27:57Z</time>
      </trkpt>
      <trkpt lat="44.10076" lon="1.95495">
        <ele>331.8</ele>
        <time>2024-04-07T09:27:58Z</time>
      </trkpt>
      <trkpt lat="44.10075" lon="1.955">
        <ele>332</ele>
        <time>2024-04-07T09:27:59Z</time>
      </trkpt>
      <trkpt lat="44.10074" lon="1.95504">
        <ele>332.2</ele>
        <time>2024-04-07T09:28:00Z</time>
      </trkpt>
      <trkpt lat="44.10071" lon="1.95509">
        <ele>332.2</ele>
        <time>2024-04-07T09:28:01Z</time>
      </trkpt>
      <trkpt lat="44.10068" lon="1.95513">
        <ele>332.4</ele>
        <time>2024-04-07T09:28:02Z</time>
      </trkpt>
      <trkpt lat="44.10064" lon="1.95519">
        <ele>332.6</ele>
        <time>2024-04-07T09:28:03Z</time>
      </trkpt>
      <trkpt lat="44.10062" lon="1.95524">
        <ele>332.6</ele>
        <time>2024-04-07T09:28:04Z</time>
      </trkpt>
      <trkpt lat="44.10056" lon="1.95533">
        <ele>332.8</ele>
        <time>2024-04-07T09:28:06Z</time>
      </trkpt>
      <trkpt lat="44.10052" lon="1.95536">
        <ele>332.8</ele>
        <time>2024-04-07T09:28:07Z</time>
      </trkpt>
      <trkpt lat="44.10048" lon="1.95541">
        <ele>332.8</ele>
        <time>2024-04-07T09:28:08Z</time>
      </trkpt>
      <trkpt lat="44.10044" lon="1.95544">
        <ele>332.8</ele>
        <time>2024-04-07T09:28:09Z</time>
      </trkpt>
      <trkpt lat="44.10041" lon="1.95546">
        <ele>332.8</ele>
        <time>2024-04-07T09:28:10Z</time>
      </trkpt>
      <trkpt lat="44.10037" lon="1.95549">
        <ele>332.8</ele>
        <time>2024-04-07T09:28:11Z</time>
      </trkpt>
      <trkpt lat="44.10033" lon="1.95553">
        <ele>332.8</ele>
        <time>2024-04-07T09:28:12Z</time>
      </trkpt>
      <trkpt lat="44.10024" lon="1.95562">
        <ele>332.8</ele>
        <time>2024-04-07T09:28:14Z</time>
      </trkpt>
      <trkpt lat="44.10021" lon="1.95565">
        <ele>332.8</ele>
        <time>2024-04-07T09:28:15Z</time>
      </trkpt>
      <trkpt lat="44.10018" lon="1.95568">
        <ele>332.8</ele>
        <time>2024-04-07T09:28:16Z</time>
      </trkpt>
      <trkpt lat="44.10016" lon="1.95571">
        <ele>332.8</ele>
        <time>2024-04-07T09:28:17Z</time>
      </trkpt>
      <trkpt lat="44.10011" lon="1.95574">
        <ele>332.6</ele>
        <time>2024-04-07T09:28:18Z</time>
      </trkpt>
      <trkpt lat="44.10008" lon="1.95577">
        <ele>332.6</ele>
        <time>2024-04-07T09:28:19Z</time>
      </trkpt>
      <trkpt lat="44.10005" lon="1.95581">
        <ele>332.4</ele>
        <time>2024-04-07T09:28:20Z</time>
      </trkpt>
      <trkpt lat="44.10003" lon="1.95583">
        <ele>332.2</ele>
        <time>2024-04-07T09:28:21Z</time>
      </trkpt>
      <trkpt lat="44.09998" lon="1.95586">
        <ele>332.2</ele>
        <time>2024-04-07T09:28:22Z</time>
      </trkpt>
      <trkpt lat="44.09994" lon="1.95589">
        <ele>332.2</ele>
        <time>2024-04-07T09:28:23Z</time>
      </trkpt>
      <trkpt lat="44.0999" lon="1.95594">
        <ele>332.2</ele>
        <time>2024-04-07T09:28:24Z</time>
      </trkpt>
      <trkpt lat="44.09986" lon="1.95598">
        <ele>332</ele>
        <time>2024-04-07T09:28:25Z</time>
      </trkpt>
      <trkpt lat="44.09982" lon="1.95603">
        <ele>332</ele>
        <time>2024-04-07T09:28:26Z</time>
      </trkpt>
      <trkpt lat="44.09979" lon="1.95607">
        <ele>332</ele>
        <time>2024-04-07T09:28:27Z</time>
      </trkpt>
      <trkpt lat="44.09976" lon="1.95612">
        <ele>332.2</ele>
        <time>2024-04-07T09:28:28Z</time>
      </trkpt>
      <trkpt lat="44.09974" lon="1.95616">
        <ele>332.2</ele>
        <time>2024-04-07T09:28:29Z</time>
      </trkpt>
      <trkpt lat="44.09973" lon="1.95619">
        <ele>332</ele>
        <time>2024-04-07T09:28:30Z</time>
      </trkpt>
      <trkpt lat="44.09973" lon="1.95622">
        <ele>332</ele>
        <time>2024-04-07T09:28:31Z</time>
      </trkpt>
      <trkpt lat="44.09972" lon="1.95626">
        <ele>331.8</ele>
        <time>2024-04-07T09:28:32Z</time>
      </trkpt>
      <trkpt lat="44.09971" lon="1.95631">
        <ele>331.8</ele>
        <time>2024-04-07T09:28:33Z</time>
      </trkpt>
      <trkpt lat="44.0997" lon="1.95637">
        <ele>331.6</ele>
        <time>2024-04-07T09:28:34Z</time>
      </trkpt>
      <trkpt lat="44.09968" lon="1.9564">
        <ele>331.6</ele>
        <time>2024-04-07T09:28:35Z</time>
      </trkpt>
      <trkpt lat="44.09966" lon="1.95642">
        <ele>331.4</ele>
        <time>2024-04-07T09:28:36Z</time>
      </trkpt>
      <trkpt lat="44.09963" lon="1.95644">
        <ele>331.2</ele>
        <time>2024-04-07T09:28:37Z</time>
      </trkpt>
      <trkpt lat="44.09959" lon="1.95646">
        <ele>331</ele>
        <time>2024-04-07T09:28:38Z</time>
      </trkpt>
      <trkpt lat="44.09958" lon="1.9565">
        <ele>330.2</ele>
        <time>2024-04-07T09:28:39Z</time>
      </trkpt>
      <trkpt lat="44.09957" lon="1.95651">
        <ele>330</ele>
        <time>2024-04-07T09:28:40Z</time>
      </trkpt>
      <trkpt lat="44.09957" lon="1.95651">
        <ele>329.8</ele>
        <time>2024-04-07T09:28:41Z</time>
      </trkpt>
      <trkpt lat="44.09955" lon="1.95653">
        <ele>329.6</ele>
        <time>2024-04-07T09:28:42Z</time>
      </trkpt>
      <trkpt lat="44.09955" lon="1.95654">
        <ele>329.4</ele>
        <time>2024-04-07T09:28:43Z</time>
      </trkpt>
      <trkpt lat="44.09953" lon="1.95655">
        <ele>329.4</ele>
        <time>2024-04-07T09:28:44Z</time>
      </trkpt>
      <trkpt lat="44.09951" lon="1.95657">
        <ele>329.4</ele>
        <time>2024-04-07T09:28:45Z</time>
      </trkpt>
      <trkpt lat="44.09947" lon="1.95659">
        <ele>329.4</ele>
        <time>2024-04-07T09:28:47Z</time>
      </trkpt>
      <trkpt lat="44.09945" lon="1.95661">
        <ele>329.6</ele>
        <time>2024-04-07T09:28:48Z</time>
      </trkpt>
      <trkpt lat="44.09943" lon="1.95662">
        <ele>329.6</ele>
        <time>2024-04-07T09:28:49Z</time>
      </trkpt>
      <trkpt lat="44.09941" lon="1.95664">
        <ele>329.8</ele>
        <time>2024-04-07T09:28:50Z</time>
      </trkpt>
      <trkpt lat="44.09939" lon="1.95666">
        <ele>329.8</ele>
        <time>2024-04-07T09:28:51Z</time>
      </trkpt>
      <trkpt lat="44.09935" lon="1.95668">
        <ele>330.2</ele>
        <time>2024-04-07T09:28:53Z</time>
      </trkpt>
      <trkpt lat="44.09933" lon="1.95671">
        <ele>330.4</ele>
        <time>2024-04-07T09:28:54Z</time>
      </trkpt>
      <trkpt lat="44.09931" lon="1.95674">
        <ele>330.6</ele>
        <time>2024-04-07T09:28:55Z</time>
      </trkpt>
      <trkpt lat="44.09928" lon="1.95678">
        <ele>330.8</ele>
        <time>2024-04-07T09:28:56Z</time>
      </trkpt>
      <trkpt lat="44.09925" lon="1.95683">
        <ele>331</ele>
        <time>2024-04-07T09:28:57Z</time>
      </trkpt>
      <trkpt lat="44.09921" lon="1.95688">
        <ele>331</ele>
        <time>2024-04-07T09:28:58Z</time>
      </trkpt>
      <trkpt lat="44.09917" lon="1.95692">
        <ele>331.4</ele>
        <time>2024-04-07T09:28:59Z</time>
      </trkpt>
      <trkpt lat="44.09914" lon="1.95696">
        <ele>331.4</ele>
        <time>2024-04-07T09:29:00Z</time>
      </trkpt>
      <trkpt lat="44.09912" lon="1.95699">
        <ele>331.6</ele>
        <time>2024-04-07T09:29:01Z</time>
      </trkpt>
      <trkpt lat="44.09909" lon="1.95705">
        <ele>331.6</ele>
        <time>2024-04-07T09:29:02Z</time>
      </trkpt>
      <trkpt lat="44.09907" lon="1.95709">
        <ele>331.6</ele>
        <time>2024-04-07T09:29:03Z</time>
      </trkpt>
      <trkpt lat="44.09905" lon="1.95711">
        <ele>331.6</ele>
        <time>2024-04-07T09:29:04Z</time>
      </trkpt>
      <trkpt lat="44.09904" lon="1.95715">
        <ele>331.6</ele>
        <time>2024-04-07T09:29:05Z</time>
      </trkpt>
      <trkpt lat="44.09901" lon="1.9572">
        <ele>331.8</ele>
        <time>2024-04-07T09:29:06Z</time>
      </trkpt>
      <trkpt lat="44.09898" lon="1.95725">
        <ele>331.8</ele>
        <time>2024-04-07T09:29:07Z</time>
      </trkpt>
      <trkpt lat="44.09896" lon="1.9573">
        <ele>332</ele>
        <time>2024-04-07T09:29:08Z</time>
      </trkpt>
      <trkpt lat="44.09893" lon="1.95735">
        <ele>332.2</ele>
        <time>2024-04-07T09:29:09Z</time>
      </trkpt>
      <trkpt lat="44.0989" lon="1.9574">
        <ele>332.2</ele>
        <time>2024-04-07T09:29:10Z</time>
      </trkpt>
      <trkpt lat="44.09887" lon="1.95744">
        <ele>332.2</ele>
        <time>2024-04-07T09:29:11Z</time>
      </trkpt>
      <trkpt lat="44.09884" lon="1.95747">
        <ele>332.2</ele>
        <time>2024-04-07T09:29:12Z</time>
      </trkpt>
      <trkpt lat="44.0988" lon="1.9575">
        <ele>332.4</ele>
        <time>2024-04-07T09:29:13Z</time>
      </trkpt>
      <trkpt lat="44.09877" lon="1.95753">
        <ele>332.4</ele>
        <time>2024-04-07T09:29:14Z</time>
      </trkpt>
      <trkpt lat="44.09872" lon="1.95758">
        <ele>332.4</ele>
        <time>2024-04-07T09:29:15Z</time>
      </trkpt>
      <trkpt lat="44.09868" lon="1.95763">
        <ele>332.4</ele>
        <time>2024-04-07T09:29:16Z</time>
      </trkpt>
      <trkpt lat="44.09864" lon="1.95767">
        <ele>332.6</ele>
        <time>2024-04-07T09:29:17Z</time>
      </trkpt>
      <trkpt lat="44.0986" lon="1.95771">
        <ele>332.6</ele>
        <time>2024-04-07T09:29:18Z</time>
      </trkpt>
      <trkpt lat="44.09857" lon="1.95775">
        <ele>332.6</ele>
        <time>2024-04-07T09:29:19Z</time>
      </trkpt>
      <trkpt lat="44.09853" lon="1.95779">
        <ele>332.6</ele>
        <time>2024-04-07T09:29:20Z</time>
      </trkpt>
      <trkpt lat="44.09848" lon="1.95785">
        <ele>332.6</ele>
        <time>2024-04-07T09:29:21Z</time>
      </trkpt>
      <trkpt lat="44.09844" lon="1.95789">
        <ele>332.6</ele>
        <time>2024-04-07T09:29:22Z</time>
      </trkpt>
      <trkpt lat="44.09841" lon="1.95793">
        <ele>332.6</ele>
        <time>2024-04-07T09:29:23Z</time>
      </trkpt>
      <trkpt lat="44.09838" lon="1.95797">
        <ele>332.6</ele>
        <time>2024-04-07T09:29:24Z</time>
      </trkpt>
      <trkpt lat="44.09835" lon="1.95802">
        <ele>332.6</ele>
        <time>2024-04-07T09:29:25Z</time>
      </trkpt>
      <trkpt lat="44.0983" lon="1.95808">
        <ele>332.6</ele>
        <time>2024-04-07T09:29:26Z</time>
      </trkpt>
      <trkpt lat="44.09827" lon="1.95813">
        <ele>332.6</ele>
        <time>2024-04-07T09:29:27Z</time>
      </trkpt>
      <trkpt lat="44.09824" lon="1.95818">
        <ele>332.6</ele>
        <time>2024-04-07T09:29:28Z</time>
      </trkpt>
      <trkpt lat="44.0982" lon="1.95823">
        <ele>332.6</ele>
        <time>2024-04-07T09:29:29Z</time>
      </trkpt>
      <trkpt lat="44.09817" lon="1.95828">
        <ele>332.6</ele>
        <time>2024-04-07T09:29:30Z</time>
      </trkpt>
      <trkpt lat="44.09813" lon="1.95833">
        <ele>332.6</ele>
        <time>2024-04-07T09:29:31Z</time>
      </trkpt>
      <trkpt lat="44.09807" lon="1.95845">
        <ele>332.6</ele>
        <time>2024-04-07T09:29:33Z</time>
      </trkpt>
      <trkpt lat="44.09805" lon="1.9585">
        <ele>332.6</ele>
        <time>2024-04-07T09:29:34Z</time>
      </trkpt>
      <trkpt lat="44.09802" lon="1.95857">
        <ele>332.6</ele>
        <time>2024-04-07T09:29:35Z</time>
      </trkpt>
      <trkpt lat="44.098" lon="1.95865">
        <ele>332.8</ele>
        <time>2024-04-07T09:29:36Z</time>
      </trkpt>
      <trkpt lat="44.09797" lon="1.95873">
        <ele>332.8</ele>
        <time>2024-04-07T09:29:37Z</time>
      </trkpt>
      <trkpt lat="44.09795" lon="1.95881">
        <ele>332.8</ele>
        <time>2024-04-07T09:29:38Z</time>
      </trkpt>
      <trkpt lat="44.09793" lon="1.95889">
        <ele>332.6</ele>
        <time>2024-04-07T09:29:39Z</time>
      </trkpt>
      <trkpt lat="44.0979" lon="1.95897">
        <ele>332.8</ele>
        <time>2024-04-07T09:29:40Z</time>
      </trkpt>
      <trkpt lat="44.09787" lon="1.95907">
        <ele>332.8</ele>
        <time>2024-04-07T09:29:41Z</time>
      </trkpt>
      <trkpt lat="44.09785" lon="1.95915">
        <ele>333</ele>
        <time>2024-04-07T09:29:42Z</time>
      </trkpt>
      <trkpt lat="44.09783" lon="1.95932">
        <ele>333</ele>
        <time>2024-04-07T09:29:44Z</time>
      </trkpt>
      <trkpt lat="44.09781" lon="1.95942">
        <ele>332.6</ele>
        <time>2024-04-07T09:29:45Z</time>
      </trkpt>
      <trkpt lat="44.0978" lon="1.95951">
        <ele>332.6</ele>
        <time>2024-04-07T09:29:46Z</time>
      </trkpt>
      <trkpt lat="44.09778" lon="1.9596">
        <ele>332.6</ele>
        <time>2024-04-07T09:29:47Z</time>
      </trkpt>
      <trkpt lat="44.09777" lon="1.9597">
        <ele>332.6</ele>
        <time>2024-04-07T09:29:48Z</time>
      </trkpt>
      <trkpt lat="44.09775" lon="1.95988">
        <ele>332.6</ele>
        <time>2024-04-07T09:29:50Z</time>
      </trkpt>
      <trkpt lat="44.09774" lon="1.95997">
        <ele>332.6</ele>
        <time>2024-04-07T09:29:51Z</time>
      </trkpt>
      <trkpt lat="44.09773" lon="1.96006">
        <ele>332.4</ele>
        <time>2024-04-07T09:29:52Z</time>
      </trkpt>
      <trkpt lat="44.09772" lon="1.96012">
        <ele>332.4</ele>
        <time>2024-04-07T09:29:53Z</time>
      </trkpt>
      <trkpt lat="44.09769" lon="1.96034">
        <ele>332.4</ele>
        <time>2024-04-07T09:29:55Z</time>
      </trkpt>
      <trkpt lat="44.09766" lon="1.96054">
        <ele>332.4</ele>
        <time>2024-04-07T09:29:57Z</time>
      </trkpt>
      <trkpt lat="44.09766" lon="1.96061">
        <ele>332.4</ele>
        <time>2024-04-07T09:29:58Z</time>
      </trkpt>
      <trkpt lat="44.09766" lon="1.96067">
        <ele>332.4</ele>
        <time>2024-04-07T09:29:59Z</time>
      </trkpt>
      <trkpt lat="44.09767" lon="1.96073">
        <ele>332.4</ele>
        <time>2024-04-07T09:30:00Z</time>
      </trkpt>
      <trkpt lat="44.09766" lon="1.96081">
        <ele>332.2</ele>
        <time>2024-04-07T09:30:01Z</time>
      </trkpt>
      <trkpt lat="44.09765" lon="1.96088">
        <ele>332.2</ele>
        <time>2024-04-07T09:30:02Z</time>
      </trkpt>
      <trkpt lat="44.09763" lon="1.96104">
        <ele>332</ele>
        <time>2024-04-07T09:30:04Z</time>
      </trkpt>
      <trkpt lat="44.09763" lon="1.96113">
        <ele>332</ele>
        <time>2024-04-07T09:30:05Z</time>
      </trkpt>
      <trkpt lat="44.09762" lon="1.96133">
        <ele>331.8</ele>
        <time>2024-04-07T09:30:07Z</time>
      </trkpt>
      <trkpt lat="44.09763" lon="1.96139">
        <ele>331.6</ele>
        <time>2024-04-07T09:30:08Z</time>
      </trkpt>
      <trkpt lat="44.09764" lon="1.96147">
        <ele>331.6</ele>
        <time>2024-04-07T09:30:09Z</time>
      </trkpt>
      <trkpt lat="44.09764" lon="1.96153">
        <ele>331.4</ele>
        <time>2024-04-07T09:30:10Z</time>
      </trkpt>
      <trkpt lat="44.09765" lon="1.96162">
        <ele>331.4</ele>
        <time>2024-04-07T09:30:11Z</time>
      </trkpt>
      <trkpt lat="44.09766" lon="1.9617">
        <ele>331.4</ele>
        <time>2024-04-07T09:30:12Z</time>
      </trkpt>
      <trkpt lat="44.09766" lon="1.96177">
        <ele>331.4</ele>
        <time>2024-04-07T09:30:13Z</time>
      </trkpt>
      <trkpt lat="44.09766" lon="1.96184">
        <ele>331.4</ele>
        <time>2024-04-07T09:30:14Z</time>
      </trkpt>
      <trkpt lat="44.09765" lon="1.96189">
        <ele>331.4</ele>
        <time>2024-04-07T09:30:15Z</time>
      </trkpt>
      <trkpt lat="44.09765" lon="1.96197">
        <ele>331.6</ele>
        <time>2024-04-07T09:30:16Z</time>
      </trkpt>
      <trkpt lat="44.09765" lon="1.96204">
        <ele>332</ele>
        <time>2024-04-07T09:30:17Z</time>
      </trkpt>
      <trkpt lat="44.09765" lon="1.9621">
        <ele>332</ele>
        <time>2024-04-07T09:30:18Z</time>
      </trkpt>
      <trkpt lat="44.09765" lon="1.96217">
        <ele>332.2</ele>
        <time>2024-04-07T09:30:19Z</time>
      </trkpt>
      <trkpt lat="44.09763" lon="1.96234">
        <ele>332.4</ele>
        <time>2024-04-07T09:30:21Z</time>
      </trkpt>
      <trkpt lat="44.09762" lon="1.9624">
        <ele>332.4</ele>
        <time>2024-04-07T09:30:22Z</time>
      </trkpt>
      <trkpt lat="44.0976" lon="1.96248">
        <ele>332.6</ele>
        <time>2024-04-07T09:30:23Z</time>
      </trkpt>
      <trkpt lat="44.09758" lon="1.96254">
        <ele>332.6</ele>
        <time>2024-04-07T09:30:24Z</time>
      </trkpt>
      <trkpt lat="44.09755" lon="1.96262">
        <ele>332.6</ele>
        <time>2024-04-07T09:30:25Z</time>
      </trkpt>
      <trkpt lat="44.09751" lon="1.96269">
        <ele>333</ele>
        <time>2024-04-07T09:30:26Z</time>
      </trkpt>
      <trkpt lat="44.09748" lon="1.96277">
        <ele>333.2</ele>
        <time>2024-04-07T09:30:27Z</time>
      </trkpt>
      <trkpt lat="44.09745" lon="1.96284">
        <ele>333.4</ele>
        <time>2024-04-07T09:30:28Z</time>
      </trkpt>
      <trkpt lat="44.09743" lon="1.96291">
        <ele>333.4</ele>
        <time>2024-04-07T09:30:29Z</time>
      </trkpt>
      <trkpt lat="44.0974" lon="1.96298">
        <ele>333.6</ele>
        <time>2024-04-07T09:30:30Z</time>
      </trkpt>
      <trkpt lat="44.09734" lon="1.96312">
        <ele>334</ele>
        <time>2024-04-07T09:30:32Z</time>
      </trkpt>
      <trkpt lat="44.0973" lon="1.96318">
        <ele>334</ele>
        <time>2024-04-07T09:30:33Z</time>
      </trkpt>
      <trkpt lat="44.09727" lon="1.96324">
        <ele>334.2</ele>
        <time>2024-04-07T09:30:34Z</time>
      </trkpt>
      <trkpt lat="44.09722" lon="1.96331">
        <ele>334.2</ele>
        <time>2024-04-07T09:30:35Z</time>
      </trkpt>
      <trkpt lat="44.09719" lon="1.96338">
        <ele>334.4</ele>
        <time>2024-04-07T09:30:36Z</time>
      </trkpt>
      <trkpt lat="44.09716" lon="1.96344">
        <ele>334.8</ele>
        <time>2024-04-07T09:30:37Z</time>
      </trkpt>
      <trkpt lat="44.09712" lon="1.9635">
        <ele>334.6</ele>
        <time>2024-04-07T09:30:38Z</time>
      </trkpt>
      <trkpt lat="44.09709" lon="1.96357">
        <ele>335</ele>
        <time>2024-04-07T09:30:39Z</time>
      </trkpt>
      <trkpt lat="44.09705" lon="1.96364">
        <ele>335.2</ele>
        <time>2024-04-07T09:30:40Z</time>
      </trkpt>
      <trkpt lat="44.09701" lon="1.9637">
        <ele>335.2</ele>
        <time>2024-04-07T09:30:41Z</time>
      </trkpt>
      <trkpt lat="44.09698" lon="1.96375">
        <ele>335.2</ele>
        <time>2024-04-07T09:30:42Z</time>
      </trkpt>
      <trkpt lat="44.09694" lon="1.9638">
        <ele>335.4</ele>
        <time>2024-04-07T09:30:43Z</time>
      </trkpt>
      <trkpt lat="44.0969" lon="1.96385">
        <ele>335.4</ele>
        <time>2024-04-07T09:30:44Z</time>
      </trkpt>
      <trkpt lat="44.09686" lon="1.96391">
        <ele>335.4</ele>
        <time>2024-04-07T09:30:45Z</time>
      </trkpt>
      <trkpt lat="44.09682" lon="1.96396">
        <ele>335.6</ele>
        <time>2024-04-07T09:30:46Z</time>
      </trkpt>
      <trkpt lat="44.09678" lon="1.96402">
        <ele>335.6</ele>
        <time>2024-04-07T09:30:47Z</time>
      </trkpt>
      <trkpt lat="44.09675" lon="1.96406">
        <ele>336</ele>
        <time>2024-04-07T09:30:48Z</time>
      </trkpt>
      <trkpt lat="44.09672" lon="1.96412">
        <ele>336.2</ele>
        <time>2024-04-07T09:30:49Z</time>
      </trkpt>
      <trkpt lat="44.09668" lon="1.96418">
        <ele>336.2</ele>
        <time>2024-04-07T09:30:50Z</time>
      </trkpt>
      <trkpt lat="44.09665" lon="1.96424">
        <ele>336.2</ele>
        <time>2024-04-07T09:30:51Z</time>
      </trkpt>
      <trkpt lat="44.09661" lon="1.96429">
        <ele>336.4</ele>
        <time>2024-04-07T09:30:52Z</time>
      </trkpt>
      <trkpt lat="44.09658" lon="1.96435">
        <ele>336.4</ele>
        <time>2024-04-07T09:30:53Z</time>
      </trkpt>
      <trkpt lat="44.09655" lon="1.9644">
        <ele>336.6</ele>
        <time>2024-04-07T09:30:54Z</time>
      </trkpt>
      <trkpt lat="44.09651" lon="1.96447">
        <ele>336.6</ele>
        <time>2024-04-07T09:30:55Z</time>
      </trkpt>
      <trkpt lat="44.09648" lon="1.96454">
        <ele>336.6</ele>
        <time>2024-04-07T09:30:56Z</time>
      </trkpt>
      <trkpt lat="44.09644" lon="1.9646">
        <ele>336.8</ele>
        <time>2024-04-07T09:30:57Z</time>
      </trkpt>
      <trkpt lat="44.09641" lon="1.96465">
        <ele>336.8</ele>
        <time>2024-04-07T09:30:58Z</time>
      </trkpt>
      <trkpt lat="44.09638" lon="1.96472">
        <ele>336.8</ele>
        <time>2024-04-07T09:30:59Z</time>
      </trkpt>
      <trkpt lat="44.09634" lon="1.96478">
        <ele>336.8</ele>
        <time>2024-04-07T09:31:00Z</time>
      </trkpt>
      <trkpt lat="44.0963" lon="1.96485">
        <ele>336.8</ele>
        <time>2024-04-07T09:31:01Z</time>
      </trkpt>
      <trkpt lat="44.09626" lon="1.96491">
        <ele>336.8</ele>
        <time>2024-04-07T09:31:02Z</time>
      </trkpt>
      <trkpt lat="44.09623" lon="1.96496">
        <ele>336.8</ele>
        <time>2024-04-07T09:31:03Z</time>
      </trkpt>
      <trkpt lat="44.09615" lon="1.9651">
        <ele>336.6</ele>
        <time>2024-04-07T09:31:05Z</time>
      </trkpt>
      <trkpt lat="44.09611" lon="1.96516">
        <ele>336.6</ele>
        <time>2024-04-07T09:31:06Z</time>
      </trkpt>
      <trkpt lat="44.09604" lon="1.96527">
        <ele>336.6</ele>
        <time>2024-04-07T09:31:08Z</time>
      </trkpt>
      <trkpt lat="44.096" lon="1.96534">
        <ele>336.6</ele>
        <time>2024-04-07T09:31:09Z</time>
      </trkpt>
      <trkpt lat="44.09592" lon="1.96548">
        <ele>336.8</ele>
        <time>2024-04-07T09:31:11Z</time>
      </trkpt>
      <trkpt lat="44.09589" lon="1.96553">
        <ele>336.8</ele>
        <time>2024-04-07T09:31:12Z</time>
      </trkpt>
      <trkpt lat="44.09582" lon="1.96566">
        <ele>337</ele>
        <time>2024-04-07T09:31:14Z</time>
      </trkpt>
      <trkpt lat="44.09578" lon="1.96573">
        <ele>337</ele>
        <time>2024-04-07T09:31:15Z</time>
      </trkpt>
      <trkpt lat="44.09574" lon="1.9658">
        <ele>337.2</ele>
        <time>2024-04-07T09:31:16Z</time>
      </trkpt>
      <trkpt lat="44.09571" lon="1.96585">
        <ele>337.4</ele>
        <time>2024-04-07T09:31:17Z</time>
      </trkpt>
      <trkpt lat="44.09567" lon="1.96592">
        <ele>337.4</ele>
        <time>2024-04-07T09:31:18Z</time>
      </trkpt>
      <trkpt lat="44.09563" lon="1.96598">
        <ele>337.6</ele>
        <time>2024-04-07T09:31:19Z</time>
      </trkpt>
      <trkpt lat="44.09558" lon="1.96605">
        <ele>337.6</ele>
        <time>2024-04-07T09:31:20Z</time>
      </trkpt>
      <trkpt lat="44.09554" lon="1.96611">
        <ele>337.6</ele>
        <time>2024-04-07T09:31:21Z</time>
      </trkpt>
      <trkpt lat="44.09546" lon="1.96621">
        <ele>337.8</ele>
        <time>2024-04-07T09:31:23Z</time>
      </trkpt>
      <trkpt lat="44.09541" lon="1.96626">
        <ele>337.8</ele>
        <time>2024-04-07T09:31:24Z</time>
      </trkpt>
      <trkpt lat="44.09535" lon="1.96632">
        <ele>337.8</ele>
        <time>2024-04-07T09:31:25Z</time>
      </trkpt>
      <trkpt lat="44.09531" lon="1.96637">
        <ele>337.8</ele>
        <time>2024-04-07T09:31:26Z</time>
      </trkpt>
      <trkpt lat="44.09526" lon="1.96642">
        <ele>338</ele>
        <time>2024-04-07T09:31:27Z</time>
      </trkpt>
      <trkpt lat="44.09522" lon="1.96646">
        <ele>338</ele>
        <time>2024-04-07T09:31:28Z</time>
      </trkpt>
      <trkpt lat="44.09511" lon="1.96657">
        <ele>338.4</ele>
        <time>2024-04-07T09:31:30Z</time>
      </trkpt>
      <trkpt lat="44.095" lon="1.96666">
        <ele>338.6</ele>
        <time>2024-04-07T09:31:32Z</time>
      </trkpt>
      <trkpt lat="44.09496" lon="1.9667">
        <ele>338.8</ele>
        <time>2024-04-07T09:31:33Z</time>
      </trkpt>
      <trkpt lat="44.09484" lon="1.9668">
        <ele>338.8</ele>
        <time>2024-04-07T09:31:35Z</time>
      </trkpt>
      <trkpt lat="44.09479" lon="1.96684">
        <ele>339</ele>
        <time>2024-04-07T09:31:36Z</time>
      </trkpt>
      <trkpt lat="44.09469" lon="1.96692">
        <ele>339.2</ele>
        <time>2024-04-07T09:31:38Z</time>
      </trkpt>
      <trkpt lat="44.09463" lon="1.96696">
        <ele>339.4</ele>
        <time>2024-04-07T09:31:39Z</time>
      </trkpt>
      <trkpt lat="44.09451" lon="1.96704">
        <ele>339.6</ele>
        <time>2024-04-07T09:31:41Z</time>
      </trkpt>
      <trkpt lat="44.09445" lon="1.96708">
        <ele>339.6</ele>
        <time>2024-04-07T09:31:42Z</time>
      </trkpt>
      <trkpt lat="44.09434" lon="1.96714">
        <ele>339.6</ele>
        <time>2024-04-07T09:31:44Z</time>
      </trkpt>
      <trkpt lat="44.09427" lon="1.96718">
        <ele>339.6</ele>
        <time>2024-04-07T09:31:45Z</time>
      </trkpt>
      <trkpt lat="44.09421" lon="1.96721">
        <ele>339.6</ele>
        <time>2024-04-07T09:31:46Z</time>
      </trkpt>
      <trkpt lat="44.09416" lon="1.96724">
        <ele>339.6</ele>
        <time>2024-04-07T09:31:47Z</time>
      </trkpt>
      <trkpt lat="44.0941" lon="1.96727">
        <ele>339.4</ele>
        <time>2024-04-07T09:31:48Z</time>
      </trkpt>
      <trkpt lat="44.09397" lon="1.96733">
        <ele>339.2</ele>
        <time>2024-04-07T09:31:50Z</time>
      </trkpt>
      <trkpt lat="44.09392" lon="1.96736">
        <ele>339</ele>
        <time>2024-04-07T09:31:51Z</time>
      </trkpt>
      <trkpt lat="44.09387" lon="1.96737">
        <ele>339</ele>
        <time>2024-04-07T09:31:52Z</time>
      </trkpt>
      <trkpt lat="44.09382" lon="1.96738">
        <ele>339</ele>
        <time>2024-04-07T09:31:53Z</time>
      </trkpt>
      <trkpt lat="44.09378" lon="1.96738">
        <ele>338.8</ele>
        <time>2024-04-07T09:31:54Z</time>
      </trkpt>
      <trkpt lat="44.09373" lon="1.96736">
        <ele>338.6</ele>
        <time>2024-04-07T09:31:55Z</time>
      </trkpt>
      <trkpt lat="44.0937" lon="1.96733">
        <ele>338.6</ele>
        <time>2024-04-07T09:31:56Z</time>
      </trkpt>
      <trkpt lat="44.09367" lon="1.9673">
        <ele>338.4</ele>
        <time>2024-04-07T09:31:57Z</time>
      </trkpt>
      <trkpt lat="44.09364" lon="1.96727">
        <ele>338.4</ele>
        <time>2024-04-07T09:31:58Z</time>
      </trkpt>
      <trkpt lat="44.09362" lon="1.96723">
        <ele>338.2</ele>
        <time>2024-04-07T09:31:59Z</time>
      </trkpt>
      <trkpt lat="44.0936" lon="1.96719">
        <ele>338</ele>
        <time>2024-04-07T09:32:00Z</time>
      </trkpt>
      <trkpt lat="44.0936" lon="1.96715">
        <ele>337.8</ele>
        <time>2024-04-07T09:32:01Z</time>
      </trkpt>
      <trkpt lat="44.09359" lon="1.96712">
        <ele>337.8</ele>
        <time>2024-04-07T09:32:02Z</time>
      </trkpt>
      <trkpt lat="44.09359" lon="1.96711">
        <ele>337.6</ele>
        <time>2024-04-07T09:32:03Z</time>
      </trkpt>
      <trkpt lat="44.09358" lon="1.96711">
        <ele>337.6</ele>
        <time>2024-04-07T09:32:04Z</time>
      </trkpt>
      <trkpt lat="44.09358" lon="1.96711">
        <ele>337.4</ele>
        <time>2024-04-07T09:32:05Z</time>
      </trkpt>
      <trkpt lat="44.09358" lon="1.96712">
        <ele>337.4</ele>
        <time>2024-04-07T09:32:06Z</time>
      </trkpt>
      <trkpt lat="44.09356" lon="1.96715">
        <ele>338.4</ele>
        <time>2024-04-07T09:36:11Z</time>
      </trkpt>
      <trkpt lat="44.09354" lon="1.96717">
        <ele>338.4</ele>
        <time>2024-04-07T09:36:12Z</time>
      </trkpt>
      <trkpt lat="44.09353" lon="1.9672">
        <ele>338.4</ele>
        <time>2024-04-07T09:36:13Z</time>
      </trkpt>
      <trkpt lat="44.09352" lon="1.96723">
        <ele>338.4</ele>
        <time>2024-04-07T09:36:14Z</time>
      </trkpt>
      <trkpt lat="44.09351" lon="1.96729">
        <ele>338.4</ele>
        <time>2024-04-07T09:36:16Z</time>
      </trkpt>
      <trkpt lat="44.09351" lon="1.96731">
        <ele>338.4</ele>
        <time>2024-04-07T09:36:17Z</time>
      </trkpt>
      <trkpt lat="44.09351" lon="1.96734">
        <ele>338.4</ele>
        <time>2024-04-07T09:36:18Z</time>
      </trkpt>
      <trkpt lat="44.09351" lon="1.96736">
        <ele>338.4</ele>
        <time>2024-04-07T09:36:19Z</time>
      </trkpt>
      <trkpt lat="44.09351" lon="1.96738">
        <ele>338.4</ele>
        <time>2024-04-07T09:36:20Z</time>
      </trkpt>
      <trkpt lat="44.09351" lon="1.9674">
        <ele>338.6</ele>
        <time>2024-04-07T09:36:21Z</time>
      </trkpt>
      <trkpt lat="44.09352" lon="1.96742">
        <ele>338.6</ele>
        <time>2024-04-07T09:36:22Z</time>
      </trkpt>
      <trkpt lat="44.09353" lon="1.96743">
        <ele>338.6</ele>
        <time>2024-04-07T09:36:23Z</time>
      </trkpt>
      <trkpt lat="44.09354" lon="1.96744">
        <ele>338.6</ele>
        <time>2024-04-07T09:36:24Z</time>
      </trkpt>
      <trkpt lat="44.09356" lon="1.96745">
        <ele>338.6</ele>
        <time>2024-04-07T09:36:25Z</time>
      </trkpt>
      <trkpt lat="44.09356" lon="1.96745">
        <ele>338.4</ele>
        <time>2024-04-07T09:36:26Z</time>
      </trkpt>
      <trkpt lat="44.09357" lon="1.96746">
        <ele>338.4</ele>
        <time>2024-04-07T09:36:27Z</time>
      </trkpt>
      <trkpt lat="44.09358" lon="1.96747">
        <ele>338.4</ele>
        <time>2024-04-07T09:36:28Z</time>
      </trkpt>
      <trkpt lat="44.09358" lon="1.96748">
        <ele>338.4</ele>
        <time>2024-04-07T09:36:29Z</time>
      </trkpt>
      <trkpt lat="44.09356" lon="1.96752">
        <ele>338.4</ele>
        <time>2024-04-07T09:36:30Z</time>
      </trkpt>
      <trkpt lat="44.09354" lon="1.96752">
        <ele>338.4</ele>
        <time>2024-04-07T09:36:32Z</time>
      </trkpt>
      <trkpt lat="44.09351" lon="1.96753">
        <ele>338.4</ele>
        <time>2024-04-07T09:36:33Z</time>
      </trkpt>
      <trkpt lat="44.09348" lon="1.96754">
        <ele>338.4</ele>
        <time>2024-04-07T09:36:34Z</time>
      </trkpt>
      <trkpt lat="44.09345" lon="1.96755">
        <ele>338.4</ele>
        <time>2024-04-07T09:36:35Z</time>
      </trkpt>
      <trkpt lat="44.09341" lon="1.96756">
        <ele>338.4</ele>
        <time>2024-04-07T09:36:36Z</time>
      </trkpt>
      <trkpt lat="44.09334" lon="1.96757">
        <ele>338.6</ele>
        <time>2024-04-07T09:36:37Z</time>
      </trkpt>
      <trkpt lat="44.09334" lon="1.96757">
        <ele>338.8</ele>
        <time>2024-04-07T09:36:38Z</time>
      </trkpt>
      <trkpt lat="44.0933" lon="1.96758">
        <ele>338.8</ele>
        <time>2024-04-07T09:36:39Z</time>
      </trkpt>
      <trkpt lat="44.09322" lon="1.9676">
        <ele>338.8</ele>
        <time>2024-04-07T09:36:40Z</time>
      </trkpt>
      <trkpt lat="44.09319" lon="1.96761">
        <ele>339</ele>
        <time>2024-04-07T09:36:42Z</time>
      </trkpt>
      <trkpt lat="44.0931" lon="1.96762">
        <ele>339</ele>
        <time>2024-04-07T09:36:43Z</time>
      </trkpt>
      <trkpt lat="44.09306" lon="1.96764">
        <ele>339</ele>
        <time>2024-04-07T09:36:44Z</time>
      </trkpt>
      <trkpt lat="44.09306" lon="1.96764">
        <ele>339</ele>
        <time>2024-04-07T09:36:45Z</time>
      </trkpt>
      <trkpt lat="44.09298" lon="1.96767">
        <ele>339</ele>
        <time>2024-04-07T09:36:46Z</time>
      </trkpt>
      <trkpt lat="44.09298" lon="1.96767">
        <ele>339</ele>
        <time>2024-04-07T09:36:47Z</time>
      </trkpt>
      <trkpt lat="44.09295" lon="1.96769">
        <ele>339</ele>
        <time>2024-04-07T09:36:48Z</time>
      </trkpt>
      <trkpt lat="44.09288" lon="1.96772">
        <ele>339</ele>
        <time>2024-04-07T09:36:49Z</time>
      </trkpt>
      <trkpt lat="44.09285" lon="1.96774">
        <ele>339</ele>
        <time>2024-04-07T09:36:50Z</time>
      </trkpt>
      <trkpt lat="44.09282" lon="1.96777">
        <ele>339</ele>
        <time>2024-04-07T09:36:51Z</time>
      </trkpt>
      <trkpt lat="44.09282" lon="1.96777">
        <ele>339</ele>
        <time>2024-04-07T09:36:52Z</time>
      </trkpt>
      <trkpt lat="44.09277" lon="1.96785">
        <ele>339</ele>
        <time>2024-04-07T09:36:53Z</time>
      </trkpt>
      <trkpt lat="44.09276" lon="1.9679">
        <ele>339</ele>
        <time>2024-04-07T09:36:54Z</time>
      </trkpt>
      <trkpt lat="44.09277" lon="1.96794">
        <ele>339.2</ele>
        <time>2024-04-07T09:36:55Z</time>
      </trkpt>
      <trkpt lat="44.09278" lon="1.96798">
        <ele>339.2</ele>
        <time>2024-04-07T09:36:56Z</time>
      </trkpt>
      <trkpt lat="44.09279" lon="1.96803">
        <ele>339.2</ele>
        <time>2024-04-07T09:36:57Z</time>
      </trkpt>
      <trkpt lat="44.0928" lon="1.96806">
        <ele>339.2</ele>
        <time>2024-04-07T09:36:58Z</time>
      </trkpt>
      <trkpt lat="44.0928" lon="1.9681">
        <ele>339.4</ele>
        <time>2024-04-07T09:36:59Z</time>
      </trkpt>
      <trkpt lat="44.09282" lon="1.96815">
        <ele>339.4</ele>
        <time>2024-04-07T09:37:00Z</time>
      </trkpt>
      <trkpt lat="44.09283" lon="1.9682">
        <ele>339.6</ele>
        <time>2024-04-07T09:37:01Z</time>
      </trkpt>
      <trkpt lat="44.09285" lon="1.96824">
        <ele>339.4</ele>
        <time>2024-04-07T09:37:02Z</time>
      </trkpt>
      <trkpt lat="44.09286" lon="1.96827">
        <ele>339.4</ele>
        <time>2024-04-07T09:37:03Z</time>
      </trkpt>
      <trkpt lat="44.09287" lon="1.96828">
        <ele>339.2</ele>
        <time>2024-04-07T09:37:04Z</time>
      </trkpt>
      <trkpt lat="44.09288" lon="1.96829">
        <ele>339.4</ele>
        <time>2024-04-07T09:37:05Z</time>
      </trkpt>
      <trkpt lat="44.09288" lon="1.96829">
        <ele>339.2</ele>
        <time>2024-04-07T09:37:06Z</time>
      </trkpt>
      <trkpt lat="44.09292" lon="1.96828">
        <ele>339.2</ele>
        <time>2024-04-07T09:37:07Z</time>
      </trkpt>
      <trkpt lat="44.09294" lon="1.96828">
        <ele>339.2</ele>
        <time>2024-04-07T09:37:08Z</time>
      </trkpt>
      <trkpt lat="44.09296" lon="1.9683">
        <ele>339.2</ele>
        <time>2024-04-07T09:37:09Z</time>
      </trkpt>
      <trkpt lat="44.09297" lon="1.96834">
        <ele>339.2</ele>
        <time>2024-04-07T09:37:10Z</time>
      </trkpt>
      <trkpt lat="44.09298" lon="1.96839">
        <ele>339.2</ele>
        <time>2024-04-07T09:37:11Z</time>
      </trkpt>
      <trkpt lat="44.09298" lon="1.96839">
        <ele>339.2</ele>
        <time>2024-04-07T09:37:12Z</time>
      </trkpt>
      <trkpt lat="44.09302" lon="1.96849">
        <ele>339.2</ele>
        <time>2024-04-07T09:37:13Z</time>
      </trkpt>
      <trkpt lat="44.09304" lon="1.96855">
        <ele>339.2</ele>
        <time>2024-04-07T09:37:14Z</time>
      </trkpt>
      <trkpt lat="44.09307" lon="1.96864">
        <ele>339.2</ele>
        <time>2024-04-07T09:37:16Z</time>
      </trkpt>
      <trkpt lat="44.09309" lon="1.96866">
        <ele>339</ele>
        <time>2024-04-07T09:37:17Z</time>
      </trkpt>
      <trkpt lat="44.09312" lon="1.96867">
        <ele>339</ele>
        <time>2024-04-07T09:37:18Z</time>
      </trkpt>
      <trkpt lat="44.09315" lon="1.96867">
        <ele>339</ele>
        <time>2024-04-07T09:37:19Z</time>
      </trkpt>
      <trkpt lat="44.09315" lon="1.96867">
        <ele>338.8</ele>
        <time>2024-04-07T09:37:20Z</time>
      </trkpt>
      <trkpt lat="44.09323" lon="1.9686">
        <ele>338.6</ele>
        <time>2024-04-07T09:37:21Z</time>
      </trkpt>
      <trkpt lat="44.09327" lon="1.96855">
        <ele>338.6</ele>
        <time>2024-04-07T09:37:22Z</time>
      </trkpt>
      <trkpt lat="44.09331" lon="1.96852">
        <ele>338.4</ele>
        <time>2024-04-07T09:37:23Z</time>
      </trkpt>
      <trkpt lat="44.09336" lon="1.96848">
        <ele>338.4</ele>
        <time>2024-04-07T09:37:24Z</time>
      </trkpt>
      <trkpt lat="44.09341" lon="1.96844">
        <ele>338.4</ele>
        <time>2024-04-07T09:37:25Z</time>
      </trkpt>
      <trkpt lat="44.09346" lon="1.9684">
        <ele>338.2</ele>
        <time>2024-04-07T09:37:26Z</time>
      </trkpt>
      <trkpt lat="44.09351" lon="1.96835">
        <ele>338.2</ele>
        <time>2024-04-07T09:37:27Z</time>
      </trkpt>
      <trkpt lat="44.09356" lon="1.96831">
        <ele>338.2</ele>
        <time>2024-04-07T09:37:28Z</time>
      </trkpt>
      <trkpt lat="44.09367" lon="1.96823">
        <ele>338.2</ele>
        <time>2024-04-07T09:37:30Z</time>
      </trkpt>
      <trkpt lat="44.09373" lon="1.96819">
        <ele>338</ele>
        <time>2024-04-07T09:37:31Z</time>
      </trkpt>
      <trkpt lat="44.09379" lon="1.96815">
        <ele>338</ele>
        <time>2024-04-07T09:37:32Z</time>
      </trkpt>
      <trkpt lat="44.09385" lon="1.96811">
        <ele>338</ele>
        <time>2024-04-07T09:37:33Z</time>
      </trkpt>
      <trkpt lat="44.09391" lon="1.96808">
        <ele>338.2</ele>
        <time>2024-04-07T09:37:34Z</time>
      </trkpt>
      <trkpt lat="44.09397" lon="1.96805">
        <ele>338.2</ele>
        <time>2024-04-07T09:37:35Z</time>
      </trkpt>
      <trkpt lat="44.09404" lon="1.96803">
        <ele>338.2</ele>
        <time>2024-04-07T09:37:36Z</time>
      </trkpt>
      <trkpt lat="44.09415" lon="1.96798">
        <ele>338.4</ele>
        <time>2024-04-07T09:37:38Z</time>
      </trkpt>
      <trkpt lat="44.09415" lon="1.96798">
        <ele>338.6</ele>
        <time>2024-04-07T09:37:39Z</time>
      </trkpt>
      <trkpt lat="44.09427" lon="1.96794">
        <ele>338.6</ele>
        <time>2024-04-07T09:37:40Z</time>
      </trkpt>
      <trkpt lat="44.09433" lon="1.96793">
        <ele>338.6</ele>
        <time>2024-04-07T09:37:41Z</time>
      </trkpt>
      <trkpt lat="44.09439" lon="1.96792">
        <ele>338.6</ele>
        <time>2024-04-07T09:37:42Z</time>
      </trkpt>
      <trkpt lat="44.09444" lon="1.96791">
        <ele>338.8</ele>
        <time>2024-04-07T09:37:43Z</time>
      </trkpt>
      <trkpt lat="44.0945" lon="1.9679">
        <ele>338.8</ele>
        <time>2024-04-07T09:37:44Z</time>
      </trkpt>
      <trkpt lat="44.09456" lon="1.96788">
        <ele>339</ele>
        <time>2024-04-07T09:37:45Z</time>
      </trkpt>
      <trkpt lat="44.09461" lon="1.96787">
        <ele>339</ele>
        <time>2024-04-07T09:37:46Z</time>
      </trkpt>
      <trkpt lat="44.09467" lon="1.96788">
        <ele>339</ele>
        <time>2024-04-07T09:37:47Z</time>
      </trkpt>
      <trkpt lat="44.09472" lon="1.9679">
        <ele>339.2</ele>
        <time>2024-04-07T09:37:48Z</time>
      </trkpt>
      <trkpt lat="44.09475" lon="1.96794">
        <ele>339.2</ele>
        <time>2024-04-07T09:37:49Z</time>
      </trkpt>
      <trkpt lat="44.09478" lon="1.96801">
        <ele>339.2</ele>
        <time>2024-04-07T09:37:50Z</time>
      </trkpt>
      <trkpt lat="44.09481" lon="1.96809">
        <ele>339.2</ele>
        <time>2024-04-07T09:37:51Z</time>
      </trkpt>
      <trkpt lat="44.09483" lon="1.96816">
        <ele>339.2</ele>
        <time>2024-04-07T09:37:52Z</time>
      </trkpt>
      <trkpt lat="44.09483" lon="1.96816">
        <ele>339.2</ele>
        <time>2024-04-07T09:37:53Z</time>
      </trkpt>
      <trkpt lat="44.0949" lon="1.96832">
        <ele>339.2</ele>
        <time>2024-04-07T09:37:54Z</time>
      </trkpt>
      <trkpt lat="44.09495" lon="1.9684">
        <ele>339.2</ele>
        <time>2024-04-07T09:37:55Z</time>
      </trkpt>
      <trkpt lat="44.09499" lon="1.96849">
        <ele>339.2</ele>
        <time>2024-04-07T09:37:56Z</time>
      </trkpt>
      <trkpt lat="44.09503" lon="1.96858">
        <ele>339</ele>
        <time>2024-04-07T09:37:57Z</time>
      </trkpt>
      <trkpt lat="44.09507" lon="1.96868">
        <ele>338.8</ele>
        <time>2024-04-07T09:37:58Z</time>
      </trkpt>
      <trkpt lat="44.09511" lon="1.9688">
        <ele>338.4</ele>
        <time>2024-04-07T09:37:59Z</time>
      </trkpt>
      <trkpt lat="44.09514" lon="1.96892">
        <ele>338</ele>
        <time>2024-04-07T09:38:00Z</time>
      </trkpt>
      <trkpt lat="44.09516" lon="1.96905">
        <ele>337.2</ele>
        <time>2024-04-07T09:38:01Z</time>
      </trkpt>
      <trkpt lat="44.0952" lon="1.9693">
        <ele>335.6</ele>
        <time>2024-04-07T09:38:03Z</time>
      </trkpt>
      <trkpt lat="44.09522" lon="1.96943">
        <ele>335.4</ele>
        <time>2024-04-07T09:38:04Z</time>
      </trkpt>
      <trkpt lat="44.09524" lon="1.96956">
        <ele>334.8</ele>
        <time>2024-04-07T09:38:05Z</time>
      </trkpt>
      <trkpt lat="44.09526" lon="1.9697">
        <ele>334.2</ele>
        <time>2024-04-07T09:38:06Z</time>
      </trkpt>
      <trkpt lat="44.09526" lon="1.9697">
        <ele>334</ele>
        <time>2024-04-07T09:38:07Z</time>
      </trkpt>
      <trkpt lat="44.0953" lon="1.96997">
        <ele>332.8</ele>
        <time>2024-04-07T09:38:08Z</time>
      </trkpt>
      <trkpt lat="44.09532" lon="1.97012">
        <ele>332</ele>
        <time>2024-04-07T09:38:09Z</time>
      </trkpt>
      <trkpt lat="44.09532" lon="1.97012">
        <ele>330.8</ele>
        <time>2024-04-07T09:38:10Z</time>
      </trkpt>
      <trkpt lat="44.09534" lon="1.97035">
        <ele>330.4</ele>
        <time>2024-04-07T09:38:11Z</time>
      </trkpt>
      <trkpt lat="44.09533" lon="1.97049">
        <ele>329.2</ele>
        <time>2024-04-07T09:38:12Z</time>
      </trkpt>
      <trkpt lat="44.09531" lon="1.97065">
        <ele>327.2</ele>
        <time>2024-04-07T09:38:13Z</time>
      </trkpt>
      <trkpt lat="44.09526" lon="1.97096">
        <ele>325</ele>
        <time>2024-04-07T09:38:15Z</time>
      </trkpt>
      <trkpt lat="44.09521" lon="1.97125">
        <ele>321.8</ele>
        <time>2024-04-07T09:38:17Z</time>
      </trkpt>
      <trkpt lat="44.09519" lon="1.97139">
        <ele>321</ele>
        <time>2024-04-07T09:38:18Z</time>
      </trkpt>
      <trkpt lat="44.09517" lon="1.97155">
        <ele>318.2</ele>
        <time>2024-04-07T09:38:19Z</time>
      </trkpt>
      <trkpt lat="44.09516" lon="1.97165">
        <ele>316.8</ele>
        <time>2024-04-07T09:38:20Z</time>
      </trkpt>
      <trkpt lat="44.09514" lon="1.97179">
        <ele>315</ele>
        <time>2024-04-07T09:38:21Z</time>
      </trkpt>
      <trkpt lat="44.09511" lon="1.97193">
        <ele>312.6</ele>
        <time>2024-04-07T09:38:22Z</time>
      </trkpt>
      <trkpt lat="44.09509" lon="1.97208">
        <ele>311</ele>
        <time>2024-04-07T09:38:23Z</time>
      </trkpt>
      <trkpt lat="44.09507" lon="1.97223">
        <ele>308.6</ele>
        <time>2024-04-07T09:38:24Z</time>
      </trkpt>
      <trkpt lat="44.09506" lon="1.97238">
        <ele>307.8</ele>
        <time>2024-04-07T09:38:25Z</time>
      </trkpt>
      <trkpt lat="44.09505" lon="1.97254">
        <ele>302.8</ele>
        <time>2024-04-07T09:38:26Z</time>
      </trkpt>
      <trkpt lat="44.09503" lon="1.97269">
        <ele>301.6</ele>
        <time>2024-04-07T09:38:27Z</time>
      </trkpt>
      <trkpt lat="44.09499" lon="1.97284">
        <ele>300.2</ele>
        <time>2024-04-07T09:38:28Z</time>
      </trkpt>
      <trkpt lat="44.09494" lon="1.97299">
        <ele>298.6</ele>
        <time>2024-04-07T09:38:29Z</time>
      </trkpt>
      <trkpt lat="44.09488" lon="1.97313">
        <ele>298</ele>
        <time>2024-04-07T09:38:30Z</time>
      </trkpt>
      <trkpt lat="44.09488" lon="1.97313">
        <ele>295.4</ele>
        <time>2024-04-07T09:38:31Z</time>
      </trkpt>
      <trkpt lat="44.09473" lon="1.97338">
        <ele>294.2</ele>
        <time>2024-04-07T09:38:32Z</time>
      </trkpt>
      <trkpt lat="44.09463" lon="1.9735">
        <ele>292.4</ele>
        <time>2024-04-07T09:38:33Z</time>
      </trkpt>
      <trkpt lat="44.09455" lon="1.97358">
        <ele>291.2</ele>
        <time>2024-04-07T09:38:34Z</time>
      </trkpt>
      <trkpt lat="44.09446" lon="1.97368">
        <ele>289.4</ele>
        <time>2024-04-07T09:38:35Z</time>
      </trkpt>
      <trkpt lat="44.09431" lon="1.97389">
        <ele>287.6</ele>
        <time>2024-04-07T09:38:37Z</time>
      </trkpt>
      <trkpt lat="44.09424" lon="1.97399">
        <ele>286.8</ele>
        <time>2024-04-07T09:38:38Z</time>
      </trkpt>
      <trkpt lat="44.0942" lon="1.97406">
        <ele>286.4</ele>
        <time>2024-04-07T09:38:39Z</time>
      </trkpt>
      <trkpt lat="44.09417" lon="1.97411">
        <ele>285.8</ele>
        <time>2024-04-07T09:38:40Z</time>
      </trkpt>
      <trkpt lat="44.09416" lon="1.97413">
        <ele>285.6</ele>
        <time>2024-04-07T09:38:41Z</time>
      </trkpt>
      <trkpt lat="44.09415" lon="1.97414">
        <ele>285</ele>
        <time>2024-04-07T09:38:42Z</time>
      </trkpt>
      <trkpt lat="44.09413" lon="1.97417">
        <ele>284.8</ele>
        <time>2024-04-07T09:38:43Z</time>
      </trkpt>
      <trkpt lat="44.09412" lon="1.97419">
        <ele>284.4</ele>
        <time>2024-04-07T09:38:44Z</time>
      </trkpt>
      <trkpt lat="44.09412" lon="1.97419">
        <ele>283.8</ele>
        <time>2024-04-07T09:38:45Z</time>
      </trkpt>
      <trkpt lat="44.09408" lon="1.97426">
        <ele>283.6</ele>
        <time>2024-04-07T09:38:46Z</time>
      </trkpt>
      <trkpt lat="44.09406" lon="1.97433">
        <ele>283.4</ele>
        <time>2024-04-07T09:38:47Z</time>
      </trkpt>
      <trkpt lat="44.09403" lon="1.97439">
        <ele>283.4</ele>
        <time>2024-04-07T09:38:48Z</time>
      </trkpt>
      <trkpt lat="44.09396" lon="1.97455">
        <ele>283.2</ele>
        <time>2024-04-07T09:38:50Z</time>
      </trkpt>
      <trkpt lat="44.09396" lon="1.97455">
        <ele>283</ele>
        <time>2024-04-07T09:38:51Z</time>
      </trkpt>
      <trkpt lat="44.09388" lon="1.97471">
        <ele>283</ele>
        <time>2024-04-07T09:38:52Z</time>
      </trkpt>
      <trkpt lat="44.09384" lon="1.97479">
        <ele>282.6</ele>
        <time>2024-04-07T09:38:53Z</time>
      </trkpt>
      <trkpt lat="44.09384" lon="1.97479">
        <ele>282.2</ele>
        <time>2024-04-07T09:38:54Z</time>
      </trkpt>
      <trkpt lat="44.09371" lon="1.97503">
        <ele>281.6</ele>
        <time>2024-04-07T09:38:56Z</time>
      </trkpt>
      <trkpt lat="44.09367" lon="1.97511">
        <ele>281.2</ele>
        <time>2024-04-07T09:38:57Z</time>
      </trkpt>
      <trkpt lat="44.09363" lon="1.97519">
        <ele>280.6</ele>
        <time>2024-04-07T09:38:59Z</time>
      </trkpt>
      <trkpt lat="44.09355" lon="1.97535">
        <ele>280.2</ele>
        <time>2024-04-07T09:39:00Z</time>
      </trkpt>
      <trkpt lat="44.09351" lon="1.97544">
        <ele>279.6</ele>
        <time>2024-04-07T09:39:02Z</time>
      </trkpt>
      <trkpt lat="44.09345" lon="1.97559">
        <ele>279.4</ele>
        <time>2024-04-07T09:39:03Z</time>
      </trkpt>
      <trkpt lat="44.09342" lon="1.97569">
        <ele>279.4</ele>
        <time>2024-04-07T09:39:04Z</time>
      </trkpt>
      <trkpt lat="44.09338" lon="1.97577">
        <ele>279</ele>
        <time>2024-04-07T09:39:05Z</time>
      </trkpt>
      <trkpt lat="44.09335" lon="1.97586">
        <ele>279</ele>
        <time>2024-04-07T09:39:06Z</time>
      </trkpt>
      <trkpt lat="44.0933" lon="1.97594">
        <ele>278.8</ele>
        <time>2024-04-07T09:39:07Z</time>
      </trkpt>
      <trkpt lat="44.0933" lon="1.97594">
        <ele>278.8</ele>
        <time>2024-04-07T09:39:08Z</time>
      </trkpt>
      <trkpt lat="44.09322" lon="1.9761">
        <ele>278.6</ele>
        <time>2024-04-07T09:39:09Z</time>
      </trkpt>
      <trkpt lat="44.09318" lon="1.97618">
        <ele>278.4</ele>
        <time>2024-04-07T09:39:10Z</time>
      </trkpt>
      <trkpt lat="44.09315" lon="1.97627">
        <ele>278.4</ele>
        <time>2024-04-07T09:39:11Z</time>
      </trkpt>
      <trkpt lat="44.09311" lon="1.97636">
        <ele>278.4</ele>
        <time>2024-04-07T09:39:12Z</time>
      </trkpt>
      <trkpt lat="44.09307" lon="1.97646">
        <ele>278.2</ele>
        <time>2024-04-07T09:39:13Z</time>
      </trkpt>
      <trkpt lat="44.09304" lon="1.97656">
        <ele>277.8</ele>
        <time>2024-04-07T09:39:14Z</time>
      </trkpt>
      <trkpt lat="44.09301" lon="1.97666">
        <ele>277.6</ele>
        <time>2024-04-07T09:39:15Z</time>
      </trkpt>
      <trkpt lat="44.09296" lon="1.97677">
        <ele>277.2</ele>
        <time>2024-04-07T09:39:16Z</time>
      </trkpt>
      <trkpt lat="44.09292" lon="1.97689">
        <ele>276.8</ele>
        <time>2024-04-07T09:39:17Z</time>
      </trkpt>
      <trkpt lat="44.09288" lon="1.97702">
        <ele>276</ele>
        <time>2024-04-07T09:39:18Z</time>
      </trkpt>
      <trkpt lat="44.09282" lon="1.97715">
        <ele>275.6</ele>
        <time>2024-04-07T09:39:19Z</time>
      </trkpt>
      <trkpt lat="44.09277" lon="1.97727">
        <ele>275.2</ele>
        <time>2024-04-07T09:39:20Z</time>
      </trkpt>
      <trkpt lat="44.09272" lon="1.97739">
        <ele>274.4</ele>
        <time>2024-04-07T09:39:21Z</time>
      </trkpt>
      <trkpt lat="44.09272" lon="1.97739">
        <ele>274</ele>
        <time>2024-04-07T09:39:22Z</time>
      </trkpt>
      <trkpt lat="44.0926" lon="1.97765">
        <ele>273</ele>
        <time>2024-04-07T09:39:23Z</time>
      </trkpt>
      <trkpt lat="44.09256" lon="1.97779">
        <ele>272.6</ele>
        <time>2024-04-07T09:39:24Z</time>
      </trkpt>
      <trkpt lat="44.09252" lon="1.97791">
        <ele>272</ele>
        <time>2024-04-07T09:39:25Z</time>
      </trkpt>
      <trkpt lat="44.09248" lon="1.97801">
        <ele>271.2</ele>
        <time>2024-04-07T09:39:26Z</time>
      </trkpt>
      <trkpt lat="44.09243" lon="1.97812">
        <ele>270.8</ele>
        <time>2024-04-07T09:39:27Z</time>
      </trkpt>
      <trkpt lat="44.09237" lon="1.97822">
        <ele>270.2</ele>
        <time>2024-04-07T09:39:28Z</time>
      </trkpt>
      <trkpt lat="44.09229" lon="1.97832">
        <ele>269.8</ele>
        <time>2024-04-07T09:39:29Z</time>
      </trkpt>
      <trkpt lat="44.09221" lon="1.97841">
        <ele>266.6</ele>
        <time>2024-04-07T09:39:30Z</time>
      </trkpt>
      <trkpt lat="44.09214" lon="1.97849">
        <ele>265.2</ele>
        <time>2024-04-07T09:39:31Z</time>
      </trkpt>
      <trkpt lat="44.09207" lon="1.97855">
        <ele>263.6</ele>
        <time>2024-04-07T09:39:32Z</time>
      </trkpt>
      <trkpt lat="44.092" lon="1.97857">
        <ele>262.8</ele>
        <time>2024-04-07T09:39:33Z</time>
      </trkpt>
      <trkpt lat="44.09193" lon="1.97854">
        <ele>259.6</ele>
        <time>2024-04-07T09:39:34Z</time>
      </trkpt>
      <trkpt lat="44.09186" lon="1.97848">
        <ele>256.6</ele>
        <time>2024-04-07T09:39:35Z</time>
      </trkpt>
      <trkpt lat="44.09186" lon="1.97848">
        <ele>255.4</ele>
        <time>2024-04-07T09:39:36Z</time>
      </trkpt>
      <trkpt lat="44.09172" lon="1.97831">
        <ele>253</ele>
        <time>2024-04-07T09:39:37Z</time>
      </trkpt>
      <trkpt lat="44.09167" lon="1.97825">
        <ele>251.4</ele>
        <time>2024-04-07T09:39:38Z</time>
      </trkpt>
      <trkpt lat="44.09165" lon="1.97819">
        <ele>249.2</ele>
        <time>2024-04-07T09:39:39Z</time>
      </trkpt>
      <trkpt lat="44.09163" lon="1.97816">
        <ele>248.6</ele>
        <time>2024-04-07T09:39:40Z</time>
      </trkpt>
      <trkpt lat="44.09159" lon="1.97818">
        <ele>247</ele>
        <time>2024-04-07T09:39:41Z</time>
      </trkpt>
      <trkpt lat="44.09157" lon="1.97821">
        <ele>245.2</ele>
        <time>2024-04-07T09:39:42Z</time>
      </trkpt>
      <trkpt lat="44.09155" lon="1.97824">
        <ele>244.4</ele>
        <time>2024-04-07T09:39:43Z</time>
      </trkpt>
      <trkpt lat="44.09155" lon="1.97827">
        <ele>243.4</ele>
        <time>2024-04-07T09:39:44Z</time>
      </trkpt>
      <trkpt lat="44.09156" lon="1.97833">
        <ele>243.2</ele>
        <time>2024-04-07T09:39:45Z</time>
      </trkpt>
      <trkpt lat="44.09156" lon="1.97841">
        <ele>242.4</ele>
        <time>2024-04-07T09:39:46Z</time>
      </trkpt>
      <trkpt lat="44.09157" lon="1.97853">
        <ele>242.4</ele>
        <time>2024-04-07T09:39:47Z</time>
      </trkpt>
      <trkpt lat="44.09157" lon="1.97864">
        <ele>242</ele>
        <time>2024-04-07T09:39:48Z</time>
      </trkpt>
      <trkpt lat="44.09156" lon="1.97875">
        <ele>242</ele>
        <time>2024-04-07T09:39:49Z</time>
      </trkpt>
      <trkpt lat="44.09156" lon="1.97875">
        <ele>241.8</ele>
        <time>2024-04-07T09:39:50Z</time>
      </trkpt>
      <trkpt lat="44.09154" lon="1.979">
        <ele>241.4</ele>
        <time>2024-04-07T09:39:51Z</time>
      </trkpt>
      <trkpt lat="44.09154" lon="1.97913">
        <ele>241.2</ele>
        <time>2024-04-07T09:39:52Z</time>
      </trkpt>
      <trkpt lat="44.09154" lon="1.97913">
        <ele>240.4</ele>
        <time>2024-04-07T09:39:53Z</time>
      </trkpt>
      <trkpt lat="44.0916" lon="1.97926">
        <ele>240.2</ele>
        <time>2024-04-07T09:39:54Z</time>
      </trkpt>
      <trkpt lat="44.09163" lon="1.97929">
        <ele>239</ele>
        <time>2024-04-07T09:39:55Z</time>
      </trkpt>
      <trkpt lat="44.09163" lon="1.97929">
        <ele>238</ele>
        <time>2024-04-07T09:39:56Z</time>
      </trkpt>
      <trkpt lat="44.09166" lon="1.97933">
        <ele>236.4</ele>
        <time>2024-04-07T09:39:57Z</time>
      </trkpt>
      <trkpt lat="44.09165" lon="1.97934">
        <ele>235.6</ele>
        <time>2024-04-07T09:39:58Z</time>
      </trkpt>
      <trkpt lat="44.09164" lon="1.97936">
        <ele>234.6</ele>
        <time>2024-04-07T09:39:59Z</time>
      </trkpt>
      <trkpt lat="44.09162" lon="1.9794">
        <ele>233.4</ele>
        <time>2024-04-07T09:40:00Z</time>
      </trkpt>
      <trkpt lat="44.09158" lon="1.97943">
        <ele>233</ele>
        <time>2024-04-07T09:40:01Z</time>
      </trkpt>
      <trkpt lat="44.09154" lon="1.97944">
        <ele>232.4</ele>
        <time>2024-04-07T09:40:02Z</time>
      </trkpt>
      <trkpt lat="44.0915" lon="1.97944">
        <ele>232</ele>
        <time>2024-04-07T09:40:03Z</time>
      </trkpt>
      <trkpt lat="44.0915" lon="1.97944">
        <ele>231.4</ele>
        <time>2024-04-07T09:40:04Z</time>
      </trkpt>
      <trkpt lat="44.09134" lon="1.9794">
        <ele>230.2</ele>
        <time>2024-04-07T09:40:06Z</time>
      </trkpt>
      <trkpt lat="44.09128" lon="1.97939">
        <ele>229.2</ele>
        <time>2024-04-07T09:40:07Z</time>
      </trkpt>
      <trkpt lat="44.09122" lon="1.97938">
        <ele>228.8</ele>
        <time>2024-04-07T09:40:08Z</time>
      </trkpt>
      <trkpt lat="44.09115" lon="1.97937">
        <ele>228</ele>
        <time>2024-04-07T09:40:09Z</time>
      </trkpt>
      <trkpt lat="44.09108" lon="1.97937">
        <ele>227.4</ele>
        <time>2024-04-07T09:40:10Z</time>
      </trkpt>
      <trkpt lat="44.09102" lon="1.97939">
        <ele>226.6</ele>
        <time>2024-04-07T09:40:11Z</time>
      </trkpt>
      <trkpt lat="44.09096" lon="1.97941">
        <ele>226.4</ele>
        <time>2024-04-07T09:40:12Z</time>
      </trkpt>
      <trkpt lat="44.09096" lon="1.97941">
        <ele>225.8</ele>
        <time>2024-04-07T09:40:13Z</time>
      </trkpt>
      <trkpt lat="44.09089" lon="1.97943">
        <ele>225.6</ele>
        <time>2024-04-07T09:40:14Z</time>
      </trkpt>
      <trkpt lat="44.09087" lon="1.97942">
        <ele>225.2</ele>
        <time>2024-04-07T09:40:15Z</time>
      </trkpt>
      <trkpt lat="44.09084" lon="1.9794">
        <ele>224.4</ele>
        <time>2024-04-07T09:40:16Z</time>
      </trkpt>
      <trkpt lat="44.09083" lon="1.97938">
        <ele>224.2</ele>
        <time>2024-04-07T09:40:17Z</time>
      </trkpt>
      <trkpt lat="44.09082" lon="1.97936">
        <ele>223.8</ele>
        <time>2024-04-07T09:40:18Z</time>
      </trkpt>
      <trkpt lat="44.09081" lon="1.97935">
        <ele>223.6</ele>
        <time>2024-04-07T09:40:19Z</time>
      </trkpt>
      <trkpt lat="44.09081" lon="1.97935">
        <ele>223.4</ele>
        <time>2024-04-07T09:40:20Z</time>
      </trkpt>
      <trkpt lat="44.09077" lon="1.97933">
        <ele>223.4</ele>
        <time>2024-04-07T09:40:21Z</time>
      </trkpt>
      <trkpt lat="44.09074" lon="1.97934">
        <ele>223.4</ele>
        <time>2024-04-07T09:40:22Z</time>
      </trkpt>
      <trkpt lat="44.09071" lon="1.97933">
        <ele>223.2</ele>
        <time>2024-04-07T09:40:23Z</time>
      </trkpt>
      <trkpt lat="44.09067" lon="1.97932">
        <ele>223.2</ele>
        <time>2024-04-07T09:40:24Z</time>
      </trkpt>
      <trkpt lat="44.09063" lon="1.97932">
        <ele>223</ele>
        <time>2024-04-07T09:40:25Z</time>
      </trkpt>
      <trkpt lat="44.09057" lon="1.97931">
        <ele>223</ele>
        <time>2024-04-07T09:40:26Z</time>
      </trkpt>
      <trkpt lat="44.09051" lon="1.9793">
        <ele>223</ele>
        <time>2024-04-07T09:40:27Z</time>
      </trkpt>
      <trkpt lat="44.09044" lon="1.97929">
        <ele>223</ele>
        <time>2024-04-07T09:40:28Z</time>
      </trkpt>
      <trkpt lat="44.09032" lon="1.97933">
        <ele>222.8</ele>
        <time>2024-04-07T09:40:30Z</time>
      </trkpt>
      <trkpt lat="44.09027" lon="1.97937">
        <ele>222.4</ele>
        <time>2024-04-07T09:40:31Z</time>
      </trkpt>
      <trkpt lat="44.09025" lon="1.97943">
        <ele>222</ele>
        <time>2024-04-07T09:40:32Z</time>
      </trkpt>
      <trkpt lat="44.09023" lon="1.9795">
        <ele>221.8</ele>
        <time>2024-04-07T09:40:33Z</time>
      </trkpt>
      <trkpt lat="44.09021" lon="1.97958">
        <ele>221.6</ele>
        <time>2024-04-07T09:40:34Z</time>
      </trkpt>
      <trkpt lat="44.09019" lon="1.97964">
        <ele>221.4</ele>
        <time>2024-04-07T09:40:35Z</time>
      </trkpt>
      <trkpt lat="44.09017" lon="1.97968">
        <ele>220.8</ele>
        <time>2024-04-07T09:40:36Z</time>
      </trkpt>
      <trkpt lat="44.09015" lon="1.97974">
        <ele>220.6</ele>
        <time>2024-04-07T09:40:37Z</time>
      </trkpt>
      <trkpt lat="44.09015" lon="1.97978">
        <ele>220</ele>
        <time>2024-04-07T09:40:38Z</time>
      </trkpt>
      <trkpt lat="44.09012" lon="1.97984">
        <ele>220</ele>
        <time>2024-04-07T09:40:39Z</time>
      </trkpt>
      <trkpt lat="44.09011" lon="1.97988">
        <ele>219.8</ele>
        <time>2024-04-07T09:40:40Z</time>
      </trkpt>
      <trkpt lat="44.09009" lon="1.97991">
        <ele>219.4</ele>
        <time>2024-04-07T09:40:41Z</time>
      </trkpt>
      <trkpt lat="44.09008" lon="1.97994">
        <ele>219</ele>
        <time>2024-04-07T09:40:42Z</time>
      </trkpt>
      <trkpt lat="44.09007" lon="1.97996">
        <ele>218.6</ele>
        <time>2024-04-07T09:40:43Z</time>
      </trkpt>
      <trkpt lat="44.09005" lon="1.98">
        <ele>218.2</ele>
        <time>2024-04-07T09:40:45Z</time>
      </trkpt>
      <trkpt lat="44.09004" lon="1.98001">
        <ele>218.2</ele>
        <time>2024-04-07T09:40:46Z</time>
      </trkpt>
      <trkpt lat="44.09003" lon="1.98001">
        <ele>218</ele>
        <time>2024-04-07T09:40:47Z</time>
      </trkpt>
      <trkpt lat="44.09002" lon="1.98003">
        <ele>218</ele>
        <time>2024-04-07T09:40:48Z</time>
      </trkpt>
      <trkpt lat="44.09002" lon="1.98005">
        <ele>218</ele>
        <time>2024-04-07T09:40:49Z</time>
      </trkpt>
      <trkpt lat="44.09001" lon="1.98007">
        <ele>218</ele>
        <time>2024-04-07T09:40:50Z</time>
      </trkpt>
      <trkpt lat="44.09" lon="1.98008">
        <ele>218</ele>
        <time>2024-04-07T09:40:51Z</time>
      </trkpt>
      <trkpt lat="44.08999" lon="1.98009">
        <ele>218</ele>
        <time>2024-04-07T09:40:52Z</time>
      </trkpt>
      <trkpt lat="44.08998" lon="1.9801">
        <ele>218</ele>
        <time>2024-04-07T09:40:53Z</time>
      </trkpt>
      <trkpt lat="44.08997" lon="1.98012">
        <ele>218</ele>
        <time>2024-04-07T09:40:54Z</time>
      </trkpt>
      <trkpt lat="44.08996" lon="1.98013">
        <ele>218</ele>
        <time>2024-04-07T09:40:55Z</time>
      </trkpt>
      <trkpt lat="44.08995" lon="1.98015">
        <ele>218.2</ele>
        <time>2024-04-07T09:40:56Z</time>
      </trkpt>
      <trkpt lat="44.08994" lon="1.98016">
        <ele>218.4</ele>
        <time>2024-04-07T09:40:57Z</time>
      </trkpt>
      <trkpt lat="44.08993" lon="1.98018">
        <ele>218.6</ele>
        <time>2024-04-07T09:40:58Z</time>
      </trkpt>
      <trkpt lat="44.08992" lon="1.9802">
        <ele>219</ele>
        <time>2024-04-07T09:40:59Z</time>
      </trkpt>
      <trkpt lat="44.08991" lon="1.98023">
        <ele>219</ele>
        <time>2024-04-07T09:41:00Z</time>
      </trkpt>
      <trkpt lat="44.0899" lon="1.98025">
        <ele>219.2</ele>
        <time>2024-04-07T09:41:01Z</time>
      </trkpt>
      <trkpt lat="44.08988" lon="1.98027">
        <ele>219.4</ele>
        <time>2024-04-07T09:41:02Z</time>
      </trkpt>
      <trkpt lat="44.08986" lon="1.98029">
        <ele>219.4</ele>
        <time>2024-04-07T09:41:03Z</time>
      </trkpt>
      <trkpt lat="44.08985" lon="1.9803">
        <ele>219.6</ele>
        <time>2024-04-07T09:41:04Z</time>
      </trkpt>
      <trkpt lat="44.08984" lon="1.98032">
        <ele>219.8</ele>
        <time>2024-04-07T09:41:05Z</time>
      </trkpt>
      <trkpt lat="44.08983" lon="1.98033">
        <ele>220</ele>
        <time>2024-04-07T09:41:06Z</time>
      </trkpt>
      <trkpt lat="44.08982" lon="1.98036">
        <ele>220.4</ele>
        <time>2024-04-07T09:41:07Z</time>
      </trkpt>
      <trkpt lat="44.08981" lon="1.98038">
        <ele>220.8</ele>
        <time>2024-04-07T09:41:08Z</time>
      </trkpt>
      <trkpt lat="44.0898" lon="1.98039">
        <ele>221</ele>
        <time>2024-04-07T09:41:09Z</time>
      </trkpt>
      <trkpt lat="44.0898" lon="1.98039">
        <ele>221.4</ele>
        <time>2024-04-07T09:41:10Z</time>
      </trkpt>
      <trkpt lat="44.08977" lon="1.98043">
        <ele>221.6</ele>
        <time>2024-04-07T09:41:11Z</time>
      </trkpt>
      <trkpt lat="44.08975" lon="1.98045">
        <ele>222</ele>
        <time>2024-04-07T09:41:12Z</time>
      </trkpt>
      <trkpt lat="44.08974" lon="1.98046">
        <ele>222.4</ele>
        <time>2024-04-07T09:41:13Z</time>
      </trkpt>
      <trkpt lat="44.08971" lon="1.98048">
        <ele>222.6</ele>
        <time>2024-04-07T09:41:14Z</time>
      </trkpt>
      <trkpt lat="44.08969" lon="1.9805">
        <ele>222.6</ele>
        <time>2024-04-07T09:41:15Z</time>
      </trkpt>
      <trkpt lat="44.08969" lon="1.9805">
        <ele>222.8</ele>
        <time>2024-04-07T09:41:16Z</time>
      </trkpt>
      <trkpt lat="44.08965" lon="1.98054">
        <ele>223</ele>
        <time>2024-04-07T09:41:17Z</time>
      </trkpt>
      <trkpt lat="44.08963" lon="1.98054">
        <ele>223.4</ele>
        <time>2024-04-07T09:41:18Z</time>
      </trkpt>
      <trkpt lat="44.08963" lon="1.98054">
        <ele>224</ele>
        <time>2024-04-07T09:41:19Z</time>
      </trkpt>
      <trkpt lat="44.0896" lon="1.98059">
        <ele>224.2</ele>
        <time>2024-04-07T09:41:20Z</time>
      </trkpt>
      <trkpt lat="44.0896" lon="1.9806">
        <ele>224.6</ele>
        <time>2024-04-07T09:41:21Z</time>
      </trkpt>
      <trkpt lat="44.08959" lon="1.98061">
        <ele>225</ele>
        <time>2024-04-07T09:41:22Z</time>
      </trkpt>
      <trkpt lat="44.08957" lon="1.98063">
        <ele>225.2</ele>
        <time>2024-04-07T09:41:23Z</time>
      </trkpt>
      <trkpt lat="44.08955" lon="1.98065">
        <ele>225.4</ele>
        <time>2024-04-07T09:41:24Z</time>
      </trkpt>
      <trkpt lat="44.08953" lon="1.98067">
        <ele>225.6</ele>
        <time>2024-04-07T09:41:25Z</time>
      </trkpt>
      <trkpt lat="44.0895" lon="1.98069">
        <ele>226</ele>
        <time>2024-04-07T09:41:26Z</time>
      </trkpt>
      <trkpt lat="44.08947" lon="1.98071">
        <ele>226</ele>
        <time>2024-04-07T09:41:27Z</time>
      </trkpt>
      <trkpt lat="44.08944" lon="1.98074">
        <ele>226.4</ele>
        <time>2024-04-07T09:41:28Z</time>
      </trkpt>
      <trkpt lat="44.08942" lon="1.98078">
        <ele>226.8</ele>
        <time>2024-04-07T09:41:29Z</time>
      </trkpt>
      <trkpt lat="44.08939" lon="1.98082">
        <ele>227.2</ele>
        <time>2024-04-07T09:41:30Z</time>
      </trkpt>
      <trkpt lat="44.08937" lon="1.98085">
        <ele>227.6</ele>
        <time>2024-04-07T09:41:31Z</time>
      </trkpt>
      <trkpt lat="44.08935" lon="1.98089">
        <ele>227.8</ele>
        <time>2024-04-07T09:41:32Z</time>
      </trkpt>
      <trkpt lat="44.08934" lon="1.98092">
        <ele>228</ele>
        <time>2024-04-07T09:41:33Z</time>
      </trkpt>
      <trkpt lat="44.08932" lon="1.98094">
        <ele>228.2</ele>
        <time>2024-04-07T09:41:34Z</time>
      </trkpt>
      <trkpt lat="44.08929" lon="1.98098">
        <ele>228.6</ele>
        <time>2024-04-07T09:41:35Z</time>
      </trkpt>
      <trkpt lat="44.08927" lon="1.981">
        <ele>228.8</ele>
        <time>2024-04-07T09:41:36Z</time>
      </trkpt>
      <trkpt lat="44.08925" lon="1.98102">
        <ele>229.4</ele>
        <time>2024-04-07T09:41:37Z</time>
      </trkpt>
      <trkpt lat="44.08923" lon="1.98102">
        <ele>230</ele>
        <time>2024-04-07T09:41:38Z</time>
      </trkpt>
      <trkpt lat="44.08922" lon="1.98103">
        <ele>230.2</ele>
        <time>2024-04-07T09:41:39Z</time>
      </trkpt>
      <trkpt lat="44.08918" lon="1.98104">
        <ele>230.6</ele>
        <time>2024-04-07T09:41:40Z</time>
      </trkpt>
      <trkpt lat="44.08917" lon="1.98106">
        <ele>230.8</ele>
        <time>2024-04-07T09:41:41Z</time>
      </trkpt>
      <trkpt lat="44.08915" lon="1.98109">
        <ele>231</ele>
        <time>2024-04-07T09:41:42Z</time>
      </trkpt>
      <trkpt lat="44.08913" lon="1.98111">
        <ele>231.2</ele>
        <time>2024-04-07T09:41:43Z</time>
      </trkpt>
      <trkpt lat="44.0891" lon="1.98112">
        <ele>231.4</ele>
        <time>2024-04-07T09:41:44Z</time>
      </trkpt>
      <trkpt lat="44.08907" lon="1.98112">
        <ele>231.6</ele>
        <time>2024-04-07T09:41:45Z</time>
      </trkpt>
      <trkpt lat="44.08904" lon="1.98112">
        <ele>231.6</ele>
        <time>2024-04-07T09:41:46Z</time>
      </trkpt>
      <trkpt lat="44.089" lon="1.98111">
        <ele>232.2</ele>
        <time>2024-04-07T09:41:47Z</time>
      </trkpt>
      <trkpt lat="44.08895" lon="1.9811">
        <ele>232.4</ele>
        <time>2024-04-07T09:41:48Z</time>
      </trkpt>
      <trkpt lat="44.0889" lon="1.98109">
        <ele>232.6</ele>
        <time>2024-04-07T09:41:49Z</time>
      </trkpt>
      <trkpt lat="44.0889" lon="1.98109">
        <ele>232.8</ele>
        <time>2024-04-07T09:41:50Z</time>
      </trkpt>
      <trkpt lat="44.0888" lon="1.9811">
        <ele>233</ele>
        <time>2024-04-07T09:41:51Z</time>
      </trkpt>
      <trkpt lat="44.08874" lon="1.9811">
        <ele>233</ele>
        <time>2024-04-07T09:41:52Z</time>
      </trkpt>
      <trkpt lat="44.08874" lon="1.9811">
        <ele>233</ele>
        <time>2024-04-07T09:41:53Z</time>
      </trkpt>
      <trkpt lat="44.08863" lon="1.9811">
        <ele>233</ele>
        <time>2024-04-07T09:41:54Z</time>
      </trkpt>
      <trkpt lat="44.08857" lon="1.98111">
        <ele>233</ele>
        <time>2024-04-07T09:41:55Z</time>
      </trkpt>
      <trkpt lat="44.08857" lon="1.98111">
        <ele>232.8</ele>
        <time>2024-04-07T09:41:56Z</time>
      </trkpt>
      <trkpt lat="44.08846" lon="1.98114">
        <ele>232.8</ele>
        <time>2024-04-07T09:41:57Z</time>
      </trkpt>
      <trkpt lat="44.08842" lon="1.98116">
        <ele>232.4</ele>
        <time>2024-04-07T09:41:58Z</time>
      </trkpt>
      <trkpt lat="44.08838" lon="1.98115">
        <ele>232.4</ele>
        <time>2024-04-07T09:41:59Z</time>
      </trkpt>
      <trkpt lat="44.08835" lon="1.98113">
        <ele>232.2</ele>
        <time>2024-04-07T09:42:00Z</time>
      </trkpt>
      <trkpt lat="44.08831" lon="1.9811">
        <ele>232</ele>
        <time>2024-04-07T09:42:01Z</time>
      </trkpt>
      <trkpt lat="44.0883" lon="1.98104">
        <ele>232</ele>
        <time>2024-04-07T09:42:02Z</time>
      </trkpt>
      <trkpt lat="44.08829" lon="1.98096">
        <ele>231.6</ele>
        <time>2024-04-07T09:42:03Z</time>
      </trkpt>
      <trkpt lat="44.08828" lon="1.98087">
        <ele>231.6</ele>
        <time>2024-04-07T09:42:04Z</time>
      </trkpt>
      <trkpt lat="44.08828" lon="1.98076">
        <ele>231.2</ele>
        <time>2024-04-07T09:42:05Z</time>
      </trkpt>
      <trkpt lat="44.08826" lon="1.98071">
        <ele>231</ele>
        <time>2024-04-07T09:42:06Z</time>
      </trkpt>
      <trkpt lat="44.08823" lon="1.98065">
        <ele>230.6</ele>
        <time>2024-04-07T09:42:07Z</time>
      </trkpt>
      <trkpt lat="44.08821" lon="1.98059">
        <ele>230.2</ele>
        <time>2024-04-07T09:42:08Z</time>
      </trkpt>
      <trkpt lat="44.08817" lon="1.98056">
        <ele>229.2</ele>
        <time>2024-04-07T09:42:09Z</time>
      </trkpt>
      <trkpt lat="44.08813" lon="1.98053">
        <ele>227.8</ele>
        <time>2024-04-07T09:42:10Z</time>
      </trkpt>
      <trkpt lat="44.08808" lon="1.98051">
        <ele>227.4</ele>
        <time>2024-04-07T09:42:11Z</time>
      </trkpt>
      <trkpt lat="44.08803" lon="1.98049">
        <ele>225.8</ele>
        <time>2024-04-07T09:42:12Z</time>
      </trkpt>
      <trkpt lat="44.08798" lon="1.98044">
        <ele>224.2</ele>
        <time>2024-04-07T09:42:13Z</time>
      </trkpt>
      <trkpt lat="44.08792" lon="1.9804">
        <ele>222.6</ele>
        <time>2024-04-07T09:42:14Z</time>
      </trkpt>
      <trkpt lat="44.08785" lon="1.98036">
        <ele>222</ele>
        <time>2024-04-07T09:42:15Z</time>
      </trkpt>
      <trkpt lat="44.08779" lon="1.98031">
        <ele>221.2</ele>
        <time>2024-04-07T09:42:16Z</time>
      </trkpt>
      <trkpt lat="44.08771" lon="1.98024">
        <ele>220.6</ele>
        <time>2024-04-07T09:42:17Z</time>
      </trkpt>
      <trkpt lat="44.08765" lon="1.98023">
        <ele>220.2</ele>
        <time>2024-04-07T09:42:18Z</time>
      </trkpt>
      <trkpt lat="44.0876" lon="1.98022">
        <ele>219.2</ele>
        <time>2024-04-07T09:42:19Z</time>
      </trkpt>
      <trkpt lat="44.08754" lon="1.98023">
        <ele>218.8</ele>
        <time>2024-04-07T09:42:20Z</time>
      </trkpt>
      <trkpt lat="44.08749" lon="1.98024">
        <ele>218.6</ele>
        <time>2024-04-07T09:42:21Z</time>
      </trkpt>
      <trkpt lat="44.08744" lon="1.98024">
        <ele>218.6</ele>
        <time>2024-04-07T09:42:22Z</time>
      </trkpt>
      <trkpt lat="44.08741" lon="1.98021">
        <ele>218.4</ele>
        <time>2024-04-07T09:42:23Z</time>
      </trkpt>
      <trkpt lat="44.08737" lon="1.98018">
        <ele>218.4</ele>
        <time>2024-04-07T09:42:24Z</time>
      </trkpt>
      <trkpt lat="44.08733" lon="1.98014">
        <ele>218.4</ele>
        <time>2024-04-07T09:42:25Z</time>
      </trkpt>
      <trkpt lat="44.08726" lon="1.9801">
        <ele>218.4</ele>
        <time>2024-04-07T09:42:26Z</time>
      </trkpt>
      <trkpt lat="44.08719" lon="1.98007">
        <ele>218.4</ele>
        <time>2024-04-07T09:42:27Z</time>
      </trkpt>
      <trkpt lat="44.08711" lon="1.98003">
        <ele>218.2</ele>
        <time>2024-04-07T09:42:28Z</time>
      </trkpt>
      <trkpt lat="44.08703" lon="1.98003">
        <ele>218.2</ele>
        <time>2024-04-07T09:42:29Z</time>
      </trkpt>
      <trkpt lat="44.08696" lon="1.98005">
        <ele>218.2</ele>
        <time>2024-04-07T09:42:30Z</time>
      </trkpt>
      <trkpt lat="44.0869" lon="1.98006">
        <ele>217.6</ele>
        <time>2024-04-07T09:42:31Z</time>
      </trkpt>
      <trkpt lat="44.08683" lon="1.98007">
        <ele>216.2</ele>
        <time>2024-04-07T09:42:32Z</time>
      </trkpt>
      <trkpt lat="44.08678" lon="1.98007">
        <ele>215</ele>
        <time>2024-04-07T09:42:33Z</time>
      </trkpt>
      <trkpt lat="44.08673" lon="1.9801">
        <ele>214.4</ele>
        <time>2024-04-07T09:42:34Z</time>
      </trkpt>
      <trkpt lat="44.08669" lon="1.98013">
        <ele>213.4</ele>
        <time>2024-04-07T09:42:35Z</time>
      </trkpt>
      <trkpt lat="44.08665" lon="1.98018">
        <ele>213</ele>
        <time>2024-04-07T09:42:36Z</time>
      </trkpt>
      <trkpt lat="44.08661" lon="1.98021">
        <ele>212.4</ele>
        <time>2024-04-07T09:42:37Z</time>
      </trkpt>
      <trkpt lat="44.08659" lon="1.98023">
        <ele>212.2</ele>
        <time>2024-04-07T09:42:38Z</time>
      </trkpt>
      <trkpt lat="44.08656" lon="1.98025">
        <ele>212</ele>
        <time>2024-04-07T09:42:39Z</time>
      </trkpt>
      <trkpt lat="44.08654" lon="1.98026">
        <ele>212</ele>
        <time>2024-04-07T09:42:40Z</time>
      </trkpt>
      <trkpt lat="44.0865" lon="1.98025">
        <ele>211.8</ele>
        <time>2024-04-07T09:42:41Z</time>
      </trkpt>
      <trkpt lat="44.08646" lon="1.98025">
        <ele>211.8</ele>
        <time>2024-04-07T09:42:42Z</time>
      </trkpt>
      <trkpt lat="44.08642" lon="1.98024">
        <ele>211.6</ele>
        <time>2024-04-07T09:42:43Z</time>
      </trkpt>
      <trkpt lat="44.08639" lon="1.98024">
        <ele>211.6</ele>
        <time>2024-04-07T09:42:44Z</time>
      </trkpt>
      <trkpt lat="44.08635" lon="1.98022">
        <ele>211.4</ele>
        <time>2024-04-07T09:42:45Z</time>
      </trkpt>
      <trkpt lat="44.08632" lon="1.98021">
        <ele>211</ele>
        <time>2024-04-07T09:42:46Z</time>
      </trkpt>
      <trkpt lat="44.08627" lon="1.98019">
        <ele>210.8</ele>
        <time>2024-04-07T09:42:47Z</time>
      </trkpt>
      <trkpt lat="44.08622" lon="1.98017">
        <ele>210.4</ele>
        <time>2024-04-07T09:42:48Z</time>
      </trkpt>
      <trkpt lat="44.08618" lon="1.98016">
        <ele>210.2</ele>
        <time>2024-04-07T09:42:50Z</time>
      </trkpt>
      <trkpt lat="44.0861" lon="1.98016">
        <ele>210</ele>
        <time>2024-04-07T09:42:51Z</time>
      </trkpt>
      <trkpt lat="44.08606" lon="1.98017">
        <ele>210</ele>
        <time>2024-04-07T09:42:52Z</time>
      </trkpt>
      <trkpt lat="44.08601" lon="1.98019">
        <ele>210</ele>
        <time>2024-04-07T09:42:53Z</time>
      </trkpt>
      <trkpt lat="44.08594" lon="1.98022">
        <ele>209.8</ele>
        <time>2024-04-07T09:42:54Z</time>
      </trkpt>
      <trkpt lat="44.0859" lon="1.98025">
        <ele>209.6</ele>
        <time>2024-04-07T09:42:55Z</time>
      </trkpt>
      <trkpt lat="44.08586" lon="1.98026">
        <ele>209.6</ele>
        <time>2024-04-07T09:42:56Z</time>
      </trkpt>
      <trkpt lat="44.08586" lon="1.98026">
        <ele>209.6</ele>
        <time>2024-04-07T09:42:57Z</time>
      </trkpt>
      <trkpt lat="44.08577" lon="1.98029">
        <ele>209.6</ele>
        <time>2024-04-07T09:42:58Z</time>
      </trkpt>
      <trkpt lat="44.08572" lon="1.98032">
        <ele>209.6</ele>
        <time>2024-04-07T09:42:59Z</time>
      </trkpt>
      <trkpt lat="44.08567" lon="1.98035">
        <ele>209.4</ele>
        <time>2024-04-07T09:43:00Z</time>
      </trkpt>
      <trkpt lat="44.08555" lon="1.9804">
        <ele>209.2</ele>
        <time>2024-04-07T09:43:02Z</time>
      </trkpt>
      <trkpt lat="44.08548" lon="1.98042">
        <ele>209</ele>
        <time>2024-04-07T09:43:03Z</time>
      </trkpt>
      <trkpt lat="44.08542" lon="1.98043">
        <ele>208.8</ele>
        <time>2024-04-07T09:43:04Z</time>
      </trkpt>
      <trkpt lat="44.08535" lon="1.98041">
        <ele>208.8</ele>
        <time>2024-04-07T09:43:05Z</time>
      </trkpt>
      <trkpt lat="44.0853" lon="1.98039">
        <ele>208.6</ele>
        <time>2024-04-07T09:43:06Z</time>
      </trkpt>
      <trkpt lat="44.08524" lon="1.98038">
        <ele>208.6</ele>
        <time>2024-04-07T09:43:07Z</time>
      </trkpt>
      <trkpt lat="44.08518" lon="1.98037">
        <ele>208.6</ele>
        <time>2024-04-07T09:43:08Z</time>
      </trkpt>
      <trkpt lat="44.08511" lon="1.98041">
        <ele>208.2</ele>
        <time>2024-04-07T09:43:09Z</time>
      </trkpt>
      <trkpt lat="44.08505" lon="1.98045">
        <ele>208</ele>
        <time>2024-04-07T09:43:10Z</time>
      </trkpt>
      <trkpt lat="44.08499" lon="1.98051">
        <ele>207.8</ele>
        <time>2024-04-07T09:43:11Z</time>
      </trkpt>
      <trkpt lat="44.08494" lon="1.98058">
        <ele>207.6</ele>
        <time>2024-04-07T09:43:12Z</time>
      </trkpt>
      <trkpt lat="44.08488" lon="1.98065">
        <ele>207.4</ele>
        <time>2024-04-07T09:43:13Z</time>
      </trkpt>
      <trkpt lat="44.08482" lon="1.98071">
        <ele>207</ele>
        <time>2024-04-07T09:43:14Z</time>
      </trkpt>
      <trkpt lat="44.08478" lon="1.98074">
        <ele>206.8</ele>
        <time>2024-04-07T09:43:15Z</time>
      </trkpt>
      <trkpt lat="44.08474" lon="1.98075">
        <ele>206.6</ele>
        <time>2024-04-07T09:43:16Z</time>
      </trkpt>
      <trkpt lat="44.08469" lon="1.98074">
        <ele>206.6</ele>
        <time>2024-04-07T09:43:17Z</time>
      </trkpt>
      <trkpt lat="44.08464" lon="1.98072">
        <ele>206.6</ele>
        <time>2024-04-07T09:43:18Z</time>
      </trkpt>
      <trkpt lat="44.0846" lon="1.98072">
        <ele>206.4</ele>
        <time>2024-04-07T09:43:19Z</time>
      </trkpt>
      <trkpt lat="44.08457" lon="1.98073">
        <ele>206.2</ele>
        <time>2024-04-07T09:43:20Z</time>
      </trkpt>
      <trkpt lat="44.08454" lon="1.98073">
        <ele>206.2</ele>
        <time>2024-04-07T09:43:21Z</time>
      </trkpt>
      <trkpt lat="44.0845" lon="1.98075">
        <ele>206</ele>
        <time>2024-04-07T09:43:22Z</time>
      </trkpt>
      <trkpt lat="44.08445" lon="1.98078">
        <ele>206</ele>
        <time>2024-04-07T09:43:23Z</time>
      </trkpt>
      <trkpt lat="44.08442" lon="1.98083">
        <ele>206</ele>
        <time>2024-04-07T09:43:24Z</time>
      </trkpt>
      <trkpt lat="44.08441" lon="1.98088">
        <ele>206</ele>
        <time>2024-04-07T09:43:25Z</time>
      </trkpt>
      <trkpt lat="44.08441" lon="1.98096">
        <ele>206</ele>
        <time>2024-04-07T09:43:26Z</time>
      </trkpt>
      <trkpt lat="44.08439" lon="1.98102">
        <ele>206</ele>
        <time>2024-04-07T09:43:27Z</time>
      </trkpt>
      <trkpt lat="44.08437" lon="1.98109">
        <ele>206</ele>
        <time>2024-04-07T09:43:28Z</time>
      </trkpt>
      <trkpt lat="44.08436" lon="1.98114">
        <ele>206</ele>
        <time>2024-04-07T09:43:29Z</time>
      </trkpt>
      <trkpt lat="44.08434" lon="1.9812">
        <ele>206.4</ele>
        <time>2024-04-07T09:43:30Z</time>
      </trkpt>
      <trkpt lat="44.08433" lon="1.98122">
        <ele>206.6</ele>
        <time>2024-04-07T09:43:31Z</time>
      </trkpt>
      <trkpt lat="44.08432" lon="1.98124">
        <ele>207</ele>
        <time>2024-04-07T09:43:32Z</time>
      </trkpt>
      <trkpt lat="44.08431" lon="1.98125">
        <ele>207.2</ele>
        <time>2024-04-07T09:43:33Z</time>
      </trkpt>
      <trkpt lat="44.08431" lon="1.98126">
        <ele>207.8</ele>
        <time>2024-04-07T09:43:34Z</time>
      </trkpt>
      <trkpt lat="44.08429" lon="1.98127">
        <ele>207.8</ele>
        <time>2024-04-07T09:43:35Z</time>
      </trkpt>
      <trkpt lat="44.08427" lon="1.98129">
        <ele>208.2</ele>
        <time>2024-04-07T09:43:36Z</time>
      </trkpt>
      <trkpt lat="44.08427" lon="1.98132">
        <ele>208.4</ele>
        <time>2024-04-07T09:43:37Z</time>
      </trkpt>
      <trkpt lat="44.08425" lon="1.98136">
        <ele>208.6</ele>
        <time>2024-04-07T09:43:38Z</time>
      </trkpt>
      <trkpt lat="44.08424" lon="1.98141">
        <ele>208.8</ele>
        <time>2024-04-07T09:43:40Z</time>
      </trkpt>
      <trkpt lat="44.08423" lon="1.98146">
        <ele>209.2</ele>
        <time>2024-04-07T09:43:41Z</time>
      </trkpt>
      <trkpt lat="44.08422" lon="1.98148">
        <ele>209.2</ele>
        <time>2024-04-07T09:43:42Z</time>
      </trkpt>
      <trkpt lat="44.0842" lon="1.9815">
        <ele>209.4</ele>
        <time>2024-04-07T09:43:43Z</time>
      </trkpt>
      <trkpt lat="44.0842" lon="1.9815">
        <ele>209.8</ele>
        <time>2024-04-07T09:43:44Z</time>
      </trkpt>
      <trkpt lat="44.08415" lon="1.98157">
        <ele>210.4</ele>
        <time>2024-04-07T09:43:45Z</time>
      </trkpt>
      <trkpt lat="44.08412" lon="1.98161">
        <ele>210.8</ele>
        <time>2024-04-07T09:43:46Z</time>
      </trkpt>
      <trkpt lat="44.08412" lon="1.98164">
        <ele>211</ele>
        <time>2024-04-07T09:43:47Z</time>
      </trkpt>
      <trkpt lat="44.0841" lon="1.98168">
        <ele>211.4</ele>
        <time>2024-04-07T09:43:48Z</time>
      </trkpt>
      <trkpt lat="44.08407" lon="1.98171">
        <ele>211.6</ele>
        <time>2024-04-07T09:43:49Z</time>
      </trkpt>
      <trkpt lat="44.08404" lon="1.98175">
        <ele>212.2</ele>
        <time>2024-04-07T09:43:50Z</time>
      </trkpt>
      <trkpt lat="44.08401" lon="1.98176">
        <ele>212.2</ele>
        <time>2024-04-07T09:43:51Z</time>
      </trkpt>
      <trkpt lat="44.08398" lon="1.98178">
        <ele>212.4</ele>
        <time>2024-04-07T09:43:52Z</time>
      </trkpt>
      <trkpt lat="44.08394" lon="1.98179">
        <ele>212.6</ele>
        <time>2024-04-07T09:43:53Z</time>
      </trkpt>
      <trkpt lat="44.0839" lon="1.98179">
        <ele>212.6</ele>
        <time>2024-04-07T09:43:54Z</time>
      </trkpt>
      <trkpt lat="44.08382" lon="1.9818">
        <ele>212.8</ele>
        <time>2024-04-07T09:43:55Z</time>
      </trkpt>
      <trkpt lat="44.08376" lon="1.9818">
        <ele>212.8</ele>
        <time>2024-04-07T09:43:56Z</time>
      </trkpt>
      <trkpt lat="44.08371" lon="1.98181">
        <ele>212.8</ele>
        <time>2024-04-07T09:43:57Z</time>
      </trkpt>
      <trkpt lat="44.08366" lon="1.98182">
        <ele>213</ele>
        <time>2024-04-07T09:43:58Z</time>
      </trkpt>
      <trkpt lat="44.0836" lon="1.98186">
        <ele>213</ele>
        <time>2024-04-07T09:43:59Z</time>
      </trkpt>
      <trkpt lat="44.08353" lon="1.9819">
        <ele>213</ele>
        <time>2024-04-07T09:44:00Z</time>
      </trkpt>
      <trkpt lat="44.08347" lon="1.98191">
        <ele>212.8</ele>
        <time>2024-04-07T09:44:01Z</time>
      </trkpt>
      <trkpt lat="44.0834" lon="1.98192">
        <ele>212.6</ele>
        <time>2024-04-07T09:44:02Z</time>
      </trkpt>
      <trkpt lat="44.08335" lon="1.98193">
        <ele>212.4</ele>
        <time>2024-04-07T09:44:03Z</time>
      </trkpt>
      <trkpt lat="44.08328" lon="1.98193">
        <ele>212.2</ele>
        <time>2024-04-07T09:44:04Z</time>
      </trkpt>
      <trkpt lat="44.08319" lon="1.98192">
        <ele>212.2</ele>
        <time>2024-04-07T09:44:05Z</time>
      </trkpt>
      <trkpt lat="44.08314" lon="1.98192">
        <ele>212</ele>
        <time>2024-04-07T09:44:06Z</time>
      </trkpt>
      <trkpt lat="44.08307" lon="1.98192">
        <ele>211.8</ele>
        <time>2024-04-07T09:44:07Z</time>
      </trkpt>
      <trkpt lat="44.08299" lon="1.98191">
        <ele>211.4</ele>
        <time>2024-04-07T09:44:08Z</time>
      </trkpt>
      <trkpt lat="44.08292" lon="1.98189">
        <ele>211.2</ele>
        <time>2024-04-07T09:44:09Z</time>
      </trkpt>
      <trkpt lat="44.08283" lon="1.98187">
        <ele>211</ele>
        <time>2024-04-07T09:44:10Z</time>
      </trkpt>
      <trkpt lat="44.08277" lon="1.98184">
        <ele>210.6</ele>
        <time>2024-04-07T09:44:11Z</time>
      </trkpt>
      <trkpt lat="44.0827" lon="1.98182">
        <ele>210.6</ele>
        <time>2024-04-07T09:44:12Z</time>
      </trkpt>
      <trkpt lat="44.08263" lon="1.98179">
        <ele>210.2</ele>
        <time>2024-04-07T09:44:13Z</time>
      </trkpt>
      <trkpt lat="44.08255" lon="1.98176">
        <ele>210</ele>
        <time>2024-04-07T09:44:14Z</time>
      </trkpt>
      <trkpt lat="44.08248" lon="1.98171">
        <ele>209.4</ele>
        <time>2024-04-07T09:44:15Z</time>
      </trkpt>
      <trkpt lat="44.08241" lon="1.98166">
        <ele>209.2</ele>
        <time>2024-04-07T09:44:16Z</time>
      </trkpt>
      <trkpt lat="44.08232" lon="1.98163">
        <ele>208.8</ele>
        <time>2024-04-07T09:44:17Z</time>
      </trkpt>
      <trkpt lat="44.08224" lon="1.9816">
        <ele>208.4</ele>
        <time>2024-04-07T09:44:18Z</time>
      </trkpt>
      <trkpt lat="44.08214" lon="1.98158">
        <ele>208.2</ele>
        <time>2024-04-07T09:44:19Z</time>
      </trkpt>
      <trkpt lat="44.08207" lon="1.98157">
        <ele>207.6</ele>
        <time>2024-04-07T09:44:20Z</time>
      </trkpt>
      <trkpt lat="44.08199" lon="1.98157">
        <ele>207.4</ele>
        <time>2024-04-07T09:44:21Z</time>
      </trkpt>
      <trkpt lat="44.0819" lon="1.98157">
        <ele>206.4</ele>
        <time>2024-04-07T09:44:22Z</time>
      </trkpt>
      <trkpt lat="44.0819" lon="1.98157">
        <ele>206</ele>
        <time>2024-04-07T09:44:23Z</time>
      </trkpt>
      <trkpt lat="44.08174" lon="1.98157">
        <ele>205.4</ele>
        <time>2024-04-07T09:44:24Z</time>
      </trkpt>
      <trkpt lat="44.08166" lon="1.98156">
        <ele>205</ele>
        <time>2024-04-07T09:44:25Z</time>
      </trkpt>
      <trkpt lat="44.08159" lon="1.98157">
        <ele>204.4</ele>
        <time>2024-04-07T09:44:26Z</time>
      </trkpt>
      <trkpt lat="44.08151" lon="1.98157">
        <ele>204.2</ele>
        <time>2024-04-07T09:44:27Z</time>
      </trkpt>
      <trkpt lat="44.08143" lon="1.98158">
        <ele>204</ele>
        <time>2024-04-07T09:44:28Z</time>
      </trkpt>
      <trkpt lat="44.08135" lon="1.98158">
        <ele>203.6</ele>
        <time>2024-04-07T09:44:29Z</time>
      </trkpt>
      <trkpt lat="44.08126" lon="1.98159">
        <ele>203.4</ele>
        <time>2024-04-07T09:44:30Z</time>
      </trkpt>
      <trkpt lat="44.08116" lon="1.98162">
        <ele>203</ele>
        <time>2024-04-07T09:44:31Z</time>
      </trkpt>
      <trkpt lat="44.08106" lon="1.98165">
        <ele>202.8</ele>
        <time>2024-04-07T09:44:32Z</time>
      </trkpt>
      <trkpt lat="44.08099" lon="1.98168">
        <ele>201.8</ele>
        <time>2024-04-07T09:44:33Z</time>
      </trkpt>
      <trkpt lat="44.0809" lon="1.98171">
        <ele>201.6</ele>
        <time>2024-04-07T09:44:34Z</time>
      </trkpt>
      <trkpt lat="44.08081" lon="1.98172">
        <ele>200.4</ele>
        <time>2024-04-07T09:44:35Z</time>
      </trkpt>
      <trkpt lat="44.08072" lon="1.98176">
        <ele>199.8</ele>
        <time>2024-04-07T09:44:36Z</time>
      </trkpt>
      <trkpt lat="44.08063" lon="1.98179">
        <ele>199.4</ele>
        <time>2024-04-07T09:44:37Z</time>
      </trkpt>
      <trkpt lat="44.08054" lon="1.98182">
        <ele>198.8</ele>
        <time>2024-04-07T09:44:38Z</time>
      </trkpt>
      <trkpt lat="44.08047" lon="1.98185">
        <ele>198.8</ele>
        <time>2024-04-07T09:44:39Z</time>
      </trkpt>
      <trkpt lat="44.08041" lon="1.98189">
        <ele>198.2</ele>
        <time>2024-04-07T09:44:40Z</time>
      </trkpt>
      <trkpt lat="44.08035" lon="1.98194">
        <ele>198.2</ele>
        <time>2024-04-07T09:44:41Z</time>
      </trkpt>
      <trkpt lat="44.08029" lon="1.98201">
        <ele>198</ele>
        <time>2024-04-07T09:44:42Z</time>
      </trkpt>
      <trkpt lat="44.08024" lon="1.98208">
        <ele>197.8</ele>
        <time>2024-04-07T09:44:43Z</time>
      </trkpt>
      <trkpt lat="44.08021" lon="1.98212">
        <ele>197.6</ele>
        <time>2024-04-07T09:44:44Z</time>
      </trkpt>
      <trkpt lat="44.08017" lon="1.98218">
        <ele>197.6</ele>
        <time>2024-04-07T09:44:45Z</time>
      </trkpt>
      <trkpt lat="44.08014" lon="1.98223">
        <ele>197.8</ele>
        <time>2024-04-07T09:44:46Z</time>
      </trkpt>
      <trkpt lat="44.0801" lon="1.9823">
        <ele>197.8</ele>
        <time>2024-04-07T09:44:47Z</time>
      </trkpt>
      <trkpt lat="44.08006" lon="1.98236">
        <ele>197.8</ele>
        <time>2024-04-07T09:44:48Z</time>
      </trkpt>
      <trkpt lat="44.08002" lon="1.98241">
        <ele>198</ele>
        <time>2024-04-07T09:44:49Z</time>
      </trkpt>
      <trkpt lat="44.07997" lon="1.98247">
        <ele>198</ele>
        <time>2024-04-07T09:44:50Z</time>
      </trkpt>
      <trkpt lat="44.07987" lon="1.98254">
        <ele>198.2</ele>
        <time>2024-04-07T09:44:52Z</time>
      </trkpt>
      <trkpt lat="44.07983" lon="1.9826">
        <ele>198.2</ele>
        <time>2024-04-07T09:44:53Z</time>
      </trkpt>
      <trkpt lat="44.07979" lon="1.98267">
        <ele>198.2</ele>
        <time>2024-04-07T09:44:54Z</time>
      </trkpt>
      <trkpt lat="44.07977" lon="1.98275">
        <ele>198.2</ele>
        <time>2024-04-07T09:44:55Z</time>
      </trkpt>
      <trkpt lat="44.07973" lon="1.98283">
        <ele>198.6</ele>
        <time>2024-04-07T09:44:56Z</time>
      </trkpt>
      <trkpt lat="44.0797" lon="1.98292">
        <ele>198.8</ele>
        <time>2024-04-07T09:44:57Z</time>
      </trkpt>
      <trkpt lat="44.07969" lon="1.98298">
        <ele>199</ele>
        <time>2024-04-07T09:44:58Z</time>
      </trkpt>
      <trkpt lat="44.07969" lon="1.98308">
        <ele>199</ele>
        <time>2024-04-07T09:44:59Z</time>
      </trkpt>
      <trkpt lat="44.07967" lon="1.98314">
        <ele>199</ele>
        <time>2024-04-07T09:45:00Z</time>
      </trkpt>
      <trkpt lat="44.07965" lon="1.98319">
        <ele>199</ele>
        <time>2024-04-07T09:45:01Z</time>
      </trkpt>
      <trkpt lat="44.07963" lon="1.98324">
        <ele>199.2</ele>
        <time>2024-04-07T09:45:02Z</time>
      </trkpt>
      <trkpt lat="44.07962" lon="1.98326">
        <ele>199.4</ele>
        <time>2024-04-07T09:45:03Z</time>
      </trkpt>
      <trkpt lat="44.07959" lon="1.98328">
        <ele>199.6</ele>
        <time>2024-04-07T09:45:04Z</time>
      </trkpt>
      <trkpt lat="44.07956" lon="1.98326">
        <ele>199.6</ele>
        <time>2024-04-07T09:45:05Z</time>
      </trkpt>
      <trkpt lat="44.07952" lon="1.98322">
        <ele>199.6</ele>
        <time>2024-04-07T09:45:06Z</time>
      </trkpt>
      <trkpt lat="44.07951" lon="1.98318">
        <ele>199.6</ele>
        <time>2024-04-07T09:45:07Z</time>
      </trkpt>
      <trkpt lat="44.0795" lon="1.98314">
        <ele>199.6</ele>
        <time>2024-04-07T09:45:08Z</time>
      </trkpt>
      <trkpt lat="44.07948" lon="1.98307">
        <ele>199.6</ele>
        <time>2024-04-07T09:45:09Z</time>
      </trkpt>
      <trkpt lat="44.07944" lon="1.983">
        <ele>199.6</ele>
        <time>2024-04-07T09:45:10Z</time>
      </trkpt>
      <trkpt lat="44.0794" lon="1.98296">
        <ele>199.2</ele>
        <time>2024-04-07T09:45:11Z</time>
      </trkpt>
      <trkpt lat="44.07937" lon="1.98298">
        <ele>198.6</ele>
        <time>2024-04-07T09:45:12Z</time>
      </trkpt>
      <trkpt lat="44.07934" lon="1.98301">
        <ele>198.4</ele>
        <time>2024-04-07T09:45:13Z</time>
      </trkpt>
      <trkpt lat="44.07933" lon="1.98306">
        <ele>198.2</ele>
        <time>2024-04-07T09:45:14Z</time>
      </trkpt>
      <trkpt lat="44.07934" lon="1.98313">
        <ele>197.8</ele>
        <time>2024-04-07T09:45:15Z</time>
      </trkpt>
      <trkpt lat="44.07935" lon="1.98319">
        <ele>197.4</ele>
        <time>2024-04-07T09:45:16Z</time>
      </trkpt>
      <trkpt lat="44.07936" lon="1.98326">
        <ele>197</ele>
        <time>2024-04-07T09:45:17Z</time>
      </trkpt>
      <trkpt lat="44.07937" lon="1.98333">
        <ele>196.8</ele>
        <time>2024-04-07T09:45:18Z</time>
      </trkpt>
      <trkpt lat="44.07939" lon="1.98341">
        <ele>196.6</ele>
        <time>2024-04-07T09:45:19Z</time>
      </trkpt>
      <trkpt lat="44.0794" lon="1.98349">
        <ele>196.4</ele>
        <time>2024-04-07T09:45:20Z</time>
      </trkpt>
      <trkpt lat="44.07941" lon="1.98357">
        <ele>196.2</ele>
        <time>2024-04-07T09:45:21Z</time>
      </trkpt>
      <trkpt lat="44.07942" lon="1.98365">
        <ele>196.4</ele>
        <time>2024-04-07T09:45:22Z</time>
      </trkpt>
      <trkpt lat="44.07943" lon="1.98374">
        <ele>196.2</ele>
        <time>2024-04-07T09:45:23Z</time>
      </trkpt>
      <trkpt lat="44.07944" lon="1.98382">
        <ele>196.2</ele>
        <time>2024-04-07T09:45:24Z</time>
      </trkpt>
      <trkpt lat="44.07945" lon="1.9839">
        <ele>196.2</ele>
        <time>2024-04-07T09:45:25Z</time>
      </trkpt>
      <trkpt lat="44.07946" lon="1.98398">
        <ele>196.2</ele>
        <time>2024-04-07T09:45:26Z</time>
      </trkpt>
      <trkpt lat="44.07947" lon="1.98407">
        <ele>196.2</ele>
        <time>2024-04-07T09:45:27Z</time>
      </trkpt>
      <trkpt lat="44.07948" lon="1.98415">
        <ele>196.2</ele>
        <time>2024-04-07T09:45:28Z</time>
      </trkpt>
      <trkpt lat="44.07949" lon="1.98423">
        <ele>196.2</ele>
        <time>2024-04-07T09:45:29Z</time>
      </trkpt>
      <trkpt lat="44.07951" lon="1.98431">
        <ele>196.4</ele>
        <time>2024-04-07T09:45:30Z</time>
      </trkpt>
      <trkpt lat="44.07952" lon="1.98439">
        <ele>196.4</ele>
        <time>2024-04-07T09:45:31Z</time>
      </trkpt>
      <trkpt lat="44.07953" lon="1.98447">
        <ele>196.6</ele>
        <time>2024-04-07T09:45:32Z</time>
      </trkpt>
      <trkpt lat="44.07954" lon="1.98454">
        <ele>196.6</ele>
        <time>2024-04-07T09:45:33Z</time>
      </trkpt>
      <trkpt lat="44.07955" lon="1.98462">
        <ele>196.6</ele>
        <time>2024-04-07T09:45:34Z</time>
      </trkpt>
      <trkpt lat="44.07957" lon="1.9847">
        <ele>196.6</ele>
        <time>2024-04-07T09:45:35Z</time>
      </trkpt>
      <trkpt lat="44.07958" lon="1.98477">
        <ele>196.6</ele>
        <time>2024-04-07T09:45:36Z</time>
      </trkpt>
      <trkpt lat="44.07959" lon="1.98484">
        <ele>196.8</ele>
        <time>2024-04-07T09:45:37Z</time>
      </trkpt>
      <trkpt lat="44.07961" lon="1.98492">
        <ele>196.8</ele>
        <time>2024-04-07T09:45:38Z</time>
      </trkpt>
      <trkpt lat="44.07962" lon="1.98499">
        <ele>197.4</ele>
        <time>2024-04-07T09:45:39Z</time>
      </trkpt>
      <trkpt lat="44.07964" lon="1.98508">
        <ele>197.8</ele>
        <time>2024-04-07T09:45:40Z</time>
      </trkpt>
      <trkpt lat="44.07965" lon="1.98516">
        <ele>197.8</ele>
        <time>2024-04-07T09:45:41Z</time>
      </trkpt>
      <trkpt lat="44.07967" lon="1.98523">
        <ele>198</ele>
        <time>2024-04-07T09:45:42Z</time>
      </trkpt>
      <trkpt lat="44.07969" lon="1.98531">
        <ele>198</ele>
        <time>2024-04-07T09:45:43Z</time>
      </trkpt>
      <trkpt lat="44.07971" lon="1.98538">
        <ele>198.2</ele>
        <time>2024-04-07T09:45:44Z</time>
      </trkpt>
      <trkpt lat="44.07974" lon="1.98547">
        <ele>198.2</ele>
        <time>2024-04-07T09:45:45Z</time>
      </trkpt>
      <trkpt lat="44.07978" lon="1.98556">
        <ele>198.2</ele>
        <time>2024-04-07T09:45:46Z</time>
      </trkpt>
      <trkpt lat="44.07982" lon="1.98563">
        <ele>198.4</ele>
        <time>2024-04-07T09:45:47Z</time>
      </trkpt>
      <trkpt lat="44.07985" lon="1.98571">
        <ele>198.4</ele>
        <time>2024-04-07T09:45:48Z</time>
      </trkpt>
      <trkpt lat="44.07988" lon="1.98579">
        <ele>198.6</ele>
        <time>2024-04-07T09:45:49Z</time>
      </trkpt>
      <trkpt lat="44.07991" lon="1.98587">
        <ele>198.6</ele>
        <time>2024-04-07T09:45:50Z</time>
      </trkpt>
      <trkpt lat="44.07993" lon="1.98595">
        <ele>198.6</ele>
        <time>2024-04-07T09:45:51Z</time>
      </trkpt>
      <trkpt lat="44.07995" lon="1.98603">
        <ele>198.6</ele>
        <time>2024-04-07T09:45:52Z</time>
      </trkpt>
      <trkpt lat="44.07997" lon="1.98611">
        <ele>198.6</ele>
        <time>2024-04-07T09:45:53Z</time>
      </trkpt>
      <trkpt lat="44.07998" lon="1.9862">
        <ele>198.6</ele>
        <time>2024-04-07T09:45:54Z</time>
      </trkpt>
      <trkpt lat="44.07999" lon="1.98628">
        <ele>198.6</ele>
        <time>2024-04-07T09:45:55Z</time>
      </trkpt>
      <trkpt lat="44.08" lon="1.98637">
        <ele>198.4</ele>
        <time>2024-04-07T09:45:56Z</time>
      </trkpt>
      <trkpt lat="44.08" lon="1.98645">
        <ele>198.2</ele>
        <time>2024-04-07T09:45:57Z</time>
      </trkpt>
      <trkpt lat="44.08" lon="1.98653">
        <ele>198</ele>
        <time>2024-04-07T09:45:58Z</time>
      </trkpt>
      <trkpt lat="44.08" lon="1.98661">
        <ele>198</ele>
        <time>2024-04-07T09:45:59Z</time>
      </trkpt>
      <trkpt lat="44.08" lon="1.9867">
        <ele>198</ele>
        <time>2024-04-07T09:46:00Z</time>
      </trkpt>
      <trkpt lat="44.07999" lon="1.98678">
        <ele>197.8</ele>
        <time>2024-04-07T09:46:01Z</time>
      </trkpt>
      <trkpt lat="44.07999" lon="1.98687">
        <ele>197.8</ele>
        <time>2024-04-07T09:46:02Z</time>
      </trkpt>
      <trkpt lat="44.07999" lon="1.98695">
        <ele>197.8</ele>
        <time>2024-04-07T09:46:03Z</time>
      </trkpt>
      <trkpt lat="44.07998" lon="1.98704">
        <ele>197.8</ele>
        <time>2024-04-07T09:46:04Z</time>
      </trkpt>
      <trkpt lat="44.07998" lon="1.98713">
        <ele>197.6</ele>
        <time>2024-04-07T09:46:05Z</time>
      </trkpt>
      <trkpt lat="44.07998" lon="1.98722">
        <ele>197.6</ele>
        <time>2024-04-07T09:46:06Z</time>
      </trkpt>
      <trkpt lat="44.07997" lon="1.9873">
        <ele>197.6</ele>
        <time>2024-04-07T09:46:07Z</time>
      </trkpt>
      <trkpt lat="44.07996" lon="1.98738">
        <ele>197.8</ele>
        <time>2024-04-07T09:46:08Z</time>
      </trkpt>
      <trkpt lat="44.07996" lon="1.98746">
        <ele>197.6</ele>
        <time>2024-04-07T09:46:09Z</time>
      </trkpt>
      <trkpt lat="44.07995" lon="1.98755">
        <ele>197.6</ele>
        <time>2024-04-07T09:46:10Z</time>
      </trkpt>
      <trkpt lat="44.07994" lon="1.98764">
        <ele>197.6</ele>
        <time>2024-04-07T09:46:11Z</time>
      </trkpt>
      <trkpt lat="44.07994" lon="1.98772">
        <ele>197.6</ele>
        <time>2024-04-07T09:46:12Z</time>
      </trkpt>
      <trkpt lat="44.07993" lon="1.98781">
        <ele>197.6</ele>
        <time>2024-04-07T09:46:13Z</time>
      </trkpt>
      <trkpt lat="44.07993" lon="1.9879">
        <ele>197.6</ele>
        <time>2024-04-07T09:46:14Z</time>
      </trkpt>
      <trkpt lat="44.07992" lon="1.98799">
        <ele>197.6</ele>
        <time>2024-04-07T09:46:15Z</time>
      </trkpt>
      <trkpt lat="44.07992" lon="1.98807">
        <ele>197.6</ele>
        <time>2024-04-07T09:46:16Z</time>
      </trkpt>
      <trkpt lat="44.07992" lon="1.98816">
        <ele>197.6</ele>
        <time>2024-04-07T09:46:17Z</time>
      </trkpt>
      <trkpt lat="44.0799" lon="1.98834">
        <ele>197.6</ele>
        <time>2024-04-07T09:46:19Z</time>
      </trkpt>
      <trkpt lat="44.0799" lon="1.98842">
        <ele>197.6</ele>
        <time>2024-04-07T09:46:20Z</time>
      </trkpt>
      <trkpt lat="44.07989" lon="1.98859">
        <ele>197.4</ele>
        <time>2024-04-07T09:46:22Z</time>
      </trkpt>
      <trkpt lat="44.07988" lon="1.98868">
        <ele>197.4</ele>
        <time>2024-04-07T09:46:23Z</time>
      </trkpt>
      <trkpt lat="44.07988" lon="1.98876">
        <ele>197.4</ele>
        <time>2024-04-07T09:46:24Z</time>
      </trkpt>
      <trkpt lat="44.07987" lon="1.98884">
        <ele>197.6</ele>
        <time>2024-04-07T09:46:25Z</time>
      </trkpt>
      <trkpt lat="44.07987" lon="1.98893">
        <ele>197.6</ele>
        <time>2024-04-07T09:46:26Z</time>
      </trkpt>
      <trkpt lat="44.07986" lon="1.98901">
        <ele>197.6</ele>
        <time>2024-04-07T09:46:27Z</time>
      </trkpt>
      <trkpt lat="44.07986" lon="1.9891">
        <ele>197.4</ele>
        <time>2024-04-07T09:46:28Z</time>
      </trkpt>
      <trkpt lat="44.07986" lon="1.98918">
        <ele>197.4</ele>
        <time>2024-04-07T09:46:29Z</time>
      </trkpt>
      <trkpt lat="44.07986" lon="1.98926">
        <ele>197.4</ele>
        <time>2024-04-07T09:46:30Z</time>
      </trkpt>
      <trkpt lat="44.07985" lon="1.98934">
        <ele>197.2</ele>
        <time>2024-04-07T09:46:31Z</time>
      </trkpt>
      <trkpt lat="44.07983" lon="1.98942">
        <ele>197.2</ele>
        <time>2024-04-07T09:46:32Z</time>
      </trkpt>
      <trkpt lat="44.07979" lon="1.98947">
        <ele>197.2</ele>
        <time>2024-04-07T09:46:33Z</time>
      </trkpt>
      <trkpt lat="44.07973" lon="1.98951">
        <ele>197.2</ele>
        <time>2024-04-07T09:46:34Z</time>
      </trkpt>
      <trkpt lat="44.07967" lon="1.98953">
        <ele>197.2</ele>
        <time>2024-04-07T09:46:35Z</time>
      </trkpt>
      <trkpt lat="44.07961" lon="1.98953">
        <ele>197.2</ele>
        <time>2024-04-07T09:46:36Z</time>
      </trkpt>
      <trkpt lat="44.07955" lon="1.98953">
        <ele>197.2</ele>
        <time>2024-04-07T09:46:37Z</time>
      </trkpt>
      <trkpt lat="44.07948" lon="1.98952">
        <ele>197.2</ele>
        <time>2024-04-07T09:46:38Z</time>
      </trkpt>
      <trkpt lat="44.07941" lon="1.98953">
        <ele>197</ele>
        <time>2024-04-07T09:46:39Z</time>
      </trkpt>
      <trkpt lat="44.07934" lon="1.98956">
        <ele>197</ele>
        <time>2024-04-07T09:46:40Z</time>
      </trkpt>
      <trkpt lat="44.07927" lon="1.98961">
        <ele>196.8</ele>
        <time>2024-04-07T09:46:41Z</time>
      </trkpt>
      <trkpt lat="44.07921" lon="1.98969">
        <ele>196.6</ele>
        <time>2024-04-07T09:46:42Z</time>
      </trkpt>
      <trkpt lat="44.07916" lon="1.98977">
        <ele>196.4</ele>
        <time>2024-04-07T09:46:43Z</time>
      </trkpt>
      <trkpt lat="44.07911" lon="1.98986">
        <ele>196</ele>
        <time>2024-04-07T09:46:44Z</time>
      </trkpt>
      <trkpt lat="44.07906" lon="1.98994">
        <ele>195.6</ele>
        <time>2024-04-07T09:46:45Z</time>
      </trkpt>
      <trkpt lat="44.079" lon="1.99002">
        <ele>195.4</ele>
        <time>2024-04-07T09:46:46Z</time>
      </trkpt>
      <trkpt lat="44.07895" lon="1.99009">
        <ele>195.2</ele>
        <time>2024-04-07T09:46:47Z</time>
      </trkpt>
      <trkpt lat="44.07891" lon="1.99016">
        <ele>194.8</ele>
        <time>2024-04-07T09:46:48Z</time>
      </trkpt>
      <trkpt lat="44.07887" lon="1.99022">
        <ele>194.6</ele>
        <time>2024-04-07T09:46:49Z</time>
      </trkpt>
      <trkpt lat="44.07885" lon="1.99028">
        <ele>194.4</ele>
        <time>2024-04-07T09:46:50Z</time>
      </trkpt>
      <trkpt lat="44.07884" lon="1.99036">
        <ele>194.2</ele>
        <time>2024-04-07T09:46:51Z</time>
      </trkpt>
      <trkpt lat="44.07883" lon="1.99045">
        <ele>194</ele>
        <time>2024-04-07T09:46:52Z</time>
      </trkpt>
      <trkpt lat="44.07883" lon="1.99053">
        <ele>193.8</ele>
        <time>2024-04-07T09:46:53Z</time>
      </trkpt>
      <trkpt lat="44.07883" lon="1.99053">
        <ele>193.8</ele>
        <time>2024-04-07T09:46:54Z</time>
      </trkpt>
      <trkpt lat="44.07883" lon="1.99069">
        <ele>193.6</ele>
        <time>2024-04-07T09:46:55Z</time>
      </trkpt>
      <trkpt lat="44.07882" lon="1.99077">
        <ele>193.6</ele>
        <time>2024-04-07T09:46:56Z</time>
      </trkpt>
      <trkpt lat="44.07881" lon="1.99084">
        <ele>193.4</ele>
        <time>2024-04-07T09:46:57Z</time>
      </trkpt>
      <trkpt lat="44.0788" lon="1.99091">
        <ele>193.4</ele>
        <time>2024-04-07T09:46:58Z</time>
      </trkpt>
      <trkpt lat="44.0788" lon="1.99099">
        <ele>193.4</ele>
        <time>2024-04-07T09:46:59Z</time>
      </trkpt>
      <trkpt lat="44.0788" lon="1.99105">
        <ele>193.4</ele>
        <time>2024-04-07T09:47:00Z</time>
      </trkpt>
      <trkpt lat="44.07882" lon="1.99109">
        <ele>193.6</ele>
        <time>2024-04-07T09:47:01Z</time>
      </trkpt>
      <trkpt lat="44.07886" lon="1.99111">
        <ele>193.6</ele>
        <time>2024-04-07T09:47:02Z</time>
      </trkpt>
      <trkpt lat="44.0789" lon="1.99114">
        <ele>193.8</ele>
        <time>2024-04-07T09:47:03Z</time>
      </trkpt>
      <trkpt lat="44.07894" lon="1.99117">
        <ele>193.8</ele>
        <time>2024-04-07T09:47:04Z</time>
      </trkpt>
      <trkpt lat="44.07901" lon="1.99122">
        <ele>193.8</ele>
        <time>2024-04-07T09:47:05Z</time>
      </trkpt>
      <trkpt lat="44.07906" lon="1.99126">
        <ele>193.8</ele>
        <time>2024-04-07T09:47:06Z</time>
      </trkpt>
      <trkpt lat="44.07911" lon="1.9913">
        <ele>193.8</ele>
        <time>2024-04-07T09:47:07Z</time>
      </trkpt>
      <trkpt lat="44.07916" lon="1.99134">
        <ele>193.8</ele>
        <time>2024-04-07T09:47:08Z</time>
      </trkpt>
      <trkpt lat="44.07923" lon="1.99146">
        <ele>194</ele>
        <time>2024-04-07T09:47:10Z</time>
      </trkpt>
      <trkpt lat="44.07925" lon="1.99154">
        <ele>194</ele>
        <time>2024-04-07T09:47:11Z</time>
      </trkpt>
      <trkpt lat="44.07926" lon="1.99162">
        <ele>193.8</ele>
        <time>2024-04-07T09:47:12Z</time>
      </trkpt>
      <trkpt lat="44.07925" lon="1.9917">
        <ele>193.8</ele>
        <time>2024-04-07T09:47:13Z</time>
      </trkpt>
      <trkpt lat="44.07924" lon="1.9918">
        <ele>193.8</ele>
        <time>2024-04-07T09:47:14Z</time>
      </trkpt>
      <trkpt lat="44.07922" lon="1.99186">
        <ele>194</ele>
        <time>2024-04-07T09:47:15Z</time>
      </trkpt>
      <trkpt lat="44.07921" lon="1.99192">
        <ele>194</ele>
        <time>2024-04-07T09:47:16Z</time>
      </trkpt>
      <trkpt lat="44.0792" lon="1.992">
        <ele>194.2</ele>
        <time>2024-04-07T09:47:17Z</time>
      </trkpt>
      <trkpt lat="44.07918" lon="1.9921">
        <ele>194.2</ele>
        <time>2024-04-07T09:47:18Z</time>
      </trkpt>
      <trkpt lat="44.07917" lon="1.99217">
        <ele>194.2</ele>
        <time>2024-04-07T09:47:19Z</time>
      </trkpt>
      <trkpt lat="44.07915" lon="1.99223">
        <ele>194.2</ele>
        <time>2024-04-07T09:47:20Z</time>
      </trkpt>
      <trkpt lat="44.07914" lon="1.99228">
        <ele>194.2</ele>
        <time>2024-04-07T09:47:21Z</time>
      </trkpt>
      <trkpt lat="44.07911" lon="1.99233">
        <ele>194.2</ele>
        <time>2024-04-07T09:47:22Z</time>
      </trkpt>
      <trkpt lat="44.07908" lon="1.99239">
        <ele>193.8</ele>
        <time>2024-04-07T09:47:23Z</time>
      </trkpt>
      <trkpt lat="44.07906" lon="1.99244">
        <ele>194</ele>
        <time>2024-04-07T09:47:24Z</time>
      </trkpt>
      <trkpt lat="44.07904" lon="1.99248">
        <ele>194.2</ele>
        <time>2024-04-07T09:47:25Z</time>
      </trkpt>
      <trkpt lat="44.07903" lon="1.99252">
        <ele>194.2</ele>
        <time>2024-04-07T09:47:26Z</time>
      </trkpt>
      <trkpt lat="44.07901" lon="1.99256">
        <ele>194.2</ele>
        <time>2024-04-07T09:47:27Z</time>
      </trkpt>
      <trkpt lat="44.07898" lon="1.99257">
        <ele>194.2</ele>
        <time>2024-04-07T09:47:28Z</time>
      </trkpt>
      <trkpt lat="44.07895" lon="1.9926">
        <ele>194.2</ele>
        <time>2024-04-07T09:47:29Z</time>
      </trkpt>
      <trkpt lat="44.07892" lon="1.99263">
        <ele>194.2</ele>
        <time>2024-04-07T09:47:30Z</time>
      </trkpt>
      <trkpt lat="44.07888" lon="1.99268">
        <ele>194.4</ele>
        <time>2024-04-07T09:47:31Z</time>
      </trkpt>
      <trkpt lat="44.07883" lon="1.99272">
        <ele>194.4</ele>
        <time>2024-04-07T09:47:32Z</time>
      </trkpt>
      <trkpt lat="44.07879" lon="1.99275">
        <ele>194.4</ele>
        <time>2024-04-07T09:47:33Z</time>
      </trkpt>
      <trkpt lat="44.0787" lon="1.99282">
        <ele>194.6</ele>
        <time>2024-04-07T09:47:35Z</time>
      </trkpt>
      <trkpt lat="44.07863" lon="1.99287">
        <ele>194.6</ele>
        <time>2024-04-07T09:47:36Z</time>
      </trkpt>
      <trkpt lat="44.07854" lon="1.99295">
        <ele>194.6</ele>
        <time>2024-04-07T09:47:38Z</time>
      </trkpt>
      <trkpt lat="44.07849" lon="1.99298">
        <ele>194.8</ele>
        <time>2024-04-07T09:47:39Z</time>
      </trkpt>
      <trkpt lat="44.07845" lon="1.99301">
        <ele>194.8</ele>
        <time>2024-04-07T09:47:40Z</time>
      </trkpt>
      <trkpt lat="44.07839" lon="1.99306">
        <ele>195</ele>
        <time>2024-04-07T09:47:41Z</time>
      </trkpt>
      <trkpt lat="44.07834" lon="1.9931">
        <ele>195</ele>
        <time>2024-04-07T09:47:42Z</time>
      </trkpt>
      <trkpt lat="44.0783" lon="1.99315">
        <ele>195</ele>
        <time>2024-04-07T09:47:43Z</time>
      </trkpt>
      <trkpt lat="44.07822" lon="1.99326">
        <ele>195</ele>
        <time>2024-04-07T09:47:45Z</time>
      </trkpt>
      <trkpt lat="44.07819" lon="1.99331">
        <ele>195</ele>
        <time>2024-04-07T09:47:46Z</time>
      </trkpt>
      <trkpt lat="44.07816" lon="1.99339">
        <ele>194.8</ele>
        <time>2024-04-07T09:47:47Z</time>
      </trkpt>
      <trkpt lat="44.07813" lon="1.99346">
        <ele>194.8</ele>
        <time>2024-04-07T09:47:48Z</time>
      </trkpt>
      <trkpt lat="44.07811" lon="1.99352">
        <ele>194.8</ele>
        <time>2024-04-07T09:47:49Z</time>
      </trkpt>
      <trkpt lat="44.07808" lon="1.9936">
        <ele>194.8</ele>
        <time>2024-04-07T09:47:50Z</time>
      </trkpt>
      <trkpt lat="44.07806" lon="1.99366">
        <ele>194.8</ele>
        <time>2024-04-07T09:47:51Z</time>
      </trkpt>
      <trkpt lat="44.07804" lon="1.99375">
        <ele>194.8</ele>
        <time>2024-04-07T09:47:52Z</time>
      </trkpt>
      <trkpt lat="44.07802" lon="1.99381">
        <ele>194.8</ele>
        <time>2024-04-07T09:47:53Z</time>
      </trkpt>
      <trkpt lat="44.07801" lon="1.99388">
        <ele>194.8</ele>
        <time>2024-04-07T09:47:54Z</time>
      </trkpt>
      <trkpt lat="44.078" lon="1.99396">
        <ele>194.8</ele>
        <time>2024-04-07T09:47:55Z</time>
      </trkpt>
      <trkpt lat="44.07798" lon="1.99404">
        <ele>194.8</ele>
        <time>2024-04-07T09:47:56Z</time>
      </trkpt>
      <trkpt lat="44.07796" lon="1.9941">
        <ele>195</ele>
        <time>2024-04-07T09:47:57Z</time>
      </trkpt>
      <trkpt lat="44.07793" lon="1.99413">
        <ele>195</ele>
        <time>2024-04-07T09:47:58Z</time>
      </trkpt>
      <trkpt lat="44.07789" lon="1.99416">
        <ele>195.2</ele>
        <time>2024-04-07T09:47:59Z</time>
      </trkpt>
      <trkpt lat="44.07783" lon="1.99416">
        <ele>195.4</ele>
        <time>2024-04-07T09:48:00Z</time>
      </trkpt>
      <trkpt lat="44.07778" lon="1.99414">
        <ele>195.4</ele>
        <time>2024-04-07T09:48:01Z</time>
      </trkpt>
      <trkpt lat="44.07773" lon="1.99411">
        <ele>195.6</ele>
        <time>2024-04-07T09:48:02Z</time>
      </trkpt>
      <trkpt lat="44.07769" lon="1.99409">
        <ele>195.8</ele>
        <time>2024-04-07T09:48:03Z</time>
      </trkpt>
      <trkpt lat="44.07764" lon="1.99405">
        <ele>196.2</ele>
        <time>2024-04-07T09:48:04Z</time>
      </trkpt>
      <trkpt lat="44.0776" lon="1.99403">
        <ele>196.4</ele>
        <time>2024-04-07T09:48:05Z</time>
      </trkpt>
      <trkpt lat="44.07756" lon="1.994">
        <ele>196.6</ele>
        <time>2024-04-07T09:48:06Z</time>
      </trkpt>
      <trkpt lat="44.07754" lon="1.99399">
        <ele>196.6</ele>
        <time>2024-04-07T09:48:07Z</time>
      </trkpt>
      <trkpt lat="44.07752" lon="1.99397">
        <ele>196.8</ele>
        <time>2024-04-07T09:48:08Z</time>
      </trkpt>
      <trkpt lat="44.07749" lon="1.99396">
        <ele>196.8</ele>
        <time>2024-04-07T09:48:09Z</time>
      </trkpt>
      <trkpt lat="44.07746" lon="1.99397">
        <ele>197.2</ele>
        <time>2024-04-07T09:48:10Z</time>
      </trkpt>
      <trkpt lat="44.07744" lon="1.99399">
        <ele>197.2</ele>
        <time>2024-04-07T09:48:11Z</time>
      </trkpt>
      <trkpt lat="44.07741" lon="1.99403">
        <ele>197.4</ele>
        <time>2024-04-07T09:48:12Z</time>
      </trkpt>
      <trkpt lat="44.0774" lon="1.99408">
        <ele>197.4</ele>
        <time>2024-04-07T09:48:13Z</time>
      </trkpt>
      <trkpt lat="44.0774" lon="1.99415">
        <ele>197.4</ele>
        <time>2024-04-07T09:48:14Z</time>
      </trkpt>
      <trkpt lat="44.0774" lon="1.99422">
        <ele>197.6</ele>
        <time>2024-04-07T09:48:15Z</time>
      </trkpt>
      <trkpt lat="44.07739" lon="1.99431">
        <ele>197.6</ele>
        <time>2024-04-07T09:48:16Z</time>
      </trkpt>
      <trkpt lat="44.0774" lon="1.99439">
        <ele>197.6</ele>
        <time>2024-04-07T09:48:17Z</time>
      </trkpt>
      <trkpt lat="44.0774" lon="1.99448">
        <ele>197.6</ele>
        <time>2024-04-07T09:48:18Z</time>
      </trkpt>
      <trkpt lat="44.07741" lon="1.99456">
        <ele>197.8</ele>
        <time>2024-04-07T09:48:19Z</time>
      </trkpt>
      <trkpt lat="44.07741" lon="1.99464">
        <ele>197.8</ele>
        <time>2024-04-07T09:48:20Z</time>
      </trkpt>
      <trkpt lat="44.07741" lon="1.99472">
        <ele>197.8</ele>
        <time>2024-04-07T09:48:21Z</time>
      </trkpt>
      <trkpt lat="44.07741" lon="1.99481">
        <ele>197.8</ele>
        <time>2024-04-07T09:48:22Z</time>
      </trkpt>
      <trkpt lat="44.07742" lon="1.99489">
        <ele>197.8</ele>
        <time>2024-04-07T09:48:23Z</time>
      </trkpt>
      <trkpt lat="44.07742" lon="1.99497">
        <ele>197.8</ele>
        <time>2024-04-07T09:48:24Z</time>
      </trkpt>
      <trkpt lat="44.07742" lon="1.99505">
        <ele>197.8</ele>
        <time>2024-04-07T09:48:25Z</time>
      </trkpt>
      <trkpt lat="44.07742" lon="1.99513">
        <ele>198</ele>
        <time>2024-04-07T09:48:26Z</time>
      </trkpt>
      <trkpt lat="44.07742" lon="1.99519">
        <ele>198</ele>
        <time>2024-04-07T09:48:27Z</time>
      </trkpt>
      <trkpt lat="44.07743" lon="1.99526">
        <ele>198.2</ele>
        <time>2024-04-07T09:48:28Z</time>
      </trkpt>
      <trkpt lat="44.07743" lon="1.99533">
        <ele>198.4</ele>
        <time>2024-04-07T09:48:29Z</time>
      </trkpt>
      <trkpt lat="44.07743" lon="1.99541">
        <ele>198.4</ele>
        <time>2024-04-07T09:48:30Z</time>
      </trkpt>
      <trkpt lat="44.07743" lon="1.99549">
        <ele>198.6</ele>
        <time>2024-04-07T09:48:31Z</time>
      </trkpt>
      <trkpt lat="44.07744" lon="1.99557">
        <ele>198.6</ele>
        <time>2024-04-07T09:48:32Z</time>
      </trkpt>
      <trkpt lat="44.07744" lon="1.99565">
        <ele>198.8</ele>
        <time>2024-04-07T09:48:33Z</time>
      </trkpt>
      <trkpt lat="44.07744" lon="1.99581">
        <ele>199</ele>
        <time>2024-04-07T09:48:35Z</time>
      </trkpt>
      <trkpt lat="44.07745" lon="1.99588">
        <ele>199.2</ele>
        <time>2024-04-07T09:48:36Z</time>
      </trkpt>
      <trkpt lat="44.07746" lon="1.99595">
        <ele>199.2</ele>
        <time>2024-04-07T09:48:37Z</time>
      </trkpt>
      <trkpt lat="44.07747" lon="1.9961">
        <ele>199.4</ele>
        <time>2024-04-07T09:48:39Z</time>
      </trkpt>
      <trkpt lat="44.07748" lon="1.99619">
        <ele>199.4</ele>
        <time>2024-04-07T09:48:40Z</time>
      </trkpt>
      <trkpt lat="44.07749" lon="1.99627">
        <ele>199.4</ele>
        <time>2024-04-07T09:48:41Z</time>
      </trkpt>
      <trkpt lat="44.07749" lon="1.99635">
        <ele>199.4</ele>
        <time>2024-04-07T09:48:42Z</time>
      </trkpt>
      <trkpt lat="44.07751" lon="1.99643">
        <ele>199.4</ele>
        <time>2024-04-07T09:48:43Z</time>
      </trkpt>
      <trkpt lat="44.07751" lon="1.99651">
        <ele>199.6</ele>
        <time>2024-04-07T09:48:44Z</time>
      </trkpt>
      <trkpt lat="44.07752" lon="1.99658">
        <ele>199.6</ele>
        <time>2024-04-07T09:48:45Z</time>
      </trkpt>
      <trkpt lat="44.07752" lon="1.99666">
        <ele>199.6</ele>
        <time>2024-04-07T09:48:46Z</time>
      </trkpt>
      <trkpt lat="44.07752" lon="1.99675">
        <ele>199.8</ele>
        <time>2024-04-07T09:48:47Z</time>
      </trkpt>
      <trkpt lat="44.07751" lon="1.99683">
        <ele>199.8</ele>
        <time>2024-04-07T09:48:48Z</time>
      </trkpt>
      <trkpt lat="44.07751" lon="1.9969">
        <ele>199.8</ele>
        <time>2024-04-07T09:48:49Z</time>
      </trkpt>
      <trkpt lat="44.07751" lon="1.99697">
        <ele>199.8</ele>
        <time>2024-04-07T09:48:50Z</time>
      </trkpt>
      <trkpt lat="44.07751" lon="1.99705">
        <ele>199.8</ele>
        <time>2024-04-07T09:48:51Z</time>
      </trkpt>
      <trkpt lat="44.07751" lon="1.99713">
        <ele>200</ele>
        <time>2024-04-07T09:48:52Z</time>
      </trkpt>
      <trkpt lat="44.0775" lon="1.9972">
        <ele>200.2</ele>
        <time>2024-04-07T09:48:53Z</time>
      </trkpt>
      <trkpt lat="44.0775" lon="1.99728">
        <ele>200.2</ele>
        <time>2024-04-07T09:48:54Z</time>
      </trkpt>
      <trkpt lat="44.07749" lon="1.99735">
        <ele>200.2</ele>
        <time>2024-04-07T09:48:55Z</time>
      </trkpt>
      <trkpt lat="44.07749" lon="1.99741">
        <ele>200.2</ele>
        <time>2024-04-07T09:48:56Z</time>
      </trkpt>
      <trkpt lat="44.07749" lon="1.99749">
        <ele>200.4</ele>
        <time>2024-04-07T09:48:57Z</time>
      </trkpt>
      <trkpt lat="44.07749" lon="1.99756">
        <ele>200.4</ele>
        <time>2024-04-07T09:48:58Z</time>
      </trkpt>
      <trkpt lat="44.07749" lon="1.99764">
        <ele>200.4</ele>
        <time>2024-04-07T09:48:59Z</time>
      </trkpt>
      <trkpt lat="44.07749" lon="1.99772">
        <ele>200.4</ele>
        <time>2024-04-07T09:49:00Z</time>
      </trkpt>
      <trkpt lat="44.07749" lon="1.99778">
        <ele>200.6</ele>
        <time>2024-04-07T09:49:01Z</time>
      </trkpt>
      <trkpt lat="44.07748" lon="1.99786">
        <ele>200.6</ele>
        <time>2024-04-07T09:49:02Z</time>
      </trkpt>
      <trkpt lat="44.07748" lon="1.99793">
        <ele>200.8</ele>
        <time>2024-04-07T09:49:03Z</time>
      </trkpt>
      <trkpt lat="44.07748" lon="1.99801">
        <ele>200.8</ele>
        <time>2024-04-07T09:49:04Z</time>
      </trkpt>
      <trkpt lat="44.07747" lon="1.99809">
        <ele>201</ele>
        <time>2024-04-07T09:49:05Z</time>
      </trkpt>
      <trkpt lat="44.07747" lon="1.99816">
        <ele>201</ele>
        <time>2024-04-07T09:49:06Z</time>
      </trkpt>
      <trkpt lat="44.07746" lon="1.99824">
        <ele>201</ele>
        <time>2024-04-07T09:49:07Z</time>
      </trkpt>
      <trkpt lat="44.07746" lon="1.99832">
        <ele>201</ele>
        <time>2024-04-07T09:49:08Z</time>
      </trkpt>
      <trkpt lat="44.07745" lon="1.9984">
        <ele>201.2</ele>
        <time>2024-04-07T09:49:09Z</time>
      </trkpt>
      <trkpt lat="44.07744" lon="1.99848">
        <ele>201.2</ele>
        <time>2024-04-07T09:49:10Z</time>
      </trkpt>
      <trkpt lat="44.07743" lon="1.99856">
        <ele>201.2</ele>
        <time>2024-04-07T09:49:11Z</time>
      </trkpt>
      <trkpt lat="44.07742" lon="1.99864">
        <ele>201.2</ele>
        <time>2024-04-07T09:49:12Z</time>
      </trkpt>
      <trkpt lat="44.07741" lon="1.99872">
        <ele>201.2</ele>
        <time>2024-04-07T09:49:13Z</time>
      </trkpt>
      <trkpt lat="44.0774" lon="1.9988">
        <ele>201.2</ele>
        <time>2024-04-07T09:49:14Z</time>
      </trkpt>
      <trkpt lat="44.0774" lon="1.99888">
        <ele>201.2</ele>
        <time>2024-04-07T09:49:15Z</time>
      </trkpt>
      <trkpt lat="44.07738" lon="1.99896">
        <ele>201.2</ele>
        <time>2024-04-07T09:49:16Z</time>
      </trkpt>
      <trkpt lat="44.07737" lon="1.99904">
        <ele>201</ele>
        <time>2024-04-07T09:49:17Z</time>
      </trkpt>
      <trkpt lat="44.07736" lon="1.99912">
        <ele>201</ele>
        <time>2024-04-07T09:49:18Z</time>
      </trkpt>
      <trkpt lat="44.07735" lon="1.99919">
        <ele>201</ele>
        <time>2024-04-07T09:49:19Z</time>
      </trkpt>
      <trkpt lat="44.07733" lon="1.99927">
        <ele>201</ele>
        <time>2024-04-07T09:49:20Z</time>
      </trkpt>
      <trkpt lat="44.07732" lon="1.99935">
        <ele>200.8</ele>
        <time>2024-04-07T09:49:21Z</time>
      </trkpt>
      <trkpt lat="44.0773" lon="1.99943">
        <ele>200.8</ele>
        <time>2024-04-07T09:49:22Z</time>
      </trkpt>
      <trkpt lat="44.07728" lon="1.99951">
        <ele>200.8</ele>
        <time>2024-04-07T09:49:23Z</time>
      </trkpt>
      <trkpt lat="44.07727" lon="1.99959">
        <ele>200.8</ele>
        <time>2024-04-07T09:49:24Z</time>
      </trkpt>
      <trkpt lat="44.07725" lon="1.99967">
        <ele>201</ele>
        <time>2024-04-07T09:49:25Z</time>
      </trkpt>
      <trkpt lat="44.07723" lon="1.99975">
        <ele>201</ele>
        <time>2024-04-07T09:49:26Z</time>
      </trkpt>
      <trkpt lat="44.07722" lon="1.99983">
        <ele>201</ele>
        <time>2024-04-07T09:49:27Z</time>
      </trkpt>
      <trkpt lat="44.0772" lon="1.9999">
        <ele>201</ele>
        <time>2024-04-07T09:49:28Z</time>
      </trkpt>
      <trkpt lat="44.07717" lon="2.00004">
        <ele>201.4</ele>
        <time>2024-04-07T09:49:30Z</time>
      </trkpt>
      <trkpt lat="44.07715" lon="2.00011">
        <ele>201.4</ele>
        <time>2024-04-07T09:49:31Z</time>
      </trkpt>
      <trkpt lat="44.07713" lon="2.00018">
        <ele>201.6</ele>
        <time>2024-04-07T09:49:32Z</time>
      </trkpt>
      <trkpt lat="44.07711" lon="2.00024">
        <ele>201.6</ele>
        <time>2024-04-07T09:49:33Z</time>
      </trkpt>
      <trkpt lat="44.07709" lon="2.0003">
        <ele>201.6</ele>
        <time>2024-04-07T09:49:34Z</time>
      </trkpt>
      <trkpt lat="44.07707" lon="2.00036">
        <ele>201.6</ele>
        <time>2024-04-07T09:49:35Z</time>
      </trkpt>
      <trkpt lat="44.07704" lon="2.0004">
        <ele>201.6</ele>
        <time>2024-04-07T09:49:36Z</time>
      </trkpt>
      <trkpt lat="44.07702" lon="2.00046">
        <ele>201.6</ele>
        <time>2024-04-07T09:49:37Z</time>
      </trkpt>
      <trkpt lat="44.07701" lon="2.00051">
        <ele>201.6</ele>
        <time>2024-04-07T09:49:38Z</time>
      </trkpt>
      <trkpt lat="44.07699" lon="2.00056">
        <ele>201.6</ele>
        <time>2024-04-07T09:49:39Z</time>
      </trkpt>
      <trkpt lat="44.07697" lon="2.00061">
        <ele>201.6</ele>
        <time>2024-04-07T09:49:40Z</time>
      </trkpt>
      <trkpt lat="44.07696" lon="2.00067">
        <ele>201.4</ele>
        <time>2024-04-07T09:49:41Z</time>
      </trkpt>
      <trkpt lat="44.07694" lon="2.00072">
        <ele>201.2</ele>
        <time>2024-04-07T09:49:42Z</time>
      </trkpt>
      <trkpt lat="44.07692" lon="2.00077">
        <ele>201.2</ele>
        <time>2024-04-07T09:49:43Z</time>
      </trkpt>
      <trkpt lat="44.07691" lon="2.00083">
        <ele>201.2</ele>
        <time>2024-04-07T09:49:44Z</time>
      </trkpt>
      <trkpt lat="44.07689" lon="2.00089">
        <ele>201.2</ele>
        <time>2024-04-07T09:49:45Z</time>
      </trkpt>
      <trkpt lat="44.07688" lon="2.00096">
        <ele>201.2</ele>
        <time>2024-04-07T09:49:46Z</time>
      </trkpt>
      <trkpt lat="44.07687" lon="2.00104">
        <ele>201.2</ele>
        <time>2024-04-07T09:49:47Z</time>
      </trkpt>
      <trkpt lat="44.07685" lon="2.00112">
        <ele>201.2</ele>
        <time>2024-04-07T09:49:48Z</time>
      </trkpt>
      <trkpt lat="44.07683" lon="2.00119">
        <ele>201.2</ele>
        <time>2024-04-07T09:49:49Z</time>
      </trkpt>
      <trkpt lat="44.07681" lon="2.00126">
        <ele>201.2</ele>
        <time>2024-04-07T09:49:50Z</time>
      </trkpt>
      <trkpt lat="44.07678" lon="2.00133">
        <ele>201.2</ele>
        <time>2024-04-07T09:49:51Z</time>
      </trkpt>
      <trkpt lat="44.07676" lon="2.0014">
        <ele>201.2</ele>
        <time>2024-04-07T09:49:52Z</time>
      </trkpt>
      <trkpt lat="44.07674" lon="2.00147">
        <ele>201.2</ele>
        <time>2024-04-07T09:49:53Z</time>
      </trkpt>
      <trkpt lat="44.07672" lon="2.00155">
        <ele>201.2</ele>
        <time>2024-04-07T09:49:54Z</time>
      </trkpt>
      <trkpt lat="44.07668" lon="2.00163">
        <ele>201.2</ele>
        <time>2024-04-07T09:49:55Z</time>
      </trkpt>
      <trkpt lat="44.07666" lon="2.00171">
        <ele>201.2</ele>
        <time>2024-04-07T09:49:56Z</time>
      </trkpt>
      <trkpt lat="44.07663" lon="2.00179">
        <ele>201.2</ele>
        <time>2024-04-07T09:49:57Z</time>
      </trkpt>
      <trkpt lat="44.07661" lon="2.00186">
        <ele>201.2</ele>
        <time>2024-04-07T09:49:58Z</time>
      </trkpt>
      <trkpt lat="44.0766" lon="2.00193">
        <ele>201.2</ele>
        <time>2024-04-07T09:49:59Z</time>
      </trkpt>
      <trkpt lat="44.07658" lon="2.00202">
        <ele>201.4</ele>
        <time>2024-04-07T09:50:00Z</time>
      </trkpt>
      <trkpt lat="44.07656" lon="2.0021">
        <ele>201.2</ele>
        <time>2024-04-07T09:50:01Z</time>
      </trkpt>
      <trkpt lat="44.07654" lon="2.00219">
        <ele>201.4</ele>
        <time>2024-04-07T09:50:02Z</time>
      </trkpt>
      <trkpt lat="44.07652" lon="2.00225">
        <ele>201.2</ele>
        <time>2024-04-07T09:50:03Z</time>
      </trkpt>
      <trkpt lat="44.07649" lon="2.00232">
        <ele>201.2</ele>
        <time>2024-04-07T09:50:04Z</time>
      </trkpt>
      <trkpt lat="44.07647" lon="2.00239">
        <ele>201.4</ele>
        <time>2024-04-07T09:50:05Z</time>
      </trkpt>
      <trkpt lat="44.07644" lon="2.00246">
        <ele>201.4</ele>
        <time>2024-04-07T09:50:06Z</time>
      </trkpt>
      <trkpt lat="44.07642" lon="2.00254">
        <ele>201.6</ele>
        <time>2024-04-07T09:50:07Z</time>
      </trkpt>
      <trkpt lat="44.0764" lon="2.00261">
        <ele>201.8</ele>
        <time>2024-04-07T09:50:08Z</time>
      </trkpt>
      <trkpt lat="44.07638" lon="2.00268">
        <ele>202.2</ele>
        <time>2024-04-07T09:50:09Z</time>
      </trkpt>
      <trkpt lat="44.07634" lon="2.00276">
        <ele>202.2</ele>
        <time>2024-04-07T09:50:10Z</time>
      </trkpt>
      <trkpt lat="44.07631" lon="2.00285">
        <ele>202.2</ele>
        <time>2024-04-07T09:50:11Z</time>
      </trkpt>
      <trkpt lat="44.0763" lon="2.00293">
        <ele>202.4</ele>
        <time>2024-04-07T09:50:12Z</time>
      </trkpt>
      <trkpt lat="44.07628" lon="2.003">
        <ele>202.4</ele>
        <time>2024-04-07T09:50:13Z</time>
      </trkpt>
      <trkpt lat="44.07626" lon="2.00308">
        <ele>202.4</ele>
        <time>2024-04-07T09:50:14Z</time>
      </trkpt>
      <trkpt lat="44.07624" lon="2.00315">
        <ele>202.4</ele>
        <time>2024-04-07T09:50:15Z</time>
      </trkpt>
      <trkpt lat="44.07622" lon="2.00323">
        <ele>202.4</ele>
        <time>2024-04-07T09:50:16Z</time>
      </trkpt>
      <trkpt lat="44.0762" lon="2.0033">
        <ele>202.4</ele>
        <time>2024-04-07T09:50:17Z</time>
      </trkpt>
      <trkpt lat="44.07618" lon="2.00337">
        <ele>202.4</ele>
        <time>2024-04-07T09:50:18Z</time>
      </trkpt>
      <trkpt lat="44.07616" lon="2.00345">
        <ele>202.4</ele>
        <time>2024-04-07T09:50:19Z</time>
      </trkpt>
      <trkpt lat="44.07614" lon="2.00352">
        <ele>202.4</ele>
        <time>2024-04-07T09:50:20Z</time>
      </trkpt>
      <trkpt lat="44.07612" lon="2.00359">
        <ele>202.4</ele>
        <time>2024-04-07T09:50:21Z</time>
      </trkpt>
      <trkpt lat="44.0761" lon="2.00366">
        <ele>202.4</ele>
        <time>2024-04-07T09:50:22Z</time>
      </trkpt>
      <trkpt lat="44.07608" lon="2.00372">
        <ele>202.2</ele>
        <time>2024-04-07T09:50:23Z</time>
      </trkpt>
      <trkpt lat="44.07606" lon="2.00377">
        <ele>202.2</ele>
        <time>2024-04-07T09:50:24Z</time>
      </trkpt>
      <trkpt lat="44.07605" lon="2.00382">
        <ele>202</ele>
        <time>2024-04-07T09:50:25Z</time>
      </trkpt>
      <trkpt lat="44.07604" lon="2.00386">
        <ele>201.8</ele>
        <time>2024-04-07T09:50:26Z</time>
      </trkpt>
      <trkpt lat="44.07603" lon="2.00391">
        <ele>201.6</ele>
        <time>2024-04-07T09:50:27Z</time>
      </trkpt>
      <trkpt lat="44.07601" lon="2.00393">
        <ele>201.6</ele>
        <time>2024-04-07T09:50:28Z</time>
      </trkpt>
      <trkpt lat="44.076" lon="2.00395">
        <ele>201.4</ele>
        <time>2024-04-07T09:50:29Z</time>
      </trkpt>
      <trkpt lat="44.07599" lon="2.00399">
        <ele>201.4</ele>
        <time>2024-04-07T09:50:30Z</time>
      </trkpt>
      <trkpt lat="44.07599" lon="2.00403">
        <ele>201.4</ele>
        <time>2024-04-07T09:50:31Z</time>
      </trkpt>
      <trkpt lat="44.07598" lon="2.00406">
        <ele>201.4</ele>
        <time>2024-04-07T09:50:32Z</time>
      </trkpt>
      <trkpt lat="44.07597" lon="2.00411">
        <ele>201.4</ele>
        <time>2024-04-07T09:50:33Z</time>
      </trkpt>
      <trkpt lat="44.07594" lon="2.00418">
        <ele>201.4</ele>
        <time>2024-04-07T09:50:35Z</time>
      </trkpt>
      <trkpt lat="44.07593" lon="2.00423">
        <ele>201.4</ele>
        <time>2024-04-07T09:50:36Z</time>
      </trkpt>
      <trkpt lat="44.07591" lon="2.00429">
        <ele>201.4</ele>
        <time>2024-04-07T09:50:37Z</time>
      </trkpt>
      <trkpt lat="44.0759" lon="2.00434">
        <ele>201.4</ele>
        <time>2024-04-07T09:50:38Z</time>
      </trkpt>
      <trkpt lat="44.0759" lon="2.00438">
        <ele>201.6</ele>
        <time>2024-04-07T09:50:39Z</time>
      </trkpt>
      <trkpt lat="44.07588" lon="2.00442">
        <ele>201.6</ele>
        <time>2024-04-07T09:50:40Z</time>
      </trkpt>
      <trkpt lat="44.07587" lon="2.00444">
        <ele>201.8</ele>
        <time>2024-04-07T09:50:41Z</time>
      </trkpt>
      <trkpt lat="44.07587" lon="2.00447">
        <ele>201.8</ele>
        <time>2024-04-07T09:50:42Z</time>
      </trkpt>
      <trkpt lat="44.07586" lon="2.00451">
        <ele>201.8</ele>
        <time>2024-04-07T09:50:43Z</time>
      </trkpt>
      <trkpt lat="44.07585" lon="2.00457">
        <ele>201.8</ele>
        <time>2024-04-07T09:50:44Z</time>
      </trkpt>
      <trkpt lat="44.07584" lon="2.00463">
        <ele>201.8</ele>
        <time>2024-04-07T09:50:45Z</time>
      </trkpt>
      <trkpt lat="44.07581" lon="2.00469">
        <ele>202.2</ele>
        <time>2024-04-07T09:50:46Z</time>
      </trkpt>
      <trkpt lat="44.07579" lon="2.00476">
        <ele>202.2</ele>
        <time>2024-04-07T09:50:47Z</time>
      </trkpt>
      <trkpt lat="44.07575" lon="2.00491">
        <ele>202.4</ele>
        <time>2024-04-07T09:50:49Z</time>
      </trkpt>
      <trkpt lat="44.07574" lon="2.00497">
        <ele>202.4</ele>
        <time>2024-04-07T09:50:50Z</time>
      </trkpt>
      <trkpt lat="44.07572" lon="2.00503">
        <ele>202.4</ele>
        <time>2024-04-07T09:50:51Z</time>
      </trkpt>
      <trkpt lat="44.07571" lon="2.00509">
        <ele>202.4</ele>
        <time>2024-04-07T09:50:52Z</time>
      </trkpt>
      <trkpt lat="44.0757" lon="2.00515">
        <ele>202.4</ele>
        <time>2024-04-07T09:50:53Z</time>
      </trkpt>
      <trkpt lat="44.07569" lon="2.00521">
        <ele>202.4</ele>
        <time>2024-04-07T09:50:54Z</time>
      </trkpt>
      <trkpt lat="44.07567" lon="2.00528">
        <ele>202.8</ele>
        <time>2024-04-07T09:50:55Z</time>
      </trkpt>
      <trkpt lat="44.07564" lon="2.00535">
        <ele>202.8</ele>
        <time>2024-04-07T09:50:56Z</time>
      </trkpt>
      <trkpt lat="44.07561" lon="2.00542">
        <ele>202.8</ele>
        <time>2024-04-07T09:50:57Z</time>
      </trkpt>
      <trkpt lat="44.07558" lon="2.00549">
        <ele>202.8</ele>
        <time>2024-04-07T09:50:58Z</time>
      </trkpt>
      <trkpt lat="44.07554" lon="2.00556">
        <ele>202.8</ele>
        <time>2024-04-07T09:50:59Z</time>
      </trkpt>
      <trkpt lat="44.07552" lon="2.00563">
        <ele>202.8</ele>
        <time>2024-04-07T09:51:00Z</time>
      </trkpt>
      <trkpt lat="44.0755" lon="2.0057">
        <ele>202.8</ele>
        <time>2024-04-07T09:51:01Z</time>
      </trkpt>
      <trkpt lat="44.07548" lon="2.00578">
        <ele>202.8</ele>
        <time>2024-04-07T09:51:02Z</time>
      </trkpt>
      <trkpt lat="44.07547" lon="2.00583">
        <ele>202.8</ele>
        <time>2024-04-07T09:51:03Z</time>
      </trkpt>
      <trkpt lat="44.07545" lon="2.00589">
        <ele>202.8</ele>
        <time>2024-04-07T09:51:04Z</time>
      </trkpt>
      <trkpt lat="44.07543" lon="2.00597">
        <ele>202.8</ele>
        <time>2024-04-07T09:51:05Z</time>
      </trkpt>
      <trkpt lat="44.07542" lon="2.00603">
        <ele>202.8</ele>
        <time>2024-04-07T09:51:06Z</time>
      </trkpt>
      <trkpt lat="44.0754" lon="2.00609">
        <ele>202.8</ele>
        <time>2024-04-07T09:51:07Z</time>
      </trkpt>
      <trkpt lat="44.07538" lon="2.00615">
        <ele>202.8</ele>
        <time>2024-04-07T09:51:08Z</time>
      </trkpt>
      <trkpt lat="44.07537" lon="2.00621">
        <ele>202.8</ele>
        <time>2024-04-07T09:51:09Z</time>
      </trkpt>
      <trkpt lat="44.07535" lon="2.00628">
        <ele>202.8</ele>
        <time>2024-04-07T09:51:10Z</time>
      </trkpt>
      <trkpt lat="44.07533" lon="2.00636">
        <ele>203</ele>
        <time>2024-04-07T09:51:11Z</time>
      </trkpt>
      <trkpt lat="44.07532" lon="2.00641">
        <ele>203</ele>
        <time>2024-04-07T09:51:12Z</time>
      </trkpt>
      <trkpt lat="44.07531" lon="2.00648">
        <ele>203</ele>
        <time>2024-04-07T09:51:13Z</time>
      </trkpt>
      <trkpt lat="44.07529" lon="2.00655">
        <ele>203</ele>
        <time>2024-04-07T09:51:14Z</time>
      </trkpt>
      <trkpt lat="44.07527" lon="2.00661">
        <ele>203</ele>
        <time>2024-04-07T09:51:15Z</time>
      </trkpt>
      <trkpt lat="44.07525" lon="2.00668">
        <ele>203</ele>
        <time>2024-04-07T09:51:16Z</time>
      </trkpt>
      <trkpt lat="44.07523" lon="2.00674">
        <ele>203</ele>
        <time>2024-04-07T09:51:17Z</time>
      </trkpt>
      <trkpt lat="44.07522" lon="2.00681">
        <ele>203</ele>
        <time>2024-04-07T09:51:18Z</time>
      </trkpt>
      <trkpt lat="44.07521" lon="2.00689">
        <ele>203</ele>
        <time>2024-04-07T09:51:19Z</time>
      </trkpt>
      <trkpt lat="44.0752" lon="2.00695">
        <ele>203</ele>
        <time>2024-04-07T09:51:20Z</time>
      </trkpt>
      <trkpt lat="44.07519" lon="2.00701">
        <ele>203</ele>
        <time>2024-04-07T09:51:21Z</time>
      </trkpt>
      <trkpt lat="44.07518" lon="2.00708">
        <ele>203</ele>
        <time>2024-04-07T09:51:22Z</time>
      </trkpt>
      <trkpt lat="44.07517" lon="2.00714">
        <ele>203</ele>
        <time>2024-04-07T09:51:23Z</time>
      </trkpt>
      <trkpt lat="44.07515" lon="2.0072">
        <ele>203</ele>
        <time>2024-04-07T09:51:24Z</time>
      </trkpt>
      <trkpt lat="44.07514" lon="2.00726">
        <ele>203</ele>
        <time>2024-04-07T09:51:25Z</time>
      </trkpt>
      <trkpt lat="44.07513" lon="2.00731">
        <ele>203</ele>
        <time>2024-04-07T09:51:26Z</time>
      </trkpt>
      <trkpt lat="44.07512" lon="2.00737">
        <ele>203.4</ele>
        <time>2024-04-07T09:51:27Z</time>
      </trkpt>
      <trkpt lat="44.07512" lon="2.00744">
        <ele>203.4</ele>
        <time>2024-04-07T09:51:28Z</time>
      </trkpt>
      <trkpt lat="44.07511" lon="2.00751">
        <ele>203.6</ele>
        <time>2024-04-07T09:51:29Z</time>
      </trkpt>
      <trkpt lat="44.07511" lon="2.00758">
        <ele>203.6</ele>
        <time>2024-04-07T09:51:30Z</time>
      </trkpt>
      <trkpt lat="44.0751" lon="2.00766">
        <ele>203.6</ele>
        <time>2024-04-07T09:51:31Z</time>
      </trkpt>
      <trkpt lat="44.07509" lon="2.00773">
        <ele>203.6</ele>
        <time>2024-04-07T09:51:32Z</time>
      </trkpt>
      <trkpt lat="44.07509" lon="2.00781">
        <ele>203.6</ele>
        <time>2024-04-07T09:51:33Z</time>
      </trkpt>
      <trkpt lat="44.07509" lon="2.00789">
        <ele>203.6</ele>
        <time>2024-04-07T09:51:34Z</time>
      </trkpt>
      <trkpt lat="44.07509" lon="2.00797">
        <ele>203.6</ele>
        <time>2024-04-07T09:51:35Z</time>
      </trkpt>
      <trkpt lat="44.07509" lon="2.00804">
        <ele>203.6</ele>
        <time>2024-04-07T09:51:36Z</time>
      </trkpt>
      <trkpt lat="44.07509" lon="2.00811">
        <ele>203.6</ele>
        <time>2024-04-07T09:51:37Z</time>
      </trkpt>
      <trkpt lat="44.07509" lon="2.00817">
        <ele>203.6</ele>
        <time>2024-04-07T09:51:38Z</time>
      </trkpt>
      <trkpt lat="44.0751" lon="2.00824">
        <ele>203.6</ele>
        <time>2024-04-07T09:51:39Z</time>
      </trkpt>
      <trkpt lat="44.0751" lon="2.00831">
        <ele>203.6</ele>
        <time>2024-04-07T09:51:40Z</time>
      </trkpt>
      <trkpt lat="44.07511" lon="2.00838">
        <ele>203.4</ele>
        <time>2024-04-07T09:51:41Z</time>
      </trkpt>
      <trkpt lat="44.07511" lon="2.00846">
        <ele>203.4</ele>
        <time>2024-04-07T09:51:42Z</time>
      </trkpt>
      <trkpt lat="44.07512" lon="2.00853">
        <ele>203.4</ele>
        <time>2024-04-07T09:51:43Z</time>
      </trkpt>
      <trkpt lat="44.07513" lon="2.00859">
        <ele>203.4</ele>
        <time>2024-04-07T09:51:44Z</time>
      </trkpt>
      <trkpt lat="44.07514" lon="2.00866">
        <ele>203.4</ele>
        <time>2024-04-07T09:51:45Z</time>
      </trkpt>
      <trkpt lat="44.07514" lon="2.00872">
        <ele>203.4</ele>
        <time>2024-04-07T09:51:46Z</time>
      </trkpt>
      <trkpt lat="44.07515" lon="2.00879">
        <ele>203.4</ele>
        <time>2024-04-07T09:51:47Z</time>
      </trkpt>
      <trkpt lat="44.07517" lon="2.00886">
        <ele>203.4</ele>
        <time>2024-04-07T09:51:48Z</time>
      </trkpt>
      <trkpt lat="44.07518" lon="2.00892">
        <ele>203.4</ele>
        <time>2024-04-07T09:51:49Z</time>
      </trkpt>
      <trkpt lat="44.07519" lon="2.00898">
        <ele>203.4</ele>
        <time>2024-04-07T09:51:50Z</time>
      </trkpt>
      <trkpt lat="44.07521" lon="2.00905">
        <ele>203.4</ele>
        <time>2024-04-07T09:51:51Z</time>
      </trkpt>
      <trkpt lat="44.07522" lon="2.00912">
        <ele>203.4</ele>
        <time>2024-04-07T09:51:52Z</time>
      </trkpt>
      <trkpt lat="44.07524" lon="2.00919">
        <ele>203.4</ele>
        <time>2024-04-07T09:51:53Z</time>
      </trkpt>
      <trkpt lat="44.07526" lon="2.00925">
        <ele>203.4</ele>
        <time>2024-04-07T09:51:54Z</time>
      </trkpt>
      <trkpt lat="44.07527" lon="2.00932">
        <ele>203.4</ele>
        <time>2024-04-07T09:51:55Z</time>
      </trkpt>
      <trkpt lat="44.07529" lon="2.00939">
        <ele>203.6</ele>
        <time>2024-04-07T09:51:56Z</time>
      </trkpt>
      <trkpt lat="44.07531" lon="2.00945">
        <ele>203.6</ele>
        <time>2024-04-07T09:51:57Z</time>
      </trkpt>
      <trkpt lat="44.07533" lon="2.00952">
        <ele>203.6</ele>
        <time>2024-04-07T09:51:58Z</time>
      </trkpt>
      <trkpt lat="44.07535" lon="2.00958">
        <ele>203.6</ele>
        <time>2024-04-07T09:51:59Z</time>
      </trkpt>
      <trkpt lat="44.07537" lon="2.00965">
        <ele>203.6</ele>
        <time>2024-04-07T09:52:00Z</time>
      </trkpt>
      <trkpt lat="44.0754" lon="2.00973">
        <ele>203.8</ele>
        <time>2024-04-07T09:52:01Z</time>
      </trkpt>
      <trkpt lat="44.07542" lon="2.00979">
        <ele>203.8</ele>
        <time>2024-04-07T09:52:02Z</time>
      </trkpt>
      <trkpt lat="44.07548" lon="2.00991">
        <ele>203.8</ele>
        <time>2024-04-07T09:52:04Z</time>
      </trkpt>
      <trkpt lat="44.07551" lon="2.00997">
        <ele>203.8</ele>
        <time>2024-04-07T09:52:05Z</time>
      </trkpt>
      <trkpt lat="44.07554" lon="2.01003">
        <ele>203.8</ele>
        <time>2024-04-07T09:52:06Z</time>
      </trkpt>
      <trkpt lat="44.07557" lon="2.01009">
        <ele>203.8</ele>
        <time>2024-04-07T09:52:07Z</time>
      </trkpt>
      <trkpt lat="44.0756" lon="2.01015">
        <ele>204</ele>
        <time>2024-04-07T09:52:08Z</time>
      </trkpt>
      <trkpt lat="44.07564" lon="2.01021">
        <ele>204</ele>
        <time>2024-04-07T09:52:09Z</time>
      </trkpt>
      <trkpt lat="44.07567" lon="2.01028">
        <ele>204</ele>
        <time>2024-04-07T09:52:10Z</time>
      </trkpt>
      <trkpt lat="44.07569" lon="2.01032">
        <ele>204</ele>
        <time>2024-04-07T09:52:11Z</time>
      </trkpt>
      <trkpt lat="44.07573" lon="2.01038">
        <ele>204</ele>
        <time>2024-04-07T09:52:12Z</time>
      </trkpt>
      <trkpt lat="44.07576" lon="2.01043">
        <ele>204.2</ele>
        <time>2024-04-07T09:52:13Z</time>
      </trkpt>
      <trkpt lat="44.07583" lon="2.01053">
        <ele>204.2</ele>
        <time>2024-04-07T09:52:15Z</time>
      </trkpt>
      <trkpt lat="44.07589" lon="2.01065">
        <ele>204.4</ele>
        <time>2024-04-07T09:52:17Z</time>
      </trkpt>
      <trkpt lat="44.07597" lon="2.01076">
        <ele>204.4</ele>
        <time>2024-04-07T09:52:19Z</time>
      </trkpt>
      <trkpt lat="44.07601" lon="2.0108">
        <ele>204.4</ele>
        <time>2024-04-07T09:52:20Z</time>
      </trkpt>
      <trkpt lat="44.07605" lon="2.01085">
        <ele>204.4</ele>
        <time>2024-04-07T09:52:21Z</time>
      </trkpt>
      <trkpt lat="44.07609" lon="2.01089">
        <ele>204.4</ele>
        <time>2024-04-07T09:52:22Z</time>
      </trkpt>
      <trkpt lat="44.07614" lon="2.01094">
        <ele>204.4</ele>
        <time>2024-04-07T09:52:23Z</time>
      </trkpt>
      <trkpt lat="44.07619" lon="2.01099">
        <ele>204.6</ele>
        <time>2024-04-07T09:52:24Z</time>
      </trkpt>
      <trkpt lat="44.07624" lon="2.01104">
        <ele>204.8</ele>
        <time>2024-04-07T09:52:25Z</time>
      </trkpt>
      <trkpt lat="44.07629" lon="2.01108">
        <ele>204.8</ele>
        <time>2024-04-07T09:52:26Z</time>
      </trkpt>
      <trkpt lat="44.07634" lon="2.01113">
        <ele>204.8</ele>
        <time>2024-04-07T09:52:27Z</time>
      </trkpt>
      <trkpt lat="44.07639" lon="2.01117">
        <ele>204.8</ele>
        <time>2024-04-07T09:52:28Z</time>
      </trkpt>
      <trkpt lat="44.07643" lon="2.01121">
        <ele>204.8</ele>
        <time>2024-04-07T09:52:29Z</time>
      </trkpt>
      <trkpt lat="44.07648" lon="2.01125">
        <ele>204.8</ele>
        <time>2024-04-07T09:52:30Z</time>
      </trkpt>
      <trkpt lat="44.07652" lon="2.01128">
        <ele>204.8</ele>
        <time>2024-04-07T09:52:31Z</time>
      </trkpt>
      <trkpt lat="44.07656" lon="2.01132">
        <ele>204.8</ele>
        <time>2024-04-07T09:52:32Z</time>
      </trkpt>
      <trkpt lat="44.0766" lon="2.01134">
        <ele>204.8</ele>
        <time>2024-04-07T09:52:33Z</time>
      </trkpt>
      <trkpt lat="44.07665" lon="2.01138">
        <ele>205</ele>
        <time>2024-04-07T09:52:34Z</time>
      </trkpt>
      <trkpt lat="44.0767" lon="2.01141">
        <ele>205</ele>
        <time>2024-04-07T09:52:35Z</time>
      </trkpt>
      <trkpt lat="44.07674" lon="2.01144">
        <ele>205</ele>
        <time>2024-04-07T09:52:36Z</time>
      </trkpt>
      <trkpt lat="44.07683" lon="2.0115">
        <ele>205</ele>
        <time>2024-04-07T09:52:38Z</time>
      </trkpt>
      <trkpt lat="44.07688" lon="2.01152">
        <ele>205.2</ele>
        <time>2024-04-07T09:52:39Z</time>
      </trkpt>
      <trkpt lat="44.07691" lon="2.01153">
        <ele>205.2</ele>
        <time>2024-04-07T09:52:40Z</time>
      </trkpt>
      <trkpt lat="44.07695" lon="2.01155">
        <ele>205.2</ele>
        <time>2024-04-07T09:52:41Z</time>
      </trkpt>
      <trkpt lat="44.07699" lon="2.01157">
        <ele>205.2</ele>
        <time>2024-04-07T09:52:42Z</time>
      </trkpt>
      <trkpt lat="44.07704" lon="2.01158">
        <ele>205.2</ele>
        <time>2024-04-07T09:52:43Z</time>
      </trkpt>
      <trkpt lat="44.0771" lon="2.0116">
        <ele>205.2</ele>
        <time>2024-04-07T09:52:44Z</time>
      </trkpt>
      <trkpt lat="44.07721" lon="2.01165">
        <ele>205.2</ele>
        <time>2024-04-07T09:52:46Z</time>
      </trkpt>
      <trkpt lat="44.07726" lon="2.01167">
        <ele>205.4</ele>
        <time>2024-04-07T09:52:47Z</time>
      </trkpt>
      <trkpt lat="44.07731" lon="2.0117">
        <ele>205.4</ele>
        <time>2024-04-07T09:52:48Z</time>
      </trkpt>
      <trkpt lat="44.07736" lon="2.01172">
        <ele>205.6</ele>
        <time>2024-04-07T09:52:49Z</time>
      </trkpt>
      <trkpt lat="44.07741" lon="2.01174">
        <ele>205.6</ele>
        <time>2024-04-07T09:52:50Z</time>
      </trkpt>
      <trkpt lat="44.07751" lon="2.01178">
        <ele>205.8</ele>
        <time>2024-04-07T09:52:52Z</time>
      </trkpt>
      <trkpt lat="44.07756" lon="2.01181">
        <ele>205.8</ele>
        <time>2024-04-07T09:52:53Z</time>
      </trkpt>
      <trkpt lat="44.07761" lon="2.01183">
        <ele>205.8</ele>
        <time>2024-04-07T09:52:54Z</time>
      </trkpt>
      <trkpt lat="44.07768" lon="2.01184">
        <ele>205.8</ele>
        <time>2024-04-07T09:52:55Z</time>
      </trkpt>
      <trkpt lat="44.07773" lon="2.01187">
        <ele>206</ele>
        <time>2024-04-07T09:52:56Z</time>
      </trkpt>
      <trkpt lat="44.07779" lon="2.01189">
        <ele>206</ele>
        <time>2024-04-07T09:52:57Z</time>
      </trkpt>
      <trkpt lat="44.07792" lon="2.01194">
        <ele>206</ele>
        <time>2024-04-07T09:52:59Z</time>
      </trkpt>
      <trkpt lat="44.07797" lon="2.01196">
        <ele>206</ele>
        <time>2024-04-07T09:53:00Z</time>
      </trkpt>
      <trkpt lat="44.07807" lon="2.01201">
        <ele>206</ele>
        <time>2024-04-07T09:53:02Z</time>
      </trkpt>
      <trkpt lat="44.07814" lon="2.01203">
        <ele>206</ele>
        <time>2024-04-07T09:53:03Z</time>
      </trkpt>
      <trkpt lat="44.07825" lon="2.01207">
        <ele>206</ele>
        <time>2024-04-07T09:53:05Z</time>
      </trkpt>
      <trkpt lat="44.0783" lon="2.0121">
        <ele>206</ele>
        <time>2024-04-07T09:53:06Z</time>
      </trkpt>
      <trkpt lat="44.0784" lon="2.01215">
        <ele>206</ele>
        <time>2024-04-07T09:53:08Z</time>
      </trkpt>
      <trkpt lat="44.07845" lon="2.01216">
        <ele>206</ele>
        <time>2024-04-07T09:53:09Z</time>
      </trkpt>
      <trkpt lat="44.07851" lon="2.01218">
        <ele>206.2</ele>
        <time>2024-04-07T09:53:10Z</time>
      </trkpt>
      <trkpt lat="44.07858" lon="2.0122">
        <ele>206.2</ele>
        <time>2024-04-07T09:53:11Z</time>
      </trkpt>
      <trkpt lat="44.07864" lon="2.01223">
        <ele>206.4</ele>
        <time>2024-04-07T09:53:12Z</time>
      </trkpt>
      <trkpt lat="44.07869" lon="2.01227">
        <ele>206.4</ele>
        <time>2024-04-07T09:53:13Z</time>
      </trkpt>
      <trkpt lat="44.07875" lon="2.0123">
        <ele>206.4</ele>
        <time>2024-04-07T09:53:14Z</time>
      </trkpt>
      <trkpt lat="44.0788" lon="2.01234">
        <ele>206.4</ele>
        <time>2024-04-07T09:53:15Z</time>
      </trkpt>
      <trkpt lat="44.07887" lon="2.01237">
        <ele>206.4</ele>
        <time>2024-04-07T09:53:16Z</time>
      </trkpt>
      <trkpt lat="44.07892" lon="2.01241">
        <ele>206.6</ele>
        <time>2024-04-07T09:53:17Z</time>
      </trkpt>
      <trkpt lat="44.07897" lon="2.01245">
        <ele>206.6</ele>
        <time>2024-04-07T09:53:18Z</time>
      </trkpt>
      <trkpt lat="44.07902" lon="2.01249">
        <ele>206.8</ele>
        <time>2024-04-07T09:53:19Z</time>
      </trkpt>
      <trkpt lat="44.07906" lon="2.01254">
        <ele>206.8</ele>
        <time>2024-04-07T09:53:20Z</time>
      </trkpt>
      <trkpt lat="44.07911" lon="2.01258">
        <ele>206.8</ele>
        <time>2024-04-07T09:53:21Z</time>
      </trkpt>
      <trkpt lat="44.07916" lon="2.01263">
        <ele>206.8</ele>
        <time>2024-04-07T09:53:22Z</time>
      </trkpt>
      <trkpt lat="44.07921" lon="2.01267">
        <ele>206.8</ele>
        <time>2024-04-07T09:53:23Z</time>
      </trkpt>
      <trkpt lat="44.07926" lon="2.01272">
        <ele>206.8</ele>
        <time>2024-04-07T09:53:24Z</time>
      </trkpt>
      <trkpt lat="44.07931" lon="2.01277">
        <ele>206.8</ele>
        <time>2024-04-07T09:53:25Z</time>
      </trkpt>
      <trkpt lat="44.07936" lon="2.01282">
        <ele>206.8</ele>
        <time>2024-04-07T09:53:26Z</time>
      </trkpt>
      <trkpt lat="44.07942" lon="2.01288">
        <ele>206.8</ele>
        <time>2024-04-07T09:53:27Z</time>
      </trkpt>
      <trkpt lat="44.07947" lon="2.01293">
        <ele>206.8</ele>
        <time>2024-04-07T09:53:28Z</time>
      </trkpt>
      <trkpt lat="44.07953" lon="2.01304">
        <ele>206.8</ele>
        <time>2024-04-07T09:53:30Z</time>
      </trkpt>
      <trkpt lat="44.07956" lon="2.0131">
        <ele>206.8</ele>
        <time>2024-04-07T09:53:31Z</time>
      </trkpt>
      <trkpt lat="44.0796" lon="2.01315">
        <ele>206.8</ele>
        <time>2024-04-07T09:53:32Z</time>
      </trkpt>
      <trkpt lat="44.07963" lon="2.01321">
        <ele>206.8</ele>
        <time>2024-04-07T09:53:33Z</time>
      </trkpt>
      <trkpt lat="44.07966" lon="2.01327">
        <ele>206.8</ele>
        <time>2024-04-07T09:53:34Z</time>
      </trkpt>
      <trkpt lat="44.0797" lon="2.01333">
        <ele>206.8</ele>
        <time>2024-04-07T09:53:35Z</time>
      </trkpt>
      <trkpt lat="44.07973" lon="2.01339">
        <ele>206.8</ele>
        <time>2024-04-07T09:53:36Z</time>
      </trkpt>
      <trkpt lat="44.07977" lon="2.01345">
        <ele>207</ele>
        <time>2024-04-07T09:53:37Z</time>
      </trkpt>
      <trkpt lat="44.0798" lon="2.01351">
        <ele>207</ele>
        <time>2024-04-07T09:53:38Z</time>
      </trkpt>
      <trkpt lat="44.07983" lon="2.01356">
        <ele>207</ele>
        <time>2024-04-07T09:53:39Z</time>
      </trkpt>
      <trkpt lat="44.07987" lon="2.01362">
        <ele>207</ele>
        <time>2024-04-07T09:53:40Z</time>
      </trkpt>
      <trkpt lat="44.0799" lon="2.01369">
        <ele>207</ele>
        <time>2024-04-07T09:53:41Z</time>
      </trkpt>
      <trkpt lat="44.07993" lon="2.01375">
        <ele>207.2</ele>
        <time>2024-04-07T09:53:42Z</time>
      </trkpt>
      <trkpt lat="44.07996" lon="2.01381">
        <ele>207.2</ele>
        <time>2024-04-07T09:53:43Z</time>
      </trkpt>
      <trkpt lat="44.08" lon="2.01387">
        <ele>207.2</ele>
        <time>2024-04-07T09:53:44Z</time>
      </trkpt>
      <trkpt lat="44.08003" lon="2.01394">
        <ele>207.2</ele>
        <time>2024-04-07T09:53:45Z</time>
      </trkpt>
      <trkpt lat="44.08006" lon="2.014">
        <ele>207.2</ele>
        <time>2024-04-07T09:53:46Z</time>
      </trkpt>
      <trkpt lat="44.0801" lon="2.01407">
        <ele>207.2</ele>
        <time>2024-04-07T09:53:47Z</time>
      </trkpt>
      <trkpt lat="44.08014" lon="2.01414">
        <ele>207.2</ele>
        <time>2024-04-07T09:53:48Z</time>
      </trkpt>
      <trkpt lat="44.08015" lon="2.01421">
        <ele>207.2</ele>
        <time>2024-04-07T09:53:49Z</time>
      </trkpt>
      <trkpt lat="44.08017" lon="2.01428">
        <ele>207.2</ele>
        <time>2024-04-07T09:53:50Z</time>
      </trkpt>
      <trkpt lat="44.08019" lon="2.01435">
        <ele>207.4</ele>
        <time>2024-04-07T09:53:51Z</time>
      </trkpt>
      <trkpt lat="44.08021" lon="2.01443">
        <ele>207.4</ele>
        <time>2024-04-07T09:53:52Z</time>
      </trkpt>
      <trkpt lat="44.08018" lon="2.01451">
        <ele>207.4</ele>
        <time>2024-04-07T09:53:53Z</time>
      </trkpt>
      <trkpt lat="44.08019" lon="2.01459">
        <ele>207.4</ele>
        <time>2024-04-07T09:53:54Z</time>
      </trkpt>
      <trkpt lat="44.0802" lon="2.01466">
        <ele>207.4</ele>
        <time>2024-04-07T09:53:55Z</time>
      </trkpt>
      <trkpt lat="44.08021" lon="2.01474">
        <ele>207.4</ele>
        <time>2024-04-07T09:53:56Z</time>
      </trkpt>
      <trkpt lat="44.08022" lon="2.01482">
        <ele>207.4</ele>
        <time>2024-04-07T09:53:57Z</time>
      </trkpt>
      <trkpt lat="44.08024" lon="2.01491">
        <ele>207.4</ele>
        <time>2024-04-07T09:53:58Z</time>
      </trkpt>
      <trkpt lat="44.08025" lon="2.01499">
        <ele>207.4</ele>
        <time>2024-04-07T09:53:59Z</time>
      </trkpt>
      <trkpt lat="44.08024" lon="2.01508">
        <ele>207.4</ele>
        <time>2024-04-07T09:54:00Z</time>
      </trkpt>
      <trkpt lat="44.08023" lon="2.01515">
        <ele>207.4</ele>
        <time>2024-04-07T09:54:01Z</time>
      </trkpt>
      <trkpt lat="44.08023" lon="2.01524">
        <ele>207.2</ele>
        <time>2024-04-07T09:54:02Z</time>
      </trkpt>
      <trkpt lat="44.08022" lon="2.01532">
        <ele>207.2</ele>
        <time>2024-04-07T09:54:03Z</time>
      </trkpt>
      <trkpt lat="44.08023" lon="2.0154">
        <ele>207.2</ele>
        <time>2024-04-07T09:54:04Z</time>
      </trkpt>
      <trkpt lat="44.08023" lon="2.01547">
        <ele>207.2</ele>
        <time>2024-04-07T09:54:05Z</time>
      </trkpt>
      <trkpt lat="44.08022" lon="2.01555">
        <ele>207.2</ele>
        <time>2024-04-07T09:54:06Z</time>
      </trkpt>
      <trkpt lat="44.08022" lon="2.01565">
        <ele>207.2</ele>
        <time>2024-04-07T09:54:07Z</time>
      </trkpt>
      <trkpt lat="44.08021" lon="2.01573">
        <ele>207.2</ele>
        <time>2024-04-07T09:54:08Z</time>
      </trkpt>
      <trkpt lat="44.08019" lon="2.01582">
        <ele>207.2</ele>
        <time>2024-04-07T09:54:09Z</time>
      </trkpt>
      <trkpt lat="44.08017" lon="2.01589">
        <ele>207.2</ele>
        <time>2024-04-07T09:54:10Z</time>
      </trkpt>
      <trkpt lat="44.08014" lon="2.01596">
        <ele>207.4</ele>
        <time>2024-04-07T09:54:11Z</time>
      </trkpt>
      <trkpt lat="44.08014" lon="2.01604">
        <ele>207.4</ele>
        <time>2024-04-07T09:54:12Z</time>
      </trkpt>
      <trkpt lat="44.08015" lon="2.01611">
        <ele>207.4</ele>
        <time>2024-04-07T09:54:13Z</time>
      </trkpt>
      <trkpt lat="44.08013" lon="2.01619">
        <ele>207.6</ele>
        <time>2024-04-07T09:54:14Z</time>
      </trkpt>
      <trkpt lat="44.0801" lon="2.01626">
        <ele>207.6</ele>
        <time>2024-04-07T09:54:15Z</time>
      </trkpt>
      <trkpt lat="44.08007" lon="2.01634">
        <ele>207.6</ele>
        <time>2024-04-07T09:54:16Z</time>
      </trkpt>
      <trkpt lat="44.08005" lon="2.01643">
        <ele>207.6</ele>
        <time>2024-04-07T09:54:17Z</time>
      </trkpt>
      <trkpt lat="44.08004" lon="2.0165">
        <ele>207.6</ele>
        <time>2024-04-07T09:54:18Z</time>
      </trkpt>
      <trkpt lat="44.08002" lon="2.01658">
        <ele>207.4</ele>
        <time>2024-04-07T09:54:19Z</time>
      </trkpt>
      <trkpt lat="44.08" lon="2.01669">
        <ele>207.2</ele>
        <time>2024-04-07T09:54:20Z</time>
      </trkpt>
      <trkpt lat="44.07998" lon="2.01675">
        <ele>207.2</ele>
        <time>2024-04-07T09:54:21Z</time>
      </trkpt>
      <trkpt lat="44.07996" lon="2.01681">
        <ele>207.4</ele>
        <time>2024-04-07T09:54:22Z</time>
      </trkpt>
      <trkpt lat="44.07994" lon="2.01688">
        <ele>207.4</ele>
        <time>2024-04-07T09:54:23Z</time>
      </trkpt>
      <trkpt lat="44.07991" lon="2.01694">
        <ele>207.4</ele>
        <time>2024-04-07T09:54:24Z</time>
      </trkpt>
      <trkpt lat="44.07988" lon="2.01701">
        <ele>207.4</ele>
        <time>2024-04-07T09:54:25Z</time>
      </trkpt>
      <trkpt lat="44.07986" lon="2.01708">
        <ele>207.2</ele>
        <time>2024-04-07T09:54:26Z</time>
      </trkpt>
      <trkpt lat="44.07982" lon="2.01715">
        <ele>207.2</ele>
        <time>2024-04-07T09:54:27Z</time>
      </trkpt>
      <trkpt lat="44.07978" lon="2.01722">
        <ele>207.2</ele>
        <time>2024-04-07T09:54:28Z</time>
      </trkpt>
      <trkpt lat="44.07974" lon="2.01729">
        <ele>207.2</ele>
        <time>2024-04-07T09:54:29Z</time>
      </trkpt>
      <trkpt lat="44.07971" lon="2.01736">
        <ele>207.2</ele>
        <time>2024-04-07T09:54:30Z</time>
      </trkpt>
      <trkpt lat="44.07964" lon="2.01749">
        <ele>207.2</ele>
        <time>2024-04-07T09:54:32Z</time>
      </trkpt>
      <trkpt lat="44.0796" lon="2.01755">
        <ele>207</ele>
        <time>2024-04-07T09:54:33Z</time>
      </trkpt>
      <trkpt lat="44.07953" lon="2.01767">
        <ele>206.8</ele>
        <time>2024-04-07T09:54:35Z</time>
      </trkpt>
      <trkpt lat="44.0795" lon="2.01772">
        <ele>206.6</ele>
        <time>2024-04-07T09:54:36Z</time>
      </trkpt>
      <trkpt lat="44.07946" lon="2.01777">
        <ele>206.6</ele>
        <time>2024-04-07T09:54:37Z</time>
      </trkpt>
      <trkpt lat="44.07941" lon="2.01783">
        <ele>206.6</ele>
        <time>2024-04-07T09:54:38Z</time>
      </trkpt>
      <trkpt lat="44.07936" lon="2.01788">
        <ele>206.6</ele>
        <time>2024-04-07T09:54:39Z</time>
      </trkpt>
      <trkpt lat="44.07932" lon="2.01793">
        <ele>206.6</ele>
        <time>2024-04-07T09:54:40Z</time>
      </trkpt>
      <trkpt lat="44.07927" lon="2.01798">
        <ele>206.6</ele>
        <time>2024-04-07T09:54:41Z</time>
      </trkpt>
      <trkpt lat="44.07923" lon="2.01803">
        <ele>206.8</ele>
        <time>2024-04-07T09:54:42Z</time>
      </trkpt>
      <trkpt lat="44.07919" lon="2.01808">
        <ele>206.8</ele>
        <time>2024-04-07T09:54:43Z</time>
      </trkpt>
      <trkpt lat="44.07913" lon="2.01813">
        <ele>206.8</ele>
        <time>2024-04-07T09:54:44Z</time>
      </trkpt>
      <trkpt lat="44.07908" lon="2.01818">
        <ele>206.8</ele>
        <time>2024-04-07T09:54:45Z</time>
      </trkpt>
      <trkpt lat="44.07904" lon="2.01823">
        <ele>207</ele>
        <time>2024-04-07T09:54:46Z</time>
      </trkpt>
      <trkpt lat="44.07899" lon="2.01827">
        <ele>207</ele>
        <time>2024-04-07T09:54:47Z</time>
      </trkpt>
      <trkpt lat="44.07895" lon="2.01831">
        <ele>207.2</ele>
        <time>2024-04-07T09:54:48Z</time>
      </trkpt>
      <trkpt lat="44.0789" lon="2.01836">
        <ele>207.2</ele>
        <time>2024-04-07T09:54:49Z</time>
      </trkpt>
      <trkpt lat="44.07885" lon="2.01841">
        <ele>207.2</ele>
        <time>2024-04-07T09:54:50Z</time>
      </trkpt>
      <trkpt lat="44.07879" lon="2.01847">
        <ele>207.4</ele>
        <time>2024-04-07T09:54:51Z</time>
      </trkpt>
      <trkpt lat="44.07875" lon="2.01848">
        <ele>207.4</ele>
        <time>2024-04-07T09:54:52Z</time>
      </trkpt>
      <trkpt lat="44.0787" lon="2.01848">
        <ele>207.4</ele>
        <time>2024-04-07T09:54:53Z</time>
      </trkpt>
      <trkpt lat="44.07864" lon="2.01848">
        <ele>207.4</ele>
        <time>2024-04-07T09:54:54Z</time>
      </trkpt>
      <trkpt lat="44.0786" lon="2.0185">
        <ele>207.4</ele>
        <time>2024-04-07T09:54:55Z</time>
      </trkpt>
      <trkpt lat="44.07856" lon="2.01854">
        <ele>207.4</ele>
        <time>2024-04-07T09:54:56Z</time>
      </trkpt>
      <trkpt lat="44.07856" lon="2.01854">
        <ele>207.4</ele>
        <time>2024-04-07T09:54:57Z</time>
      </trkpt>
      <trkpt lat="44.07846" lon="2.01865">
        <ele>207.4</ele>
        <time>2024-04-07T09:54:58Z</time>
      </trkpt>
      <trkpt lat="44.07839" lon="2.01871">
        <ele>207.4</ele>
        <time>2024-04-07T09:54:59Z</time>
      </trkpt>
      <trkpt lat="44.07833" lon="2.01876">
        <ele>207.4</ele>
        <time>2024-04-07T09:55:00Z</time>
      </trkpt>
      <trkpt lat="44.07829" lon="2.0188">
        <ele>207.4</ele>
        <time>2024-04-07T09:55:01Z</time>
      </trkpt>
      <trkpt lat="44.07825" lon="2.01885">
        <ele>207.4</ele>
        <time>2024-04-07T09:55:02Z</time>
      </trkpt>
      <trkpt lat="44.0782" lon="2.01889">
        <ele>207.6</ele>
        <time>2024-04-07T09:55:03Z</time>
      </trkpt>
      <trkpt lat="44.07815" lon="2.01893">
        <ele>207.6</ele>
        <time>2024-04-07T09:55:04Z</time>
      </trkpt>
      <trkpt lat="44.0781" lon="2.01897">
        <ele>207.6</ele>
        <time>2024-04-07T09:55:05Z</time>
      </trkpt>
      <trkpt lat="44.07805" lon="2.01901">
        <ele>207.8</ele>
        <time>2024-04-07T09:55:06Z</time>
      </trkpt>
      <trkpt lat="44.078" lon="2.01905">
        <ele>208</ele>
        <time>2024-04-07T09:55:07Z</time>
      </trkpt>
      <trkpt lat="44.07795" lon="2.01909">
        <ele>208</ele>
        <time>2024-04-07T09:55:08Z</time>
      </trkpt>
      <trkpt lat="44.0779" lon="2.01912">
        <ele>208.2</ele>
        <time>2024-04-07T09:55:09Z</time>
      </trkpt>
      <trkpt lat="44.07786" lon="2.01916">
        <ele>208.2</ele>
        <time>2024-04-07T09:55:10Z</time>
      </trkpt>
      <trkpt lat="44.07781" lon="2.0192">
        <ele>208.2</ele>
        <time>2024-04-07T09:55:11Z</time>
      </trkpt>
      <trkpt lat="44.07777" lon="2.01924">
        <ele>208.2</ele>
        <time>2024-04-07T09:55:12Z</time>
      </trkpt>
      <trkpt lat="44.07773" lon="2.01929">
        <ele>208.2</ele>
        <time>2024-04-07T09:55:13Z</time>
      </trkpt>
      <trkpt lat="44.07769" lon="2.01934">
        <ele>208.2</ele>
        <time>2024-04-07T09:55:14Z</time>
      </trkpt>
      <trkpt lat="44.07765" lon="2.01938">
        <ele>208.2</ele>
        <time>2024-04-07T09:55:15Z</time>
      </trkpt>
      <trkpt lat="44.0776" lon="2.01942">
        <ele>208.2</ele>
        <time>2024-04-07T09:55:16Z</time>
      </trkpt>
      <trkpt lat="44.07755" lon="2.01947">
        <ele>208.2</ele>
        <time>2024-04-07T09:55:17Z</time>
      </trkpt>
      <trkpt lat="44.07751" lon="2.01952">
        <ele>208.2</ele>
        <time>2024-04-07T09:55:18Z</time>
      </trkpt>
      <trkpt lat="44.07745" lon="2.01958">
        <ele>208.2</ele>
        <time>2024-04-07T09:55:19Z</time>
      </trkpt>
      <trkpt lat="44.07742" lon="2.01963">
        <ele>208.2</ele>
        <time>2024-04-07T09:55:20Z</time>
      </trkpt>
      <trkpt lat="44.07739" lon="2.01969">
        <ele>208.2</ele>
        <time>2024-04-07T09:55:21Z</time>
      </trkpt>
      <trkpt lat="44.07737" lon="2.01976">
        <ele>208</ele>
        <time>2024-04-07T09:55:22Z</time>
      </trkpt>
      <trkpt lat="44.07735" lon="2.01984">
        <ele>208</ele>
        <time>2024-04-07T09:55:23Z</time>
      </trkpt>
      <trkpt lat="44.07732" lon="2.0199">
        <ele>207.8</ele>
        <time>2024-04-07T09:55:24Z</time>
      </trkpt>
      <trkpt lat="44.07728" lon="2.01996">
        <ele>207.8</ele>
        <time>2024-04-07T09:55:25Z</time>
      </trkpt>
      <trkpt lat="44.07723" lon="2.02001">
        <ele>207.6</ele>
        <time>2024-04-07T09:55:26Z</time>
      </trkpt>
      <trkpt lat="44.0772" lon="2.02006">
        <ele>207.6</ele>
        <time>2024-04-07T09:55:27Z</time>
      </trkpt>
      <trkpt lat="44.07717" lon="2.02011">
        <ele>207.4</ele>
        <time>2024-04-07T09:55:28Z</time>
      </trkpt>
      <trkpt lat="44.07715" lon="2.02016">
        <ele>207.4</ele>
        <time>2024-04-07T09:55:29Z</time>
      </trkpt>
      <trkpt lat="44.07711" lon="2.02022">
        <ele>207.4</ele>
        <time>2024-04-07T09:55:30Z</time>
      </trkpt>
      <trkpt lat="44.07707" lon="2.02026">
        <ele>207.4</ele>
        <time>2024-04-07T09:55:31Z</time>
      </trkpt>
      <trkpt lat="44.07704" lon="2.02034">
        <ele>207.2</ele>
        <time>2024-04-07T09:55:32Z</time>
      </trkpt>
      <trkpt lat="44.07701" lon="2.02041">
        <ele>207.2</ele>
        <time>2024-04-07T09:55:33Z</time>
      </trkpt>
      <trkpt lat="44.07699" lon="2.02047">
        <ele>207.2</ele>
        <time>2024-04-07T09:55:34Z</time>
      </trkpt>
      <trkpt lat="44.07697" lon="2.02055">
        <ele>207.2</ele>
        <time>2024-04-07T09:55:35Z</time>
      </trkpt>
      <trkpt lat="44.07696" lon="2.02065">
        <ele>207.4</ele>
        <time>2024-04-07T09:55:36Z</time>
      </trkpt>
      <trkpt lat="44.07695" lon="2.02072">
        <ele>207.6</ele>
        <time>2024-04-07T09:55:37Z</time>
      </trkpt>
      <trkpt lat="44.07693" lon="2.02079">
        <ele>207.6</ele>
        <time>2024-04-07T09:55:38Z</time>
      </trkpt>
      <trkpt lat="44.07691" lon="2.02086">
        <ele>207.6</ele>
        <time>2024-04-07T09:55:39Z</time>
      </trkpt>
      <trkpt lat="44.07689" lon="2.02092">
        <ele>207.6</ele>
        <time>2024-04-07T09:55:40Z</time>
      </trkpt>
      <trkpt lat="44.07686" lon="2.021">
        <ele>207.6</ele>
        <time>2024-04-07T09:55:41Z</time>
      </trkpt>
      <trkpt lat="44.07685" lon="2.02107">
        <ele>207.6</ele>
        <time>2024-04-07T09:55:42Z</time>
      </trkpt>
      <trkpt lat="44.07684" lon="2.02114">
        <ele>207.6</ele>
        <time>2024-04-07T09:55:43Z</time>
      </trkpt>
      <trkpt lat="44.07683" lon="2.02122">
        <ele>207.6</ele>
        <time>2024-04-07T09:55:44Z</time>
      </trkpt>
      <trkpt lat="44.07682" lon="2.0213">
        <ele>207.6</ele>
        <time>2024-04-07T09:55:45Z</time>
      </trkpt>
      <trkpt lat="44.07681" lon="2.02137">
        <ele>207.6</ele>
        <time>2024-04-07T09:55:46Z</time>
      </trkpt>
      <trkpt lat="44.07681" lon="2.02144">
        <ele>207.6</ele>
        <time>2024-04-07T09:55:47Z</time>
      </trkpt>
      <trkpt lat="44.0768" lon="2.02151">
        <ele>207.6</ele>
        <time>2024-04-07T09:55:48Z</time>
      </trkpt>
      <trkpt lat="44.0768" lon="2.02156">
        <ele>207.6</ele>
        <time>2024-04-07T09:55:49Z</time>
      </trkpt>
      <trkpt lat="44.07677" lon="2.02166">
        <ele>207.6</ele>
        <time>2024-04-07T09:55:50Z</time>
      </trkpt>
      <trkpt lat="44.07674" lon="2.02175">
        <ele>207.6</ele>
        <time>2024-04-07T09:55:51Z</time>
      </trkpt>
      <trkpt lat="44.07671" lon="2.02185">
        <ele>208</ele>
        <time>2024-04-07T09:55:52Z</time>
      </trkpt>
      <trkpt lat="44.0767" lon="2.02193">
        <ele>208</ele>
        <time>2024-04-07T09:55:53Z</time>
      </trkpt>
      <trkpt lat="44.07669" lon="2.02201">
        <ele>208</ele>
        <time>2024-04-07T09:55:54Z</time>
      </trkpt>
      <trkpt lat="44.07668" lon="2.0221">
        <ele>208</ele>
        <time>2024-04-07T09:55:55Z</time>
      </trkpt>
      <trkpt lat="44.07668" lon="2.02219">
        <ele>208</ele>
        <time>2024-04-07T09:55:56Z</time>
      </trkpt>
      <trkpt lat="44.07668" lon="2.02227">
        <ele>208</ele>
        <time>2024-04-07T09:55:57Z</time>
      </trkpt>
      <trkpt lat="44.07668" lon="2.02234">
        <ele>208.2</ele>
        <time>2024-04-07T09:55:58Z</time>
      </trkpt>
      <trkpt lat="44.07668" lon="2.02241">
        <ele>208.2</ele>
        <time>2024-04-07T09:55:59Z</time>
      </trkpt>
      <trkpt lat="44.07668" lon="2.02249">
        <ele>208.2</ele>
        <time>2024-04-07T09:56:00Z</time>
      </trkpt>
      <trkpt lat="44.07667" lon="2.02256">
        <ele>208.2</ele>
        <time>2024-04-07T09:56:01Z</time>
      </trkpt>
      <trkpt lat="44.07667" lon="2.02264">
        <ele>208.2</ele>
        <time>2024-04-07T09:56:02Z</time>
      </trkpt>
      <trkpt lat="44.07668" lon="2.02272">
        <ele>208.2</ele>
        <time>2024-04-07T09:56:03Z</time>
      </trkpt>
      <trkpt lat="44.07668" lon="2.0228">
        <ele>208.4</ele>
        <time>2024-04-07T09:56:04Z</time>
      </trkpt>
      <trkpt lat="44.07668" lon="2.02288">
        <ele>208.4</ele>
        <time>2024-04-07T09:56:05Z</time>
      </trkpt>
      <trkpt lat="44.07667" lon="2.02296">
        <ele>208.4</ele>
        <time>2024-04-07T09:56:06Z</time>
      </trkpt>
      <trkpt lat="44.07667" lon="2.02304">
        <ele>208.4</ele>
        <time>2024-04-07T09:56:07Z</time>
      </trkpt>
      <trkpt lat="44.07667" lon="2.02312">
        <ele>208.4</ele>
        <time>2024-04-07T09:56:08Z</time>
      </trkpt>
      <trkpt lat="44.07667" lon="2.0232">
        <ele>208.4</ele>
        <time>2024-04-07T09:56:09Z</time>
      </trkpt>
      <trkpt lat="44.07666" lon="2.02328">
        <ele>208.4</ele>
        <time>2024-04-07T09:56:10Z</time>
      </trkpt>
      <trkpt lat="44.07665" lon="2.02336">
        <ele>208.4</ele>
        <time>2024-04-07T09:56:11Z</time>
      </trkpt>
      <trkpt lat="44.07665" lon="2.02345">
        <ele>208.4</ele>
        <time>2024-04-07T09:56:12Z</time>
      </trkpt>
      <trkpt lat="44.07665" lon="2.02353">
        <ele>208.4</ele>
        <time>2024-04-07T09:56:13Z</time>
      </trkpt>
      <trkpt lat="44.07665" lon="2.02361">
        <ele>208.4</ele>
        <time>2024-04-07T09:56:14Z</time>
      </trkpt>
      <trkpt lat="44.07664" lon="2.02369">
        <ele>208.4</ele>
        <time>2024-04-07T09:56:15Z</time>
      </trkpt>
      <trkpt lat="44.07664" lon="2.02377">
        <ele>208.4</ele>
        <time>2024-04-07T09:56:16Z</time>
      </trkpt>
      <trkpt lat="44.07664" lon="2.02384">
        <ele>208.6</ele>
        <time>2024-04-07T09:56:17Z</time>
      </trkpt>
      <trkpt lat="44.07663" lon="2.02391">
        <ele>208.6</ele>
        <time>2024-04-07T09:56:18Z</time>
      </trkpt>
      <trkpt lat="44.0766" lon="2.02396">
        <ele>208.8</ele>
        <time>2024-04-07T09:56:19Z</time>
      </trkpt>
      <trkpt lat="44.07657" lon="2.024">
        <ele>209</ele>
        <time>2024-04-07T09:56:20Z</time>
      </trkpt>
      <trkpt lat="44.07656" lon="2.02404">
        <ele>209.2</ele>
        <time>2024-04-07T09:56:21Z</time>
      </trkpt>
      <trkpt lat="44.07655" lon="2.02409">
        <ele>209.4</ele>
        <time>2024-04-07T09:56:22Z</time>
      </trkpt>
      <trkpt lat="44.07655" lon="2.02414">
        <ele>209.6</ele>
        <time>2024-04-07T09:56:23Z</time>
      </trkpt>
      <trkpt lat="44.07654" lon="2.0242">
        <ele>209.8</ele>
        <time>2024-04-07T09:56:24Z</time>
      </trkpt>
      <trkpt lat="44.07654" lon="2.02426">
        <ele>209.8</ele>
        <time>2024-04-07T09:56:25Z</time>
      </trkpt>
      <trkpt lat="44.07654" lon="2.02432">
        <ele>210</ele>
        <time>2024-04-07T09:56:26Z</time>
      </trkpt>
      <trkpt lat="44.07653" lon="2.02438">
        <ele>210.2</ele>
        <time>2024-04-07T09:56:27Z</time>
      </trkpt>
      <trkpt lat="44.07653" lon="2.02444">
        <ele>210.4</ele>
        <time>2024-04-07T09:56:28Z</time>
      </trkpt>
      <trkpt lat="44.07652" lon="2.02449">
        <ele>210.4</ele>
        <time>2024-04-07T09:56:29Z</time>
      </trkpt>
      <trkpt lat="44.07652" lon="2.02453">
        <ele>210.6</ele>
        <time>2024-04-07T09:56:30Z</time>
      </trkpt>
      <trkpt lat="44.07652" lon="2.02458">
        <ele>210.8</ele>
        <time>2024-04-07T09:56:31Z</time>
      </trkpt>
      <trkpt lat="44.07652" lon="2.02461">
        <ele>211</ele>
        <time>2024-04-07T09:56:32Z</time>
      </trkpt>
      <trkpt lat="44.07652" lon="2.02464">
        <ele>211.6</ele>
        <time>2024-04-07T09:56:33Z</time>
      </trkpt>
      <trkpt lat="44.07653" lon="2.02468">
        <ele>211.6</ele>
        <time>2024-04-07T09:56:34Z</time>
      </trkpt>
      <trkpt lat="44.07653" lon="2.02472">
        <ele>212</ele>
        <time>2024-04-07T09:56:35Z</time>
      </trkpt>
      <trkpt lat="44.07654" lon="2.02476">
        <ele>212</ele>
        <time>2024-04-07T09:56:36Z</time>
      </trkpt>
      <trkpt lat="44.07654" lon="2.02481">
        <ele>212.2</ele>
        <time>2024-04-07T09:56:37Z</time>
      </trkpt>
      <trkpt lat="44.07654" lon="2.02484">
        <ele>212.4</ele>
        <time>2024-04-07T09:56:38Z</time>
      </trkpt>
      <trkpt lat="44.07655" lon="2.02488">
        <ele>212.6</ele>
        <time>2024-04-07T09:56:39Z</time>
      </trkpt>
      <trkpt lat="44.07654" lon="2.02491">
        <ele>212.8</ele>
        <time>2024-04-07T09:56:40Z</time>
      </trkpt>
      <trkpt lat="44.07652" lon="2.02492">
        <ele>213</ele>
        <time>2024-04-07T09:56:41Z</time>
      </trkpt>
      <trkpt lat="44.07649" lon="2.02492">
        <ele>213.2</ele>
        <time>2024-04-07T09:56:42Z</time>
      </trkpt>
      <trkpt lat="44.07647" lon="2.02491">
        <ele>213.4</ele>
        <time>2024-04-07T09:56:43Z</time>
      </trkpt>
      <trkpt lat="44.07644" lon="2.0249">
        <ele>213.4</ele>
        <time>2024-04-07T09:56:44Z</time>
      </trkpt>
      <trkpt lat="44.07641" lon="2.02488">
        <ele>213.6</ele>
        <time>2024-04-07T09:56:45Z</time>
      </trkpt>
      <trkpt lat="44.07639" lon="2.02486">
        <ele>213.8</ele>
        <time>2024-04-07T09:56:46Z</time>
      </trkpt>
      <trkpt lat="44.07637" lon="2.02484">
        <ele>214</ele>
        <time>2024-04-07T09:56:47Z</time>
      </trkpt>
      <trkpt lat="44.07634" lon="2.02482">
        <ele>214</ele>
        <time>2024-04-07T09:56:48Z</time>
      </trkpt>
      <trkpt lat="44.07632" lon="2.02479">
        <ele>214.2</ele>
        <time>2024-04-07T09:56:49Z</time>
      </trkpt>
      <trkpt lat="44.0763" lon="2.02477">
        <ele>214.2</ele>
        <time>2024-04-07T09:56:50Z</time>
      </trkpt>
      <trkpt lat="44.07628" lon="2.02474">
        <ele>214.4</ele>
        <time>2024-04-07T09:56:51Z</time>
      </trkpt>
      <trkpt lat="44.07626" lon="2.02472">
        <ele>214.6</ele>
        <time>2024-04-07T09:56:52Z</time>
      </trkpt>
      <trkpt lat="44.07624" lon="2.0247">
        <ele>214.8</ele>
        <time>2024-04-07T09:56:53Z</time>
      </trkpt>
      <trkpt lat="44.07622" lon="2.02468">
        <ele>215.2</ele>
        <time>2024-04-07T09:56:54Z</time>
      </trkpt>
      <trkpt lat="44.0762" lon="2.02465">
        <ele>215.4</ele>
        <time>2024-04-07T09:56:55Z</time>
      </trkpt>
      <trkpt lat="44.07617" lon="2.02462">
        <ele>215.8</ele>
        <time>2024-04-07T09:56:56Z</time>
      </trkpt>
      <trkpt lat="44.07615" lon="2.0246">
        <ele>215.8</ele>
        <time>2024-04-07T09:56:57Z</time>
      </trkpt>
      <trkpt lat="44.07613" lon="2.02458">
        <ele>216.2</ele>
        <time>2024-04-07T09:56:58Z</time>
      </trkpt>
      <trkpt lat="44.07611" lon="2.02455">
        <ele>216.2</ele>
        <time>2024-04-07T09:56:59Z</time>
      </trkpt>
      <trkpt lat="44.07607" lon="2.02452">
        <ele>216.2</ele>
        <time>2024-04-07T09:57:00Z</time>
      </trkpt>
      <trkpt lat="44.07604" lon="2.02449">
        <ele>216.4</ele>
        <time>2024-04-07T09:57:01Z</time>
      </trkpt>
      <trkpt lat="44.076" lon="2.02446">
        <ele>216.8</ele>
        <time>2024-04-07T09:57:02Z</time>
      </trkpt>
      <trkpt lat="44.07598" lon="2.02444">
        <ele>217.2</ele>
        <time>2024-04-07T09:57:03Z</time>
      </trkpt>
      <trkpt lat="44.07596" lon="2.02441">
        <ele>217.4</ele>
        <time>2024-04-07T09:57:04Z</time>
      </trkpt>
      <trkpt lat="44.07594" lon="2.02437">
        <ele>218.2</ele>
        <time>2024-04-07T09:57:05Z</time>
      </trkpt>
      <trkpt lat="44.07593" lon="2.02434">
        <ele>218.4</ele>
        <time>2024-04-07T09:57:06Z</time>
      </trkpt>
      <trkpt lat="44.07591" lon="2.02432">
        <ele>219.2</ele>
        <time>2024-04-07T09:57:07Z</time>
      </trkpt>
      <trkpt lat="44.07589" lon="2.0243">
        <ele>219.6</ele>
        <time>2024-04-07T09:57:08Z</time>
      </trkpt>
      <trkpt lat="44.07587" lon="2.02426">
        <ele>220</ele>
        <time>2024-04-07T09:57:09Z</time>
      </trkpt>
      <trkpt lat="44.07585" lon="2.02423">
        <ele>220.2</ele>
        <time>2024-04-07T09:57:10Z</time>
      </trkpt>
      <trkpt lat="44.07582" lon="2.0242">
        <ele>220.6</ele>
        <time>2024-04-07T09:57:11Z</time>
      </trkpt>
      <trkpt lat="44.0758" lon="2.02417">
        <ele>221.2</ele>
        <time>2024-04-07T09:57:12Z</time>
      </trkpt>
      <trkpt lat="44.07578" lon="2.02414">
        <ele>221.4</ele>
        <time>2024-04-07T09:57:13Z</time>
      </trkpt>
      <trkpt lat="44.07576" lon="2.02411">
        <ele>222</ele>
        <time>2024-04-07T09:57:14Z</time>
      </trkpt>
      <trkpt lat="44.07574" lon="2.02408">
        <ele>222.2</ele>
        <time>2024-04-07T09:57:15Z</time>
      </trkpt>
      <trkpt lat="44.07573" lon="2.02405">
        <ele>223.4</ele>
        <time>2024-04-07T09:57:16Z</time>
      </trkpt>
      <trkpt lat="44.07571" lon="2.02402">
        <ele>223.6</ele>
        <time>2024-04-07T09:57:17Z</time>
      </trkpt>
      <trkpt lat="44.07569" lon="2.02399">
        <ele>224</ele>
        <time>2024-04-07T09:57:18Z</time>
      </trkpt>
      <trkpt lat="44.07567" lon="2.02396">
        <ele>224.4</ele>
        <time>2024-04-07T09:57:19Z</time>
      </trkpt>
      <trkpt lat="44.07564" lon="2.02393">
        <ele>224.8</ele>
        <time>2024-04-07T09:57:20Z</time>
      </trkpt>
      <trkpt lat="44.07563" lon="2.0239">
        <ele>225.4</ele>
        <time>2024-04-07T09:57:21Z</time>
      </trkpt>
      <trkpt lat="44.07561" lon="2.02388">
        <ele>225.8</ele>
        <time>2024-04-07T09:57:22Z</time>
      </trkpt>
      <trkpt lat="44.0756" lon="2.02385">
        <ele>226.2</ele>
        <time>2024-04-07T09:57:23Z</time>
      </trkpt>
      <trkpt lat="44.07558" lon="2.02383">
        <ele>226.2</ele>
        <time>2024-04-07T09:57:24Z</time>
      </trkpt>
      <trkpt lat="44.07557" lon="2.02381">
        <ele>226.6</ele>
        <time>2024-04-07T09:57:25Z</time>
      </trkpt>
      <trkpt lat="44.07555" lon="2.02378">
        <ele>226.8</ele>
        <time>2024-04-07T09:57:26Z</time>
      </trkpt>
      <trkpt lat="44.07553" lon="2.02375">
        <ele>227.2</ele>
        <time>2024-04-07T09:57:27Z</time>
      </trkpt>
      <trkpt lat="44.0755" lon="2.02371">
        <ele>227.8</ele>
        <time>2024-04-07T09:57:28Z</time>
      </trkpt>
      <trkpt lat="44.07547" lon="2.02368">
        <ele>228.2</ele>
        <time>2024-04-07T09:57:29Z</time>
      </trkpt>
      <trkpt lat="44.07546" lon="2.02365">
        <ele>228.6</ele>
        <time>2024-04-07T09:57:30Z</time>
      </trkpt>
      <trkpt lat="44.07544" lon="2.02363">
        <ele>229</ele>
        <time>2024-04-07T09:57:31Z</time>
      </trkpt>
      <trkpt lat="44.07541" lon="2.02359">
        <ele>229.6</ele>
        <time>2024-04-07T09:57:32Z</time>
      </trkpt>
      <trkpt lat="44.07538" lon="2.02356">
        <ele>229.8</ele>
        <time>2024-04-07T09:57:33Z</time>
      </trkpt>
      <trkpt lat="44.07535" lon="2.02353">
        <ele>230.2</ele>
        <time>2024-04-07T09:57:34Z</time>
      </trkpt>
      <trkpt lat="44.07535" lon="2.02351">
        <ele>230.4</ele>
        <time>2024-04-07T09:57:35Z</time>
      </trkpt>
      <trkpt lat="44.07534" lon="2.02349">
        <ele>230.6</ele>
        <time>2024-04-07T09:57:36Z</time>
      </trkpt>
      <trkpt lat="44.07531" lon="2.02344">
        <ele>230.8</ele>
        <time>2024-04-07T09:57:37Z</time>
      </trkpt>
      <trkpt lat="44.07531" lon="2.02338">
        <ele>231</ele>
        <time>2024-04-07T09:57:38Z</time>
      </trkpt>
      <trkpt lat="44.07529" lon="2.0233">
        <ele>231.6</ele>
        <time>2024-04-07T09:57:39Z</time>
      </trkpt>
      <trkpt lat="44.07528" lon="2.02325">
        <ele>231.8</ele>
        <time>2024-04-07T09:57:40Z</time>
      </trkpt>
      <trkpt lat="44.07527" lon="2.02321">
        <ele>232</ele>
        <time>2024-04-07T09:57:41Z</time>
      </trkpt>
      <trkpt lat="44.07527" lon="2.02314">
        <ele>232</ele>
        <time>2024-04-07T09:57:42Z</time>
      </trkpt>
      <trkpt lat="44.07528" lon="2.02304">
        <ele>232.2</ele>
        <time>2024-04-07T09:57:43Z</time>
      </trkpt>
      <trkpt lat="44.07528" lon="2.02295">
        <ele>232.2</ele>
        <time>2024-04-07T09:57:44Z</time>
      </trkpt>
      <trkpt lat="44.07528" lon="2.02287">
        <ele>232.2</ele>
        <time>2024-04-07T09:57:45Z</time>
      </trkpt>
      <trkpt lat="44.07528" lon="2.02278">
        <ele>232.2</ele>
        <time>2024-04-07T09:57:46Z</time>
      </trkpt>
      <trkpt lat="44.07528" lon="2.02271">
        <ele>232</ele>
        <time>2024-04-07T09:57:47Z</time>
      </trkpt>
      <trkpt lat="44.07526" lon="2.02264">
        <ele>231.6</ele>
        <time>2024-04-07T09:57:48Z</time>
      </trkpt>
      <trkpt lat="44.07525" lon="2.02258">
        <ele>231.2</ele>
        <time>2024-04-07T09:57:49Z</time>
      </trkpt>
      <trkpt lat="44.07524" lon="2.02251">
        <ele>231</ele>
        <time>2024-04-07T09:57:50Z</time>
      </trkpt>
      <trkpt lat="44.07521" lon="2.02244">
        <ele>230.6</ele>
        <time>2024-04-07T09:57:51Z</time>
      </trkpt>
      <trkpt lat="44.07518" lon="2.02238">
        <ele>230.4</ele>
        <time>2024-04-07T09:57:52Z</time>
      </trkpt>
      <trkpt lat="44.07517" lon="2.02233">
        <ele>230.2</ele>
        <time>2024-04-07T09:57:53Z</time>
      </trkpt>
      <trkpt lat="44.07515" lon="2.02229">
        <ele>230.2</ele>
        <time>2024-04-07T09:57:54Z</time>
      </trkpt>
      <trkpt lat="44.0751" lon="2.02224">
        <ele>229.8</ele>
        <time>2024-04-07T09:57:55Z</time>
      </trkpt>
      <trkpt lat="44.07504" lon="2.02218">
        <ele>229.8</ele>
        <time>2024-04-07T09:57:56Z</time>
      </trkpt>
      <trkpt lat="44.07496" lon="2.02212">
        <ele>229.8</ele>
        <time>2024-04-07T09:57:57Z</time>
      </trkpt>
      <trkpt lat="44.07489" lon="2.02207">
        <ele>229.8</ele>
        <time>2024-04-07T09:57:58Z</time>
      </trkpt>
      <trkpt lat="44.07487" lon="2.02205">
        <ele>229.8</ele>
        <time>2024-04-07T09:57:59Z</time>
      </trkpt>
      <trkpt lat="44.07482" lon="2.02201">
        <ele>230</ele>
        <time>2024-04-07T09:58:00Z</time>
      </trkpt>
      <trkpt lat="44.0748" lon="2.02198">
        <ele>230</ele>
        <time>2024-04-07T09:58:01Z</time>
      </trkpt>
      <trkpt lat="44.07477" lon="2.02194">
        <ele>230.4</ele>
        <time>2024-04-07T09:58:02Z</time>
      </trkpt>
      <trkpt lat="44.07474" lon="2.0219">
        <ele>230.6</ele>
        <time>2024-04-07T09:58:03Z</time>
      </trkpt>
      <trkpt lat="44.07472" lon="2.02186">
        <ele>231</ele>
        <time>2024-04-07T09:58:04Z</time>
      </trkpt>
      <trkpt lat="44.07469" lon="2.02181">
        <ele>231.2</ele>
        <time>2024-04-07T09:58:05Z</time>
      </trkpt>
      <trkpt lat="44.07466" lon="2.02177">
        <ele>231.6</ele>
        <time>2024-04-07T09:58:06Z</time>
      </trkpt>
      <trkpt lat="44.07463" lon="2.02173">
        <ele>231.8</ele>
        <time>2024-04-07T09:58:07Z</time>
      </trkpt>
      <trkpt lat="44.07462" lon="2.0217">
        <ele>232</ele>
        <time>2024-04-07T09:58:08Z</time>
      </trkpt>
      <trkpt lat="44.07463" lon="2.02167">
        <ele>232.2</ele>
        <time>2024-04-07T09:58:09Z</time>
      </trkpt>
      <trkpt lat="44.07459" lon="2.02162">
        <ele>232.4</ele>
        <time>2024-04-07T09:58:10Z</time>
      </trkpt>
      <trkpt lat="44.07458" lon="2.02158">
        <ele>233</ele>
        <time>2024-04-07T09:58:11Z</time>
      </trkpt>
      <trkpt lat="44.07456" lon="2.02153">
        <ele>233.2</ele>
        <time>2024-04-07T09:58:12Z</time>
      </trkpt>
      <trkpt lat="44.07456" lon="2.0215">
        <ele>234</ele>
        <time>2024-04-07T09:58:13Z</time>
      </trkpt>
      <trkpt lat="44.07455" lon="2.02146">
        <ele>234.2</ele>
        <time>2024-04-07T09:58:14Z</time>
      </trkpt>
      <trkpt lat="44.07454" lon="2.02143">
        <ele>234.6</ele>
        <time>2024-04-07T09:58:15Z</time>
      </trkpt>
      <trkpt lat="44.07451" lon="2.0214">
        <ele>234.8</ele>
        <time>2024-04-07T09:58:16Z</time>
      </trkpt>
      <trkpt lat="44.07451" lon="2.02137">
        <ele>235.2</ele>
        <time>2024-04-07T09:58:17Z</time>
      </trkpt>
      <trkpt lat="44.07448" lon="2.02133">
        <ele>235.8</ele>
        <time>2024-04-07T09:58:18Z</time>
      </trkpt>
      <trkpt lat="44.07443" lon="2.02128">
        <ele>236</ele>
        <time>2024-04-07T09:58:19Z</time>
      </trkpt>
      <trkpt lat="44.07437" lon="2.02121">
        <ele>236.4</ele>
        <time>2024-04-07T09:58:20Z</time>
      </trkpt>
      <trkpt lat="44.07433" lon="2.02117">
        <ele>236.6</ele>
        <time>2024-04-07T09:58:21Z</time>
      </trkpt>
      <trkpt lat="44.0743" lon="2.02113">
        <ele>237</ele>
        <time>2024-04-07T09:58:22Z</time>
      </trkpt>
      <trkpt lat="44.07431" lon="2.0211">
        <ele>237.6</ele>
        <time>2024-04-07T09:58:23Z</time>
      </trkpt>
      <trkpt lat="44.07425" lon="2.02106">
        <ele>238</ele>
        <time>2024-04-07T09:58:24Z</time>
      </trkpt>
      <trkpt lat="44.0742" lon="2.02102">
        <ele>238.4</ele>
        <time>2024-04-07T09:58:25Z</time>
      </trkpt>
      <trkpt lat="44.07415" lon="2.02099">
        <ele>238.6</ele>
        <time>2024-04-07T09:58:26Z</time>
      </trkpt>
      <trkpt lat="44.07413" lon="2.02096">
        <ele>239</ele>
        <time>2024-04-07T09:58:27Z</time>
      </trkpt>
      <trkpt lat="44.07411" lon="2.02094">
        <ele>239.4</ele>
        <time>2024-04-07T09:58:28Z</time>
      </trkpt>
      <trkpt lat="44.07409" lon="2.02091">
        <ele>240</ele>
        <time>2024-04-07T09:58:29Z</time>
      </trkpt>
      <trkpt lat="44.07407" lon="2.02089">
        <ele>240.2</ele>
        <time>2024-04-07T09:58:30Z</time>
      </trkpt>
      <trkpt lat="44.07403" lon="2.02087">
        <ele>241</ele>
        <time>2024-04-07T09:58:31Z</time>
      </trkpt>
      <trkpt lat="44.074" lon="2.02084">
        <ele>241.6</ele>
        <time>2024-04-07T09:58:32Z</time>
      </trkpt>
      <trkpt lat="44.07397" lon="2.02083">
        <ele>241.8</ele>
        <time>2024-04-07T09:58:33Z</time>
      </trkpt>
      <trkpt lat="44.07395" lon="2.02081">
        <ele>242.4</ele>
        <time>2024-04-07T09:58:34Z</time>
      </trkpt>
      <trkpt lat="44.0739" lon="2.02078">
        <ele>242.6</ele>
        <time>2024-04-07T09:58:35Z</time>
      </trkpt>
      <trkpt lat="44.07387" lon="2.02075">
        <ele>243</ele>
        <time>2024-04-07T09:58:36Z</time>
      </trkpt>
      <trkpt lat="44.07384" lon="2.02072">
        <ele>243.2</ele>
        <time>2024-04-07T09:58:37Z</time>
      </trkpt>
      <trkpt lat="44.07381" lon="2.02068">
        <ele>243.8</ele>
        <time>2024-04-07T09:58:38Z</time>
      </trkpt>
      <trkpt lat="44.07377" lon="2.02064">
        <ele>244.2</ele>
        <time>2024-04-07T09:58:39Z</time>
      </trkpt>
      <trkpt lat="44.07375" lon="2.0206">
        <ele>244.4</ele>
        <time>2024-04-07T09:58:40Z</time>
      </trkpt>
      <trkpt lat="44.07374" lon="2.02057">
        <ele>244.4</ele>
        <time>2024-04-07T09:58:41Z</time>
      </trkpt>
      <trkpt lat="44.07374" lon="2.02054">
        <ele>244.4</ele>
        <time>2024-04-07T09:58:42Z</time>
      </trkpt>
      <trkpt lat="44.07375" lon="2.02051">
        <ele>244.6</ele>
        <time>2024-04-07T09:58:43Z</time>
      </trkpt>
      <trkpt lat="44.07376" lon="2.02048">
        <ele>244.6</ele>
        <time>2024-04-07T09:58:44Z</time>
      </trkpt>
      <trkpt lat="44.07377" lon="2.02045">
        <ele>244.6</ele>
        <time>2024-04-07T09:58:45Z</time>
      </trkpt>
      <trkpt lat="44.07377" lon="2.02043">
        <ele>244.6</ele>
        <time>2024-04-07T09:58:46Z</time>
      </trkpt>
      <trkpt lat="44.07377" lon="2.02041">
        <ele>244.6</ele>
        <time>2024-04-07T09:58:47Z</time>
      </trkpt>
      <trkpt lat="44.07378" lon="2.02038">
        <ele>245.2</ele>
        <time>2024-04-07T09:58:48Z</time>
      </trkpt>
      <trkpt lat="44.07378" lon="2.02037">
        <ele>245.4</ele>
        <time>2024-04-07T09:58:49Z</time>
      </trkpt>
      <trkpt lat="44.07378" lon="2.02036">
        <ele>245.8</ele>
        <time>2024-04-07T09:58:50Z</time>
      </trkpt>
      <trkpt lat="44.07379" lon="2.02034">
        <ele>246</ele>
        <time>2024-04-07T09:58:51Z</time>
      </trkpt>
      <trkpt lat="44.07379" lon="2.02034">
        <ele>246.2</ele>
        <time>2024-04-07T09:58:52Z</time>
      </trkpt>
      <trkpt lat="44.0738" lon="2.02032">
        <ele>246.6</ele>
        <time>2024-04-07T09:58:53Z</time>
      </trkpt>
      <trkpt lat="44.0738" lon="2.0203">
        <ele>247.2</ele>
        <time>2024-04-07T09:58:54Z</time>
      </trkpt>
      <trkpt lat="44.07381" lon="2.02028">
        <ele>247.4</ele>
        <time>2024-04-07T09:58:55Z</time>
      </trkpt>
      <trkpt lat="44.07382" lon="2.02026">
        <ele>247.6</ele>
        <time>2024-04-07T09:58:56Z</time>
      </trkpt>
      <trkpt lat="44.07384" lon="2.02024">
        <ele>247.8</ele>
        <time>2024-04-07T09:58:57Z</time>
      </trkpt>
      <trkpt lat="44.07386" lon="2.02019">
        <ele>248</ele>
        <time>2024-04-07T09:58:58Z</time>
      </trkpt>
      <trkpt lat="44.07387" lon="2.02016">
        <ele>248.4</ele>
        <time>2024-04-07T09:58:59Z</time>
      </trkpt>
      <trkpt lat="44.07389" lon="2.02012">
        <ele>248.6</ele>
        <time>2024-04-07T09:59:00Z</time>
      </trkpt>
      <trkpt lat="44.07391" lon="2.02008">
        <ele>249</ele>
        <time>2024-04-07T09:59:01Z</time>
      </trkpt>
      <trkpt lat="44.07392" lon="2.02004">
        <ele>249.2</ele>
        <time>2024-04-07T09:59:02Z</time>
      </trkpt>
      <trkpt lat="44.07393" lon="2.02">
        <ele>249.8</ele>
        <time>2024-04-07T09:59:03Z</time>
      </trkpt>
      <trkpt lat="44.07394" lon="2.01995">
        <ele>250.2</ele>
        <time>2024-04-07T09:59:04Z</time>
      </trkpt>
      <trkpt lat="44.07399" lon="2.01988">
        <ele>250.2</ele>
        <time>2024-04-07T09:59:05Z</time>
      </trkpt>
      <trkpt lat="44.074" lon="2.01982">
        <ele>250.8</ele>
        <time>2024-04-07T09:59:06Z</time>
      </trkpt>
      <trkpt lat="44.07401" lon="2.01973">
        <ele>251</ele>
        <time>2024-04-07T09:59:07Z</time>
      </trkpt>
      <trkpt lat="44.07402" lon="2.01969">
        <ele>251.4</ele>
        <time>2024-04-07T09:59:08Z</time>
      </trkpt>
      <trkpt lat="44.07404" lon="2.01965">
        <ele>251.6</ele>
        <time>2024-04-07T09:59:09Z</time>
      </trkpt>
      <trkpt lat="44.07406" lon="2.01962">
        <ele>252</ele>
        <time>2024-04-07T09:59:10Z</time>
      </trkpt>
      <trkpt lat="44.0741" lon="2.01957">
        <ele>252.2</ele>
        <time>2024-04-07T09:59:11Z</time>
      </trkpt>
      <trkpt lat="44.07411" lon="2.01954">
        <ele>252.2</ele>
        <time>2024-04-07T09:59:12Z</time>
      </trkpt>
      <trkpt lat="44.07412" lon="2.01949">
        <ele>252.4</ele>
        <time>2024-04-07T09:59:13Z</time>
      </trkpt>
      <trkpt lat="44.07413" lon="2.01945">
        <ele>252.6</ele>
        <time>2024-04-07T09:59:14Z</time>
      </trkpt>
      <trkpt lat="44.07412" lon="2.01941">
        <ele>253</ele>
        <time>2024-04-07T09:59:15Z</time>
      </trkpt>
      <trkpt lat="44.07412" lon="2.01934">
        <ele>253.4</ele>
        <time>2024-04-07T09:59:16Z</time>
      </trkpt>
      <trkpt lat="44.07414" lon="2.0193">
        <ele>253.8</ele>
        <time>2024-04-07T09:59:17Z</time>
      </trkpt>
      <trkpt lat="44.07414" lon="2.01925">
        <ele>254</ele>
        <time>2024-04-07T09:59:18Z</time>
      </trkpt>
      <trkpt lat="44.07417" lon="2.01921">
        <ele>254.2</ele>
        <time>2024-04-07T09:59:19Z</time>
      </trkpt>
      <trkpt lat="44.07418" lon="2.01918">
        <ele>254.8</ele>
        <time>2024-04-07T09:59:20Z</time>
      </trkpt>
      <trkpt lat="44.07418" lon="2.01915">
        <ele>255.2</ele>
        <time>2024-04-07T09:59:21Z</time>
      </trkpt>
      <trkpt lat="44.07418" lon="2.0191">
        <ele>255.4</ele>
        <time>2024-04-07T09:59:22Z</time>
      </trkpt>
      <trkpt lat="44.0742" lon="2.01906">
        <ele>255.6</ele>
        <time>2024-04-07T09:59:23Z</time>
      </trkpt>
      <trkpt lat="44.07422" lon="2.01901">
        <ele>255.8</ele>
        <time>2024-04-07T09:59:24Z</time>
      </trkpt>
      <trkpt lat="44.07423" lon="2.01897">
        <ele>256</ele>
        <time>2024-04-07T09:59:25Z</time>
      </trkpt>
      <trkpt lat="44.07424" lon="2.01896">
        <ele>256.6</ele>
        <time>2024-04-07T09:59:26Z</time>
      </trkpt>
      <trkpt lat="44.07426" lon="2.01892">
        <ele>257</ele>
        <time>2024-04-07T09:59:27Z</time>
      </trkpt>
      <trkpt lat="44.0743" lon="2.01886">
        <ele>257.2</ele>
        <time>2024-04-07T09:59:28Z</time>
      </trkpt>
      <trkpt lat="44.07431" lon="2.01883">
        <ele>257.6</ele>
        <time>2024-04-07T09:59:29Z</time>
      </trkpt>
      <trkpt lat="44.07432" lon="2.01881">
        <ele>257.6</ele>
        <time>2024-04-07T09:59:30Z</time>
      </trkpt>
      <trkpt lat="44.07433" lon="2.01878">
        <ele>258.2</ele>
        <time>2024-04-07T09:59:31Z</time>
      </trkpt>
      <trkpt lat="44.07434" lon="2.01875">
        <ele>258.6</ele>
        <time>2024-04-07T09:59:32Z</time>
      </trkpt>
      <trkpt lat="44.07436" lon="2.01873">
        <ele>259</ele>
        <time>2024-04-07T09:59:33Z</time>
      </trkpt>
      <trkpt lat="44.07439" lon="2.01871">
        <ele>259</ele>
        <time>2024-04-07T09:59:34Z</time>
      </trkpt>
      <trkpt lat="44.0744" lon="2.01869">
        <ele>259.4</ele>
        <time>2024-04-07T09:59:35Z</time>
      </trkpt>
      <trkpt lat="44.07439" lon="2.01865">
        <ele>260.2</ele>
        <time>2024-04-07T09:59:36Z</time>
      </trkpt>
      <trkpt lat="44.07439" lon="2.01862">
        <ele>260.4</ele>
        <time>2024-04-07T09:59:37Z</time>
      </trkpt>
      <trkpt lat="44.07439" lon="2.01859">
        <ele>260.8</ele>
        <time>2024-04-07T09:59:38Z</time>
      </trkpt>
      <trkpt lat="44.07441" lon="2.01855">
        <ele>261.2</ele>
        <time>2024-04-07T09:59:39Z</time>
      </trkpt>
      <trkpt lat="44.07445" lon="2.01853">
        <ele>261.4</ele>
        <time>2024-04-07T09:59:40Z</time>
      </trkpt>
      <trkpt lat="44.07446" lon="2.0185">
        <ele>261.8</ele>
        <time>2024-04-07T09:59:41Z</time>
      </trkpt>
      <trkpt lat="44.07445" lon="2.01848">
        <ele>262.2</ele>
        <time>2024-04-07T09:59:42Z</time>
      </trkpt>
      <trkpt lat="44.07445" lon="2.01846">
        <ele>262.8</ele>
        <time>2024-04-07T09:59:43Z</time>
      </trkpt>
      <trkpt lat="44.07445" lon="2.01844">
        <ele>263.2</ele>
        <time>2024-04-07T09:59:44Z</time>
      </trkpt>
      <trkpt lat="44.07446" lon="2.01842">
        <ele>263.4</ele>
        <time>2024-04-07T09:59:45Z</time>
      </trkpt>
      <trkpt lat="44.07448" lon="2.0184">
        <ele>263.6</ele>
        <time>2024-04-07T09:59:46Z</time>
      </trkpt>
      <trkpt lat="44.07449" lon="2.01838">
        <ele>263.8</ele>
        <time>2024-04-07T09:59:47Z</time>
      </trkpt>
      <trkpt lat="44.07449" lon="2.01837">
        <ele>263.8</ele>
        <time>2024-04-07T09:59:48Z</time>
      </trkpt>
      <trkpt lat="44.07449" lon="2.01836">
        <ele>264.4</ele>
        <time>2024-04-07T09:59:49Z</time>
      </trkpt>
      <trkpt lat="44.07449" lon="2.01833">
        <ele>264.6</ele>
        <time>2024-04-07T09:59:50Z</time>
      </trkpt>
      <trkpt lat="44.07449" lon="2.01828">
        <ele>265.2</ele>
        <time>2024-04-07T09:59:51Z</time>
      </trkpt>
      <trkpt lat="44.07451" lon="2.01827">
        <ele>265.8</ele>
        <time>2024-04-07T09:59:52Z</time>
      </trkpt>
      <trkpt lat="44.07453" lon="2.01823">
        <ele>266</ele>
        <time>2024-04-07T09:59:53Z</time>
      </trkpt>
      <trkpt lat="44.07453" lon="2.0182">
        <ele>266.4</ele>
        <time>2024-04-07T09:59:54Z</time>
      </trkpt>
      <trkpt lat="44.07453" lon="2.01817">
        <ele>266.6</ele>
        <time>2024-04-07T09:59:55Z</time>
      </trkpt>
      <trkpt lat="44.07453" lon="2.01814">
        <ele>267</ele>
        <time>2024-04-07T09:59:56Z</time>
      </trkpt>
      <trkpt lat="44.07455" lon="2.0181">
        <ele>267.2</ele>
        <time>2024-04-07T09:59:57Z</time>
      </trkpt>
      <trkpt lat="44.07455" lon="2.01806">
        <ele>267.6</ele>
        <time>2024-04-07T09:59:58Z</time>
      </trkpt>
      <trkpt lat="44.07456" lon="2.01803">
        <ele>268</ele>
        <time>2024-04-07T09:59:59Z</time>
      </trkpt>
      <trkpt lat="44.07455" lon="2.01799">
        <ele>268.2</ele>
        <time>2024-04-07T10:00:00Z</time>
      </trkpt>
      <trkpt lat="44.07455" lon="2.01796">
        <ele>269</ele>
        <time>2024-04-07T10:00:01Z</time>
      </trkpt>
      <trkpt lat="44.07456" lon="2.01795">
        <ele>269.2</ele>
        <time>2024-04-07T10:00:02Z</time>
      </trkpt>
      <trkpt lat="44.07456" lon="2.01792">
        <ele>269.6</ele>
        <time>2024-04-07T10:00:03Z</time>
      </trkpt>
      <trkpt lat="44.07457" lon="2.01789">
        <ele>270</ele>
        <time>2024-04-07T10:00:04Z</time>
      </trkpt>
      <trkpt lat="44.07457" lon="2.01786">
        <ele>270.2</ele>
        <time>2024-04-07T10:00:05Z</time>
      </trkpt>
      <trkpt lat="44.07457" lon="2.01784">
        <ele>270.4</ele>
        <time>2024-04-07T10:00:06Z</time>
      </trkpt>
      <trkpt lat="44.07458" lon="2.01782">
        <ele>270.8</ele>
        <time>2024-04-07T10:00:07Z</time>
      </trkpt>
      <trkpt lat="44.07458" lon="2.01781">
        <ele>271.4</ele>
        <time>2024-04-07T10:00:08Z</time>
      </trkpt>
      <trkpt lat="44.07457" lon="2.01779">
        <ele>271.6</ele>
        <time>2024-04-07T10:00:09Z</time>
      </trkpt>
      <trkpt lat="44.07458" lon="2.01777">
        <ele>271.8</ele>
        <time>2024-04-07T10:00:10Z</time>
      </trkpt>
      <trkpt lat="44.07459" lon="2.01775">
        <ele>272</ele>
        <time>2024-04-07T10:00:11Z</time>
      </trkpt>
      <trkpt lat="44.07459" lon="2.01772">
        <ele>272.2</ele>
        <time>2024-04-07T10:00:12Z</time>
      </trkpt>
      <trkpt lat="44.0746" lon="2.0177">
        <ele>272.2</ele>
        <time>2024-04-07T10:00:13Z</time>
      </trkpt>
      <trkpt lat="44.0746" lon="2.01767">
        <ele>272.4</ele>
        <time>2024-04-07T10:00:14Z</time>
      </trkpt>
      <trkpt lat="44.0746" lon="2.01765">
        <ele>272.4</ele>
        <time>2024-04-07T10:00:15Z</time>
      </trkpt>
      <trkpt lat="44.07461" lon="2.01762">
        <ele>272.6</ele>
        <time>2024-04-07T10:00:16Z</time>
      </trkpt>
      <trkpt lat="44.07462" lon="2.01759">
        <ele>272.8</ele>
        <time>2024-04-07T10:00:17Z</time>
      </trkpt>
      <trkpt lat="44.07462" lon="2.01757">
        <ele>273</ele>
        <time>2024-04-07T10:00:18Z</time>
      </trkpt>
      <trkpt lat="44.07462" lon="2.01754">
        <ele>273.6</ele>
        <time>2024-04-07T10:00:19Z</time>
      </trkpt>
      <trkpt lat="44.07463" lon="2.01751">
        <ele>273.8</ele>
        <time>2024-04-07T10:00:20Z</time>
      </trkpt>
      <trkpt lat="44.07463" lon="2.01749">
        <ele>274.4</ele>
        <time>2024-04-07T10:00:21Z</time>
      </trkpt>
      <trkpt lat="44.07462" lon="2.01746">
        <ele>274.8</ele>
        <time>2024-04-07T10:00:22Z</time>
      </trkpt>
      <trkpt lat="44.07464" lon="2.01743">
        <ele>275.4</ele>
        <time>2024-04-07T10:00:23Z</time>
      </trkpt>
      <trkpt lat="44.07463" lon="2.01741">
        <ele>275.6</ele>
        <time>2024-04-07T10:00:24Z</time>
      </trkpt>
      <trkpt lat="44.07463" lon="2.01738">
        <ele>275.8</ele>
        <time>2024-04-07T10:00:25Z</time>
      </trkpt>
      <trkpt lat="44.07463" lon="2.01736">
        <ele>276.2</ele>
        <time>2024-04-07T10:00:26Z</time>
      </trkpt>
      <trkpt lat="44.07464" lon="2.01735">
        <ele>276.4</ele>
        <time>2024-04-07T10:00:27Z</time>
      </trkpt>
      <trkpt lat="44.07464" lon="2.01732">
        <ele>277</ele>
        <time>2024-04-07T10:00:28Z</time>
      </trkpt>
      <trkpt lat="44.07465" lon="2.01729">
        <ele>277.2</ele>
        <time>2024-04-07T10:00:29Z</time>
      </trkpt>
      <trkpt lat="44.07465" lon="2.01727">
        <ele>277.8</ele>
        <time>2024-04-07T10:00:30Z</time>
      </trkpt>
      <trkpt lat="44.07466" lon="2.01724">
        <ele>278.2</ele>
        <time>2024-04-07T10:00:31Z</time>
      </trkpt>
      <trkpt lat="44.07466" lon="2.01722">
        <ele>278.4</ele>
        <time>2024-04-07T10:00:32Z</time>
      </trkpt>
      <trkpt lat="44.07467" lon="2.01719">
        <ele>279.2</ele>
        <time>2024-04-07T10:00:33Z</time>
      </trkpt>
      <trkpt lat="44.07467" lon="2.01716">
        <ele>279.4</ele>
        <time>2024-04-07T10:00:34Z</time>
      </trkpt>
      <trkpt lat="44.07468" lon="2.01713">
        <ele>279.6</ele>
        <time>2024-04-07T10:00:35Z</time>
      </trkpt>
      <trkpt lat="44.07468" lon="2.01711">
        <ele>280.4</ele>
        <time>2024-04-07T10:00:36Z</time>
      </trkpt>
      <trkpt lat="44.07469" lon="2.01708">
        <ele>281.2</ele>
        <time>2024-04-07T10:00:37Z</time>
      </trkpt>
      <trkpt lat="44.07469" lon="2.01706">
        <ele>281.6</ele>
        <time>2024-04-07T10:00:38Z</time>
      </trkpt>
      <trkpt lat="44.07469" lon="2.01703">
        <ele>282.2</ele>
        <time>2024-04-07T10:00:39Z</time>
      </trkpt>
      <trkpt lat="44.07468" lon="2.017">
        <ele>282.6</ele>
        <time>2024-04-07T10:00:40Z</time>
      </trkpt>
      <trkpt lat="44.07467" lon="2.01698">
        <ele>282.8</ele>
        <time>2024-04-07T10:00:41Z</time>
      </trkpt>
      <trkpt lat="44.07466" lon="2.01697">
        <ele>283.2</ele>
        <time>2024-04-07T10:00:42Z</time>
      </trkpt>
      <trkpt lat="44.07465" lon="2.01695">
        <ele>283.4</ele>
        <time>2024-04-07T10:00:43Z</time>
      </trkpt>
      <trkpt lat="44.07464" lon="2.01694">
        <ele>283.6</ele>
        <time>2024-04-07T10:00:44Z</time>
      </trkpt>
      <trkpt lat="44.07462" lon="2.01693">
        <ele>283.8</ele>
        <time>2024-04-07T10:00:45Z</time>
      </trkpt>
      <trkpt lat="44.07461" lon="2.01692">
        <ele>284.4</ele>
        <time>2024-04-07T10:00:46Z</time>
      </trkpt>
      <trkpt lat="44.0746" lon="2.01692">
        <ele>285</ele>
        <time>2024-04-07T10:00:47Z</time>
      </trkpt>
      <trkpt lat="44.07459" lon="2.01692">
        <ele>285.2</ele>
        <time>2024-04-07T10:00:48Z</time>
      </trkpt>
      <trkpt lat="44.07457" lon="2.01692">
        <ele>285.8</ele>
        <time>2024-04-07T10:00:49Z</time>
      </trkpt>
      <trkpt lat="44.07454" lon="2.01692">
        <ele>286</ele>
        <time>2024-04-07T10:00:50Z</time>
      </trkpt>
      <trkpt lat="44.07452" lon="2.01692">
        <ele>286.6</ele>
        <time>2024-04-07T10:00:51Z</time>
      </trkpt>
      <trkpt lat="44.0745" lon="2.01692">
        <ele>287</ele>
        <time>2024-04-07T10:00:52Z</time>
      </trkpt>
      <trkpt lat="44.07448" lon="2.01692">
        <ele>287.4</ele>
        <time>2024-04-07T10:00:53Z</time>
      </trkpt>
      <trkpt lat="44.07446" lon="2.01692">
        <ele>288.2</ele>
        <time>2024-04-07T10:00:54Z</time>
      </trkpt>
      <trkpt lat="44.07443" lon="2.01694">
        <ele>288.4</ele>
        <time>2024-04-07T10:00:55Z</time>
      </trkpt>
      <trkpt lat="44.0744" lon="2.01696">
        <ele>288.6</ele>
        <time>2024-04-07T10:00:56Z</time>
      </trkpt>
      <trkpt lat="44.07434" lon="2.01698">
        <ele>288.8</ele>
        <time>2024-04-07T10:00:57Z</time>
      </trkpt>
      <trkpt lat="44.07431" lon="2.017">
        <ele>289.4</ele>
        <time>2024-04-07T10:00:58Z</time>
      </trkpt>
      <trkpt lat="44.07429" lon="2.01702">
        <ele>289.8</ele>
        <time>2024-04-07T10:00:59Z</time>
      </trkpt>
      <trkpt lat="44.07426" lon="2.01704">
        <ele>290.2</ele>
        <time>2024-04-07T10:01:00Z</time>
      </trkpt>
      <trkpt lat="44.07423" lon="2.01705">
        <ele>290.4</ele>
        <time>2024-04-07T10:01:01Z</time>
      </trkpt>
      <trkpt lat="44.0742" lon="2.01706">
        <ele>290.8</ele>
        <time>2024-04-07T10:01:02Z</time>
      </trkpt>
      <trkpt lat="44.07419" lon="2.01708">
        <ele>291.2</ele>
        <time>2024-04-07T10:01:03Z</time>
      </trkpt>
      <trkpt lat="44.07417" lon="2.01711">
        <ele>291.4</ele>
        <time>2024-04-07T10:01:04Z</time>
      </trkpt>
      <trkpt lat="44.07415" lon="2.01713">
        <ele>291.6</ele>
        <time>2024-04-07T10:01:05Z</time>
      </trkpt>
      <trkpt lat="44.07413" lon="2.01715">
        <ele>291.8</ele>
        <time>2024-04-07T10:01:06Z</time>
      </trkpt>
      <trkpt lat="44.07411" lon="2.01716">
        <ele>291.8</ele>
        <time>2024-04-07T10:01:07Z</time>
      </trkpt>
      <trkpt lat="44.07409" lon="2.01719">
        <ele>292</ele>
        <time>2024-04-07T10:01:08Z</time>
      </trkpt>
      <trkpt lat="44.07408" lon="2.0172">
        <ele>292.4</ele>
        <time>2024-04-07T10:01:09Z</time>
      </trkpt>
      <trkpt lat="44.07405" lon="2.01724">
        <ele>292.8</ele>
        <time>2024-04-07T10:01:10Z</time>
      </trkpt>
      <trkpt lat="44.07401" lon="2.01727">
        <ele>292.8</ele>
        <time>2024-04-07T10:01:11Z</time>
      </trkpt>
      <trkpt lat="44.074" lon="2.01729">
        <ele>293</ele>
        <time>2024-04-07T10:01:12Z</time>
      </trkpt>
      <trkpt lat="44.07397" lon="2.01731">
        <ele>293</ele>
        <time>2024-04-07T10:01:13Z</time>
      </trkpt>
      <trkpt lat="44.07396" lon="2.01732">
        <ele>293.2</ele>
        <time>2024-04-07T10:01:14Z</time>
      </trkpt>
      <trkpt lat="44.07394" lon="2.01733">
        <ele>293.4</ele>
        <time>2024-04-07T10:01:15Z</time>
      </trkpt>
      <trkpt lat="44.07392" lon="2.01735">
        <ele>293.4</ele>
        <time>2024-04-07T10:01:16Z</time>
      </trkpt>
      <trkpt lat="44.0739" lon="2.01738">
        <ele>293.6</ele>
        <time>2024-04-07T10:01:17Z</time>
      </trkpt>
      <trkpt lat="44.0739" lon="2.0174">
        <ele>294.2</ele>
        <time>2024-04-07T10:01:18Z</time>
      </trkpt>
      <trkpt lat="44.07388" lon="2.01741">
        <ele>294.6</ele>
        <time>2024-04-07T10:01:19Z</time>
      </trkpt>
      <trkpt lat="44.07387" lon="2.01743">
        <ele>294.6</ele>
        <time>2024-04-07T10:01:20Z</time>
      </trkpt>
      <trkpt lat="44.07386" lon="2.01744">
        <ele>294.8</ele>
        <time>2024-04-07T10:01:21Z</time>
      </trkpt>
      <trkpt lat="44.07385" lon="2.01745">
        <ele>295</ele>
        <time>2024-04-07T10:01:22Z</time>
      </trkpt>
      <trkpt lat="44.07384" lon="2.01746">
        <ele>295.4</ele>
        <time>2024-04-07T10:01:23Z</time>
      </trkpt>
      <trkpt lat="44.07382" lon="2.01747">
        <ele>295.4</ele>
        <time>2024-04-07T10:01:24Z</time>
      </trkpt>
      <trkpt lat="44.07381" lon="2.01748">
        <ele>295.8</ele>
        <time>2024-04-07T10:01:25Z</time>
      </trkpt>
      <trkpt lat="44.0738" lon="2.01748">
        <ele>296</ele>
        <time>2024-04-07T10:01:26Z</time>
      </trkpt>
      <trkpt lat="44.07378" lon="2.01748">
        <ele>296.2</ele>
        <time>2024-04-07T10:01:27Z</time>
      </trkpt>
      <trkpt lat="44.07375" lon="2.01748">
        <ele>296.4</ele>
        <time>2024-04-07T10:01:28Z</time>
      </trkpt>
      <trkpt lat="44.07373" lon="2.01748">
        <ele>296.6</ele>
        <time>2024-04-07T10:01:29Z</time>
      </trkpt>
      <trkpt lat="44.07371" lon="2.01749">
        <ele>296.8</ele>
        <time>2024-04-07T10:01:30Z</time>
      </trkpt>
      <trkpt lat="44.07367" lon="2.01748">
        <ele>297</ele>
        <time>2024-04-07T10:01:31Z</time>
      </trkpt>
      <trkpt lat="44.07364" lon="2.01748">
        <ele>297</ele>
        <time>2024-04-07T10:01:32Z</time>
      </trkpt>
      <trkpt lat="44.0736" lon="2.01747">
        <ele>297.2</ele>
        <time>2024-04-07T10:01:33Z</time>
      </trkpt>
      <trkpt lat="44.07357" lon="2.01746">
        <ele>297.4</ele>
        <time>2024-04-07T10:01:34Z</time>
      </trkpt>
      <trkpt lat="44.07354" lon="2.01745">
        <ele>297.6</ele>
        <time>2024-04-07T10:01:35Z</time>
      </trkpt>
      <trkpt lat="44.07352" lon="2.01745">
        <ele>297.8</ele>
        <time>2024-04-07T10:01:36Z</time>
      </trkpt>
      <trkpt lat="44.07349" lon="2.01744">
        <ele>298.6</ele>
        <time>2024-04-07T10:01:37Z</time>
      </trkpt>
      <trkpt lat="44.07346" lon="2.01743">
        <ele>298.8</ele>
        <time>2024-04-07T10:01:38Z</time>
      </trkpt>
      <trkpt lat="44.07344" lon="2.01741">
        <ele>299.4</ele>
        <time>2024-04-07T10:01:39Z</time>
      </trkpt>
      <trkpt lat="44.07341" lon="2.0174">
        <ele>299.8</ele>
        <time>2024-04-07T10:01:40Z</time>
      </trkpt>
      <trkpt lat="44.07339" lon="2.0174">
        <ele>300.8</ele>
        <time>2024-04-07T10:01:41Z</time>
      </trkpt>
      <trkpt lat="44.07336" lon="2.01739">
        <ele>301.4</ele>
        <time>2024-04-07T10:01:42Z</time>
      </trkpt>
      <trkpt lat="44.07332" lon="2.01737">
        <ele>301.6</ele>
        <time>2024-04-07T10:01:43Z</time>
      </trkpt>
      <trkpt lat="44.0733" lon="2.01736">
        <ele>302</ele>
        <time>2024-04-07T10:01:44Z</time>
      </trkpt>
      <trkpt lat="44.07327" lon="2.01735">
        <ele>302.2</ele>
        <time>2024-04-07T10:01:45Z</time>
      </trkpt>
      <trkpt lat="44.07324" lon="2.01734">
        <ele>303</ele>
        <time>2024-04-07T10:01:46Z</time>
      </trkpt>
      <trkpt lat="44.0732" lon="2.01733">
        <ele>303.2</ele>
        <time>2024-04-07T10:01:47Z</time>
      </trkpt>
      <trkpt lat="44.07316" lon="2.01731">
        <ele>303.6</ele>
        <time>2024-04-07T10:01:48Z</time>
      </trkpt>
      <trkpt lat="44.07313" lon="2.0173">
        <ele>304</ele>
        <time>2024-04-07T10:01:49Z</time>
      </trkpt>
      <trkpt lat="44.07309" lon="2.01729">
        <ele>304.6</ele>
        <time>2024-04-07T10:01:50Z</time>
      </trkpt>
      <trkpt lat="44.07306" lon="2.01728">
        <ele>305</ele>
        <time>2024-04-07T10:01:51Z</time>
      </trkpt>
      <trkpt lat="44.07303" lon="2.01726">
        <ele>305.2</ele>
        <time>2024-04-07T10:01:52Z</time>
      </trkpt>
      <trkpt lat="44.07299" lon="2.01724">
        <ele>306</ele>
        <time>2024-04-07T10:01:53Z</time>
      </trkpt>
      <trkpt lat="44.07295" lon="2.01722">
        <ele>306.4</ele>
        <time>2024-04-07T10:01:54Z</time>
      </trkpt>
      <trkpt lat="44.07292" lon="2.01721">
        <ele>306.8</ele>
        <time>2024-04-07T10:01:55Z</time>
      </trkpt>
      <trkpt lat="44.07289" lon="2.01719">
        <ele>307</ele>
        <time>2024-04-07T10:01:56Z</time>
      </trkpt>
      <trkpt lat="44.07285" lon="2.01717">
        <ele>307.2</ele>
        <time>2024-04-07T10:01:57Z</time>
      </trkpt>
      <trkpt lat="44.07282" lon="2.01716">
        <ele>307.4</ele>
        <time>2024-04-07T10:01:58Z</time>
      </trkpt>
      <trkpt lat="44.07279" lon="2.01714">
        <ele>307.6</ele>
        <time>2024-04-07T10:01:59Z</time>
      </trkpt>
      <trkpt lat="44.07276" lon="2.01712">
        <ele>308</ele>
        <time>2024-04-07T10:02:00Z</time>
      </trkpt>
      <trkpt lat="44.07273" lon="2.0171">
        <ele>308</ele>
        <time>2024-04-07T10:02:01Z</time>
      </trkpt>
      <trkpt lat="44.07269" lon="2.01708">
        <ele>308.2</ele>
        <time>2024-04-07T10:02:02Z</time>
      </trkpt>
      <trkpt lat="44.07265" lon="2.01707">
        <ele>308.2</ele>
        <time>2024-04-07T10:02:03Z</time>
      </trkpt>
      <trkpt lat="44.07261" lon="2.01705">
        <ele>308.2</ele>
        <time>2024-04-07T10:02:04Z</time>
      </trkpt>
      <trkpt lat="44.07257" lon="2.01703">
        <ele>308.2</ele>
        <time>2024-04-07T10:02:05Z</time>
      </trkpt>
      <trkpt lat="44.07253" lon="2.01701">
        <ele>308.2</ele>
        <time>2024-04-07T10:02:06Z</time>
      </trkpt>
      <trkpt lat="44.07248" lon="2.01699">
        <ele>308.2</ele>
        <time>2024-04-07T10:02:07Z</time>
      </trkpt>
      <trkpt lat="44.07243" lon="2.01697">
        <ele>308.2</ele>
        <time>2024-04-07T10:02:08Z</time>
      </trkpt>
      <trkpt lat="44.07238" lon="2.01694">
        <ele>308</ele>
        <time>2024-04-07T10:02:09Z</time>
      </trkpt>
      <trkpt lat="44.07233" lon="2.01692">
        <ele>308</ele>
        <time>2024-04-07T10:02:10Z</time>
      </trkpt>
      <trkpt lat="44.07228" lon="2.0169">
        <ele>308</ele>
        <time>2024-04-07T10:02:11Z</time>
      </trkpt>
      <trkpt lat="44.07223" lon="2.01689">
        <ele>308</ele>
        <time>2024-04-07T10:02:12Z</time>
      </trkpt>
      <trkpt lat="44.07219" lon="2.0169">
        <ele>307.8</ele>
        <time>2024-04-07T10:02:13Z</time>
      </trkpt>
      <trkpt lat="44.07215" lon="2.01692">
        <ele>307.6</ele>
        <time>2024-04-07T10:02:14Z</time>
      </trkpt>
      <trkpt lat="44.07213" lon="2.01696">
        <ele>307.6</ele>
        <time>2024-04-07T10:02:15Z</time>
      </trkpt>
      <trkpt lat="44.07211" lon="2.01699">
        <ele>307.6</ele>
        <time>2024-04-07T10:02:16Z</time>
      </trkpt>
      <trkpt lat="44.0721" lon="2.01702">
        <ele>307.6</ele>
        <time>2024-04-07T10:02:17Z</time>
      </trkpt>
      <trkpt lat="44.07208" lon="2.01705">
        <ele>307.8</ele>
        <time>2024-04-07T10:02:18Z</time>
      </trkpt>
      <trkpt lat="44.07207" lon="2.01709">
        <ele>307.8</ele>
        <time>2024-04-07T10:02:19Z</time>
      </trkpt>
      <trkpt lat="44.07205" lon="2.01712">
        <ele>308</ele>
        <time>2024-04-07T10:02:20Z</time>
      </trkpt>
      <trkpt lat="44.07204" lon="2.01715">
        <ele>308</ele>
        <time>2024-04-07T10:02:21Z</time>
      </trkpt>
      <trkpt lat="44.07203" lon="2.01718">
        <ele>308.2</ele>
        <time>2024-04-07T10:02:22Z</time>
      </trkpt>
      <trkpt lat="44.07202" lon="2.01722">
        <ele>308.2</ele>
        <time>2024-04-07T10:02:23Z</time>
      </trkpt>
      <trkpt lat="44.07201" lon="2.01726">
        <ele>308.4</ele>
        <time>2024-04-07T10:02:24Z</time>
      </trkpt>
      <trkpt lat="44.072" lon="2.0173">
        <ele>308.6</ele>
        <time>2024-04-07T10:02:25Z</time>
      </trkpt>
      <trkpt lat="44.07199" lon="2.01733">
        <ele>308.8</ele>
        <time>2024-04-07T10:02:26Z</time>
      </trkpt>
      <trkpt lat="44.07198" lon="2.01738">
        <ele>309</ele>
        <time>2024-04-07T10:02:27Z</time>
      </trkpt>
      <trkpt lat="44.07197" lon="2.01742">
        <ele>309.2</ele>
        <time>2024-04-07T10:02:28Z</time>
      </trkpt>
      <trkpt lat="44.07196" lon="2.01747">
        <ele>309.4</ele>
        <time>2024-04-07T10:02:29Z</time>
      </trkpt>
      <trkpt lat="44.07194" lon="2.01756">
        <ele>310</ele>
        <time>2024-04-07T10:02:31Z</time>
      </trkpt>
      <trkpt lat="44.07193" lon="2.01761">
        <ele>310.2</ele>
        <time>2024-04-07T10:02:32Z</time>
      </trkpt>
      <trkpt lat="44.07192" lon="2.01766">
        <ele>310.2</ele>
        <time>2024-04-07T10:02:33Z</time>
      </trkpt>
      <trkpt lat="44.07191" lon="2.01771">
        <ele>310.2</ele>
        <time>2024-04-07T10:02:34Z</time>
      </trkpt>
      <trkpt lat="44.0719" lon="2.01776">
        <ele>310.2</ele>
        <time>2024-04-07T10:02:35Z</time>
      </trkpt>
      <trkpt lat="44.07189" lon="2.01781">
        <ele>310.4</ele>
        <time>2024-04-07T10:02:36Z</time>
      </trkpt>
      <trkpt lat="44.07188" lon="2.01787">
        <ele>310.4</ele>
        <time>2024-04-07T10:02:37Z</time>
      </trkpt>
      <trkpt lat="44.07187" lon="2.01792">
        <ele>310.6</ele>
        <time>2024-04-07T10:02:38Z</time>
      </trkpt>
      <trkpt lat="44.07186" lon="2.01798">
        <ele>310.8</ele>
        <time>2024-04-07T10:02:39Z</time>
      </trkpt>
      <trkpt lat="44.07185" lon="2.01803">
        <ele>311</ele>
        <time>2024-04-07T10:02:40Z</time>
      </trkpt>
      <trkpt lat="44.07184" lon="2.01808">
        <ele>311.2</ele>
        <time>2024-04-07T10:02:41Z</time>
      </trkpt>
      <trkpt lat="44.07183" lon="2.01813">
        <ele>311.4</ele>
        <time>2024-04-07T10:02:42Z</time>
      </trkpt>
      <trkpt lat="44.07182" lon="2.01818">
        <ele>311.8</ele>
        <time>2024-04-07T10:02:43Z</time>
      </trkpt>
      <trkpt lat="44.07181" lon="2.01823">
        <ele>311.8</ele>
        <time>2024-04-07T10:02:44Z</time>
      </trkpt>
      <trkpt lat="44.0718" lon="2.01828">
        <ele>312.2</ele>
        <time>2024-04-07T10:02:45Z</time>
      </trkpt>
      <trkpt lat="44.07179" lon="2.01833">
        <ele>312.4</ele>
        <time>2024-04-07T10:02:46Z</time>
      </trkpt>
      <trkpt lat="44.07178" lon="2.01838">
        <ele>312.6</ele>
        <time>2024-04-07T10:02:47Z</time>
      </trkpt>
      <trkpt lat="44.07177" lon="2.01843">
        <ele>312.8</ele>
        <time>2024-04-07T10:02:48Z</time>
      </trkpt>
      <trkpt lat="44.07176" lon="2.01847">
        <ele>312.8</ele>
        <time>2024-04-07T10:02:49Z</time>
      </trkpt>
      <trkpt lat="44.07175" lon="2.01851">
        <ele>313</ele>
        <time>2024-04-07T10:02:50Z</time>
      </trkpt>
      <trkpt lat="44.07175" lon="2.01856">
        <ele>313.2</ele>
        <time>2024-04-07T10:02:51Z</time>
      </trkpt>
      <trkpt lat="44.07174" lon="2.0186">
        <ele>313.2</ele>
        <time>2024-04-07T10:02:52Z</time>
      </trkpt>
      <trkpt lat="44.07173" lon="2.01864">
        <ele>313.4</ele>
        <time>2024-04-07T10:02:53Z</time>
      </trkpt>
      <trkpt lat="44.07171" lon="2.01869">
        <ele>313.4</ele>
        <time>2024-04-07T10:02:54Z</time>
      </trkpt>
      <trkpt lat="44.07169" lon="2.01873">
        <ele>313.6</ele>
        <time>2024-04-07T10:02:55Z</time>
      </trkpt>
      <trkpt lat="44.07166" lon="2.01877">
        <ele>313.6</ele>
        <time>2024-04-07T10:02:56Z</time>
      </trkpt>
      <trkpt lat="44.07162" lon="2.01881">
        <ele>313.6</ele>
        <time>2024-04-07T10:02:57Z</time>
      </trkpt>
      <trkpt lat="44.07158" lon="2.01884">
        <ele>313.6</ele>
        <time>2024-04-07T10:02:58Z</time>
      </trkpt>
      <trkpt lat="44.07154" lon="2.01888">
        <ele>313.6</ele>
        <time>2024-04-07T10:02:59Z</time>
      </trkpt>
      <trkpt lat="44.0715" lon="2.0189">
        <ele>313.8</ele>
        <time>2024-04-07T10:03:00Z</time>
      </trkpt>
      <trkpt lat="44.07146" lon="2.01893">
        <ele>313.8</ele>
        <time>2024-04-07T10:03:01Z</time>
      </trkpt>
      <trkpt lat="44.07142" lon="2.01896">
        <ele>313.8</ele>
        <time>2024-04-07T10:03:02Z</time>
      </trkpt>
      <trkpt lat="44.07138" lon="2.01899">
        <ele>314</ele>
        <time>2024-04-07T10:03:03Z</time>
      </trkpt>
      <trkpt lat="44.07133" lon="2.01901">
        <ele>314.4</ele>
        <time>2024-04-07T10:03:04Z</time>
      </trkpt>
      <trkpt lat="44.07129" lon="2.01904">
        <ele>314.4</ele>
        <time>2024-04-07T10:03:05Z</time>
      </trkpt>
      <trkpt lat="44.07125" lon="2.01907">
        <ele>314.6</ele>
        <time>2024-04-07T10:03:06Z</time>
      </trkpt>
      <trkpt lat="44.0712" lon="2.01909">
        <ele>314.8</ele>
        <time>2024-04-07T10:03:07Z</time>
      </trkpt>
      <trkpt lat="44.07117" lon="2.01912">
        <ele>315</ele>
        <time>2024-04-07T10:03:08Z</time>
      </trkpt>
      <trkpt lat="44.07113" lon="2.01915">
        <ele>315.2</ele>
        <time>2024-04-07T10:03:09Z</time>
      </trkpt>
      <trkpt lat="44.0711" lon="2.01917">
        <ele>315.4</ele>
        <time>2024-04-07T10:03:10Z</time>
      </trkpt>
      <trkpt lat="44.07106" lon="2.01919">
        <ele>315.6</ele>
        <time>2024-04-07T10:03:11Z</time>
      </trkpt>
      <trkpt lat="44.07102" lon="2.01921">
        <ele>315.8</ele>
        <time>2024-04-07T10:03:12Z</time>
      </trkpt>
      <trkpt lat="44.07098" lon="2.01923">
        <ele>316</ele>
        <time>2024-04-07T10:03:13Z</time>
      </trkpt>
      <trkpt lat="44.07094" lon="2.01924">
        <ele>316</ele>
        <time>2024-04-07T10:03:14Z</time>
      </trkpt>
      <trkpt lat="44.07089" lon="2.01926">
        <ele>316.4</ele>
        <time>2024-04-07T10:03:15Z</time>
      </trkpt>
      <trkpt lat="44.07085" lon="2.01928">
        <ele>316.6</ele>
        <time>2024-04-07T10:03:16Z</time>
      </trkpt>
      <trkpt lat="44.0708" lon="2.01931">
        <ele>316.8</ele>
        <time>2024-04-07T10:03:17Z</time>
      </trkpt>
      <trkpt lat="44.07076" lon="2.01933">
        <ele>317.2</ele>
        <time>2024-04-07T10:03:18Z</time>
      </trkpt>
      <trkpt lat="44.07073" lon="2.01935">
        <ele>317.4</ele>
        <time>2024-04-07T10:03:19Z</time>
      </trkpt>
      <trkpt lat="44.07069" lon="2.01937">
        <ele>317.6</ele>
        <time>2024-04-07T10:03:20Z</time>
      </trkpt>
      <trkpt lat="44.07065" lon="2.0194">
        <ele>318</ele>
        <time>2024-04-07T10:03:21Z</time>
      </trkpt>
      <trkpt lat="44.07062" lon="2.01943">
        <ele>318.6</ele>
        <time>2024-04-07T10:03:22Z</time>
      </trkpt>
      <trkpt lat="44.07058" lon="2.01947">
        <ele>319</ele>
        <time>2024-04-07T10:03:23Z</time>
      </trkpt>
      <trkpt lat="44.07054" lon="2.0195">
        <ele>319.2</ele>
        <time>2024-04-07T10:03:24Z</time>
      </trkpt>
      <trkpt lat="44.0705" lon="2.01952">
        <ele>319.8</ele>
        <time>2024-04-07T10:03:25Z</time>
      </trkpt>
      <trkpt lat="44.07046" lon="2.01954">
        <ele>320.2</ele>
        <time>2024-04-07T10:03:26Z</time>
      </trkpt>
      <trkpt lat="44.07042" lon="2.01956">
        <ele>320.6</ele>
        <time>2024-04-07T10:03:27Z</time>
      </trkpt>
      <trkpt lat="44.07037" lon="2.01956">
        <ele>320.8</ele>
        <time>2024-04-07T10:03:28Z</time>
      </trkpt>
      <trkpt lat="44.07033" lon="2.01957">
        <ele>321.2</ele>
        <time>2024-04-07T10:03:29Z</time>
      </trkpt>
      <trkpt lat="44.0703" lon="2.01958">
        <ele>321.6</ele>
        <time>2024-04-07T10:03:30Z</time>
      </trkpt>
      <trkpt lat="44.07027" lon="2.01962">
        <ele>322</ele>
        <time>2024-04-07T10:03:31Z</time>
      </trkpt>
      <trkpt lat="44.07025" lon="2.01966">
        <ele>322.4</ele>
        <time>2024-04-07T10:03:32Z</time>
      </trkpt>
      <trkpt lat="44.07023" lon="2.01972">
        <ele>322.8</ele>
        <time>2024-04-07T10:03:33Z</time>
      </trkpt>
      <trkpt lat="44.07022" lon="2.01979">
        <ele>323</ele>
        <time>2024-04-07T10:03:34Z</time>
      </trkpt>
      <trkpt lat="44.0702" lon="2.01987">
        <ele>323.2</ele>
        <time>2024-04-07T10:03:35Z</time>
      </trkpt>
      <trkpt lat="44.07019" lon="2.01994">
        <ele>323.4</ele>
        <time>2024-04-07T10:03:36Z</time>
      </trkpt>
      <trkpt lat="44.07017" lon="2.02001">
        <ele>323.4</ele>
        <time>2024-04-07T10:03:37Z</time>
      </trkpt>
      <trkpt lat="44.07015" lon="2.02008">
        <ele>323.4</ele>
        <time>2024-04-07T10:03:38Z</time>
      </trkpt>
      <trkpt lat="44.07014" lon="2.02015">
        <ele>323.4</ele>
        <time>2024-04-07T10:03:39Z</time>
      </trkpt>
      <trkpt lat="44.07013" lon="2.02022">
        <ele>323.4</ele>
        <time>2024-04-07T10:03:40Z</time>
      </trkpt>
      <trkpt lat="44.07012" lon="2.02031">
        <ele>323.4</ele>
        <time>2024-04-07T10:03:41Z</time>
      </trkpt>
      <trkpt lat="44.07012" lon="2.02039">
        <ele>323.2</ele>
        <time>2024-04-07T10:03:42Z</time>
      </trkpt>
      <trkpt lat="44.07012" lon="2.02049">
        <ele>323</ele>
        <time>2024-04-07T10:03:43Z</time>
      </trkpt>
      <trkpt lat="44.07012" lon="2.02058">
        <ele>322.8</ele>
        <time>2024-04-07T10:03:44Z</time>
      </trkpt>
      <trkpt lat="44.07011" lon="2.02068">
        <ele>322.8</ele>
        <time>2024-04-07T10:03:45Z</time>
      </trkpt>
      <trkpt lat="44.07011" lon="2.02078">
        <ele>322.6</ele>
        <time>2024-04-07T10:03:46Z</time>
      </trkpt>
      <trkpt lat="44.07011" lon="2.02088">
        <ele>322.6</ele>
        <time>2024-04-07T10:03:47Z</time>
      </trkpt>
      <trkpt lat="44.0701" lon="2.02096">
        <ele>322.6</ele>
        <time>2024-04-07T10:03:48Z</time>
      </trkpt>
      <trkpt lat="44.0701" lon="2.02105">
        <ele>322</ele>
        <time>2024-04-07T10:03:49Z</time>
      </trkpt>
      <trkpt lat="44.0701" lon="2.02114">
        <ele>321.6</ele>
        <time>2024-04-07T10:03:50Z</time>
      </trkpt>
      <trkpt lat="44.0701" lon="2.02123">
        <ele>321.6</ele>
        <time>2024-04-07T10:03:51Z</time>
      </trkpt>
      <trkpt lat="44.0701" lon="2.02132">
        <ele>321.4</ele>
        <time>2024-04-07T10:03:52Z</time>
      </trkpt>
      <trkpt lat="44.07011" lon="2.02141">
        <ele>321.4</ele>
        <time>2024-04-07T10:03:53Z</time>
      </trkpt>
      <trkpt lat="44.07012" lon="2.02149">
        <ele>321</ele>
        <time>2024-04-07T10:03:54Z</time>
      </trkpt>
      <trkpt lat="44.07013" lon="2.02158">
        <ele>320.8</ele>
        <time>2024-04-07T10:03:55Z</time>
      </trkpt>
      <trkpt lat="44.07014" lon="2.02166">
        <ele>320.6</ele>
        <time>2024-04-07T10:03:56Z</time>
      </trkpt>
      <trkpt lat="44.07015" lon="2.02174">
        <ele>320.4</ele>
        <time>2024-04-07T10:03:57Z</time>
      </trkpt>
      <trkpt lat="44.07016" lon="2.02183">
        <ele>320.2</ele>
        <time>2024-04-07T10:03:58Z</time>
      </trkpt>
      <trkpt lat="44.07017" lon="2.02192">
        <ele>320</ele>
        <time>2024-04-07T10:03:59Z</time>
      </trkpt>
      <trkpt lat="44.07016" lon="2.02201">
        <ele>320</ele>
        <time>2024-04-07T10:04:00Z</time>
      </trkpt>
      <trkpt lat="44.07016" lon="2.02209">
        <ele>320</ele>
        <time>2024-04-07T10:04:01Z</time>
      </trkpt>
      <trkpt lat="44.07016" lon="2.02217">
        <ele>320</ele>
        <time>2024-04-07T10:04:02Z</time>
      </trkpt>
      <trkpt lat="44.07015" lon="2.02225">
        <ele>320</ele>
        <time>2024-04-07T10:04:03Z</time>
      </trkpt>
      <trkpt lat="44.07014" lon="2.02233">
        <ele>320</ele>
        <time>2024-04-07T10:04:04Z</time>
      </trkpt>
      <trkpt lat="44.07014" lon="2.0224">
        <ele>319.8</ele>
        <time>2024-04-07T10:04:05Z</time>
      </trkpt>
      <trkpt lat="44.07013" lon="2.02249">
        <ele>319.8</ele>
        <time>2024-04-07T10:04:06Z</time>
      </trkpt>
      <trkpt lat="44.07011" lon="2.02257">
        <ele>319.8</ele>
        <time>2024-04-07T10:04:07Z</time>
      </trkpt>
      <trkpt lat="44.0701" lon="2.02264">
        <ele>319.6</ele>
        <time>2024-04-07T10:04:08Z</time>
      </trkpt>
      <trkpt lat="44.07009" lon="2.02272">
        <ele>319.6</ele>
        <time>2024-04-07T10:04:09Z</time>
      </trkpt>
      <trkpt lat="44.07009" lon="2.0228">
        <ele>319.6</ele>
        <time>2024-04-07T10:04:10Z</time>
      </trkpt>
      <trkpt lat="44.07009" lon="2.02288">
        <ele>319.6</ele>
        <time>2024-04-07T10:04:11Z</time>
      </trkpt>
      <trkpt lat="44.07008" lon="2.02297">
        <ele>319.6</ele>
        <time>2024-04-07T10:04:12Z</time>
      </trkpt>
      <trkpt lat="44.07006" lon="2.02308">
        <ele>319.6</ele>
        <time>2024-04-07T10:04:13Z</time>
      </trkpt>
      <trkpt lat="44.07003" lon="2.02317">
        <ele>319.2</ele>
        <time>2024-04-07T10:04:14Z</time>
      </trkpt>
      <trkpt lat="44.07" lon="2.02326">
        <ele>318.8</ele>
        <time>2024-04-07T10:04:15Z</time>
      </trkpt>
      <trkpt lat="44.06997" lon="2.02334">
        <ele>318.4</ele>
        <time>2024-04-07T10:04:16Z</time>
      </trkpt>
      <trkpt lat="44.06994" lon="2.02344">
        <ele>317.8</ele>
        <time>2024-04-07T10:04:17Z</time>
      </trkpt>
      <trkpt lat="44.06992" lon="2.02353">
        <ele>317.6</ele>
        <time>2024-04-07T10:04:18Z</time>
      </trkpt>
      <trkpt lat="44.06991" lon="2.02362">
        <ele>317.4</ele>
        <time>2024-04-07T10:04:19Z</time>
      </trkpt>
      <trkpt lat="44.0699" lon="2.02372">
        <ele>317.4</ele>
        <time>2024-04-07T10:04:20Z</time>
      </trkpt>
      <trkpt lat="44.06991" lon="2.02382">
        <ele>317.2</ele>
        <time>2024-04-07T10:04:21Z</time>
      </trkpt>
      <trkpt lat="44.06991" lon="2.02392">
        <ele>317</ele>
        <time>2024-04-07T10:04:22Z</time>
      </trkpt>
      <trkpt lat="44.06992" lon="2.02401">
        <ele>317</ele>
        <time>2024-04-07T10:04:23Z</time>
      </trkpt>
      <trkpt lat="44.06992" lon="2.02411">
        <ele>316.8</ele>
        <time>2024-04-07T10:04:24Z</time>
      </trkpt>
      <trkpt lat="44.06991" lon="2.02421">
        <ele>316.8</ele>
        <time>2024-04-07T10:04:25Z</time>
      </trkpt>
      <trkpt lat="44.06991" lon="2.02431">
        <ele>316.8</ele>
        <time>2024-04-07T10:04:26Z</time>
      </trkpt>
      <trkpt lat="44.0699" lon="2.0244">
        <ele>316.6</ele>
        <time>2024-04-07T10:04:27Z</time>
      </trkpt>
      <trkpt lat="44.06988" lon="2.02448">
        <ele>316.6</ele>
        <time>2024-04-07T10:04:28Z</time>
      </trkpt>
      <trkpt lat="44.06986" lon="2.02454">
        <ele>316.4</ele>
        <time>2024-04-07T10:04:29Z</time>
      </trkpt>
      <trkpt lat="44.06983" lon="2.02457">
        <ele>316.6</ele>
        <time>2024-04-07T10:04:30Z</time>
      </trkpt>
      <trkpt lat="44.06981" lon="2.02458">
        <ele>316.6</ele>
        <time>2024-04-07T10:04:31Z</time>
      </trkpt>
      <trkpt lat="44.06977" lon="2.02459">
        <ele>316.6</ele>
        <time>2024-04-07T10:04:32Z</time>
      </trkpt>
      <trkpt lat="44.06973" lon="2.0246">
        <ele>317</ele>
        <time>2024-04-07T10:04:33Z</time>
      </trkpt>
      <trkpt lat="44.0697" lon="2.02461">
        <ele>317</ele>
        <time>2024-04-07T10:04:34Z</time>
      </trkpt>
      <trkpt lat="44.06965" lon="2.02462">
        <ele>317.2</ele>
        <time>2024-04-07T10:04:35Z</time>
      </trkpt>
      <trkpt lat="44.06956" lon="2.02462">
        <ele>317.4</ele>
        <time>2024-04-07T10:04:37Z</time>
      </trkpt>
      <trkpt lat="44.06951" lon="2.02461">
        <ele>318</ele>
        <time>2024-04-07T10:04:38Z</time>
      </trkpt>
      <trkpt lat="44.06947" lon="2.0246">
        <ele>318.2</ele>
        <time>2024-04-07T10:04:39Z</time>
      </trkpt>
      <trkpt lat="44.06942" lon="2.02459">
        <ele>318.6</ele>
        <time>2024-04-07T10:04:40Z</time>
      </trkpt>
      <trkpt lat="44.06934" lon="2.02458">
        <ele>319</ele>
        <time>2024-04-07T10:04:42Z</time>
      </trkpt>
      <trkpt lat="44.0693" lon="2.02457">
        <ele>319.2</ele>
        <time>2024-04-07T10:04:43Z</time>
      </trkpt>
      <trkpt lat="44.06926" lon="2.02456">
        <ele>319.6</ele>
        <time>2024-04-07T10:04:44Z</time>
      </trkpt>
      <trkpt lat="44.06917" lon="2.02455">
        <ele>320.4</ele>
        <time>2024-04-07T10:04:46Z</time>
      </trkpt>
      <trkpt lat="44.06912" lon="2.02454">
        <ele>321</ele>
        <time>2024-04-07T10:04:47Z</time>
      </trkpt>
      <trkpt lat="44.06909" lon="2.02454">
        <ele>321.2</ele>
        <time>2024-04-07T10:04:48Z</time>
      </trkpt>
      <trkpt lat="44.06905" lon="2.02453">
        <ele>321.6</ele>
        <time>2024-04-07T10:04:49Z</time>
      </trkpt>
      <trkpt lat="44.06902" lon="2.02452">
        <ele>322</ele>
        <time>2024-04-07T10:04:50Z</time>
      </trkpt>
      <trkpt lat="44.06899" lon="2.02451">
        <ele>322.8</ele>
        <time>2024-04-07T10:04:51Z</time>
      </trkpt>
      <trkpt lat="44.06895" lon="2.0245">
        <ele>323</ele>
        <time>2024-04-07T10:04:52Z</time>
      </trkpt>
      <trkpt lat="44.06892" lon="2.02449">
        <ele>323.6</ele>
        <time>2024-04-07T10:04:53Z</time>
      </trkpt>
      <trkpt lat="44.06889" lon="2.02448">
        <ele>324.4</ele>
        <time>2024-04-07T10:04:54Z</time>
      </trkpt>
      <trkpt lat="44.06885" lon="2.02446">
        <ele>324.8</ele>
        <time>2024-04-07T10:04:55Z</time>
      </trkpt>
      <trkpt lat="44.06882" lon="2.02445">
        <ele>325.4</ele>
        <time>2024-04-07T10:04:56Z</time>
      </trkpt>
      <trkpt lat="44.06878" lon="2.02444">
        <ele>325.6</ele>
        <time>2024-04-07T10:04:57Z</time>
      </trkpt>
      <trkpt lat="44.06874" lon="2.02443">
        <ele>326</ele>
        <time>2024-04-07T10:04:58Z</time>
      </trkpt>
      <trkpt lat="44.06871" lon="2.02442">
        <ele>326.4</ele>
        <time>2024-04-07T10:04:59Z</time>
      </trkpt>
      <trkpt lat="44.06867" lon="2.02441">
        <ele>327.2</ele>
        <time>2024-04-07T10:05:00Z</time>
      </trkpt>
      <trkpt lat="44.06863" lon="2.0244">
        <ele>327.4</ele>
        <time>2024-04-07T10:05:01Z</time>
      </trkpt>
      <trkpt lat="44.06859" lon="2.0244">
        <ele>328</ele>
        <time>2024-04-07T10:05:02Z</time>
      </trkpt>
      <trkpt lat="44.06855" lon="2.02439">
        <ele>328.8</ele>
        <time>2024-04-07T10:05:03Z</time>
      </trkpt>
      <trkpt lat="44.06851" lon="2.02439">
        <ele>329</ele>
        <time>2024-04-07T10:05:04Z</time>
      </trkpt>
      <trkpt lat="44.06847" lon="2.02438">
        <ele>329.4</ele>
        <time>2024-04-07T10:05:05Z</time>
      </trkpt>
      <trkpt lat="44.06843" lon="2.02437">
        <ele>329.6</ele>
        <time>2024-04-07T10:05:06Z</time>
      </trkpt>
      <trkpt lat="44.06839" lon="2.02437">
        <ele>330.4</ele>
        <time>2024-04-07T10:05:07Z</time>
      </trkpt>
      <trkpt lat="44.06836" lon="2.02437">
        <ele>331</ele>
        <time>2024-04-07T10:05:08Z</time>
      </trkpt>
      <trkpt lat="44.06832" lon="2.02436">
        <ele>331.6</ele>
        <time>2024-04-07T10:05:09Z</time>
      </trkpt>
      <trkpt lat="44.06827" lon="2.02436">
        <ele>332.4</ele>
        <time>2024-04-07T10:05:10Z</time>
      </trkpt>
      <trkpt lat="44.06824" lon="2.02436">
        <ele>332.6</ele>
        <time>2024-04-07T10:05:11Z</time>
      </trkpt>
      <trkpt lat="44.06819" lon="2.02437">
        <ele>332.8</ele>
        <time>2024-04-07T10:05:12Z</time>
      </trkpt>
      <trkpt lat="44.06815" lon="2.02437">
        <ele>333</ele>
        <time>2024-04-07T10:05:13Z</time>
      </trkpt>
      <trkpt lat="44.06811" lon="2.02438">
        <ele>333.8</ele>
        <time>2024-04-07T10:05:14Z</time>
      </trkpt>
      <trkpt lat="44.06807" lon="2.02439">
        <ele>334</ele>
        <time>2024-04-07T10:05:15Z</time>
      </trkpt>
      <trkpt lat="44.06803" lon="2.02439">
        <ele>334.2</ele>
        <time>2024-04-07T10:05:16Z</time>
      </trkpt>
      <trkpt lat="44.068" lon="2.0244">
        <ele>334.4</ele>
        <time>2024-04-07T10:05:17Z</time>
      </trkpt>
      <trkpt lat="44.06796" lon="2.02441">
        <ele>334.8</ele>
        <time>2024-04-07T10:05:18Z</time>
      </trkpt>
      <trkpt lat="44.06791" lon="2.02443">
        <ele>335</ele>
        <time>2024-04-07T10:05:19Z</time>
      </trkpt>
      <trkpt lat="44.06786" lon="2.02444">
        <ele>335.2</ele>
        <time>2024-04-07T10:05:20Z</time>
      </trkpt>
      <trkpt lat="44.06781" lon="2.02445">
        <ele>335.4</ele>
        <time>2024-04-07T10:05:21Z</time>
      </trkpt>
      <trkpt lat="44.06776" lon="2.02446">
        <ele>335.6</ele>
        <time>2024-04-07T10:05:22Z</time>
      </trkpt>
      <trkpt lat="44.06771" lon="2.02447">
        <ele>336</ele>
        <time>2024-04-07T10:05:23Z</time>
      </trkpt>
      <trkpt lat="44.06766" lon="2.02448">
        <ele>336.2</ele>
        <time>2024-04-07T10:05:24Z</time>
      </trkpt>
      <trkpt lat="44.06762" lon="2.02449">
        <ele>336.4</ele>
        <time>2024-04-07T10:05:25Z</time>
      </trkpt>
      <trkpt lat="44.06757" lon="2.0245">
        <ele>336.8</ele>
        <time>2024-04-07T10:05:26Z</time>
      </trkpt>
      <trkpt lat="44.06752" lon="2.0245">
        <ele>337.2</ele>
        <time>2024-04-07T10:05:27Z</time>
      </trkpt>
      <trkpt lat="44.06747" lon="2.0245">
        <ele>337.4</ele>
        <time>2024-04-07T10:05:28Z</time>
      </trkpt>
      <trkpt lat="44.06742" lon="2.02449">
        <ele>337.6</ele>
        <time>2024-04-07T10:05:29Z</time>
      </trkpt>
      <trkpt lat="44.06738" lon="2.02448">
        <ele>338.2</ele>
        <time>2024-04-07T10:05:30Z</time>
      </trkpt>
      <trkpt lat="44.06733" lon="2.02447">
        <ele>338.2</ele>
        <time>2024-04-07T10:05:31Z</time>
      </trkpt>
      <trkpt lat="44.06729" lon="2.02446">
        <ele>338.2</ele>
        <time>2024-04-07T10:05:32Z</time>
      </trkpt>
      <trkpt lat="44.06724" lon="2.02444">
        <ele>338.6</ele>
        <time>2024-04-07T10:05:33Z</time>
      </trkpt>
      <trkpt lat="44.06719" lon="2.02442">
        <ele>338.8</ele>
        <time>2024-04-07T10:05:34Z</time>
      </trkpt>
      <trkpt lat="44.06714" lon="2.02441">
        <ele>339</ele>
        <time>2024-04-07T10:05:35Z</time>
      </trkpt>
      <trkpt lat="44.0671" lon="2.02439">
        <ele>339.2</ele>
        <time>2024-04-07T10:05:36Z</time>
      </trkpt>
      <trkpt lat="44.06705" lon="2.02437">
        <ele>339.4</ele>
        <time>2024-04-07T10:05:37Z</time>
      </trkpt>
      <trkpt lat="44.06699" lon="2.02436">
        <ele>339.6</ele>
        <time>2024-04-07T10:05:38Z</time>
      </trkpt>
      <trkpt lat="44.06694" lon="2.02433">
        <ele>339.8</ele>
        <time>2024-04-07T10:05:39Z</time>
      </trkpt>
      <trkpt lat="44.06689" lon="2.02431">
        <ele>339.8</ele>
        <time>2024-04-07T10:05:40Z</time>
      </trkpt>
      <trkpt lat="44.06684" lon="2.02429">
        <ele>340</ele>
        <time>2024-04-07T10:05:41Z</time>
      </trkpt>
      <trkpt lat="44.06679" lon="2.02427">
        <ele>340</ele>
        <time>2024-04-07T10:05:42Z</time>
      </trkpt>
      <trkpt lat="44.06674" lon="2.02425">
        <ele>340</ele>
        <time>2024-04-07T10:05:43Z</time>
      </trkpt>
      <trkpt lat="44.06669" lon="2.02422">
        <ele>340</ele>
        <time>2024-04-07T10:05:44Z</time>
      </trkpt>
      <trkpt lat="44.06664" lon="2.0242">
        <ele>340</ele>
        <time>2024-04-07T10:05:45Z</time>
      </trkpt>
      <trkpt lat="44.06658" lon="2.02418">
        <ele>340</ele>
        <time>2024-04-07T10:05:46Z</time>
      </trkpt>
      <trkpt lat="44.06653" lon="2.02415">
        <ele>339.8</ele>
        <time>2024-04-07T10:05:47Z</time>
      </trkpt>
      <trkpt lat="44.06648" lon="2.02413">
        <ele>339.6</ele>
        <time>2024-04-07T10:05:48Z</time>
      </trkpt>
      <trkpt lat="44.06642" lon="2.02411">
        <ele>339.4</ele>
        <time>2024-04-07T10:05:49Z</time>
      </trkpt>
      <trkpt lat="44.06637" lon="2.02409">
        <ele>339.4</ele>
        <time>2024-04-07T10:05:50Z</time>
      </trkpt>
      <trkpt lat="44.06631" lon="2.02407">
        <ele>339.2</ele>
        <time>2024-04-07T10:05:51Z</time>
      </trkpt>
      <trkpt lat="44.06626" lon="2.02404">
        <ele>339.2</ele>
        <time>2024-04-07T10:05:52Z</time>
      </trkpt>
      <trkpt lat="44.0662" lon="2.02402">
        <ele>339</ele>
        <time>2024-04-07T10:05:53Z</time>
      </trkpt>
      <trkpt lat="44.06615" lon="2.02399">
        <ele>339</ele>
        <time>2024-04-07T10:05:54Z</time>
      </trkpt>
      <trkpt lat="44.0661" lon="2.02396">
        <ele>339</ele>
        <time>2024-04-07T10:05:55Z</time>
      </trkpt>
      <trkpt lat="44.06604" lon="2.02393">
        <ele>339</ele>
        <time>2024-04-07T10:05:56Z</time>
      </trkpt>
      <trkpt lat="44.06599" lon="2.0239">
        <ele>338.8</ele>
        <time>2024-04-07T10:05:57Z</time>
      </trkpt>
      <trkpt lat="44.06594" lon="2.02387">
        <ele>338.8</ele>
        <time>2024-04-07T10:05:58Z</time>
      </trkpt>
      <trkpt lat="44.06589" lon="2.02384">
        <ele>338.8</ele>
        <time>2024-04-07T10:05:59Z</time>
      </trkpt>
      <trkpt lat="44.06584" lon="2.02382">
        <ele>338.6</ele>
        <time>2024-04-07T10:06:00Z</time>
      </trkpt>
      <trkpt lat="44.06578" lon="2.02379">
        <ele>338.6</ele>
        <time>2024-04-07T10:06:01Z</time>
      </trkpt>
      <trkpt lat="44.06572" lon="2.02377">
        <ele>338.6</ele>
        <time>2024-04-07T10:06:02Z</time>
      </trkpt>
      <trkpt lat="44.06567" lon="2.02375">
        <ele>338.6</ele>
        <time>2024-04-07T10:06:03Z</time>
      </trkpt>
      <trkpt lat="44.06561" lon="2.02373">
        <ele>338.4</ele>
        <time>2024-04-07T10:06:04Z</time>
      </trkpt>
      <trkpt lat="44.06555" lon="2.02373">
        <ele>338.4</ele>
        <time>2024-04-07T10:06:05Z</time>
      </trkpt>
      <trkpt lat="44.0655" lon="2.02373">
        <ele>338.4</ele>
        <time>2024-04-07T10:06:06Z</time>
      </trkpt>
      <trkpt lat="44.06544" lon="2.02374">
        <ele>338.4</ele>
        <time>2024-04-07T10:06:07Z</time>
      </trkpt>
      <trkpt lat="44.06539" lon="2.02377">
        <ele>338.4</ele>
        <time>2024-04-07T10:06:08Z</time>
      </trkpt>
      <trkpt lat="44.06534" lon="2.02381">
        <ele>338.4</ele>
        <time>2024-04-07T10:06:09Z</time>
      </trkpt>
      <trkpt lat="44.06529" lon="2.02385">
        <ele>338.4</ele>
        <time>2024-04-07T10:06:10Z</time>
      </trkpt>
      <trkpt lat="44.06525" lon="2.02389">
        <ele>338.4</ele>
        <time>2024-04-07T10:06:11Z</time>
      </trkpt>
      <trkpt lat="44.06521" lon="2.02393">
        <ele>338.4</ele>
        <time>2024-04-07T10:06:12Z</time>
      </trkpt>
      <trkpt lat="44.06517" lon="2.02398">
        <ele>338.4</ele>
        <time>2024-04-07T10:06:13Z</time>
      </trkpt>
      <trkpt lat="44.06513" lon="2.02402">
        <ele>338.4</ele>
        <time>2024-04-07T10:06:14Z</time>
      </trkpt>
      <trkpt lat="44.06508" lon="2.02406">
        <ele>338.4</ele>
        <time>2024-04-07T10:06:15Z</time>
      </trkpt>
      <trkpt lat="44.06503" lon="2.02407">
        <ele>338.4</ele>
        <time>2024-04-07T10:06:16Z</time>
      </trkpt>
      <trkpt lat="44.06499" lon="2.02406">
        <ele>338.4</ele>
        <time>2024-04-07T10:06:17Z</time>
      </trkpt>
      <trkpt lat="44.06494" lon="2.02402">
        <ele>338.6</ele>
        <time>2024-04-07T10:06:18Z</time>
      </trkpt>
      <trkpt lat="44.06491" lon="2.02398">
        <ele>338.6</ele>
        <time>2024-04-07T10:06:19Z</time>
      </trkpt>
      <trkpt lat="44.06487" lon="2.02392">
        <ele>338.6</ele>
        <time>2024-04-07T10:06:20Z</time>
      </trkpt>
      <trkpt lat="44.06483" lon="2.02386">
        <ele>338.6</ele>
        <time>2024-04-07T10:06:21Z</time>
      </trkpt>
      <trkpt lat="44.06479" lon="2.0238">
        <ele>338.6</ele>
        <time>2024-04-07T10:06:22Z</time>
      </trkpt>
      <trkpt lat="44.06476" lon="2.02375">
        <ele>338.6</ele>
        <time>2024-04-07T10:06:23Z</time>
      </trkpt>
      <trkpt lat="44.06471" lon="2.0237">
        <ele>338.6</ele>
        <time>2024-04-07T10:06:24Z</time>
      </trkpt>
      <trkpt lat="44.06467" lon="2.02367">
        <ele>338.6</ele>
        <time>2024-04-07T10:06:25Z</time>
      </trkpt>
      <trkpt lat="44.06462" lon="2.02364">
        <ele>338.6</ele>
        <time>2024-04-07T10:06:26Z</time>
      </trkpt>
      <trkpt lat="44.06458" lon="2.0236">
        <ele>338.6</ele>
        <time>2024-04-07T10:06:27Z</time>
      </trkpt>
      <trkpt lat="44.06453" lon="2.02356">
        <ele>338.6</ele>
        <time>2024-04-07T10:06:28Z</time>
      </trkpt>
      <trkpt lat="44.06449" lon="2.02351">
        <ele>338.6</ele>
        <time>2024-04-07T10:06:29Z</time>
      </trkpt>
      <trkpt lat="44.06445" lon="2.02346">
        <ele>338.4</ele>
        <time>2024-04-07T10:06:30Z</time>
      </trkpt>
      <trkpt lat="44.06439" lon="2.02341">
        <ele>338.2</ele>
        <time>2024-04-07T10:06:31Z</time>
      </trkpt>
      <trkpt lat="44.06434" lon="2.02336">
        <ele>338</ele>
        <time>2024-04-07T10:06:32Z</time>
      </trkpt>
      <trkpt lat="44.06429" lon="2.0233">
        <ele>337.8</ele>
        <time>2024-04-07T10:06:33Z</time>
      </trkpt>
      <trkpt lat="44.06424" lon="2.02324">
        <ele>337.4</ele>
        <time>2024-04-07T10:06:34Z</time>
      </trkpt>
      <trkpt lat="44.06419" lon="2.02317">
        <ele>337.2</ele>
        <time>2024-04-07T10:06:35Z</time>
      </trkpt>
      <trkpt lat="44.06414" lon="2.02309">
        <ele>337</ele>
        <time>2024-04-07T10:06:36Z</time>
      </trkpt>
      <trkpt lat="44.0641" lon="2.023">
        <ele>337</ele>
        <time>2024-04-07T10:06:37Z</time>
      </trkpt>
      <trkpt lat="44.06405" lon="2.02291">
        <ele>336.4</ele>
        <time>2024-04-07T10:06:38Z</time>
      </trkpt>
      <trkpt lat="44.06399" lon="2.02284">
        <ele>336</ele>
        <time>2024-04-07T10:06:39Z</time>
      </trkpt>
      <trkpt lat="44.06393" lon="2.02277">
        <ele>335.4</ele>
        <time>2024-04-07T10:06:40Z</time>
      </trkpt>
      <trkpt lat="44.06386" lon="2.0227">
        <ele>334.4</ele>
        <time>2024-04-07T10:06:41Z</time>
      </trkpt>
      <trkpt lat="44.0638" lon="2.02263">
        <ele>334.2</ele>
        <time>2024-04-07T10:06:42Z</time>
      </trkpt>
      <trkpt lat="44.06376" lon="2.02256">
        <ele>333.6</ele>
        <time>2024-04-07T10:06:43Z</time>
      </trkpt>
      <trkpt lat="44.06372" lon="2.02248">
        <ele>333</ele>
        <time>2024-04-07T10:06:44Z</time>
      </trkpt>
      <trkpt lat="44.06368" lon="2.02238">
        <ele>332.2</ele>
        <time>2024-04-07T10:06:45Z</time>
      </trkpt>
      <trkpt lat="44.06364" lon="2.02228">
        <ele>332</ele>
        <time>2024-04-07T10:06:46Z</time>
      </trkpt>
      <trkpt lat="44.0636" lon="2.02219">
        <ele>330.4</ele>
        <time>2024-04-07T10:06:47Z</time>
      </trkpt>
      <trkpt lat="44.06355" lon="2.0221">
        <ele>329.8</ele>
        <time>2024-04-07T10:06:48Z</time>
      </trkpt>
      <trkpt lat="44.0635" lon="2.02202">
        <ele>329</ele>
        <time>2024-04-07T10:06:49Z</time>
      </trkpt>
      <trkpt lat="44.06345" lon="2.02195">
        <ele>327.6</ele>
        <time>2024-04-07T10:06:50Z</time>
      </trkpt>
      <trkpt lat="44.0634" lon="2.02188">
        <ele>326.6</ele>
        <time>2024-04-07T10:06:51Z</time>
      </trkpt>
      <trkpt lat="44.06336" lon="2.0218">
        <ele>325.2</ele>
        <time>2024-04-07T10:06:52Z</time>
      </trkpt>
      <trkpt lat="44.06333" lon="2.02173">
        <ele>323.8</ele>
        <time>2024-04-07T10:06:53Z</time>
      </trkpt>
      <trkpt lat="44.06332" lon="2.02164">
        <ele>321.6</ele>
        <time>2024-04-07T10:06:54Z</time>
      </trkpt>
      <trkpt lat="44.06332" lon="2.02155">
        <ele>320.8</ele>
        <time>2024-04-07T10:06:55Z</time>
      </trkpt>
      <trkpt lat="44.06331" lon="2.02147">
        <ele>319.8</ele>
        <time>2024-04-07T10:06:56Z</time>
      </trkpt>
      <trkpt lat="44.0633" lon="2.02137">
        <ele>318</ele>
        <time>2024-04-07T10:06:57Z</time>
      </trkpt>
      <trkpt lat="44.06328" lon="2.02128">
        <ele>316.4</ele>
        <time>2024-04-07T10:06:58Z</time>
      </trkpt>
      <trkpt lat="44.06325" lon="2.02119">
        <ele>314.6</ele>
        <time>2024-04-07T10:06:59Z</time>
      </trkpt>
      <trkpt lat="44.06322" lon="2.02112">
        <ele>314.2</ele>
        <time>2024-04-07T10:07:00Z</time>
      </trkpt>
      <trkpt lat="44.0632" lon="2.02106">
        <ele>312.8</ele>
        <time>2024-04-07T10:07:01Z</time>
      </trkpt>
      <trkpt lat="44.0632" lon="2.02097">
        <ele>312.2</ele>
        <time>2024-04-07T10:07:02Z</time>
      </trkpt>
      <trkpt lat="44.06322" lon="2.02087">
        <ele>310.8</ele>
        <time>2024-04-07T10:07:03Z</time>
      </trkpt>
      <trkpt lat="44.06323" lon="2.02078">
        <ele>308.4</ele>
        <time>2024-04-07T10:07:04Z</time>
      </trkpt>
      <trkpt lat="44.06324" lon="2.0207">
        <ele>307.6</ele>
        <time>2024-04-07T10:07:05Z</time>
      </trkpt>
      <trkpt lat="44.06323" lon="2.02065">
        <ele>306.2</ele>
        <time>2024-04-07T10:07:06Z</time>
      </trkpt>
      <trkpt lat="44.0632" lon="2.02061">
        <ele>305.4</ele>
        <time>2024-04-07T10:07:07Z</time>
      </trkpt>
      <trkpt lat="44.06318" lon="2.0206">
        <ele>304</ele>
        <time>2024-04-07T10:07:08Z</time>
      </trkpt>
      <trkpt lat="44.06316" lon="2.02059">
        <ele>303.4</ele>
        <time>2024-04-07T10:07:09Z</time>
      </trkpt>
      <trkpt lat="44.06314" lon="2.02059">
        <ele>302</ele>
        <time>2024-04-07T10:07:10Z</time>
      </trkpt>
      <trkpt lat="44.06312" lon="2.02059">
        <ele>300.2</ele>
        <time>2024-04-07T10:07:11Z</time>
      </trkpt>
      <trkpt lat="44.06311" lon="2.0206">
        <ele>298.4</ele>
        <time>2024-04-07T10:07:12Z</time>
      </trkpt>
      <trkpt lat="44.06309" lon="2.0206">
        <ele>297.2</ele>
        <time>2024-04-07T10:07:13Z</time>
      </trkpt>
      <trkpt lat="44.06307" lon="2.02061">
        <ele>296.4</ele>
        <time>2024-04-07T10:07:14Z</time>
      </trkpt>
      <trkpt lat="44.06304" lon="2.02061">
        <ele>295.6</ele>
        <time>2024-04-07T10:07:15Z</time>
      </trkpt>
      <trkpt lat="44.063" lon="2.02061">
        <ele>295.2</ele>
        <time>2024-04-07T10:07:16Z</time>
      </trkpt>
      <trkpt lat="44.06299" lon="2.02061">
        <ele>294</ele>
        <time>2024-04-07T10:07:17Z</time>
      </trkpt>
      <trkpt lat="44.06296" lon="2.0206">
        <ele>293.2</ele>
        <time>2024-04-07T10:07:18Z</time>
      </trkpt>
      <trkpt lat="44.06292" lon="2.02059">
        <ele>292.4</ele>
        <time>2024-04-07T10:07:19Z</time>
      </trkpt>
      <trkpt lat="44.06289" lon="2.02059">
        <ele>291.4</ele>
        <time>2024-04-07T10:07:20Z</time>
      </trkpt>
      <trkpt lat="44.06287" lon="2.02059">
        <ele>291</ele>
        <time>2024-04-07T10:07:21Z</time>
      </trkpt>
      <trkpt lat="44.06284" lon="2.02059">
        <ele>290.2</ele>
        <time>2024-04-07T10:07:22Z</time>
      </trkpt>
      <trkpt lat="44.0628" lon="2.02058">
        <ele>289.8</ele>
        <time>2024-04-07T10:07:23Z</time>
      </trkpt>
      <trkpt lat="44.06277" lon="2.02058">
        <ele>289</ele>
        <time>2024-04-07T10:07:24Z</time>
      </trkpt>
      <trkpt lat="44.06274" lon="2.02057">
        <ele>288.6</ele>
        <time>2024-04-07T10:07:25Z</time>
      </trkpt>
      <trkpt lat="44.0627" lon="2.02057">
        <ele>287.8</ele>
        <time>2024-04-07T10:07:26Z</time>
      </trkpt>
      <trkpt lat="44.06268" lon="2.02057">
        <ele>287.6</ele>
        <time>2024-04-07T10:07:27Z</time>
      </trkpt>
      <trkpt lat="44.06266" lon="2.02057">
        <ele>287.2</ele>
        <time>2024-04-07T10:07:28Z</time>
      </trkpt>
      <trkpt lat="44.06262" lon="2.02057">
        <ele>286.6</ele>
        <time>2024-04-07T10:07:29Z</time>
      </trkpt>
      <trkpt lat="44.0626" lon="2.02055">
        <ele>286.4</ele>
        <time>2024-04-07T10:07:30Z</time>
      </trkpt>
      <trkpt lat="44.06257" lon="2.02054">
        <ele>285.6</ele>
        <time>2024-04-07T10:07:31Z</time>
      </trkpt>
      <trkpt lat="44.06254" lon="2.02052">
        <ele>285.2</ele>
        <time>2024-04-07T10:07:32Z</time>
      </trkpt>
      <trkpt lat="44.06251" lon="2.02051">
        <ele>284.6</ele>
        <time>2024-04-07T10:07:33Z</time>
      </trkpt>
      <trkpt lat="44.06249" lon="2.02049">
        <ele>284.4</ele>
        <time>2024-04-07T10:07:34Z</time>
      </trkpt>
      <trkpt lat="44.06245" lon="2.02047">
        <ele>284</ele>
        <time>2024-04-07T10:07:35Z</time>
      </trkpt>
      <trkpt lat="44.06242" lon="2.02045">
        <ele>283.4</ele>
        <time>2024-04-07T10:07:36Z</time>
      </trkpt>
      <trkpt lat="44.06237" lon="2.02042">
        <ele>283.2</ele>
        <time>2024-04-07T10:07:37Z</time>
      </trkpt>
      <trkpt lat="44.06234" lon="2.02039">
        <ele>282.6</ele>
        <time>2024-04-07T10:07:38Z</time>
      </trkpt>
      <trkpt lat="44.0623" lon="2.02035">
        <ele>282</ele>
        <time>2024-04-07T10:07:39Z</time>
      </trkpt>
      <trkpt lat="44.06226" lon="2.0203">
        <ele>280.8</ele>
        <time>2024-04-07T10:07:40Z</time>
      </trkpt>
      <trkpt lat="44.06224" lon="2.02025">
        <ele>280.6</ele>
        <time>2024-04-07T10:07:41Z</time>
      </trkpt>
      <trkpt lat="44.06221" lon="2.02019">
        <ele>279.8</ele>
        <time>2024-04-07T10:07:42Z</time>
      </trkpt>
      <trkpt lat="44.06218" lon="2.02014">
        <ele>279.6</ele>
        <time>2024-04-07T10:07:43Z</time>
      </trkpt>
      <trkpt lat="44.06215" lon="2.02008">
        <ele>279</ele>
        <time>2024-04-07T10:07:44Z</time>
      </trkpt>
      <trkpt lat="44.06212" lon="2.02001">
        <ele>278.2</ele>
        <time>2024-04-07T10:07:45Z</time>
      </trkpt>
      <trkpt lat="44.0621" lon="2.01994">
        <ele>278</ele>
        <time>2024-04-07T10:07:46Z</time>
      </trkpt>
      <trkpt lat="44.06207" lon="2.01988">
        <ele>277.2</ele>
        <time>2024-04-07T10:07:47Z</time>
      </trkpt>
      <trkpt lat="44.06202" lon="2.01981">
        <ele>276.8</ele>
        <time>2024-04-07T10:07:48Z</time>
      </trkpt>
      <trkpt lat="44.06198" lon="2.01974">
        <ele>276.2</ele>
        <time>2024-04-07T10:07:49Z</time>
      </trkpt>
      <trkpt lat="44.06194" lon="2.01969">
        <ele>276</ele>
        <time>2024-04-07T10:07:50Z</time>
      </trkpt>
      <trkpt lat="44.0619" lon="2.01963">
        <ele>275.2</ele>
        <time>2024-04-07T10:07:51Z</time>
      </trkpt>
      <trkpt lat="44.06187" lon="2.01958">
        <ele>275</ele>
        <time>2024-04-07T10:07:52Z</time>
      </trkpt>
      <trkpt lat="44.06184" lon="2.01953">
        <ele>274.8</ele>
        <time>2024-04-07T10:07:53Z</time>
      </trkpt>
      <trkpt lat="44.06181" lon="2.0195">
        <ele>274.6</ele>
        <time>2024-04-07T10:07:54Z</time>
      </trkpt>
      <trkpt lat="44.06177" lon="2.01945">
        <ele>274.4</ele>
        <time>2024-04-07T10:07:55Z</time>
      </trkpt>
      <trkpt lat="44.06175" lon="2.0194">
        <ele>274.4</ele>
        <time>2024-04-07T10:07:56Z</time>
      </trkpt>
      <trkpt lat="44.06174" lon="2.01935">
        <ele>274.4</ele>
        <time>2024-04-07T10:07:57Z</time>
      </trkpt>
      <trkpt lat="44.06174" lon="2.01929">
        <ele>274.4</ele>
        <time>2024-04-07T10:07:58Z</time>
      </trkpt>
      <trkpt lat="44.06173" lon="2.01923">
        <ele>274.4</ele>
        <time>2024-04-07T10:07:59Z</time>
      </trkpt>
      <trkpt lat="44.06173" lon="2.01918">
        <ele>274.6</ele>
        <time>2024-04-07T10:08:00Z</time>
      </trkpt>
      <trkpt lat="44.06173" lon="2.01913">
        <ele>275.2</ele>
        <time>2024-04-07T10:08:01Z</time>
      </trkpt>
      <trkpt lat="44.06173" lon="2.01908">
        <ele>275.4</ele>
        <time>2024-04-07T10:08:02Z</time>
      </trkpt>
      <trkpt lat="44.06173" lon="2.01904">
        <ele>275.8</ele>
        <time>2024-04-07T10:08:03Z</time>
      </trkpt>
      <trkpt lat="44.06172" lon="2.01899">
        <ele>275.8</ele>
        <time>2024-04-07T10:08:04Z</time>
      </trkpt>
      <trkpt lat="44.06172" lon="2.01895">
        <ele>276.2</ele>
        <time>2024-04-07T10:08:05Z</time>
      </trkpt>
      <trkpt lat="44.06172" lon="2.01891">
        <ele>276.6</ele>
        <time>2024-04-07T10:08:06Z</time>
      </trkpt>
      <trkpt lat="44.06172" lon="2.01887">
        <ele>276.8</ele>
        <time>2024-04-07T10:08:07Z</time>
      </trkpt>
      <trkpt lat="44.06173" lon="2.01882">
        <ele>277.2</ele>
        <time>2024-04-07T10:08:08Z</time>
      </trkpt>
      <trkpt lat="44.06173" lon="2.01877">
        <ele>277.2</ele>
        <time>2024-04-07T10:08:09Z</time>
      </trkpt>
      <trkpt lat="44.06174" lon="2.01871">
        <ele>277.8</ele>
        <time>2024-04-07T10:08:10Z</time>
      </trkpt>
      <trkpt lat="44.06175" lon="2.01868">
        <ele>278.2</ele>
        <time>2024-04-07T10:08:11Z</time>
      </trkpt>
      <trkpt lat="44.06176" lon="2.01862">
        <ele>278.6</ele>
        <time>2024-04-07T10:08:12Z</time>
      </trkpt>
      <trkpt lat="44.06176" lon="2.01856">
        <ele>278.6</ele>
        <time>2024-04-07T10:08:13Z</time>
      </trkpt>
      <trkpt lat="44.06176" lon="2.0185">
        <ele>279</ele>
        <time>2024-04-07T10:08:14Z</time>
      </trkpt>
      <trkpt lat="44.06177" lon="2.01841">
        <ele>279</ele>
        <time>2024-04-07T10:08:15Z</time>
      </trkpt>
      <trkpt lat="44.06178" lon="2.01831">
        <ele>279</ele>
        <time>2024-04-07T10:08:16Z</time>
      </trkpt>
      <trkpt lat="44.06178" lon="2.01821">
        <ele>279</ele>
        <time>2024-04-07T10:08:17Z</time>
      </trkpt>
      <trkpt lat="44.0618" lon="2.01811">
        <ele>279</ele>
        <time>2024-04-07T10:08:18Z</time>
      </trkpt>
      <trkpt lat="44.06181" lon="2.01801">
        <ele>279</ele>
        <time>2024-04-07T10:08:19Z</time>
      </trkpt>
      <trkpt lat="44.06182" lon="2.01792">
        <ele>279</ele>
        <time>2024-04-07T10:08:20Z</time>
      </trkpt>
      <trkpt lat="44.06183" lon="2.01781">
        <ele>279</ele>
        <time>2024-04-07T10:08:21Z</time>
      </trkpt>
      <trkpt lat="44.06185" lon="2.0177">
        <ele>279</ele>
        <time>2024-04-07T10:08:22Z</time>
      </trkpt>
      <trkpt lat="44.06187" lon="2.01758">
        <ele>278.6</ele>
        <time>2024-04-07T10:08:23Z</time>
      </trkpt>
      <trkpt lat="44.0619" lon="2.01747">
        <ele>278.4</ele>
        <time>2024-04-07T10:08:24Z</time>
      </trkpt>
      <trkpt lat="44.06193" lon="2.01734">
        <ele>278.4</ele>
        <time>2024-04-07T10:08:25Z</time>
      </trkpt>
      <trkpt lat="44.06195" lon="2.01723">
        <ele>278</ele>
        <time>2024-04-07T10:08:26Z</time>
      </trkpt>
      <trkpt lat="44.06197" lon="2.01711">
        <ele>278</ele>
        <time>2024-04-07T10:08:27Z</time>
      </trkpt>
      <trkpt lat="44.06199" lon="2.01701">
        <ele>277.6</ele>
        <time>2024-04-07T10:08:28Z</time>
      </trkpt>
      <trkpt lat="44.062" lon="2.01691">
        <ele>277.4</ele>
        <time>2024-04-07T10:08:29Z</time>
      </trkpt>
      <trkpt lat="44.06203" lon="2.0168">
        <ele>276.8</ele>
        <time>2024-04-07T10:08:30Z</time>
      </trkpt>
      <trkpt lat="44.06203" lon="2.01668">
        <ele>276.4</ele>
        <time>2024-04-07T10:08:31Z</time>
      </trkpt>
      <trkpt lat="44.06202" lon="2.01655">
        <ele>276</ele>
        <time>2024-04-07T10:08:32Z</time>
      </trkpt>
      <trkpt lat="44.06202" lon="2.01644">
        <ele>275.6</ele>
        <time>2024-04-07T10:08:33Z</time>
      </trkpt>
      <trkpt lat="44.06201" lon="2.01633">
        <ele>275.6</ele>
        <time>2024-04-07T10:08:34Z</time>
      </trkpt>
      <trkpt lat="44.062" lon="2.01623">
        <ele>275.2</ele>
        <time>2024-04-07T10:08:35Z</time>
      </trkpt>
      <trkpt lat="44.06199" lon="2.01613">
        <ele>275</ele>
        <time>2024-04-07T10:08:36Z</time>
      </trkpt>
      <trkpt lat="44.06198" lon="2.01603">
        <ele>274.8</ele>
        <time>2024-04-07T10:08:37Z</time>
      </trkpt>
      <trkpt lat="44.06197" lon="2.01593">
        <ele>274.8</ele>
        <time>2024-04-07T10:08:38Z</time>
      </trkpt>
      <trkpt lat="44.06197" lon="2.01583">
        <ele>274.6</ele>
        <time>2024-04-07T10:08:39Z</time>
      </trkpt>
      <trkpt lat="44.06198" lon="2.01573">
        <ele>274.4</ele>
        <time>2024-04-07T10:08:40Z</time>
      </trkpt>
      <trkpt lat="44.06201" lon="2.01565">
        <ele>274.2</ele>
        <time>2024-04-07T10:08:41Z</time>
      </trkpt>
      <trkpt lat="44.06204" lon="2.01557">
        <ele>274.2</ele>
        <time>2024-04-07T10:08:42Z</time>
      </trkpt>
      <trkpt lat="44.06208" lon="2.0155">
        <ele>274</ele>
        <time>2024-04-07T10:08:43Z</time>
      </trkpt>
      <trkpt lat="44.06213" lon="2.01544">
        <ele>274</ele>
        <time>2024-04-07T10:08:44Z</time>
      </trkpt>
      <trkpt lat="44.06217" lon="2.01537">
        <ele>273.8</ele>
        <time>2024-04-07T10:08:45Z</time>
      </trkpt>
      <trkpt lat="44.06221" lon="2.01531">
        <ele>273.6</ele>
        <time>2024-04-07T10:08:46Z</time>
      </trkpt>
      <trkpt lat="44.06226" lon="2.01525">
        <ele>273.6</ele>
        <time>2024-04-07T10:08:47Z</time>
      </trkpt>
      <trkpt lat="44.0623" lon="2.01518">
        <ele>273.4</ele>
        <time>2024-04-07T10:08:48Z</time>
      </trkpt>
      <trkpt lat="44.06233" lon="2.01511">
        <ele>273.4</ele>
        <time>2024-04-07T10:08:49Z</time>
      </trkpt>
      <trkpt lat="44.06236" lon="2.01504">
        <ele>273.4</ele>
        <time>2024-04-07T10:08:50Z</time>
      </trkpt>
      <trkpt lat="44.06239" lon="2.01497">
        <ele>273.4</ele>
        <time>2024-04-07T10:08:51Z</time>
      </trkpt>
      <trkpt lat="44.06242" lon="2.01491">
        <ele>273.4</ele>
        <time>2024-04-07T10:08:52Z</time>
      </trkpt>
      <trkpt lat="44.06245" lon="2.01484">
        <ele>273.4</ele>
        <time>2024-04-07T10:08:53Z</time>
      </trkpt>
      <trkpt lat="44.06248" lon="2.01477">
        <ele>273.4</ele>
        <time>2024-04-07T10:08:54Z</time>
      </trkpt>
      <trkpt lat="44.06251" lon="2.01469">
        <ele>273.6</ele>
        <time>2024-04-07T10:08:55Z</time>
      </trkpt>
      <trkpt lat="44.06254" lon="2.01462">
        <ele>273.8</ele>
        <time>2024-04-07T10:08:56Z</time>
      </trkpt>
      <trkpt lat="44.06257" lon="2.01454">
        <ele>273.8</ele>
        <time>2024-04-07T10:08:57Z</time>
      </trkpt>
      <trkpt lat="44.0626" lon="2.01447">
        <ele>274</ele>
        <time>2024-04-07T10:08:58Z</time>
      </trkpt>
      <trkpt lat="44.06263" lon="2.01439">
        <ele>274</ele>
        <time>2024-04-07T10:08:59Z</time>
      </trkpt>
      <trkpt lat="44.06267" lon="2.01431">
        <ele>273.8</ele>
        <time>2024-04-07T10:09:00Z</time>
      </trkpt>
      <trkpt lat="44.0627" lon="2.01422">
        <ele>273.8</ele>
        <time>2024-04-07T10:09:01Z</time>
      </trkpt>
      <trkpt lat="44.06274" lon="2.01413">
        <ele>273.6</ele>
        <time>2024-04-07T10:09:02Z</time>
      </trkpt>
      <trkpt lat="44.06278" lon="2.01405">
        <ele>273.6</ele>
        <time>2024-04-07T10:09:03Z</time>
      </trkpt>
      <trkpt lat="44.06281" lon="2.01395">
        <ele>273.6</ele>
        <time>2024-04-07T10:09:04Z</time>
      </trkpt>
      <trkpt lat="44.06284" lon="2.01386">
        <ele>273.6</ele>
        <time>2024-04-07T10:09:05Z</time>
      </trkpt>
      <trkpt lat="44.06287" lon="2.01376">
        <ele>273.6</ele>
        <time>2024-04-07T10:09:06Z</time>
      </trkpt>
      <trkpt lat="44.0629" lon="2.01366">
        <ele>273.2</ele>
        <time>2024-04-07T10:09:07Z</time>
      </trkpt>
      <trkpt lat="44.06293" lon="2.01355">
        <ele>273</ele>
        <time>2024-04-07T10:09:08Z</time>
      </trkpt>
      <trkpt lat="44.06295" lon="2.01344">
        <ele>273</ele>
        <time>2024-04-07T10:09:09Z</time>
      </trkpt>
      <trkpt lat="44.06296" lon="2.01333">
        <ele>272.8</ele>
        <time>2024-04-07T10:09:10Z</time>
      </trkpt>
      <trkpt lat="44.06297" lon="2.01322">
        <ele>272.4</ele>
        <time>2024-04-07T10:09:11Z</time>
      </trkpt>
      <trkpt lat="44.06298" lon="2.01312">
        <ele>272.2</ele>
        <time>2024-04-07T10:09:12Z</time>
      </trkpt>
      <trkpt lat="44.06299" lon="2.01301">
        <ele>272</ele>
        <time>2024-04-07T10:09:13Z</time>
      </trkpt>
      <trkpt lat="44.06299" lon="2.0129">
        <ele>271.6</ele>
        <time>2024-04-07T10:09:14Z</time>
      </trkpt>
      <trkpt lat="44.06301" lon="2.01279">
        <ele>271.6</ele>
        <time>2024-04-07T10:09:15Z</time>
      </trkpt>
      <trkpt lat="44.06303" lon="2.01267">
        <ele>271.2</ele>
        <time>2024-04-07T10:09:16Z</time>
      </trkpt>
      <trkpt lat="44.06305" lon="2.01256">
        <ele>271.2</ele>
        <time>2024-04-07T10:09:17Z</time>
      </trkpt>
      <trkpt lat="44.06308" lon="2.01246">
        <ele>270.6</ele>
        <time>2024-04-07T10:09:18Z</time>
      </trkpt>
      <trkpt lat="44.06311" lon="2.01235">
        <ele>270.4</ele>
        <time>2024-04-07T10:09:19Z</time>
      </trkpt>
      <trkpt lat="44.06315" lon="2.01225">
        <ele>270</ele>
        <time>2024-04-07T10:09:20Z</time>
      </trkpt>
      <trkpt lat="44.06319" lon="2.01215">
        <ele>269.8</ele>
        <time>2024-04-07T10:09:21Z</time>
      </trkpt>
      <trkpt lat="44.06324" lon="2.01205">
        <ele>269.6</ele>
        <time>2024-04-07T10:09:22Z</time>
      </trkpt>
      <trkpt lat="44.06328" lon="2.01195">
        <ele>269.6</ele>
        <time>2024-04-07T10:09:23Z</time>
      </trkpt>
      <trkpt lat="44.06333" lon="2.01185">
        <ele>269.4</ele>
        <time>2024-04-07T10:09:24Z</time>
      </trkpt>
      <trkpt lat="44.06337" lon="2.01174">
        <ele>269.2</ele>
        <time>2024-04-07T10:09:25Z</time>
      </trkpt>
      <trkpt lat="44.0634" lon="2.01163">
        <ele>269</ele>
        <time>2024-04-07T10:09:26Z</time>
      </trkpt>
      <trkpt lat="44.06344" lon="2.01154">
        <ele>268.6</ele>
        <time>2024-04-07T10:09:27Z</time>
      </trkpt>
      <trkpt lat="44.06347" lon="2.01145">
        <ele>268.4</ele>
        <time>2024-04-07T10:09:28Z</time>
      </trkpt>
      <trkpt lat="44.06349" lon="2.01136">
        <ele>268</ele>
        <time>2024-04-07T10:09:29Z</time>
      </trkpt>
      <trkpt lat="44.0635" lon="2.01128">
        <ele>267.8</ele>
        <time>2024-04-07T10:09:30Z</time>
      </trkpt>
      <trkpt lat="44.0635" lon="2.01121">
        <ele>267.8</ele>
        <time>2024-04-07T10:09:31Z</time>
      </trkpt>
      <trkpt lat="44.06349" lon="2.01113">
        <ele>267.6</ele>
        <time>2024-04-07T10:09:32Z</time>
      </trkpt>
      <trkpt lat="44.06348" lon="2.01107">
        <ele>267.6</ele>
        <time>2024-04-07T10:09:33Z</time>
      </trkpt>
      <trkpt lat="44.06346" lon="2.01102">
        <ele>267.8</ele>
        <time>2024-04-07T10:09:34Z</time>
      </trkpt>
      <trkpt lat="44.06345" lon="2.01095">
        <ele>268</ele>
        <time>2024-04-07T10:09:35Z</time>
      </trkpt>
      <trkpt lat="44.06344" lon="2.01089">
        <ele>268</ele>
        <time>2024-04-07T10:09:36Z</time>
      </trkpt>
      <trkpt lat="44.06343" lon="2.01083">
        <ele>268.6</ele>
        <time>2024-04-07T10:09:37Z</time>
      </trkpt>
      <trkpt lat="44.06344" lon="2.01077">
        <ele>269.6</ele>
        <time>2024-04-07T10:09:38Z</time>
      </trkpt>
      <trkpt lat="44.06344" lon="2.01072">
        <ele>270.6</ele>
        <time>2024-04-07T10:09:39Z</time>
      </trkpt>
      <trkpt lat="44.06345" lon="2.01067">
        <ele>270.8</ele>
        <time>2024-04-07T10:09:40Z</time>
      </trkpt>
      <trkpt lat="44.06346" lon="2.01062">
        <ele>271.8</ele>
        <time>2024-04-07T10:09:41Z</time>
      </trkpt>
      <trkpt lat="44.06348" lon="2.01057">
        <ele>272.2</ele>
        <time>2024-04-07T10:09:42Z</time>
      </trkpt>
      <trkpt lat="44.06349" lon="2.01051">
        <ele>272.8</ele>
        <time>2024-04-07T10:09:43Z</time>
      </trkpt>
      <trkpt lat="44.06351" lon="2.01045">
        <ele>273.2</ele>
        <time>2024-04-07T10:09:44Z</time>
      </trkpt>
      <trkpt lat="44.06352" lon="2.01038">
        <ele>274</ele>
        <time>2024-04-07T10:09:45Z</time>
      </trkpt>
      <trkpt lat="44.06352" lon="2.01032">
        <ele>274.6</ele>
        <time>2024-04-07T10:09:46Z</time>
      </trkpt>
      <trkpt lat="44.06353" lon="2.01025">
        <ele>274.6</ele>
        <time>2024-04-07T10:09:47Z</time>
      </trkpt>
      <trkpt lat="44.06353" lon="2.01018">
        <ele>274.8</ele>
        <time>2024-04-07T10:09:48Z</time>
      </trkpt>
      <trkpt lat="44.06352" lon="2.0101">
        <ele>275</ele>
        <time>2024-04-07T10:09:49Z</time>
      </trkpt>
      <trkpt lat="44.06352" lon="2.01002">
        <ele>275</ele>
        <time>2024-04-07T10:09:50Z</time>
      </trkpt>
      <trkpt lat="44.06351" lon="2.00994">
        <ele>275</ele>
        <time>2024-04-07T10:09:51Z</time>
      </trkpt>
      <trkpt lat="44.06351" lon="2.00986">
        <ele>275</ele>
        <time>2024-04-07T10:09:52Z</time>
      </trkpt>
      <trkpt lat="44.0635" lon="2.00978">
        <ele>275</ele>
        <time>2024-04-07T10:09:53Z</time>
      </trkpt>
      <trkpt lat="44.06349" lon="2.00971">
        <ele>275</ele>
        <time>2024-04-07T10:09:54Z</time>
      </trkpt>
      <trkpt lat="44.06348" lon="2.00963">
        <ele>275</ele>
        <time>2024-04-07T10:09:55Z</time>
      </trkpt>
      <trkpt lat="44.06347" lon="2.00955">
        <ele>274.8</ele>
        <time>2024-04-07T10:09:56Z</time>
      </trkpt>
      <trkpt lat="44.06345" lon="2.00947">
        <ele>274.8</ele>
        <time>2024-04-07T10:09:57Z</time>
      </trkpt>
      <trkpt lat="44.06343" lon="2.00938">
        <ele>274.8</ele>
        <time>2024-04-07T10:09:58Z</time>
      </trkpt>
      <trkpt lat="44.06341" lon="2.00929">
        <ele>274.6</ele>
        <time>2024-04-07T10:09:59Z</time>
      </trkpt>
      <trkpt lat="44.06338" lon="2.0092">
        <ele>274.6</ele>
        <time>2024-04-07T10:10:00Z</time>
      </trkpt>
      <trkpt lat="44.06335" lon="2.00911">
        <ele>274.4</ele>
        <time>2024-04-07T10:10:01Z</time>
      </trkpt>
      <trkpt lat="44.0633" lon="2.00902">
        <ele>274</ele>
        <time>2024-04-07T10:10:02Z</time>
      </trkpt>
      <trkpt lat="44.06325" lon="2.00894">
        <ele>273.8</ele>
        <time>2024-04-07T10:10:03Z</time>
      </trkpt>
      <trkpt lat="44.06319" lon="2.00885">
        <ele>273.2</ele>
        <time>2024-04-07T10:10:04Z</time>
      </trkpt>
      <trkpt lat="44.06311" lon="2.00877">
        <ele>273</ele>
        <time>2024-04-07T10:10:05Z</time>
      </trkpt>
      <trkpt lat="44.06303" lon="2.0087">
        <ele>272.6</ele>
        <time>2024-04-07T10:10:06Z</time>
      </trkpt>
      <trkpt lat="44.06295" lon="2.00865">
        <ele>272.4</ele>
        <time>2024-04-07T10:10:07Z</time>
      </trkpt>
      <trkpt lat="44.06287" lon="2.00859">
        <ele>271.6</ele>
        <time>2024-04-07T10:10:08Z</time>
      </trkpt>
      <trkpt lat="44.06281" lon="2.00853">
        <ele>271.4</ele>
        <time>2024-04-07T10:10:09Z</time>
      </trkpt>
      <trkpt lat="44.06276" lon="2.00846">
        <ele>270.2</ele>
        <time>2024-04-07T10:10:10Z</time>
      </trkpt>
      <trkpt lat="44.06275" lon="2.00838">
        <ele>269</ele>
        <time>2024-04-07T10:10:11Z</time>
      </trkpt>
      <trkpt lat="44.06277" lon="2.00831">
        <ele>268.6</ele>
        <time>2024-04-07T10:10:12Z</time>
      </trkpt>
      <trkpt lat="44.0628" lon="2.00825">
        <ele>268</ele>
        <time>2024-04-07T10:10:13Z</time>
      </trkpt>
      <trkpt lat="44.06284" lon="2.00821">
        <ele>267.6</ele>
        <time>2024-04-07T10:10:14Z</time>
      </trkpt>
      <trkpt lat="44.06289" lon="2.00818">
        <ele>267.6</ele>
        <time>2024-04-07T10:10:15Z</time>
      </trkpt>
      <trkpt lat="44.06293" lon="2.00815">
        <ele>267.4</ele>
        <time>2024-04-07T10:10:16Z</time>
      </trkpt>
      <trkpt lat="44.06298" lon="2.00811">
        <ele>267.4</ele>
        <time>2024-04-07T10:10:17Z</time>
      </trkpt>
      <trkpt lat="44.06303" lon="2.00806">
        <ele>267.4</ele>
        <time>2024-04-07T10:10:18Z</time>
      </trkpt>
      <trkpt lat="44.06307" lon="2.00799">
        <ele>267.4</ele>
        <time>2024-04-07T10:10:19Z</time>
      </trkpt>
      <trkpt lat="44.0631" lon="2.00791">
        <ele>267.4</ele>
        <time>2024-04-07T10:10:20Z</time>
      </trkpt>
      <trkpt lat="44.06314" lon="2.00783">
        <ele>267.4</ele>
        <time>2024-04-07T10:10:21Z</time>
      </trkpt>
      <trkpt lat="44.06316" lon="2.00775">
        <ele>267.6</ele>
        <time>2024-04-07T10:10:22Z</time>
      </trkpt>
      <trkpt lat="44.06318" lon="2.00766">
        <ele>267.6</ele>
        <time>2024-04-07T10:10:23Z</time>
      </trkpt>
      <trkpt lat="44.0632" lon="2.00757">
        <ele>267.6</ele>
        <time>2024-04-07T10:10:24Z</time>
      </trkpt>
      <trkpt lat="44.0632" lon="2.00747">
        <ele>267.6</ele>
        <time>2024-04-07T10:10:25Z</time>
      </trkpt>
      <trkpt lat="44.0632" lon="2.00737">
        <ele>267.6</ele>
        <time>2024-04-07T10:10:26Z</time>
      </trkpt>
      <trkpt lat="44.0632" lon="2.00727">
        <ele>267.6</ele>
        <time>2024-04-07T10:10:27Z</time>
      </trkpt>
      <trkpt lat="44.0632" lon="2.00718">
        <ele>267.6</ele>
        <time>2024-04-07T10:10:28Z</time>
      </trkpt>
      <trkpt lat="44.06321" lon="2.007">
        <ele>267.4</ele>
        <time>2024-04-07T10:10:30Z</time>
      </trkpt>
      <trkpt lat="44.06321" lon="2.00692">
        <ele>267.6</ele>
        <time>2024-04-07T10:10:31Z</time>
      </trkpt>
      <trkpt lat="44.06321" lon="2.00683">
        <ele>267.6</ele>
        <time>2024-04-07T10:10:32Z</time>
      </trkpt>
      <trkpt lat="44.06321" lon="2.00675">
        <ele>267.6</ele>
        <time>2024-04-07T10:10:33Z</time>
      </trkpt>
      <trkpt lat="44.06321" lon="2.00668">
        <ele>267.6</ele>
        <time>2024-04-07T10:10:34Z</time>
      </trkpt>
      <trkpt lat="44.0632" lon="2.0066">
        <ele>267.6</ele>
        <time>2024-04-07T10:10:35Z</time>
      </trkpt>
      <trkpt lat="44.06319" lon="2.00653">
        <ele>268</ele>
        <time>2024-04-07T10:10:36Z</time>
      </trkpt>
      <trkpt lat="44.06317" lon="2.00646">
        <ele>268</ele>
        <time>2024-04-07T10:10:37Z</time>
      </trkpt>
      <trkpt lat="44.06315" lon="2.0064">
        <ele>268.4</ele>
        <time>2024-04-07T10:10:38Z</time>
      </trkpt>
      <trkpt lat="44.06313" lon="2.00634">
        <ele>268.6</ele>
        <time>2024-04-07T10:10:39Z</time>
      </trkpt>
      <trkpt lat="44.06306" lon="2.00623">
        <ele>269.2</ele>
        <time>2024-04-07T10:10:41Z</time>
      </trkpt>
      <trkpt lat="44.06303" lon="2.00618">
        <ele>269.4</ele>
        <time>2024-04-07T10:10:42Z</time>
      </trkpt>
      <trkpt lat="44.063" lon="2.00613">
        <ele>269.8</ele>
        <time>2024-04-07T10:10:43Z</time>
      </trkpt>
      <trkpt lat="44.06296" lon="2.00606">
        <ele>270</ele>
        <time>2024-04-07T10:10:44Z</time>
      </trkpt>
      <trkpt lat="44.06294" lon="2.00601">
        <ele>270.2</ele>
        <time>2024-04-07T10:10:45Z</time>
      </trkpt>
      <trkpt lat="44.06288" lon="2.00584">
        <ele>270.4</ele>
        <time>2024-04-07T10:10:47Z</time>
      </trkpt>
      <trkpt lat="44.06285" lon="2.00573">
        <ele>270.4</ele>
        <time>2024-04-07T10:10:48Z</time>
      </trkpt>
      <trkpt lat="44.06283" lon="2.00562">
        <ele>270.4</ele>
        <time>2024-04-07T10:10:49Z</time>
      </trkpt>
      <trkpt lat="44.06281" lon="2.0055">
        <ele>270.4</ele>
        <time>2024-04-07T10:10:50Z</time>
      </trkpt>
      <trkpt lat="44.06279" lon="2.00538">
        <ele>270.2</ele>
        <time>2024-04-07T10:10:51Z</time>
      </trkpt>
      <trkpt lat="44.06278" lon="2.00526">
        <ele>270</ele>
        <time>2024-04-07T10:10:52Z</time>
      </trkpt>
      <trkpt lat="44.06277" lon="2.00514">
        <ele>270</ele>
        <time>2024-04-07T10:10:53Z</time>
      </trkpt>
      <trkpt lat="44.06277" lon="2.00503">
        <ele>269.4</ele>
        <time>2024-04-07T10:10:54Z</time>
      </trkpt>
      <trkpt lat="44.06276" lon="2.00492">
        <ele>269</ele>
        <time>2024-04-07T10:10:55Z</time>
      </trkpt>
      <trkpt lat="44.06276" lon="2.00483">
        <ele>268.6</ele>
        <time>2024-04-07T10:10:56Z</time>
      </trkpt>
      <trkpt lat="44.06275" lon="2.00476">
        <ele>268.4</ele>
        <time>2024-04-07T10:10:57Z</time>
      </trkpt>
      <trkpt lat="44.06273" lon="2.00469">
        <ele>268.2</ele>
        <time>2024-04-07T10:10:58Z</time>
      </trkpt>
      <trkpt lat="44.06271" lon="2.00465">
        <ele>268.2</ele>
        <time>2024-04-07T10:10:59Z</time>
      </trkpt>
      <trkpt lat="44.06268" lon="2.00462">
        <ele>268.2</ele>
        <time>2024-04-07T10:11:00Z</time>
      </trkpt>
      <trkpt lat="44.06265" lon="2.0046">
        <ele>268.2</ele>
        <time>2024-04-07T10:11:01Z</time>
      </trkpt>
      <trkpt lat="44.0626" lon="2.0046">
        <ele>268.2</ele>
        <time>2024-04-07T10:11:02Z</time>
      </trkpt>
      <trkpt lat="44.06256" lon="2.00459">
        <ele>268.6</ele>
        <time>2024-04-07T10:11:03Z</time>
      </trkpt>
      <trkpt lat="44.06252" lon="2.00459">
        <ele>269.2</ele>
        <time>2024-04-07T10:11:04Z</time>
      </trkpt>
      <trkpt lat="44.06247" lon="2.00459">
        <ele>270.2</ele>
        <time>2024-04-07T10:11:05Z</time>
      </trkpt>
      <trkpt lat="44.06243" lon="2.00459">
        <ele>270.4</ele>
        <time>2024-04-07T10:11:06Z</time>
      </trkpt>
      <trkpt lat="44.06239" lon="2.00459">
        <ele>271.2</ele>
        <time>2024-04-07T10:11:07Z</time>
      </trkpt>
      <trkpt lat="44.06235" lon="2.00458">
        <ele>272</ele>
        <time>2024-04-07T10:11:08Z</time>
      </trkpt>
      <trkpt lat="44.0623" lon="2.00457">
        <ele>272.4</ele>
        <time>2024-04-07T10:11:09Z</time>
      </trkpt>
      <trkpt lat="44.06226" lon="2.00457">
        <ele>273.2</ele>
        <time>2024-04-07T10:11:10Z</time>
      </trkpt>
      <trkpt lat="44.06222" lon="2.00456">
        <ele>273.6</ele>
        <time>2024-04-07T10:11:11Z</time>
      </trkpt>
      <trkpt lat="44.06218" lon="2.00455">
        <ele>274.4</ele>
        <time>2024-04-07T10:11:12Z</time>
      </trkpt>
      <trkpt lat="44.06214" lon="2.00454">
        <ele>274.6</ele>
        <time>2024-04-07T10:11:13Z</time>
      </trkpt>
      <trkpt lat="44.0621" lon="2.00453">
        <ele>275.4</ele>
        <time>2024-04-07T10:11:14Z</time>
      </trkpt>
      <trkpt lat="44.06206" lon="2.00452">
        <ele>275.6</ele>
        <time>2024-04-07T10:11:15Z</time>
      </trkpt>
      <trkpt lat="44.06202" lon="2.0045">
        <ele>276.6</ele>
        <time>2024-04-07T10:11:16Z</time>
      </trkpt>
      <trkpt lat="44.06198" lon="2.00449">
        <ele>277</ele>
        <time>2024-04-07T10:11:17Z</time>
      </trkpt>
      <trkpt lat="44.06194" lon="2.00448">
        <ele>277.2</ele>
        <time>2024-04-07T10:11:18Z</time>
      </trkpt>
      <trkpt lat="44.0619" lon="2.00446">
        <ele>277.8</ele>
        <time>2024-04-07T10:11:19Z</time>
      </trkpt>
      <trkpt lat="44.06187" lon="2.00445">
        <ele>278</ele>
        <time>2024-04-07T10:11:20Z</time>
      </trkpt>
      <trkpt lat="44.06183" lon="2.00444">
        <ele>278.4</ele>
        <time>2024-04-07T10:11:21Z</time>
      </trkpt>
      <trkpt lat="44.06179" lon="2.00443">
        <ele>278.6</ele>
        <time>2024-04-07T10:11:22Z</time>
      </trkpt>
      <trkpt lat="44.06175" lon="2.00443">
        <ele>279</ele>
        <time>2024-04-07T10:11:23Z</time>
      </trkpt>
      <trkpt lat="44.06172" lon="2.00442">
        <ele>279.6</ele>
        <time>2024-04-07T10:11:24Z</time>
      </trkpt>
      <trkpt lat="44.06169" lon="2.00441">
        <ele>279.8</ele>
        <time>2024-04-07T10:11:25Z</time>
      </trkpt>
      <trkpt lat="44.06166" lon="2.00441">
        <ele>280.2</ele>
        <time>2024-04-07T10:11:26Z</time>
      </trkpt>
      <trkpt lat="44.06162" lon="2.00441">
        <ele>280.6</ele>
        <time>2024-04-07T10:11:27Z</time>
      </trkpt>
      <trkpt lat="44.06159" lon="2.0044">
        <ele>281.2</ele>
        <time>2024-04-07T10:11:28Z</time>
      </trkpt>
      <trkpt lat="44.06156" lon="2.00439">
        <ele>281.6</ele>
        <time>2024-04-07T10:11:29Z</time>
      </trkpt>
      <trkpt lat="44.06153" lon="2.00437">
        <ele>282.4</ele>
        <time>2024-04-07T10:11:30Z</time>
      </trkpt>
      <trkpt lat="44.06151" lon="2.00435">
        <ele>282.8</ele>
        <time>2024-04-07T10:11:31Z</time>
      </trkpt>
      <trkpt lat="44.0615" lon="2.00431">
        <ele>283.4</ele>
        <time>2024-04-07T10:11:32Z</time>
      </trkpt>
      <trkpt lat="44.06151" lon="2.00427">
        <ele>284</ele>
        <time>2024-04-07T10:11:33Z</time>
      </trkpt>
      <trkpt lat="44.06152" lon="2.00424">
        <ele>284.2</ele>
        <time>2024-04-07T10:11:34Z</time>
      </trkpt>
      <trkpt lat="44.06154" lon="2.00423">
        <ele>284.8</ele>
        <time>2024-04-07T10:11:35Z</time>
      </trkpt>
      <trkpt lat="44.06157" lon="2.00421">
        <ele>285</ele>
        <time>2024-04-07T10:11:36Z</time>
      </trkpt>
      <trkpt lat="44.0616" lon="2.00419">
        <ele>285.4</ele>
        <time>2024-04-07T10:11:37Z</time>
      </trkpt>
      <trkpt lat="44.06163" lon="2.00416">
        <ele>285.8</ele>
        <time>2024-04-07T10:11:38Z</time>
      </trkpt>
      <trkpt lat="44.06166" lon="2.00414">
        <ele>286.4</ele>
        <time>2024-04-07T10:11:39Z</time>
      </trkpt>
      <trkpt lat="44.06169" lon="2.00412">
        <ele>287</ele>
        <time>2024-04-07T10:11:40Z</time>
      </trkpt>
      <trkpt lat="44.06172" lon="2.0041">
        <ele>287.2</ele>
        <time>2024-04-07T10:11:41Z</time>
      </trkpt>
      <trkpt lat="44.06175" lon="2.00408">
        <ele>287.6</ele>
        <time>2024-04-07T10:11:42Z</time>
      </trkpt>
      <trkpt lat="44.06178" lon="2.00407">
        <ele>287.8</ele>
        <time>2024-04-07T10:11:43Z</time>
      </trkpt>
      <trkpt lat="44.0618" lon="2.00405">
        <ele>288.2</ele>
        <time>2024-04-07T10:11:44Z</time>
      </trkpt>
      <trkpt lat="44.06183" lon="2.00404">
        <ele>289</ele>
        <time>2024-04-07T10:11:45Z</time>
      </trkpt>
      <trkpt lat="44.06186" lon="2.00402">
        <ele>289.8</ele>
        <time>2024-04-07T10:11:46Z</time>
      </trkpt>
      <trkpt lat="44.06188" lon="2.004">
        <ele>290</ele>
        <time>2024-04-07T10:11:47Z</time>
      </trkpt>
      <trkpt lat="44.06191" lon="2.00399">
        <ele>290.8</ele>
        <time>2024-04-07T10:11:48Z</time>
      </trkpt>
      <trkpt lat="44.06195" lon="2.00396">
        <ele>291.4</ele>
        <time>2024-04-07T10:11:49Z</time>
      </trkpt>
      <trkpt lat="44.06199" lon="2.00394">
        <ele>291.6</ele>
        <time>2024-04-07T10:11:50Z</time>
      </trkpt>
      <trkpt lat="44.06201" lon="2.00392">
        <ele>292.2</ele>
        <time>2024-04-07T10:11:51Z</time>
      </trkpt>
      <trkpt lat="44.06202" lon="2.00391">
        <ele>292.4</ele>
        <time>2024-04-07T10:11:52Z</time>
      </trkpt>
      <trkpt lat="44.06204" lon="2.0039">
        <ele>292.6</ele>
        <time>2024-04-07T10:11:53Z</time>
      </trkpt>
      <trkpt lat="44.06206" lon="2.00388">
        <ele>293</ele>
        <time>2024-04-07T10:11:54Z</time>
      </trkpt>
      <trkpt lat="44.06208" lon="2.00387">
        <ele>293.6</ele>
        <time>2024-04-07T10:11:55Z</time>
      </trkpt>
      <trkpt lat="44.06209" lon="2.00386">
        <ele>294.4</ele>
        <time>2024-04-07T10:11:56Z</time>
      </trkpt>
      <trkpt lat="44.06212" lon="2.00384">
        <ele>294.6</ele>
        <time>2024-04-07T10:11:57Z</time>
      </trkpt>
      <trkpt lat="44.06214" lon="2.00382">
        <ele>295.4</ele>
        <time>2024-04-07T10:11:58Z</time>
      </trkpt>
      <trkpt lat="44.06217" lon="2.0038">
        <ele>295.6</ele>
        <time>2024-04-07T10:11:59Z</time>
      </trkpt>
      <trkpt lat="44.0622" lon="2.00377">
        <ele>296</ele>
        <time>2024-04-07T10:12:00Z</time>
      </trkpt>
      <trkpt lat="44.06222" lon="2.00373">
        <ele>296</ele>
        <time>2024-04-07T10:12:01Z</time>
      </trkpt>
      <trkpt lat="44.06224" lon="2.00369">
        <ele>296.8</ele>
        <time>2024-04-07T10:12:02Z</time>
      </trkpt>
      <trkpt lat="44.06227" lon="2.00365">
        <ele>297</ele>
        <time>2024-04-07T10:12:03Z</time>
      </trkpt>
      <trkpt lat="44.06229" lon="2.00362">
        <ele>297.8</ele>
        <time>2024-04-07T10:12:04Z</time>
      </trkpt>
      <trkpt lat="44.06231" lon="2.00357">
        <ele>298.2</ele>
        <time>2024-04-07T10:12:05Z</time>
      </trkpt>
      <trkpt lat="44.06233" lon="2.00353">
        <ele>298.4</ele>
        <time>2024-04-07T10:12:06Z</time>
      </trkpt>
      <trkpt lat="44.06235" lon="2.0035">
        <ele>299</ele>
        <time>2024-04-07T10:12:07Z</time>
      </trkpt>
      <trkpt lat="44.06236" lon="2.00346">
        <ele>299.2</ele>
        <time>2024-04-07T10:12:08Z</time>
      </trkpt>
      <trkpt lat="44.06238" lon="2.00342">
        <ele>299.4</ele>
        <time>2024-04-07T10:12:09Z</time>
      </trkpt>
      <trkpt lat="44.06238" lon="2.00338">
        <ele>299.6</ele>
        <time>2024-04-07T10:12:10Z</time>
      </trkpt>
      <trkpt lat="44.06238" lon="2.00333">
        <ele>300.2</ele>
        <time>2024-04-07T10:12:11Z</time>
      </trkpt>
      <trkpt lat="44.06239" lon="2.00328">
        <ele>300.4</ele>
        <time>2024-04-07T10:12:12Z</time>
      </trkpt>
      <trkpt lat="44.0624" lon="2.00323">
        <ele>300.8</ele>
        <time>2024-04-07T10:12:13Z</time>
      </trkpt>
      <trkpt lat="44.06241" lon="2.00316">
        <ele>301.4</ele>
        <time>2024-04-07T10:12:14Z</time>
      </trkpt>
      <trkpt lat="44.06243" lon="2.00312">
        <ele>301.8</ele>
        <time>2024-04-07T10:12:15Z</time>
      </trkpt>
      <trkpt lat="44.06244" lon="2.00306">
        <ele>302.4</ele>
        <time>2024-04-07T10:12:16Z</time>
      </trkpt>
      <trkpt lat="44.06246" lon="2.00302">
        <ele>302.8</ele>
        <time>2024-04-07T10:12:17Z</time>
      </trkpt>
      <trkpt lat="44.06247" lon="2.00296">
        <ele>303.2</ele>
        <time>2024-04-07T10:12:18Z</time>
      </trkpt>
      <trkpt lat="44.06248" lon="2.00291">
        <ele>303.4</ele>
        <time>2024-04-07T10:12:19Z</time>
      </trkpt>
      <trkpt lat="44.06249" lon="2.00287">
        <ele>303.6</ele>
        <time>2024-04-07T10:12:20Z</time>
      </trkpt>
      <trkpt lat="44.06251" lon="2.00282">
        <ele>304.6</ele>
        <time>2024-04-07T10:12:21Z</time>
      </trkpt>
      <trkpt lat="44.06249" lon="2.00276">
        <ele>304.8</ele>
        <time>2024-04-07T10:12:22Z</time>
      </trkpt>
      <trkpt lat="44.0625" lon="2.0027">
        <ele>305.6</ele>
        <time>2024-04-07T10:12:23Z</time>
      </trkpt>
      <trkpt lat="44.0625" lon="2.00265">
        <ele>306</ele>
        <time>2024-04-07T10:12:24Z</time>
      </trkpt>
      <trkpt lat="44.06249" lon="2.0026">
        <ele>306.4</ele>
        <time>2024-04-07T10:12:25Z</time>
      </trkpt>
      <trkpt lat="44.06249" lon="2.00255">
        <ele>307.2</ele>
        <time>2024-04-07T10:12:26Z</time>
      </trkpt>
      <trkpt lat="44.0625" lon="2.0025">
        <ele>308</ele>
        <time>2024-04-07T10:12:27Z</time>
      </trkpt>
      <trkpt lat="44.0625" lon="2.00245">
        <ele>308.2</ele>
        <time>2024-04-07T10:12:28Z</time>
      </trkpt>
      <trkpt lat="44.06249" lon="2.00239">
        <ele>309</ele>
        <time>2024-04-07T10:12:29Z</time>
      </trkpt>
      <trkpt lat="44.06248" lon="2.00233">
        <ele>309.8</ele>
        <time>2024-04-07T10:12:30Z</time>
      </trkpt>
      <trkpt lat="44.06247" lon="2.0023">
        <ele>310</ele>
        <time>2024-04-07T10:12:31Z</time>
      </trkpt>
      <trkpt lat="44.06246" lon="2.00226">
        <ele>310.4</ele>
        <time>2024-04-07T10:12:32Z</time>
      </trkpt>
      <trkpt lat="44.06245" lon="2.00222">
        <ele>310.8</ele>
        <time>2024-04-07T10:12:33Z</time>
      </trkpt>
      <trkpt lat="44.06244" lon="2.00216">
        <ele>311</ele>
        <time>2024-04-07T10:12:34Z</time>
      </trkpt>
      <trkpt lat="44.06243" lon="2.00211">
        <ele>311.6</ele>
        <time>2024-04-07T10:12:35Z</time>
      </trkpt>
      <trkpt lat="44.0624" lon="2.00205">
        <ele>312</ele>
        <time>2024-04-07T10:12:36Z</time>
      </trkpt>
      <trkpt lat="44.06237" lon="2.00201">
        <ele>312.4</ele>
        <time>2024-04-07T10:12:37Z</time>
      </trkpt>
      <trkpt lat="44.06236" lon="2.00197">
        <ele>312.6</ele>
        <time>2024-04-07T10:12:38Z</time>
      </trkpt>
      <trkpt lat="44.06233" lon="2.00192">
        <ele>313</ele>
        <time>2024-04-07T10:12:39Z</time>
      </trkpt>
      <trkpt lat="44.06231" lon="2.00188">
        <ele>313.2</ele>
        <time>2024-04-07T10:12:40Z</time>
      </trkpt>
      <trkpt lat="44.06229" lon="2.00183">
        <ele>313.8</ele>
        <time>2024-04-07T10:12:41Z</time>
      </trkpt>
      <trkpt lat="44.06226" lon="2.00178">
        <ele>314</ele>
        <time>2024-04-07T10:12:42Z</time>
      </trkpt>
      <trkpt lat="44.06224" lon="2.00174">
        <ele>314.2</ele>
        <time>2024-04-07T10:12:43Z</time>
      </trkpt>
      <trkpt lat="44.06222" lon="2.0017">
        <ele>314.4</ele>
        <time>2024-04-07T10:12:44Z</time>
      </trkpt>
      <trkpt lat="44.06219" lon="2.00166">
        <ele>314.8</ele>
        <time>2024-04-07T10:12:45Z</time>
      </trkpt>
      <trkpt lat="44.06217" lon="2.00162">
        <ele>315</ele>
        <time>2024-04-07T10:12:46Z</time>
      </trkpt>
      <trkpt lat="44.06214" lon="2.00158">
        <ele>315</ele>
        <time>2024-04-07T10:12:47Z</time>
      </trkpt>
      <trkpt lat="44.06212" lon="2.00154">
        <ele>315.2</ele>
        <time>2024-04-07T10:12:48Z</time>
      </trkpt>
      <trkpt lat="44.0621" lon="2.0015">
        <ele>315.2</ele>
        <time>2024-04-07T10:12:49Z</time>
      </trkpt>
      <trkpt lat="44.06207" lon="2.00146">
        <ele>315.2</ele>
        <time>2024-04-07T10:12:50Z</time>
      </trkpt>
      <trkpt lat="44.06205" lon="2.00142">
        <ele>315.4</ele>
        <time>2024-04-07T10:12:51Z</time>
      </trkpt>
      <trkpt lat="44.06202" lon="2.00138">
        <ele>315.6</ele>
        <time>2024-04-07T10:12:52Z</time>
      </trkpt>
      <trkpt lat="44.062" lon="2.00134">
        <ele>315.8</ele>
        <time>2024-04-07T10:12:53Z</time>
      </trkpt>
      <trkpt lat="44.06198" lon="2.0013">
        <ele>316</ele>
        <time>2024-04-07T10:12:54Z</time>
      </trkpt>
      <trkpt lat="44.06196" lon="2.00126">
        <ele>316.2</ele>
        <time>2024-04-07T10:12:55Z</time>
      </trkpt>
      <trkpt lat="44.06195" lon="2.00122">
        <ele>316.2</ele>
        <time>2024-04-07T10:12:56Z</time>
      </trkpt>
      <trkpt lat="44.06194" lon="2.00117">
        <ele>316.4</ele>
        <time>2024-04-07T10:12:57Z</time>
      </trkpt>
      <trkpt lat="44.06193" lon="2.00112">
        <ele>316.6</ele>
        <time>2024-04-07T10:12:58Z</time>
      </trkpt>
      <trkpt lat="44.06192" lon="2.00107">
        <ele>316.8</ele>
        <time>2024-04-07T10:12:59Z</time>
      </trkpt>
      <trkpt lat="44.06191" lon="2.00102">
        <ele>317</ele>
        <time>2024-04-07T10:13:00Z</time>
      </trkpt>
      <trkpt lat="44.06191" lon="2.00096">
        <ele>317.2</ele>
        <time>2024-04-07T10:13:01Z</time>
      </trkpt>
      <trkpt lat="44.0619" lon="2.0009">
        <ele>317.4</ele>
        <time>2024-04-07T10:13:02Z</time>
      </trkpt>
      <trkpt lat="44.0619" lon="2.00084">
        <ele>317.4</ele>
        <time>2024-04-07T10:13:03Z</time>
      </trkpt>
      <trkpt lat="44.0619" lon="2.00079">
        <ele>317.6</ele>
        <time>2024-04-07T10:13:04Z</time>
      </trkpt>
      <trkpt lat="44.06189" lon="2.00074">
        <ele>317.6</ele>
        <time>2024-04-07T10:13:05Z</time>
      </trkpt>
      <trkpt lat="44.06189" lon="2.00069">
        <ele>317.8</ele>
        <time>2024-04-07T10:13:06Z</time>
      </trkpt>
      <trkpt lat="44.06189" lon="2.00064">
        <ele>318</ele>
        <time>2024-04-07T10:13:07Z</time>
      </trkpt>
      <trkpt lat="44.06188" lon="2.00059">
        <ele>318.6</ele>
        <time>2024-04-07T10:13:08Z</time>
      </trkpt>
      <trkpt lat="44.06188" lon="2.00053">
        <ele>318.8</ele>
        <time>2024-04-07T10:13:09Z</time>
      </trkpt>
      <trkpt lat="44.06187" lon="2.00047">
        <ele>319.4</ele>
        <time>2024-04-07T10:13:10Z</time>
      </trkpt>
      <trkpt lat="44.06187" lon="2.00042">
        <ele>319.8</ele>
        <time>2024-04-07T10:13:11Z</time>
      </trkpt>
      <trkpt lat="44.06187" lon="2.00036">
        <ele>320</ele>
        <time>2024-04-07T10:13:12Z</time>
      </trkpt>
      <trkpt lat="44.06186" lon="2.0003">
        <ele>320.2</ele>
        <time>2024-04-07T10:13:13Z</time>
      </trkpt>
      <trkpt lat="44.06186" lon="2.00025">
        <ele>320.2</ele>
        <time>2024-04-07T10:13:14Z</time>
      </trkpt>
      <trkpt lat="44.06185" lon="2.00019">
        <ele>320.4</ele>
        <time>2024-04-07T10:13:15Z</time>
      </trkpt>
      <trkpt lat="44.06184" lon="2.00013">
        <ele>320.6</ele>
        <time>2024-04-07T10:13:16Z</time>
      </trkpt>
      <trkpt lat="44.06183" lon="2.00007">
        <ele>320.8</ele>
        <time>2024-04-07T10:13:17Z</time>
      </trkpt>
      <trkpt lat="44.06183" lon="2">
        <ele>321</ele>
        <time>2024-04-07T10:13:18Z</time>
      </trkpt>
      <trkpt lat="44.06182" lon="1.99994">
        <ele>321.4</ele>
        <time>2024-04-07T10:13:19Z</time>
      </trkpt>
      <trkpt lat="44.06181" lon="1.99988">
        <ele>322</ele>
        <time>2024-04-07T10:13:20Z</time>
      </trkpt>
      <trkpt lat="44.0618" lon="1.99982">
        <ele>322.2</ele>
        <time>2024-04-07T10:13:21Z</time>
      </trkpt>
      <trkpt lat="44.06179" lon="1.99975">
        <ele>322.4</ele>
        <time>2024-04-07T10:13:22Z</time>
      </trkpt>
      <trkpt lat="44.06179" lon="1.99969">
        <ele>322.4</ele>
        <time>2024-04-07T10:13:23Z</time>
      </trkpt>
      <trkpt lat="44.06178" lon="1.99962">
        <ele>322.6</ele>
        <time>2024-04-07T10:13:24Z</time>
      </trkpt>
      <trkpt lat="44.06177" lon="1.99956">
        <ele>322.6</ele>
        <time>2024-04-07T10:13:25Z</time>
      </trkpt>
      <trkpt lat="44.06177" lon="1.99949">
        <ele>322.8</ele>
        <time>2024-04-07T10:13:26Z</time>
      </trkpt>
      <trkpt lat="44.06176" lon="1.99942">
        <ele>323</ele>
        <time>2024-04-07T10:13:27Z</time>
      </trkpt>
      <trkpt lat="44.06176" lon="1.99936">
        <ele>323.2</ele>
        <time>2024-04-07T10:13:28Z</time>
      </trkpt>
      <trkpt lat="44.06176" lon="1.99929">
        <ele>323.6</ele>
        <time>2024-04-07T10:13:29Z</time>
      </trkpt>
      <trkpt lat="44.06175" lon="1.99923">
        <ele>323.6</ele>
        <time>2024-04-07T10:13:30Z</time>
      </trkpt>
      <trkpt lat="44.06174" lon="1.99916">
        <ele>323.6</ele>
        <time>2024-04-07T10:13:31Z</time>
      </trkpt>
      <trkpt lat="44.06174" lon="1.9991">
        <ele>323.6</ele>
        <time>2024-04-07T10:13:32Z</time>
      </trkpt>
      <trkpt lat="44.06173" lon="1.99903">
        <ele>323.6</ele>
        <time>2024-04-07T10:13:33Z</time>
      </trkpt>
      <trkpt lat="44.06173" lon="1.99897">
        <ele>323.8</ele>
        <time>2024-04-07T10:13:34Z</time>
      </trkpt>
      <trkpt lat="44.06172" lon="1.9989">
        <ele>323.8</ele>
        <time>2024-04-07T10:13:35Z</time>
      </trkpt>
      <trkpt lat="44.06171" lon="1.99883">
        <ele>323.8</ele>
        <time>2024-04-07T10:13:36Z</time>
      </trkpt>
      <trkpt lat="44.06169" lon="1.99876">
        <ele>323.8</ele>
        <time>2024-04-07T10:13:37Z</time>
      </trkpt>
      <trkpt lat="44.06167" lon="1.9987">
        <ele>323.8</ele>
        <time>2024-04-07T10:13:38Z</time>
      </trkpt>
      <trkpt lat="44.06164" lon="1.99864">
        <ele>323.8</ele>
        <time>2024-04-07T10:13:39Z</time>
      </trkpt>
      <trkpt lat="44.06161" lon="1.99859">
        <ele>324</ele>
        <time>2024-04-07T10:13:40Z</time>
      </trkpt>
      <trkpt lat="44.06157" lon="1.99854">
        <ele>324</ele>
        <time>2024-04-07T10:13:41Z</time>
      </trkpt>
      <trkpt lat="44.06154" lon="1.99849">
        <ele>324.4</ele>
        <time>2024-04-07T10:13:42Z</time>
      </trkpt>
      <trkpt lat="44.0615" lon="1.99844">
        <ele>324.4</ele>
        <time>2024-04-07T10:13:43Z</time>
      </trkpt>
      <trkpt lat="44.06146" lon="1.99838">
        <ele>324.6</ele>
        <time>2024-04-07T10:13:44Z</time>
      </trkpt>
      <trkpt lat="44.06142" lon="1.99833">
        <ele>324.6</ele>
        <time>2024-04-07T10:13:45Z</time>
      </trkpt>
      <trkpt lat="44.06137" lon="1.99827">
        <ele>324.6</ele>
        <time>2024-04-07T10:13:46Z</time>
      </trkpt>
      <trkpt lat="44.06133" lon="1.99821">
        <ele>324.8</ele>
        <time>2024-04-07T10:13:47Z</time>
      </trkpt>
      <trkpt lat="44.06128" lon="1.99815">
        <ele>324.8</ele>
        <time>2024-04-07T10:13:48Z</time>
      </trkpt>
      <trkpt lat="44.06124" lon="1.99809">
        <ele>324.8</ele>
        <time>2024-04-07T10:13:49Z</time>
      </trkpt>
      <trkpt lat="44.06119" lon="1.99804">
        <ele>324.8</ele>
        <time>2024-04-07T10:13:50Z</time>
      </trkpt>
      <trkpt lat="44.06114" lon="1.99799">
        <ele>324.8</ele>
        <time>2024-04-07T10:13:51Z</time>
      </trkpt>
      <trkpt lat="44.0611" lon="1.99794">
        <ele>324.8</ele>
        <time>2024-04-07T10:13:52Z</time>
      </trkpt>
      <trkpt lat="44.06105" lon="1.9979">
        <ele>324.8</ele>
        <time>2024-04-07T10:13:53Z</time>
      </trkpt>
      <trkpt lat="44.06101" lon="1.99786">
        <ele>324.4</ele>
        <time>2024-04-07T10:13:54Z</time>
      </trkpt>
      <trkpt lat="44.06097" lon="1.99782">
        <ele>324.4</ele>
        <time>2024-04-07T10:13:55Z</time>
      </trkpt>
      <trkpt lat="44.06092" lon="1.99777">
        <ele>324.2</ele>
        <time>2024-04-07T10:13:56Z</time>
      </trkpt>
      <trkpt lat="44.06088" lon="1.99772">
        <ele>324.2</ele>
        <time>2024-04-07T10:13:57Z</time>
      </trkpt>
      <trkpt lat="44.06084" lon="1.99767">
        <ele>324</ele>
        <time>2024-04-07T10:13:58Z</time>
      </trkpt>
      <trkpt lat="44.06079" lon="1.9976">
        <ele>324</ele>
        <time>2024-04-07T10:13:59Z</time>
      </trkpt>
      <trkpt lat="44.06074" lon="1.99754">
        <ele>324</ele>
        <time>2024-04-07T10:14:00Z</time>
      </trkpt>
      <trkpt lat="44.06069" lon="1.99747">
        <ele>323.8</ele>
        <time>2024-04-07T10:14:01Z</time>
      </trkpt>
      <trkpt lat="44.06064" lon="1.9974">
        <ele>323.8</ele>
        <time>2024-04-07T10:14:02Z</time>
      </trkpt>
      <trkpt lat="44.06059" lon="1.99733">
        <ele>323.8</ele>
        <time>2024-04-07T10:14:03Z</time>
      </trkpt>
      <trkpt lat="44.06054" lon="1.99727">
        <ele>323.8</ele>
        <time>2024-04-07T10:14:04Z</time>
      </trkpt>
      <trkpt lat="44.0605" lon="1.99721">
        <ele>323.6</ele>
        <time>2024-04-07T10:14:05Z</time>
      </trkpt>
      <trkpt lat="44.06046" lon="1.99715">
        <ele>323.6</ele>
        <time>2024-04-07T10:14:06Z</time>
      </trkpt>
      <trkpt lat="44.06043" lon="1.9971">
        <ele>323.2</ele>
        <time>2024-04-07T10:14:07Z</time>
      </trkpt>
      <trkpt lat="44.0604" lon="1.99705">
        <ele>322.8</ele>
        <time>2024-04-07T10:14:08Z</time>
      </trkpt>
      <trkpt lat="44.06038" lon="1.99701">
        <ele>322.6</ele>
        <time>2024-04-07T10:14:09Z</time>
      </trkpt>
      <trkpt lat="44.06038" lon="1.99697">
        <ele>322.6</ele>
        <time>2024-04-07T10:14:10Z</time>
      </trkpt>
      <trkpt lat="44.06039" lon="1.99693">
        <ele>322.4</ele>
        <time>2024-04-07T10:14:11Z</time>
      </trkpt>
      <trkpt lat="44.06043" lon="1.99683">
        <ele>322.4</ele>
        <time>2024-04-07T10:14:13Z</time>
      </trkpt>
      <trkpt lat="44.06046" lon="1.99677">
        <ele>322.4</ele>
        <time>2024-04-07T10:14:14Z</time>
      </trkpt>
      <trkpt lat="44.06049" lon="1.99671">
        <ele>322.4</ele>
        <time>2024-04-07T10:14:15Z</time>
      </trkpt>
      <trkpt lat="44.06053" lon="1.99665">
        <ele>322.4</ele>
        <time>2024-04-07T10:14:16Z</time>
      </trkpt>
      <trkpt lat="44.06056" lon="1.99658">
        <ele>322.4</ele>
        <time>2024-04-07T10:14:17Z</time>
      </trkpt>
      <trkpt lat="44.0606" lon="1.99651">
        <ele>322.4</ele>
        <time>2024-04-07T10:14:18Z</time>
      </trkpt>
      <trkpt lat="44.06063" lon="1.99643">
        <ele>322.4</ele>
        <time>2024-04-07T10:14:19Z</time>
      </trkpt>
      <trkpt lat="44.06067" lon="1.99634">
        <ele>322.2</ele>
        <time>2024-04-07T10:14:20Z</time>
      </trkpt>
      <trkpt lat="44.06071" lon="1.99626">
        <ele>322</ele>
        <time>2024-04-07T10:14:21Z</time>
      </trkpt>
      <trkpt lat="44.0608" lon="1.99608">
        <ele>321.4</ele>
        <time>2024-04-07T10:14:23Z</time>
      </trkpt>
      <trkpt lat="44.06085" lon="1.99599">
        <ele>321.2</ele>
        <time>2024-04-07T10:14:24Z</time>
      </trkpt>
      <trkpt lat="44.06089" lon="1.99589">
        <ele>321</ele>
        <time>2024-04-07T10:14:25Z</time>
      </trkpt>
      <trkpt lat="44.06094" lon="1.99579">
        <ele>320.4</ele>
        <time>2024-04-07T10:14:26Z</time>
      </trkpt>
      <trkpt lat="44.061" lon="1.99569">
        <ele>320.4</ele>
        <time>2024-04-07T10:14:27Z</time>
      </trkpt>
      <trkpt lat="44.06105" lon="1.99558">
        <ele>319.6</ele>
        <time>2024-04-07T10:14:28Z</time>
      </trkpt>
      <trkpt lat="44.0611" lon="1.99547">
        <ele>319.2</ele>
        <time>2024-04-07T10:14:29Z</time>
      </trkpt>
      <trkpt lat="44.06116" lon="1.99537">
        <ele>318.4</ele>
        <time>2024-04-07T10:14:30Z</time>
      </trkpt>
      <trkpt lat="44.06121" lon="1.99525">
        <ele>317.8</ele>
        <time>2024-04-07T10:14:31Z</time>
      </trkpt>
      <trkpt lat="44.06126" lon="1.99514">
        <ele>317.6</ele>
        <time>2024-04-07T10:14:32Z</time>
      </trkpt>
      <trkpt lat="44.06132" lon="1.99503">
        <ele>317</ele>
        <time>2024-04-07T10:14:33Z</time>
      </trkpt>
      <trkpt lat="44.06137" lon="1.99492">
        <ele>316.4</ele>
        <time>2024-04-07T10:14:34Z</time>
      </trkpt>
      <trkpt lat="44.06142" lon="1.99481">
        <ele>315.6</ele>
        <time>2024-04-07T10:14:35Z</time>
      </trkpt>
      <trkpt lat="44.06146" lon="1.9947">
        <ele>315.6</ele>
        <time>2024-04-07T10:14:36Z</time>
      </trkpt>
      <trkpt lat="44.0615" lon="1.99458">
        <ele>315.2</ele>
        <time>2024-04-07T10:14:37Z</time>
      </trkpt>
      <trkpt lat="44.06155" lon="1.99447">
        <ele>315</ele>
        <time>2024-04-07T10:14:38Z</time>
      </trkpt>
      <trkpt lat="44.06159" lon="1.99437">
        <ele>314.2</ele>
        <time>2024-04-07T10:14:39Z</time>
      </trkpt>
      <trkpt lat="44.06163" lon="1.99426">
        <ele>313.6</ele>
        <time>2024-04-07T10:14:40Z</time>
      </trkpt>
      <trkpt lat="44.06166" lon="1.99415">
        <ele>313.2</ele>
        <time>2024-04-07T10:14:41Z</time>
      </trkpt>
      <trkpt lat="44.0617" lon="1.99404">
        <ele>312.8</ele>
        <time>2024-04-07T10:14:42Z</time>
      </trkpt>
      <trkpt lat="44.06173" lon="1.99393">
        <ele>312.6</ele>
        <time>2024-04-07T10:14:43Z</time>
      </trkpt>
      <trkpt lat="44.06177" lon="1.99382">
        <ele>312.4</ele>
        <time>2024-04-07T10:14:44Z</time>
      </trkpt>
      <trkpt lat="44.0618" lon="1.99371">
        <ele>312.2</ele>
        <time>2024-04-07T10:14:45Z</time>
      </trkpt>
      <trkpt lat="44.06183" lon="1.9936">
        <ele>312</ele>
        <time>2024-04-07T10:14:46Z</time>
      </trkpt>
      <trkpt lat="44.06185" lon="1.99349">
        <ele>311.8</ele>
        <time>2024-04-07T10:14:47Z</time>
      </trkpt>
      <trkpt lat="44.06187" lon="1.99339">
        <ele>311.6</ele>
        <time>2024-04-07T10:14:48Z</time>
      </trkpt>
      <trkpt lat="44.06189" lon="1.99328">
        <ele>311.2</ele>
        <time>2024-04-07T10:14:49Z</time>
      </trkpt>
      <trkpt lat="44.0619" lon="1.99317">
        <ele>311</ele>
        <time>2024-04-07T10:14:50Z</time>
      </trkpt>
      <trkpt lat="44.06192" lon="1.99306">
        <ele>310.8</ele>
        <time>2024-04-07T10:14:51Z</time>
      </trkpt>
      <trkpt lat="44.06193" lon="1.99296">
        <ele>310.8</ele>
        <time>2024-04-07T10:14:52Z</time>
      </trkpt>
      <trkpt lat="44.06195" lon="1.99285">
        <ele>310.6</ele>
        <time>2024-04-07T10:14:53Z</time>
      </trkpt>
      <trkpt lat="44.06196" lon="1.99275">
        <ele>310.6</ele>
        <time>2024-04-07T10:14:54Z</time>
      </trkpt>
      <trkpt lat="44.06196" lon="1.99265">
        <ele>310.6</ele>
        <time>2024-04-07T10:14:55Z</time>
      </trkpt>
      <trkpt lat="44.06197" lon="1.99255">
        <ele>310.6</ele>
        <time>2024-04-07T10:14:56Z</time>
      </trkpt>
      <trkpt lat="44.06197" lon="1.99246">
        <ele>310.6</ele>
        <time>2024-04-07T10:14:57Z</time>
      </trkpt>
      <trkpt lat="44.06198" lon="1.99238">
        <ele>310.6</ele>
        <time>2024-04-07T10:14:58Z</time>
      </trkpt>
      <trkpt lat="44.06198" lon="1.99229">
        <ele>310.6</ele>
        <time>2024-04-07T10:14:59Z</time>
      </trkpt>
      <trkpt lat="44.06199" lon="1.99221">
        <ele>310.6</ele>
        <time>2024-04-07T10:15:00Z</time>
      </trkpt>
      <trkpt lat="44.06198" lon="1.99213">
        <ele>310.8</ele>
        <time>2024-04-07T10:15:01Z</time>
      </trkpt>
      <trkpt lat="44.06198" lon="1.99205">
        <ele>310.8</ele>
        <time>2024-04-07T10:15:02Z</time>
      </trkpt>
      <trkpt lat="44.06198" lon="1.99197">
        <ele>311</ele>
        <time>2024-04-07T10:15:03Z</time>
      </trkpt>
      <trkpt lat="44.06198" lon="1.99187">
        <ele>311.2</ele>
        <time>2024-04-07T10:15:04Z</time>
      </trkpt>
      <trkpt lat="44.06198" lon="1.99181">
        <ele>311.6</ele>
        <time>2024-04-07T10:15:05Z</time>
      </trkpt>
      <trkpt lat="44.06197" lon="1.99174">
        <ele>312</ele>
        <time>2024-04-07T10:15:06Z</time>
      </trkpt>
      <trkpt lat="44.06197" lon="1.99166">
        <ele>312.2</ele>
        <time>2024-04-07T10:15:07Z</time>
      </trkpt>
      <trkpt lat="44.06196" lon="1.99158">
        <ele>312.4</ele>
        <time>2024-04-07T10:15:08Z</time>
      </trkpt>
      <trkpt lat="44.06196" lon="1.9915">
        <ele>312.6</ele>
        <time>2024-04-07T10:15:09Z</time>
      </trkpt>
      <trkpt lat="44.06195" lon="1.99144">
        <ele>312.8</ele>
        <time>2024-04-07T10:15:10Z</time>
      </trkpt>
      <trkpt lat="44.06194" lon="1.99136">
        <ele>313.6</ele>
        <time>2024-04-07T10:15:11Z</time>
      </trkpt>
      <trkpt lat="44.06193" lon="1.99128">
        <ele>314</ele>
        <time>2024-04-07T10:15:12Z</time>
      </trkpt>
      <trkpt lat="44.06192" lon="1.99121">
        <ele>314</ele>
        <time>2024-04-07T10:15:13Z</time>
      </trkpt>
      <trkpt lat="44.06191" lon="1.99112">
        <ele>314.6</ele>
        <time>2024-04-07T10:15:14Z</time>
      </trkpt>
      <trkpt lat="44.0619" lon="1.99106">
        <ele>314.6</ele>
        <time>2024-04-07T10:15:15Z</time>
      </trkpt>
      <trkpt lat="44.06189" lon="1.99098">
        <ele>315</ele>
        <time>2024-04-07T10:15:16Z</time>
      </trkpt>
      <trkpt lat="44.06188" lon="1.9909">
        <ele>315.2</ele>
        <time>2024-04-07T10:15:17Z</time>
      </trkpt>
      <trkpt lat="44.06187" lon="1.99083">
        <ele>315.2</ele>
        <time>2024-04-07T10:15:18Z</time>
      </trkpt>
      <trkpt lat="44.06186" lon="1.99075">
        <ele>315.4</ele>
        <time>2024-04-07T10:15:19Z</time>
      </trkpt>
      <trkpt lat="44.06184" lon="1.99068">
        <ele>315.8</ele>
        <time>2024-04-07T10:15:20Z</time>
      </trkpt>
      <trkpt lat="44.06183" lon="1.99061">
        <ele>316</ele>
        <time>2024-04-07T10:15:21Z</time>
      </trkpt>
      <trkpt lat="44.06181" lon="1.99053">
        <ele>316.2</ele>
        <time>2024-04-07T10:15:22Z</time>
      </trkpt>
      <trkpt lat="44.0618" lon="1.99046">
        <ele>316.4</ele>
        <time>2024-04-07T10:15:23Z</time>
      </trkpt>
      <trkpt lat="44.06178" lon="1.99039">
        <ele>316.4</ele>
        <time>2024-04-07T10:15:24Z</time>
      </trkpt>
      <trkpt lat="44.06176" lon="1.99031">
        <ele>316.8</ele>
        <time>2024-04-07T10:15:25Z</time>
      </trkpt>
      <trkpt lat="44.06174" lon="1.99024">
        <ele>316.8</ele>
        <time>2024-04-07T10:15:26Z</time>
      </trkpt>
      <trkpt lat="44.06172" lon="1.99017">
        <ele>317</ele>
        <time>2024-04-07T10:15:27Z</time>
      </trkpt>
      <trkpt lat="44.0617" lon="1.9901">
        <ele>317.6</ele>
        <time>2024-04-07T10:15:28Z</time>
      </trkpt>
      <trkpt lat="44.06169" lon="1.99003">
        <ele>317.8</ele>
        <time>2024-04-07T10:15:29Z</time>
      </trkpt>
      <trkpt lat="44.06167" lon="1.98996">
        <ele>318.2</ele>
        <time>2024-04-07T10:15:30Z</time>
      </trkpt>
      <trkpt lat="44.06166" lon="1.98989">
        <ele>318.2</ele>
        <time>2024-04-07T10:15:31Z</time>
      </trkpt>
      <trkpt lat="44.06165" lon="1.98982">
        <ele>318.6</ele>
        <time>2024-04-07T10:15:32Z</time>
      </trkpt>
      <trkpt lat="44.06163" lon="1.98975">
        <ele>319</ele>
        <time>2024-04-07T10:15:33Z</time>
      </trkpt>
      <trkpt lat="44.06162" lon="1.98968">
        <ele>319.4</ele>
        <time>2024-04-07T10:15:34Z</time>
      </trkpt>
      <trkpt lat="44.06161" lon="1.98961">
        <ele>319.6</ele>
        <time>2024-04-07T10:15:35Z</time>
      </trkpt>
      <trkpt lat="44.0616" lon="1.98953">
        <ele>320</ele>
        <time>2024-04-07T10:15:36Z</time>
      </trkpt>
      <trkpt lat="44.06158" lon="1.98946">
        <ele>320.2</ele>
        <time>2024-04-07T10:15:37Z</time>
      </trkpt>
      <trkpt lat="44.06157" lon="1.98938">
        <ele>320.2</ele>
        <time>2024-04-07T10:15:38Z</time>
      </trkpt>
      <trkpt lat="44.06156" lon="1.9893">
        <ele>320.8</ele>
        <time>2024-04-07T10:15:39Z</time>
      </trkpt>
      <trkpt lat="44.06155" lon="1.98923">
        <ele>321.2</ele>
        <time>2024-04-07T10:15:40Z</time>
      </trkpt>
      <trkpt lat="44.06154" lon="1.98913">
        <ele>321.6</ele>
        <time>2024-04-07T10:15:41Z</time>
      </trkpt>
      <trkpt lat="44.06153" lon="1.98907">
        <ele>321.6</ele>
        <time>2024-04-07T10:15:42Z</time>
      </trkpt>
      <trkpt lat="44.06151" lon="1.98899">
        <ele>322</ele>
        <time>2024-04-07T10:15:43Z</time>
      </trkpt>
      <trkpt lat="44.06151" lon="1.98891">
        <ele>322.4</ele>
        <time>2024-04-07T10:15:44Z</time>
      </trkpt>
      <trkpt lat="44.06149" lon="1.98882">
        <ele>322.4</ele>
        <time>2024-04-07T10:15:45Z</time>
      </trkpt>
      <trkpt lat="44.06148" lon="1.98874">
        <ele>322.8</ele>
        <time>2024-04-07T10:15:46Z</time>
      </trkpt>
      <trkpt lat="44.06147" lon="1.98868">
        <ele>323</ele>
        <time>2024-04-07T10:15:47Z</time>
      </trkpt>
      <trkpt lat="44.06146" lon="1.9886">
        <ele>323.6</ele>
        <time>2024-04-07T10:15:48Z</time>
      </trkpt>
      <trkpt lat="44.06145" lon="1.9885">
        <ele>323.8</ele>
        <time>2024-04-07T10:15:49Z</time>
      </trkpt>
      <trkpt lat="44.06144" lon="1.98842">
        <ele>324.2</ele>
        <time>2024-04-07T10:15:50Z</time>
      </trkpt>
      <trkpt lat="44.06144" lon="1.98834">
        <ele>324.4</ele>
        <time>2024-04-07T10:15:51Z</time>
      </trkpt>
      <trkpt lat="44.06144" lon="1.98827">
        <ele>324.4</ele>
        <time>2024-04-07T10:15:52Z</time>
      </trkpt>
      <trkpt lat="44.06144" lon="1.98819">
        <ele>324.6</ele>
        <time>2024-04-07T10:15:53Z</time>
      </trkpt>
      <trkpt lat="44.06144" lon="1.9881">
        <ele>324.6</ele>
        <time>2024-04-07T10:15:54Z</time>
      </trkpt>
      <trkpt lat="44.06144" lon="1.98801">
        <ele>324.8</ele>
        <time>2024-04-07T10:15:55Z</time>
      </trkpt>
      <trkpt lat="44.06144" lon="1.98795">
        <ele>325</ele>
        <time>2024-04-07T10:15:56Z</time>
      </trkpt>
      <trkpt lat="44.06144" lon="1.98787">
        <ele>325.2</ele>
        <time>2024-04-07T10:15:57Z</time>
      </trkpt>
      <trkpt lat="44.06144" lon="1.98778">
        <ele>325.2</ele>
        <time>2024-04-07T10:15:58Z</time>
      </trkpt>
      <trkpt lat="44.06143" lon="1.98771">
        <ele>325.4</ele>
        <time>2024-04-07T10:15:59Z</time>
      </trkpt>
      <trkpt lat="44.06143" lon="1.98765">
        <ele>325.6</ele>
        <time>2024-04-07T10:16:00Z</time>
      </trkpt>
      <trkpt lat="44.06144" lon="1.98758">
        <ele>325.6</ele>
        <time>2024-04-07T10:16:01Z</time>
      </trkpt>
      <trkpt lat="44.06144" lon="1.98751">
        <ele>325.8</ele>
        <time>2024-04-07T10:16:02Z</time>
      </trkpt>
      <trkpt lat="44.06145" lon="1.98743">
        <ele>325.8</ele>
        <time>2024-04-07T10:16:03Z</time>
      </trkpt>
      <trkpt lat="44.06145" lon="1.98736">
        <ele>326.2</ele>
        <time>2024-04-07T10:16:04Z</time>
      </trkpt>
      <trkpt lat="44.06145" lon="1.98729">
        <ele>326.4</ele>
        <time>2024-04-07T10:16:05Z</time>
      </trkpt>
      <trkpt lat="44.06147" lon="1.98722">
        <ele>326.6</ele>
        <time>2024-04-07T10:16:06Z</time>
      </trkpt>
      <trkpt lat="44.06151" lon="1.98719">
        <ele>326.8</ele>
        <time>2024-04-07T10:16:07Z</time>
      </trkpt>
      <trkpt lat="44.06156" lon="1.98717">
        <ele>327</ele>
        <time>2024-04-07T10:16:08Z</time>
      </trkpt>
      <trkpt lat="44.06161" lon="1.98716">
        <ele>327.2</ele>
        <time>2024-04-07T10:16:09Z</time>
      </trkpt>
      <trkpt lat="44.06166" lon="1.98717">
        <ele>327.4</ele>
        <time>2024-04-07T10:16:10Z</time>
      </trkpt>
      <trkpt lat="44.06171" lon="1.98717">
        <ele>327.6</ele>
        <time>2024-04-07T10:16:11Z</time>
      </trkpt>
      <trkpt lat="44.06176" lon="1.98717">
        <ele>327.8</ele>
        <time>2024-04-07T10:16:12Z</time>
      </trkpt>
      <trkpt lat="44.06181" lon="1.98717">
        <ele>328.4</ele>
        <time>2024-04-07T10:16:13Z</time>
      </trkpt>
      <trkpt lat="44.06187" lon="1.98718">
        <ele>328.6</ele>
        <time>2024-04-07T10:16:14Z</time>
      </trkpt>
      <trkpt lat="44.06192" lon="1.98718">
        <ele>329.2</ele>
        <time>2024-04-07T10:16:15Z</time>
      </trkpt>
      <trkpt lat="44.06198" lon="1.98719">
        <ele>329.4</ele>
        <time>2024-04-07T10:16:16Z</time>
      </trkpt>
      <trkpt lat="44.06203" lon="1.98719">
        <ele>329.8</ele>
        <time>2024-04-07T10:16:17Z</time>
      </trkpt>
      <trkpt lat="44.06209" lon="1.98719">
        <ele>330</ele>
        <time>2024-04-07T10:16:18Z</time>
      </trkpt>
      <trkpt lat="44.06215" lon="1.9872">
        <ele>329.8</ele>
        <time>2024-04-07T10:16:19Z</time>
      </trkpt>
      <trkpt lat="44.06221" lon="1.9872">
        <ele>330.2</ele>
        <time>2024-04-07T10:16:20Z</time>
      </trkpt>
      <trkpt lat="44.06227" lon="1.9872">
        <ele>330.4</ele>
        <time>2024-04-07T10:16:21Z</time>
      </trkpt>
      <trkpt lat="44.06234" lon="1.9872">
        <ele>330.4</ele>
        <time>2024-04-07T10:16:22Z</time>
      </trkpt>
      <trkpt lat="44.0624" lon="1.98721">
        <ele>330.4</ele>
        <time>2024-04-07T10:16:23Z</time>
      </trkpt>
      <trkpt lat="44.06247" lon="1.98721">
        <ele>330.2</ele>
        <time>2024-04-07T10:16:24Z</time>
      </trkpt>
      <trkpt lat="44.06253" lon="1.98722">
        <ele>330</ele>
        <time>2024-04-07T10:16:25Z</time>
      </trkpt>
      <trkpt lat="44.06261" lon="1.98722">
        <ele>330</ele>
        <time>2024-04-07T10:16:26Z</time>
      </trkpt>
      <trkpt lat="44.06268" lon="1.98723">
        <ele>330</ele>
        <time>2024-04-07T10:16:27Z</time>
      </trkpt>
      <trkpt lat="44.06276" lon="1.98724">
        <ele>329.8</ele>
        <time>2024-04-07T10:16:28Z</time>
      </trkpt>
      <trkpt lat="44.06283" lon="1.98724">
        <ele>329.4</ele>
        <time>2024-04-07T10:16:29Z</time>
      </trkpt>
      <trkpt lat="44.06289" lon="1.98721">
        <ele>329.2</ele>
        <time>2024-04-07T10:16:30Z</time>
      </trkpt>
      <trkpt lat="44.06294" lon="1.98714">
        <ele>329</ele>
        <time>2024-04-07T10:16:31Z</time>
      </trkpt>
      <trkpt lat="44.06297" lon="1.98705">
        <ele>328.6</ele>
        <time>2024-04-07T10:16:32Z</time>
      </trkpt>
      <trkpt lat="44.06298" lon="1.98695">
        <ele>328.2</ele>
        <time>2024-04-07T10:16:33Z</time>
      </trkpt>
      <trkpt lat="44.06298" lon="1.98685">
        <ele>327.6</ele>
        <time>2024-04-07T10:16:34Z</time>
      </trkpt>
      <trkpt lat="44.06299" lon="1.98674">
        <ele>327.4</ele>
        <time>2024-04-07T10:16:35Z</time>
      </trkpt>
      <trkpt lat="44.063" lon="1.98663">
        <ele>326.8</ele>
        <time>2024-04-07T10:16:36Z</time>
      </trkpt>
      <trkpt lat="44.063" lon="1.98652">
        <ele>326.4</ele>
        <time>2024-04-07T10:16:37Z</time>
      </trkpt>
      <trkpt lat="44.06301" lon="1.9864">
        <ele>325.8</ele>
        <time>2024-04-07T10:16:38Z</time>
      </trkpt>
      <trkpt lat="44.06302" lon="1.98628">
        <ele>325.4</ele>
        <time>2024-04-07T10:16:39Z</time>
      </trkpt>
      <trkpt lat="44.06303" lon="1.98615">
        <ele>324.6</ele>
        <time>2024-04-07T10:16:40Z</time>
      </trkpt>
      <trkpt lat="44.06304" lon="1.98602">
        <ele>324.2</ele>
        <time>2024-04-07T10:16:41Z</time>
      </trkpt>
      <trkpt lat="44.06307" lon="1.98574">
        <ele>323.6</ele>
        <time>2024-04-07T10:16:43Z</time>
      </trkpt>
      <trkpt lat="44.06311" lon="1.98546">
        <ele>322.6</ele>
        <time>2024-04-07T10:16:45Z</time>
      </trkpt>
      <trkpt lat="44.06315" lon="1.98532">
        <ele>322.2</ele>
        <time>2024-04-07T10:16:46Z</time>
      </trkpt>
      <trkpt lat="44.06321" lon="1.98519">
        <ele>321</ele>
        <time>2024-04-07T10:16:47Z</time>
      </trkpt>
      <trkpt lat="44.06328" lon="1.98508">
        <ele>320.4</ele>
        <time>2024-04-07T10:16:48Z</time>
      </trkpt>
      <trkpt lat="44.06336" lon="1.98497">
        <ele>319.8</ele>
        <time>2024-04-07T10:16:49Z</time>
      </trkpt>
      <trkpt lat="44.06351" lon="1.98475">
        <ele>318.8</ele>
        <time>2024-04-07T10:16:51Z</time>
      </trkpt>
      <trkpt lat="44.06359" lon="1.98464">
        <ele>317.8</ele>
        <time>2024-04-07T10:16:52Z</time>
      </trkpt>
      <trkpt lat="44.06367" lon="1.98453">
        <ele>317.6</ele>
        <time>2024-04-07T10:16:53Z</time>
      </trkpt>
      <trkpt lat="44.06374" lon="1.98443">
        <ele>316.6</ele>
        <time>2024-04-07T10:16:54Z</time>
      </trkpt>
      <trkpt lat="44.06382" lon="1.98433">
        <ele>316</ele>
        <time>2024-04-07T10:16:55Z</time>
      </trkpt>
      <trkpt lat="44.06388" lon="1.98424">
        <ele>314.8</ele>
        <time>2024-04-07T10:16:56Z</time>
      </trkpt>
      <trkpt lat="44.06394" lon="1.98415">
        <ele>314</ele>
        <time>2024-04-07T10:16:57Z</time>
      </trkpt>
      <trkpt lat="44.064" lon="1.98408">
        <ele>313.2</ele>
        <time>2024-04-07T10:16:58Z</time>
      </trkpt>
      <trkpt lat="44.06404" lon="1.98401">
        <ele>312</ele>
        <time>2024-04-07T10:16:59Z</time>
      </trkpt>
      <trkpt lat="44.06406" lon="1.98394">
        <ele>311.2</ele>
        <time>2024-04-07T10:17:00Z</time>
      </trkpt>
      <trkpt lat="44.06407" lon="1.98386">
        <ele>309.8</ele>
        <time>2024-04-07T10:17:01Z</time>
      </trkpt>
      <trkpt lat="44.06405" lon="1.98379">
        <ele>309.2</ele>
        <time>2024-04-07T10:17:02Z</time>
      </trkpt>
      <trkpt lat="44.06402" lon="1.98373">
        <ele>308.2</ele>
        <time>2024-04-07T10:17:03Z</time>
      </trkpt>
      <trkpt lat="44.06399" lon="1.98367">
        <ele>307.6</ele>
        <time>2024-04-07T10:17:04Z</time>
      </trkpt>
      <trkpt lat="44.06398" lon="1.9836">
        <ele>306.4</ele>
        <time>2024-04-07T10:17:05Z</time>
      </trkpt>
      <trkpt lat="44.06398" lon="1.98353">
        <ele>305.6</ele>
        <time>2024-04-07T10:17:06Z</time>
      </trkpt>
      <trkpt lat="44.06398" lon="1.98347">
        <ele>305.4</ele>
        <time>2024-04-07T10:17:07Z</time>
      </trkpt>
      <trkpt lat="44.06399" lon="1.98339">
        <ele>305.2</ele>
        <time>2024-04-07T10:17:08Z</time>
      </trkpt>
      <trkpt lat="44.064" lon="1.98333">
        <ele>305</ele>
        <time>2024-04-07T10:17:09Z</time>
      </trkpt>
      <trkpt lat="44.06402" lon="1.98326">
        <ele>305</ele>
        <time>2024-04-07T10:17:10Z</time>
      </trkpt>
      <trkpt lat="44.06403" lon="1.98319">
        <ele>305</ele>
        <time>2024-04-07T10:17:11Z</time>
      </trkpt>
      <trkpt lat="44.06405" lon="1.98312">
        <ele>305</ele>
        <time>2024-04-07T10:17:12Z</time>
      </trkpt>
      <trkpt lat="44.06407" lon="1.98305">
        <ele>305.2</ele>
        <time>2024-04-07T10:17:13Z</time>
      </trkpt>
      <trkpt lat="44.06408" lon="1.98299">
        <ele>305.6</ele>
        <time>2024-04-07T10:17:14Z</time>
      </trkpt>
      <trkpt lat="44.0641" lon="1.98292">
        <ele>306</ele>
        <time>2024-04-07T10:17:15Z</time>
      </trkpt>
      <trkpt lat="44.06411" lon="1.98285">
        <ele>306.4</ele>
        <time>2024-04-07T10:17:16Z</time>
      </trkpt>
      <trkpt lat="44.06413" lon="1.98278">
        <ele>307.6</ele>
        <time>2024-04-07T10:17:17Z</time>
      </trkpt>
      <trkpt lat="44.06414" lon="1.98272">
        <ele>308.2</ele>
        <time>2024-04-07T10:17:18Z</time>
      </trkpt>
      <trkpt lat="44.06416" lon="1.98266">
        <ele>309.8</ele>
        <time>2024-04-07T10:17:19Z</time>
      </trkpt>
      <trkpt lat="44.06417" lon="1.9826">
        <ele>310.4</ele>
        <time>2024-04-07T10:17:20Z</time>
      </trkpt>
      <trkpt lat="44.06418" lon="1.98255">
        <ele>311.4</ele>
        <time>2024-04-07T10:17:21Z</time>
      </trkpt>
      <trkpt lat="44.06419" lon="1.98248">
        <ele>312.2</ele>
        <time>2024-04-07T10:17:22Z</time>
      </trkpt>
      <trkpt lat="44.0642" lon="1.98243">
        <ele>313</ele>
        <time>2024-04-07T10:17:23Z</time>
      </trkpt>
      <trkpt lat="44.06421" lon="1.98237">
        <ele>314.2</ele>
        <time>2024-04-07T10:17:24Z</time>
      </trkpt>
      <trkpt lat="44.06423" lon="1.98232">
        <ele>314.6</ele>
        <time>2024-04-07T10:17:25Z</time>
      </trkpt>
      <trkpt lat="44.06426" lon="1.98227">
        <ele>315.4</ele>
        <time>2024-04-07T10:17:26Z</time>
      </trkpt>
      <trkpt lat="44.06429" lon="1.98221">
        <ele>315.8</ele>
        <time>2024-04-07T10:17:27Z</time>
      </trkpt>
      <trkpt lat="44.06432" lon="1.98216">
        <ele>316.8</ele>
        <time>2024-04-07T10:17:28Z</time>
      </trkpt>
      <trkpt lat="44.06436" lon="1.9821">
        <ele>317.8</ele>
        <time>2024-04-07T10:17:29Z</time>
      </trkpt>
      <trkpt lat="44.06439" lon="1.98204">
        <ele>318.2</ele>
        <time>2024-04-07T10:17:30Z</time>
      </trkpt>
      <trkpt lat="44.06443" lon="1.98199">
        <ele>318.6</ele>
        <time>2024-04-07T10:17:31Z</time>
      </trkpt>
      <trkpt lat="44.06446" lon="1.98195">
        <ele>318.8</ele>
        <time>2024-04-07T10:17:32Z</time>
      </trkpt>
      <trkpt lat="44.0645" lon="1.98191">
        <ele>319</ele>
        <time>2024-04-07T10:17:33Z</time>
      </trkpt>
      <trkpt lat="44.06453" lon="1.98186">
        <ele>319.2</ele>
        <time>2024-04-07T10:17:34Z</time>
      </trkpt>
      <trkpt lat="44.06456" lon="1.98181">
        <ele>319.4</ele>
        <time>2024-04-07T10:17:35Z</time>
      </trkpt>
      <trkpt lat="44.06459" lon="1.98175">
        <ele>319.4</ele>
        <time>2024-04-07T10:17:36Z</time>
      </trkpt>
      <trkpt lat="44.06463" lon="1.9817">
        <ele>319.4</ele>
        <time>2024-04-07T10:17:37Z</time>
      </trkpt>
      <trkpt lat="44.06465" lon="1.98164">
        <ele>319.4</ele>
        <time>2024-04-07T10:17:38Z</time>
      </trkpt>
      <trkpt lat="44.06468" lon="1.98158">
        <ele>319.4</ele>
        <time>2024-04-07T10:17:39Z</time>
      </trkpt>
      <trkpt lat="44.0647" lon="1.98151">
        <ele>319.6</ele>
        <time>2024-04-07T10:17:40Z</time>
      </trkpt>
      <trkpt lat="44.06472" lon="1.98145">
        <ele>319.6</ele>
        <time>2024-04-07T10:17:41Z</time>
      </trkpt>
      <trkpt lat="44.06474" lon="1.98139">
        <ele>319.6</ele>
        <time>2024-04-07T10:17:42Z</time>
      </trkpt>
      <trkpt lat="44.06475" lon="1.98133">
        <ele>319.6</ele>
        <time>2024-04-07T10:17:43Z</time>
      </trkpt>
      <trkpt lat="44.06477" lon="1.98127">
        <ele>319.8</ele>
        <time>2024-04-07T10:17:44Z</time>
      </trkpt>
      <trkpt lat="44.06478" lon="1.9812">
        <ele>319.8</ele>
        <time>2024-04-07T10:17:45Z</time>
      </trkpt>
      <trkpt lat="44.0648" lon="1.98113">
        <ele>319.8</ele>
        <time>2024-04-07T10:17:46Z</time>
      </trkpt>
      <trkpt lat="44.06481" lon="1.98106">
        <ele>320</ele>
        <time>2024-04-07T10:17:47Z</time>
      </trkpt>
      <trkpt lat="44.06483" lon="1.981">
        <ele>320</ele>
        <time>2024-04-07T10:17:48Z</time>
      </trkpt>
      <trkpt lat="44.06485" lon="1.98093">
        <ele>320</ele>
        <time>2024-04-07T10:17:49Z</time>
      </trkpt>
      <trkpt lat="44.06488" lon="1.98087">
        <ele>320</ele>
        <time>2024-04-07T10:17:50Z</time>
      </trkpt>
      <trkpt lat="44.0649" lon="1.9808">
        <ele>320</ele>
        <time>2024-04-07T10:17:51Z</time>
      </trkpt>
      <trkpt lat="44.06492" lon="1.98073">
        <ele>320</ele>
        <time>2024-04-07T10:17:52Z</time>
      </trkpt>
      <trkpt lat="44.06494" lon="1.98065">
        <ele>320</ele>
        <time>2024-04-07T10:17:53Z</time>
      </trkpt>
      <trkpt lat="44.06496" lon="1.98058">
        <ele>320</ele>
        <time>2024-04-07T10:17:54Z</time>
      </trkpt>
      <trkpt lat="44.06498" lon="1.9805">
        <ele>320</ele>
        <time>2024-04-07T10:17:55Z</time>
      </trkpt>
      <trkpt lat="44.06499" lon="1.98043">
        <ele>319.6</ele>
        <time>2024-04-07T10:17:56Z</time>
      </trkpt>
      <trkpt lat="44.06498" lon="1.98036">
        <ele>319.6</ele>
        <time>2024-04-07T10:17:57Z</time>
      </trkpt>
      <trkpt lat="44.06496" lon="1.98029">
        <ele>319</ele>
        <time>2024-04-07T10:17:58Z</time>
      </trkpt>
      <trkpt lat="44.06493" lon="1.98023">
        <ele>318.6</ele>
        <time>2024-04-07T10:17:59Z</time>
      </trkpt>
      <trkpt lat="44.06489" lon="1.98016">
        <ele>318</ele>
        <time>2024-04-07T10:18:00Z</time>
      </trkpt>
      <trkpt lat="44.06486" lon="1.9801">
        <ele>317.8</ele>
        <time>2024-04-07T10:18:01Z</time>
      </trkpt>
      <trkpt lat="44.06483" lon="1.98003">
        <ele>317</ele>
        <time>2024-04-07T10:18:02Z</time>
      </trkpt>
      <trkpt lat="44.06481" lon="1.97996">
        <ele>316.6</ele>
        <time>2024-04-07T10:18:03Z</time>
      </trkpt>
      <trkpt lat="44.06478" lon="1.97989">
        <ele>316.2</ele>
        <time>2024-04-07T10:18:04Z</time>
      </trkpt>
      <trkpt lat="44.06475" lon="1.97982">
        <ele>315.6</ele>
        <time>2024-04-07T10:18:05Z</time>
      </trkpt>
      <trkpt lat="44.06472" lon="1.97975">
        <ele>315.2</ele>
        <time>2024-04-07T10:18:06Z</time>
      </trkpt>
      <trkpt lat="44.06469" lon="1.97968">
        <ele>314.8</ele>
        <time>2024-04-07T10:18:07Z</time>
      </trkpt>
      <trkpt lat="44.06466" lon="1.97962">
        <ele>314.6</ele>
        <time>2024-04-07T10:18:08Z</time>
      </trkpt>
      <trkpt lat="44.0646" lon="1.97949">
        <ele>314.2</ele>
        <time>2024-04-07T10:18:10Z</time>
      </trkpt>
      <trkpt lat="44.06457" lon="1.97942">
        <ele>314.2</ele>
        <time>2024-04-07T10:18:11Z</time>
      </trkpt>
      <trkpt lat="44.06454" lon="1.97936">
        <ele>314.2</ele>
        <time>2024-04-07T10:18:12Z</time>
      </trkpt>
      <trkpt lat="44.06452" lon="1.97929">
        <ele>314.2</ele>
        <time>2024-04-07T10:18:13Z</time>
      </trkpt>
      <trkpt lat="44.06451" lon="1.97923">
        <ele>314.2</ele>
        <time>2024-04-07T10:18:14Z</time>
      </trkpt>
      <trkpt lat="44.06449" lon="1.97917">
        <ele>314</ele>
        <time>2024-04-07T10:18:15Z</time>
      </trkpt>
      <trkpt lat="44.06447" lon="1.97911">
        <ele>314.2</ele>
        <time>2024-04-07T10:18:16Z</time>
      </trkpt>
      <trkpt lat="44.06445" lon="1.97905">
        <ele>314.2</ele>
        <time>2024-04-07T10:18:17Z</time>
      </trkpt>
      <trkpt lat="44.06443" lon="1.97899">
        <ele>314.4</ele>
        <time>2024-04-07T10:18:18Z</time>
      </trkpt>
      <trkpt lat="44.06441" lon="1.97892">
        <ele>314.4</ele>
        <time>2024-04-07T10:18:19Z</time>
      </trkpt>
      <trkpt lat="44.06437" lon="1.9788">
        <ele>314.4</ele>
        <time>2024-04-07T10:18:21Z</time>
      </trkpt>
      <trkpt lat="44.06436" lon="1.97875">
        <ele>314.2</ele>
        <time>2024-04-07T10:18:22Z</time>
      </trkpt>
      <trkpt lat="44.06435" lon="1.97871">
        <ele>314.2</ele>
        <time>2024-04-07T10:18:23Z</time>
      </trkpt>
      <trkpt lat="44.06434" lon="1.97867">
        <ele>314.2</ele>
        <time>2024-04-07T10:18:24Z</time>
      </trkpt>
      <trkpt lat="44.06434" lon="1.97867">
        <ele>314</ele>
        <time>2024-04-07T10:18:25Z</time>
      </trkpt>
      <trkpt lat="44.06433" lon="1.97862">
        <ele>314</ele>
        <time>2024-04-07T10:18:26Z</time>
      </trkpt>
      <trkpt lat="44.06433" lon="1.97859">
        <ele>314</ele>
        <time>2024-04-07T10:18:27Z</time>
      </trkpt>
      <trkpt lat="44.06432" lon="1.97856">
        <ele>314</ele>
        <time>2024-04-07T10:18:28Z</time>
      </trkpt>
      <trkpt lat="44.06432" lon="1.97853">
        <ele>314.2</ele>
        <time>2024-04-07T10:18:29Z</time>
      </trkpt>
      <trkpt lat="44.06432" lon="1.97853">
        <ele>314.2</ele>
        <time>2024-04-07T10:18:30Z</time>
      </trkpt>
      <trkpt lat="44.06432" lon="1.97847">
        <ele>314.2</ele>
        <time>2024-04-07T10:18:31Z</time>
      </trkpt>
      <trkpt lat="44.06432" lon="1.97842">
        <ele>314.4</ele>
        <time>2024-04-07T10:18:32Z</time>
      </trkpt>
      <trkpt lat="44.06431" lon="1.97839">
        <ele>314.6</ele>
        <time>2024-04-07T10:18:33Z</time>
      </trkpt>
      <trkpt lat="44.0643" lon="1.97836">
        <ele>314.8</ele>
        <time>2024-04-07T10:18:34Z</time>
      </trkpt>
      <trkpt lat="44.06429" lon="1.97833">
        <ele>315</ele>
        <time>2024-04-07T10:18:35Z</time>
      </trkpt>
      <trkpt lat="44.06428" lon="1.9783">
        <ele>315.2</ele>
        <time>2024-04-07T10:18:36Z</time>
      </trkpt>
      <trkpt lat="44.06427" lon="1.97826">
        <ele>315.6</ele>
        <time>2024-04-07T10:18:37Z</time>
      </trkpt>
      <trkpt lat="44.06426" lon="1.97823">
        <ele>315.8</ele>
        <time>2024-04-07T10:18:38Z</time>
      </trkpt>
      <trkpt lat="44.06426" lon="1.97819">
        <ele>316.4</ele>
        <time>2024-04-07T10:18:39Z</time>
      </trkpt>
      <trkpt lat="44.06425" lon="1.97815">
        <ele>316.6</ele>
        <time>2024-04-07T10:18:40Z</time>
      </trkpt>
      <trkpt lat="44.06425" lon="1.97811">
        <ele>317</ele>
        <time>2024-04-07T10:18:41Z</time>
      </trkpt>
      <trkpt lat="44.06424" lon="1.97806">
        <ele>317.4</ele>
        <time>2024-04-07T10:18:42Z</time>
      </trkpt>
      <trkpt lat="44.06424" lon="1.97802">
        <ele>317.4</ele>
        <time>2024-04-07T10:18:43Z</time>
      </trkpt>
      <trkpt lat="44.06423" lon="1.97799">
        <ele>317.6</ele>
        <time>2024-04-07T10:18:44Z</time>
      </trkpt>
      <trkpt lat="44.06423" lon="1.97795">
        <ele>318</ele>
        <time>2024-04-07T10:18:45Z</time>
      </trkpt>
      <trkpt lat="44.06422" lon="1.97792">
        <ele>318.6</ele>
        <time>2024-04-07T10:18:46Z</time>
      </trkpt>
      <trkpt lat="44.06422" lon="1.97788">
        <ele>319</ele>
        <time>2024-04-07T10:18:47Z</time>
      </trkpt>
      <trkpt lat="44.06421" lon="1.97783">
        <ele>319.6</ele>
        <time>2024-04-07T10:18:48Z</time>
      </trkpt>
      <trkpt lat="44.0642" lon="1.97779">
        <ele>319.8</ele>
        <time>2024-04-07T10:18:49Z</time>
      </trkpt>
      <trkpt lat="44.06419" lon="1.97774">
        <ele>320.2</ele>
        <time>2024-04-07T10:18:50Z</time>
      </trkpt>
      <trkpt lat="44.06418" lon="1.9777">
        <ele>320.6</ele>
        <time>2024-04-07T10:18:51Z</time>
      </trkpt>
      <trkpt lat="44.06418" lon="1.97764">
        <ele>321</ele>
        <time>2024-04-07T10:18:52Z</time>
      </trkpt>
      <trkpt lat="44.06417" lon="1.97757">
        <ele>321.2</ele>
        <time>2024-04-07T10:18:53Z</time>
      </trkpt>
      <trkpt lat="44.06417" lon="1.97751">
        <ele>321.4</ele>
        <time>2024-04-07T10:18:54Z</time>
      </trkpt>
      <trkpt lat="44.06417" lon="1.97745">
        <ele>321.6</ele>
        <time>2024-04-07T10:18:55Z</time>
      </trkpt>
      <trkpt lat="44.06417" lon="1.97739">
        <ele>321.8</ele>
        <time>2024-04-07T10:18:56Z</time>
      </trkpt>
      <trkpt lat="44.06417" lon="1.97732">
        <ele>322</ele>
        <time>2024-04-07T10:18:57Z</time>
      </trkpt>
      <trkpt lat="44.06417" lon="1.97727">
        <ele>322.4</ele>
        <time>2024-04-07T10:18:58Z</time>
      </trkpt>
      <trkpt lat="44.06417" lon="1.97721">
        <ele>322.4</ele>
        <time>2024-04-07T10:18:59Z</time>
      </trkpt>
      <trkpt lat="44.06417" lon="1.97715">
        <ele>322.6</ele>
        <time>2024-04-07T10:19:00Z</time>
      </trkpt>
      <trkpt lat="44.06416" lon="1.9771">
        <ele>322.8</ele>
        <time>2024-04-07T10:19:01Z</time>
      </trkpt>
      <trkpt lat="44.06416" lon="1.97704">
        <ele>323</ele>
        <time>2024-04-07T10:19:02Z</time>
      </trkpt>
      <trkpt lat="44.06416" lon="1.97698">
        <ele>323</ele>
        <time>2024-04-07T10:19:03Z</time>
      </trkpt>
      <trkpt lat="44.06415" lon="1.97693">
        <ele>323.2</ele>
        <time>2024-04-07T10:19:04Z</time>
      </trkpt>
      <trkpt lat="44.06415" lon="1.97687">
        <ele>323.4</ele>
        <time>2024-04-07T10:19:05Z</time>
      </trkpt>
      <trkpt lat="44.06415" lon="1.97681">
        <ele>323.4</ele>
        <time>2024-04-07T10:19:06Z</time>
      </trkpt>
      <trkpt lat="44.06415" lon="1.97675">
        <ele>323.4</ele>
        <time>2024-04-07T10:19:07Z</time>
      </trkpt>
      <trkpt lat="44.06416" lon="1.9767">
        <ele>323.6</ele>
        <time>2024-04-07T10:19:08Z</time>
      </trkpt>
      <trkpt lat="44.06416" lon="1.97665">
        <ele>323.6</ele>
        <time>2024-04-07T10:19:09Z</time>
      </trkpt>
      <trkpt lat="44.06416" lon="1.97659">
        <ele>323.6</ele>
        <time>2024-04-07T10:19:10Z</time>
      </trkpt>
      <trkpt lat="44.06416" lon="1.97653">
        <ele>323.8</ele>
        <time>2024-04-07T10:19:11Z</time>
      </trkpt>
      <trkpt lat="44.06415" lon="1.97647">
        <ele>323.8</ele>
        <time>2024-04-07T10:19:12Z</time>
      </trkpt>
      <trkpt lat="44.06414" lon="1.97641">
        <ele>324</ele>
        <time>2024-04-07T10:19:13Z</time>
      </trkpt>
      <trkpt lat="44.06413" lon="1.97636">
        <ele>324</ele>
        <time>2024-04-07T10:19:14Z</time>
      </trkpt>
      <trkpt lat="44.06411" lon="1.9763">
        <ele>324</ele>
        <time>2024-04-07T10:19:15Z</time>
      </trkpt>
      <trkpt lat="44.0641" lon="1.97625">
        <ele>324</ele>
        <time>2024-04-07T10:19:16Z</time>
      </trkpt>
      <trkpt lat="44.06409" lon="1.9762">
        <ele>324</ele>
        <time>2024-04-07T10:19:17Z</time>
      </trkpt>
      <trkpt lat="44.06407" lon="1.97616">
        <ele>324</ele>
        <time>2024-04-07T10:19:18Z</time>
      </trkpt>
      <trkpt lat="44.06404" lon="1.97614">
        <ele>324</ele>
        <time>2024-04-07T10:19:19Z</time>
      </trkpt>
      <trkpt lat="44.064" lon="1.97613">
        <ele>324.2</ele>
        <time>2024-04-07T10:19:20Z</time>
      </trkpt>
      <trkpt lat="44.06395" lon="1.97612">
        <ele>324.2</ele>
        <time>2024-04-07T10:19:21Z</time>
      </trkpt>
      <trkpt lat="44.06391" lon="1.9761">
        <ele>324.2</ele>
        <time>2024-04-07T10:19:22Z</time>
      </trkpt>
      <trkpt lat="44.06386" lon="1.97608">
        <ele>324.4</ele>
        <time>2024-04-07T10:19:23Z</time>
      </trkpt>
      <trkpt lat="44.06381" lon="1.97606">
        <ele>324.6</ele>
        <time>2024-04-07T10:19:24Z</time>
      </trkpt>
      <trkpt lat="44.06375" lon="1.97604">
        <ele>324.8</ele>
        <time>2024-04-07T10:19:25Z</time>
      </trkpt>
      <trkpt lat="44.06371" lon="1.97601">
        <ele>325</ele>
        <time>2024-04-07T10:19:26Z</time>
      </trkpt>
      <trkpt lat="44.06366" lon="1.97599">
        <ele>325</ele>
        <time>2024-04-07T10:19:27Z</time>
      </trkpt>
      <trkpt lat="44.06361" lon="1.97599">
        <ele>325.2</ele>
        <time>2024-04-07T10:19:28Z</time>
      </trkpt>
      <trkpt lat="44.06356" lon="1.97599">
        <ele>325.2</ele>
        <time>2024-04-07T10:19:29Z</time>
      </trkpt>
      <trkpt lat="44.0635" lon="1.976">
        <ele>325.4</ele>
        <time>2024-04-07T10:19:30Z</time>
      </trkpt>
      <trkpt lat="44.06345" lon="1.97601">
        <ele>325.4</ele>
        <time>2024-04-07T10:19:31Z</time>
      </trkpt>
      <trkpt lat="44.06334" lon="1.97605">
        <ele>325.6</ele>
        <time>2024-04-07T10:19:33Z</time>
      </trkpt>
      <trkpt lat="44.06329" lon="1.97606">
        <ele>325.4</ele>
        <time>2024-04-07T10:19:34Z</time>
      </trkpt>
      <trkpt lat="44.06319" lon="1.97609">
        <ele>325.2</ele>
        <time>2024-04-07T10:19:36Z</time>
      </trkpt>
      <trkpt lat="44.06314" lon="1.9761">
        <ele>325.2</ele>
        <time>2024-04-07T10:19:37Z</time>
      </trkpt>
      <trkpt lat="44.06309" lon="1.97611">
        <ele>325.2</ele>
        <time>2024-04-07T10:19:38Z</time>
      </trkpt>
      <trkpt lat="44.06298" lon="1.97613">
        <ele>325</ele>
        <time>2024-04-07T10:19:40Z</time>
      </trkpt>
      <trkpt lat="44.06294" lon="1.97613">
        <ele>324.6</ele>
        <time>2024-04-07T10:19:41Z</time>
      </trkpt>
      <trkpt lat="44.06286" lon="1.97608">
        <ele>324.4</ele>
        <time>2024-04-07T10:19:43Z</time>
      </trkpt>
      <trkpt lat="44.06283" lon="1.97604">
        <ele>324.2</ele>
        <time>2024-04-07T10:19:44Z</time>
      </trkpt>
      <trkpt lat="44.06282" lon="1.97598">
        <ele>324.2</ele>
        <time>2024-04-07T10:19:45Z</time>
      </trkpt>
      <trkpt lat="44.06284" lon="1.97592">
        <ele>324</ele>
        <time>2024-04-07T10:19:46Z</time>
      </trkpt>
      <trkpt lat="44.06285" lon="1.97585">
        <ele>324</ele>
        <time>2024-04-07T10:19:47Z</time>
      </trkpt>
      <trkpt lat="44.06286" lon="1.97577">
        <ele>323.8</ele>
        <time>2024-04-07T10:19:48Z</time>
      </trkpt>
      <trkpt lat="44.06286" lon="1.97569">
        <ele>323.8</ele>
        <time>2024-04-07T10:19:49Z</time>
      </trkpt>
      <trkpt lat="44.06286" lon="1.9756">
        <ele>323.6</ele>
        <time>2024-04-07T10:19:50Z</time>
      </trkpt>
      <trkpt lat="44.06285" lon="1.97551">
        <ele>323.6</ele>
        <time>2024-04-07T10:19:51Z</time>
      </trkpt>
      <trkpt lat="44.06285" lon="1.97543">
        <ele>323.6</ele>
        <time>2024-04-07T10:19:52Z</time>
      </trkpt>
      <trkpt lat="44.06284" lon="1.97533">
        <ele>323.6</ele>
        <time>2024-04-07T10:19:53Z</time>
      </trkpt>
      <trkpt lat="44.06284" lon="1.97524">
        <ele>323.6</ele>
        <time>2024-04-07T10:19:54Z</time>
      </trkpt>
      <trkpt lat="44.06283" lon="1.97516">
        <ele>323.6</ele>
        <time>2024-04-07T10:19:55Z</time>
      </trkpt>
      <trkpt lat="44.06283" lon="1.97507">
        <ele>323.6</ele>
        <time>2024-04-07T10:19:56Z</time>
      </trkpt>
      <trkpt lat="44.06283" lon="1.97498">
        <ele>323.6</ele>
        <time>2024-04-07T10:19:57Z</time>
      </trkpt>
      <trkpt lat="44.06283" lon="1.97489">
        <ele>323.6</ele>
        <time>2024-04-07T10:19:58Z</time>
      </trkpt>
      <trkpt lat="44.06283" lon="1.9748">
        <ele>323.6</ele>
        <time>2024-04-07T10:19:59Z</time>
      </trkpt>
      <trkpt lat="44.06283" lon="1.97472">
        <ele>323.6</ele>
        <time>2024-04-07T10:20:00Z</time>
      </trkpt>
      <trkpt lat="44.06283" lon="1.97463">
        <ele>323.8</ele>
        <time>2024-04-07T10:20:01Z</time>
      </trkpt>
      <trkpt lat="44.06283" lon="1.97455">
        <ele>323.8</ele>
        <time>2024-04-07T10:20:02Z</time>
      </trkpt>
      <trkpt lat="44.06283" lon="1.97447">
        <ele>323.8</ele>
        <time>2024-04-07T10:20:03Z</time>
      </trkpt>
      <trkpt lat="44.06283" lon="1.97438">
        <ele>324</ele>
        <time>2024-04-07T10:20:04Z</time>
      </trkpt>
      <trkpt lat="44.06283" lon="1.9743">
        <ele>324</ele>
        <time>2024-04-07T10:20:05Z</time>
      </trkpt>
      <trkpt lat="44.06283" lon="1.97421">
        <ele>324.2</ele>
        <time>2024-04-07T10:20:06Z</time>
      </trkpt>
      <trkpt lat="44.06283" lon="1.97412">
        <ele>324.2</ele>
        <time>2024-04-07T10:20:07Z</time>
      </trkpt>
      <trkpt lat="44.06282" lon="1.97403">
        <ele>324.4</ele>
        <time>2024-04-07T10:20:08Z</time>
      </trkpt>
      <trkpt lat="44.06282" lon="1.97394">
        <ele>324.4</ele>
        <time>2024-04-07T10:20:09Z</time>
      </trkpt>
      <trkpt lat="44.06281" lon="1.97386">
        <ele>324.6</ele>
        <time>2024-04-07T10:20:10Z</time>
      </trkpt>
      <trkpt lat="44.0628" lon="1.97376">
        <ele>324.6</ele>
        <time>2024-04-07T10:20:11Z</time>
      </trkpt>
      <trkpt lat="44.0628" lon="1.97367">
        <ele>324.6</ele>
        <time>2024-04-07T10:20:12Z</time>
      </trkpt>
      <trkpt lat="44.06279" lon="1.97359">
        <ele>324.6</ele>
        <time>2024-04-07T10:20:13Z</time>
      </trkpt>
      <trkpt lat="44.06278" lon="1.9735">
        <ele>324.6</ele>
        <time>2024-04-07T10:20:14Z</time>
      </trkpt>
      <trkpt lat="44.06277" lon="1.9734">
        <ele>324.6</ele>
        <time>2024-04-07T10:20:15Z</time>
      </trkpt>
      <trkpt lat="44.06276" lon="1.97331">
        <ele>324.6</ele>
        <time>2024-04-07T10:20:16Z</time>
      </trkpt>
      <trkpt lat="44.06275" lon="1.97321">
        <ele>324.6</ele>
        <time>2024-04-07T10:20:17Z</time>
      </trkpt>
      <trkpt lat="44.06274" lon="1.97312">
        <ele>324.6</ele>
        <time>2024-04-07T10:20:18Z</time>
      </trkpt>
      <trkpt lat="44.06273" lon="1.97302">
        <ele>324.6</ele>
        <time>2024-04-07T10:20:19Z</time>
      </trkpt>
      <trkpt lat="44.06272" lon="1.97292">
        <ele>324.4</ele>
        <time>2024-04-07T10:20:20Z</time>
      </trkpt>
      <trkpt lat="44.06271" lon="1.97282">
        <ele>324.4</ele>
        <time>2024-04-07T10:20:21Z</time>
      </trkpt>
      <trkpt lat="44.0627" lon="1.97272">
        <ele>324.4</ele>
        <time>2024-04-07T10:20:22Z</time>
      </trkpt>
      <trkpt lat="44.0627" lon="1.97262">
        <ele>324.4</ele>
        <time>2024-04-07T10:20:23Z</time>
      </trkpt>
      <trkpt lat="44.06269" lon="1.97252">
        <ele>324</ele>
        <time>2024-04-07T10:20:24Z</time>
      </trkpt>
      <trkpt lat="44.06269" lon="1.97242">
        <ele>324</ele>
        <time>2024-04-07T10:20:25Z</time>
      </trkpt>
      <trkpt lat="44.06268" lon="1.97232">
        <ele>323.8</ele>
        <time>2024-04-07T10:20:26Z</time>
      </trkpt>
      <trkpt lat="44.06267" lon="1.97222">
        <ele>323.4</ele>
        <time>2024-04-07T10:20:27Z</time>
      </trkpt>
      <trkpt lat="44.06266" lon="1.97211">
        <ele>323.4</ele>
        <time>2024-04-07T10:20:28Z</time>
      </trkpt>
      <trkpt lat="44.06266" lon="1.97201">
        <ele>323.2</ele>
        <time>2024-04-07T10:20:29Z</time>
      </trkpt>
      <trkpt lat="44.06265" lon="1.9719">
        <ele>323</ele>
        <time>2024-04-07T10:20:30Z</time>
      </trkpt>
      <trkpt lat="44.06263" lon="1.97169">
        <ele>323</ele>
        <time>2024-04-07T10:20:32Z</time>
      </trkpt>
      <trkpt lat="44.06263" lon="1.97159">
        <ele>322.4</ele>
        <time>2024-04-07T10:20:33Z</time>
      </trkpt>
      <trkpt lat="44.06262" lon="1.97148">
        <ele>322.2</ele>
        <time>2024-04-07T10:20:34Z</time>
      </trkpt>
      <trkpt lat="44.06261" lon="1.97137">
        <ele>321.8</ele>
        <time>2024-04-07T10:20:35Z</time>
      </trkpt>
      <trkpt lat="44.0626" lon="1.97127">
        <ele>321.4</ele>
        <time>2024-04-07T10:20:36Z</time>
      </trkpt>
      <trkpt lat="44.0626" lon="1.97116">
        <ele>321.2</ele>
        <time>2024-04-07T10:20:37Z</time>
      </trkpt>
      <trkpt lat="44.06259" lon="1.97106">
        <ele>321</ele>
        <time>2024-04-07T10:20:38Z</time>
      </trkpt>
      <trkpt lat="44.06259" lon="1.97096">
        <ele>321</ele>
        <time>2024-04-07T10:20:39Z</time>
      </trkpt>
      <trkpt lat="44.06257" lon="1.97076">
        <ele>321</ele>
        <time>2024-04-07T10:20:41Z</time>
      </trkpt>
      <trkpt lat="44.06256" lon="1.97066">
        <ele>320.8</ele>
        <time>2024-04-07T10:20:42Z</time>
      </trkpt>
      <trkpt lat="44.06253" lon="1.97046">
        <ele>320.6</ele>
        <time>2024-04-07T10:20:44Z</time>
      </trkpt>
      <trkpt lat="44.06252" lon="1.97036">
        <ele>320.6</ele>
        <time>2024-04-07T10:20:45Z</time>
      </trkpt>
      <trkpt lat="44.0625" lon="1.97016">
        <ele>320.4</ele>
        <time>2024-04-07T10:20:47Z</time>
      </trkpt>
      <trkpt lat="44.06249" lon="1.97007">
        <ele>320.4</ele>
        <time>2024-04-07T10:20:48Z</time>
      </trkpt>
      <trkpt lat="44.06247" lon="1.96988">
        <ele>320.6</ele>
        <time>2024-04-07T10:20:50Z</time>
      </trkpt>
      <trkpt lat="44.06247" lon="1.96979">
        <ele>320.6</ele>
        <time>2024-04-07T10:20:51Z</time>
      </trkpt>
      <trkpt lat="44.06247" lon="1.9697">
        <ele>320.8</ele>
        <time>2024-04-07T10:20:52Z</time>
      </trkpt>
      <trkpt lat="44.06246" lon="1.96961">
        <ele>320.8</ele>
        <time>2024-04-07T10:20:53Z</time>
      </trkpt>
      <trkpt lat="44.06245" lon="1.96952">
        <ele>321</ele>
        <time>2024-04-07T10:20:54Z</time>
      </trkpt>
      <trkpt lat="44.06245" lon="1.96943">
        <ele>321.2</ele>
        <time>2024-04-07T10:20:55Z</time>
      </trkpt>
      <trkpt lat="44.06245" lon="1.96934">
        <ele>321.4</ele>
        <time>2024-04-07T10:20:56Z</time>
      </trkpt>
      <trkpt lat="44.06246" lon="1.96925">
        <ele>321.4</ele>
        <time>2024-04-07T10:20:57Z</time>
      </trkpt>
      <trkpt lat="44.06246" lon="1.96907">
        <ele>321.4</ele>
        <time>2024-04-07T10:20:59Z</time>
      </trkpt>
      <trkpt lat="44.06245" lon="1.96898">
        <ele>321.4</ele>
        <time>2024-04-07T10:21:00Z</time>
      </trkpt>
      <trkpt lat="44.06243" lon="1.96881">
        <ele>321.4</ele>
        <time>2024-04-07T10:21:02Z</time>
      </trkpt>
      <trkpt lat="44.06243" lon="1.96872">
        <ele>321.4</ele>
        <time>2024-04-07T10:21:03Z</time>
      </trkpt>
      <trkpt lat="44.06242" lon="1.96864">
        <ele>321.4</ele>
        <time>2024-04-07T10:21:04Z</time>
      </trkpt>
      <trkpt lat="44.06242" lon="1.96855">
        <ele>321.4</ele>
        <time>2024-04-07T10:21:05Z</time>
      </trkpt>
      <trkpt lat="44.06241" lon="1.96846">
        <ele>321.6</ele>
        <time>2024-04-07T10:21:06Z</time>
      </trkpt>
      <trkpt lat="44.0624" lon="1.96837">
        <ele>321.8</ele>
        <time>2024-04-07T10:21:07Z</time>
      </trkpt>
      <trkpt lat="44.0624" lon="1.96828">
        <ele>321.8</ele>
        <time>2024-04-07T10:21:08Z</time>
      </trkpt>
      <trkpt lat="44.06239" lon="1.96819">
        <ele>321.8</ele>
        <time>2024-04-07T10:21:09Z</time>
      </trkpt>
      <trkpt lat="44.06239" lon="1.9681">
        <ele>321.8</ele>
        <time>2024-04-07T10:21:10Z</time>
      </trkpt>
      <trkpt lat="44.06239" lon="1.96802">
        <ele>321.8</ele>
        <time>2024-04-07T10:21:11Z</time>
      </trkpt>
      <trkpt lat="44.06238" lon="1.96793">
        <ele>322</ele>
        <time>2024-04-07T10:21:12Z</time>
      </trkpt>
      <trkpt lat="44.06238" lon="1.96784">
        <ele>322</ele>
        <time>2024-04-07T10:21:13Z</time>
      </trkpt>
      <trkpt lat="44.06238" lon="1.96774">
        <ele>322</ele>
        <time>2024-04-07T10:21:14Z</time>
      </trkpt>
      <trkpt lat="44.06239" lon="1.96765">
        <ele>322</ele>
        <time>2024-04-07T10:21:15Z</time>
      </trkpt>
      <trkpt lat="44.06239" lon="1.96755">
        <ele>322</ele>
        <time>2024-04-07T10:21:16Z</time>
      </trkpt>
      <trkpt lat="44.06239" lon="1.96746">
        <ele>322</ele>
        <time>2024-04-07T10:21:17Z</time>
      </trkpt>
      <trkpt lat="44.0624" lon="1.96737">
        <ele>321.8</ele>
        <time>2024-04-07T10:21:18Z</time>
      </trkpt>
      <trkpt lat="44.06241" lon="1.96719">
        <ele>321.6</ele>
        <time>2024-04-07T10:21:20Z</time>
      </trkpt>
      <trkpt lat="44.06241" lon="1.9671">
        <ele>321.4</ele>
        <time>2024-04-07T10:21:21Z</time>
      </trkpt>
      <trkpt lat="44.0624" lon="1.96692">
        <ele>321.2</ele>
        <time>2024-04-07T10:21:23Z</time>
      </trkpt>
      <trkpt lat="44.0624" lon="1.96685">
        <ele>320.8</ele>
        <time>2024-04-07T10:21:24Z</time>
      </trkpt>
      <trkpt lat="44.0624" lon="1.96678">
        <ele>320.8</ele>
        <time>2024-04-07T10:21:25Z</time>
      </trkpt>
      <trkpt lat="44.06241" lon="1.96672">
        <ele>320.4</ele>
        <time>2024-04-07T10:21:26Z</time>
      </trkpt>
      <trkpt lat="44.06242" lon="1.96666">
        <ele>320.4</ele>
        <time>2024-04-07T10:21:27Z</time>
      </trkpt>
      <trkpt lat="44.06243" lon="1.96661">
        <ele>320.2</ele>
        <time>2024-04-07T10:21:28Z</time>
      </trkpt>
      <trkpt lat="44.06244" lon="1.96657">
        <ele>320.2</ele>
        <time>2024-04-07T10:21:29Z</time>
      </trkpt>
      <trkpt lat="44.06245" lon="1.96654">
        <ele>319.6</ele>
        <time>2024-04-07T10:21:30Z</time>
      </trkpt>
      <trkpt lat="44.06246" lon="1.96652">
        <ele>319.4</ele>
        <time>2024-04-07T10:21:31Z</time>
      </trkpt>
      <trkpt lat="44.06246" lon="1.96651">
        <ele>319.2</ele>
        <time>2024-04-07T10:21:32Z</time>
      </trkpt>
      <trkpt lat="44.06246" lon="1.96651">
        <ele>319</ele>
        <time>2024-04-07T10:21:33Z</time>
      </trkpt>
      <trkpt lat="44.06246" lon="1.9665">
        <ele>319</ele>
        <time>2024-04-07T10:21:34Z</time>
      </trkpt>
      <trkpt lat="44.06246" lon="1.9665">
        <ele>319</ele>
        <time>2024-04-07T10:21:35Z</time>
      </trkpt>
      <trkpt lat="44.06246" lon="1.96649">
        <ele>319</ele>
        <time>2024-04-07T10:21:36Z</time>
      </trkpt>
      <trkpt lat="44.06246" lon="1.96648">
        <ele>318.8</ele>
        <time>2024-04-07T10:21:37Z</time>
      </trkpt>
      <trkpt lat="44.06246" lon="1.96648">
        <ele>318.8</ele>
        <time>2024-04-07T10:21:38Z</time>
      </trkpt>
      <trkpt lat="44.06246" lon="1.96648">
        <ele>318.8</ele>
        <time>2024-04-07T10:21:39Z</time>
      </trkpt>
      <trkpt lat="44.06249" lon="1.96644">
        <ele>317.8</ele>
        <time>2024-04-07T10:24:09Z</time>
      </trkpt>
      <trkpt lat="44.06251" lon="1.96641">
        <ele>317.8</ele>
        <time>2024-04-07T10:24:10Z</time>
      </trkpt>
      <trkpt lat="44.06252" lon="1.96637">
        <ele>317.8</ele>
        <time>2024-04-07T10:24:11Z</time>
      </trkpt>
      <trkpt lat="44.06253" lon="1.96632">
        <ele>317.8</ele>
        <time>2024-04-07T10:24:12Z</time>
      </trkpt>
      <trkpt lat="44.06253" lon="1.96625">
        <ele>317.6</ele>
        <time>2024-04-07T10:24:13Z</time>
      </trkpt>
      <trkpt lat="44.06254" lon="1.96618">
        <ele>317.4</ele>
        <time>2024-04-07T10:24:14Z</time>
      </trkpt>
      <trkpt lat="44.06255" lon="1.9661">
        <ele>317</ele>
        <time>2024-04-07T10:24:15Z</time>
      </trkpt>
      <trkpt lat="44.06255" lon="1.96603">
        <ele>317</ele>
        <time>2024-04-07T10:24:16Z</time>
      </trkpt>
      <trkpt lat="44.06255" lon="1.96594">
        <ele>316.6</ele>
        <time>2024-04-07T10:24:17Z</time>
      </trkpt>
      <trkpt lat="44.06256" lon="1.96585">
        <ele>316.6</ele>
        <time>2024-04-07T10:24:18Z</time>
      </trkpt>
      <trkpt lat="44.06256" lon="1.96574">
        <ele>316.2</ele>
        <time>2024-04-07T10:24:19Z</time>
      </trkpt>
      <trkpt lat="44.06256" lon="1.96563">
        <ele>315.6</ele>
        <time>2024-04-07T10:24:20Z</time>
      </trkpt>
      <trkpt lat="44.06257" lon="1.96553">
        <ele>315.2</ele>
        <time>2024-04-07T10:24:21Z</time>
      </trkpt>
      <trkpt lat="44.06258" lon="1.96542">
        <ele>314.6</ele>
        <time>2024-04-07T10:24:22Z</time>
      </trkpt>
      <trkpt lat="44.06259" lon="1.96533">
        <ele>314.2</ele>
        <time>2024-04-07T10:24:23Z</time>
      </trkpt>
      <trkpt lat="44.0626" lon="1.96524">
        <ele>313.4</ele>
        <time>2024-04-07T10:24:24Z</time>
      </trkpt>
      <trkpt lat="44.0626" lon="1.96516">
        <ele>313</ele>
        <time>2024-04-07T10:24:25Z</time>
      </trkpt>
      <trkpt lat="44.06258" lon="1.9651">
        <ele>312.4</ele>
        <time>2024-04-07T10:24:26Z</time>
      </trkpt>
      <trkpt lat="44.06258" lon="1.96503">
        <ele>311.6</ele>
        <time>2024-04-07T10:24:27Z</time>
      </trkpt>
      <trkpt lat="44.06258" lon="1.96495">
        <ele>311.2</ele>
        <time>2024-04-07T10:24:28Z</time>
      </trkpt>
      <trkpt lat="44.06259" lon="1.96487">
        <ele>310.4</ele>
        <time>2024-04-07T10:24:29Z</time>
      </trkpt>
      <trkpt lat="44.0626" lon="1.96479">
        <ele>310.2</ele>
        <time>2024-04-07T10:24:30Z</time>
      </trkpt>
      <trkpt lat="44.06261" lon="1.96472">
        <ele>309.6</ele>
        <time>2024-04-07T10:24:31Z</time>
      </trkpt>
      <trkpt lat="44.06262" lon="1.96465">
        <ele>309.4</ele>
        <time>2024-04-07T10:24:32Z</time>
      </trkpt>
      <trkpt lat="44.06263" lon="1.9646">
        <ele>308.4</ele>
        <time>2024-04-07T10:24:33Z</time>
      </trkpt>
      <trkpt lat="44.06263" lon="1.96455">
        <ele>308</ele>
        <time>2024-04-07T10:24:34Z</time>
      </trkpt>
      <trkpt lat="44.06263" lon="1.96449">
        <ele>307.6</ele>
        <time>2024-04-07T10:24:35Z</time>
      </trkpt>
      <trkpt lat="44.06263" lon="1.96442">
        <ele>307.4</ele>
        <time>2024-04-07T10:24:36Z</time>
      </trkpt>
      <trkpt lat="44.06263" lon="1.96435">
        <ele>307.2</ele>
        <time>2024-04-07T10:24:37Z</time>
      </trkpt>
      <trkpt lat="44.06262" lon="1.96429">
        <ele>307</ele>
        <time>2024-04-07T10:24:38Z</time>
      </trkpt>
      <trkpt lat="44.06261" lon="1.96423">
        <ele>306.8</ele>
        <time>2024-04-07T10:24:39Z</time>
      </trkpt>
      <trkpt lat="44.06259" lon="1.96419">
        <ele>306.2</ele>
        <time>2024-04-07T10:24:40Z</time>
      </trkpt>
      <trkpt lat="44.06255" lon="1.96415">
        <ele>306</ele>
        <time>2024-04-07T10:24:41Z</time>
      </trkpt>
      <trkpt lat="44.0625" lon="1.96413">
        <ele>303.8</ele>
        <time>2024-04-07T10:24:42Z</time>
      </trkpt>
      <trkpt lat="44.06245" lon="1.9641">
        <ele>301.8</ele>
        <time>2024-04-07T10:24:43Z</time>
      </trkpt>
      <trkpt lat="44.06242" lon="1.96405">
        <ele>301.2</ele>
        <time>2024-04-07T10:24:44Z</time>
      </trkpt>
      <trkpt lat="44.06242" lon="1.96405">
        <ele>300.2</ele>
        <time>2024-04-07T10:24:45Z</time>
      </trkpt>
      <trkpt lat="44.06238" lon="1.96388">
        <ele>299.6</ele>
        <time>2024-04-07T10:24:46Z</time>
      </trkpt>
      <trkpt lat="44.06238" lon="1.9638">
        <ele>297.6</ele>
        <time>2024-04-07T10:24:47Z</time>
      </trkpt>
      <trkpt lat="44.06236" lon="1.96367">
        <ele>297</ele>
        <time>2024-04-07T10:24:48Z</time>
      </trkpt>
      <trkpt lat="44.06234" lon="1.96355">
        <ele>296</ele>
        <time>2024-04-07T10:24:49Z</time>
      </trkpt>
      <trkpt lat="44.06233" lon="1.96343">
        <ele>295.6</ele>
        <time>2024-04-07T10:24:50Z</time>
      </trkpt>
      <trkpt lat="44.06231" lon="1.96331">
        <ele>294.6</ele>
        <time>2024-04-07T10:24:51Z</time>
      </trkpt>
      <trkpt lat="44.06231" lon="1.9632">
        <ele>292.6</ele>
        <time>2024-04-07T10:24:52Z</time>
      </trkpt>
      <trkpt lat="44.0623" lon="1.96311">
        <ele>291</ele>
        <time>2024-04-07T10:24:53Z</time>
      </trkpt>
      <trkpt lat="44.06228" lon="1.963">
        <ele>288.8</ele>
        <time>2024-04-07T10:24:54Z</time>
      </trkpt>
      <trkpt lat="44.06226" lon="1.96289">
        <ele>287.8</ele>
        <time>2024-04-07T10:24:55Z</time>
      </trkpt>
      <trkpt lat="44.06226" lon="1.96277">
        <ele>286.6</ele>
        <time>2024-04-07T10:24:56Z</time>
      </trkpt>
      <trkpt lat="44.06225" lon="1.96265">
        <ele>286</ele>
        <time>2024-04-07T10:24:57Z</time>
      </trkpt>
      <trkpt lat="44.06224" lon="1.96253">
        <ele>284.2</ele>
        <time>2024-04-07T10:24:58Z</time>
      </trkpt>
      <trkpt lat="44.06223" lon="1.96243">
        <ele>283</ele>
        <time>2024-04-07T10:24:59Z</time>
      </trkpt>
      <trkpt lat="44.0622" lon="1.96234">
        <ele>282.6</ele>
        <time>2024-04-07T10:25:00Z</time>
      </trkpt>
      <trkpt lat="44.06218" lon="1.96227">
        <ele>281.8</ele>
        <time>2024-04-07T10:25:01Z</time>
      </trkpt>
      <trkpt lat="44.06215" lon="1.96224">
        <ele>281.6</ele>
        <time>2024-04-07T10:25:02Z</time>
      </trkpt>
      <trkpt lat="44.06211" lon="1.96225">
        <ele>281</ele>
        <time>2024-04-07T10:25:03Z</time>
      </trkpt>
      <trkpt lat="44.06206" lon="1.96226">
        <ele>279.6</ele>
        <time>2024-04-07T10:25:04Z</time>
      </trkpt>
      <trkpt lat="44.062" lon="1.96226">
        <ele>277.8</ele>
        <time>2024-04-07T10:25:05Z</time>
      </trkpt>
      <trkpt lat="44.06191" lon="1.96224">
        <ele>277.2</ele>
        <time>2024-04-07T10:25:06Z</time>
      </trkpt>
      <trkpt lat="44.06186" lon="1.9622">
        <ele>276</ele>
        <time>2024-04-07T10:25:07Z</time>
      </trkpt>
      <trkpt lat="44.06179" lon="1.96214">
        <ele>274.6</ele>
        <time>2024-04-07T10:25:08Z</time>
      </trkpt>
      <trkpt lat="44.06174" lon="1.96209">
        <ele>274</ele>
        <time>2024-04-07T10:25:09Z</time>
      </trkpt>
      <trkpt lat="44.0617" lon="1.96203">
        <ele>271.8</ele>
        <time>2024-04-07T10:25:10Z</time>
      </trkpt>
      <trkpt lat="44.06168" lon="1.96197">
        <ele>270.8</ele>
        <time>2024-04-07T10:25:11Z</time>
      </trkpt>
      <trkpt lat="44.06167" lon="1.9619">
        <ele>268.6</ele>
        <time>2024-04-07T10:25:12Z</time>
      </trkpt>
      <trkpt lat="44.06167" lon="1.9618">
        <ele>267.6</ele>
        <time>2024-04-07T10:25:13Z</time>
      </trkpt>
      <trkpt lat="44.06167" lon="1.96167">
        <ele>265.4</ele>
        <time>2024-04-07T10:25:14Z</time>
      </trkpt>
      <trkpt lat="44.06168" lon="1.96157">
        <ele>263</ele>
        <time>2024-04-07T10:25:15Z</time>
      </trkpt>
      <trkpt lat="44.0617" lon="1.96147">
        <ele>262.4</ele>
        <time>2024-04-07T10:25:16Z</time>
      </trkpt>
      <trkpt lat="44.06173" lon="1.96136">
        <ele>261</ele>
        <time>2024-04-07T10:25:17Z</time>
      </trkpt>
      <trkpt lat="44.06176" lon="1.96126">
        <ele>260</ele>
        <time>2024-04-07T10:25:18Z</time>
      </trkpt>
      <trkpt lat="44.06179" lon="1.96114">
        <ele>258.4</ele>
        <time>2024-04-07T10:25:19Z</time>
      </trkpt>
      <trkpt lat="44.06182" lon="1.96102">
        <ele>257.8</ele>
        <time>2024-04-07T10:25:20Z</time>
      </trkpt>
      <trkpt lat="44.06185" lon="1.96089">
        <ele>256.6</ele>
        <time>2024-04-07T10:25:21Z</time>
      </trkpt>
      <trkpt lat="44.06188" lon="1.96075">
        <ele>255.8</ele>
        <time>2024-04-07T10:25:22Z</time>
      </trkpt>
      <trkpt lat="44.06191" lon="1.96061">
        <ele>253.2</ele>
        <time>2024-04-07T10:25:23Z</time>
      </trkpt>
      <trkpt lat="44.06194" lon="1.96047">
        <ele>251.8</ele>
        <time>2024-04-07T10:25:24Z</time>
      </trkpt>
      <trkpt lat="44.06197" lon="1.96033">
        <ele>251.2</ele>
        <time>2024-04-07T10:25:25Z</time>
      </trkpt>
      <trkpt lat="44.06201" lon="1.9602">
        <ele>249.8</ele>
        <time>2024-04-07T10:25:26Z</time>
      </trkpt>
      <trkpt lat="44.06206" lon="1.96007">
        <ele>248.8</ele>
        <time>2024-04-07T10:25:27Z</time>
      </trkpt>
      <trkpt lat="44.0621" lon="1.95994">
        <ele>247.8</ele>
        <time>2024-04-07T10:25:28Z</time>
      </trkpt>
      <trkpt lat="44.06214" lon="1.95982">
        <ele>247.4</ele>
        <time>2024-04-07T10:25:29Z</time>
      </trkpt>
      <trkpt lat="44.06218" lon="1.9597">
        <ele>247</ele>
        <time>2024-04-07T10:25:30Z</time>
      </trkpt>
      <trkpt lat="44.06222" lon="1.95959">
        <ele>245.6</ele>
        <time>2024-04-07T10:25:31Z</time>
      </trkpt>
      <trkpt lat="44.06226" lon="1.9595">
        <ele>245.2</ele>
        <time>2024-04-07T10:25:32Z</time>
      </trkpt>
      <trkpt lat="44.06228" lon="1.95941">
        <ele>243.8</ele>
        <time>2024-04-07T10:25:33Z</time>
      </trkpt>
      <trkpt lat="44.06231" lon="1.95931">
        <ele>243.2</ele>
        <time>2024-04-07T10:25:34Z</time>
      </trkpt>
      <trkpt lat="44.06234" lon="1.95922">
        <ele>242</ele>
        <time>2024-04-07T10:25:35Z</time>
      </trkpt>
      <trkpt lat="44.06236" lon="1.95912">
        <ele>241.4</ele>
        <time>2024-04-07T10:25:36Z</time>
      </trkpt>
      <trkpt lat="44.06239" lon="1.95902">
        <ele>240.2</ele>
        <time>2024-04-07T10:25:37Z</time>
      </trkpt>
      <trkpt lat="44.06241" lon="1.95893">
        <ele>239.6</ele>
        <time>2024-04-07T10:25:38Z</time>
      </trkpt>
      <trkpt lat="44.06242" lon="1.95885">
        <ele>238.4</ele>
        <time>2024-04-07T10:25:39Z</time>
      </trkpt>
      <trkpt lat="44.06244" lon="1.95877">
        <ele>237.6</ele>
        <time>2024-04-07T10:25:40Z</time>
      </trkpt>
      <trkpt lat="44.06245" lon="1.95869">
        <ele>237.4</ele>
        <time>2024-04-07T10:25:41Z</time>
      </trkpt>
      <trkpt lat="44.06246" lon="1.95861">
        <ele>237</ele>
        <time>2024-04-07T10:25:42Z</time>
      </trkpt>
      <trkpt lat="44.06248" lon="1.95855">
        <ele>236.8</ele>
        <time>2024-04-07T10:25:43Z</time>
      </trkpt>
      <trkpt lat="44.06249" lon="1.95849">
        <ele>236.6</ele>
        <time>2024-04-07T10:25:44Z</time>
      </trkpt>
      <trkpt lat="44.06251" lon="1.95844">
        <ele>236.2</ele>
        <time>2024-04-07T10:25:45Z</time>
      </trkpt>
      <trkpt lat="44.06252" lon="1.9584">
        <ele>235.6</ele>
        <time>2024-04-07T10:25:46Z</time>
      </trkpt>
      <trkpt lat="44.06252" lon="1.95836">
        <ele>235</ele>
        <time>2024-04-07T10:25:47Z</time>
      </trkpt>
      <trkpt lat="44.06253" lon="1.95834">
        <ele>234.6</ele>
        <time>2024-04-07T10:25:48Z</time>
      </trkpt>
      <trkpt lat="44.06253" lon="1.95832">
        <ele>234.2</ele>
        <time>2024-04-07T10:25:49Z</time>
      </trkpt>
      <trkpt lat="44.06254" lon="1.95829">
        <ele>234</ele>
        <time>2024-04-07T10:25:50Z</time>
      </trkpt>
      <trkpt lat="44.06256" lon="1.95826">
        <ele>233.8</ele>
        <time>2024-04-07T10:25:51Z</time>
      </trkpt>
      <trkpt lat="44.06256" lon="1.95822">
        <ele>233.6</ele>
        <time>2024-04-07T10:25:52Z</time>
      </trkpt>
      <trkpt lat="44.06257" lon="1.95818">
        <ele>233.4</ele>
        <time>2024-04-07T10:25:53Z</time>
      </trkpt>
      <trkpt lat="44.06257" lon="1.95813">
        <ele>233.4</ele>
        <time>2024-04-07T10:25:54Z</time>
      </trkpt>
      <trkpt lat="44.06258" lon="1.95808">
        <ele>233.2</ele>
        <time>2024-04-07T10:25:55Z</time>
      </trkpt>
      <trkpt lat="44.06258" lon="1.95803">
        <ele>232.8</ele>
        <time>2024-04-07T10:25:56Z</time>
      </trkpt>
      <trkpt lat="44.06259" lon="1.95799">
        <ele>232.8</ele>
        <time>2024-04-07T10:25:57Z</time>
      </trkpt>
      <trkpt lat="44.06261" lon="1.95794">
        <ele>232.6</ele>
        <time>2024-04-07T10:25:58Z</time>
      </trkpt>
      <trkpt lat="44.06264" lon="1.95789">
        <ele>232.6</ele>
        <time>2024-04-07T10:25:59Z</time>
      </trkpt>
      <trkpt lat="44.06265" lon="1.95783">
        <ele>232.4</ele>
        <time>2024-04-07T10:26:00Z</time>
      </trkpt>
      <trkpt lat="44.06266" lon="1.95777">
        <ele>232.4</ele>
        <time>2024-04-07T10:26:01Z</time>
      </trkpt>
      <trkpt lat="44.06265" lon="1.95771">
        <ele>232.4</ele>
        <time>2024-04-07T10:26:02Z</time>
      </trkpt>
      <trkpt lat="44.06263" lon="1.95765">
        <ele>232.4</ele>
        <time>2024-04-07T10:26:03Z</time>
      </trkpt>
      <trkpt lat="44.06261" lon="1.9576">
        <ele>232.4</ele>
        <time>2024-04-07T10:26:04Z</time>
      </trkpt>
      <trkpt lat="44.06259" lon="1.95755">
        <ele>232.4</ele>
        <time>2024-04-07T10:26:05Z</time>
      </trkpt>
      <trkpt lat="44.06258" lon="1.9575">
        <ele>232.4</ele>
        <time>2024-04-07T10:26:06Z</time>
      </trkpt>
      <trkpt lat="44.06256" lon="1.95745">
        <ele>232.6</ele>
        <time>2024-04-07T10:26:07Z</time>
      </trkpt>
      <trkpt lat="44.06254" lon="1.95741">
        <ele>232.6</ele>
        <time>2024-04-07T10:26:08Z</time>
      </trkpt>
      <trkpt lat="44.06252" lon="1.95737">
        <ele>232.8</ele>
        <time>2024-04-07T10:26:09Z</time>
      </trkpt>
      <trkpt lat="44.0625" lon="1.95733">
        <ele>233.2</ele>
        <time>2024-04-07T10:26:10Z</time>
      </trkpt>
      <trkpt lat="44.06247" lon="1.95729">
        <ele>233.2</ele>
        <time>2024-04-07T10:26:11Z</time>
      </trkpt>
      <trkpt lat="44.06246" lon="1.95724">
        <ele>233.6</ele>
        <time>2024-04-07T10:26:12Z</time>
      </trkpt>
      <trkpt lat="44.06245" lon="1.9572">
        <ele>233.8</ele>
        <time>2024-04-07T10:26:13Z</time>
      </trkpt>
      <trkpt lat="44.06243" lon="1.95716">
        <ele>234.4</ele>
        <time>2024-04-07T10:26:14Z</time>
      </trkpt>
      <trkpt lat="44.06243" lon="1.95712">
        <ele>234.6</ele>
        <time>2024-04-07T10:26:15Z</time>
      </trkpt>
      <trkpt lat="44.06242" lon="1.95707">
        <ele>234.8</ele>
        <time>2024-04-07T10:26:16Z</time>
      </trkpt>
      <trkpt lat="44.06241" lon="1.95702">
        <ele>235</ele>
        <time>2024-04-07T10:26:17Z</time>
      </trkpt>
      <trkpt lat="44.0624" lon="1.95697">
        <ele>235.4</ele>
        <time>2024-04-07T10:26:18Z</time>
      </trkpt>
      <trkpt lat="44.06239" lon="1.95692">
        <ele>235.8</ele>
        <time>2024-04-07T10:26:19Z</time>
      </trkpt>
      <trkpt lat="44.06238" lon="1.95687">
        <ele>236</ele>
        <time>2024-04-07T10:26:20Z</time>
      </trkpt>
      <trkpt lat="44.06238" lon="1.95681">
        <ele>236.2</ele>
        <time>2024-04-07T10:26:21Z</time>
      </trkpt>
      <trkpt lat="44.06238" lon="1.95676">
        <ele>236.4</ele>
        <time>2024-04-07T10:26:22Z</time>
      </trkpt>
      <trkpt lat="44.06238" lon="1.95671">
        <ele>236.8</ele>
        <time>2024-04-07T10:26:23Z</time>
      </trkpt>
      <trkpt lat="44.06238" lon="1.95666">
        <ele>237</ele>
        <time>2024-04-07T10:26:24Z</time>
      </trkpt>
      <trkpt lat="44.06238" lon="1.95661">
        <ele>237.4</ele>
        <time>2024-04-07T10:26:25Z</time>
      </trkpt>
      <trkpt lat="44.06238" lon="1.95657">
        <ele>238</ele>
        <time>2024-04-07T10:26:26Z</time>
      </trkpt>
      <trkpt lat="44.06239" lon="1.95652">
        <ele>238.2</ele>
        <time>2024-04-07T10:26:27Z</time>
      </trkpt>
      <trkpt lat="44.0624" lon="1.95647">
        <ele>238.6</ele>
        <time>2024-04-07T10:26:28Z</time>
      </trkpt>
      <trkpt lat="44.06242" lon="1.95642">
        <ele>238.8</ele>
        <time>2024-04-07T10:26:29Z</time>
      </trkpt>
      <trkpt lat="44.06243" lon="1.95638">
        <ele>239.4</ele>
        <time>2024-04-07T10:26:30Z</time>
      </trkpt>
      <trkpt lat="44.06243" lon="1.95633">
        <ele>239.4</ele>
        <time>2024-04-07T10:26:31Z</time>
      </trkpt>
      <trkpt lat="44.06244" lon="1.95629">
        <ele>239.8</ele>
        <time>2024-04-07T10:26:32Z</time>
      </trkpt>
      <trkpt lat="44.06243" lon="1.95625">
        <ele>240.2</ele>
        <time>2024-04-07T10:26:33Z</time>
      </trkpt>
      <trkpt lat="44.06244" lon="1.95621">
        <ele>240.4</ele>
        <time>2024-04-07T10:26:34Z</time>
      </trkpt>
      <trkpt lat="44.06243" lon="1.95616">
        <ele>240.8</ele>
        <time>2024-04-07T10:26:35Z</time>
      </trkpt>
      <trkpt lat="44.06243" lon="1.95612">
        <ele>241.2</ele>
        <time>2024-04-07T10:26:36Z</time>
      </trkpt>
      <trkpt lat="44.06242" lon="1.95609">
        <ele>241.6</ele>
        <time>2024-04-07T10:26:37Z</time>
      </trkpt>
      <trkpt lat="44.06242" lon="1.95607">
        <ele>242</ele>
        <time>2024-04-07T10:26:38Z</time>
      </trkpt>
      <trkpt lat="44.06242" lon="1.95603">
        <ele>242.4</ele>
        <time>2024-04-07T10:26:39Z</time>
      </trkpt>
      <trkpt lat="44.06243" lon="1.956">
        <ele>242.8</ele>
        <time>2024-04-07T10:26:40Z</time>
      </trkpt>
      <trkpt lat="44.06243" lon="1.95596">
        <ele>243.2</ele>
        <time>2024-04-07T10:26:41Z</time>
      </trkpt>
      <trkpt lat="44.06242" lon="1.95592">
        <ele>243.6</ele>
        <time>2024-04-07T10:26:42Z</time>
      </trkpt>
      <trkpt lat="44.0624" lon="1.95588">
        <ele>243.8</ele>
        <time>2024-04-07T10:26:43Z</time>
      </trkpt>
      <trkpt lat="44.06239" lon="1.95585">
        <ele>244.2</ele>
        <time>2024-04-07T10:26:44Z</time>
      </trkpt>
      <trkpt lat="44.06238" lon="1.95581">
        <ele>244.2</ele>
        <time>2024-04-07T10:26:45Z</time>
      </trkpt>
      <trkpt lat="44.06237" lon="1.95576">
        <ele>244.6</ele>
        <time>2024-04-07T10:26:46Z</time>
      </trkpt>
      <trkpt lat="44.06236" lon="1.9557">
        <ele>245</ele>
        <time>2024-04-07T10:26:47Z</time>
      </trkpt>
      <trkpt lat="44.06236" lon="1.95565">
        <ele>245.4</ele>
        <time>2024-04-07T10:26:48Z</time>
      </trkpt>
      <trkpt lat="44.06236" lon="1.95558">
        <ele>245.6</ele>
        <time>2024-04-07T10:26:49Z</time>
      </trkpt>
      <trkpt lat="44.06236" lon="1.95558">
        <ele>246</ele>
        <time>2024-04-07T10:26:50Z</time>
      </trkpt>
      <trkpt lat="44.06234" lon="1.95549">
        <ele>246.4</ele>
        <time>2024-04-07T10:26:51Z</time>
      </trkpt>
      <trkpt lat="44.06233" lon="1.95545">
        <ele>246.6</ele>
        <time>2024-04-07T10:26:52Z</time>
      </trkpt>
      <trkpt lat="44.06231" lon="1.95541">
        <ele>246.8</ele>
        <time>2024-04-07T10:26:53Z</time>
      </trkpt>
      <trkpt lat="44.0623" lon="1.95537">
        <ele>247.4</ele>
        <time>2024-04-07T10:26:54Z</time>
      </trkpt>
      <trkpt lat="44.06228" lon="1.95533">
        <ele>247.8</ele>
        <time>2024-04-07T10:26:55Z</time>
      </trkpt>
      <trkpt lat="44.06227" lon="1.95529">
        <ele>248</ele>
        <time>2024-04-07T10:26:56Z</time>
      </trkpt>
      <trkpt lat="44.06226" lon="1.95524">
        <ele>248.2</ele>
        <time>2024-04-07T10:26:57Z</time>
      </trkpt>
      <trkpt lat="44.06225" lon="1.95519">
        <ele>248.6</ele>
        <time>2024-04-07T10:26:58Z</time>
      </trkpt>
      <trkpt lat="44.06224" lon="1.95514">
        <ele>249</ele>
        <time>2024-04-07T10:26:59Z</time>
      </trkpt>
      <trkpt lat="44.06223" lon="1.9551">
        <ele>249.2</ele>
        <time>2024-04-07T10:27:00Z</time>
      </trkpt>
      <trkpt lat="44.06221" lon="1.95505">
        <ele>249.2</ele>
        <time>2024-04-07T10:27:01Z</time>
      </trkpt>
      <trkpt lat="44.0622" lon="1.955">
        <ele>249.6</ele>
        <time>2024-04-07T10:27:02Z</time>
      </trkpt>
      <trkpt lat="44.06218" lon="1.95495">
        <ele>249.8</ele>
        <time>2024-04-07T10:27:03Z</time>
      </trkpt>
      <trkpt lat="44.06216" lon="1.9549">
        <ele>250.2</ele>
        <time>2024-04-07T10:27:04Z</time>
      </trkpt>
      <trkpt lat="44.06214" lon="1.95485">
        <ele>250.4</ele>
        <time>2024-04-07T10:27:05Z</time>
      </trkpt>
      <trkpt lat="44.06213" lon="1.9548">
        <ele>250.6</ele>
        <time>2024-04-07T10:27:06Z</time>
      </trkpt>
      <trkpt lat="44.06211" lon="1.95476">
        <ele>250.6</ele>
        <time>2024-04-07T10:27:07Z</time>
      </trkpt>
      <trkpt lat="44.0621" lon="1.95471">
        <ele>250.8</ele>
        <time>2024-04-07T10:27:08Z</time>
      </trkpt>
      <trkpt lat="44.06209" lon="1.95466">
        <ele>251</ele>
        <time>2024-04-07T10:27:09Z</time>
      </trkpt>
      <trkpt lat="44.06208" lon="1.9546">
        <ele>251.2</ele>
        <time>2024-04-07T10:27:10Z</time>
      </trkpt>
      <trkpt lat="44.06207" lon="1.95454">
        <ele>251.2</ele>
        <time>2024-04-07T10:27:11Z</time>
      </trkpt>
      <trkpt lat="44.06206" lon="1.95447">
        <ele>251.4</ele>
        <time>2024-04-07T10:27:12Z</time>
      </trkpt>
      <trkpt lat="44.06206" lon="1.95441">
        <ele>252</ele>
        <time>2024-04-07T10:27:13Z</time>
      </trkpt>
      <trkpt lat="44.06205" lon="1.95435">
        <ele>252.2</ele>
        <time>2024-04-07T10:27:14Z</time>
      </trkpt>
      <trkpt lat="44.06205" lon="1.95429">
        <ele>252.2</ele>
        <time>2024-04-07T10:27:15Z</time>
      </trkpt>
      <trkpt lat="44.06204" lon="1.95424">
        <ele>252.6</ele>
        <time>2024-04-07T10:27:16Z</time>
      </trkpt>
      <trkpt lat="44.06203" lon="1.95418">
        <ele>252.8</ele>
        <time>2024-04-07T10:27:17Z</time>
      </trkpt>
      <trkpt lat="44.06202" lon="1.95413">
        <ele>253</ele>
        <time>2024-04-07T10:27:18Z</time>
      </trkpt>
      <trkpt lat="44.06202" lon="1.95407">
        <ele>253.2</ele>
        <time>2024-04-07T10:27:19Z</time>
      </trkpt>
      <trkpt lat="44.06202" lon="1.95401">
        <ele>253.6</ele>
        <time>2024-04-07T10:27:20Z</time>
      </trkpt>
      <trkpt lat="44.06201" lon="1.95395">
        <ele>253.8</ele>
        <time>2024-04-07T10:27:21Z</time>
      </trkpt>
      <trkpt lat="44.06201" lon="1.95389">
        <ele>254.2</ele>
        <time>2024-04-07T10:27:22Z</time>
      </trkpt>
      <trkpt lat="44.06202" lon="1.95383">
        <ele>254.8</ele>
        <time>2024-04-07T10:27:23Z</time>
      </trkpt>
      <trkpt lat="44.06203" lon="1.95377">
        <ele>255</ele>
        <time>2024-04-07T10:27:24Z</time>
      </trkpt>
      <trkpt lat="44.06204" lon="1.95372">
        <ele>255.2</ele>
        <time>2024-04-07T10:27:25Z</time>
      </trkpt>
      <trkpt lat="44.06205" lon="1.95367">
        <ele>255.4</ele>
        <time>2024-04-07T10:27:26Z</time>
      </trkpt>
      <trkpt lat="44.06205" lon="1.95362">
        <ele>255.8</ele>
        <time>2024-04-07T10:27:27Z</time>
      </trkpt>
      <trkpt lat="44.06207" lon="1.95357">
        <ele>256</ele>
        <time>2024-04-07T10:27:28Z</time>
      </trkpt>
      <trkpt lat="44.06208" lon="1.95352">
        <ele>256.4</ele>
        <time>2024-04-07T10:27:29Z</time>
      </trkpt>
      <trkpt lat="44.06209" lon="1.95347">
        <ele>257</ele>
        <time>2024-04-07T10:27:30Z</time>
      </trkpt>
      <trkpt lat="44.0621" lon="1.95341">
        <ele>257.6</ele>
        <time>2024-04-07T10:27:31Z</time>
      </trkpt>
      <trkpt lat="44.06212" lon="1.95335">
        <ele>258.4</ele>
        <time>2024-04-07T10:27:32Z</time>
      </trkpt>
      <trkpt lat="44.06213" lon="1.9533">
        <ele>258.6</ele>
        <time>2024-04-07T10:27:33Z</time>
      </trkpt>
      <trkpt lat="44.06215" lon="1.95325">
        <ele>259.2</ele>
        <time>2024-04-07T10:27:34Z</time>
      </trkpt>
      <trkpt lat="44.06216" lon="1.9532">
        <ele>259.2</ele>
        <time>2024-04-07T10:27:35Z</time>
      </trkpt>
      <trkpt lat="44.06218" lon="1.95315">
        <ele>260</ele>
        <time>2024-04-07T10:27:36Z</time>
      </trkpt>
      <trkpt lat="44.06219" lon="1.9531">
        <ele>260.2</ele>
        <time>2024-04-07T10:27:37Z</time>
      </trkpt>
      <trkpt lat="44.06221" lon="1.95304">
        <ele>260.8</ele>
        <time>2024-04-07T10:27:38Z</time>
      </trkpt>
      <trkpt lat="44.06222" lon="1.95299">
        <ele>261.4</ele>
        <time>2024-04-07T10:27:39Z</time>
      </trkpt>
      <trkpt lat="44.06223" lon="1.95294">
        <ele>261.6</ele>
        <time>2024-04-07T10:27:40Z</time>
      </trkpt>
      <trkpt lat="44.06224" lon="1.95288">
        <ele>262.4</ele>
        <time>2024-04-07T10:27:41Z</time>
      </trkpt>
      <trkpt lat="44.06225" lon="1.95283">
        <ele>262.6</ele>
        <time>2024-04-07T10:27:42Z</time>
      </trkpt>
      <trkpt lat="44.06226" lon="1.95278">
        <ele>263</ele>
        <time>2024-04-07T10:27:43Z</time>
      </trkpt>
      <trkpt lat="44.06228" lon="1.95272">
        <ele>263.4</ele>
        <time>2024-04-07T10:27:44Z</time>
      </trkpt>
      <trkpt lat="44.06229" lon="1.95267">
        <ele>263.6</ele>
        <time>2024-04-07T10:27:45Z</time>
      </trkpt>
      <trkpt lat="44.0623" lon="1.95261">
        <ele>264</ele>
        <time>2024-04-07T10:27:46Z</time>
      </trkpt>
      <trkpt lat="44.0623" lon="1.95256">
        <ele>264.6</ele>
        <time>2024-04-07T10:27:47Z</time>
      </trkpt>
      <trkpt lat="44.06231" lon="1.95251">
        <ele>265</ele>
        <time>2024-04-07T10:27:48Z</time>
      </trkpt>
      <trkpt lat="44.06232" lon="1.95246">
        <ele>265.4</ele>
        <time>2024-04-07T10:27:49Z</time>
      </trkpt>
      <trkpt lat="44.06232" lon="1.9524">
        <ele>266</ele>
        <time>2024-04-07T10:27:50Z</time>
      </trkpt>
      <trkpt lat="44.06232" lon="1.95234">
        <ele>266.2</ele>
        <time>2024-04-07T10:27:51Z</time>
      </trkpt>
      <trkpt lat="44.06231" lon="1.9523">
        <ele>266.6</ele>
        <time>2024-04-07T10:27:52Z</time>
      </trkpt>
      <trkpt lat="44.06231" lon="1.95225">
        <ele>266.8</ele>
        <time>2024-04-07T10:27:53Z</time>
      </trkpt>
      <trkpt lat="44.06231" lon="1.95222">
        <ele>267.4</ele>
        <time>2024-04-07T10:27:54Z</time>
      </trkpt>
      <trkpt lat="44.0623" lon="1.95219">
        <ele>267.8</ele>
        <time>2024-04-07T10:27:55Z</time>
      </trkpt>
      <trkpt lat="44.0623" lon="1.95216">
        <ele>267.8</ele>
        <time>2024-04-07T10:27:56Z</time>
      </trkpt>
      <trkpt lat="44.0623" lon="1.95212">
        <ele>268.2</ele>
        <time>2024-04-07T10:27:57Z</time>
      </trkpt>
      <trkpt lat="44.06229" lon="1.95207">
        <ele>268.4</ele>
        <time>2024-04-07T10:27:58Z</time>
      </trkpt>
      <trkpt lat="44.06229" lon="1.95203">
        <ele>268.6</ele>
        <time>2024-04-07T10:27:59Z</time>
      </trkpt>
      <trkpt lat="44.06228" lon="1.95197">
        <ele>268.6</ele>
        <time>2024-04-07T10:28:00Z</time>
      </trkpt>
      <trkpt lat="44.06228" lon="1.9519">
        <ele>268.8</ele>
        <time>2024-04-07T10:28:01Z</time>
      </trkpt>
      <trkpt lat="44.06227" lon="1.95182">
        <ele>268.8</ele>
        <time>2024-04-07T10:28:02Z</time>
      </trkpt>
      <trkpt lat="44.06226" lon="1.95173">
        <ele>268.8</ele>
        <time>2024-04-07T10:28:03Z</time>
      </trkpt>
      <trkpt lat="44.06225" lon="1.95163">
        <ele>268.8</ele>
        <time>2024-04-07T10:28:04Z</time>
      </trkpt>
      <trkpt lat="44.06225" lon="1.95153">
        <ele>268.6</ele>
        <time>2024-04-07T10:28:05Z</time>
      </trkpt>
      <trkpt lat="44.06224" lon="1.95143">
        <ele>268.4</ele>
        <time>2024-04-07T10:28:06Z</time>
      </trkpt>
      <trkpt lat="44.06223" lon="1.95132">
        <ele>268.2</ele>
        <time>2024-04-07T10:28:07Z</time>
      </trkpt>
      <trkpt lat="44.06222" lon="1.95121">
        <ele>267.8</ele>
        <time>2024-04-07T10:28:08Z</time>
      </trkpt>
      <trkpt lat="44.06222" lon="1.95111">
        <ele>267.4</ele>
        <time>2024-04-07T10:28:09Z</time>
      </trkpt>
      <trkpt lat="44.06221" lon="1.95101">
        <ele>266.4</ele>
        <time>2024-04-07T10:28:10Z</time>
      </trkpt>
      <trkpt lat="44.06222" lon="1.95092">
        <ele>265.4</ele>
        <time>2024-04-07T10:28:11Z</time>
      </trkpt>
      <trkpt lat="44.06224" lon="1.95082">
        <ele>265.2</ele>
        <time>2024-04-07T10:28:12Z</time>
      </trkpt>
      <trkpt lat="44.06226" lon="1.95072">
        <ele>264.2</ele>
        <time>2024-04-07T10:28:13Z</time>
      </trkpt>
      <trkpt lat="44.06229" lon="1.95064">
        <ele>263.6</ele>
        <time>2024-04-07T10:28:14Z</time>
      </trkpt>
      <trkpt lat="44.06232" lon="1.95055">
        <ele>263</ele>
        <time>2024-04-07T10:28:15Z</time>
      </trkpt>
      <trkpt lat="44.06235" lon="1.95046">
        <ele>262.8</ele>
        <time>2024-04-07T10:28:16Z</time>
      </trkpt>
      <trkpt lat="44.06238" lon="1.95038">
        <ele>262</ele>
        <time>2024-04-07T10:28:17Z</time>
      </trkpt>
      <trkpt lat="44.06242" lon="1.95029">
        <ele>261.6</ele>
        <time>2024-04-07T10:28:18Z</time>
      </trkpt>
      <trkpt lat="44.06244" lon="1.95021">
        <ele>260.6</ele>
        <time>2024-04-07T10:28:19Z</time>
      </trkpt>
      <trkpt lat="44.06246" lon="1.95011">
        <ele>259.2</ele>
        <time>2024-04-07T10:28:20Z</time>
      </trkpt>
      <trkpt lat="44.06246" lon="1.95001">
        <ele>258.6</ele>
        <time>2024-04-07T10:28:21Z</time>
      </trkpt>
      <trkpt lat="44.06246" lon="1.94991">
        <ele>258</ele>
        <time>2024-04-07T10:28:22Z</time>
      </trkpt>
      <trkpt lat="44.06247" lon="1.9498">
        <ele>257.6</ele>
        <time>2024-04-07T10:28:23Z</time>
      </trkpt>
      <trkpt lat="44.06248" lon="1.94971">
        <ele>256.8</ele>
        <time>2024-04-07T10:28:24Z</time>
      </trkpt>
      <trkpt lat="44.06248" lon="1.94962">
        <ele>256.2</ele>
        <time>2024-04-07T10:28:25Z</time>
      </trkpt>
      <trkpt lat="44.06247" lon="1.94953">
        <ele>255.2</ele>
        <time>2024-04-07T10:28:26Z</time>
      </trkpt>
      <trkpt lat="44.06246" lon="1.94944">
        <ele>254.6</ele>
        <time>2024-04-07T10:28:27Z</time>
      </trkpt>
      <trkpt lat="44.06244" lon="1.94934">
        <ele>254.4</ele>
        <time>2024-04-07T10:28:28Z</time>
      </trkpt>
      <trkpt lat="44.06242" lon="1.94927">
        <ele>254</ele>
        <time>2024-04-07T10:28:29Z</time>
      </trkpt>
      <trkpt lat="44.06241" lon="1.94917">
        <ele>253.8</ele>
        <time>2024-04-07T10:28:30Z</time>
      </trkpt>
      <trkpt lat="44.06239" lon="1.94906">
        <ele>253.8</ele>
        <time>2024-04-07T10:28:31Z</time>
      </trkpt>
      <trkpt lat="44.06238" lon="1.94895">
        <ele>253.6</ele>
        <time>2024-04-07T10:28:32Z</time>
      </trkpt>
      <trkpt lat="44.06237" lon="1.94883">
        <ele>253.2</ele>
        <time>2024-04-07T10:28:33Z</time>
      </trkpt>
      <trkpt lat="44.06237" lon="1.9487">
        <ele>253</ele>
        <time>2024-04-07T10:28:34Z</time>
      </trkpt>
      <trkpt lat="44.06238" lon="1.94857">
        <ele>252.2</ele>
        <time>2024-04-07T10:28:35Z</time>
      </trkpt>
      <trkpt lat="44.06239" lon="1.94845">
        <ele>251.2</ele>
        <time>2024-04-07T10:28:36Z</time>
      </trkpt>
      <trkpt lat="44.0624" lon="1.94833">
        <ele>251</ele>
        <time>2024-04-07T10:28:37Z</time>
      </trkpt>
      <trkpt lat="44.06242" lon="1.94822">
        <ele>250.2</ele>
        <time>2024-04-07T10:28:38Z</time>
      </trkpt>
      <trkpt lat="44.06244" lon="1.94813">
        <ele>249.4</ele>
        <time>2024-04-07T10:28:39Z</time>
      </trkpt>
      <trkpt lat="44.06246" lon="1.94804">
        <ele>247.4</ele>
        <time>2024-04-07T10:28:40Z</time>
      </trkpt>
      <trkpt lat="44.06248" lon="1.94796">
        <ele>246.8</ele>
        <time>2024-04-07T10:28:41Z</time>
      </trkpt>
      <trkpt lat="44.0625" lon="1.94789">
        <ele>245.8</ele>
        <time>2024-04-07T10:28:42Z</time>
      </trkpt>
      <trkpt lat="44.06252" lon="1.94782">
        <ele>244.2</ele>
        <time>2024-04-07T10:28:43Z</time>
      </trkpt>
      <trkpt lat="44.06253" lon="1.94776">
        <ele>243.6</ele>
        <time>2024-04-07T10:28:44Z</time>
      </trkpt>
      <trkpt lat="44.06254" lon="1.94771">
        <ele>242.2</ele>
        <time>2024-04-07T10:28:45Z</time>
      </trkpt>
      <trkpt lat="44.06254" lon="1.94767">
        <ele>241.6</ele>
        <time>2024-04-07T10:28:46Z</time>
      </trkpt>
      <trkpt lat="44.06255" lon="1.94763">
        <ele>240.6</ele>
        <time>2024-04-07T10:28:47Z</time>
      </trkpt>
      <trkpt lat="44.06255" lon="1.9476">
        <ele>240.4</ele>
        <time>2024-04-07T10:28:48Z</time>
      </trkpt>
      <trkpt lat="44.06255" lon="1.94757">
        <ele>239.6</ele>
        <time>2024-04-07T10:28:49Z</time>
      </trkpt>
      <trkpt lat="44.06255" lon="1.94753">
        <ele>239.4</ele>
        <time>2024-04-07T10:28:50Z</time>
      </trkpt>
      <trkpt lat="44.06256" lon="1.94742">
        <ele>238.6</ele>
        <time>2024-04-07T10:28:52Z</time>
      </trkpt>
      <trkpt lat="44.06256" lon="1.94735">
        <ele>238.4</ele>
        <time>2024-04-07T10:28:53Z</time>
      </trkpt>
      <trkpt lat="44.06257" lon="1.94726">
        <ele>238</ele>
        <time>2024-04-07T10:28:54Z</time>
      </trkpt>
      <trkpt lat="44.06257" lon="1.94716">
        <ele>237.8</ele>
        <time>2024-04-07T10:28:55Z</time>
      </trkpt>
      <trkpt lat="44.06257" lon="1.94706">
        <ele>236.8</ele>
        <time>2024-04-07T10:28:56Z</time>
      </trkpt>
      <trkpt lat="44.06256" lon="1.94694">
        <ele>236.4</ele>
        <time>2024-04-07T10:28:57Z</time>
      </trkpt>
      <trkpt lat="44.06254" lon="1.94682">
        <ele>235.4</ele>
        <time>2024-04-07T10:28:58Z</time>
      </trkpt>
      <trkpt lat="44.06252" lon="1.94671">
        <ele>234.2</ele>
        <time>2024-04-07T10:28:59Z</time>
      </trkpt>
      <trkpt lat="44.06251" lon="1.9466">
        <ele>233.4</ele>
        <time>2024-04-07T10:29:00Z</time>
      </trkpt>
      <trkpt lat="44.06249" lon="1.9465">
        <ele>231.2</ele>
        <time>2024-04-07T10:29:01Z</time>
      </trkpt>
      <trkpt lat="44.06247" lon="1.94641">
        <ele>230.4</ele>
        <time>2024-04-07T10:29:02Z</time>
      </trkpt>
      <trkpt lat="44.06246" lon="1.9463">
        <ele>228.4</ele>
        <time>2024-04-07T10:29:03Z</time>
      </trkpt>
      <trkpt lat="44.06245" lon="1.9462">
        <ele>227.2</ele>
        <time>2024-04-07T10:29:04Z</time>
      </trkpt>
      <trkpt lat="44.06245" lon="1.94611">
        <ele>225</ele>
        <time>2024-04-07T10:29:05Z</time>
      </trkpt>
      <trkpt lat="44.06246" lon="1.94601">
        <ele>224.2</ele>
        <time>2024-04-07T10:29:06Z</time>
      </trkpt>
      <trkpt lat="44.06247" lon="1.94592">
        <ele>222.4</ele>
        <time>2024-04-07T10:29:07Z</time>
      </trkpt>
      <trkpt lat="44.06249" lon="1.94582">
        <ele>220.8</ele>
        <time>2024-04-07T10:29:08Z</time>
      </trkpt>
      <trkpt lat="44.06252" lon="1.94571">
        <ele>220.2</ele>
        <time>2024-04-07T10:29:09Z</time>
      </trkpt>
      <trkpt lat="44.06255" lon="1.94561">
        <ele>219</ele>
        <time>2024-04-07T10:29:10Z</time>
      </trkpt>
      <trkpt lat="44.06258" lon="1.94551">
        <ele>217.8</ele>
        <time>2024-04-07T10:29:11Z</time>
      </trkpt>
      <trkpt lat="44.06261" lon="1.94542">
        <ele>216.4</ele>
        <time>2024-04-07T10:29:12Z</time>
      </trkpt>
      <trkpt lat="44.06264" lon="1.94535">
        <ele>215.8</ele>
        <time>2024-04-07T10:29:13Z</time>
      </trkpt>
      <trkpt lat="44.06267" lon="1.94528">
        <ele>214.4</ele>
        <time>2024-04-07T10:29:14Z</time>
      </trkpt>
      <trkpt lat="44.0627" lon="1.9452">
        <ele>213</ele>
        <time>2024-04-07T10:29:15Z</time>
      </trkpt>
      <trkpt lat="44.06274" lon="1.94513">
        <ele>212.4</ele>
        <time>2024-04-07T10:29:16Z</time>
      </trkpt>
      <trkpt lat="44.06279" lon="1.94505">
        <ele>211.8</ele>
        <time>2024-04-07T10:29:17Z</time>
      </trkpt>
      <trkpt lat="44.06284" lon="1.94496">
        <ele>211.4</ele>
        <time>2024-04-07T10:29:18Z</time>
      </trkpt>
      <trkpt lat="44.06289" lon="1.94487">
        <ele>210.6</ele>
        <time>2024-04-07T10:29:19Z</time>
      </trkpt>
      <trkpt lat="44.063" lon="1.94469">
        <ele>209.4</ele>
        <time>2024-04-07T10:29:21Z</time>
      </trkpt>
      <trkpt lat="44.06305" lon="1.9446">
        <ele>208.8</ele>
        <time>2024-04-07T10:29:22Z</time>
      </trkpt>
      <trkpt lat="44.06307" lon="1.94451">
        <ele>208.6</ele>
        <time>2024-04-07T10:29:23Z</time>
      </trkpt>
      <trkpt lat="44.0631" lon="1.94445">
        <ele>207.2</ele>
        <time>2024-04-07T10:29:24Z</time>
      </trkpt>
      <trkpt lat="44.06312" lon="1.9444">
        <ele>206.6</ele>
        <time>2024-04-07T10:29:25Z</time>
      </trkpt>
      <trkpt lat="44.06313" lon="1.94434">
        <ele>205.8</ele>
        <time>2024-04-07T10:29:26Z</time>
      </trkpt>
      <trkpt lat="44.06316" lon="1.94429">
        <ele>205.4</ele>
        <time>2024-04-07T10:29:27Z</time>
      </trkpt>
      <trkpt lat="44.0632" lon="1.94424">
        <ele>204.6</ele>
        <time>2024-04-07T10:29:28Z</time>
      </trkpt>
      <trkpt lat="44.06323" lon="1.9442">
        <ele>204.2</ele>
        <time>2024-04-07T10:29:29Z</time>
      </trkpt>
      <trkpt lat="44.06326" lon="1.94415">
        <ele>203.6</ele>
        <time>2024-04-07T10:29:30Z</time>
      </trkpt>
      <trkpt lat="44.06331" lon="1.94402">
        <ele>202.8</ele>
        <time>2024-04-07T10:29:32Z</time>
      </trkpt>
      <trkpt lat="44.06334" lon="1.94395">
        <ele>202</ele>
        <time>2024-04-07T10:29:33Z</time>
      </trkpt>
      <trkpt lat="44.06337" lon="1.94388">
        <ele>201.6</ele>
        <time>2024-04-07T10:29:34Z</time>
      </trkpt>
      <trkpt lat="44.06341" lon="1.94382">
        <ele>201</ele>
        <time>2024-04-07T10:29:35Z</time>
      </trkpt>
      <trkpt lat="44.06346" lon="1.94376">
        <ele>200.8</ele>
        <time>2024-04-07T10:29:36Z</time>
      </trkpt>
      <trkpt lat="44.06352" lon="1.94371">
        <ele>199.8</ele>
        <time>2024-04-07T10:29:37Z</time>
      </trkpt>
      <trkpt lat="44.06357" lon="1.94366">
        <ele>199.2</ele>
        <time>2024-04-07T10:29:38Z</time>
      </trkpt>
      <trkpt lat="44.06362" lon="1.94361">
        <ele>198.8</ele>
        <time>2024-04-07T10:29:39Z</time>
      </trkpt>
      <trkpt lat="44.06366" lon="1.94356">
        <ele>198</ele>
        <time>2024-04-07T10:29:40Z</time>
      </trkpt>
      <trkpt lat="44.06372" lon="1.94349">
        <ele>197.6</ele>
        <time>2024-04-07T10:29:41Z</time>
      </trkpt>
      <trkpt lat="44.06377" lon="1.94345">
        <ele>196.8</ele>
        <time>2024-04-07T10:29:42Z</time>
      </trkpt>
      <trkpt lat="44.06383" lon="1.94341">
        <ele>196.6</ele>
        <time>2024-04-07T10:29:43Z</time>
      </trkpt>
      <trkpt lat="44.06388" lon="1.94336">
        <ele>196.4</ele>
        <time>2024-04-07T10:29:44Z</time>
      </trkpt>
      <trkpt lat="44.06392" lon="1.94333">
        <ele>196.2</ele>
        <time>2024-04-07T10:29:45Z</time>
      </trkpt>
      <trkpt lat="44.06396" lon="1.9433">
        <ele>196</ele>
        <time>2024-04-07T10:29:46Z</time>
      </trkpt>
      <trkpt lat="44.06398" lon="1.94325">
        <ele>195.8</ele>
        <time>2024-04-07T10:29:47Z</time>
      </trkpt>
      <trkpt lat="44.06401" lon="1.9432">
        <ele>195.6</ele>
        <time>2024-04-07T10:29:48Z</time>
      </trkpt>
      <trkpt lat="44.06404" lon="1.94315">
        <ele>195.6</ele>
        <time>2024-04-07T10:29:49Z</time>
      </trkpt>
      <trkpt lat="44.06407" lon="1.9431">
        <ele>195.6</ele>
        <time>2024-04-07T10:29:50Z</time>
      </trkpt>
      <trkpt lat="44.0641" lon="1.94304">
        <ele>195.6</ele>
        <time>2024-04-07T10:29:51Z</time>
      </trkpt>
      <trkpt lat="44.06416" lon="1.94291">
        <ele>195.6</ele>
        <time>2024-04-07T10:29:53Z</time>
      </trkpt>
      <trkpt lat="44.06419" lon="1.94283">
        <ele>195.6</ele>
        <time>2024-04-07T10:29:54Z</time>
      </trkpt>
      <trkpt lat="44.06425" lon="1.94268">
        <ele>195.4</ele>
        <time>2024-04-07T10:29:56Z</time>
      </trkpt>
      <trkpt lat="44.06429" lon="1.94262">
        <ele>195.4</ele>
        <time>2024-04-07T10:29:57Z</time>
      </trkpt>
      <trkpt lat="44.06434" lon="1.94255">
        <ele>195.4</ele>
        <time>2024-04-07T10:29:58Z</time>
      </trkpt>
      <trkpt lat="44.06438" lon="1.94248">
        <ele>195.4</ele>
        <time>2024-04-07T10:29:59Z</time>
      </trkpt>
      <trkpt lat="44.06442" lon="1.94241">
        <ele>195</ele>
        <time>2024-04-07T10:30:00Z</time>
      </trkpt>
      <trkpt lat="44.06448" lon="1.94227">
        <ele>194.6</ele>
        <time>2024-04-07T10:30:02Z</time>
      </trkpt>
      <trkpt lat="44.06452" lon="1.94221">
        <ele>194.4</ele>
        <time>2024-04-07T10:30:03Z</time>
      </trkpt>
      <trkpt lat="44.06459" lon="1.94208">
        <ele>194</ele>
        <time>2024-04-07T10:30:05Z</time>
      </trkpt>
      <trkpt lat="44.06459" lon="1.94208">
        <ele>193.8</ele>
        <time>2024-04-07T10:30:06Z</time>
      </trkpt>
      <trkpt lat="44.06467" lon="1.94197">
        <ele>193.6</ele>
        <time>2024-04-07T10:30:07Z</time>
      </trkpt>
      <trkpt lat="44.06472" lon="1.94191">
        <ele>193.6</ele>
        <time>2024-04-07T10:30:08Z</time>
      </trkpt>
      <trkpt lat="44.06476" lon="1.94186">
        <ele>193.4</ele>
        <time>2024-04-07T10:30:09Z</time>
      </trkpt>
      <trkpt lat="44.0648" lon="1.94181">
        <ele>193.4</ele>
        <time>2024-04-07T10:30:10Z</time>
      </trkpt>
      <trkpt lat="44.06484" lon="1.94177">
        <ele>193.4</ele>
        <time>2024-04-07T10:30:11Z</time>
      </trkpt>
      <trkpt lat="44.06487" lon="1.94171">
        <ele>193.4</ele>
        <time>2024-04-07T10:30:12Z</time>
      </trkpt>
      <trkpt lat="44.0649" lon="1.94166">
        <ele>193.4</ele>
        <time>2024-04-07T10:30:13Z</time>
      </trkpt>
      <trkpt lat="44.06494" lon="1.94161">
        <ele>193.4</ele>
        <time>2024-04-07T10:30:14Z</time>
      </trkpt>
      <trkpt lat="44.06498" lon="1.94156">
        <ele>193.4</ele>
        <time>2024-04-07T10:30:15Z</time>
      </trkpt>
      <trkpt lat="44.06502" lon="1.94151">
        <ele>193.2</ele>
        <time>2024-04-07T10:30:16Z</time>
      </trkpt>
      <trkpt lat="44.06505" lon="1.94146">
        <ele>193.2</ele>
        <time>2024-04-07T10:30:17Z</time>
      </trkpt>
      <trkpt lat="44.06505" lon="1.94142">
        <ele>193</ele>
        <time>2024-04-07T10:30:18Z</time>
      </trkpt>
      <trkpt lat="44.06503" lon="1.94137">
        <ele>193</ele>
        <time>2024-04-07T10:30:19Z</time>
      </trkpt>
      <trkpt lat="44.065" lon="1.94132">
        <ele>193</ele>
        <time>2024-04-07T10:30:20Z</time>
      </trkpt>
      <trkpt lat="44.06496" lon="1.94127">
        <ele>192.6</ele>
        <time>2024-04-07T10:30:21Z</time>
      </trkpt>
      <trkpt lat="44.06493" lon="1.94122">
        <ele>192.4</ele>
        <time>2024-04-07T10:30:22Z</time>
      </trkpt>
      <trkpt lat="44.06492" lon="1.94118">
        <ele>192.2</ele>
        <time>2024-04-07T10:30:23Z</time>
      </trkpt>
      <trkpt lat="44.06494" lon="1.94115">
        <ele>191.8</ele>
        <time>2024-04-07T10:30:24Z</time>
      </trkpt>
      <trkpt lat="44.06497" lon="1.94113">
        <ele>191.6</ele>
        <time>2024-04-07T10:30:25Z</time>
      </trkpt>
      <trkpt lat="44.065" lon="1.94111">
        <ele>191.2</ele>
        <time>2024-04-07T10:30:26Z</time>
      </trkpt>
      <trkpt lat="44.06501" lon="1.94108">
        <ele>191</ele>
        <time>2024-04-07T10:30:27Z</time>
      </trkpt>
      <trkpt lat="44.06501" lon="1.94103">
        <ele>190.8</ele>
        <time>2024-04-07T10:30:28Z</time>
      </trkpt>
      <trkpt lat="44.06497" lon="1.9409">
        <ele>190.4</ele>
        <time>2024-04-07T10:30:30Z</time>
      </trkpt>
      <trkpt lat="44.06496" lon="1.94083">
        <ele>190.2</ele>
        <time>2024-04-07T10:30:31Z</time>
      </trkpt>
      <trkpt lat="44.06494" lon="1.94077">
        <ele>190</ele>
        <time>2024-04-07T10:30:32Z</time>
      </trkpt>
      <trkpt lat="44.06492" lon="1.9407">
        <ele>190</ele>
        <time>2024-04-07T10:30:33Z</time>
      </trkpt>
      <trkpt lat="44.0649" lon="1.94063">
        <ele>189.8</ele>
        <time>2024-04-07T10:30:34Z</time>
      </trkpt>
      <trkpt lat="44.06488" lon="1.94059">
        <ele>189.8</ele>
        <time>2024-04-07T10:30:35Z</time>
      </trkpt>
      <trkpt lat="44.06488" lon="1.94057">
        <ele>189.8</ele>
        <time>2024-04-07T10:30:36Z</time>
      </trkpt>
      <trkpt lat="44.06488" lon="1.94056">
        <ele>189.8</ele>
        <time>2024-04-07T10:30:37Z</time>
      </trkpt>
      <trkpt lat="44.06488" lon="1.94055">
        <ele>189.8</ele>
        <time>2024-04-07T10:30:38Z</time>
      </trkpt>
      <trkpt lat="44.06489" lon="1.94054">
        <ele>189.8</ele>
        <time>2024-04-07T10:30:39Z</time>
      </trkpt>
      <trkpt lat="44.0649" lon="1.94052">
        <ele>189.8</ele>
        <time>2024-04-07T10:30:40Z</time>
      </trkpt>
      <trkpt lat="44.06491" lon="1.9405">
        <ele>189.8</ele>
        <time>2024-04-07T10:30:41Z</time>
      </trkpt>
      <trkpt lat="44.06491" lon="1.94047">
        <ele>190</ele>
        <time>2024-04-07T10:30:42Z</time>
      </trkpt>
      <trkpt lat="44.06493" lon="1.94045">
        <ele>189.8</ele>
        <time>2024-04-07T10:30:43Z</time>
      </trkpt>
      <trkpt lat="44.06494" lon="1.94043">
        <ele>190</ele>
        <time>2024-04-07T10:30:44Z</time>
      </trkpt>
      <trkpt lat="44.06497" lon="1.94042">
        <ele>190</ele>
        <time>2024-04-07T10:30:46Z</time>
      </trkpt>
      <trkpt lat="44.06498" lon="1.94039">
        <ele>189.8</ele>
        <time>2024-04-07T10:30:47Z</time>
      </trkpt>
      <trkpt lat="44.06499" lon="1.94037">
        <ele>189.8</ele>
        <time>2024-04-07T10:30:48Z</time>
      </trkpt>
      <trkpt lat="44.06501" lon="1.94035">
        <ele>189.8</ele>
        <time>2024-04-07T10:30:49Z</time>
      </trkpt>
      <trkpt lat="44.06503" lon="1.94033">
        <ele>189.8</ele>
        <time>2024-04-07T10:30:50Z</time>
      </trkpt>
      <trkpt lat="44.06505" lon="1.9403">
        <ele>189.8</ele>
        <time>2024-04-07T10:30:51Z</time>
      </trkpt>
      <trkpt lat="44.06507" lon="1.94027">
        <ele>189.8</ele>
        <time>2024-04-07T10:30:52Z</time>
      </trkpt>
      <trkpt lat="44.06511" lon="1.94026">
        <ele>189.6</ele>
        <time>2024-04-07T10:30:53Z</time>
      </trkpt>
      <trkpt lat="44.06515" lon="1.94025">
        <ele>189.6</ele>
        <time>2024-04-07T10:30:54Z</time>
      </trkpt>
      <trkpt lat="44.0652" lon="1.94024">
        <ele>189.6</ele>
        <time>2024-04-07T10:30:55Z</time>
      </trkpt>
      <trkpt lat="44.06525" lon="1.94023">
        <ele>189.6</ele>
        <time>2024-04-07T10:30:56Z</time>
      </trkpt>
      <trkpt lat="44.06531" lon="1.94022">
        <ele>189.6</ele>
        <time>2024-04-07T10:30:57Z</time>
      </trkpt>
      <trkpt lat="44.06542" lon="1.94021">
        <ele>189.6</ele>
        <time>2024-04-07T10:30:59Z</time>
      </trkpt>
      <trkpt lat="44.06548" lon="1.9402">
        <ele>189.6</ele>
        <time>2024-04-07T10:31:00Z</time>
      </trkpt>
      <trkpt lat="44.06553" lon="1.94019">
        <ele>189.6</ele>
        <time>2024-04-07T10:31:01Z</time>
      </trkpt>
      <trkpt lat="44.06559" lon="1.94017">
        <ele>189.6</ele>
        <time>2024-04-07T10:31:02Z</time>
      </trkpt>
      <trkpt lat="44.06564" lon="1.94015">
        <ele>189.6</ele>
        <time>2024-04-07T10:31:03Z</time>
      </trkpt>
      <trkpt lat="44.06568" lon="1.94011">
        <ele>189.6</ele>
        <time>2024-04-07T10:31:04Z</time>
      </trkpt>
      <trkpt lat="44.06569" lon="1.94007">
        <ele>189.8</ele>
        <time>2024-04-07T10:31:05Z</time>
      </trkpt>
      <trkpt lat="44.0657" lon="1.94003">
        <ele>189.8</ele>
        <time>2024-04-07T10:31:06Z</time>
      </trkpt>
      <trkpt lat="44.06569" lon="1.93997">
        <ele>189.8</ele>
        <time>2024-04-07T10:31:07Z</time>
      </trkpt>
      <trkpt lat="44.06569" lon="1.9399">
        <ele>190</ele>
        <time>2024-04-07T10:31:08Z</time>
      </trkpt>
      <trkpt lat="44.0657" lon="1.93985">
        <ele>190</ele>
        <time>2024-04-07T10:31:09Z</time>
      </trkpt>
      <trkpt lat="44.06572" lon="1.93979">
        <ele>190</ele>
        <time>2024-04-07T10:31:10Z</time>
      </trkpt>
      <trkpt lat="44.06573" lon="1.93975">
        <ele>190</ele>
        <time>2024-04-07T10:31:11Z</time>
      </trkpt>
      <trkpt lat="44.06575" lon="1.93971">
        <ele>190</ele>
        <time>2024-04-07T10:31:12Z</time>
      </trkpt>
      <trkpt lat="44.06576" lon="1.93967">
        <ele>190</ele>
        <time>2024-04-07T10:31:13Z</time>
      </trkpt>
      <trkpt lat="44.06577" lon="1.93963">
        <ele>190</ele>
        <time>2024-04-07T10:31:14Z</time>
      </trkpt>
      <trkpt lat="44.06577" lon="1.93963">
        <ele>190</ele>
        <time>2024-04-07T10:31:15Z</time>
      </trkpt>
      <trkpt lat="44.06579" lon="1.93953">
        <ele>190</ele>
        <time>2024-04-07T10:31:16Z</time>
      </trkpt>
      <trkpt lat="44.06581" lon="1.93948">
        <ele>190</ele>
        <time>2024-04-07T10:31:17Z</time>
      </trkpt>
      <trkpt lat="44.06582" lon="1.93943">
        <ele>190.8</ele>
        <time>2024-04-07T10:31:18Z</time>
      </trkpt>
      <trkpt lat="44.06582" lon="1.93939">
        <ele>191.2</ele>
        <time>2024-04-07T10:31:19Z</time>
      </trkpt>
      <trkpt lat="44.06582" lon="1.93935">
        <ele>191.6</ele>
        <time>2024-04-07T10:31:20Z</time>
      </trkpt>
      <trkpt lat="44.0658" lon="1.93931">
        <ele>192</ele>
        <time>2024-04-07T10:31:21Z</time>
      </trkpt>
      <trkpt lat="44.0658" lon="1.93927">
        <ele>192.2</ele>
        <time>2024-04-07T10:31:22Z</time>
      </trkpt>
      <trkpt lat="44.0658" lon="1.93923">
        <ele>192.4</ele>
        <time>2024-04-07T10:31:23Z</time>
      </trkpt>
      <trkpt lat="44.06582" lon="1.93919">
        <ele>192.8</ele>
        <time>2024-04-07T10:31:24Z</time>
      </trkpt>
      <trkpt lat="44.06584" lon="1.93917">
        <ele>193</ele>
        <time>2024-04-07T10:31:25Z</time>
      </trkpt>
      <trkpt lat="44.06587" lon="1.93915">
        <ele>193.2</ele>
        <time>2024-04-07T10:31:26Z</time>
      </trkpt>
      <trkpt lat="44.0659" lon="1.93913">
        <ele>193.6</ele>
        <time>2024-04-07T10:31:27Z</time>
      </trkpt>
      <trkpt lat="44.06593" lon="1.93911">
        <ele>193.8</ele>
        <time>2024-04-07T10:31:28Z</time>
      </trkpt>
      <trkpt lat="44.06597" lon="1.9391">
        <ele>194.6</ele>
        <time>2024-04-07T10:31:29Z</time>
      </trkpt>
      <trkpt lat="44.066" lon="1.93909">
        <ele>195</ele>
        <time>2024-04-07T10:31:30Z</time>
      </trkpt>
      <trkpt lat="44.06603" lon="1.93908">
        <ele>195</ele>
        <time>2024-04-07T10:31:31Z</time>
      </trkpt>
      <trkpt lat="44.06607" lon="1.93907">
        <ele>195.2</ele>
        <time>2024-04-07T10:31:32Z</time>
      </trkpt>
      <trkpt lat="44.0661" lon="1.93907">
        <ele>195.4</ele>
        <time>2024-04-07T10:31:33Z</time>
      </trkpt>
      <trkpt lat="44.06613" lon="1.93908">
        <ele>195.6</ele>
        <time>2024-04-07T10:31:34Z</time>
      </trkpt>
      <trkpt lat="44.06617" lon="1.93909">
        <ele>195.6</ele>
        <time>2024-04-07T10:31:35Z</time>
      </trkpt>
      <trkpt lat="44.06619" lon="1.93911">
        <ele>195.8</ele>
        <time>2024-04-07T10:31:36Z</time>
      </trkpt>
      <trkpt lat="44.06622" lon="1.93913">
        <ele>195.8</ele>
        <time>2024-04-07T10:31:37Z</time>
      </trkpt>
      <trkpt lat="44.06625" lon="1.93915">
        <ele>196</ele>
        <time>2024-04-07T10:31:38Z</time>
      </trkpt>
      <trkpt lat="44.06627" lon="1.93916">
        <ele>196</ele>
        <time>2024-04-07T10:31:39Z</time>
      </trkpt>
      <trkpt lat="44.06629" lon="1.93917">
        <ele>196</ele>
        <time>2024-04-07T10:31:40Z</time>
      </trkpt>
      <trkpt lat="44.06631" lon="1.93918">
        <ele>196</ele>
        <time>2024-04-07T10:31:41Z</time>
      </trkpt>
      <trkpt lat="44.06633" lon="1.93919">
        <ele>196</ele>
        <time>2024-04-07T10:31:42Z</time>
      </trkpt>
      <trkpt lat="44.06634" lon="1.9392">
        <ele>196</ele>
        <time>2024-04-07T10:31:43Z</time>
      </trkpt>
      <trkpt lat="44.06636" lon="1.93921">
        <ele>196</ele>
        <time>2024-04-07T10:31:44Z</time>
      </trkpt>
      <trkpt lat="44.06637" lon="1.93923">
        <ele>196</ele>
        <time>2024-04-07T10:31:45Z</time>
      </trkpt>
      <trkpt lat="44.06637" lon="1.93924">
        <ele>195.8</ele>
        <time>2024-04-07T10:31:46Z</time>
      </trkpt>
      <trkpt lat="44.06638" lon="1.93926">
        <ele>195.8</ele>
        <time>2024-04-07T10:31:47Z</time>
      </trkpt>
      <trkpt lat="44.06638" lon="1.93928">
        <ele>195.8</ele>
        <time>2024-04-07T10:31:48Z</time>
      </trkpt>
      <trkpt lat="44.06637" lon="1.93929">
        <ele>195.8</ele>
        <time>2024-04-07T10:31:49Z</time>
      </trkpt>
      <trkpt lat="44.06636" lon="1.93931">
        <ele>195.6</ele>
        <time>2024-04-07T10:31:50Z</time>
      </trkpt>
      <trkpt lat="44.06635" lon="1.93932">
        <ele>195.6</ele>
        <time>2024-04-07T10:31:51Z</time>
      </trkpt>
      <trkpt lat="44.06633" lon="1.93934">
        <ele>195.4</ele>
        <time>2024-04-07T10:31:52Z</time>
      </trkpt>
      <trkpt lat="44.06631" lon="1.93935">
        <ele>195.4</ele>
        <time>2024-04-07T10:31:53Z</time>
      </trkpt>
      <trkpt lat="44.06629" lon="1.93936">
        <ele>195.2</ele>
        <time>2024-04-07T10:31:54Z</time>
      </trkpt>
      <trkpt lat="44.06625" lon="1.93937">
        <ele>195.2</ele>
        <time>2024-04-07T10:31:55Z</time>
      </trkpt>
      <trkpt lat="44.06621" lon="1.93937">
        <ele>195</ele>
        <time>2024-04-07T10:31:56Z</time>
      </trkpt>
      <trkpt lat="44.06618" lon="1.93937">
        <ele>195</ele>
        <time>2024-04-07T10:31:57Z</time>
      </trkpt>
      <trkpt lat="44.06614" lon="1.93936">
        <ele>194.8</ele>
        <time>2024-04-07T10:31:58Z</time>
      </trkpt>
      <trkpt lat="44.06611" lon="1.93937">
        <ele>194.8</ele>
        <time>2024-04-07T10:31:59Z</time>
      </trkpt>
      <trkpt lat="44.06607" lon="1.93938">
        <ele>194.8</ele>
        <time>2024-04-07T10:32:00Z</time>
      </trkpt>
      <trkpt lat="44.06605" lon="1.93941">
        <ele>194.8</ele>
        <time>2024-04-07T10:32:01Z</time>
      </trkpt>
      <trkpt lat="44.06604" lon="1.93945">
        <ele>194.4</ele>
        <time>2024-04-07T10:32:02Z</time>
      </trkpt>
      <trkpt lat="44.06605" lon="1.93948">
        <ele>194.4</ele>
        <time>2024-04-07T10:32:03Z</time>
      </trkpt>
      <trkpt lat="44.06607" lon="1.93951">
        <ele>194.2</ele>
        <time>2024-04-07T10:32:04Z</time>
      </trkpt>
      <trkpt lat="44.0661" lon="1.93954">
        <ele>194</ele>
        <time>2024-04-07T10:32:05Z</time>
      </trkpt>
      <trkpt lat="44.06612" lon="1.93955">
        <ele>193.6</ele>
        <time>2024-04-07T10:32:06Z</time>
      </trkpt>
      <trkpt lat="44.06614" lon="1.93956">
        <ele>193.6</ele>
        <time>2024-04-07T10:32:07Z</time>
      </trkpt>
      <trkpt lat="44.06615" lon="1.93957">
        <ele>193.2</ele>
        <time>2024-04-07T10:32:08Z</time>
      </trkpt>
      <trkpt lat="44.06615" lon="1.93957">
        <ele>192.8</ele>
        <time>2024-04-07T10:32:09Z</time>
      </trkpt>
      <trkpt lat="44.06615" lon="1.93957">
        <ele>192.8</ele>
        <time>2024-04-07T10:32:10Z</time>
      </trkpt>
      <trkpt lat="44.06616" lon="1.93958">
        <ele>192.6</ele>
        <time>2024-04-07T10:32:11Z</time>
      </trkpt>
      <trkpt lat="44.06616" lon="1.93958">
        <ele>192.6</ele>
        <time>2024-04-07T10:32:12Z</time>
      </trkpt>
      <trkpt lat="44.06616" lon="1.93958">
        <ele>192.6</ele>
        <time>2024-04-07T10:32:13Z</time>
      </trkpt>
      <trkpt lat="44.06616" lon="1.93958">
        <ele>192.6</ele>
        <time>2024-04-07T10:32:14Z</time>
      </trkpt>
      <trkpt lat="44.06616" lon="1.93958">
        <ele>192.4</ele>
        <time>2024-04-07T10:32:15Z</time>
      </trkpt>
      <trkpt lat="44.06616" lon="1.93958">
        <ele>192.4</ele>
        <time>2024-04-07T10:32:16Z</time>
      </trkpt>
      <trkpt lat="44.06616" lon="1.93959">
        <ele>192.4</ele>
        <time>2024-04-07T10:32:17Z</time>
      </trkpt>
      <trkpt lat="44.06616" lon="1.93959">
        <ele>192.4</ele>
        <time>2024-04-07T10:32:18Z</time>
      </trkpt>
    </trkseg>
  </trk>
</gpx>